<?xml version='1.0' encoding='UTF-8'?><gpx version="1.1" creator="JPX - https://github.com/jenetics/jpx" xmlns="http://www.topografix.com/GPX/1/1"><trk><trkseg><trkpt lat="45.8186267" lon="13.4859233"><ele>7.000000000000001</ele><time>2026-04-30T09:10:38.1Z</time></trkpt><trkpt lat="45.8186333" lon="13.4860267"><ele>7.0</ele><time>2026-04-30T09:10:40.047Z</time></trkpt><trkpt lat="45.8186533" lon="13.48615"><ele>7.0</ele><time>2026-04-30T09:10:42.061Z</time></trkpt><trkpt lat="45.81867" lon="13.4862633"><ele>7.0</ele><time>2026-04-30T09:10:44.074Z</time></trkpt><trkpt lat="45.8186817" lon="13.4863817"><ele>7.000000000000001</ele><time>2026-04-30T09:10:46.087Z</time></trkpt><trkpt lat="45.8186967" lon="13.4864933"><ele>7.0</ele><time>2026-04-30T09:10:48.1Z</time></trkpt><trkpt lat="45.8187133" lon="13.4866067"><ele>6.500000000000001</ele><time>2026-04-30T09:10:50.045Z</time></trkpt><trkpt lat="45.8187717" lon="13.48669"><ele>6.0</ele><time>2026-04-30T09:10:53.132Z</time></trkpt><trkpt lat="45.8188367" lon="13.48668"><ele>5.5</ele><time>2026-04-30T09:10:55.08Z</time></trkpt><trkpt lat="45.818925" lon="13.486655"><ele>5.0</ele><time>2026-04-30T09:10:57.092Z</time></trkpt><trkpt lat="45.81902" lon="13.4866217"><ele>4.5</ele><time>2026-04-30T09:10:59.105Z</time></trkpt><trkpt lat="45.8191067" lon="13.4866033"><ele>4.0</ele><time>2026-04-30T09:11:01.118Z</time></trkpt><trkpt lat="45.81919" lon="13.48659"><ele>3.9999999999999996</ele><time>2026-04-30T09:11:03.132Z</time></trkpt><trkpt lat="45.8192933" lon="13.48656"><ele>4.0</ele><time>2026-04-30T09:11:06.085Z</time></trkpt><trkpt lat="45.819375" lon="13.4865383"><ele>4.0</ele><time>2026-04-30T09:13:01.11Z</time></trkpt><trkpt lat="45.819435" lon="13.48651"><ele>4.0</ele><time>2026-04-30T09:13:03.055Z</time></trkpt><trkpt lat="45.81951" lon="13.4865017"><ele>3.9999999999999996</ele><time>2026-04-30T09:13:05.069Z</time></trkpt><trkpt lat="45.8195817" lon="13.486495"><ele>4.0</ele><time>2026-04-30T09:13:07.083Z</time></trkpt><trkpt lat="45.81968" lon="13.4864733"><ele>4.142857142857142</ele><time>2026-04-30T09:13:10.103Z</time></trkpt><trkpt lat="45.8197617" lon="13.4864467"><ele>4.285714285714286</ele><time>2026-04-30T09:13:12.116Z</time></trkpt><trkpt lat="45.8198433" lon="13.486425"><ele>4.428571428571429</ele><time>2026-04-30T09:13:14.128Z</time></trkpt><trkpt lat="45.8199167" lon="13.48641"><ele>4.571428571428571</ele><time>2026-04-30T09:13:16.142Z</time></trkpt><trkpt lat="45.8199833" lon="13.4863867"><ele>4.714285714285714</ele><time>2026-04-30T09:13:19.095Z</time></trkpt><trkpt lat="45.820045" lon="13.4863667"><ele>4.857142857142857</ele><time>2026-04-30T09:13:52.113Z</time></trkpt><trkpt lat="45.8201017" lon="13.4863267"><ele>5.0</ele><time>2026-04-30T09:13:55.065Z</time></trkpt><trkpt lat="45.8201667" lon="13.4863567"><ele>5.0</ele><time>2026-04-30T09:13:58.086Z</time></trkpt><trkpt lat="45.8201467" lon="13.4864767"><ele>5.0</ele><time>2026-04-30T09:14:01.037Z</time></trkpt><trkpt lat="45.8201167" lon="13.4865983"><ele>5.0</ele><time>2026-04-30T09:14:03.052Z</time></trkpt><trkpt lat="45.8201217" lon="13.4867383"><ele>5.0</ele><time>2026-04-30T09:14:05.065Z</time></trkpt><trkpt lat="45.8201983" lon="13.4868"><ele>5.0</ele><time>2026-04-30T09:14:07.077Z</time></trkpt><trkpt lat="45.820265" lon="13.4867867"><ele>5.0</ele><time>2026-04-30T09:14:08.084Z</time></trkpt><trkpt lat="45.8203283" lon="13.4867717"><ele>5.833333333333334</ele><time>2026-04-30T09:14:09.09Z</time></trkpt><trkpt lat="45.8203933" lon="13.48676"><ele>6.666666666666667</ele><time>2026-04-30T09:14:10.097Z</time></trkpt><trkpt lat="45.820505" lon="13.4867383"><ele>7.5</ele><time>2026-04-30T09:14:12.111Z</time></trkpt><trkpt lat="45.82059" lon="13.4867317"><ele>8.333333333333334</ele><time>2026-04-30T09:14:14.124Z</time></trkpt><trkpt lat="45.820685" lon="13.486725"><ele>9.166666666666668</ele><time>2026-04-30T09:14:16.07Z</time></trkpt><trkpt lat="45.8207583" lon="13.4867633"><ele>10.0</ele><time>2026-04-30T09:14:18.083Z</time></trkpt><trkpt lat="45.8207983" lon="13.4868433"><ele>10.0</ele><time>2026-04-30T09:14:20.096Z</time></trkpt><trkpt lat="45.8208267" lon="13.48694"><ele>10.0</ele><time>2026-04-30T09:14:23.05Z</time></trkpt><trkpt lat="45.8208383" lon="13.4870883"><ele>10.0</ele><time>2026-04-30T09:14:56.068Z</time></trkpt><trkpt lat="45.8208733" lon="13.487235"><ele>10.0</ele><time>2026-04-30T09:14:58.08Z</time></trkpt><trkpt lat="45.8208833" lon="13.487325"><ele>10.0</ele><time>2026-04-30T09:14:59.154Z</time></trkpt><trkpt lat="45.8208933" lon="13.48743"><ele>10.0</ele><time>2026-04-30T09:15:00.093Z</time></trkpt><trkpt lat="45.82091" lon="13.4875417"><ele>9.833333333333334</ele><time>2026-04-30T09:15:01.033Z</time></trkpt><trkpt lat="45.8209267" lon="13.4876617"><ele>9.666666666666668</ele><time>2026-04-30T09:15:02.106Z</time></trkpt><trkpt lat="45.8209417" lon="13.487795"><ele>9.5</ele><time>2026-04-30T09:15:03.047Z</time></trkpt><trkpt lat="45.8209567" lon="13.4879167"><ele>9.333333333333334</ele><time>2026-04-30T09:15:04.12Z</time></trkpt><trkpt lat="45.8209733" lon="13.4880367"><ele>9.166666666666666</ele><time>2026-04-30T09:15:05.059Z</time></trkpt><trkpt lat="45.82099" lon="13.4881633"><ele>9.0</ele><time>2026-04-30T09:15:06.067Z</time></trkpt><trkpt lat="45.8210067" lon="13.4882917"><ele>8.8</ele><time>2026-04-30T09:15:07.141Z</time></trkpt><trkpt lat="45.821025" lon="13.4884283"><ele>8.600000000000001</ele><time>2026-04-30T09:15:08.08Z</time></trkpt><trkpt lat="45.8210433" lon="13.4885733"><ele>8.4</ele><time>2026-04-30T09:15:09.02Z</time></trkpt><trkpt lat="45.821065" lon="13.4887267"><ele>8.200000000000001</ele><time>2026-04-30T09:15:10.092Z</time></trkpt><trkpt lat="45.821085" lon="13.488885"><ele>8.0</ele><time>2026-04-30T09:15:11.033Z</time></trkpt><trkpt lat="45.821105" lon="13.4890417"><ele>8.0</ele><time>2026-04-30T09:15:12.106Z</time></trkpt><trkpt lat="45.8211233" lon="13.48919"><ele>8.0</ele><time>2026-04-30T09:15:13.045Z</time></trkpt><trkpt lat="45.82114" lon="13.4893433"><ele>8.0</ele><time>2026-04-30T09:15:14.053Z</time></trkpt><trkpt lat="45.82116" lon="13.489505"><ele>8.0</ele><time>2026-04-30T09:15:15.125Z</time></trkpt><trkpt lat="45.821175" lon="13.4896717"><ele>8.0</ele><time>2026-04-30T09:15:16.065Z</time></trkpt><trkpt lat="45.8211917" lon="13.4898317"><ele>7.6000000000000005</ele><time>2026-04-30T09:15:17.139Z</time></trkpt><trkpt lat="45.8212067" lon="13.489985"><ele>7.200000000000001</ele><time>2026-04-30T09:15:18.079Z</time></trkpt><trkpt lat="45.8212217" lon="13.4901333"><ele>6.8</ele><time>2026-04-30T09:15:19.019Z</time></trkpt><trkpt lat="45.8212383" lon="13.49028"><ele>6.4</ele><time>2026-04-30T09:15:20.093Z</time></trkpt><trkpt lat="45.8212567" lon="13.490425"><ele>6.0</ele><time>2026-04-30T09:15:21.031Z</time></trkpt><trkpt lat="45.8212733" lon="13.4905683"><ele>6.0</ele><time>2026-04-30T09:15:22.105Z</time></trkpt><trkpt lat="45.8212883" lon="13.4907117"><ele>6.0</ele><time>2026-04-30T09:15:23.112Z</time></trkpt><trkpt lat="45.8213033" lon="13.4908533"><ele>6.0</ele><time>2026-04-30T09:15:24.051Z</time></trkpt><trkpt lat="45.8213167" lon="13.490985"><ele>6.0</ele><time>2026-04-30T09:15:25.125Z</time></trkpt><trkpt lat="45.82133" lon="13.4911017"><ele>6.0</ele><time>2026-04-30T09:15:26.064Z</time></trkpt><trkpt lat="45.821345" lon="13.4912133"><ele>6.333333333333333</ele><time>2026-04-30T09:15:27.138Z</time></trkpt><trkpt lat="45.8213583" lon="13.4913283"><ele>6.666666666666666</ele><time>2026-04-30T09:15:28.078Z</time></trkpt><trkpt lat="45.821365" lon="13.4914483"><ele>7.0</ele><time>2026-04-30T09:15:29.017Z</time></trkpt><trkpt lat="45.821365" lon="13.4915683"><ele>7.333333333333333</ele><time>2026-04-30T09:15:30.091Z</time></trkpt><trkpt lat="45.8213483" lon="13.4916783"><ele>7.666666666666666</ele><time>2026-04-30T09:15:31.098Z</time></trkpt><trkpt lat="45.8213267" lon="13.49178"><ele>8.0</ele><time>2026-04-30T09:15:32.105Z</time></trkpt><trkpt lat="45.8212683" lon="13.4919267"><ele>8.0</ele><time>2026-04-30T09:15:34.05Z</time></trkpt><trkpt lat="45.8211833" lon="13.4920717"><ele>8.0</ele><time>2026-04-30T09:15:36.063Z</time></trkpt><trkpt lat="45.8211267" lon="13.492165"><ele>8.0</ele><time>2026-04-30T09:15:37.137Z</time></trkpt><trkpt lat="45.82107" lon="13.4922817"><ele>8.0</ele><time>2026-04-30T09:15:38.077Z</time></trkpt><trkpt lat="45.8210183" lon="13.492425"><ele>8.0</ele><time>2026-04-30T09:15:39.084Z</time></trkpt><trkpt lat="45.8209783" lon="13.492585"><ele>7.800000000000001</ele><time>2026-04-30T09:15:40.091Z</time></trkpt><trkpt lat="45.8209533" lon="13.4927483"><ele>7.6000000000000005</ele><time>2026-04-30T09:15:41.097Z</time></trkpt><trkpt lat="45.8209433" lon="13.4929067"><ele>7.3999999999999995</ele><time>2026-04-30T09:15:42.104Z</time></trkpt><trkpt lat="45.8209483" lon="13.4930517"><ele>7.199999999999999</ele><time>2026-04-30T09:15:43.111Z</time></trkpt><trkpt lat="45.820975" lon="13.4931883"><ele>7.0</ele><time>2026-04-30T09:15:44.05Z</time></trkpt><trkpt lat="45.8210217" lon="13.4933117"><ele>6.8</ele><time>2026-04-30T09:15:45.124Z</time></trkpt><trkpt lat="45.8210783" lon="13.4934317"><ele>6.6</ele><time>2026-04-30T09:15:46.064Z</time></trkpt><trkpt lat="45.8211467" lon="13.4935367"><ele>6.3999999999999995</ele><time>2026-04-30T09:15:47.136Z</time></trkpt><trkpt lat="45.821225" lon="13.4936267"><ele>6.199999999999999</ele><time>2026-04-30T09:15:48.076Z</time></trkpt><trkpt lat="45.8213117" lon="13.49371"><ele>6.0</ele><time>2026-04-30T09:15:49.083Z</time></trkpt><trkpt lat="45.8214033" lon="13.49378"><ele>6.0</ele><time>2026-04-30T09:15:50.09Z</time></trkpt><trkpt lat="45.8214967" lon="13.49386"><ele>6.0</ele><time>2026-04-30T09:15:51.097Z</time></trkpt><trkpt lat="45.8215783" lon="13.493955"><ele>6.0</ele><time>2026-04-30T09:15:52.103Z</time></trkpt><trkpt lat="45.8216383" lon="13.494065"><ele>6.0</ele><time>2026-04-30T09:15:53.109Z</time></trkpt><trkpt lat="45.8216833" lon="13.49419"><ele>6.0</ele><time>2026-04-30T09:15:54.05Z</time></trkpt><trkpt lat="45.8217183" lon="13.4943267"><ele>6.0</ele><time>2026-04-30T09:15:55.122Z</time></trkpt><trkpt lat="45.8217433" lon="13.4944733"><ele>6.0</ele><time>2026-04-30T09:15:56.063Z</time></trkpt><trkpt lat="45.8217667" lon="13.4946217"><ele>6.0</ele><time>2026-04-30T09:15:57.137Z</time></trkpt><trkpt lat="45.8217883" lon="13.4947767"><ele>6.0</ele><time>2026-04-30T09:15:58.075Z</time></trkpt><trkpt lat="45.82181" lon="13.49494"><ele>6.0</ele><time>2026-04-30T09:15:59.082Z</time></trkpt><trkpt lat="45.8218317" lon="13.4951033"><ele>6.5</ele><time>2026-04-30T09:16:00.089Z</time></trkpt><trkpt lat="45.8218517" lon="13.495265"><ele>7.0</ele><time>2026-04-30T09:16:01.095Z</time></trkpt><trkpt lat="45.8218717" lon="13.49543"><ele>7.5</ele><time>2026-04-30T09:16:02.102Z</time></trkpt><trkpt lat="45.82189" lon="13.495595"><ele>8.0</ele><time>2026-04-30T09:16:03.108Z</time></trkpt><trkpt lat="45.8219083" lon="13.495755"><ele>8.0</ele><time>2026-04-30T09:16:04.049Z</time></trkpt><trkpt lat="45.8219233" lon="13.4959"><ele>8.0</ele><time>2026-04-30T09:16:05.123Z</time></trkpt><trkpt lat="45.8219417" lon="13.49604"><ele>8.0</ele><time>2026-04-30T09:16:06.062Z</time></trkpt><trkpt lat="45.82196" lon="13.4961833"><ele>8.0</ele><time>2026-04-30T09:16:07.136Z</time></trkpt><trkpt lat="45.82198" lon="13.496335"><ele>8.0</ele><time>2026-04-30T09:16:08.075Z</time></trkpt><trkpt lat="45.822005" lon="13.4964883"><ele>8.0</ele><time>2026-04-30T09:16:09.081Z</time></trkpt><trkpt lat="45.8220283" lon="13.4966433"><ele>8.0</ele><time>2026-04-30T09:16:10.089Z</time></trkpt><trkpt lat="45.8220517" lon="13.4967983"><ele>8.0</ele><time>2026-04-30T09:16:11.094Z</time></trkpt><trkpt lat="45.8220733" lon="13.4969517"><ele>8.0</ele><time>2026-04-30T09:16:12.101Z</time></trkpt><trkpt lat="45.8220933" lon="13.4970983"><ele>8.0</ele><time>2026-04-30T09:16:13.108Z</time></trkpt><trkpt lat="45.8221083" lon="13.4972317"><ele>7.999999999999999</ele><time>2026-04-30T09:16:14.048Z</time></trkpt><trkpt lat="45.822125" lon="13.49735"><ele>8.0</ele><time>2026-04-30T09:16:15.121Z</time></trkpt><trkpt lat="45.8221417" lon="13.497455"><ele>8.0</ele><time>2026-04-30T09:16:16.06Z</time></trkpt><trkpt lat="45.8221583" lon="13.4975517"><ele>8.0</ele><time>2026-04-30T09:16:17.134Z</time></trkpt><trkpt lat="45.822175" lon="13.4977117"><ele>7.999999999999999</ele><time>2026-04-30T09:16:19.08Z</time></trkpt><trkpt lat="45.8221817" lon="13.49784"><ele>8.0</ele><time>2026-04-30T09:16:21.094Z</time></trkpt><trkpt lat="45.8222017" lon="13.4979883"><ele>8.200000000000001</ele><time>2026-04-30T09:16:23.107Z</time></trkpt><trkpt lat="45.8222133" lon="13.4980883"><ele>8.4</ele><time>2026-04-30T09:16:24.046Z</time></trkpt><trkpt lat="45.8222233" lon="13.4982067"><ele>8.600000000000001</ele><time>2026-04-30T09:16:25.121Z</time></trkpt><trkpt lat="45.8222467" lon="13.4983333"><ele>8.8</ele><time>2026-04-30T09:16:26.06Z</time></trkpt><trkpt lat="45.8222767" lon="13.4984833"><ele>9.0</ele><time>2026-04-30T09:16:27.133Z</time></trkpt><trkpt lat="45.822295" lon="13.4986183"><ele>9.0</ele><time>2026-04-30T09:16:28.074Z</time></trkpt><trkpt lat="45.822305" lon="13.498735"><ele>9.0</ele><time>2026-04-30T09:16:29.08Z</time></trkpt><trkpt lat="45.8223083" lon="13.498885"><ele>9.0</ele><time>2026-04-30T09:16:31.093Z</time></trkpt><trkpt lat="45.8223167" lon="13.499065"><ele>9.0</ele><time>2026-04-30T09:17:13.103Z</time></trkpt><trkpt lat="45.8224167" lon="13.4993167"><ele>8.833333333333334</ele><time>2026-04-30T09:17:16.057Z</time></trkpt><trkpt lat="45.8224717" lon="13.4994067"><ele>8.666666666666666</ele><time>2026-04-30T09:17:17.063Z</time></trkpt><trkpt lat="45.82253" lon="13.4994917"><ele>8.5</ele><time>2026-04-30T09:17:18.069Z</time></trkpt><trkpt lat="45.8225867" lon="13.4995683"><ele>8.333333333333332</ele><time>2026-04-30T09:17:19.076Z</time></trkpt><trkpt lat="45.8226483" lon="13.4996417"><ele>8.166666666666666</ele><time>2026-04-30T09:17:20.149Z</time></trkpt><trkpt lat="45.8227083" lon="13.4997183"><ele>8.0</ele><time>2026-04-30T09:17:21.09Z</time></trkpt><trkpt lat="45.8227717" lon="13.49979"><ele>8.333333333333332</ele><time>2026-04-30T09:17:22.028Z</time></trkpt><trkpt lat="45.8228333" lon="13.49986"><ele>8.666666666666666</ele><time>2026-04-30T09:17:23.103Z</time></trkpt><trkpt lat="45.8229" lon="13.499925"><ele>9.0</ele><time>2026-04-30T09:17:24.043Z</time></trkpt><trkpt lat="45.8229683" lon="13.4999867"><ele>9.333333333333334</ele><time>2026-04-30T09:17:25.115Z</time></trkpt><trkpt lat="45.8230367" lon="13.5000517"><ele>9.666666666666668</ele><time>2026-04-30T09:17:26.056Z</time></trkpt><trkpt lat="45.8231" lon="13.500115"><ele>10.0</ele><time>2026-04-30T09:17:27.062Z</time></trkpt><trkpt lat="45.8231633" lon="13.5001833"><ele>10.0</ele><time>2026-04-30T09:17:28.135Z</time></trkpt><trkpt lat="45.8232117" lon="13.5002483"><ele>10.0</ele><time>2026-04-30T09:17:29.076Z</time></trkpt><trkpt lat="45.8232633" lon="13.5003233"><ele>10.0</ele><time>2026-04-30T09:17:31.089Z</time></trkpt><trkpt lat="45.823375" lon="13.5003567"><ele>10.0</ele><time>2026-04-30T09:17:46.121Z</time></trkpt><trkpt lat="45.82347" lon="13.5002817"><ele>10.0</ele><time>2026-04-30T09:17:48.134Z</time></trkpt><trkpt lat="45.8235833" lon="13.5002533"><ele>10.0</ele><time>2026-04-30T09:17:50.147Z</time></trkpt><trkpt lat="45.82365" lon="13.500255"><ele>10.0</ele><time>2026-04-30T09:17:51.086Z</time></trkpt><trkpt lat="45.8237233" lon="13.500255"><ele>10.0</ele><time>2026-04-30T09:17:52.027Z</time></trkpt><trkpt lat="45.8237983" lon="13.5002583"><ele>10.0</ele><time>2026-04-30T09:17:53.1Z</time></trkpt><trkpt lat="45.82387" lon="13.5002633"><ele>10.0</ele><time>2026-04-30T09:17:54.107Z</time></trkpt><trkpt lat="45.8239383" lon="13.5002583"><ele>10.0</ele><time>2026-04-30T09:17:55.113Z</time></trkpt><trkpt lat="45.8240033" lon="13.5002517"><ele>10.0</ele><time>2026-04-30T09:17:56.12Z</time></trkpt><trkpt lat="45.8240683" lon="13.5002433"><ele>10.0</ele><time>2026-04-30T09:17:57.059Z</time></trkpt><trkpt lat="45.8241417" lon="13.5002367"><ele>10.0</ele><time>2026-04-30T09:17:58.134Z</time></trkpt><trkpt lat="45.8242217" lon="13.5002267"><ele>10.0</ele><time>2026-04-30T09:17:59.073Z</time></trkpt><trkpt lat="45.8243117" lon="13.50022"><ele>10.0</ele><time>2026-04-30T09:18:00.146Z</time></trkpt><trkpt lat="45.8243983" lon="13.5002083"><ele>10.0</ele><time>2026-04-30T09:18:01.087Z</time></trkpt><trkpt lat="45.82448" lon="13.5001967"><ele>10.0</ele><time>2026-04-30T09:18:02.093Z</time></trkpt><trkpt lat="45.8245533" lon="13.500185"><ele>10.166666666666668</ele><time>2026-04-30T09:18:03.099Z</time></trkpt><trkpt lat="45.82462" lon="13.5001733"><ele>10.333333333333334</ele><time>2026-04-30T09:18:04.107Z</time></trkpt><trkpt lat="45.8247383" lon="13.5001217"><ele>10.5</ele><time>2026-04-30T09:18:06.119Z</time></trkpt><trkpt lat="45.8247967" lon="13.5000817"><ele>10.666666666666666</ele><time>2026-04-30T09:18:07.059Z</time></trkpt><trkpt lat="45.8248583" lon="13.5000383"><ele>10.833333333333332</ele><time>2026-04-30T09:18:08.132Z</time></trkpt><trkpt lat="45.8249233" lon="13.5"><ele>11.0</ele><time>2026-04-30T09:18:09.073Z</time></trkpt><trkpt lat="45.82499" lon="13.499955"><ele>11.0</ele><time>2026-04-30T09:18:10.078Z</time></trkpt><trkpt lat="45.8250567" lon="13.49991"><ele>11.0</ele><time>2026-04-30T09:18:11.085Z</time></trkpt><trkpt lat="45.8251267" lon="13.4998683"><ele>11.0</ele><time>2026-04-30T09:18:12.093Z</time></trkpt><trkpt lat="45.8251933" lon="13.4998333"><ele>11.0</ele><time>2026-04-30T09:18:13.099Z</time></trkpt><trkpt lat="45.8252633" lon="13.4998133"><ele>11.0</ele><time>2026-04-30T09:18:14.105Z</time></trkpt><trkpt lat="45.825335" lon="13.4998067"><ele>11.0</ele><time>2026-04-30T09:18:15.044Z</time></trkpt><trkpt lat="45.8254083" lon="13.4998067"><ele>11.0</ele><time>2026-04-30T09:18:16.118Z</time></trkpt><trkpt lat="45.825475" lon="13.4998183"><ele>11.0</ele><time>2026-04-30T09:18:17.058Z</time></trkpt><trkpt lat="45.825595" lon="13.4998417"><ele>11.0</ele><time>2026-04-30T09:18:19.072Z</time></trkpt><trkpt lat="45.8256867" lon="13.4998717"><ele>11.0</ele><time>2026-04-30T09:18:21.084Z</time></trkpt><trkpt lat="45.8257917" lon="13.4999217"><ele>11.0</ele><time>2026-04-30T09:18:37.056Z</time></trkpt><trkpt lat="45.82589" lon="13.4999467"><ele>11.0</ele><time>2026-04-30T09:18:39.07Z</time></trkpt><trkpt lat="45.8259533" lon="13.4999667"><ele>10.8</ele><time>2026-04-30T09:18:40.077Z</time></trkpt><trkpt lat="45.8260167" lon="13.4999933"><ele>10.600000000000001</ele><time>2026-04-30T09:18:41.083Z</time></trkpt><trkpt lat="45.8261133" lon="13.5000433"><ele>10.4</ele><time>2026-04-30T09:18:43.096Z</time></trkpt><trkpt lat="45.8261967" lon="13.50007"><ele>10.2</ele><time>2026-04-30T09:18:45.042Z</time></trkpt><trkpt lat="45.8262917" lon="13.50012"><ele>10.0</ele><time>2026-04-30T09:18:47.055Z</time></trkpt><trkpt lat="45.8264083" lon="13.50022"><ele>10.0</ele><time>2026-04-30T09:18:49.069Z</time></trkpt><trkpt lat="45.8264917" lon="13.5003033"><ele>10.0</ele><time>2026-04-30T09:18:50.076Z</time></trkpt><trkpt lat="45.8265783" lon="13.500395"><ele>10.0</ele><time>2026-04-30T09:18:51.083Z</time></trkpt><trkpt lat="45.8266683" lon="13.50049"><ele>10.0</ele><time>2026-04-30T09:18:52.088Z</time></trkpt><trkpt lat="45.8267583" lon="13.50059"><ele>10.0</ele><time>2026-04-30T09:18:53.095Z</time></trkpt><trkpt lat="45.8268283" lon="13.5006933"><ele>10.0</ele><time>2026-04-30T09:18:54.102Z</time></trkpt><trkpt lat="45.8268783" lon="13.5008"><ele>10.0</ele><time>2026-04-30T09:18:55.042Z</time></trkpt><trkpt lat="45.8269033" lon="13.500905"><ele>10.0</ele><time>2026-04-30T09:18:56.115Z</time></trkpt><trkpt lat="45.82691" lon="13.5010083"><ele>10.0</ele><time>2026-04-30T09:18:57.056Z</time></trkpt><trkpt lat="45.8269117" lon="13.5011167"><ele>10.0</ele><time>2026-04-30T09:18:58.128Z</time></trkpt><trkpt lat="45.8269067" lon="13.501235"><ele>10.0</ele><time>2026-04-30T09:18:59.068Z</time></trkpt><trkpt lat="45.8269017" lon="13.50136"><ele>9.666666666666668</ele><time>2026-04-30T09:19:00.075Z</time></trkpt><trkpt lat="45.8269" lon="13.5014883"><ele>9.333333333333334</ele><time>2026-04-30T09:19:01.081Z</time></trkpt><trkpt lat="45.82691" lon="13.5016033"><ele>9.0</ele><time>2026-04-30T09:19:02.088Z</time></trkpt><trkpt lat="45.8269283" lon="13.5016983"><ele>8.666666666666666</ele><time>2026-04-30T09:19:03.095Z</time></trkpt><trkpt lat="45.8269583" lon="13.5018233"><ele>8.333333333333332</ele><time>2026-04-30T09:19:05.041Z</time></trkpt><trkpt lat="45.8270083" lon="13.5019083"><ele>8.0</ele><time>2026-04-30T09:19:12.087Z</time></trkpt><trkpt lat="45.82708" lon="13.5019717"><ele>7.999999999999999</ele><time>2026-04-30T09:19:14.1Z</time></trkpt><trkpt lat="45.827165" lon="13.5020383"><ele>8.0</ele><time>2026-04-30T09:19:17.053Z</time></trkpt><trkpt lat="45.82728" lon="13.5020433"><ele>8.0</ele><time>2026-04-30T09:19:19.066Z</time></trkpt><trkpt lat="45.8273417" lon="13.502015"><ele>8.0</ele><time>2026-04-30T09:19:20.073Z</time></trkpt><trkpt lat="45.8274067" lon="13.5019783"><ele>7.999999999999999</ele><time>2026-04-30T09:19:21.079Z</time></trkpt><trkpt lat="45.8274783" lon="13.5019417"><ele>8.0</ele><time>2026-04-30T09:19:22.087Z</time></trkpt><trkpt lat="45.8275433" lon="13.501915"><ele>8.0</ele><time>2026-04-30T09:19:23.093Z</time></trkpt><trkpt lat="45.8276367" lon="13.5018833"><ele>8.0</ele><time>2026-04-30T09:19:25.039Z</time></trkpt><trkpt lat="45.8278" lon="13.5018517"><ele>8.0</ele><time>2026-04-30T09:20:10.069Z</time></trkpt><trkpt lat="45.8279117" lon="13.5018733"><ele>8.0</ele><time>2026-04-30T09:20:12.082Z</time></trkpt><trkpt lat="45.8279717" lon="13.5019083"><ele>8.0</ele><time>2026-04-30T09:20:13.022Z</time></trkpt><trkpt lat="45.8280333" lon="13.5019567"><ele>8.166666666666666</ele><time>2026-04-30T09:20:14.095Z</time></trkpt><trkpt lat="45.8280917" lon="13.5020183"><ele>8.333333333333332</ele><time>2026-04-30T09:20:15.035Z</time></trkpt><trkpt lat="45.8281517" lon="13.5020917"><ele>8.5</ele><time>2026-04-30T09:20:16.109Z</time></trkpt><trkpt lat="45.82821" lon="13.502165"><ele>8.666666666666666</ele><time>2026-04-30T09:20:17.115Z</time></trkpt><trkpt lat="45.8282567" lon="13.5022483"><ele>8.833333333333334</ele><time>2026-04-30T09:20:18.056Z</time></trkpt><trkpt lat="45.8283067" lon="13.502345"><ele>9.0</ele><time>2026-04-30T09:20:19.13Z</time></trkpt><trkpt lat="45.8283583" lon="13.5024433"><ele>9.0</ele><time>2026-04-30T09:20:20.069Z</time></trkpt><trkpt lat="45.8284167" lon="13.5025383"><ele>9.0</ele><time>2026-04-30T09:20:21.143Z</time></trkpt><trkpt lat="45.8284767" lon="13.5026283"><ele>9.0</ele><time>2026-04-30T09:20:22.081Z</time></trkpt><trkpt lat="45.8285417" lon="13.5027033"><ele>9.0</ele><time>2026-04-30T09:20:23.022Z</time></trkpt><trkpt lat="45.8286133" lon="13.5027767"><ele>9.0</ele><time>2026-04-30T09:20:24.096Z</time></trkpt><trkpt lat="45.8286917" lon="13.5028517"><ele>9.0</ele><time>2026-04-30T09:20:25.102Z</time></trkpt><trkpt lat="45.828775" lon="13.5029233"><ele>9.8</ele><time>2026-04-30T09:20:26.109Z</time></trkpt><trkpt lat="45.8288533" lon="13.5029883"><ele>10.600000000000001</ele><time>2026-04-30T09:20:27.115Z</time></trkpt><trkpt lat="45.82894" lon="13.5030533"><ele>11.4</ele><time>2026-04-30T09:20:28.054Z</time></trkpt><trkpt lat="45.829035" lon="13.5031133"><ele>12.200000000000001</ele><time>2026-04-30T09:20:29.129Z</time></trkpt><trkpt lat="45.8291333" lon="13.5031767"><ele>13.0</ele><time>2026-04-30T09:20:30.068Z</time></trkpt><trkpt lat="45.8292267" lon="13.503245"><ele>13.0</ele><time>2026-04-30T09:20:31.141Z</time></trkpt><trkpt lat="45.829315" lon="13.50331"><ele>13.0</ele><time>2026-04-30T09:20:32.082Z</time></trkpt><trkpt lat="45.82939" lon="13.5033667"><ele>13.0</ele><time>2026-04-30T09:20:33.087Z</time></trkpt><trkpt lat="45.82947" lon="13.5034183"><ele>13.0</ele><time>2026-04-30T09:20:34.094Z</time></trkpt><trkpt lat="45.8295433" lon="13.5034817"><ele>13.0</ele><time>2026-04-30T09:20:35.101Z</time></trkpt><trkpt lat="45.8296283" lon="13.5035467"><ele>13.0</ele><time>2026-04-30T09:20:36.108Z</time></trkpt><trkpt lat="45.82973" lon="13.50362"><ele>13.0</ele><time>2026-04-30T09:20:37.114Z</time></trkpt><trkpt lat="45.8298417" lon="13.5037033"><ele>13.0</ele><time>2026-04-30T09:20:38.053Z</time></trkpt><trkpt lat="45.8299467" lon="13.5037917"><ele>13.0</ele><time>2026-04-30T09:20:39.127Z</time></trkpt><trkpt lat="45.830045" lon="13.5038717"><ele>12.0</ele><time>2026-04-30T09:20:40.068Z</time></trkpt><trkpt lat="45.8301517" lon="13.5039533"><ele>11.0</ele><time>2026-04-30T09:20:41.14Z</time></trkpt><trkpt lat="45.830255" lon="13.5040333"><ele>10.0</ele><time>2026-04-30T09:20:42.08Z</time></trkpt><trkpt lat="45.83036" lon="13.50411"><ele>9.0</ele><time>2026-04-30T09:20:43.088Z</time></trkpt><trkpt lat="45.8304633" lon="13.5041933"><ele>9.0</ele><time>2026-04-30T09:20:44.094Z</time></trkpt><trkpt lat="45.830565" lon="13.5042783"><ele>9.0</ele><time>2026-04-30T09:20:45.101Z</time></trkpt><trkpt lat="45.8307767" lon="13.5044483"><ele>9.0</ele><time>2026-04-30T09:20:47.114Z</time></trkpt><trkpt lat="45.8308817" lon="13.504535"><ele>9.0</ele><time>2026-04-30T09:20:48.053Z</time></trkpt><trkpt lat="45.8309817" lon="13.5046183"><ele>9.0</ele><time>2026-04-30T09:20:49.127Z</time></trkpt><trkpt lat="45.8310717" lon="13.5046967"><ele>9.0</ele><time>2026-04-30T09:20:50.067Z</time></trkpt><trkpt lat="45.8311483" lon="13.5047783"><ele>9.0</ele><time>2026-04-30T09:20:51.141Z</time></trkpt><trkpt lat="45.8312133" lon="13.50486"><ele>9.0</ele><time>2026-04-30T09:20:52.08Z</time></trkpt><trkpt lat="45.8312683" lon="13.5049367"><ele>9.0</ele><time>2026-04-30T09:20:53.087Z</time></trkpt><trkpt lat="45.831345" lon="13.5050633"><ele>9.0</ele><time>2026-04-30T09:20:55.099Z</time></trkpt><trkpt lat="45.8314217" lon="13.505185"><ele>9.0</ele><time>2026-04-30T09:20:57.113Z</time></trkpt><trkpt lat="45.8314683" lon="13.50525"><ele>9.0</ele><time>2026-04-30T09:20:58.053Z</time></trkpt><trkpt lat="45.8315217" lon="13.5053233"><ele>9.0</ele><time>2026-04-30T09:20:59.126Z</time></trkpt><trkpt lat="45.8315783" lon="13.5054033"><ele>9.2</ele><time>2026-04-30T09:21:00.065Z</time></trkpt><trkpt lat="45.8316417" lon="13.5054883"><ele>9.4</ele><time>2026-04-30T09:21:01.139Z</time></trkpt><trkpt lat="45.8317067" lon="13.5055783"><ele>9.6</ele><time>2026-04-30T09:21:02.078Z</time></trkpt><trkpt lat="45.8317767" lon="13.505675"><ele>9.8</ele><time>2026-04-30T09:21:03.086Z</time></trkpt><trkpt lat="45.8318483" lon="13.5057783"><ele>10.0</ele><time>2026-04-30T09:21:04.093Z</time></trkpt><trkpt lat="45.8319217" lon="13.5058867"><ele>10.2</ele><time>2026-04-30T09:21:05.099Z</time></trkpt><trkpt lat="45.8319967" lon="13.5059933"><ele>10.4</ele><time>2026-04-30T09:21:06.039Z</time></trkpt><trkpt lat="45.8320733" lon="13.5061"><ele>10.600000000000001</ele><time>2026-04-30T09:21:07.112Z</time></trkpt><trkpt lat="45.8321567" lon="13.5062083"><ele>10.8</ele><time>2026-04-30T09:21:08.051Z</time></trkpt><trkpt lat="45.8322383" lon="13.50632"><ele>11.0</ele><time>2026-04-30T09:21:09.125Z</time></trkpt><trkpt lat="45.8323133" lon="13.5064367"><ele>11.0</ele><time>2026-04-30T09:21:10.064Z</time></trkpt><trkpt lat="45.8323933" lon="13.5065517"><ele>11.0</ele><time>2026-04-30T09:21:11.072Z</time></trkpt><trkpt lat="45.832475" lon="13.5066717"><ele>11.0</ele><time>2026-04-30T09:21:12.079Z</time></trkpt><trkpt lat="45.8325617" lon="13.5067917"><ele>11.0</ele><time>2026-04-30T09:21:13.085Z</time></trkpt><trkpt lat="45.83265" lon="13.5069117"><ele>11.0</ele><time>2026-04-30T09:21:14.092Z</time></trkpt><trkpt lat="45.832735" lon="13.507035"><ele>11.0</ele><time>2026-04-30T09:21:15.098Z</time></trkpt><trkpt lat="45.83282" lon="13.5071617"><ele>11.0</ele><time>2026-04-30T09:21:16.038Z</time></trkpt><trkpt lat="45.832915" lon="13.5072883"><ele>11.0</ele><time>2026-04-30T09:21:17.112Z</time></trkpt><trkpt lat="45.833005" lon="13.5074167"><ele>10.75</ele><time>2026-04-30T09:21:18.05Z</time></trkpt><trkpt lat="45.833095" lon="13.5075417"><ele>10.5</ele><time>2026-04-30T09:21:19.125Z</time></trkpt><trkpt lat="45.8331833" lon="13.5076717"><ele>10.25</ele><time>2026-04-30T09:21:20.063Z</time></trkpt><trkpt lat="45.8332717" lon="13.5078033"><ele>10.0</ele><time>2026-04-30T09:21:21.07Z</time></trkpt><trkpt lat="45.8333617" lon="13.5079317"><ele>10.0</ele><time>2026-04-30T09:21:22.078Z</time></trkpt><trkpt lat="45.8334483" lon="13.5080583"><ele>10.0</ele><time>2026-04-30T09:21:23.083Z</time></trkpt><trkpt lat="45.83354" lon="13.5081833"><ele>10.0</ele><time>2026-04-30T09:21:24.091Z</time></trkpt><trkpt lat="45.8336233" lon="13.5083117"><ele>10.0</ele><time>2026-04-30T09:21:25.098Z</time></trkpt><trkpt lat="45.8337083" lon="13.5084333"><ele>10.0</ele><time>2026-04-30T09:21:26.036Z</time></trkpt><trkpt lat="45.8337917" lon="13.508555"><ele>10.0</ele><time>2026-04-30T09:21:27.11Z</time></trkpt><trkpt lat="45.8338817" lon="13.5086767"><ele>10.0</ele><time>2026-04-30T09:21:28.049Z</time></trkpt><trkpt lat="45.8339667" lon="13.5088017"><ele>10.0</ele><time>2026-04-30T09:21:29.123Z</time></trkpt><trkpt lat="45.8340533" lon="13.5089233"><ele>10.0</ele><time>2026-04-30T09:21:30.064Z</time></trkpt><trkpt lat="45.8341383" lon="13.509045"><ele>10.0</ele><time>2026-04-30T09:21:31.069Z</time></trkpt><trkpt lat="45.8342233" lon="13.5091667"><ele>10.0</ele><time>2026-04-30T09:21:32.076Z</time></trkpt><trkpt lat="45.8343117" lon="13.5092917"><ele>10.0</ele><time>2026-04-30T09:21:33.083Z</time></trkpt><trkpt lat="45.8343983" lon="13.509415"><ele>9.8</ele><time>2026-04-30T09:21:34.089Z</time></trkpt><trkpt lat="45.83448" lon="13.5095333"><ele>9.6</ele><time>2026-04-30T09:21:35.097Z</time></trkpt><trkpt lat="45.8345617" lon="13.5096483"><ele>9.4</ele><time>2026-04-30T09:21:36.035Z</time></trkpt><trkpt lat="45.83464" lon="13.50976"><ele>9.2</ele><time>2026-04-30T09:21:37.109Z</time></trkpt><trkpt lat="45.8347167" lon="13.5098633"><ele>9.0</ele><time>2026-04-30T09:21:38.05Z</time></trkpt><trkpt lat="45.8347867" lon="13.5099567"><ele>9.0</ele><time>2026-04-30T09:21:39.123Z</time></trkpt><trkpt lat="45.83485" lon="13.5100383"><ele>9.0</ele><time>2026-04-30T09:21:40.063Z</time></trkpt><trkpt lat="45.834905" lon="13.5101083"><ele>9.0</ele><time>2026-04-30T09:21:41.069Z</time></trkpt><trkpt lat="45.8349567" lon="13.510175"><ele>9.0</ele><time>2026-04-30T09:21:42.076Z</time></trkpt><trkpt lat="45.8350617" lon="13.5102917"><ele>9.0</ele><time>2026-04-30T09:21:44.088Z</time></trkpt><trkpt lat="45.8351167" lon="13.5103617"><ele>9.0</ele><time>2026-04-30T09:21:45.095Z</time></trkpt><trkpt lat="45.83517" lon="13.5104433"><ele>9.166666666666666</ele><time>2026-04-30T09:21:46.036Z</time></trkpt><trkpt lat="45.8352267" lon="13.5105283"><ele>9.333333333333334</ele><time>2026-04-30T09:21:47.108Z</time></trkpt><trkpt lat="45.8352733" lon="13.5106117"><ele>9.5</ele><time>2026-04-30T09:21:48.048Z</time></trkpt><trkpt lat="45.835315" lon="13.5106867"><ele>9.666666666666668</ele><time>2026-04-30T09:21:49.122Z</time></trkpt><trkpt lat="45.8353967" lon="13.5108083"><ele>9.833333333333334</ele><time>2026-04-30T09:21:51.068Z</time></trkpt><trkpt lat="45.8355017" lon="13.5108317"><ele>10.0</ele><time>2026-04-30T09:21:53.081Z</time></trkpt><trkpt lat="45.835625" lon="13.5108117"><ele>10.0</ele><time>2026-04-30T09:21:55.094Z</time></trkpt><trkpt lat="45.835725" lon="13.5109033"><ele>10.0</ele><time>2026-04-30T09:21:57.108Z</time></trkpt><trkpt lat="45.8357783" lon="13.5109667"><ele>10.0</ele><time>2026-04-30T09:21:58.047Z</time></trkpt><trkpt lat="45.8358333" lon="13.5110317"><ele>10.0</ele><time>2026-04-30T09:21:59.121Z</time></trkpt><trkpt lat="45.8359" lon="13.51107"><ele>10.0</ele><time>2026-04-30T09:22:00.061Z</time></trkpt><trkpt lat="45.8359733" lon="13.5110867"><ele>10.0</ele><time>2026-04-30T09:22:01.067Z</time></trkpt><trkpt lat="45.8360467" lon="13.511085"><ele>11.0</ele><time>2026-04-30T09:22:02.074Z</time></trkpt><trkpt lat="45.8361167" lon="13.511075"><ele>12.0</ele><time>2026-04-30T09:22:03.08Z</time></trkpt><trkpt lat="45.8361817" lon="13.5110633"><ele>13.0</ele><time>2026-04-30T09:22:04.088Z</time></trkpt><trkpt lat="45.8362867" lon="13.5110633"><ele>14.0</ele><time>2026-04-30T09:22:06.034Z</time></trkpt><trkpt lat="45.8363633" lon="13.5111683"><ele>15.0</ele><time>2026-04-30T09:22:08.046Z</time></trkpt><trkpt lat="45.836405" lon="13.5113217"><ele>17.0</ele><time>2026-04-30T09:22:10.06Z</time></trkpt><trkpt lat="45.8364017" lon="13.51148"><ele>19.0</ele><time>2026-04-30T09:22:12.074Z</time></trkpt><trkpt lat="45.83641" lon="13.51162"><ele>21.0</ele><time>2026-04-30T09:22:14.154Z</time></trkpt><trkpt lat="45.8364617" lon="13.5117083"><ele>23.0</ele><time>2026-04-30T09:22:16.032Z</time></trkpt><trkpt lat="45.83656" lon="13.5116433"><ele>25.0</ele><time>2026-04-30T09:22:19.12Z</time></trkpt><trkpt lat="45.83661" lon="13.511585"><ele>25.000000000000004</ele><time>2026-04-30T09:22:20.06Z</time></trkpt><trkpt lat="45.8366617" lon="13.5115233"><ele>25.0</ele><time>2026-04-30T09:22:21.066Z</time></trkpt><trkpt lat="45.8367533" lon="13.5114383"><ele>25.0</ele><time>2026-04-30T09:22:23.079Z</time></trkpt><trkpt lat="45.8368167" lon="13.511405"><ele>25.0</ele><time>2026-04-30T09:22:25.092Z</time></trkpt><trkpt lat="45.836875" lon="13.511355"><ele>25.000000000000004</ele><time>2026-04-30T09:22:29.119Z</time></trkpt><trkpt lat="45.836805" lon="13.511385"><ele>25.0</ele><time>2026-04-30T09:22:41.064Z</time></trkpt><trkpt lat="45.8367383" lon="13.511465"><ele>25.000000000000004</ele><time>2026-04-30T09:22:43.077Z</time></trkpt><trkpt lat="45.8366667" lon="13.5115383"><ele>25.0</ele><time>2026-04-30T09:22:45.09Z</time></trkpt><trkpt lat="45.8366083" lon="13.511595"><ele>25.0</ele><time>2026-04-30T09:22:47.104Z</time></trkpt><trkpt lat="45.836545" lon="13.5116617"><ele>25.0</ele><time>2026-04-30T09:22:49.05Z</time></trkpt><trkpt lat="45.8364883" lon="13.511715"><ele>25.000000000000004</ele><time>2026-04-30T09:22:51.063Z</time></trkpt><trkpt lat="45.836425" lon="13.5117817"><ele>25.0</ele><time>2026-04-30T09:22:54.016Z</time></trkpt><trkpt lat="45.8363667" lon="13.511875"><ele>25.000000000000004</ele><time>2026-04-30T09:22:57.104Z</time></trkpt><trkpt lat="45.8363183" lon="13.5119633"><ele>25.0</ele><time>2026-04-30T09:22:59.049Z</time></trkpt><trkpt lat="45.83627" lon="13.5120567"><ele>25.0</ele><time>2026-04-30T09:23:01.063Z</time></trkpt><trkpt lat="45.8362317" lon="13.512165"><ele>25.0</ele><time>2026-04-30T09:23:03.077Z</time></trkpt><trkpt lat="45.836215" lon="13.51229"><ele>25.000000000000004</ele><time>2026-04-30T09:23:05.09Z</time></trkpt><trkpt lat="45.83621" lon="13.512425"><ele>25.0</ele><time>2026-04-30T09:23:07.102Z</time></trkpt><trkpt lat="45.8362167" lon="13.5125317"><ele>26.2</ele><time>2026-04-30T09:23:09.048Z</time></trkpt><trkpt lat="45.8362417" lon="13.5126583"><ele>27.4</ele><time>2026-04-30T09:23:11.062Z</time></trkpt><trkpt lat="45.8362833" lon="13.5127933"><ele>28.6</ele><time>2026-04-30T09:23:13.076Z</time></trkpt><trkpt lat="45.836315" lon="13.512955"><ele>29.8</ele><time>2026-04-30T09:23:15.088Z</time></trkpt><trkpt lat="45.8363417" lon="13.5130433"><ele>31.0</ele><time>2026-04-30T09:23:16.096Z</time></trkpt><trkpt lat="45.83643" lon="13.5131467"><ele>31.4</ele><time>2026-04-30T09:23:18.108Z</time></trkpt><trkpt lat="45.8364833" lon="13.513245"><ele>31.8</ele><time>2026-04-30T09:23:19.048Z</time></trkpt><trkpt lat="45.8365733" lon="13.5133717"><ele>32.199999999999996</ele><time>2026-04-30T09:23:21.061Z</time></trkpt><trkpt lat="45.836635" lon="13.513445"><ele>32.6</ele><time>2026-04-30T09:23:22.135Z</time></trkpt><trkpt lat="45.83675" lon="13.5135033"><ele>33.0</ele><time>2026-04-30T09:23:24.081Z</time></trkpt><trkpt lat="45.836845" lon="13.51345"><ele>34.5</ele><time>2026-04-30T09:23:26.094Z</time></trkpt><trkpt lat="45.8368733" lon="13.5132833"><ele>36.0</ele><time>2026-04-30T09:23:28.108Z</time></trkpt><trkpt lat="45.8368667" lon="13.51318"><ele>37.5</ele><time>2026-04-30T09:23:29.047Z</time></trkpt><trkpt lat="45.8368617" lon="13.513085"><ele>39.0</ele><time>2026-04-30T09:23:30.12Z</time></trkpt><trkpt lat="45.8368633" lon="13.5129933"><ele>40.5</ele><time>2026-04-30T09:23:31.061Z</time></trkpt><trkpt lat="45.836925" lon="13.5128667"><ele>42.0</ele><time>2026-04-30T09:23:33.073Z</time></trkpt><trkpt lat="45.8370267" lon="13.512815"><ele>42.0</ele><time>2026-04-30T09:23:35.088Z</time></trkpt><trkpt lat="45.8371417" lon="13.512765"><ele>42.0</ele><time>2026-04-30T09:23:37.101Z</time></trkpt><trkpt lat="45.83725" lon="13.5127067"><ele>42.0</ele><time>2026-04-30T09:23:39.046Z</time></trkpt><trkpt lat="45.83733" lon="13.51266"><ele>42.0</ele><time>2026-04-30T09:23:41.059Z</time></trkpt><trkpt lat="45.83741" lon="13.5126067"><ele>42.0</ele><time>2026-04-30T09:23:44.079Z</time></trkpt><trkpt lat="45.8374867" lon="13.5125267"><ele>42.0</ele><time>2026-04-30T09:23:46.092Z</time></trkpt><trkpt lat="45.83759" lon="13.5124383"><ele>42.0</ele><time>2026-04-30T09:23:48.107Z</time></trkpt><trkpt lat="45.8376917" lon="13.5123533"><ele>42.0</ele><time>2026-04-30T09:23:50.12Z</time></trkpt><trkpt lat="45.8377933" lon="13.512265"><ele>42.0</ele><time>2026-04-30T09:23:52.133Z</time></trkpt><trkpt lat="45.8378467" lon="13.5122117"><ele>42.0</ele><time>2026-04-30T09:23:53.072Z</time></trkpt><trkpt lat="45.8379" lon="13.5121517"><ele>42.333333333333336</ele><time>2026-04-30T09:23:54.079Z</time></trkpt><trkpt lat="45.8379733" lon="13.5120567"><ele>42.666666666666664</ele><time>2026-04-30T09:23:56.092Z</time></trkpt><trkpt lat="45.8380283" lon="13.511995"><ele>43.0</ele><time>2026-04-30T09:24:15.083Z</time></trkpt><trkpt lat="45.838095" lon="13.511955"><ele>43.33333333333333</ele><time>2026-04-30T09:24:17.031Z</time></trkpt><trkpt lat="45.8381567" lon="13.51193"><ele>43.666666666666664</ele><time>2026-04-30T09:24:19.044Z</time></trkpt><trkpt lat="45.8380817" lon="13.511945"><ele>44.0</ele><time>2026-04-30T09:24:31.055Z</time></trkpt><trkpt lat="45.8380133" lon="13.5120267"><ele>43.6</ele><time>2026-04-30T09:24:33.069Z</time></trkpt><trkpt lat="45.837935" lon="13.5121233"><ele>43.2</ele><time>2026-04-30T09:24:35.083Z</time></trkpt><trkpt lat="45.8378467" lon="13.512225"><ele>42.800000000000004</ele><time>2026-04-30T09:24:37.028Z</time></trkpt><trkpt lat="45.8377483" lon="13.51232"><ele>42.400000000000006</ele><time>2026-04-30T09:24:39.041Z</time></trkpt><trkpt lat="45.8376533" lon="13.5124033"><ele>42.0</ele><time>2026-04-30T09:24:41.055Z</time></trkpt><trkpt lat="45.8375683" lon="13.5124767"><ele>42.0</ele><time>2026-04-30T09:24:43.069Z</time></trkpt><trkpt lat="45.83749" lon="13.51254"><ele>42.0</ele><time>2026-04-30T09:24:45.148Z</time></trkpt><trkpt lat="45.8374367" lon="13.5125883"><ele>42.0</ele><time>2026-04-30T09:24:47.027Z</time></trkpt><trkpt lat="45.837405" lon="13.5126667"><ele>42.0</ele><time>2026-04-30T09:25:08.099Z</time></trkpt><trkpt lat="45.8374" lon="13.5127783"><ele>42.0</ele><time>2026-04-30T09:25:10.113Z</time></trkpt><trkpt lat="45.8373933" lon="13.5129133"><ele>42.0</ele><time>2026-04-30T09:25:12.059Z</time></trkpt><trkpt lat="45.8373983" lon="13.513085"><ele>42.833333333333336</ele><time>2026-04-30T09:25:14.073Z</time></trkpt><trkpt lat="45.8374083" lon="13.513175"><ele>43.666666666666664</ele><time>2026-04-30T09:25:15.146Z</time></trkpt><trkpt lat="45.8374517" lon="13.513345"><ele>44.5</ele><time>2026-04-30T09:25:17.025Z</time></trkpt><trkpt lat="45.8374817" lon="13.513435"><ele>45.33333333333333</ele><time>2026-04-30T09:25:18.099Z</time></trkpt><trkpt lat="45.837515" lon="13.5135233"><ele>46.166666666666664</ele><time>2026-04-30T09:25:19.106Z</time></trkpt><trkpt lat="45.837585" lon="13.5136583"><ele>47.0</ele><time>2026-04-30T09:25:21.12Z</time></trkpt><trkpt lat="45.8376533" lon="13.5137517"><ele>49.0</ele><time>2026-04-30T09:25:23.132Z</time></trkpt><trkpt lat="45.8377083" lon="13.5138183"><ele>51.0</ele><time>2026-04-30T09:25:25.145Z</time></trkpt><trkpt lat="45.8377917" lon="13.5138733"><ele>53.0</ele><time>2026-04-30T09:25:27.091Z</time></trkpt><trkpt lat="45.8378517" lon="13.5139067"><ele>55.0</ele><time>2026-04-30T09:25:29.104Z</time></trkpt><trkpt lat="45.837785" lon="13.5138533"><ele>57.00000000000001</ele><time>2026-04-30T09:27:32.115Z</time></trkpt><trkpt lat="45.8377167" lon="13.513815"><ele>59.0</ele><time>2026-04-30T09:27:34.128Z</time></trkpt><trkpt lat="45.83764" lon="13.5137583"><ele>56.6</ele><time>2026-04-30T09:27:36.143Z</time></trkpt><trkpt lat="45.8375583" lon="13.513685"><ele>54.2</ele><time>2026-04-30T09:27:38.022Z</time></trkpt><trkpt lat="45.8375033" lon="13.5135667"><ele>51.800000000000004</ele><time>2026-04-30T09:27:40.034Z</time></trkpt><trkpt lat="45.8374817" lon="13.5134183"><ele>49.400000000000006</ele><time>2026-04-30T09:27:42.114Z</time></trkpt><trkpt lat="45.8374617" lon="13.5132633"><ele>47.0</ele><time>2026-04-30T09:27:44.128Z</time></trkpt><trkpt lat="45.8374317" lon="13.5131283"><ele>47.0</ele><time>2026-04-30T09:27:46.142Z</time></trkpt><trkpt lat="45.8374217" lon="13.5129883"><ele>47.0</ele><time>2026-04-30T09:27:48.021Z</time></trkpt><trkpt lat="45.8374317" lon="13.512855"><ele>47.0</ele><time>2026-04-30T09:27:50.1Z</time></trkpt><trkpt lat="45.837435" lon="13.51275"><ele>47.0</ele><time>2026-04-30T09:27:52.114Z</time></trkpt><trkpt lat="45.83738" lon="13.5126717"><ele>47.0</ele><time>2026-04-30T09:27:55.066Z</time></trkpt><trkpt lat="45.83729" lon="13.5127317"><ele>47.0</ele><time>2026-04-30T09:27:58.086Z</time></trkpt><trkpt lat="45.8372033" lon="13.5127833"><ele>47.0</ele><time>2026-04-30T09:28:00.099Z</time></trkpt><trkpt lat="45.8371" lon="13.5128233"><ele>47.0</ele><time>2026-04-30T09:28:02.114Z</time></trkpt><trkpt lat="45.8369883" lon="13.5128633"><ele>47.0</ele><time>2026-04-30T09:28:04.127Z</time></trkpt><trkpt lat="45.8369017" lon="13.512935"><ele>47.0</ele><time>2026-04-30T09:28:06.14Z</time></trkpt><trkpt lat="45.8368583" lon="13.5130583"><ele>47.0</ele><time>2026-04-30T09:28:08.086Z</time></trkpt><trkpt lat="45.8368583" lon="13.513205"><ele>47.0</ele><time>2026-04-30T09:28:10.099Z</time></trkpt><trkpt lat="45.8368517" lon="13.5133433"><ele>47.0</ele><time>2026-04-30T09:28:12.113Z</time></trkpt><trkpt lat="45.8368167" lon="13.5134567"><ele>47.0</ele><time>2026-04-30T09:28:14.126Z</time></trkpt><trkpt lat="45.83675" lon="13.5135133"><ele>47.0</ele><time>2026-04-30T09:28:16.139Z</time></trkpt><trkpt lat="45.8366583" lon="13.5135"><ele>47.0</ele><time>2026-04-30T09:28:18.086Z</time></trkpt><trkpt lat="45.836565" lon="13.5134183"><ele>44.2</ele><time>2026-04-30T09:28:20.098Z</time></trkpt><trkpt lat="45.836475" lon="13.513305"><ele>41.400000000000006</ele><time>2026-04-30T09:28:22.111Z</time></trkpt><trkpt lat="45.836395" lon="13.513175"><ele>38.599999999999994</ele><time>2026-04-30T09:28:24.124Z</time></trkpt><trkpt lat="45.83633" lon="13.5130633"><ele>35.8</ele><time>2026-04-30T09:28:26.139Z</time></trkpt><trkpt lat="45.8362667" lon="13.51296"><ele>33.0</ele><time>2026-04-30T09:28:28.084Z</time></trkpt><trkpt lat="45.8362017" lon="13.5128233"><ele>32.6</ele><time>2026-04-30T09:28:30.097Z</time></trkpt><trkpt lat="45.8361733" lon="13.5127267"><ele>32.199999999999996</ele><time>2026-04-30T09:28:31.037Z</time></trkpt><trkpt lat="45.8361567" lon="13.51255"><ele>31.8</ele><time>2026-04-30T09:28:33.051Z</time></trkpt><trkpt lat="45.8361867" lon="13.512395"><ele>31.4</ele><time>2026-04-30T09:28:35.064Z</time></trkpt><trkpt lat="45.8362183" lon="13.5122333"><ele>31.0</ele><time>2026-04-30T09:28:37.076Z</time></trkpt><trkpt lat="45.8362667" lon="13.51209"><ele>29.8</ele><time>2026-04-30T09:28:39.09Z</time></trkpt><trkpt lat="45.83633" lon="13.5119483"><ele>28.6</ele><time>2026-04-30T09:28:41.037Z</time></trkpt><trkpt lat="45.836395" lon="13.5118333"><ele>27.4</ele><time>2026-04-30T09:28:43.05Z</time></trkpt><trkpt lat="45.83643" lon="13.5117483"><ele>26.2</ele><time>2026-04-30T09:28:45.062Z</time></trkpt><trkpt lat="45.836415" lon="13.5116467"><ele>25.0</ele><time>2026-04-30T09:28:47.077Z</time></trkpt><trkpt lat="45.8364017" lon="13.5115067"><ele>25.0</ele><time>2026-04-30T09:28:49.089Z</time></trkpt><trkpt lat="45.8364017" lon="13.5113467"><ele>25.0</ele><time>2026-04-30T09:28:51.035Z</time></trkpt><trkpt lat="45.8363717" lon="13.5111883"><ele>25.0</ele><time>2026-04-30T09:28:53.048Z</time></trkpt><trkpt lat="45.8363133" lon="13.5110717"><ele>25.0</ele><time>2026-04-30T09:28:55.062Z</time></trkpt><trkpt lat="45.8362517" lon="13.5110433"><ele>25.0</ele><time>2026-04-30T09:28:57.076Z</time></trkpt><trkpt lat="45.8361467" lon="13.51107"><ele>23.0</ele><time>2026-04-30T09:28:59.088Z</time></trkpt><trkpt lat="45.83602" lon="13.51109"><ele>21.0</ele><time>2026-04-30T09:29:01.034Z</time></trkpt><trkpt lat="45.835955" lon="13.5110883"><ele>19.0</ele><time>2026-04-30T09:29:02.108Z</time></trkpt><trkpt lat="45.8358917" lon="13.5110683"><ele>17.0</ele><time>2026-04-30T09:29:03.049Z</time></trkpt><trkpt lat="45.83579" lon="13.511"><ele>15.0</ele><time>2026-04-30T09:29:05.062Z</time></trkpt><trkpt lat="45.8357217" lon="13.5109017"><ele>13.75</ele><time>2026-04-30T09:29:07.074Z</time></trkpt><trkpt lat="45.835605" lon="13.5108217"><ele>12.5</ele><time>2026-04-30T09:31:49.075Z</time></trkpt><trkpt lat="45.83552" lon="13.51081"><ele>11.25</ele><time>2026-04-30T09:31:51.088Z</time></trkpt><trkpt lat="45.8354033" lon="13.5108083"><ele>10.0</ele><time>2026-04-30T09:31:53.101Z</time></trkpt><trkpt lat="45.835305" lon="13.5107"><ele>10.0</ele><time>2026-04-30T09:31:55.115Z</time></trkpt><trkpt lat="45.83526" lon="13.5106367"><ele>10.0</ele><time>2026-04-30T09:31:56.054Z</time></trkpt><trkpt lat="45.835185" lon="13.5105217"><ele>10.0</ele><time>2026-04-30T09:31:58.067Z</time></trkpt><trkpt lat="45.8351017" lon="13.5104017"><ele>10.0</ele><time>2026-04-30T09:32:00.082Z</time></trkpt><trkpt lat="45.8350533" lon="13.510335"><ele>10.0</ele><time>2026-04-30T09:32:01.087Z</time></trkpt><trkpt lat="45.835" lon="13.5102633"><ele>10.0</ele><time>2026-04-30T09:32:02.027Z</time></trkpt><trkpt lat="45.8349583" lon="13.510185"><ele>9.833333333333334</ele><time>2026-04-30T09:32:03.101Z</time></trkpt><trkpt lat="45.83489" lon="13.51011"><ele>9.666666666666668</ele><time>2026-04-30T09:32:04.04Z</time></trkpt><trkpt lat="45.83483" lon="13.5100267"><ele>9.5</ele><time>2026-04-30T09:32:05.114Z</time></trkpt><trkpt lat="45.8347617" lon="13.5099383"><ele>9.333333333333334</ele><time>2026-04-30T09:32:06.054Z</time></trkpt><trkpt lat="45.83471" lon="13.509845"><ele>9.166666666666666</ele><time>2026-04-30T09:32:07.061Z</time></trkpt><trkpt lat="45.8346567" lon="13.5097483"><ele>9.0</ele><time>2026-04-30T09:32:08.068Z</time></trkpt><trkpt lat="45.8345967" lon="13.5096467"><ele>9.0</ele><time>2026-04-30T09:32:09.073Z</time></trkpt><trkpt lat="45.834535" lon="13.5095333"><ele>9.0</ele><time>2026-04-30T09:32:10.147Z</time></trkpt><trkpt lat="45.8344683" lon="13.5094133"><ele>9.0</ele><time>2026-04-30T09:32:11.087Z</time></trkpt><trkpt lat="45.83439" lon="13.5092917"><ele>9.0</ele><time>2026-04-30T09:32:12.026Z</time></trkpt><trkpt lat="45.8343067" lon="13.5091667"><ele>9.0</ele><time>2026-04-30T09:32:13.101Z</time></trkpt><trkpt lat="45.83423" lon="13.5090517"><ele>9.0</ele><time>2026-04-30T09:32:14.04Z</time></trkpt><trkpt lat="45.8341617" lon="13.508945"><ele>9.0</ele><time>2026-04-30T09:32:15.113Z</time></trkpt><trkpt lat="45.8340967" lon="13.5088467"><ele>9.0</ele><time>2026-04-30T09:32:16.054Z</time></trkpt><trkpt lat="45.8340317" lon="13.5087533"><ele>9.0</ele><time>2026-04-30T09:32:17.06Z</time></trkpt><trkpt lat="45.8339633" lon="13.5086533"><ele>9.0</ele><time>2026-04-30T09:32:18.133Z</time></trkpt><trkpt lat="45.83389" lon="13.5085467"><ele>9.0</ele><time>2026-04-30T09:32:19.073Z</time></trkpt><trkpt lat="45.8338167" lon="13.508445"><ele>9.0</ele><time>2026-04-30T09:32:20.147Z</time></trkpt><trkpt lat="45.8337467" lon="13.50835"><ele>9.0</ele><time>2026-04-30T09:32:21.087Z</time></trkpt><trkpt lat="45.8336767" lon="13.5082467"><ele>9.0</ele><time>2026-04-30T09:32:22.026Z</time></trkpt><trkpt lat="45.8335983" lon="13.5081433"><ele>9.0</ele><time>2026-04-30T09:32:23.099Z</time></trkpt><trkpt lat="45.8335133" lon="13.5080233"><ele>10.0</ele><time>2026-04-30T09:32:24.04Z</time></trkpt><trkpt lat="45.83342" lon="13.5079"><ele>11.0</ele><time>2026-04-30T09:32:25.113Z</time></trkpt><trkpt lat="45.8333133" lon="13.50777"><ele>12.0</ele><time>2026-04-30T09:32:26.119Z</time></trkpt><trkpt lat="45.8332117" lon="13.5076367"><ele>13.0</ele><time>2026-04-30T09:32:27.059Z</time></trkpt><trkpt lat="45.8331183" lon="13.5075083"><ele>13.0</ele><time>2026-04-30T09:32:28.132Z</time></trkpt><trkpt lat="45.833035" lon="13.50739"><ele>13.0</ele><time>2026-04-30T09:32:29.072Z</time></trkpt><trkpt lat="45.8329617" lon="13.5072783"><ele>13.0</ele><time>2026-04-30T09:32:30.147Z</time></trkpt><trkpt lat="45.8328917" lon="13.5071783"><ele>13.0</ele><time>2026-04-30T09:32:31.085Z</time></trkpt><trkpt lat="45.83282" lon="13.5070783"><ele>13.0</ele><time>2026-04-30T09:32:32.025Z</time></trkpt><trkpt lat="45.832745" lon="13.50697"><ele>12.666666666666666</ele><time>2026-04-30T09:32:33.099Z</time></trkpt><trkpt lat="45.8325917" lon="13.5067383"><ele>12.333333333333332</ele><time>2026-04-30T09:32:35.113Z</time></trkpt><trkpt lat="45.8325067" lon="13.50662"><ele>12.0</ele><time>2026-04-30T09:32:36.119Z</time></trkpt><trkpt lat="45.8324267" lon="13.5065"><ele>12.0</ele><time>2026-04-30T09:32:37.058Z</time></trkpt><trkpt lat="45.8323517" lon="13.5063767"><ele>12.0</ele><time>2026-04-30T09:32:38.132Z</time></trkpt><trkpt lat="45.8322683" lon="13.5062517"><ele>12.0</ele><time>2026-04-30T09:32:39.072Z</time></trkpt><trkpt lat="45.832185" lon="13.5061283"><ele>12.0</ele><time>2026-04-30T09:32:40.145Z</time></trkpt><trkpt lat="45.8321" lon="13.5060083"><ele>11.75</ele><time>2026-04-30T09:32:41.085Z</time></trkpt><trkpt lat="45.8320067" lon="13.50589"><ele>11.5</ele><time>2026-04-30T09:32:42.025Z</time></trkpt><trkpt lat="45.8319167" lon="13.5057667"><ele>11.25</ele><time>2026-04-30T09:32:43.099Z</time></trkpt><trkpt lat="45.8318367" lon="13.5056533"><ele>11.0</ele><time>2026-04-30T09:32:44.105Z</time></trkpt><trkpt lat="45.8317633" lon="13.5055533"><ele>10.833333333333332</ele><time>2026-04-30T09:32:45.111Z</time></trkpt><trkpt lat="45.8316967" lon="13.5054617"><ele>10.666666666666666</ele><time>2026-04-30T09:32:46.118Z</time></trkpt><trkpt lat="45.8316317" lon="13.5053817"><ele>10.5</ele><time>2026-04-30T09:32:47.057Z</time></trkpt><trkpt lat="45.83157" lon="13.505305"><ele>10.333333333333334</ele><time>2026-04-30T09:32:48.131Z</time></trkpt><trkpt lat="45.83152" lon="13.505235"><ele>10.166666666666668</ele><time>2026-04-30T09:32:49.071Z</time></trkpt><trkpt lat="45.831445" lon="13.5051167"><ele>10.0</ele><time>2026-04-30T09:32:51.083Z</time></trkpt><trkpt lat="45.831375" lon="13.5050183"><ele>9.8</ele><time>2026-04-30T09:32:53.098Z</time></trkpt><trkpt lat="45.83129" lon="13.5049"><ele>9.6</ele><time>2026-04-30T09:32:55.11Z</time></trkpt><trkpt lat="45.8312333" lon="13.504825"><ele>9.4</ele><time>2026-04-30T09:32:56.117Z</time></trkpt><trkpt lat="45.8311633" lon="13.5047533"><ele>9.2</ele><time>2026-04-30T09:32:57.056Z</time></trkpt><trkpt lat="45.8310883" lon="13.5046833"><ele>9.0</ele><time>2026-04-30T09:32:58.131Z</time></trkpt><trkpt lat="45.8310083" lon="13.5046133"><ele>9.0</ele><time>2026-04-30T09:32:59.069Z</time></trkpt><trkpt lat="45.830925" lon="13.5045417"><ele>9.0</ele><time>2026-04-30T09:33:00.077Z</time></trkpt><trkpt lat="45.8308333" lon="13.50447"><ele>9.0</ele><time>2026-04-30T09:33:01.084Z</time></trkpt><trkpt lat="45.8307367" lon="13.5044"><ele>9.0</ele><time>2026-04-30T09:33:02.09Z</time></trkpt><trkpt lat="45.8306383" lon="13.50433"><ele>9.0</ele><time>2026-04-30T09:33:03.096Z</time></trkpt><trkpt lat="45.8305367" lon="13.5042567"><ele>9.0</ele><time>2026-04-30T09:33:04.104Z</time></trkpt><trkpt lat="45.8304383" lon="13.5041833"><ele>9.0</ele><time>2026-04-30T09:33:05.043Z</time></trkpt><trkpt lat="45.8303383" lon="13.504105"><ele>9.0</ele><time>2026-04-30T09:33:06.117Z</time></trkpt><trkpt lat="45.8302433" lon="13.5040233"><ele>9.0</ele><time>2026-04-30T09:33:07.056Z</time></trkpt><trkpt lat="45.83015" lon="13.50394"><ele>9.0</ele><time>2026-04-30T09:33:08.129Z</time></trkpt><trkpt lat="45.8300567" lon="13.50386"><ele>9.8</ele><time>2026-04-30T09:33:09.069Z</time></trkpt><trkpt lat="45.8299683" lon="13.5037867"><ele>10.600000000000001</ele><time>2026-04-30T09:33:10.075Z</time></trkpt><trkpt lat="45.8298817" lon="13.50372"><ele>11.4</ele><time>2026-04-30T09:33:11.083Z</time></trkpt><trkpt lat="45.8297917" lon="13.50365"><ele>12.200000000000001</ele><time>2026-04-30T09:33:12.089Z</time></trkpt><trkpt lat="45.8297" lon="13.5035817"><ele>13.0</ele><time>2026-04-30T09:33:13.096Z</time></trkpt><trkpt lat="45.82961" lon="13.5035133"><ele>13.0</ele><time>2026-04-30T09:33:14.102Z</time></trkpt><trkpt lat="45.82953" lon="13.5034433"><ele>13.0</ele><time>2026-04-30T09:33:15.041Z</time></trkpt><trkpt lat="45.829445" lon="13.5033683"><ele>13.0</ele><time>2026-04-30T09:33:16.115Z</time></trkpt><trkpt lat="45.829355" lon="13.5032917"><ele>13.0</ele><time>2026-04-30T09:33:17.056Z</time></trkpt><trkpt lat="45.82926" lon="13.5032183"><ele>13.0</ele><time>2026-04-30T09:33:18.129Z</time></trkpt><trkpt lat="45.8291617" lon="13.5031483"><ele>13.0</ele><time>2026-04-30T09:33:19.068Z</time></trkpt><trkpt lat="45.8290633" lon="13.5030767"><ele>13.0</ele><time>2026-04-30T09:33:20.074Z</time></trkpt><trkpt lat="45.8289617" lon="13.503005"><ele>13.0</ele><time>2026-04-30T09:33:21.081Z</time></trkpt><trkpt lat="45.8288633" lon="13.5029283"><ele>13.0</ele><time>2026-04-30T09:33:22.089Z</time></trkpt><trkpt lat="45.82877" lon="13.5028517"><ele>13.0</ele><time>2026-04-30T09:33:23.095Z</time></trkpt><trkpt lat="45.8286867" lon="13.5027767"><ele>12.333333333333332</ele><time>2026-04-30T09:33:24.101Z</time></trkpt><trkpt lat="45.828615" lon="13.5026917"><ele>11.666666666666666</ele><time>2026-04-30T09:33:25.042Z</time></trkpt><trkpt lat="45.8285533" lon="13.502605"><ele>11.0</ele><time>2026-04-30T09:33:26.115Z</time></trkpt><trkpt lat="45.8285" lon="13.5025167"><ele>10.333333333333332</ele><time>2026-04-30T09:33:27.054Z</time></trkpt><trkpt lat="45.8284517" lon="13.502435"><ele>9.666666666666666</ele><time>2026-04-30T09:33:28.128Z</time></trkpt><trkpt lat="45.8284067" lon="13.5023617"><ele>9.0</ele><time>2026-04-30T09:33:29.067Z</time></trkpt><trkpt lat="45.828365" lon="13.5022933"><ele>9.0</ele><time>2026-04-30T09:33:30.075Z</time></trkpt><trkpt lat="45.8282933" lon="13.50216"><ele>9.0</ele><time>2026-04-30T09:33:32.087Z</time></trkpt><trkpt lat="45.82825" lon="13.5020417"><ele>9.0</ele><time>2026-04-30T09:33:34.1Z</time></trkpt><trkpt lat="45.82824" lon="13.5019467"><ele>9.0</ele><time>2026-04-30T09:33:36.114Z</time></trkpt><trkpt lat="45.8282467" lon="13.501825"><ele>9.0</ele><time>2026-04-30T09:33:40.073Z</time></trkpt><trkpt lat="45.8283183" lon="13.501715"><ele>9.0</ele><time>2026-04-30T09:33:42.086Z</time></trkpt><trkpt lat="45.828375" lon="13.5016733"><ele>9.0</ele><time>2026-04-30T09:33:43.093Z</time></trkpt><trkpt lat="45.8284467" lon="13.50164"><ele>9.0</ele><time>2026-04-30T09:33:44.099Z</time></trkpt><trkpt lat="45.8285217" lon="13.5016067"><ele>9.0</ele><time>2026-04-30T09:33:45.04Z</time></trkpt><trkpt lat="45.828595" lon="13.5015767"><ele>9.0</ele><time>2026-04-30T09:33:46.113Z</time></trkpt><trkpt lat="45.8286717" lon="13.50155"><ele>9.0</ele><time>2026-04-30T09:33:47.052Z</time></trkpt><trkpt lat="45.82875" lon="13.501525"><ele>9.6</ele><time>2026-04-30T09:33:48.126Z</time></trkpt><trkpt lat="45.8288383" lon="13.501495"><ele>10.2</ele><time>2026-04-30T09:33:49.066Z</time></trkpt><trkpt lat="45.8289317" lon="13.5014617"><ele>10.799999999999999</ele><time>2026-04-30T09:33:50.072Z</time></trkpt><trkpt lat="45.8290267" lon="13.501425"><ele>11.4</ele><time>2026-04-30T09:33:51.08Z</time></trkpt><trkpt lat="45.8291217" lon="13.5013833"><ele>12.0</ele><time>2026-04-30T09:33:52.086Z</time></trkpt><trkpt lat="45.82922" lon="13.50134"><ele>12.0</ele><time>2026-04-30T09:33:53.092Z</time></trkpt><trkpt lat="45.829325" lon="13.50129"><ele>12.0</ele><time>2026-04-30T09:33:54.1Z</time></trkpt><trkpt lat="45.82943" lon="13.501235"><ele>12.0</ele><time>2026-04-30T09:33:55.038Z</time></trkpt><trkpt lat="45.82953" lon="13.5011767"><ele>12.0</ele><time>2026-04-30T09:33:56.112Z</time></trkpt><trkpt lat="45.82964" lon="13.5011167"><ele>12.0</ele><time>2026-04-30T09:33:57.051Z</time></trkpt><trkpt lat="45.8297533" lon="13.5010517"><ele>12.0</ele><time>2026-04-30T09:33:58.126Z</time></trkpt><trkpt lat="45.8298583" lon="13.5009917"><ele>12.0</ele><time>2026-04-30T09:33:59.066Z</time></trkpt><trkpt lat="45.8299517" lon="13.500935"><ele>12.0</ele><time>2026-04-30T09:34:00.072Z</time></trkpt><trkpt lat="45.830045" lon="13.5008633"><ele>12.0</ele><time>2026-04-30T09:34:01.079Z</time></trkpt><trkpt lat="45.8301283" lon="13.5008017"><ele>12.0</ele><time>2026-04-30T09:34:02.085Z</time></trkpt><trkpt lat="45.8302083" lon="13.5007467"><ele>11.666666666666666</ele><time>2026-04-30T09:34:03.092Z</time></trkpt><trkpt lat="45.8302867" lon="13.5006867"><ele>11.333333333333334</ele><time>2026-04-30T09:34:04.098Z</time></trkpt><trkpt lat="45.830355" lon="13.5006283"><ele>11.0</ele><time>2026-04-30T09:34:05.037Z</time></trkpt><trkpt lat="45.8304167" lon="13.50057"><ele>10.666666666666668</ele><time>2026-04-30T09:34:06.111Z</time></trkpt><trkpt lat="45.8304733" lon="13.5005183"><ele>10.333333333333334</ele><time>2026-04-30T09:34:07.051Z</time></trkpt><trkpt lat="45.8305483" lon="13.5004"><ele>10.0</ele><time>2026-04-30T09:34:09.064Z</time></trkpt><trkpt lat="45.8305317" lon="13.500285"><ele>10.0</ele><time>2026-04-30T09:34:11.077Z</time></trkpt><trkpt lat="45.8304567" lon="13.5002483"><ele>10.0</ele><time>2026-04-30T09:34:14.098Z</time></trkpt><trkpt lat="45.8304633" lon="13.5003633"><ele>10.0</ele><time>2026-04-30T09:41:32.051Z</time></trkpt><trkpt lat="45.8304317" lon="13.5004683"><ele>10.0</ele><time>2026-04-30T09:41:34.063Z</time></trkpt><trkpt lat="45.8304833" lon="13.5005517"><ele>10.0</ele><time>2026-04-30T09:41:59.094Z</time></trkpt><trkpt lat="45.83058" lon="13.5004883"><ele>10.0</ele><time>2026-04-30T09:42:01.109Z</time></trkpt><trkpt lat="45.8306333" lon="13.5004383"><ele>10.0</ele><time>2026-04-30T09:42:02.047Z</time></trkpt><trkpt lat="45.830695" lon="13.50038"><ele>10.0</ele><time>2026-04-30T09:42:03.054Z</time></trkpt><trkpt lat="45.830765" lon="13.5003233"><ele>10.0</ele><time>2026-04-30T09:42:04.062Z</time></trkpt><trkpt lat="45.8308417" lon="13.5002667"><ele>10.0</ele><time>2026-04-30T09:42:05.067Z</time></trkpt><trkpt lat="45.830925" lon="13.5001983"><ele>10.0</ele><time>2026-04-30T09:42:06.142Z</time></trkpt><trkpt lat="45.8310117" lon="13.5001267"><ele>10.0</ele><time>2026-04-30T09:42:07.081Z</time></trkpt><trkpt lat="45.8311017" lon="13.500055"><ele>9.8</ele><time>2026-04-30T09:42:08.021Z</time></trkpt><trkpt lat="45.8311933" lon="13.4999817"><ele>9.6</ele><time>2026-04-30T09:42:09.094Z</time></trkpt><trkpt lat="45.8312883" lon="13.4999117"><ele>9.4</ele><time>2026-04-30T09:42:10.034Z</time></trkpt><trkpt lat="45.831385" lon="13.4998433"><ele>9.2</ele><time>2026-04-30T09:42:11.108Z</time></trkpt><trkpt lat="45.8314883" lon="13.4997767"><ele>9.0</ele><time>2026-04-30T09:42:12.047Z</time></trkpt><trkpt lat="45.8315967" lon="13.4997067"><ele>9.0</ele><time>2026-04-30T09:42:13.054Z</time></trkpt><trkpt lat="45.8318" lon="13.4995667"><ele>9.0</ele><time>2026-04-30T09:42:15.066Z</time></trkpt><trkpt lat="45.8319" lon="13.4994983"><ele>9.0</ele><time>2026-04-30T09:42:16.141Z</time></trkpt><trkpt lat="45.8319983" lon="13.4994283"><ele>9.0</ele><time>2026-04-30T09:42:17.081Z</time></trkpt><trkpt lat="45.832095" lon="13.499355"><ele>9.0</ele><time>2026-04-30T09:42:18.019Z</time></trkpt><trkpt lat="45.8321967" lon="13.4992867"><ele>9.0</ele><time>2026-04-30T09:42:19.093Z</time></trkpt><trkpt lat="45.8323017" lon="13.49922"><ele>9.0</ele><time>2026-04-30T09:42:20.033Z</time></trkpt><trkpt lat="45.8323967" lon="13.49915"><ele>9.0</ele><time>2026-04-30T09:42:21.107Z</time></trkpt><trkpt lat="45.8324967" lon="13.499085"><ele>9.0</ele><time>2026-04-30T09:42:22.113Z</time></trkpt><trkpt lat="45.8325933" lon="13.4990133"><ele>9.2</ele><time>2026-04-30T09:42:23.053Z</time></trkpt><trkpt lat="45.83269" lon="13.4989467"><ele>9.4</ele><time>2026-04-30T09:42:24.126Z</time></trkpt><trkpt lat="45.8327883" lon="13.4988767"><ele>9.6</ele><time>2026-04-30T09:42:25.066Z</time></trkpt><trkpt lat="45.8328883" lon="13.4988067"><ele>9.8</ele><time>2026-04-30T09:42:26.139Z</time></trkpt><trkpt lat="45.8329867" lon="13.498745"><ele>10.0</ele><time>2026-04-30T09:42:27.08Z</time></trkpt><trkpt lat="45.83308" lon="13.49868"><ele>10.2</ele><time>2026-04-30T09:42:28.018Z</time></trkpt><trkpt lat="45.8331533" lon="13.4986067"><ele>10.4</ele><time>2026-04-30T09:42:29.093Z</time></trkpt><trkpt lat="45.8332367" lon="13.49855"><ele>10.600000000000001</ele><time>2026-04-30T09:42:30.1Z</time></trkpt><trkpt lat="45.8333183" lon="13.498495"><ele>10.8</ele><time>2026-04-30T09:42:31.105Z</time></trkpt><trkpt lat="45.8333517" lon="13.4983867"><ele>11.0</ele><time>2026-04-30T09:42:32.112Z</time></trkpt><trkpt lat="45.833435" lon="13.498285"><ele>10.75</ele><time>2026-04-30T09:42:33.053Z</time></trkpt><trkpt lat="45.8335483" lon="13.498215"><ele>10.5</ele><time>2026-04-30T09:42:34.126Z</time></trkpt><trkpt lat="45.8336667" lon="13.4981367"><ele>10.25</ele><time>2026-04-30T09:42:35.065Z</time></trkpt><trkpt lat="45.8337783" lon="13.4980767"><ele>10.0</ele><time>2026-04-30T09:42:36.14Z</time></trkpt><trkpt lat="45.8338883" lon="13.4980067"><ele>10.0</ele><time>2026-04-30T09:42:37.078Z</time></trkpt><trkpt lat="45.8339917" lon="13.4979317"><ele>10.0</ele><time>2026-04-30T09:42:38.085Z</time></trkpt><trkpt lat="45.8340867" lon="13.4978567"><ele>10.0</ele><time>2026-04-30T09:42:39.092Z</time></trkpt><trkpt lat="45.834185" lon="13.4977817"><ele>10.0</ele><time>2026-04-30T09:42:40.099Z</time></trkpt><trkpt lat="45.834285" lon="13.4977133"><ele>10.0</ele><time>2026-04-30T09:42:41.106Z</time></trkpt><trkpt lat="45.8343817" lon="13.4976433"><ele>10.2</ele><time>2026-04-30T09:42:42.111Z</time></trkpt><trkpt lat="45.834485" lon="13.4975683"><ele>10.4</ele><time>2026-04-30T09:42:43.051Z</time></trkpt><trkpt lat="45.834585" lon="13.497505"><ele>10.600000000000001</ele><time>2026-04-30T09:42:44.124Z</time></trkpt><trkpt lat="45.83468" lon="13.4974417"><ele>10.8</ele><time>2026-04-30T09:42:45.064Z</time></trkpt><trkpt lat="45.83477" lon="13.4973817"><ele>11.0</ele><time>2026-04-30T09:42:46.138Z</time></trkpt><trkpt lat="45.83486" lon="13.4973167"><ele>11.0</ele><time>2026-04-30T09:42:47.078Z</time></trkpt><trkpt lat="45.8349533" lon="13.497245"><ele>11.0</ele><time>2026-04-30T09:42:48.085Z</time></trkpt><trkpt lat="45.8350483" lon="13.4971733"><ele>11.0</ele><time>2026-04-30T09:42:49.092Z</time></trkpt><trkpt lat="45.8351467" lon="13.497105"><ele>11.0</ele><time>2026-04-30T09:42:50.097Z</time></trkpt><trkpt lat="45.8352467" lon="13.4970333"><ele>11.0</ele><time>2026-04-30T09:42:51.104Z</time></trkpt><trkpt lat="45.8353517" lon="13.496955"><ele>11.0</ele><time>2026-04-30T09:42:52.111Z</time></trkpt><trkpt lat="45.835455" lon="13.496875"><ele>11.0</ele><time>2026-04-30T09:42:53.051Z</time></trkpt><trkpt lat="45.8355583" lon="13.496795"><ele>11.0</ele><time>2026-04-30T09:42:54.124Z</time></trkpt><trkpt lat="45.8356633" lon="13.4967167"><ele>11.0</ele><time>2026-04-30T09:42:55.063Z</time></trkpt><trkpt lat="45.8357683" lon="13.4966433"><ele>11.0</ele><time>2026-04-30T09:42:56.138Z</time></trkpt><trkpt lat="45.83587" lon="13.4965683"><ele>11.0</ele><time>2026-04-30T09:42:57.078Z</time></trkpt><trkpt lat="45.835965" lon="13.4965"><ele>11.0</ele><time>2026-04-30T09:42:58.084Z</time></trkpt><trkpt lat="45.8360583" lon="13.49643"><ele>11.0</ele><time>2026-04-30T09:42:59.091Z</time></trkpt><trkpt lat="45.83615" lon="13.4963633"><ele>11.0</ele><time>2026-04-30T09:43:00.096Z</time></trkpt><trkpt lat="45.8362417" lon="13.496295"><ele>11.0</ele><time>2026-04-30T09:43:01.104Z</time></trkpt><trkpt lat="45.8363317" lon="13.49623"><ele>11.0</ele><time>2026-04-30T09:43:02.11Z</time></trkpt><trkpt lat="45.8364233" lon="13.4961583"><ele>11.0</ele><time>2026-04-30T09:43:03.05Z</time></trkpt><trkpt lat="45.8365167" lon="13.4960917"><ele>11.0</ele><time>2026-04-30T09:43:04.123Z</time></trkpt><trkpt lat="45.8366083" lon="13.4960217"><ele>11.0</ele><time>2026-04-30T09:43:05.062Z</time></trkpt><trkpt lat="45.8367033" lon="13.4959533"><ele>11.0</ele><time>2026-04-30T09:43:06.136Z</time></trkpt><trkpt lat="45.8368017" lon="13.4958833"><ele>11.0</ele><time>2026-04-30T09:43:07.077Z</time></trkpt><trkpt lat="45.8369033" lon="13.4958133"><ele>11.0</ele><time>2026-04-30T09:43:08.082Z</time></trkpt><trkpt lat="45.8370083" lon="13.49574"><ele>11.0</ele><time>2026-04-30T09:43:09.09Z</time></trkpt><trkpt lat="45.83712" lon="13.4956567"><ele>11.0</ele><time>2026-04-30T09:43:10.097Z</time></trkpt><trkpt lat="45.8372283" lon="13.4955683"><ele>11.0</ele><time>2026-04-30T09:43:11.103Z</time></trkpt><trkpt lat="45.8373483" lon="13.49549"><ele>11.0</ele><time>2026-04-30T09:43:12.109Z</time></trkpt><trkpt lat="45.837465" lon="13.4954083"><ele>11.0</ele><time>2026-04-30T09:43:13.048Z</time></trkpt><trkpt lat="45.83758" lon="13.495325"><ele>11.25</ele><time>2026-04-30T09:43:14.122Z</time></trkpt><trkpt lat="45.8376917" lon="13.49524"><ele>11.5</ele><time>2026-04-30T09:43:15.062Z</time></trkpt><trkpt lat="45.8378" lon="13.4951567"><ele>11.75</ele><time>2026-04-30T09:43:16.135Z</time></trkpt><trkpt lat="45.837905" lon="13.4950767"><ele>12.0</ele><time>2026-04-30T09:43:17.075Z</time></trkpt><trkpt lat="45.838005" lon="13.4950033"><ele>12.0</ele><time>2026-04-30T09:43:18.083Z</time></trkpt><trkpt lat="45.8381" lon="13.49493"><ele>12.0</ele><time>2026-04-30T09:43:19.088Z</time></trkpt><trkpt lat="45.8381933" lon="13.494855"><ele>12.0</ele><time>2026-04-30T09:43:20.095Z</time></trkpt><trkpt lat="45.8382867" lon="13.4947783"><ele>12.0</ele><time>2026-04-30T09:43:21.102Z</time></trkpt><trkpt lat="45.8383783" lon="13.4947"><ele>12.0</ele><time>2026-04-30T09:43:22.109Z</time></trkpt><trkpt lat="45.8384617" lon="13.494625"><ele>12.166666666666666</ele><time>2026-04-30T09:43:23.048Z</time></trkpt><trkpt lat="45.8385383" lon="13.49455"><ele>12.333333333333332</ele><time>2026-04-30T09:43:24.121Z</time></trkpt><trkpt lat="45.8386133" lon="13.4944767"><ele>12.5</ele><time>2026-04-30T09:43:25.062Z</time></trkpt><trkpt lat="45.838685" lon="13.4944067"><ele>12.666666666666666</ele><time>2026-04-30T09:43:26.068Z</time></trkpt><trkpt lat="45.8387517" lon="13.4943467"><ele>12.833333333333332</ele><time>2026-04-30T09:43:27.075Z</time></trkpt><trkpt lat="45.8388167" lon="13.4943017"><ele>13.0</ele><time>2026-04-30T09:43:28.081Z</time></trkpt><trkpt lat="45.83888" lon="13.4942583"><ele>12.999999999999998</ele><time>2026-04-30T09:43:29.087Z</time></trkpt><trkpt lat="45.8389317" lon="13.4942017"><ele>13.0</ele><time>2026-04-30T09:43:30.095Z</time></trkpt><trkpt lat="45.8389667" lon="13.4940483"><ele>13.0</ele><time>2026-04-30T09:43:32.108Z</time></trkpt><trkpt lat="45.8389267" lon="13.4939717"><ele>13.0</ele><time>2026-04-30T09:43:33.048Z</time></trkpt><trkpt lat="45.838875" lon="13.4939"><ele>12.999999999999998</ele><time>2026-04-30T09:43:34.122Z</time></trkpt><trkpt lat="45.83882" lon="13.4938133"><ele>13.0</ele><time>2026-04-30T09:43:35.06Z</time></trkpt><trkpt lat="45.8387617" lon="13.4937083"><ele>13.75</ele><time>2026-04-30T09:43:36.067Z</time></trkpt><trkpt lat="45.8387033" lon="13.493585"><ele>14.5</ele><time>2026-04-30T09:43:37.073Z</time></trkpt><trkpt lat="45.8386483" lon="13.49345"><ele>15.25</ele><time>2026-04-30T09:43:38.08Z</time></trkpt><trkpt lat="45.83859" lon="13.4933017"><ele>16.0</ele><time>2026-04-30T09:43:39.088Z</time></trkpt><trkpt lat="45.8385267" lon="13.493145"><ele>15.25</ele><time>2026-04-30T09:43:40.093Z</time></trkpt><trkpt lat="45.838465" lon="13.492985"><ele>14.5</ele><time>2026-04-30T09:43:41.033Z</time></trkpt><trkpt lat="45.8384017" lon="13.4928317"><ele>13.75</ele><time>2026-04-30T09:43:42.107Z</time></trkpt><trkpt lat="45.838345" lon="13.49269"><ele>13.0</ele><time>2026-04-30T09:43:43.047Z</time></trkpt><trkpt lat="45.838295" lon="13.49256"><ele>13.0</ele><time>2026-04-30T09:43:44.12Z</time></trkpt><trkpt lat="45.8382483" lon="13.4924383"><ele>13.0</ele><time>2026-04-30T09:43:45.059Z</time></trkpt><trkpt lat="45.838205" lon="13.492325"><ele>13.0</ele><time>2026-04-30T09:43:46.066Z</time></trkpt><trkpt lat="45.8381667" lon="13.4922217"><ele>13.0</ele><time>2026-04-30T09:43:47.073Z</time></trkpt><trkpt lat="45.83813" lon="13.492125"><ele>13.0</ele><time>2026-04-30T09:43:48.08Z</time></trkpt><trkpt lat="45.8380767" lon="13.491995"><ele>13.0</ele><time>2026-04-30T09:43:50.093Z</time></trkpt><trkpt lat="45.838015" lon="13.4918767"><ele>13.0</ele><time>2026-04-30T09:47:06.05Z</time></trkpt><trkpt lat="45.83794" lon="13.4917283"><ele>13.0</ele><time>2026-04-30T09:47:08.132Z</time></trkpt><trkpt lat="45.8378967" lon="13.4916383"><ele>13.0</ele><time>2026-04-30T09:47:09.071Z</time></trkpt><trkpt lat="45.837875" lon="13.4915483"><ele>13.0</ele><time>2026-04-30T09:47:10.145Z</time></trkpt><trkpt lat="45.8378517" lon="13.4914417"><ele>13.0</ele><time>2026-04-30T09:47:11.085Z</time></trkpt><trkpt lat="45.8378033" lon="13.4913183"><ele>13.0</ele><time>2026-04-30T09:47:12.024Z</time></trkpt><trkpt lat="45.8377483" lon="13.491185"><ele>13.0</ele><time>2026-04-30T09:47:13.098Z</time></trkpt><trkpt lat="45.83769" lon="13.4910467"><ele>13.0</ele><time>2026-04-30T09:47:14.037Z</time></trkpt><trkpt lat="45.8376317" lon="13.490905"><ele>13.0</ele><time>2026-04-30T09:47:15.111Z</time></trkpt><trkpt lat="45.8375733" lon="13.490765"><ele>12.8</ele><time>2026-04-30T09:47:16.117Z</time></trkpt><trkpt lat="45.8375167" lon="13.4906267"><ele>12.600000000000001</ele><time>2026-04-30T09:47:17.056Z</time></trkpt><trkpt lat="45.83747" lon="13.4904967"><ele>12.399999999999999</ele><time>2026-04-30T09:47:18.13Z</time></trkpt><trkpt lat="45.8374367" lon="13.4903767"><ele>12.2</ele><time>2026-04-30T09:47:19.07Z</time></trkpt><trkpt lat="45.837425" lon="13.4902617"><ele>12.0</ele><time>2026-04-30T09:47:20.144Z</time></trkpt><trkpt lat="45.837435" lon="13.4901483"><ele>12.0</ele><time>2026-04-30T09:47:21.084Z</time></trkpt><trkpt lat="45.8374717" lon="13.4900283"><ele>12.0</ele><time>2026-04-30T09:47:22.022Z</time></trkpt><trkpt lat="45.8375217" lon="13.4898967"><ele>12.0</ele><time>2026-04-30T09:47:23.097Z</time></trkpt><trkpt lat="45.8375733" lon="13.489755"><ele>12.0</ele><time>2026-04-30T09:47:24.103Z</time></trkpt><trkpt lat="45.8376183" lon="13.4896117"><ele>12.0</ele><time>2026-04-30T09:47:25.11Z</time></trkpt><trkpt lat="45.837645" lon="13.4894617"><ele>12.0</ele><time>2026-04-30T09:47:26.117Z</time></trkpt><trkpt lat="45.837655" lon="13.4893167"><ele>12.0</ele><time>2026-04-30T09:47:27.056Z</time></trkpt><trkpt lat="45.8376433" lon="13.489185"><ele>12.0</ele><time>2026-04-30T09:47:28.129Z</time></trkpt><trkpt lat="45.83761" lon="13.489065"><ele>12.0</ele><time>2026-04-30T09:47:29.069Z</time></trkpt><trkpt lat="45.837555" lon="13.4889617"><ele>12.0</ele><time>2026-04-30T09:47:30.142Z</time></trkpt><trkpt lat="45.8374767" lon="13.4888817"><ele>12.0</ele><time>2026-04-30T09:47:31.082Z</time></trkpt><trkpt lat="45.8373867" lon="13.4888383"><ele>12.0</ele><time>2026-04-30T09:47:32.089Z</time></trkpt><trkpt lat="45.83729" lon="13.48882"><ele>12.0</ele><time>2026-04-30T09:47:33.096Z</time></trkpt><trkpt lat="45.83719" lon="13.4888267"><ele>12.0</ele><time>2026-04-30T09:47:34.103Z</time></trkpt><trkpt lat="45.8370867" lon="13.4888517"><ele>12.0</ele><time>2026-04-30T09:47:35.109Z</time></trkpt><trkpt lat="45.8369833" lon="13.4888983"><ele>12.0</ele><time>2026-04-30T09:47:36.116Z</time></trkpt><trkpt lat="45.8368783" lon="13.4889717"><ele>12.0</ele><time>2026-04-30T09:47:37.055Z</time></trkpt><trkpt lat="45.8367733" lon="13.489065"><ele>12.0</ele><time>2026-04-30T09:47:38.128Z</time></trkpt><trkpt lat="45.8366633" lon="13.4891767"><ele>12.0</ele><time>2026-04-30T09:47:39.068Z</time></trkpt><trkpt lat="45.8365583" lon="13.4893033"><ele>11.5</ele><time>2026-04-30T09:47:40.142Z</time></trkpt><trkpt lat="45.8364567" lon="13.4894467"><ele>11.0</ele><time>2026-04-30T09:47:41.082Z</time></trkpt><trkpt lat="45.8363633" lon="13.489605"><ele>10.5</ele><time>2026-04-30T09:47:42.089Z</time></trkpt><trkpt lat="45.8362817" lon="13.489755"><ele>10.0</ele><time>2026-04-30T09:47:43.094Z</time></trkpt><trkpt lat="45.836195" lon="13.4899067"><ele>10.0</ele><time>2026-04-30T09:47:44.102Z</time></trkpt><trkpt lat="45.8361067" lon="13.490055"><ele>10.0</ele><time>2026-04-30T09:47:45.108Z</time></trkpt><trkpt lat="45.8360133" lon="13.4901983"><ele>10.0</ele><time>2026-04-30T09:47:46.115Z</time></trkpt><trkpt lat="45.8359167" lon="13.4903383"><ele>10.0</ele><time>2026-04-30T09:47:47.054Z</time></trkpt><trkpt lat="45.83581" lon="13.4904633"><ele>10.0</ele><time>2026-04-30T09:47:48.129Z</time></trkpt><trkpt lat="45.835695" lon="13.4905717"><ele>10.0</ele><time>2026-04-30T09:47:49.068Z</time></trkpt><trkpt lat="45.8355767" lon="13.4906667"><ele>10.0</ele><time>2026-04-30T09:47:50.141Z</time></trkpt><trkpt lat="45.8354567" lon="13.4907583"><ele>10.0</ele><time>2026-04-30T09:47:51.08Z</time></trkpt><trkpt lat="45.835335" lon="13.4908417"><ele>10.0</ele><time>2026-04-30T09:47:52.087Z</time></trkpt><trkpt lat="45.8352133" lon="13.4909183"><ele>10.0</ele><time>2026-04-30T09:47:53.095Z</time></trkpt><trkpt lat="45.8350783" lon="13.4909933"><ele>10.0</ele><time>2026-04-30T09:47:54.1Z</time></trkpt><trkpt lat="45.8349767" lon="13.4910583"><ele>10.0</ele><time>2026-04-30T09:47:55.04Z</time></trkpt><trkpt lat="45.8348567" lon="13.4911267"><ele>10.25</ele><time>2026-04-30T09:47:56.115Z</time></trkpt><trkpt lat="45.8347367" lon="13.4911933"><ele>10.5</ele><time>2026-04-30T09:47:57.053Z</time></trkpt><trkpt lat="45.8346133" lon="13.4912633"><ele>10.75</ele><time>2026-04-30T09:47:58.127Z</time></trkpt><trkpt lat="45.834485" lon="13.491335"><ele>11.0</ele><time>2026-04-30T09:47:59.066Z</time></trkpt><trkpt lat="45.8343517" lon="13.4914033"><ele>10.5</ele><time>2026-04-30T09:48:00.073Z</time></trkpt><trkpt lat="45.834215" lon="13.4914733"><ele>10.0</ele><time>2026-04-30T09:48:01.08Z</time></trkpt><trkpt lat="45.8340733" lon="13.4915433"><ele>9.5</ele><time>2026-04-30T09:48:02.087Z</time></trkpt><trkpt lat="45.8339333" lon="13.4916083"><ele>9.0</ele><time>2026-04-30T09:48:03.093Z</time></trkpt><trkpt lat="45.833795" lon="13.4916733"><ele>9.0</ele><time>2026-04-30T09:48:04.101Z</time></trkpt><trkpt lat="45.8336533" lon="13.491735"><ele>9.0</ele><time>2026-04-30T09:48:05.039Z</time></trkpt><trkpt lat="45.8335067" lon="13.4917967"><ele>9.0</ele><time>2026-04-30T09:48:06.113Z</time></trkpt><trkpt lat="45.8333583" lon="13.4918567"><ele>9.0</ele><time>2026-04-30T09:48:07.052Z</time></trkpt><trkpt lat="45.8332083" lon="13.4919183"><ele>9.0</ele><time>2026-04-30T09:48:08.126Z</time></trkpt><trkpt lat="45.833055" lon="13.4919783"><ele>9.0</ele><time>2026-04-30T09:48:09.067Z</time></trkpt><trkpt lat="45.8329033" lon="13.492035"><ele>9.0</ele><time>2026-04-30T09:48:10.073Z</time></trkpt><trkpt lat="45.83276" lon="13.4920817"><ele>9.0</ele><time>2026-04-30T09:48:11.08Z</time></trkpt><trkpt lat="45.8326217" lon="13.492125"><ele>9.0</ele><time>2026-04-30T09:48:12.086Z</time></trkpt><trkpt lat="45.8324883" lon="13.4921633"><ele>9.0</ele><time>2026-04-30T09:48:13.093Z</time></trkpt><trkpt lat="45.8323533" lon="13.4922067"><ele>8.5</ele><time>2026-04-30T09:48:14.099Z</time></trkpt><trkpt lat="45.8322233" lon="13.492245"><ele>8.0</ele><time>2026-04-30T09:48:15.038Z</time></trkpt><trkpt lat="45.83209" lon="13.4922867"><ele>7.5</ele><time>2026-04-30T09:48:16.112Z</time></trkpt><trkpt lat="45.8319567" lon="13.4923217"><ele>7.0</ele><time>2026-04-30T09:48:17.053Z</time></trkpt><trkpt lat="45.8318183" lon="13.4923583"><ele>7.0</ele><time>2026-04-30T09:48:18.126Z</time></trkpt><trkpt lat="45.8316767" lon="13.49239"><ele>7.0</ele><time>2026-04-30T09:48:19.065Z</time></trkpt><trkpt lat="45.8315317" lon="13.4924217"><ele>7.0</ele><time>2026-04-30T09:48:20.071Z</time></trkpt><trkpt lat="45.83138" lon="13.4924533"><ele>7.0</ele><time>2026-04-30T09:48:21.079Z</time></trkpt><trkpt lat="45.8312217" lon="13.4924867"><ele>7.0</ele><time>2026-04-30T09:48:22.085Z</time></trkpt><trkpt lat="45.831055" lon="13.4925217"><ele>7.0</ele><time>2026-04-30T09:48:23.091Z</time></trkpt><trkpt lat="45.8308817" lon="13.492555"><ele>7.0</ele><time>2026-04-30T09:48:24.098Z</time></trkpt><trkpt lat="45.8307017" lon="13.4925833"><ele>7.0</ele><time>2026-04-30T09:48:25.038Z</time></trkpt><trkpt lat="45.8305217" lon="13.4926067"><ele>7.0</ele><time>2026-04-30T09:48:26.111Z</time></trkpt><trkpt lat="45.830335" lon="13.4926283"><ele>7.0</ele><time>2026-04-30T09:48:27.051Z</time></trkpt><trkpt lat="45.8301533" lon="13.4926433"><ele>7.666666666666667</ele><time>2026-04-30T09:48:28.125Z</time></trkpt><trkpt lat="45.8299733" lon="13.4926583"><ele>8.333333333333334</ele><time>2026-04-30T09:48:29.065Z</time></trkpt><trkpt lat="45.829795" lon="13.49267"><ele>9.0</ele><time>2026-04-30T09:48:30.072Z</time></trkpt><trkpt lat="45.8296283" lon="13.4926817"><ele>9.0</ele><time>2026-04-30T09:48:31.077Z</time></trkpt><trkpt lat="45.829465" lon="13.4926933"><ele>9.0</ele><time>2026-04-30T09:48:32.085Z</time></trkpt><trkpt lat="45.82931" lon="13.4926967"><ele>9.0</ele><time>2026-04-30T09:48:33.091Z</time></trkpt><trkpt lat="45.8291567" lon="13.4927"><ele>8.0</ele><time>2026-04-30T09:48:34.098Z</time></trkpt><trkpt lat="45.8290033" lon="13.4927017"><ele>7.0</ele><time>2026-04-30T09:48:35.037Z</time></trkpt><trkpt lat="45.8288517" lon="13.4927017"><ele>6.0</ele><time>2026-04-30T09:48:36.111Z</time></trkpt><trkpt lat="45.8286983" lon="13.4927017"><ele>6.0</ele><time>2026-04-30T09:48:37.05Z</time></trkpt><trkpt lat="45.828545" lon="13.492705"><ele>6.0</ele><time>2026-04-30T09:48:38.125Z</time></trkpt><trkpt lat="45.82839" lon="13.492705"><ele>6.0</ele><time>2026-04-30T09:48:39.064Z</time></trkpt><trkpt lat="45.8282317" lon="13.4927067"><ele>5.5</ele><time>2026-04-30T09:48:40.07Z</time></trkpt><trkpt lat="45.8279183" lon="13.4927017"><ele>5.0</ele><time>2026-04-30T09:48:42.084Z</time></trkpt><trkpt lat="45.8277583" lon="13.4926983"><ele>6.0</ele><time>2026-04-30T09:48:43.091Z</time></trkpt><trkpt lat="45.827595" lon="13.4926967"><ele>7.0</ele><time>2026-04-30T09:48:44.097Z</time></trkpt><trkpt lat="45.8274283" lon="13.4926867"><ele>8.0</ele><time>2026-04-30T09:48:45.037Z</time></trkpt><trkpt lat="45.82726" lon="13.4926817"><ele>8.0</ele><time>2026-04-30T09:48:46.111Z</time></trkpt><trkpt lat="45.82709" lon="13.4926783"><ele>8.0</ele><time>2026-04-30T09:48:47.049Z</time></trkpt><trkpt lat="45.8269217" lon="13.4926733"><ele>8.0</ele><time>2026-04-30T09:48:48.124Z</time></trkpt><trkpt lat="45.8267533" lon="13.49267"><ele>7.0</ele><time>2026-04-30T09:48:49.062Z</time></trkpt><trkpt lat="45.826585" lon="13.492665"><ele>6.0</ele><time>2026-04-30T09:48:50.07Z</time></trkpt><trkpt lat="45.8264183" lon="13.4926617"><ele>5.0</ele><time>2026-04-30T09:48:51.076Z</time></trkpt><trkpt lat="45.8262533" lon="13.4926567"><ele>5.0</ele><time>2026-04-30T09:48:52.082Z</time></trkpt><trkpt lat="45.8260933" lon="13.4926533"><ele>5.0</ele><time>2026-04-30T09:48:53.09Z</time></trkpt><trkpt lat="45.8259283" lon="13.49265"><ele>5.0</ele><time>2026-04-30T09:48:54.096Z</time></trkpt><trkpt lat="45.8257633" lon="13.49265"><ele>6.333333333333334</ele><time>2026-04-30T09:48:55.036Z</time></trkpt><trkpt lat="45.8255967" lon="13.49265"><ele>7.666666666666667</ele><time>2026-04-30T09:48:56.109Z</time></trkpt><trkpt lat="45.8254283" lon="13.4926533"><ele>9.0</ele><time>2026-04-30T09:48:57.048Z</time></trkpt><trkpt lat="45.8252633" lon="13.492655"><ele>8.333333333333334</ele><time>2026-04-30T09:48:58.123Z</time></trkpt><trkpt lat="45.8251017" lon="13.492655"><ele>7.666666666666667</ele><time>2026-04-30T09:48:59.063Z</time></trkpt><trkpt lat="45.8249367" lon="13.4926583"><ele>7.0</ele><time>2026-04-30T09:49:00.068Z</time></trkpt><trkpt lat="45.8247667" lon="13.492665"><ele>7.0</ele><time>2026-04-30T09:49:01.075Z</time></trkpt><trkpt lat="45.824595" lon="13.4926733"><ele>7.0</ele><time>2026-04-30T09:49:02.083Z</time></trkpt><trkpt lat="45.8244217" lon="13.4926867"><ele>7.0</ele><time>2026-04-30T09:49:03.089Z</time></trkpt><trkpt lat="45.82425" lon="13.4927"><ele>7.0</ele><time>2026-04-30T09:49:04.096Z</time></trkpt><trkpt lat="45.824075" lon="13.49271"><ele>7.0</ele><time>2026-04-30T09:49:05.034Z</time></trkpt><trkpt lat="45.8238983" lon="13.4927233"><ele>7.0</ele><time>2026-04-30T09:49:06.108Z</time></trkpt><trkpt lat="45.8237233" lon="13.492735"><ele>7.0</ele><time>2026-04-30T09:49:07.048Z</time></trkpt><trkpt lat="45.8235533" lon="13.4927483"><ele>7.0</ele><time>2026-04-30T09:49:08.121Z</time></trkpt><trkpt lat="45.8233883" lon="13.492765"><ele>7.0</ele><time>2026-04-30T09:49:09.061Z</time></trkpt><trkpt lat="45.8232267" lon="13.4927817"><ele>7.0</ele><time>2026-04-30T09:49:10.068Z</time></trkpt><trkpt lat="45.8230767" lon="13.4927933"><ele>7.0</ele><time>2026-04-30T09:49:11.074Z</time></trkpt><trkpt lat="45.8229383" lon="13.4928033"><ele>7.0</ele><time>2026-04-30T09:49:12.081Z</time></trkpt><trkpt lat="45.8228083" lon="13.492805"><ele>7.0</ele><time>2026-04-30T09:49:13.155Z</time></trkpt><trkpt lat="45.8226867" lon="13.4927933"><ele>7.25</ele><time>2026-04-30T09:49:14.094Z</time></trkpt><trkpt lat="45.822575" lon="13.4927583"><ele>7.5</ele><time>2026-04-30T09:49:15.034Z</time></trkpt><trkpt lat="45.8224717" lon="13.4927017"><ele>7.75</ele><time>2026-04-30T09:49:16.108Z</time></trkpt><trkpt lat="45.82237" lon="13.4926117"><ele>8.0</ele><time>2026-04-30T09:49:17.047Z</time></trkpt><trkpt lat="45.8222767" lon="13.4924983"><ele>8.0</ele><time>2026-04-30T09:49:18.122Z</time></trkpt><trkpt lat="45.8221833" lon="13.49237"><ele>8.0</ele><time>2026-04-30T09:49:19.061Z</time></trkpt><trkpt lat="45.8220867" lon="13.492245"><ele>8.0</ele><time>2026-04-30T09:49:20.067Z</time></trkpt><trkpt lat="45.8219867" lon="13.492145"><ele>8.0</ele><time>2026-04-30T09:49:21.142Z</time></trkpt><trkpt lat="45.8218733" lon="13.4920717"><ele>8.0</ele><time>2026-04-30T09:49:22.081Z</time></trkpt><trkpt lat="45.8217583" lon="13.49202"><ele>8.0</ele><time>2026-04-30T09:49:23.154Z</time></trkpt><trkpt lat="45.8216417" lon="13.4919967"><ele>8.0</ele><time>2026-04-30T09:49:24.093Z</time></trkpt><trkpt lat="45.821525" lon="13.4920017"><ele>8.0</ele><time>2026-04-30T09:49:25.034Z</time></trkpt><trkpt lat="45.8214183" lon="13.4920383"><ele>7.75</ele><time>2026-04-30T09:49:26.108Z</time></trkpt><trkpt lat="45.8213233" lon="13.4921117"><ele>7.5</ele><time>2026-04-30T09:49:27.046Z</time></trkpt><trkpt lat="45.8212367" lon="13.492195"><ele>7.25</ele><time>2026-04-30T09:49:28.054Z</time></trkpt><trkpt lat="45.8211583" lon="13.4923167"><ele>7.0</ele><time>2026-04-30T09:49:29.127Z</time></trkpt><trkpt lat="45.8210933" lon="13.4924683"><ele>7.0</ele><time>2026-04-30T09:49:30.066Z</time></trkpt><trkpt lat="45.8210533" lon="13.4926383"><ele>7.0</ele><time>2026-04-30T09:49:31.141Z</time></trkpt><trkpt lat="45.82103" lon="13.4928167"><ele>7.0</ele><time>2026-04-30T09:49:32.079Z</time></trkpt><trkpt lat="45.8210333" lon="13.492995"><ele>7.0</ele><time>2026-04-30T09:49:33.019Z</time></trkpt><trkpt lat="45.821065" lon="13.4931733"><ele>6.75</ele><time>2026-04-30T09:49:34.093Z</time></trkpt><trkpt lat="45.8211267" lon="13.4933367"><ele>6.5</ele><time>2026-04-30T09:49:35.032Z</time></trkpt><trkpt lat="45.82121" lon="13.4934833"><ele>6.25</ele><time>2026-04-30T09:49:36.107Z</time></trkpt><trkpt lat="45.8213083" lon="13.4936083"><ele>6.0</ele><time>2026-04-30T09:49:37.046Z</time></trkpt><trkpt lat="45.8214167" lon="13.4937183"><ele>6.0</ele><time>2026-04-30T09:49:38.052Z</time></trkpt><trkpt lat="45.8215267" lon="13.4938267"><ele>6.0</ele><time>2026-04-30T09:49:39.126Z</time></trkpt><trkpt lat="45.82162" lon="13.49394"><ele>6.0</ele><time>2026-04-30T09:49:40.065Z</time></trkpt><trkpt lat="45.82169" lon="13.4940617"><ele>6.0</ele><time>2026-04-30T09:49:41.14Z</time></trkpt><trkpt lat="45.8217317" lon="13.4941883"><ele>6.0</ele><time>2026-04-30T09:49:42.079Z</time></trkpt><trkpt lat="45.821765" lon="13.4943267"><ele>6.0</ele><time>2026-04-30T09:49:43.019Z</time></trkpt><trkpt lat="45.821795" lon="13.494475"><ele>6.0</ele><time>2026-04-30T09:49:44.092Z</time></trkpt><trkpt lat="45.8218183" lon="13.494635"><ele>6.0</ele><time>2026-04-30T09:49:45.031Z</time></trkpt><trkpt lat="45.82184" lon="13.49481"><ele>6.0</ele><time>2026-04-30T09:49:46.105Z</time></trkpt><trkpt lat="45.8218583" lon="13.4949883"><ele>6.5</ele><time>2026-04-30T09:49:47.113Z</time></trkpt><trkpt lat="45.821875" lon="13.4951717"><ele>7.0</ele><time>2026-04-30T09:49:48.051Z</time></trkpt><trkpt lat="45.8218933" lon="13.495355"><ele>7.5</ele><time>2026-04-30T09:49:49.125Z</time></trkpt><trkpt lat="45.8219133" lon="13.4955333"><ele>8.0</ele><time>2026-04-30T09:49:50.064Z</time></trkpt><trkpt lat="45.821935" lon="13.495715"><ele>8.0</ele><time>2026-04-30T09:49:51.138Z</time></trkpt><trkpt lat="45.8219567" lon="13.4958967"><ele>8.0</ele><time>2026-04-30T09:49:52.079Z</time></trkpt><trkpt lat="45.8219767" lon="13.4960783"><ele>8.0</ele><time>2026-04-30T09:49:53.017Z</time></trkpt><trkpt lat="45.8220017" lon="13.4962633"><ele>8.0</ele><time>2026-04-30T09:49:54.091Z</time></trkpt><trkpt lat="45.822025" lon="13.4964483"><ele>8.0</ele><time>2026-04-30T09:49:55.098Z</time></trkpt><trkpt lat="45.8220417" lon="13.4966333"><ele>8.0</ele><time>2026-04-30T09:49:56.105Z</time></trkpt><trkpt lat="45.82206" lon="13.49682"><ele>8.0</ele><time>2026-04-30T09:49:57.111Z</time></trkpt><trkpt lat="45.8220817" lon="13.4970067"><ele>8.0</ele><time>2026-04-30T09:49:58.051Z</time></trkpt><trkpt lat="45.822105" lon="13.497195"><ele>8.0</ele><time>2026-04-30T09:49:59.124Z</time></trkpt><trkpt lat="45.8221267" lon="13.4973817"><ele>8.0</ele><time>2026-04-30T09:50:00.064Z</time></trkpt><trkpt lat="45.8221467" lon="13.4975683"><ele>8.0</ele><time>2026-04-30T09:50:01.138Z</time></trkpt><trkpt lat="45.8221667" lon="13.4977533"><ele>8.0</ele><time>2026-04-30T09:50:02.078Z</time></trkpt><trkpt lat="45.8221867" lon="13.4979367"><ele>8.25</ele><time>2026-04-30T09:50:03.084Z</time></trkpt><trkpt lat="45.822205" lon="13.4981183"><ele>8.5</ele><time>2026-04-30T09:50:04.091Z</time></trkpt><trkpt lat="45.8222217" lon="13.4983017"><ele>8.75</ele><time>2026-04-30T09:50:05.097Z</time></trkpt><trkpt lat="45.8222383" lon="13.4984867"><ele>9.0</ele><time>2026-04-30T09:50:06.103Z</time></trkpt><trkpt lat="45.8222533" lon="13.4986733"><ele>8.75</ele><time>2026-04-30T09:50:07.11Z</time></trkpt><trkpt lat="45.8222533" lon="13.4988583"><ele>8.5</ele><time>2026-04-30T09:50:08.051Z</time></trkpt><trkpt lat="45.822245" lon="13.4990433"><ele>8.25</ele><time>2026-04-30T09:50:09.123Z</time></trkpt><trkpt lat="45.8222317" lon="13.4992217"><ele>8.0</ele><time>2026-04-30T09:50:10.064Z</time></trkpt><trkpt lat="45.8222133" lon="13.4993983"><ele>8.0</ele><time>2026-04-30T09:50:11.137Z</time></trkpt><trkpt lat="45.8221883" lon="13.4995717"><ele>8.0</ele><time>2026-04-30T09:50:12.076Z</time></trkpt><trkpt lat="45.8221583" lon="13.4997333"><ele>8.0</ele><time>2026-04-30T09:50:13.084Z</time></trkpt><trkpt lat="45.8221267" lon="13.49988"><ele>8.0</ele><time>2026-04-30T09:50:14.089Z</time></trkpt><trkpt lat="45.8220917" lon="13.5000133"><ele>8.0</ele><time>2026-04-30T09:50:15.096Z</time></trkpt><trkpt lat="45.822055" lon="13.5001333"><ele>8.0</ele><time>2026-04-30T09:50:16.103Z</time></trkpt><trkpt lat="45.822015" lon="13.50025"><ele>8.0</ele><time>2026-04-30T09:50:17.11Z</time></trkpt><trkpt lat="45.82197" lon="13.5003633"><ele>8.0</ele><time>2026-04-30T09:50:18.049Z</time></trkpt><trkpt lat="45.8219217" lon="13.5004767"><ele>8.0</ele><time>2026-04-30T09:50:19.123Z</time></trkpt><trkpt lat="45.8218667" lon="13.50059"><ele>8.0</ele><time>2026-04-30T09:50:20.062Z</time></trkpt><trkpt lat="45.8218067" lon="13.5007033"><ele>8.0</ele><time>2026-04-30T09:50:21.137Z</time></trkpt><trkpt lat="45.8217367" lon="13.5008217"><ele>8.0</ele><time>2026-04-30T09:50:22.075Z</time></trkpt><trkpt lat="45.8216617" lon="13.5009367"><ele>8.0</ele><time>2026-04-30T09:50:23.083Z</time></trkpt><trkpt lat="45.8215833" lon="13.50105"><ele>8.0</ele><time>2026-04-30T09:50:24.089Z</time></trkpt><trkpt lat="45.8215033" lon="13.5011667"><ele>8.0</ele><time>2026-04-30T09:50:25.096Z</time></trkpt><trkpt lat="45.821425" lon="13.501285"><ele>8.0</ele><time>2026-04-30T09:50:26.103Z</time></trkpt><trkpt lat="45.8213433" lon="13.5014"><ele>8.0</ele><time>2026-04-30T09:50:27.109Z</time></trkpt><trkpt lat="45.8212567" lon="13.5015133"><ele>8.0</ele><time>2026-04-30T09:50:28.049Z</time></trkpt><trkpt lat="45.82117" lon="13.5016267"><ele>8.0</ele><time>2026-04-30T09:50:29.122Z</time></trkpt><trkpt lat="45.8210833" lon="13.501745"><ele>8.0</ele><time>2026-04-30T09:50:30.062Z</time></trkpt><trkpt lat="45.8209967" lon="13.5018617"><ele>8.0</ele><time>2026-04-30T09:50:31.136Z</time></trkpt><trkpt lat="45.8209067" lon="13.501985"><ele>8.0</ele><time>2026-04-30T09:50:32.075Z</time></trkpt><trkpt lat="45.8208167" lon="13.5021067"><ele>8.0</ele><time>2026-04-30T09:50:33.081Z</time></trkpt><trkpt lat="45.8207233" lon="13.5022317"><ele>6.75</ele><time>2026-04-30T09:50:34.088Z</time></trkpt><trkpt lat="45.820625" lon="13.5023617"><ele>5.5</ele><time>2026-04-30T09:50:35.095Z</time></trkpt><trkpt lat="45.8205267" lon="13.502495"><ele>4.25</ele><time>2026-04-30T09:50:36.101Z</time></trkpt><trkpt lat="45.820425" lon="13.5026283"><ele>3.0</ele><time>2026-04-30T09:50:37.109Z</time></trkpt><trkpt lat="45.8203183" lon="13.5027667"><ele>3.0</ele><time>2026-04-30T09:50:38.048Z</time></trkpt><trkpt lat="45.8202133" lon="13.5029083"><ele>3.0</ele><time>2026-04-30T09:50:39.122Z</time></trkpt><trkpt lat="45.820105" lon="13.5030517"><ele>3.0</ele><time>2026-04-30T09:50:40.061Z</time></trkpt><trkpt lat="45.8199983" lon="13.5031983"><ele>3.0</ele><time>2026-04-30T09:50:41.135Z</time></trkpt><trkpt lat="45.8198883" lon="13.5033467"><ele>4.333333333333334</ele><time>2026-04-30T09:50:42.075Z</time></trkpt><trkpt lat="45.8197767" lon="13.503495"><ele>5.666666666666667</ele><time>2026-04-30T09:50:43.081Z</time></trkpt><trkpt lat="45.819665" lon="13.5036417"><ele>7.0</ele><time>2026-04-30T09:50:44.088Z</time></trkpt><trkpt lat="45.819555" lon="13.50379"><ele>7.333333333333334</ele><time>2026-04-30T09:50:45.095Z</time></trkpt><trkpt lat="45.8194467" lon="13.5039433"><ele>7.666666666666666</ele><time>2026-04-30T09:50:46.1Z</time></trkpt><trkpt lat="45.8193367" lon="13.5040933"><ele>8.0</ele><time>2026-04-30T09:50:47.108Z</time></trkpt><trkpt lat="45.8192283" lon="13.5042433"><ele>7.5</ele><time>2026-04-30T09:50:48.047Z</time></trkpt><trkpt lat="45.8191217" lon="13.5043933"><ele>7.0</ele><time>2026-04-30T09:50:49.12Z</time></trkpt><trkpt lat="45.8189033" lon="13.5046933"><ele>7.0</ele><time>2026-04-30T09:50:51.134Z</time></trkpt><trkpt lat="45.818795" lon="13.5048417"><ele>7.0</ele><time>2026-04-30T09:50:52.074Z</time></trkpt><trkpt lat="45.8186833" lon="13.50499"><ele>7.0</ele><time>2026-04-30T09:50:53.08Z</time></trkpt><trkpt lat="45.818575" lon="13.5051367"><ele>7.0</ele><time>2026-04-30T09:50:54.087Z</time></trkpt><trkpt lat="45.818465" lon="13.5052833"><ele>7.0</ele><time>2026-04-30T09:50:55.093Z</time></trkpt><trkpt lat="45.8183533" lon="13.5054317"><ele>7.0</ele><time>2026-04-30T09:50:56.032Z</time></trkpt><trkpt lat="45.8182417" lon="13.5055817"><ele>7.0</ele><time>2026-04-30T09:50:57.106Z</time></trkpt><trkpt lat="45.81813" lon="13.5057367"><ele>7.0</ele><time>2026-04-30T09:50:58.046Z</time></trkpt><trkpt lat="45.818015" lon="13.505895"><ele>7.0</ele><time>2026-04-30T09:50:59.119Z</time></trkpt><trkpt lat="45.8178967" lon="13.50605"><ele>7.0</ele><time>2026-04-30T09:51:00.059Z</time></trkpt><trkpt lat="45.8177783" lon="13.5062033"><ele>7.0</ele><time>2026-04-30T09:51:01.067Z</time></trkpt><trkpt lat="45.81766" lon="13.50636"><ele>7.0</ele><time>2026-04-30T09:51:02.072Z</time></trkpt><trkpt lat="45.8175417" lon="13.5065167"><ele>6.666666666666667</ele><time>2026-04-30T09:51:03.08Z</time></trkpt><trkpt lat="45.8174233" lon="13.506675"><ele>6.333333333333334</ele><time>2026-04-30T09:51:04.087Z</time></trkpt><trkpt lat="45.8173083" lon="13.5068317"><ele>6.0</ele><time>2026-04-30T09:51:05.093Z</time></trkpt><trkpt lat="45.8171917" lon="13.5069883"><ele>6.333333333333334</ele><time>2026-04-30T09:51:06.033Z</time></trkpt><trkpt lat="45.8170767" lon="13.5071433"><ele>6.666666666666667</ele><time>2026-04-30T09:51:07.105Z</time></trkpt><trkpt lat="45.8169633" lon="13.507295"><ele>7.0</ele><time>2026-04-30T09:51:08.046Z</time></trkpt><trkpt lat="45.8168483" lon="13.507445"><ele>7.333333333333334</ele><time>2026-04-30T09:51:09.12Z</time></trkpt><trkpt lat="45.816735" lon="13.5075917"><ele>7.666666666666666</ele><time>2026-04-30T09:51:10.059Z</time></trkpt><trkpt lat="45.8166233" lon="13.50774"><ele>8.0</ele><time>2026-04-30T09:51:11.066Z</time></trkpt><trkpt lat="45.8165133" lon="13.5078883"><ele>7.75</ele><time>2026-04-30T09:51:12.071Z</time></trkpt><trkpt lat="45.81641" lon="13.50804"><ele>7.5</ele><time>2026-04-30T09:51:13.078Z</time></trkpt><trkpt lat="45.8163167" lon="13.5082033"><ele>7.25</ele><time>2026-04-30T09:51:14.086Z</time></trkpt><trkpt lat="45.8162317" lon="13.50837"><ele>7.0</ele><time>2026-04-30T09:51:15.091Z</time></trkpt><trkpt lat="45.8161533" lon="13.5085417"><ele>7.0</ele><time>2026-04-30T09:51:16.031Z</time></trkpt><trkpt lat="45.8160783" lon="13.5087133"><ele>7.0</ele><time>2026-04-30T09:51:17.105Z</time></trkpt><trkpt lat="45.8160017" lon="13.5088817"><ele>7.0</ele><time>2026-04-30T09:51:18.044Z</time></trkpt><trkpt lat="45.815925" lon="13.5090467"><ele>7.0</ele><time>2026-04-30T09:51:19.118Z</time></trkpt><trkpt lat="45.8158533" lon="13.5092117"><ele>6.75</ele><time>2026-04-30T09:51:20.057Z</time></trkpt><trkpt lat="45.8157783" lon="13.5093733"><ele>6.5</ele><time>2026-04-30T09:51:21.064Z</time></trkpt><trkpt lat="45.8157067" lon="13.5095317"><ele>6.25</ele><time>2026-04-30T09:51:22.071Z</time></trkpt><trkpt lat="45.8156333" lon="13.509695"><ele>6.0</ele><time>2026-04-30T09:51:23.078Z</time></trkpt><trkpt lat="45.8155617" lon="13.509855"><ele>6.0</ele><time>2026-04-30T09:51:24.084Z</time></trkpt><trkpt lat="45.8154917" lon="13.51001"><ele>6.0</ele><time>2026-04-30T09:51:25.092Z</time></trkpt><trkpt lat="45.8154233" lon="13.510165"><ele>6.0</ele><time>2026-04-30T09:51:26.03Z</time></trkpt><trkpt lat="45.815355" lon="13.510315"><ele>6.0</ele><time>2026-04-30T09:51:27.105Z</time></trkpt><trkpt lat="45.815285" lon="13.51047"><ele>6.0</ele><time>2026-04-30T09:51:28.043Z</time></trkpt><trkpt lat="45.815215" lon="13.5106233"><ele>6.0</ele><time>2026-04-30T09:51:29.117Z</time></trkpt><trkpt lat="45.8151433" lon="13.510775"><ele>6.0</ele><time>2026-04-30T09:51:30.057Z</time></trkpt><trkpt lat="45.815075" lon="13.510925"><ele>6.0</ele><time>2026-04-30T09:51:31.063Z</time></trkpt><trkpt lat="45.8150067" lon="13.5110733"><ele>6.5</ele><time>2026-04-30T09:51:32.07Z</time></trkpt><trkpt lat="45.8149367" lon="13.5112283"><ele>7.0</ele><time>2026-04-30T09:51:33.078Z</time></trkpt><trkpt lat="45.814865" lon="13.5113833"><ele>7.5</ele><time>2026-04-30T09:51:34.084Z</time></trkpt><trkpt lat="45.8147917" lon="13.5115417"><ele>8.0</ele><time>2026-04-30T09:51:35.09Z</time></trkpt><trkpt lat="45.81472" lon="13.5117"><ele>8.0</ele><time>2026-04-30T09:51:36.029Z</time></trkpt><trkpt lat="45.8146533" lon="13.5118533"><ele>8.0</ele><time>2026-04-30T09:51:37.104Z</time></trkpt><trkpt lat="45.8145883" lon="13.51199"><ele>8.0</ele><time>2026-04-30T09:51:38.043Z</time></trkpt><trkpt lat="45.8145283" lon="13.5121167"><ele>8.0</ele><time>2026-04-30T09:51:39.117Z</time></trkpt><trkpt lat="45.8144733" lon="13.5122367"><ele>8.0</ele><time>2026-04-30T09:51:40.056Z</time></trkpt><trkpt lat="45.814425" lon="13.5123467"><ele>8.0</ele><time>2026-04-30T09:51:41.063Z</time></trkpt><trkpt lat="45.81438" lon="13.5124517"><ele>8.0</ele><time>2026-04-30T09:51:42.069Z</time></trkpt><trkpt lat="45.814335" lon="13.512565"><ele>8.0</ele><time>2026-04-30T09:51:43.077Z</time></trkpt><trkpt lat="45.8142817" lon="13.5126917"><ele>8.0</ele><time>2026-04-30T09:51:44.151Z</time></trkpt><trkpt lat="45.8142233" lon="13.5128233"><ele>8.0</ele><time>2026-04-30T09:51:45.089Z</time></trkpt><trkpt lat="45.8141633" lon="13.51296"><ele>7.25</ele><time>2026-04-30T09:51:46.029Z</time></trkpt><trkpt lat="45.814105" lon="13.5131017"><ele>6.5</ele><time>2026-04-30T09:51:47.102Z</time></trkpt><trkpt lat="45.814045" lon="13.5132433"><ele>5.75</ele><time>2026-04-30T09:51:48.042Z</time></trkpt><trkpt lat="45.8139817" lon="13.513385"><ele>5.0</ele><time>2026-04-30T09:51:49.116Z</time></trkpt><trkpt lat="45.8139183" lon="13.5135283"><ele>5.0</ele><time>2026-04-30T09:51:50.055Z</time></trkpt><trkpt lat="45.8138567" lon="13.5136717"><ele>5.0</ele><time>2026-04-30T09:51:51.062Z</time></trkpt><trkpt lat="45.8137917" lon="13.513815"><ele>5.0</ele><time>2026-04-30T09:51:52.136Z</time></trkpt><trkpt lat="45.81373" lon="13.5139567"><ele>5.0</ele><time>2026-04-30T09:51:53.076Z</time></trkpt><trkpt lat="45.81367" lon="13.514095"><ele>5.25</ele><time>2026-04-30T09:51:54.149Z</time></trkpt><trkpt lat="45.81356" lon="13.514345"><ele>5.5</ele><time>2026-04-30T09:51:56.028Z</time></trkpt><trkpt lat="45.8135083" lon="13.5144567"><ele>5.75</ele><time>2026-04-30T09:51:57.102Z</time></trkpt><trkpt lat="45.8134583" lon="13.51457"><ele>6.0</ele><time>2026-04-30T09:51:58.041Z</time></trkpt><trkpt lat="45.8134067" lon="13.5146833"><ele>6.166666666666667</ele><time>2026-04-30T09:51:59.115Z</time></trkpt><trkpt lat="45.813355" lon="13.5147967"><ele>6.333333333333334</ele><time>2026-04-30T09:52:00.122Z</time></trkpt><trkpt lat="45.8133083" lon="13.5149017"><ele>6.5</ele><time>2026-04-30T09:52:01.061Z</time></trkpt><trkpt lat="45.8132667" lon="13.5150017"><ele>6.666666666666667</ele><time>2026-04-30T09:52:02.135Z</time></trkpt><trkpt lat="45.8132317" lon="13.5150917"><ele>6.833333333333334</ele><time>2026-04-30T09:52:03.074Z</time></trkpt><trkpt lat="45.8131983" lon="13.5151817"><ele>7.0</ele><time>2026-04-30T09:52:04.148Z</time></trkpt><trkpt lat="45.813165" lon="13.515275"><ele>7.0</ele><time>2026-04-30T09:52:05.087Z</time></trkpt><trkpt lat="45.8131317" lon="13.5153717"><ele>7.0</ele><time>2026-04-30T09:52:06.027Z</time></trkpt><trkpt lat="45.8130967" lon="13.5154683"><ele>7.0</ele><time>2026-04-30T09:52:07.102Z</time></trkpt><trkpt lat="45.81306" lon="13.515565"><ele>7.0</ele><time>2026-04-30T09:52:08.04Z</time></trkpt><trkpt lat="45.813025" lon="13.515665"><ele>7.0</ele><time>2026-04-30T09:52:09.115Z</time></trkpt><trkpt lat="45.8129933" lon="13.5157617"><ele>7.0</ele><time>2026-04-30T09:52:10.121Z</time></trkpt><trkpt lat="45.812965" lon="13.51585"><ele>7.0</ele><time>2026-04-30T09:52:11.06Z</time></trkpt><trkpt lat="45.8129433" lon="13.515935"><ele>7.0</ele><time>2026-04-30T09:52:12.134Z</time></trkpt><trkpt lat="45.8129067" lon="13.5160933"><ele>6.999999999999999</ele><time>2026-04-30T09:52:14.147Z</time></trkpt><trkpt lat="45.812865" lon="13.51625"><ele>6.999999999999999</ele><time>2026-04-30T09:52:16.027Z</time></trkpt><trkpt lat="45.8128383" lon="13.5163433"><ele>7.0</ele><time>2026-04-30T09:52:17.1Z</time></trkpt><trkpt lat="45.8128083" lon="13.5164533"><ele>7.0</ele><time>2026-04-30T09:52:18.107Z</time></trkpt><trkpt lat="45.8127767" lon="13.5165733"><ele>6.833333333333334</ele><time>2026-04-30T09:52:19.114Z</time></trkpt><trkpt lat="45.8127367" lon="13.5167"><ele>6.666666666666667</ele><time>2026-04-30T09:52:20.12Z</time></trkpt><trkpt lat="45.8126917" lon="13.51683"><ele>6.5</ele><time>2026-04-30T09:52:21.059Z</time></trkpt><trkpt lat="45.81265" lon="13.5169483"><ele>6.333333333333334</ele><time>2026-04-30T09:52:22.133Z</time></trkpt><trkpt lat="45.8126133" lon="13.5170517"><ele>6.166666666666667</ele><time>2026-04-30T09:52:23.073Z</time></trkpt><trkpt lat="45.8125833" lon="13.5171417"><ele>6.0</ele><time>2026-04-30T09:52:24.012Z</time></trkpt><trkpt lat="45.8125317" lon="13.5172883"><ele>5.5</ele><time>2026-04-30T09:52:26.093Z</time></trkpt><trkpt lat="45.8124867" lon="13.51743"><ele>5.0</ele><time>2026-04-30T09:52:28.106Z</time></trkpt><trkpt lat="45.8124333" lon="13.517595"><ele>4.5</ele><time>2026-04-30T09:52:30.12Z</time></trkpt><trkpt lat="45.8123833" lon="13.51774"><ele>4.0</ele><time>2026-04-30T09:52:32.133Z</time></trkpt><trkpt lat="45.8123333" lon="13.5179017"><ele>3.6666666666666665</ele><time>2026-04-30T09:52:34.08Z</time></trkpt><trkpt lat="45.8123067" lon="13.5179917"><ele>3.333333333333333</ele><time>2026-04-30T09:52:35.086Z</time></trkpt><trkpt lat="45.8122767" lon="13.5180833"><ele>3.0</ele><time>2026-04-30T09:52:36.092Z</time></trkpt><trkpt lat="45.81225" lon="13.51818"><ele>2.6666666666666665</ele><time>2026-04-30T09:52:37.098Z</time></trkpt><trkpt lat="45.8122233" lon="13.518275"><ele>2.333333333333333</ele><time>2026-04-30T09:52:38.105Z</time></trkpt><trkpt lat="45.8121967" lon="13.5183733"><ele>2.0</ele><time>2026-04-30T09:52:39.046Z</time></trkpt><trkpt lat="45.8121617" lon="13.5185017"><ele>2.0</ele><time>2026-04-30T09:52:40.119Z</time></trkpt><trkpt lat="45.812115" lon="13.5186717"><ele>2.0</ele><time>2026-04-30T09:52:41.059Z</time></trkpt><trkpt lat="45.8120567" lon="13.5188633"><ele>2.0</ele><time>2026-04-30T09:52:42.132Z</time></trkpt><trkpt lat="45.8119867" lon="13.51907"><ele>2.0</ele><time>2026-04-30T09:52:43.071Z</time></trkpt><trkpt lat="45.81192" lon="13.519265"><ele>2.5</ele><time>2026-04-30T09:52:44.079Z</time></trkpt><trkpt lat="45.8118567" lon="13.5194433"><ele>3.0</ele><time>2026-04-30T09:52:45.085Z</time></trkpt><trkpt lat="45.8118033" lon="13.5196083"><ele>3.5</ele><time>2026-04-30T09:52:46.091Z</time></trkpt><trkpt lat="45.811755" lon="13.5197567"><ele>4.0</ele><time>2026-04-30T09:52:47.098Z</time></trkpt><trkpt lat="45.8117117" lon="13.51989"><ele>4.4</ele><time>2026-04-30T09:52:48.104Z</time></trkpt><trkpt lat="45.811665" lon="13.52002"><ele>4.800000000000001</ele><time>2026-04-30T09:52:49.044Z</time></trkpt><trkpt lat="45.8116183" lon="13.520165"><ele>5.199999999999999</ele><time>2026-04-30T09:52:50.119Z</time></trkpt><trkpt lat="45.8115683" lon="13.520315"><ele>5.6</ele><time>2026-04-30T09:52:51.057Z</time></trkpt><trkpt lat="45.8115233" lon="13.520455"><ele>6.0</ele><time>2026-04-30T09:52:52.131Z</time></trkpt><trkpt lat="45.8114817" lon="13.5205783"><ele>6.0</ele><time>2026-04-30T09:52:53.07Z</time></trkpt><trkpt lat="45.8114467" lon="13.5206933"><ele>6.0</ele><time>2026-04-30T09:52:54.077Z</time></trkpt><trkpt lat="45.8114133" lon="13.5208033"><ele>6.0</ele><time>2026-04-30T09:52:55.085Z</time></trkpt><trkpt lat="45.8113817" lon="13.52092"><ele>6.0</ele><time>2026-04-30T09:52:56.09Z</time></trkpt><trkpt lat="45.8113483" lon="13.521045"><ele>6.0</ele><time>2026-04-30T09:52:57.098Z</time></trkpt><trkpt lat="45.811315" lon="13.5211783"><ele>6.199999999999999</ele><time>2026-04-30T09:52:58.104Z</time></trkpt><trkpt lat="45.811245" lon="13.5214283"><ele>6.3999999999999995</ele><time>2026-04-30T09:53:00.117Z</time></trkpt><trkpt lat="45.811215" lon="13.5215317"><ele>6.6</ele><time>2026-04-30T09:53:01.056Z</time></trkpt><trkpt lat="45.8111867" lon="13.5216283"><ele>6.8</ele><time>2026-04-30T09:53:02.131Z</time></trkpt><trkpt lat="45.8111633" lon="13.521715"><ele>7.0</ele><time>2026-04-30T09:53:03.07Z</time></trkpt><trkpt lat="45.811125" lon="13.5218767"><ele>7.0</ele><time>2026-04-30T09:53:05.084Z</time></trkpt><trkpt lat="45.8110917" lon="13.5220017"><ele>6.999999999999999</ele><time>2026-04-30T09:53:07.096Z</time></trkpt><trkpt lat="45.811055" lon="13.5221167"><ele>6.999999999999999</ele><time>2026-04-30T09:53:09.042Z</time></trkpt><trkpt lat="45.810995" lon="13.5222783"><ele>7.0</ele><time>2026-04-30T09:53:43.066Z</time></trkpt><trkpt lat="45.81096" lon="13.522375"><ele>7.0</ele><time>2026-04-30T09:53:44.073Z</time></trkpt><trkpt lat="45.8109167" lon="13.5224917"><ele>6.75</ele><time>2026-04-30T09:53:45.081Z</time></trkpt><trkpt lat="45.8108617" lon="13.522635"><ele>6.5</ele><time>2026-04-30T09:53:46.087Z</time></trkpt><trkpt lat="45.8107983" lon="13.5227933"><ele>6.25</ele><time>2026-04-30T09:53:47.093Z</time></trkpt><trkpt lat="45.8107217" lon="13.5229683"><ele>6.0</ele><time>2026-04-30T09:53:48.101Z</time></trkpt><trkpt lat="45.8106433" lon="13.5231467"><ele>5.5</ele><time>2026-04-30T09:53:49.039Z</time></trkpt><trkpt lat="45.8105633" lon="13.523335"><ele>5.0</ele><time>2026-04-30T09:53:50.113Z</time></trkpt><trkpt lat="45.81049" lon="13.523505"><ele>4.5</ele><time>2026-04-30T09:53:51.052Z</time></trkpt><trkpt lat="45.810425" lon="13.5236483"><ele>4.0</ele><time>2026-04-30T09:53:52.06Z</time></trkpt><trkpt lat="45.8103633" lon="13.5237667"><ele>3.833333333333333</ele><time>2026-04-30T09:53:53.066Z</time></trkpt><trkpt lat="45.8103167" lon="13.523865"><ele>3.6666666666666665</ele><time>2026-04-30T09:53:54.072Z</time></trkpt><trkpt lat="45.81027" lon="13.5239717"><ele>3.5</ele><time>2026-04-30T09:53:56.087Z</time></trkpt><trkpt lat="45.8102267" lon="13.5240467"><ele>3.333333333333333</ele><time>2026-04-30T09:54:26.083Z</time></trkpt><trkpt lat="45.81016" lon="13.5241967"><ele>3.1666666666666665</ele><time>2026-04-30T09:54:28.097Z</time></trkpt><trkpt lat="45.810115" lon="13.5243"><ele>3.0</ele><time>2026-04-30T09:54:29.036Z</time></trkpt><trkpt lat="45.8100633" lon="13.52442"><ele>3.666666666666667</ele><time>2026-04-30T09:54:30.11Z</time></trkpt><trkpt lat="45.8100167" lon="13.524525"><ele>4.333333333333334</ele><time>2026-04-30T09:54:31.116Z</time></trkpt><trkpt lat="45.80997" lon="13.5246183"><ele>5.0</ele><time>2026-04-30T09:54:32.056Z</time></trkpt><trkpt lat="45.8099183" lon="13.524695"><ele>5.666666666666667</ele><time>2026-04-30T09:54:33.131Z</time></trkpt><trkpt lat="45.8098583" lon="13.5247583"><ele>6.333333333333334</ele><time>2026-04-30T09:54:34.069Z</time></trkpt><trkpt lat="45.8097833" lon="13.5247983"><ele>7.0</ele><time>2026-04-30T09:54:35.144Z</time></trkpt><trkpt lat="45.8096983" lon="13.52483"><ele>7.000000000000001</ele><time>2026-04-30T09:54:36.082Z</time></trkpt><trkpt lat="45.8096183" lon="13.5248517"><ele>7.0</ele><time>2026-04-30T09:54:37.023Z</time></trkpt><trkpt lat="45.80954" lon="13.52487"><ele>7.0</ele><time>2026-04-30T09:54:38.096Z</time></trkpt><trkpt lat="45.809455" lon="13.5248833"><ele>7.0</ele><time>2026-04-30T09:54:39.035Z</time></trkpt><trkpt lat="45.80937" lon="13.5249"><ele>7.000000000000001</ele><time>2026-04-30T09:54:40.109Z</time></trkpt><trkpt lat="45.80928" lon="13.52492"><ele>7.0</ele><time>2026-04-30T09:54:41.116Z</time></trkpt><trkpt lat="45.809195" lon="13.5249283"><ele>8.0</ele><time>2026-04-30T09:54:42.055Z</time></trkpt><trkpt lat="45.8091033" lon="13.5249433"><ele>9.0</ele><time>2026-04-30T09:54:43.13Z</time></trkpt><trkpt lat="45.8090067" lon="13.5249617"><ele>10.0</ele><time>2026-04-30T09:54:44.068Z</time></trkpt><trkpt lat="45.8089083" lon="13.5249867"><ele>11.0</ele><time>2026-04-30T09:54:45.142Z</time></trkpt><trkpt lat="45.8088033" lon="13.52502"><ele>12.0</ele><time>2026-04-30T09:54:46.082Z</time></trkpt><trkpt lat="45.8086983" lon="13.525065"><ele>12.0</ele><time>2026-04-30T09:54:47.021Z</time></trkpt><trkpt lat="45.8086067" lon="13.52512"><ele>12.0</ele><time>2026-04-30T09:54:48.095Z</time></trkpt><trkpt lat="45.8085217" lon="13.5251767"><ele>12.0</ele><time>2026-04-30T09:54:49.102Z</time></trkpt><trkpt lat="45.80843" lon="13.5252517"><ele>12.0</ele><time>2026-04-30T09:54:50.109Z</time></trkpt><trkpt lat="45.8083383" lon="13.5253517"><ele>12.0</ele><time>2026-04-30T09:54:51.116Z</time></trkpt><trkpt lat="45.8082483" lon="13.5254683"><ele>10.0</ele><time>2026-04-30T09:54:52.054Z</time></trkpt><trkpt lat="45.80817" lon="13.5255917"><ele>8.0</ele><time>2026-04-30T09:54:53.129Z</time></trkpt><trkpt lat="45.8080967" lon="13.5257217"><ele>6.0</ele><time>2026-04-30T09:54:54.069Z</time></trkpt><trkpt lat="45.808025" lon="13.525855"><ele>4.0</ele><time>2026-04-30T09:54:55.142Z</time></trkpt><trkpt lat="45.8079517" lon="13.5259883"><ele>4.0</ele><time>2026-04-30T09:54:56.081Z</time></trkpt><trkpt lat="45.8078783" lon="13.526125"><ele>4.0</ele><time>2026-04-30T09:54:57.088Z</time></trkpt><trkpt lat="45.807805" lon="13.52626"><ele>4.0</ele><time>2026-04-30T09:54:58.095Z</time></trkpt><trkpt lat="45.8077333" lon="13.5263933"><ele>4.0</ele><time>2026-04-30T09:54:59.102Z</time></trkpt><trkpt lat="45.8076633" lon="13.5265283"><ele>4.0</ele><time>2026-04-30T09:55:00.107Z</time></trkpt><trkpt lat="45.807595" lon="13.5266617"><ele>4.0</ele><time>2026-04-30T09:55:01.114Z</time></trkpt><trkpt lat="45.80753" lon="13.5267817"><ele>4.0</ele><time>2026-04-30T09:55:02.055Z</time></trkpt><trkpt lat="45.8074667" lon="13.5268933"><ele>4.0</ele><time>2026-04-30T09:55:03.128Z</time></trkpt><trkpt lat="45.8074067" lon="13.5270017"><ele>4.0</ele><time>2026-04-30T09:55:04.067Z</time></trkpt><trkpt lat="45.8073483" lon="13.527115"><ele>4.0</ele><time>2026-04-30T09:55:05.142Z</time></trkpt><trkpt lat="45.8072933" lon="13.52722"><ele>4.0</ele><time>2026-04-30T09:55:06.081Z</time></trkpt><trkpt lat="45.8072417" lon="13.5273183"><ele>4.0</ele><time>2026-04-30T09:55:07.087Z</time></trkpt><trkpt lat="45.807195" lon="13.5274117"><ele>4.0</ele><time>2026-04-30T09:55:08.094Z</time></trkpt><trkpt lat="45.80711" lon="13.5275833"><ele>4.0</ele><time>2026-04-30T09:55:10.107Z</time></trkpt><trkpt lat="45.8070617" lon="13.5276717"><ele>3.9999999999999996</ele><time>2026-04-30T09:55:11.113Z</time></trkpt><trkpt lat="45.8070117" lon="13.5277683"><ele>4.0</ele><time>2026-04-30T09:55:12.053Z</time></trkpt><trkpt lat="45.8069567" lon="13.5278683"><ele>4.0</ele><time>2026-04-30T09:55:13.128Z</time></trkpt><trkpt lat="45.8069017" lon="13.5279783"><ele>4.0</ele><time>2026-04-30T09:55:14.066Z</time></trkpt><trkpt lat="45.806845" lon="13.528085"><ele>3.9999999999999996</ele><time>2026-04-30T09:55:15.14Z</time></trkpt><trkpt lat="45.8067967" lon="13.5281833"><ele>4.0</ele><time>2026-04-30T09:55:16.079Z</time></trkpt><trkpt lat="45.80675" lon="13.5282783"><ele>3.833333333333333</ele><time>2026-04-30T09:55:17.087Z</time></trkpt><trkpt lat="45.8067033" lon="13.5283767"><ele>3.6666666666666665</ele><time>2026-04-30T09:55:18.093Z</time></trkpt><trkpt lat="45.8066533" lon="13.5284783"><ele>3.5</ele><time>2026-04-30T09:55:19.099Z</time></trkpt><trkpt lat="45.8066" lon="13.52858"><ele>3.333333333333333</ele><time>2026-04-30T09:55:20.04Z</time></trkpt><trkpt lat="45.8065483" lon="13.5286883"><ele>3.1666666666666665</ele><time>2026-04-30T09:55:21.113Z</time></trkpt><trkpt lat="45.8065017" lon="13.5287933"><ele>3.0</ele><time>2026-04-30T09:55:22.052Z</time></trkpt><trkpt lat="45.8064583" lon="13.5288817"><ele>3.3333333333333335</ele><time>2026-04-30T09:55:23.126Z</time></trkpt><trkpt lat="45.806415" lon="13.5289683"><ele>3.666666666666667</ele><time>2026-04-30T09:55:24.065Z</time></trkpt><trkpt lat="45.806365" lon="13.5290667"><ele>4.0</ele><time>2026-04-30T09:55:25.072Z</time></trkpt><trkpt lat="45.8063117" lon="13.5291767"><ele>4.333333333333334</ele><time>2026-04-30T09:55:26.079Z</time></trkpt><trkpt lat="45.8062567" lon="13.5292883"><ele>4.666666666666667</ele><time>2026-04-30T09:55:27.086Z</time></trkpt><trkpt lat="45.8062033" lon="13.5293967"><ele>5.0</ele><time>2026-04-30T09:55:28.092Z</time></trkpt><trkpt lat="45.8061567" lon="13.5294933"><ele>5.285714285714286</ele><time>2026-04-30T09:55:29.098Z</time></trkpt><trkpt lat="45.8061133" lon="13.52958"><ele>5.571428571428571</ele><time>2026-04-30T09:55:30.039Z</time></trkpt><trkpt lat="45.806075" lon="13.5296583"><ele>5.857142857142858</ele><time>2026-04-30T09:55:31.112Z</time></trkpt><trkpt lat="45.8060383" lon="13.5297333"><ele>6.142857142857142</ele><time>2026-04-30T09:55:32.051Z</time></trkpt><trkpt lat="45.8059983" lon="13.52981"><ele>6.428571428571429</ele><time>2026-04-30T09:55:33.125Z</time></trkpt><trkpt lat="45.805955" lon="13.5298917"><ele>6.714285714285714</ele><time>2026-04-30T09:55:34.065Z</time></trkpt><trkpt lat="45.8059067" lon="13.5299817"><ele>7.0</ele><time>2026-04-30T09:55:35.071Z</time></trkpt><trkpt lat="45.8058533" lon="13.5300867"><ele>7.25</ele><time>2026-04-30T09:55:36.079Z</time></trkpt><trkpt lat="45.805795" lon="13.53021"><ele>7.5</ele><time>2026-04-30T09:55:37.084Z</time></trkpt><trkpt lat="45.805735" lon="13.5303483"><ele>7.75</ele><time>2026-04-30T09:55:38.092Z</time></trkpt><trkpt lat="45.8056767" lon="13.5305033"><ele>8.0</ele><time>2026-04-30T09:55:39.099Z</time></trkpt><trkpt lat="45.80562" lon="13.530665"><ele>8.0</ele><time>2026-04-30T09:55:40.038Z</time></trkpt><trkpt lat="45.8055667" lon="13.530825"><ele>8.0</ele><time>2026-04-30T09:55:41.112Z</time></trkpt><trkpt lat="45.8055167" lon="13.53098"><ele>8.0</ele><time>2026-04-30T09:55:42.05Z</time></trkpt><trkpt lat="45.80547" lon="13.5311233"><ele>8.0</ele><time>2026-04-30T09:55:43.124Z</time></trkpt><trkpt lat="45.8054267" lon="13.531255"><ele>8.0</ele><time>2026-04-30T09:55:44.064Z</time></trkpt><trkpt lat="45.8053867" lon="13.5313833"><ele>8.0</ele><time>2026-04-30T09:55:45.071Z</time></trkpt><trkpt lat="45.8053467" lon="13.5315133"><ele>8.0</ele><time>2026-04-30T09:55:46.077Z</time></trkpt><trkpt lat="45.80531" lon="13.5316517"><ele>8.0</ele><time>2026-04-30T09:55:47.085Z</time></trkpt><trkpt lat="45.805275" lon="13.5317933"><ele>8.0</ele><time>2026-04-30T09:55:48.09Z</time></trkpt><trkpt lat="45.8052367" lon="13.5319333"><ele>7.6000000000000005</ele><time>2026-04-30T09:55:49.098Z</time></trkpt><trkpt lat="45.8052067" lon="13.53208"><ele>7.200000000000001</ele><time>2026-04-30T09:55:50.036Z</time></trkpt><trkpt lat="45.8051783" lon="13.5322233"><ele>6.8</ele><time>2026-04-30T09:55:51.11Z</time></trkpt><trkpt lat="45.8051533" lon="13.5323567"><ele>6.4</ele><time>2026-04-30T09:55:52.05Z</time></trkpt><trkpt lat="45.80513" lon="13.53248"><ele>6.0</ele><time>2026-04-30T09:55:53.123Z</time></trkpt><trkpt lat="45.8051083" lon="13.5325933"><ele>5.666666666666667</ele><time>2026-04-30T09:55:54.063Z</time></trkpt><trkpt lat="45.80509" lon="13.5326883"><ele>5.333333333333333</ele><time>2026-04-30T09:55:55.07Z</time></trkpt><trkpt lat="45.8050533" lon="13.5328067"><ele>5.0</ele><time>2026-04-30T09:55:57.084Z</time></trkpt><trkpt lat="45.8050017" lon="13.5329117"><ele>4.666666666666666</ele><time>2026-04-30T09:56:01.11Z</time></trkpt><trkpt lat="45.80494" lon="13.5330017"><ele>4.333333333333333</ele><time>2026-04-30T09:56:03.123Z</time></trkpt><trkpt lat="45.8049067" lon="13.5330833"><ele>4.0</ele><time>2026-04-30T09:56:04.062Z</time></trkpt><trkpt lat="45.8048883" lon="13.5331883"><ele>3.6</ele><time>2026-04-30T09:56:05.069Z</time></trkpt><trkpt lat="45.8048867" lon="13.53331"><ele>3.2</ele><time>2026-04-30T09:56:06.075Z</time></trkpt><trkpt lat="45.8048833" lon="13.5334367"><ele>2.8000000000000003</ele><time>2026-04-30T09:56:07.082Z</time></trkpt><trkpt lat="45.8048683" lon="13.533575"><ele>2.4000000000000004</ele><time>2026-04-30T09:56:08.089Z</time></trkpt><trkpt lat="45.8048367" lon="13.5337233"><ele>2.0</ele><time>2026-04-30T09:56:09.096Z</time></trkpt><trkpt lat="45.8047933" lon="13.5338733"><ele>3.0</ele><time>2026-04-30T09:56:10.035Z</time></trkpt><trkpt lat="45.804745" lon="13.5340183"><ele>4.0</ele><time>2026-04-30T09:56:11.109Z</time></trkpt><trkpt lat="45.8046917" lon="13.5341533"><ele>5.0</ele><time>2026-04-30T09:56:12.048Z</time></trkpt><trkpt lat="45.804595" lon="13.5344117"><ele>6.0</ele><time>2026-04-30T09:56:14.061Z</time></trkpt><trkpt lat="45.8045467" lon="13.5345433"><ele>6.199999999999999</ele><time>2026-04-30T09:56:15.068Z</time></trkpt><trkpt lat="45.8044967" lon="13.5346783"><ele>6.3999999999999995</ele><time>2026-04-30T09:56:16.076Z</time></trkpt><trkpt lat="45.8044433" lon="13.5348167"><ele>6.6</ele><time>2026-04-30T09:56:17.081Z</time></trkpt><trkpt lat="45.80439" lon="13.5349567"><ele>6.8</ele><time>2026-04-30T09:56:18.088Z</time></trkpt><trkpt lat="45.8043367" lon="13.5351"><ele>7.0</ele><time>2026-04-30T09:56:19.095Z</time></trkpt><trkpt lat="45.804285" lon="13.535245"><ele>5.75</ele><time>2026-04-30T09:56:20.034Z</time></trkpt><trkpt lat="45.8042317" lon="13.5353933"><ele>4.5</ele><time>2026-04-30T09:56:21.109Z</time></trkpt><trkpt lat="45.8041767" lon="13.53554"><ele>3.25</ele><time>2026-04-30T09:56:22.047Z</time></trkpt><trkpt lat="45.8041217" lon="13.5356917"><ele>2.0</ele><time>2026-04-30T09:56:23.121Z</time></trkpt><trkpt lat="45.8040633" lon="13.5358467"><ele>2.0</ele><time>2026-04-30T09:56:24.062Z</time></trkpt><trkpt lat="45.8040033" lon="13.5360067"><ele>2.0</ele><time>2026-04-30T09:56:25.067Z</time></trkpt><trkpt lat="45.8039467" lon="13.53616"><ele>2.0</ele><time>2026-04-30T09:56:26.075Z</time></trkpt><trkpt lat="45.80389" lon="13.53632"><ele>2.0</ele><time>2026-04-30T09:56:27.08Z</time></trkpt><trkpt lat="45.8038367" lon="13.5364867"><ele>2.0</ele><time>2026-04-30T09:56:28.088Z</time></trkpt><trkpt lat="45.8037767" lon="13.5366483"><ele>2.0</ele><time>2026-04-30T09:56:29.094Z</time></trkpt><trkpt lat="45.80372" lon="13.5368117"><ele>2.0</ele><time>2026-04-30T09:56:30.033Z</time></trkpt><trkpt lat="45.8036617" lon="13.5369733"><ele>2.0</ele><time>2026-04-30T09:56:31.108Z</time></trkpt><trkpt lat="45.8036017" lon="13.53713"><ele>1.75</ele><time>2026-04-30T09:56:32.047Z</time></trkpt><trkpt lat="45.8035433" lon="13.5372883"><ele>1.5</ele><time>2026-04-30T09:56:33.121Z</time></trkpt><trkpt lat="45.8034867" lon="13.5374467"><ele>1.25</ele><time>2026-04-30T09:56:34.061Z</time></trkpt><trkpt lat="45.8034333" lon="13.5376067"><ele>1.0</ele><time>2026-04-30T09:56:35.067Z</time></trkpt><trkpt lat="45.8033783" lon="13.5377633"><ele>0.25</ele><time>2026-04-30T09:56:36.073Z</time></trkpt><trkpt lat="45.8033217" lon="13.537915"><ele>-0.5</ele><time>2026-04-30T09:56:37.08Z</time></trkpt><trkpt lat="45.803265" lon="13.5380683"><ele>-1.25</ele><time>2026-04-30T09:56:38.154Z</time></trkpt><trkpt lat="45.8032083" lon="13.53822"><ele>-2.0</ele><time>2026-04-30T09:56:39.093Z</time></trkpt><trkpt lat="45.80315" lon="13.5383683"><ele>-2.0</ele><time>2026-04-30T09:56:40.033Z</time></trkpt><trkpt lat="45.8030933" lon="13.5385217"><ele>-2.0</ele><time>2026-04-30T09:56:41.106Z</time></trkpt><trkpt lat="45.803035" lon="13.538675"><ele>-2.0</ele><time>2026-04-30T09:56:42.046Z</time></trkpt><trkpt lat="45.802975" lon="13.5388383"><ele>-2.0</ele><time>2026-04-30T09:56:43.12Z</time></trkpt><trkpt lat="45.802915" lon="13.53901"><ele>-1.75</ele><time>2026-04-30T09:56:44.06Z</time></trkpt><trkpt lat="45.8028567" lon="13.539195"><ele>-1.5</ele><time>2026-04-30T09:56:45.067Z</time></trkpt><trkpt lat="45.8028017" lon="13.5393867"><ele>-1.25</ele><time>2026-04-30T09:56:46.14Z</time></trkpt><trkpt lat="45.8027533" lon="13.5395867"><ele>-1.0</ele><time>2026-04-30T09:56:47.079Z</time></trkpt><trkpt lat="45.8027083" lon="13.5397867"><ele>-0.25</ele><time>2026-04-30T09:56:48.153Z</time></trkpt><trkpt lat="45.8026633" lon="13.53998"><ele>0.5</ele><time>2026-04-30T09:56:49.093Z</time></trkpt><trkpt lat="45.8026233" lon="13.5401667"><ele>1.25</ele><time>2026-04-30T09:56:50.033Z</time></trkpt><trkpt lat="45.802585" lon="13.54034"><ele>2.0</ele><time>2026-04-30T09:56:51.105Z</time></trkpt><trkpt lat="45.8025533" lon="13.5405033"><ele>2.0</ele><time>2026-04-30T09:56:52.045Z</time></trkpt><trkpt lat="45.8025233" lon="13.540665"><ele>2.0</ele><time>2026-04-30T09:56:53.119Z</time></trkpt><trkpt lat="45.8025" lon="13.5408267"><ele>2.0</ele><time>2026-04-30T09:56:54.126Z</time></trkpt><trkpt lat="45.8024767" lon="13.54099"><ele>2.0</ele><time>2026-04-30T09:56:55.066Z</time></trkpt><trkpt lat="45.8024583" lon="13.5411583"><ele>1.75</ele><time>2026-04-30T09:56:56.139Z</time></trkpt><trkpt lat="45.8024417" lon="13.54133"><ele>1.5</ele><time>2026-04-30T09:56:57.078Z</time></trkpt><trkpt lat="45.8024267" lon="13.541505"><ele>1.25</ele><time>2026-04-30T09:56:58.018Z</time></trkpt><trkpt lat="45.8024117" lon="13.5416683"><ele>1.0</ele><time>2026-04-30T09:56:59.092Z</time></trkpt><trkpt lat="45.8023983" lon="13.5418117"><ele>0.9999999999999999</ele><time>2026-04-30T09:57:00.031Z</time></trkpt><trkpt lat="45.8023883" lon="13.5419483"><ele>1.0</ele><time>2026-04-30T09:57:01.106Z</time></trkpt><trkpt lat="45.8023783" lon="13.5420717"><ele>1.0</ele><time>2026-04-30T09:57:02.112Z</time></trkpt><trkpt lat="45.8023633" lon="13.54217"><ele>1.0</ele><time>2026-04-30T09:57:03.051Z</time></trkpt><trkpt lat="45.8022967" lon="13.542315"><ele>0.9999999999999999</ele><time>2026-04-30T09:57:05.064Z</time></trkpt><trkpt lat="45.802255" lon="13.5423917"><ele>1.0</ele><time>2026-04-30T09:57:06.139Z</time></trkpt><trkpt lat="45.8022233" lon="13.5424767"><ele>1.6666666666666665</ele><time>2026-04-30T09:57:07.077Z</time></trkpt><trkpt lat="45.8022167" lon="13.542575"><ele>2.3333333333333335</ele><time>2026-04-30T09:57:08.017Z</time></trkpt><trkpt lat="45.802235" lon="13.5426733"><ele>3.0</ele><time>2026-04-30T09:57:09.091Z</time></trkpt><trkpt lat="45.8022667" lon="13.54277"><ele>3.666666666666667</ele><time>2026-04-30T09:57:10.031Z</time></trkpt><trkpt lat="45.8022867" lon="13.542875"><ele>4.333333333333334</ele><time>2026-04-30T09:57:11.104Z</time></trkpt><trkpt lat="45.8022833" lon="13.543"><ele>5.0</ele><time>2026-04-30T09:57:12.112Z</time></trkpt><trkpt lat="45.8022717" lon="13.543135"><ele>5.0</ele><time>2026-04-30T09:57:13.051Z</time></trkpt><trkpt lat="45.80226" lon="13.543275"><ele>5.0</ele><time>2026-04-30T09:57:14.124Z</time></trkpt><trkpt lat="45.8022483" lon="13.5434183"><ele>5.0</ele><time>2026-04-30T09:57:15.063Z</time></trkpt><trkpt lat="45.80224" lon="13.5435683"><ele>5.0</ele><time>2026-04-30T09:57:16.138Z</time></trkpt><trkpt lat="45.8022317" lon="13.5437217"><ele>5.0</ele><time>2026-04-30T09:57:17.077Z</time></trkpt><trkpt lat="45.8022083" lon="13.54403"><ele>5.6</ele><time>2026-04-30T09:57:19.09Z</time></trkpt><trkpt lat="45.8022017" lon="13.54419"><ele>6.2</ele><time>2026-04-30T09:57:20.096Z</time></trkpt><trkpt lat="45.8021933" lon="13.5443467"><ele>6.800000000000001</ele><time>2026-04-30T09:57:21.103Z</time></trkpt><trkpt lat="45.8021867" lon="13.54449"><ele>7.4</ele><time>2026-04-30T09:57:22.11Z</time></trkpt><trkpt lat="45.8021783" lon="13.544625"><ele>8.0</ele><time>2026-04-30T09:57:23.049Z</time></trkpt><trkpt lat="45.80217" lon="13.5447533"><ele>8.200000000000001</ele><time>2026-04-30T09:57:24.123Z</time></trkpt><trkpt lat="45.8021583" lon="13.5448833"><ele>8.4</ele><time>2026-04-30T09:57:25.063Z</time></trkpt><trkpt lat="45.8021417" lon="13.5450117"><ele>8.600000000000001</ele><time>2026-04-30T09:57:26.136Z</time></trkpt><trkpt lat="45.8021183" lon="13.5451367"><ele>8.8</ele><time>2026-04-30T09:57:27.076Z</time></trkpt><trkpt lat="45.8020933" lon="13.5452667"><ele>9.0</ele><time>2026-04-30T09:57:28.082Z</time></trkpt><trkpt lat="45.8020733" lon="13.5454017"><ele>7.6000000000000005</ele><time>2026-04-30T09:57:29.089Z</time></trkpt><trkpt lat="45.80207" lon="13.54555"><ele>6.2</ele><time>2026-04-30T09:57:30.096Z</time></trkpt><trkpt lat="45.802075" lon="13.545705"><ele>4.800000000000001</ele><time>2026-04-30T09:57:31.102Z</time></trkpt><trkpt lat="45.802085" lon="13.54587"><ele>3.4000000000000004</ele><time>2026-04-30T09:57:32.109Z</time></trkpt><trkpt lat="45.80209" lon="13.5460417"><ele>2.0</ele><time>2026-04-30T09:57:33.049Z</time></trkpt><trkpt lat="45.8020883" lon="13.54621"><ele>1.8</ele><time>2026-04-30T09:57:34.122Z</time></trkpt><trkpt lat="45.80208" lon="13.54637"><ele>1.6</ele><time>2026-04-30T09:57:35.062Z</time></trkpt><trkpt lat="45.80207" lon="13.546525"><ele>1.4000000000000001</ele><time>2026-04-30T09:57:36.136Z</time></trkpt><trkpt lat="45.8020617" lon="13.5466833"><ele>1.2000000000000002</ele><time>2026-04-30T09:57:37.076Z</time></trkpt><trkpt lat="45.80205" lon="13.546835"><ele>1.0</ele><time>2026-04-30T09:57:38.082Z</time></trkpt><trkpt lat="45.8020383" lon="13.5469733"><ele>1.3333333333333333</ele><time>2026-04-30T09:57:39.089Z</time></trkpt><trkpt lat="45.80203" lon="13.5471033"><ele>1.6666666666666665</ele><time>2026-04-30T09:57:40.096Z</time></trkpt><trkpt lat="45.8020233" lon="13.54723"><ele>2.0</ele><time>2026-04-30T09:57:41.103Z</time></trkpt><trkpt lat="45.8020133" lon="13.5473583"><ele>2.3333333333333335</ele><time>2026-04-30T09:57:42.109Z</time></trkpt><trkpt lat="45.8020033" lon="13.5474733"><ele>2.6666666666666665</ele><time>2026-04-30T09:57:43.049Z</time></trkpt><trkpt lat="45.801995" lon="13.5475633"><ele>3.0</ele><time>2026-04-30T09:57:44.122Z</time></trkpt><trkpt lat="45.8019833" lon="13.547715"><ele>3.0</ele><time>2026-04-30T09:57:46.136Z</time></trkpt><trkpt lat="45.801975" lon="13.5478567"><ele>3.0</ele><time>2026-04-30T09:57:48.082Z</time></trkpt><trkpt lat="45.8019633" lon="13.5480267"><ele>3.0</ele><time>2026-04-30T09:57:50.094Z</time></trkpt><trkpt lat="45.8019567" lon="13.5481233"><ele>3.0</ele><time>2026-04-30T09:57:51.102Z</time></trkpt><trkpt lat="45.80195" lon="13.5482167"><ele>3.0</ele><time>2026-04-30T09:57:52.107Z</time></trkpt><trkpt lat="45.801935" lon="13.548365"><ele>3.0</ele><time>2026-04-30T09:57:54.122Z</time></trkpt><trkpt lat="45.8019083" lon="13.548515"><ele>3.0</ele><time>2026-04-30T09:57:57.074Z</time></trkpt><trkpt lat="45.801885" lon="13.5486183"><ele>3.0</ele><time>2026-04-30T09:57:59.087Z</time></trkpt><trkpt lat="45.8018933" lon="13.5487833"><ele>3.0</ele><time>2026-04-30T09:58:01.101Z</time></trkpt><trkpt lat="45.8018967" lon="13.54888"><ele>3.0</ele><time>2026-04-30T09:58:02.107Z</time></trkpt><trkpt lat="45.8018983" lon="13.54898"><ele>3.0</ele><time>2026-04-30T09:58:03.047Z</time></trkpt><trkpt lat="45.8018967" lon="13.54909"><ele>3.0</ele><time>2026-04-30T09:58:04.121Z</time></trkpt><trkpt lat="45.80189" lon="13.549205"><ele>3.0</ele><time>2026-04-30T09:58:05.059Z</time></trkpt><trkpt lat="45.8018833" lon="13.54932"><ele>3.0</ele><time>2026-04-30T09:58:06.133Z</time></trkpt><trkpt lat="45.8018783" lon="13.5494467"><ele>3.0</ele><time>2026-04-30T09:58:07.073Z</time></trkpt><trkpt lat="45.80187" lon="13.5495817"><ele>3.0</ele><time>2026-04-30T09:58:08.08Z</time></trkpt><trkpt lat="45.80186" lon="13.54973"><ele>3.0</ele><time>2026-04-30T09:58:09.087Z</time></trkpt><trkpt lat="45.8018483" lon="13.5498783"><ele>3.0</ele><time>2026-04-30T09:58:10.093Z</time></trkpt><trkpt lat="45.8018367" lon="13.5500233"><ele>3.0</ele><time>2026-04-30T09:58:11.099Z</time></trkpt><trkpt lat="45.8018267" lon="13.5501683"><ele>3.0</ele><time>2026-04-30T09:58:12.106Z</time></trkpt><trkpt lat="45.8018183" lon="13.5503"><ele>3.0</ele><time>2026-04-30T09:58:13.045Z</time></trkpt><trkpt lat="45.8018117" lon="13.5504267"><ele>3.0</ele><time>2026-04-30T09:58:14.12Z</time></trkpt><trkpt lat="45.801805" lon="13.5505567"><ele>3.0</ele><time>2026-04-30T09:58:15.059Z</time></trkpt><trkpt lat="45.801795" lon="13.55068"><ele>3.0</ele><time>2026-04-30T09:58:16.133Z</time></trkpt><trkpt lat="45.8017817" lon="13.55078"><ele>3.0</ele><time>2026-04-30T09:58:17.072Z</time></trkpt><trkpt lat="45.8017617" lon="13.5508883"><ele>3.0</ele><time>2026-04-30T09:58:19.086Z</time></trkpt><trkpt lat="45.8017667" lon="13.5510417"><ele>3.0</ele><time>2026-04-30T09:58:23.046Z</time></trkpt><trkpt lat="45.8017633" lon="13.5512317"><ele>3.0</ele><time>2026-04-30T09:58:25.059Z</time></trkpt><trkpt lat="45.801755" lon="13.5514433"><ele>3.0</ele><time>2026-04-30T09:58:27.072Z</time></trkpt><trkpt lat="45.8017417" lon="13.5515417"><ele>3.0</ele><time>2026-04-30T09:58:28.079Z</time></trkpt><trkpt lat="45.8017233" lon="13.55165"><ele>3.0</ele><time>2026-04-30T09:58:29.084Z</time></trkpt><trkpt lat="45.8016967" lon="13.5517633"><ele>3.0</ele><time>2026-04-30T09:58:30.092Z</time></trkpt><trkpt lat="45.80166" lon="13.5518733"><ele>2.9999999999999996</ele><time>2026-04-30T09:58:31.031Z</time></trkpt><trkpt lat="45.8016217" lon="13.551965"><ele>3.0</ele><time>2026-04-30T09:58:32.104Z</time></trkpt><trkpt lat="45.8015817" lon="13.5520483"><ele>3.0</ele><time>2026-04-30T09:58:33.044Z</time></trkpt><trkpt lat="45.8015367" lon="13.55213"><ele>3.0</ele><time>2026-04-30T09:58:34.118Z</time></trkpt><trkpt lat="45.801495" lon="13.5522183"><ele>3.0</ele><time>2026-04-30T09:58:35.057Z</time></trkpt><trkpt lat="45.8014683" lon="13.5523133"><ele>2.9999999999999996</ele><time>2026-04-30T09:58:36.065Z</time></trkpt><trkpt lat="45.8014667" lon="13.5524133"><ele>3.0</ele><time>2026-04-30T09:58:37.071Z</time></trkpt><trkpt lat="45.8014917" lon="13.5525167"><ele>3.0</ele><time>2026-04-30T09:58:38.077Z</time></trkpt><trkpt lat="45.80153" lon="13.5526133"><ele>3.0</ele><time>2026-04-30T09:58:39.084Z</time></trkpt><trkpt lat="45.801575" lon="13.5527283"><ele>3.0</ele><time>2026-04-30T09:58:40.091Z</time></trkpt><trkpt lat="45.8016167" lon="13.55286"><ele>3.0</ele><time>2026-04-30T09:58:41.031Z</time></trkpt><trkpt lat="45.801645" lon="13.5530133"><ele>3.0</ele><time>2026-04-30T09:58:42.104Z</time></trkpt><trkpt lat="45.8016583" lon="13.5531833"><ele>3.25</ele><time>2026-04-30T09:58:43.043Z</time></trkpt><trkpt lat="45.8016617" lon="13.5533783"><ele>3.5</ele><time>2026-04-30T09:58:44.117Z</time></trkpt><trkpt lat="45.8016567" lon="13.5535833"><ele>3.75</ele><time>2026-04-30T09:58:45.056Z</time></trkpt><trkpt lat="45.8016467" lon="13.5537983"><ele>4.0</ele><time>2026-04-30T09:58:46.064Z</time></trkpt><trkpt lat="45.8016333" lon="13.554005"><ele>3.25</ele><time>2026-04-30T09:58:47.07Z</time></trkpt><trkpt lat="45.8016233" lon="13.5541983"><ele>2.5</ele><time>2026-04-30T09:58:48.077Z</time></trkpt><trkpt lat="45.8016117" lon="13.5544033"><ele>1.75</ele><time>2026-04-30T09:58:49.083Z</time></trkpt><trkpt lat="45.801595" lon="13.5546183"><ele>1.0</ele><time>2026-04-30T09:58:50.09Z</time></trkpt><trkpt lat="45.8015767" lon="13.554845"><ele>1.0</ele><time>2026-04-30T09:58:51.03Z</time></trkpt><trkpt lat="45.80156" lon="13.55506"><ele>1.0</ele><time>2026-04-30T09:58:52.104Z</time></trkpt><trkpt lat="45.8015483" lon="13.5552667"><ele>1.0</ele><time>2026-04-30T09:58:53.042Z</time></trkpt><trkpt lat="45.8015333" lon="13.5554717"><ele>1.0</ele><time>2026-04-30T09:58:54.117Z</time></trkpt><trkpt lat="45.8015183" lon="13.55568"><ele>1.25</ele><time>2026-04-30T09:58:55.056Z</time></trkpt><trkpt lat="45.801505" lon="13.5558783"><ele>1.5</ele><time>2026-04-30T09:58:56.063Z</time></trkpt><trkpt lat="45.8014917" lon="13.55606"><ele>1.75</ele><time>2026-04-30T09:58:57.069Z</time></trkpt><trkpt lat="45.80148" lon="13.556245"><ele>2.0</ele><time>2026-04-30T09:58:58.075Z</time></trkpt><trkpt lat="45.8014683" lon="13.5564283"><ele>2.0</ele><time>2026-04-30T09:58:59.083Z</time></trkpt><trkpt lat="45.8014567" lon="13.5566117"><ele>2.0</ele><time>2026-04-30T09:59:00.089Z</time></trkpt><trkpt lat="45.8014433" lon="13.556795"><ele>2.0</ele><time>2026-04-30T09:59:01.029Z</time></trkpt><trkpt lat="45.8014317" lon="13.55699"><ele>2.0</ele><time>2026-04-30T09:59:02.102Z</time></trkpt><trkpt lat="45.8014217" lon="13.5571933"><ele>2.0</ele><time>2026-04-30T09:59:03.042Z</time></trkpt><trkpt lat="45.8014117" lon="13.55741"><ele>2.0</ele><time>2026-04-30T09:59:04.115Z</time></trkpt><trkpt lat="45.8014" lon="13.5576333"><ele>2.0</ele><time>2026-04-30T09:59:05.056Z</time></trkpt><trkpt lat="45.801385" lon="13.5578617"><ele>2.25</ele><time>2026-04-30T09:59:06.062Z</time></trkpt><trkpt lat="45.8013683" lon="13.5580883"><ele>2.5</ele><time>2026-04-30T09:59:07.068Z</time></trkpt><trkpt lat="45.8013517" lon="13.5583033"><ele>2.75</ele><time>2026-04-30T09:59:08.075Z</time></trkpt><trkpt lat="45.8013383" lon="13.5585017"><ele>3.0</ele><time>2026-04-30T09:59:09.148Z</time></trkpt><trkpt lat="45.8013267" lon="13.5586917"><ele>3.4</ele><time>2026-04-30T09:59:10.088Z</time></trkpt><trkpt lat="45.80131" lon="13.5588733"><ele>3.8</ele><time>2026-04-30T09:59:11.027Z</time></trkpt><trkpt lat="45.8012967" lon="13.5590383"><ele>4.2</ele><time>2026-04-30T09:59:12.101Z</time></trkpt><trkpt lat="45.80128" lon="13.55919"><ele>4.6</ele><time>2026-04-30T09:59:13.041Z</time></trkpt><trkpt lat="45.8012617" lon="13.5593233"><ele>5.0</ele><time>2026-04-30T09:59:14.114Z</time></trkpt><trkpt lat="45.8012417" lon="13.55944"><ele>5.333333333333334</ele><time>2026-04-30T09:59:15.054Z</time></trkpt><trkpt lat="45.8012133" lon="13.55954"><ele>5.666666666666667</ele><time>2026-04-30T09:59:16.061Z</time></trkpt><trkpt lat="45.801185" lon="13.5596433"><ele>6.0</ele><time>2026-04-30T09:59:17.135Z</time></trkpt><trkpt lat="45.8011617" lon="13.5597433"><ele>6.333333333333334</ele><time>2026-04-30T09:59:18.075Z</time></trkpt><trkpt lat="45.8011483" lon="13.55985"><ele>6.666666666666667</ele><time>2026-04-30T09:59:19.149Z</time></trkpt><trkpt lat="45.8011617" lon="13.5599683"><ele>7.0</ele><time>2026-04-30T09:59:20.088Z</time></trkpt><trkpt lat="45.8011883" lon="13.5600933"><ele>7.0</ele><time>2026-04-30T09:59:21.028Z</time></trkpt><trkpt lat="45.8012083" lon="13.56023"><ele>6.999999999999999</ele><time>2026-04-30T09:59:22.101Z</time></trkpt><trkpt lat="45.8012133" lon="13.560375"><ele>6.999999999999999</ele><time>2026-04-30T09:59:23.04Z</time></trkpt><trkpt lat="45.8012083" lon="13.5605317"><ele>7.0</ele><time>2026-04-30T09:59:24.115Z</time></trkpt><trkpt lat="45.8011983" lon="13.5607033"><ele>7.0</ele><time>2026-04-30T09:59:25.12Z</time></trkpt><trkpt lat="45.8011867" lon="13.5608883"><ele>7.333333333333334</ele><time>2026-04-30T09:59:26.06Z</time></trkpt><trkpt lat="45.8011617" lon="13.561295"><ele>7.666666666666666</ele><time>2026-04-30T09:59:28.074Z</time></trkpt><trkpt lat="45.8011483" lon="13.5615217"><ele>8.0</ele><time>2026-04-30T09:59:29.148Z</time></trkpt><trkpt lat="45.8011367" lon="13.5617633"><ele>8.0</ele><time>2026-04-30T09:59:30.086Z</time></trkpt><trkpt lat="45.8011233" lon="13.562025"><ele>8.0</ele><time>2026-04-30T09:59:31.026Z</time></trkpt><trkpt lat="45.8011067" lon="13.5622933"><ele>8.0</ele><time>2026-04-30T09:59:32.101Z</time></trkpt><trkpt lat="45.80109" lon="13.562565"><ele>8.333333333333332</ele><time>2026-04-30T09:59:33.107Z</time></trkpt><trkpt lat="45.80107" lon="13.5628433"><ele>8.666666666666666</ele><time>2026-04-30T09:59:34.113Z</time></trkpt><trkpt lat="45.80105" lon="13.563125"><ele>9.0</ele><time>2026-04-30T09:59:35.12Z</time></trkpt><trkpt lat="45.8010317" lon="13.56341"><ele>9.333333333333334</ele><time>2026-04-30T09:59:36.059Z</time></trkpt><trkpt lat="45.8010117" lon="13.5636917"><ele>9.666666666666668</ele><time>2026-04-30T09:59:37.133Z</time></trkpt><trkpt lat="45.8009933" lon="13.5639733"><ele>10.0</ele><time>2026-04-30T09:59:38.073Z</time></trkpt><trkpt lat="45.8009733" lon="13.5642533"><ele>8.0</ele><time>2026-04-30T09:59:39.147Z</time></trkpt><trkpt lat="45.8009533" lon="13.564535"><ele>6.0</ele><time>2026-04-30T09:59:40.087Z</time></trkpt><trkpt lat="45.8009367" lon="13.5648033"><ele>4.0</ele><time>2026-04-30T09:59:41.025Z</time></trkpt><trkpt lat="45.8009217" lon="13.5650617"><ele>4.0</ele><time>2026-04-30T09:59:42.099Z</time></trkpt><trkpt lat="45.800905" lon="13.5653083"><ele>4.0</ele><time>2026-04-30T09:59:43.105Z</time></trkpt><trkpt lat="45.8008867" lon="13.565555"><ele>4.0</ele><time>2026-04-30T09:59:44.112Z</time></trkpt><trkpt lat="45.8008717" lon="13.5657983"><ele>4.0</ele><time>2026-04-30T09:59:45.12Z</time></trkpt><trkpt lat="45.800855" lon="13.56604"><ele>4.0</ele><time>2026-04-30T09:59:46.058Z</time></trkpt><trkpt lat="45.80084" lon="13.566285"><ele>4.0</ele><time>2026-04-30T09:59:47.133Z</time></trkpt><trkpt lat="45.8008283" lon="13.5665317"><ele>4.0</ele><time>2026-04-30T09:59:48.072Z</time></trkpt><trkpt lat="45.800815" lon="13.5667767"><ele>4.0</ele><time>2026-04-30T09:59:49.145Z</time></trkpt><trkpt lat="45.800805" lon="13.5670217"><ele>4.0</ele><time>2026-04-30T09:59:50.086Z</time></trkpt><trkpt lat="45.8007933" lon="13.56727"><ele>4.666666666666666</ele><time>2026-04-30T09:59:51.091Z</time></trkpt><trkpt lat="45.80078" lon="13.5675183"><ele>5.333333333333333</ele><time>2026-04-30T09:59:52.098Z</time></trkpt><trkpt lat="45.8007633" lon="13.567765"><ele>6.0</ele><time>2026-04-30T09:59:53.106Z</time></trkpt><trkpt lat="45.8007483" lon="13.56802"><ele>6.0</ele><time>2026-04-30T09:59:54.045Z</time></trkpt><trkpt lat="45.8007333" lon="13.5682783"><ele>6.0</ele><time>2026-04-30T09:59:55.118Z</time></trkpt><trkpt lat="45.8007183" lon="13.5685417"><ele>6.0</ele><time>2026-04-30T09:59:56.057Z</time></trkpt><trkpt lat="45.8007" lon="13.568805"><ele>5.666666666666667</ele><time>2026-04-30T09:59:57.131Z</time></trkpt><trkpt lat="45.80068" lon="13.5690683"><ele>5.333333333333334</ele><time>2026-04-30T09:59:58.071Z</time></trkpt><trkpt lat="45.8006583" lon="13.5693367"><ele>5.0</ele><time>2026-04-30T09:59:59.078Z</time></trkpt><trkpt lat="45.80064" lon="13.5696033"><ele>5.0</ele><time>2026-04-30T10:00:00.084Z</time></trkpt><trkpt lat="45.8006233" lon="13.5698733"><ele>5.0</ele><time>2026-04-30T10:00:01.092Z</time></trkpt><trkpt lat="45.8006067" lon="13.5701417"><ele>5.0</ele><time>2026-04-30T10:00:02.097Z</time></trkpt><trkpt lat="45.8005917" lon="13.5704067"><ele>5.0</ele><time>2026-04-30T10:00:03.105Z</time></trkpt><trkpt lat="45.80058" lon="13.57067"><ele>5.0</ele><time>2026-04-30T10:00:04.043Z</time></trkpt><trkpt lat="45.800565" lon="13.57093"><ele>5.0</ele><time>2026-04-30T10:00:05.117Z</time></trkpt><trkpt lat="45.8005483" lon="13.5711867"><ele>5.333333333333334</ele><time>2026-04-30T10:00:06.057Z</time></trkpt><trkpt lat="45.8005283" lon="13.5714417"><ele>5.666666666666667</ele><time>2026-04-30T10:00:07.13Z</time></trkpt><trkpt lat="45.8005067" lon="13.5716933"><ele>6.0</ele><time>2026-04-30T10:00:08.071Z</time></trkpt><trkpt lat="45.8004767" lon="13.571945"><ele>6.333333333333334</ele><time>2026-04-30T10:00:09.077Z</time></trkpt><trkpt lat="45.8004417" lon="13.5721883"><ele>6.666666666666667</ele><time>2026-04-30T10:00:10.084Z</time></trkpt><trkpt lat="45.8004033" lon="13.57243"><ele>7.0</ele><time>2026-04-30T10:00:11.09Z</time></trkpt><trkpt lat="45.8003567" lon="13.572665"><ele>7.333333333333334</ele><time>2026-04-30T10:00:12.098Z</time></trkpt><trkpt lat="45.8003033" lon="13.572895"><ele>7.666666666666666</ele><time>2026-04-30T10:00:13.104Z</time></trkpt><trkpt lat="45.8002433" lon="13.57312"><ele>8.0</ele><time>2026-04-30T10:00:14.043Z</time></trkpt><trkpt lat="45.8001767" lon="13.5733417"><ele>6.666666666666666</ele><time>2026-04-30T10:00:15.116Z</time></trkpt><trkpt lat="45.8001067" lon="13.57356"><ele>5.333333333333333</ele><time>2026-04-30T10:00:16.057Z</time></trkpt><trkpt lat="45.8000333" lon="13.5737817"><ele>4.0</ele><time>2026-04-30T10:00:17.13Z</time></trkpt><trkpt lat="45.7999567" lon="13.5740033"><ele>4.0</ele><time>2026-04-30T10:00:18.069Z</time></trkpt><trkpt lat="45.79988" lon="13.5742267"><ele>4.0</ele><time>2026-04-30T10:00:19.076Z</time></trkpt><trkpt lat="45.7998017" lon="13.5744467"><ele>4.0</ele><time>2026-04-30T10:00:20.083Z</time></trkpt><trkpt lat="45.799725" lon="13.57467"><ele>7.0</ele><time>2026-04-30T10:00:21.089Z</time></trkpt><trkpt lat="45.7996483" lon="13.5748917"><ele>10.0</ele><time>2026-04-30T10:00:22.097Z</time></trkpt><trkpt lat="45.7995733" lon="13.57511"><ele>13.0</ele><time>2026-04-30T10:00:23.102Z</time></trkpt><trkpt lat="45.7994967" lon="13.5753267"><ele>13.333333333333332</ele><time>2026-04-30T10:00:24.042Z</time></trkpt><trkpt lat="45.79942" lon="13.575545"><ele>13.666666666666668</ele><time>2026-04-30T10:00:25.117Z</time></trkpt><trkpt lat="45.7993433" lon="13.5757633"><ele>14.0</ele><time>2026-04-30T10:00:26.055Z</time></trkpt><trkpt lat="45.7992683" lon="13.5759833"><ele>12.666666666666668</ele><time>2026-04-30T10:00:27.129Z</time></trkpt><trkpt lat="45.7991933" lon="13.5762"><ele>11.333333333333334</ele><time>2026-04-30T10:00:28.069Z</time></trkpt><trkpt lat="45.7991183" lon="13.5764183"><ele>10.0</ele><time>2026-04-30T10:00:29.076Z</time></trkpt><trkpt lat="45.7990433" lon="13.5766333"><ele>10.0</ele><time>2026-04-30T10:00:30.083Z</time></trkpt><trkpt lat="45.7989683" lon="13.57685"><ele>10.0</ele><time>2026-04-30T10:00:31.088Z</time></trkpt><trkpt lat="45.7988933" lon="13.5770667"><ele>10.0</ele><time>2026-04-30T10:00:32.095Z</time></trkpt><trkpt lat="45.7988183" lon="13.5772867"><ele>10.333333333333334</ele><time>2026-04-30T10:00:33.103Z</time></trkpt><trkpt lat="45.7987417" lon="13.57751"><ele>10.666666666666666</ele><time>2026-04-30T10:00:34.041Z</time></trkpt><trkpt lat="45.7986633" lon="13.577735"><ele>11.0</ele><time>2026-04-30T10:00:35.115Z</time></trkpt><trkpt lat="45.7985833" lon="13.5779617"><ele>12.666666666666666</ele><time>2026-04-30T10:00:36.055Z</time></trkpt><trkpt lat="45.7985017" lon="13.578185"><ele>14.333333333333332</ele><time>2026-04-30T10:00:37.128Z</time></trkpt><trkpt lat="45.7984183" lon="13.57841"><ele>16.0</ele><time>2026-04-30T10:00:38.068Z</time></trkpt><trkpt lat="45.7983367" lon="13.5786383"><ele>13.333333333333332</ele><time>2026-04-30T10:00:39.074Z</time></trkpt><trkpt lat="45.7982567" lon="13.5788683"><ele>10.666666666666666</ele><time>2026-04-30T10:00:40.082Z</time></trkpt><trkpt lat="45.7981767" lon="13.579095"><ele>8.0</ele><time>2026-04-30T10:00:41.088Z</time></trkpt><trkpt lat="45.7981" lon="13.57931"><ele>8.0</ele><time>2026-04-30T10:00:42.094Z</time></trkpt><trkpt lat="45.79802" lon="13.5795117"><ele>8.0</ele><time>2026-04-30T10:00:43.102Z</time></trkpt><trkpt lat="45.7979367" lon="13.5797017"><ele>8.0</ele><time>2026-04-30T10:00:44.041Z</time></trkpt><trkpt lat="45.7978483" lon="13.5798817"><ele>8.0</ele><time>2026-04-30T10:00:45.115Z</time></trkpt><trkpt lat="45.797755" lon="13.580055"><ele>8.0</ele><time>2026-04-30T10:00:46.055Z</time></trkpt><trkpt lat="45.7976567" lon="13.5802217"><ele>8.0</ele><time>2026-04-30T10:00:47.127Z</time></trkpt><trkpt lat="45.797555" lon="13.580385"><ele>8.0</ele><time>2026-04-30T10:00:48.067Z</time></trkpt><trkpt lat="45.79745" lon="13.5805433"><ele>8.0</ele><time>2026-04-30T10:00:49.074Z</time></trkpt><trkpt lat="45.79734" lon="13.5806967"><ele>8.0</ele><time>2026-04-30T10:00:50.081Z</time></trkpt><trkpt lat="45.7972267" lon="13.5808483"><ele>8.0</ele><time>2026-04-30T10:00:51.088Z</time></trkpt><trkpt lat="45.7971083" lon="13.58099"><ele>8.0</ele><time>2026-04-30T10:00:52.093Z</time></trkpt><trkpt lat="45.796995" lon="13.5811233"><ele>8.0</ele><time>2026-04-30T10:00:53.101Z</time></trkpt><trkpt lat="45.7968817" lon="13.5812467"><ele>8.0</ele><time>2026-04-30T10:00:54.04Z</time></trkpt><trkpt lat="45.7967733" lon="13.5813667"><ele>6.5</ele><time>2026-04-30T10:00:55.114Z</time></trkpt><trkpt lat="45.796665" lon="13.5814833"><ele>5.0</ele><time>2026-04-30T10:00:56.053Z</time></trkpt><trkpt lat="45.7965567" lon="13.581595"><ele>3.5</ele><time>2026-04-30T10:00:57.127Z</time></trkpt><trkpt lat="45.7964533" lon="13.5817017"><ele>2.0</ele><time>2026-04-30T10:00:58.066Z</time></trkpt><trkpt lat="45.79635" lon="13.5818033"><ele>2.0</ele><time>2026-04-30T10:00:59.073Z</time></trkpt><trkpt lat="45.7962483" lon="13.5819067"><ele>2.0</ele><time>2026-04-30T10:01:00.079Z</time></trkpt><trkpt lat="45.7961483" lon="13.5820117"><ele>2.0</ele><time>2026-04-30T10:01:01.087Z</time></trkpt><trkpt lat="45.7960517" lon="13.582115"><ele>2.0</ele><time>2026-04-30T10:01:02.093Z</time></trkpt><trkpt lat="45.7959533" lon="13.582215"><ele>1.75</ele><time>2026-04-30T10:01:03.099Z</time></trkpt><trkpt lat="45.7958533" lon="13.582315"><ele>1.5</ele><time>2026-04-30T10:01:04.039Z</time></trkpt><trkpt lat="45.7957533" lon="13.582415"><ele>1.25</ele><time>2026-04-30T10:01:05.113Z</time></trkpt><trkpt lat="45.7956517" lon="13.582515"><ele>1.0</ele><time>2026-04-30T10:01:06.053Z</time></trkpt><trkpt lat="45.7955483" lon="13.5826167"><ele>1.0</ele><time>2026-04-30T10:01:07.127Z</time></trkpt><trkpt lat="45.7954433" lon="13.58272"><ele>1.0</ele><time>2026-04-30T10:01:08.066Z</time></trkpt><trkpt lat="45.795335" lon="13.5828267"><ele>1.0</ele><time>2026-04-30T10:01:09.073Z</time></trkpt><trkpt lat="45.7952267" lon="13.582935"><ele>1.0</ele><time>2026-04-30T10:01:10.08Z</time></trkpt><trkpt lat="45.7951167" lon="13.583045"><ele>2.25</ele><time>2026-04-30T10:01:11.086Z</time></trkpt><trkpt lat="45.795005" lon="13.5831567"><ele>3.5</ele><time>2026-04-30T10:01:12.092Z</time></trkpt><trkpt lat="45.7948933" lon="13.5832683"><ele>4.75</ele><time>2026-04-30T10:01:13.099Z</time></trkpt><trkpt lat="45.794785" lon="13.5833767"><ele>6.0</ele><time>2026-04-30T10:01:14.038Z</time></trkpt><trkpt lat="45.794675" lon="13.58348"><ele>6.0</ele><time>2026-04-30T10:01:15.112Z</time></trkpt><trkpt lat="45.794565" lon="13.5835817"><ele>6.0</ele><time>2026-04-30T10:01:16.051Z</time></trkpt><trkpt lat="45.794455" lon="13.5836833"><ele>6.0</ele><time>2026-04-30T10:01:17.125Z</time></trkpt><trkpt lat="45.79435" lon="13.5837817"><ele>6.0</ele><time>2026-04-30T10:01:18.066Z</time></trkpt><trkpt lat="45.7942517" lon="13.5838767"><ele>6.0</ele><time>2026-04-30T10:01:19.071Z</time></trkpt><trkpt lat="45.7941567" lon="13.58397"><ele>6.0</ele><time>2026-04-30T10:01:20.078Z</time></trkpt><trkpt lat="45.79406" lon="13.5840633"><ele>6.0</ele><time>2026-04-30T10:01:21.085Z</time></trkpt><trkpt lat="45.7939617" lon="13.5841633"><ele>6.0</ele><time>2026-04-30T10:01:22.025Z</time></trkpt><trkpt lat="45.7938617" lon="13.584265"><ele>6.0</ele><time>2026-04-30T10:01:23.099Z</time></trkpt><trkpt lat="45.7937567" lon="13.5843717"><ele>6.0</ele><time>2026-04-30T10:01:24.037Z</time></trkpt><trkpt lat="45.7936517" lon="13.5844783"><ele>6.0</ele><time>2026-04-30T10:01:25.111Z</time></trkpt><trkpt lat="45.793545" lon="13.5845917"><ele>6.0</ele><time>2026-04-30T10:01:26.05Z</time></trkpt><trkpt lat="45.7934383" lon="13.58471"><ele>6.0</ele><time>2026-04-30T10:01:27.057Z</time></trkpt><trkpt lat="45.7933283" lon="13.5848333"><ele>6.0</ele><time>2026-04-30T10:01:28.065Z</time></trkpt><trkpt lat="45.7932167" lon="13.5849567"><ele>6.0</ele><time>2026-04-30T10:01:29.07Z</time></trkpt><trkpt lat="45.7931" lon="13.5850767"><ele>6.0</ele><time>2026-04-30T10:01:30.077Z</time></trkpt><trkpt lat="45.7929783" lon="13.585195"><ele>6.0</ele><time>2026-04-30T10:01:31.085Z</time></trkpt><trkpt lat="45.7928533" lon="13.585315"><ele>6.0</ele><time>2026-04-30T10:01:32.023Z</time></trkpt><trkpt lat="45.7927283" lon="13.58544"><ele>6.0</ele><time>2026-04-30T10:01:33.097Z</time></trkpt><trkpt lat="45.7926017" lon="13.5855667"><ele>6.333333333333334</ele><time>2026-04-30T10:01:34.037Z</time></trkpt><trkpt lat="45.7924733" lon="13.5856983"><ele>6.666666666666667</ele><time>2026-04-30T10:01:35.111Z</time></trkpt><trkpt lat="45.792345" lon="13.58583"><ele>7.0</ele><time>2026-04-30T10:01:36.051Z</time></trkpt><trkpt lat="45.79209" lon="13.586095"><ele>7.333333333333334</ele><time>2026-04-30T10:01:38.063Z</time></trkpt><trkpt lat="45.7919567" lon="13.5862283"><ele>7.666666666666666</ele><time>2026-04-30T10:01:39.07Z</time></trkpt><trkpt lat="45.7918267" lon="13.586365"><ele>8.0</ele><time>2026-04-30T10:01:40.144Z</time></trkpt><trkpt lat="45.7917017" lon="13.5865083"><ele>7.333333333333333</ele><time>2026-04-30T10:01:41.084Z</time></trkpt><trkpt lat="45.7915767" lon="13.5866533"><ele>6.666666666666666</ele><time>2026-04-30T10:01:42.022Z</time></trkpt><trkpt lat="45.7914533" lon="13.5868017"><ele>6.0</ele><time>2026-04-30T10:01:43.096Z</time></trkpt><trkpt lat="45.7913317" lon="13.5869533"><ele>6.0</ele><time>2026-04-30T10:01:44.037Z</time></trkpt><trkpt lat="45.791215" lon="13.58711"><ele>6.0</ele><time>2026-04-30T10:01:45.109Z</time></trkpt><trkpt lat="45.791105" lon="13.5872617"><ele>6.0</ele><time>2026-04-30T10:01:46.05Z</time></trkpt><trkpt lat="45.7910033" lon="13.587405"><ele>5.5</ele><time>2026-04-30T10:01:47.056Z</time></trkpt><trkpt lat="45.7909083" lon="13.5875417"><ele>5.0</ele><time>2026-04-30T10:01:48.129Z</time></trkpt><trkpt lat="45.790815" lon="13.587675"><ele>4.5</ele><time>2026-04-30T10:01:49.07Z</time></trkpt><trkpt lat="45.7907267" lon="13.58781"><ele>4.0</ele><time>2026-04-30T10:01:50.143Z</time></trkpt><trkpt lat="45.7906417" lon="13.587945"><ele>4.0</ele><time>2026-04-30T10:01:51.082Z</time></trkpt><trkpt lat="45.7905617" lon="13.5880717"><ele>4.0</ele><time>2026-04-30T10:01:52.022Z</time></trkpt><trkpt lat="45.7904867" lon="13.58819"><ele>4.0</ele><time>2026-04-30T10:01:53.095Z</time></trkpt><trkpt lat="45.790415" lon="13.5882983"><ele>4.0</ele><time>2026-04-30T10:01:54.036Z</time></trkpt><trkpt lat="45.7903433" lon="13.5884033"><ele>4.0</ele><time>2026-04-30T10:01:55.11Z</time></trkpt><trkpt lat="45.79027" lon="13.5885083"><ele>4.0</ele><time>2026-04-30T10:01:56.115Z</time></trkpt><trkpt lat="45.7901983" lon="13.5886133"><ele>4.0</ele><time>2026-04-30T10:01:57.055Z</time></trkpt><trkpt lat="45.790125" lon="13.588725"><ele>4.0</ele><time>2026-04-30T10:01:58.13Z</time></trkpt><trkpt lat="45.79005" lon="13.58884"><ele>4.0</ele><time>2026-04-30T10:01:59.068Z</time></trkpt><trkpt lat="45.7899733" lon="13.58896"><ele>4.0</ele><time>2026-04-30T10:02:00.143Z</time></trkpt><trkpt lat="45.7898917" lon="13.5890833"><ele>5.5</ele><time>2026-04-30T10:02:01.081Z</time></trkpt><trkpt lat="45.7898067" lon="13.5892117"><ele>7.0</ele><time>2026-04-30T10:02:02.022Z</time></trkpt><trkpt lat="45.7897217" lon="13.5893417"><ele>8.5</ele><time>2026-04-30T10:02:03.096Z</time></trkpt><trkpt lat="45.7896367" lon="13.5894717"><ele>10.0</ele><time>2026-04-30T10:02:04.102Z</time></trkpt><trkpt lat="45.7895567" lon="13.5895967"><ele>9.6</ele><time>2026-04-30T10:02:05.108Z</time></trkpt><trkpt lat="45.7894833" lon="13.589715"><ele>9.2</ele><time>2026-04-30T10:02:06.115Z</time></trkpt><trkpt lat="45.7894133" lon="13.5898217"><ele>8.8</ele><time>2026-04-30T10:02:07.055Z</time></trkpt><trkpt lat="45.7893433" lon="13.5899283"><ele>8.4</ele><time>2026-04-30T10:02:08.129Z</time></trkpt><trkpt lat="45.78927" lon="13.5900433"><ele>8.0</ele><time>2026-04-30T10:02:09.067Z</time></trkpt><trkpt lat="45.789195" lon="13.59016"><ele>8.0</ele><time>2026-04-30T10:02:10.141Z</time></trkpt><trkpt lat="45.7891133" lon="13.59028"><ele>8.0</ele><time>2026-04-30T10:02:11.082Z</time></trkpt><trkpt lat="45.7890267" lon="13.5904017"><ele>8.0</ele><time>2026-04-30T10:02:12.02Z</time></trkpt><trkpt lat="45.7889417" lon="13.5905283"><ele>8.0</ele><time>2026-04-30T10:02:13.095Z</time></trkpt><trkpt lat="45.78886" lon="13.5906583"><ele>8.75</ele><time>2026-04-30T10:02:14.101Z</time></trkpt><trkpt lat="45.7887767" lon="13.5907783"><ele>9.5</ele><time>2026-04-30T10:02:15.107Z</time></trkpt><trkpt lat="45.7886917" lon="13.5908867"><ele>10.25</ele><time>2026-04-30T10:02:16.114Z</time></trkpt><trkpt lat="45.788605" lon="13.590995"><ele>11.0</ele><time>2026-04-30T10:02:17.053Z</time></trkpt><trkpt lat="45.7885167" lon="13.5911083"><ele>9.75</ele><time>2026-04-30T10:02:18.128Z</time></trkpt><trkpt lat="45.7884283" lon="13.591225"><ele>8.5</ele><time>2026-04-30T10:02:19.066Z</time></trkpt><trkpt lat="45.7883383" lon="13.5913483"><ele>7.25</ele><time>2026-04-30T10:02:20.141Z</time></trkpt><trkpt lat="45.7882467" lon="13.591475"><ele>6.0</ele><time>2026-04-30T10:02:21.08Z</time></trkpt><trkpt lat="45.7881483" lon="13.5915967"><ele>6.0</ele><time>2026-04-30T10:02:22.086Z</time></trkpt><trkpt lat="45.7880467" lon="13.5917217"><ele>6.0</ele><time>2026-04-30T10:02:23.093Z</time></trkpt><trkpt lat="45.7879433" lon="13.59185"><ele>6.0</ele><time>2026-04-30T10:02:24.101Z</time></trkpt><trkpt lat="45.7878367" lon="13.59198"><ele>6.0</ele><time>2026-04-30T10:02:25.106Z</time></trkpt><trkpt lat="45.7877317" lon="13.5921133"><ele>6.75</ele><time>2026-04-30T10:02:26.114Z</time></trkpt><trkpt lat="45.7876267" lon="13.5922483"><ele>7.5</ele><time>2026-04-30T10:02:27.052Z</time></trkpt><trkpt lat="45.78752" lon="13.592385"><ele>8.25</ele><time>2026-04-30T10:02:28.126Z</time></trkpt><trkpt lat="45.78741" lon="13.5925183"><ele>9.0</ele><time>2026-04-30T10:02:29.066Z</time></trkpt><trkpt lat="45.7872983" lon="13.5926517"><ele>9.0</ele><time>2026-04-30T10:02:30.139Z</time></trkpt><trkpt lat="45.787185" lon="13.5927917"><ele>9.0</ele><time>2026-04-30T10:02:31.079Z</time></trkpt><trkpt lat="45.787075" lon="13.59294"><ele>9.0</ele><time>2026-04-30T10:02:32.087Z</time></trkpt><trkpt lat="45.7869617" lon="13.593085"><ele>9.5</ele><time>2026-04-30T10:02:33.092Z</time></trkpt><trkpt lat="45.7868533" lon="13.5932217"><ele>10.0</ele><time>2026-04-30T10:02:34.1Z</time></trkpt><trkpt lat="45.7867417" lon="13.59335"><ele>10.5</ele><time>2026-04-30T10:02:35.106Z</time></trkpt><trkpt lat="45.7866233" lon="13.59347"><ele>11.0</ele><time>2026-04-30T10:02:36.112Z</time></trkpt><trkpt lat="45.7865033" lon="13.5935667"><ele>11.0</ele><time>2026-04-30T10:02:37.052Z</time></trkpt><trkpt lat="45.7863817" lon="13.5936417"><ele>11.0</ele><time>2026-04-30T10:02:38.126Z</time></trkpt><trkpt lat="45.7862617" lon="13.5937017"><ele>11.0</ele><time>2026-04-30T10:02:39.066Z</time></trkpt><trkpt lat="45.786145" lon="13.5937467"><ele>11.0</ele><time>2026-04-30T10:02:40.139Z</time></trkpt><trkpt lat="45.785935" lon="13.5937917"><ele>12.600000000000001</ele><time>2026-04-30T10:02:42.086Z</time></trkpt><trkpt lat="45.78583" lon="13.5937983"><ele>14.2</ele><time>2026-04-30T10:02:43.092Z</time></trkpt><trkpt lat="45.78573" lon="13.5938067"><ele>15.799999999999999</ele><time>2026-04-30T10:02:44.098Z</time></trkpt><trkpt lat="45.7856367" lon="13.5938233"><ele>17.4</ele><time>2026-04-30T10:02:45.105Z</time></trkpt><trkpt lat="45.7855367" lon="13.5938533"><ele>19.0</ele><time>2026-04-30T10:02:46.111Z</time></trkpt><trkpt lat="45.7854317" lon="13.5939033"><ele>19.0</ele><time>2026-04-30T10:02:47.051Z</time></trkpt><trkpt lat="45.785325" lon="13.593975"><ele>19.0</ele><time>2026-04-30T10:02:48.126Z</time></trkpt><trkpt lat="45.7852283" lon="13.594055"><ele>19.0</ele><time>2026-04-30T10:02:49.064Z</time></trkpt><trkpt lat="45.7851417" lon="13.5941467"><ele>19.0</ele><time>2026-04-30T10:02:50.072Z</time></trkpt><trkpt lat="45.7850617" lon="13.594245"><ele>19.0</ele><time>2026-04-30T10:02:51.078Z</time></trkpt><trkpt lat="45.7849917" lon="13.59436"><ele>19.0</ele><time>2026-04-30T10:02:52.085Z</time></trkpt><trkpt lat="45.7849317" lon="13.5944833"><ele>19.0</ele><time>2026-04-30T10:02:53.092Z</time></trkpt><trkpt lat="45.7848767" lon="13.5946167"><ele>19.0</ele><time>2026-04-30T10:02:54.097Z</time></trkpt><trkpt lat="45.78482" lon="13.5947517"><ele>19.0</ele><time>2026-04-30T10:02:55.038Z</time></trkpt><trkpt lat="45.7847617" lon="13.59489"><ele>19.0</ele><time>2026-04-30T10:02:56.112Z</time></trkpt><trkpt lat="45.7847033" lon="13.5950317"><ele>19.5</ele><time>2026-04-30T10:02:57.05Z</time></trkpt><trkpt lat="45.78464" lon="13.59518"><ele>20.0</ele><time>2026-04-30T10:02:58.124Z</time></trkpt><trkpt lat="45.784575" lon="13.5953317"><ele>20.5</ele><time>2026-04-30T10:02:59.064Z</time></trkpt><trkpt lat="45.7845083" lon="13.5954883"><ele>21.0</ele><time>2026-04-30T10:03:00.07Z</time></trkpt><trkpt lat="45.7844383" lon="13.5956467"><ele>21.5</ele><time>2026-04-30T10:03:01.078Z</time></trkpt><trkpt lat="45.784365" lon="13.59581"><ele>22.0</ele><time>2026-04-30T10:03:02.083Z</time></trkpt><trkpt lat="45.7842867" lon="13.59597"><ele>22.5</ele><time>2026-04-30T10:03:03.09Z</time></trkpt><trkpt lat="45.7841967" lon="13.596125"><ele>23.0</ele><time>2026-04-30T10:03:04.097Z</time></trkpt><trkpt lat="45.7840967" lon="13.5962667"><ele>23.0</ele><time>2026-04-30T10:03:05.037Z</time></trkpt><trkpt lat="45.7839883" lon="13.5963983"><ele>23.0</ele><time>2026-04-30T10:03:06.11Z</time></trkpt><trkpt lat="45.7838717" lon="13.5965117"><ele>23.0</ele><time>2026-04-30T10:03:07.049Z</time></trkpt><trkpt lat="45.783745" lon="13.5966133"><ele>23.0</ele><time>2026-04-30T10:03:08.123Z</time></trkpt><trkpt lat="45.7836083" lon="13.5967"><ele>23.0</ele><time>2026-04-30T10:03:09.063Z</time></trkpt><trkpt lat="45.7834683" lon="13.5967717"><ele>23.0</ele><time>2026-04-30T10:03:10.07Z</time></trkpt><trkpt lat="45.783325" lon="13.59682"><ele>23.0</ele><time>2026-04-30T10:03:11.076Z</time></trkpt><trkpt lat="45.7831833" lon="13.59685"><ele>23.0</ele><time>2026-04-30T10:03:12.082Z</time></trkpt><trkpt lat="45.7830433" lon="13.596865"><ele>23.0</ele><time>2026-04-30T10:03:13.089Z</time></trkpt><trkpt lat="45.7829033" lon="13.5968717"><ele>23.0</ele><time>2026-04-30T10:03:14.097Z</time></trkpt><trkpt lat="45.7827617" lon="13.5968817"><ele>23.0</ele><time>2026-04-30T10:03:15.036Z</time></trkpt><trkpt lat="45.78262" lon="13.59689"><ele>23.0</ele><time>2026-04-30T10:03:16.11Z</time></trkpt><trkpt lat="45.7824767" lon="13.5968983"><ele>22.5</ele><time>2026-04-30T10:03:17.05Z</time></trkpt><trkpt lat="45.7823317" lon="13.5969067"><ele>22.0</ele><time>2026-04-30T10:03:18.123Z</time></trkpt><trkpt lat="45.782185" lon="13.5969133"><ele>21.5</ele><time>2026-04-30T10:03:19.062Z</time></trkpt><trkpt lat="45.7820417" lon="13.5969217"><ele>21.0</ele><time>2026-04-30T10:03:20.069Z</time></trkpt><trkpt lat="45.7818983" lon="13.5969267"><ele>21.25</ele><time>2026-04-30T10:03:21.075Z</time></trkpt><trkpt lat="45.781755" lon="13.59693"><ele>21.5</ele><time>2026-04-30T10:03:22.082Z</time></trkpt><trkpt lat="45.7816117" lon="13.596935"><ele>21.75</ele><time>2026-04-30T10:03:23.089Z</time></trkpt><trkpt lat="45.7814683" lon="13.5969417"><ele>22.0</ele><time>2026-04-30T10:03:24.096Z</time></trkpt><trkpt lat="45.7813283" lon="13.596945"><ele>22.0</ele><time>2026-04-30T10:03:25.036Z</time></trkpt><trkpt lat="45.7811867" lon="13.59695"><ele>22.0</ele><time>2026-04-30T10:03:26.109Z</time></trkpt><trkpt lat="45.781045" lon="13.596955"><ele>22.0</ele><time>2026-04-30T10:03:27.048Z</time></trkpt><trkpt lat="45.7809033" lon="13.5969633"><ele>22.0</ele><time>2026-04-30T10:03:28.122Z</time></trkpt><trkpt lat="45.7807667" lon="13.5969767"><ele>24.5</ele><time>2026-04-30T10:03:29.062Z</time></trkpt><trkpt lat="45.7806383" lon="13.5970033"><ele>27.0</ele><time>2026-04-30T10:03:30.069Z</time></trkpt><trkpt lat="45.780515" lon="13.5970517"><ele>29.5</ele><time>2026-04-30T10:03:31.074Z</time></trkpt><trkpt lat="45.7803983" lon="13.5971233"><ele>32.0</ele><time>2026-04-30T10:03:32.082Z</time></trkpt><trkpt lat="45.7802867" lon="13.5972117"><ele>31.8</ele><time>2026-04-30T10:03:33.088Z</time></trkpt><trkpt lat="45.7801817" lon="13.5973067"><ele>31.6</ele><time>2026-04-30T10:03:34.095Z</time></trkpt><trkpt lat="45.7800883" lon="13.5974"><ele>31.400000000000002</ele><time>2026-04-30T10:03:35.034Z</time></trkpt><trkpt lat="45.7800033" lon="13.59749"><ele>31.200000000000003</ele><time>2026-04-30T10:03:36.107Z</time></trkpt><trkpt lat="45.7799267" lon="13.5975733"><ele>31.0</ele><time>2026-04-30T10:03:37.047Z</time></trkpt><trkpt lat="45.779855" lon="13.5976583"><ele>31.0</ele><time>2026-04-30T10:03:38.122Z</time></trkpt><trkpt lat="45.7797783" lon="13.59775"><ele>31.0</ele><time>2026-04-30T10:03:39.06Z</time></trkpt><trkpt lat="45.779695" lon="13.5978483"><ele>31.0</ele><time>2026-04-30T10:03:40.067Z</time></trkpt><trkpt lat="45.779605" lon="13.5979483"><ele>31.0</ele><time>2026-04-30T10:03:41.074Z</time></trkpt><trkpt lat="45.7795083" lon="13.5980533"><ele>31.0</ele><time>2026-04-30T10:03:42.08Z</time></trkpt><trkpt lat="45.7794083" lon="13.5981667"><ele>30.75</ele><time>2026-04-30T10:03:43.087Z</time></trkpt><trkpt lat="45.779305" lon="13.598295"><ele>30.5</ele><time>2026-04-30T10:03:44.093Z</time></trkpt><trkpt lat="45.7791917" lon="13.5984317"><ele>30.25</ele><time>2026-04-30T10:03:45.033Z</time></trkpt><trkpt lat="45.7790683" lon="13.5985783"><ele>30.0</ele><time>2026-04-30T10:03:46.107Z</time></trkpt><trkpt lat="45.7789367" lon="13.59873"><ele>31.333333333333336</ele><time>2026-04-30T10:03:47.047Z</time></trkpt><trkpt lat="45.7788017" lon="13.5988817"><ele>32.66666666666667</ele><time>2026-04-30T10:03:48.12Z</time></trkpt><trkpt lat="45.7786633" lon="13.5990383"><ele>34.0</ele><time>2026-04-30T10:03:49.06Z</time></trkpt><trkpt lat="45.7785217" lon="13.5992"><ele>35.333333333333336</ele><time>2026-04-30T10:03:50.066Z</time></trkpt><trkpt lat="45.778375" lon="13.599365"><ele>36.666666666666664</ele><time>2026-04-30T10:03:51.073Z</time></trkpt><trkpt lat="45.77823" lon="13.599535"><ele>38.0</ele><time>2026-04-30T10:03:52.08Z</time></trkpt><trkpt lat="45.7780833" lon="13.5997067"><ele>38.33333333333333</ele><time>2026-04-30T10:03:53.153Z</time></trkpt><trkpt lat="45.77794" lon="13.5998767"><ele>38.666666666666664</ele><time>2026-04-30T10:03:54.093Z</time></trkpt><trkpt lat="45.777795" lon="13.6000383"><ele>39.0</ele><time>2026-04-30T10:03:55.032Z</time></trkpt><trkpt lat="45.77766" lon="13.6001917"><ele>39.0</ele><time>2026-04-30T10:03:56.106Z</time></trkpt><trkpt lat="45.77753" lon="13.6003383"><ele>39.0</ele><time>2026-04-30T10:03:57.045Z</time></trkpt><trkpt lat="45.777405" lon="13.6004817"><ele>39.0</ele><time>2026-04-30T10:03:58.119Z</time></trkpt><trkpt lat="45.7772867" lon="13.600635"><ele>39.0</ele><time>2026-04-30T10:03:59.06Z</time></trkpt><trkpt lat="45.7771767" lon="13.6008033"><ele>39.0</ele><time>2026-04-30T10:04:00.065Z</time></trkpt><trkpt lat="45.7770733" lon="13.60099"><ele>39.0</ele><time>2026-04-30T10:04:01.073Z</time></trkpt><trkpt lat="45.7769783" lon="13.601195"><ele>37.666666666666664</ele><time>2026-04-30T10:04:02.079Z</time></trkpt><trkpt lat="45.7768917" lon="13.6014117"><ele>36.33333333333333</ele><time>2026-04-30T10:04:03.152Z</time></trkpt><trkpt lat="45.7768083" lon="13.6016383"><ele>35.0</ele><time>2026-04-30T10:04:04.093Z</time></trkpt><trkpt lat="45.7767333" lon="13.6018567"><ele>34.666666666666664</ele><time>2026-04-30T10:04:05.032Z</time></trkpt><trkpt lat="45.7766617" lon="13.6020683"><ele>34.333333333333336</ele><time>2026-04-30T10:04:06.105Z</time></trkpt><trkpt lat="45.7765933" lon="13.6022733"><ele>34.0</ele><time>2026-04-30T10:04:07.046Z</time></trkpt><trkpt lat="45.77653" lon="13.60247"><ele>34.0</ele><time>2026-04-30T10:04:08.118Z</time></trkpt><trkpt lat="45.7764683" lon="13.6026533"><ele>34.0</ele><time>2026-04-30T10:04:09.058Z</time></trkpt><trkpt lat="45.7764083" lon="13.6028367"><ele>34.0</ele><time>2026-04-30T10:04:10.066Z</time></trkpt><trkpt lat="45.7763483" lon="13.6030233"><ele>34.0</ele><time>2026-04-30T10:04:11.139Z</time></trkpt><trkpt lat="45.77629" lon="13.603215"><ele>35.0</ele><time>2026-04-30T10:04:12.079Z</time></trkpt><trkpt lat="45.7762283" lon="13.603405"><ele>36.0</ele><time>2026-04-30T10:04:13.152Z</time></trkpt><trkpt lat="45.7761667" lon="13.603595"><ele>37.0</ele><time>2026-04-30T10:04:14.092Z</time></trkpt><trkpt lat="45.776105" lon="13.6037817"><ele>38.0</ele><time>2026-04-30T10:04:15.032Z</time></trkpt><trkpt lat="45.776045" lon="13.6039717"><ele>38.0</ele><time>2026-04-30T10:04:16.105Z</time></trkpt><trkpt lat="45.775985" lon="13.60416"><ele>38.0</ele><time>2026-04-30T10:04:17.044Z</time></trkpt><trkpt lat="45.77592" lon="13.6043517"><ele>38.0</ele><time>2026-04-30T10:04:18.118Z</time></trkpt><trkpt lat="45.7758567" lon="13.6045467"><ele>38.0</ele><time>2026-04-30T10:04:19.125Z</time></trkpt><trkpt lat="45.7757933" lon="13.6047483"><ele>39.0</ele><time>2026-04-30T10:04:20.064Z</time></trkpt><trkpt lat="45.7757317" lon="13.6049517"><ele>40.0</ele><time>2026-04-30T10:04:21.138Z</time></trkpt><trkpt lat="45.7756683" lon="13.6051633"><ele>41.0</ele><time>2026-04-30T10:04:22.077Z</time></trkpt><trkpt lat="45.7756" lon="13.6053717"><ele>42.0</ele><time>2026-04-30T10:04:23.017Z</time></trkpt><trkpt lat="45.7755317" lon="13.6055767"><ele>43.0</ele><time>2026-04-30T10:04:24.09Z</time></trkpt><trkpt lat="45.7754667" lon="13.6057817"><ele>44.0</ele><time>2026-04-30T10:04:25.031Z</time></trkpt><trkpt lat="45.7754033" lon="13.6059817"><ele>44.5</ele><time>2026-04-30T10:04:26.104Z</time></trkpt><trkpt lat="45.775345" lon="13.6061683"><ele>45.0</ele><time>2026-04-30T10:04:27.111Z</time></trkpt><trkpt lat="45.77529" lon="13.6063533"><ele>45.5</ele><time>2026-04-30T10:04:28.051Z</time></trkpt><trkpt lat="45.7752333" lon="13.6065433"><ele>46.0</ele><time>2026-04-30T10:04:29.123Z</time></trkpt><trkpt lat="45.7751733" lon="13.606735"><ele>46.0</ele><time>2026-04-30T10:04:30.063Z</time></trkpt><trkpt lat="45.775115" lon="13.6069317"><ele>46.0</ele><time>2026-04-30T10:04:31.137Z</time></trkpt><trkpt lat="45.7750567" lon="13.6071183"><ele>46.0</ele><time>2026-04-30T10:04:32.077Z</time></trkpt><trkpt lat="45.775005" lon="13.6072917"><ele>46.0</ele><time>2026-04-30T10:04:33.016Z</time></trkpt><trkpt lat="45.7749517" lon="13.6074467"><ele>46.5</ele><time>2026-04-30T10:04:34.09Z</time></trkpt><trkpt lat="45.7749017" lon="13.6076067"><ele>47.0</ele><time>2026-04-30T10:04:35.097Z</time></trkpt><trkpt lat="45.7748517" lon="13.6077717"><ele>47.5</ele><time>2026-04-30T10:04:36.103Z</time></trkpt><trkpt lat="45.7748" lon="13.6079367"><ele>48.0</ele><time>2026-04-30T10:04:37.11Z</time></trkpt><trkpt lat="45.77475" lon="13.6081"><ele>48.0</ele><time>2026-04-30T10:04:38.05Z</time></trkpt><trkpt lat="45.7747033" lon="13.6082617"><ele>48.0</ele><time>2026-04-30T10:04:39.124Z</time></trkpt><trkpt lat="45.774655" lon="13.608415"><ele>48.0</ele><time>2026-04-30T10:04:40.062Z</time></trkpt><trkpt lat="45.774615" lon="13.6085517"><ele>48.0</ele><time>2026-04-30T10:04:41.136Z</time></trkpt><trkpt lat="45.7745817" lon="13.6086683"><ele>48.0</ele><time>2026-04-30T10:04:42.075Z</time></trkpt><trkpt lat="45.7745583" lon="13.608765"><ele>48.4</ele><time>2026-04-30T10:04:43.016Z</time></trkpt><trkpt lat="45.7745333" lon="13.6088817"><ele>48.8</ele><time>2026-04-30T10:04:45.096Z</time></trkpt><trkpt lat="45.7745067" lon="13.60908"><ele>49.2</ele><time>2026-04-30T10:05:01.135Z</time></trkpt><trkpt lat="45.7745017" lon="13.6091867"><ele>49.6</ele><time>2026-04-30T10:05:02.074Z</time></trkpt><trkpt lat="45.7744983" lon="13.6093217"><ele>50.0</ele><time>2026-04-30T10:05:03.081Z</time></trkpt><trkpt lat="45.7745" lon="13.6094867"><ele>50.66666666666667</ele><time>2026-04-30T10:05:04.087Z</time></trkpt><trkpt lat="45.7745133" lon="13.609685"><ele>51.33333333333333</ele><time>2026-04-30T10:05:05.094Z</time></trkpt><trkpt lat="45.7745483" lon="13.6099167"><ele>52.0</ele><time>2026-04-30T10:05:06.101Z</time></trkpt><trkpt lat="45.7746017" lon="13.6101683"><ele>53.666666666666664</ele><time>2026-04-30T10:05:07.108Z</time></trkpt><trkpt lat="45.77466" lon="13.6104467"><ele>55.33333333333333</ele><time>2026-04-30T10:05:08.047Z</time></trkpt><trkpt lat="45.774715" lon="13.6107233"><ele>57.0</ele><time>2026-04-30T10:05:09.121Z</time></trkpt><trkpt lat="45.7747617" lon="13.6109917"><ele>56.66666666666667</ele><time>2026-04-30T10:05:10.06Z</time></trkpt><trkpt lat="45.7748017" lon="13.61124"><ele>56.333333333333336</ele><time>2026-04-30T10:05:11.134Z</time></trkpt><trkpt lat="45.7748283" lon="13.6114783"><ele>56.0</ele><time>2026-04-30T10:05:12.073Z</time></trkpt><trkpt lat="45.774835" lon="13.61171"><ele>56.0</ele><time>2026-04-30T10:05:13.08Z</time></trkpt><trkpt lat="45.7748183" lon="13.6119433"><ele>56.0</ele><time>2026-04-30T10:05:14.086Z</time></trkpt><trkpt lat="45.7747983" lon="13.6121817"><ele>56.0</ele><time>2026-04-30T10:05:15.093Z</time></trkpt><trkpt lat="45.7747783" lon="13.6124283"><ele>56.333333333333336</ele><time>2026-04-30T10:05:16.1Z</time></trkpt><trkpt lat="45.774755" lon="13.6126817"><ele>56.66666666666667</ele><time>2026-04-30T10:05:17.107Z</time></trkpt><trkpt lat="45.7747367" lon="13.6129433"><ele>57.0</ele><time>2026-04-30T10:05:18.046Z</time></trkpt><trkpt lat="45.7747167" lon="13.6132067"><ele>57.33333333333333</ele><time>2026-04-30T10:05:19.12Z</time></trkpt><trkpt lat="45.774695" lon="13.613475"><ele>57.666666666666664</ele><time>2026-04-30T10:05:20.059Z</time></trkpt><trkpt lat="45.7746717" lon="13.613745"><ele>58.0</ele><time>2026-04-30T10:05:21.133Z</time></trkpt><trkpt lat="45.774645" lon="13.61401"><ele>58.666666666666664</ele><time>2026-04-30T10:05:22.072Z</time></trkpt><trkpt lat="45.774605" lon="13.6142683"><ele>59.33333333333333</ele><time>2026-04-30T10:05:23.079Z</time></trkpt><trkpt lat="45.774545" lon="13.6145183"><ele>60.0</ele><time>2026-04-30T10:05:24.087Z</time></trkpt><trkpt lat="45.7744733" lon="13.6147633"><ele>60.0</ele><time>2026-04-30T10:05:25.093Z</time></trkpt><trkpt lat="45.7743933" lon="13.6150067"><ele>60.0</ele><time>2026-04-30T10:05:26.1Z</time></trkpt><trkpt lat="45.77431" lon="13.615245"><ele>60.0</ele><time>2026-04-30T10:05:27.106Z</time></trkpt><trkpt lat="45.7742233" lon="13.6154817"><ele>60.66666666666667</ele><time>2026-04-30T10:05:28.045Z</time></trkpt><trkpt lat="45.7741333" lon="13.61571"><ele>61.333333333333336</ele><time>2026-04-30T10:05:29.12Z</time></trkpt><trkpt lat="45.7740433" lon="13.6159283"><ele>62.0</ele><time>2026-04-30T10:05:30.059Z</time></trkpt><trkpt lat="45.77396" lon="13.616135"><ele>61.333333333333336</ele><time>2026-04-30T10:05:31.132Z</time></trkpt><trkpt lat="45.77388" lon="13.616335"><ele>60.66666666666667</ele><time>2026-04-30T10:05:32.073Z</time></trkpt><trkpt lat="45.7738017" lon="13.6165367"><ele>60.0</ele><time>2026-04-30T10:05:33.079Z</time></trkpt><trkpt lat="45.773725" lon="13.61674"><ele>60.0</ele><time>2026-04-30T10:05:34.086Z</time></trkpt><trkpt lat="45.7736583" lon="13.6169483"><ele>60.0</ele><time>2026-04-30T10:05:35.092Z</time></trkpt><trkpt lat="45.7736017" lon="13.6171633"><ele>60.0</ele><time>2026-04-30T10:05:36.099Z</time></trkpt><trkpt lat="45.7735617" lon="13.6173833"><ele>59.0</ele><time>2026-04-30T10:05:37.106Z</time></trkpt><trkpt lat="45.7735367" lon="13.61761"><ele>58.0</ele><time>2026-04-30T10:05:38.044Z</time></trkpt><trkpt lat="45.7735317" lon="13.6178483"><ele>57.0</ele><time>2026-04-30T10:05:39.119Z</time></trkpt><trkpt lat="45.7735283" lon="13.6180933"><ele>57.0</ele><time>2026-04-30T10:05:40.059Z</time></trkpt><trkpt lat="45.7735117" lon="13.6183417"><ele>57.0</ele><time>2026-04-30T10:05:41.131Z</time></trkpt><trkpt lat="45.7734867" lon="13.618575"><ele>57.0</ele><time>2026-04-30T10:05:42.068Z</time></trkpt><trkpt lat="45.773465" lon="13.6187917"><ele>57.0</ele><time>2026-04-30T10:05:43.078Z</time></trkpt><trkpt lat="45.773445" lon="13.6189967"><ele>57.0</ele><time>2026-04-30T10:05:44.085Z</time></trkpt><trkpt lat="45.7734267" lon="13.6191933"><ele>57.0</ele><time>2026-04-30T10:05:45.091Z</time></trkpt><trkpt lat="45.77341" lon="13.61939"><ele>57.0</ele><time>2026-04-30T10:05:46.097Z</time></trkpt><trkpt lat="45.773395" lon="13.6195867"><ele>58.0</ele><time>2026-04-30T10:05:47.104Z</time></trkpt><trkpt lat="45.7733783" lon="13.61979"><ele>59.0</ele><time>2026-04-30T10:05:48.044Z</time></trkpt><trkpt lat="45.7733633" lon="13.6199967"><ele>60.0</ele><time>2026-04-30T10:05:49.117Z</time></trkpt><trkpt lat="45.7733517" lon="13.62021"><ele>61.0</ele><time>2026-04-30T10:05:50.058Z</time></trkpt><trkpt lat="45.77334" lon="13.6204267"><ele>61.0</ele><time>2026-04-30T10:05:51.064Z</time></trkpt><trkpt lat="45.7733283" lon="13.620645"><ele>61.0</ele><time>2026-04-30T10:05:52.071Z</time></trkpt><trkpt lat="45.7733183" lon="13.62085"><ele>61.0</ele><time>2026-04-30T10:05:53.077Z</time></trkpt><trkpt lat="45.773305" lon="13.6210367"><ele>61.0</ele><time>2026-04-30T10:05:54.083Z</time></trkpt><trkpt lat="45.773295" lon="13.6211983"><ele>61.0</ele><time>2026-04-30T10:05:55.091Z</time></trkpt><trkpt lat="45.773285" lon="13.6213583"><ele>60.99999999999999</ele><time>2026-04-30T10:05:56.029Z</time></trkpt><trkpt lat="45.77327" lon="13.6215133"><ele>60.99999999999999</ele><time>2026-04-30T10:05:57.104Z</time></trkpt><trkpt lat="45.773255" lon="13.6216617"><ele>61.0</ele><time>2026-04-30T10:05:58.043Z</time></trkpt><trkpt lat="45.77324" lon="13.6218017"><ele>61.0</ele><time>2026-04-30T10:05:59.117Z</time></trkpt><trkpt lat="45.7732233" lon="13.6219367"><ele>60.666666666666664</ele><time>2026-04-30T10:06:00.056Z</time></trkpt><trkpt lat="45.7732067" lon="13.6220583"><ele>60.33333333333333</ele><time>2026-04-30T10:06:01.063Z</time></trkpt><trkpt lat="45.7731933" lon="13.6221733"><ele>60.0</ele><time>2026-04-30T10:06:02.069Z</time></trkpt><trkpt lat="45.7731817" lon="13.622285"><ele>59.66666666666667</ele><time>2026-04-30T10:06:03.077Z</time></trkpt><trkpt lat="45.7731717" lon="13.6223917"><ele>59.333333333333336</ele><time>2026-04-30T10:06:04.084Z</time></trkpt><trkpt lat="45.77316" lon="13.6225083"><ele>59.0</ele><time>2026-04-30T10:06:05.09Z</time></trkpt><trkpt lat="45.7731517" lon="13.62263"><ele>59.00000000000001</ele><time>2026-04-30T10:06:06.03Z</time></trkpt><trkpt lat="45.7731417" lon="13.6227483"><ele>59.0</ele><time>2026-04-30T10:06:07.102Z</time></trkpt><trkpt lat="45.7731333" lon="13.6228583"><ele>59.0</ele><time>2026-04-30T10:06:08.042Z</time></trkpt><trkpt lat="45.7731267" lon="13.622965"><ele>59.0</ele><time>2026-04-30T10:06:09.116Z</time></trkpt><trkpt lat="45.7731217" lon="13.6230667"><ele>59.00000000000001</ele><time>2026-04-30T10:06:10.055Z</time></trkpt><trkpt lat="45.773115" lon="13.6231767"><ele>59.0</ele><time>2026-04-30T10:06:11.062Z</time></trkpt><trkpt lat="45.773105" lon="13.6233"><ele>59.333333333333336</ele><time>2026-04-30T10:06:12.069Z</time></trkpt><trkpt lat="45.7730917" lon="13.62343"><ele>59.66666666666667</ele><time>2026-04-30T10:06:13.075Z</time></trkpt><trkpt lat="45.7730767" lon="13.6235617"><ele>60.0</ele><time>2026-04-30T10:06:14.083Z</time></trkpt><trkpt lat="45.773065" lon="13.6236783"><ele>60.33333333333333</ele><time>2026-04-30T10:06:15.089Z</time></trkpt><trkpt lat="45.773055" lon="13.6237867"><ele>60.666666666666664</ele><time>2026-04-30T10:06:16.028Z</time></trkpt><trkpt lat="45.773045" lon="13.6238883"><ele>61.0</ele><time>2026-04-30T10:06:17.103Z</time></trkpt><trkpt lat="45.773035" lon="13.6239833"><ele>61.166666666666664</ele><time>2026-04-30T10:06:18.041Z</time></trkpt><trkpt lat="45.7730183" lon="13.6241517"><ele>61.33333333333333</ele><time>2026-04-30T10:06:20.054Z</time></trkpt><trkpt lat="45.7729933" lon="13.62432"><ele>61.5</ele><time>2026-04-30T10:06:22.069Z</time></trkpt><trkpt lat="45.7729817" lon="13.6244117"><ele>61.66666666666667</ele><time>2026-04-30T10:06:23.075Z</time></trkpt><trkpt lat="45.7729683" lon="13.62451"><ele>61.833333333333336</ele><time>2026-04-30T10:06:24.148Z</time></trkpt><trkpt lat="45.772955" lon="13.6246133"><ele>62.0</ele><time>2026-04-30T10:06:25.089Z</time></trkpt><trkpt lat="45.7729417" lon="13.6247283"><ele>62.0</ele><time>2026-04-30T10:06:26.027Z</time></trkpt><trkpt lat="45.77293" lon="13.6248517"><ele>62.0</ele><time>2026-04-30T10:06:27.101Z</time></trkpt><trkpt lat="45.77292" lon="13.62499"><ele>62.0</ele><time>2026-04-30T10:06:28.04Z</time></trkpt><trkpt lat="45.7729017" lon="13.6251417"><ele>62.0</ele><time>2026-04-30T10:06:29.114Z</time></trkpt><trkpt lat="45.772885" lon="13.6253067"><ele>62.0</ele><time>2026-04-30T10:06:30.054Z</time></trkpt><trkpt lat="45.7728633" lon="13.6254817"><ele>61.75</ele><time>2026-04-30T10:06:31.06Z</time></trkpt><trkpt lat="45.7728383" lon="13.6256717"><ele>61.5</ele><time>2026-04-30T10:06:32.068Z</time></trkpt><trkpt lat="45.7728133" lon="13.62588"><ele>61.25</ele><time>2026-04-30T10:06:33.074Z</time></trkpt><trkpt lat="45.7727867" lon="13.6261033"><ele>61.0</ele><time>2026-04-30T10:06:34.147Z</time></trkpt><trkpt lat="45.7727617" lon="13.62635"><ele>59.666666666666664</ele><time>2026-04-30T10:06:35.087Z</time></trkpt><trkpt lat="45.7727517" lon="13.6266083"><ele>58.33333333333333</ele><time>2026-04-30T10:06:36.026Z</time></trkpt><trkpt lat="45.7727533" lon="13.6268783"><ele>57.0</ele><time>2026-04-30T10:06:37.1Z</time></trkpt><trkpt lat="45.7727683" lon="13.6271467"><ele>56.33333333333333</ele><time>2026-04-30T10:06:38.04Z</time></trkpt><trkpt lat="45.7727917" lon="13.627405"><ele>55.666666666666664</ele><time>2026-04-30T10:06:39.113Z</time></trkpt><trkpt lat="45.772825" lon="13.62765"><ele>55.0</ele><time>2026-04-30T10:06:40.053Z</time></trkpt><trkpt lat="45.7728583" lon="13.6278817"><ele>56.33333333333333</ele><time>2026-04-30T10:06:41.059Z</time></trkpt><trkpt lat="45.772895" lon="13.6281117"><ele>57.66666666666667</ele><time>2026-04-30T10:06:42.134Z</time></trkpt><trkpt lat="45.7729333" lon="13.62834"><ele>59.0</ele><time>2026-04-30T10:06:43.073Z</time></trkpt><trkpt lat="45.77297" lon="13.62857"><ele>60.333333333333336</ele><time>2026-04-30T10:06:44.148Z</time></trkpt><trkpt lat="45.773005" lon="13.62881"><ele>61.66666666666667</ele><time>2026-04-30T10:06:45.086Z</time></trkpt><trkpt lat="45.7730383" lon="13.6290517"><ele>63.0</ele><time>2026-04-30T10:06:46.027Z</time></trkpt><trkpt lat="45.7730733" lon="13.6292967"><ele>63.66666666666667</ele><time>2026-04-30T10:06:47.1Z</time></trkpt><trkpt lat="45.77311" lon="13.6295417"><ele>64.33333333333334</ele><time>2026-04-30T10:06:48.04Z</time></trkpt><trkpt lat="45.773145" lon="13.6297833"><ele>65.0</ele><time>2026-04-30T10:06:49.113Z</time></trkpt><trkpt lat="45.77318" lon="13.630025"><ele>65.0</ele><time>2026-04-30T10:06:50.12Z</time></trkpt><trkpt lat="45.773215" lon="13.6302617"><ele>65.0</ele><time>2026-04-30T10:06:51.06Z</time></trkpt><trkpt lat="45.7732483" lon="13.6304933"><ele>65.0</ele><time>2026-04-30T10:06:52.132Z</time></trkpt><trkpt lat="45.77328" lon="13.63072"><ele>65.66666666666667</ele><time>2026-04-30T10:06:53.072Z</time></trkpt><trkpt lat="45.7733133" lon="13.630945"><ele>66.33333333333333</ele><time>2026-04-30T10:06:54.146Z</time></trkpt><trkpt lat="45.7733483" lon="13.6311783"><ele>67.0</ele><time>2026-04-30T10:06:55.086Z</time></trkpt><trkpt lat="45.7733817" lon="13.6314133"><ele>67.0</ele><time>2026-04-30T10:06:56.025Z</time></trkpt><trkpt lat="45.773415" lon="13.6316483"><ele>67.0</ele><time>2026-04-30T10:06:57.099Z</time></trkpt><trkpt lat="45.7734483" lon="13.631885"><ele>67.0</ele><time>2026-04-30T10:06:58.106Z</time></trkpt><trkpt lat="45.7734817" lon="13.6321117"><ele>66.75</ele><time>2026-04-30T10:06:59.112Z</time></trkpt><trkpt lat="45.7735117" lon="13.632315"><ele>66.5</ele><time>2026-04-30T10:07:00.118Z</time></trkpt><trkpt lat="45.7735433" lon="13.6325117"><ele>66.25</ele><time>2026-04-30T10:07:01.059Z</time></trkpt><trkpt lat="45.7735733" lon="13.6327033"><ele>66.0</ele><time>2026-04-30T10:07:02.133Z</time></trkpt><trkpt lat="45.7736" lon="13.6328967"><ele>68.0</ele><time>2026-04-30T10:07:03.071Z</time></trkpt><trkpt lat="45.773625" lon="13.6330883"><ele>70.0</ele><time>2026-04-30T10:07:04.145Z</time></trkpt><trkpt lat="45.7736433" lon="13.63327"><ele>72.0</ele><time>2026-04-30T10:07:05.085Z</time></trkpt><trkpt lat="45.773655" lon="13.6334533"><ele>74.0</ele><time>2026-04-30T10:07:06.092Z</time></trkpt><trkpt lat="45.7736517" lon="13.6336267"><ele>74.25</ele><time>2026-04-30T10:07:07.098Z</time></trkpt><trkpt lat="45.7736267" lon="13.6338"><ele>74.5</ele><time>2026-04-30T10:07:08.104Z</time></trkpt><trkpt lat="45.7735783" lon="13.633965"><ele>74.75</ele><time>2026-04-30T10:07:09.111Z</time></trkpt><trkpt lat="45.7735183" lon="13.6341233"><ele>75.0</ele><time>2026-04-30T10:07:10.119Z</time></trkpt><trkpt lat="45.7734367" lon="13.6342633"><ele>75.75</ele><time>2026-04-30T10:07:11.058Z</time></trkpt><trkpt lat="45.7733417" lon="13.6343933"><ele>76.5</ele><time>2026-04-30T10:07:12.131Z</time></trkpt><trkpt lat="45.7732433" lon="13.6345183"><ele>77.25</ele><time>2026-04-30T10:07:13.07Z</time></trkpt><trkpt lat="45.7731467" lon="13.6346367"><ele>78.0</ele><time>2026-04-30T10:07:14.144Z</time></trkpt><trkpt lat="45.7730533" lon="13.63475"><ele>78.0</ele><time>2026-04-30T10:07:15.084Z</time></trkpt><trkpt lat="45.7729583" lon="13.6348583"><ele>78.0</ele><time>2026-04-30T10:07:16.091Z</time></trkpt><trkpt lat="45.7728567" lon="13.63496"><ele>78.0</ele><time>2026-04-30T10:07:17.098Z</time></trkpt><trkpt lat="45.772755" lon="13.6350633"><ele>78.0</ele><time>2026-04-30T10:07:18.104Z</time></trkpt><trkpt lat="45.77266" lon="13.6351767"><ele>77.0</ele><time>2026-04-30T10:07:19.044Z</time></trkpt><trkpt lat="45.7725683" lon="13.6353"><ele>76.0</ele><time>2026-04-30T10:07:20.117Z</time></trkpt><trkpt lat="45.772485" lon="13.6354333"><ele>75.0</ele><time>2026-04-30T10:07:21.056Z</time></trkpt><trkpt lat="45.7724183" lon="13.6355667"><ele>74.0</ele><time>2026-04-30T10:07:22.131Z</time></trkpt><trkpt lat="45.7723633" lon="13.635695"><ele>74.0</ele><time>2026-04-30T10:07:23.07Z</time></trkpt><trkpt lat="45.772315" lon="13.6358133"><ele>74.0</ele><time>2026-04-30T10:07:24.077Z</time></trkpt><trkpt lat="45.7722667" lon="13.6359317"><ele>74.0</ele><time>2026-04-30T10:07:25.084Z</time></trkpt><trkpt lat="45.7722133" lon="13.6360533"><ele>74.0</ele><time>2026-04-30T10:07:26.091Z</time></trkpt><trkpt lat="45.77215" lon="13.6361817"><ele>74.0</ele><time>2026-04-30T10:07:27.096Z</time></trkpt><trkpt lat="45.7720767" lon="13.6363133"><ele>74.0</ele><time>2026-04-30T10:07:28.103Z</time></trkpt><trkpt lat="45.771995" lon="13.6364517"><ele>74.0</ele><time>2026-04-30T10:07:29.042Z</time></trkpt><trkpt lat="45.7719117" lon="13.6365917"><ele>74.0</ele><time>2026-04-30T10:07:30.116Z</time></trkpt><trkpt lat="45.771825" lon="13.6367317"><ele>74.0</ele><time>2026-04-30T10:07:31.057Z</time></trkpt><trkpt lat="45.77174" lon="13.6368717"><ele>74.25</ele><time>2026-04-30T10:07:32.13Z</time></trkpt><trkpt lat="45.771655" lon="13.6370133"><ele>74.5</ele><time>2026-04-30T10:07:33.07Z</time></trkpt><trkpt lat="45.7715667" lon="13.63716"><ele>74.75</ele><time>2026-04-30T10:07:34.075Z</time></trkpt><trkpt lat="45.771475" lon="13.6373083"><ele>75.0</ele><time>2026-04-30T10:07:35.083Z</time></trkpt><trkpt lat="45.7713817" lon="13.6374567"><ele>75.0</ele><time>2026-04-30T10:07:36.09Z</time></trkpt><trkpt lat="45.7712883" lon="13.637605"><ele>75.0</ele><time>2026-04-30T10:07:37.096Z</time></trkpt><trkpt lat="45.7711917" lon="13.6377567"><ele>75.0</ele><time>2026-04-30T10:07:38.102Z</time></trkpt><trkpt lat="45.7710933" lon="13.6379067"><ele>75.0</ele><time>2026-04-30T10:07:39.042Z</time></trkpt><trkpt lat="45.7710033" lon="13.6380433"><ele>75.8</ele><time>2026-04-30T10:07:40.116Z</time></trkpt><trkpt lat="45.7709183" lon="13.638165"><ele>76.6</ele><time>2026-04-30T10:07:41.055Z</time></trkpt><trkpt lat="45.7708417" lon="13.63827"><ele>77.4</ele><time>2026-04-30T10:07:42.129Z</time></trkpt><trkpt lat="45.7707683" lon="13.6383583"><ele>78.2</ele><time>2026-04-30T10:07:43.068Z</time></trkpt><trkpt lat="45.7706917" lon="13.63843"><ele>79.0</ele><time>2026-04-30T10:07:44.076Z</time></trkpt><trkpt lat="45.7706083" lon="13.6384767"><ele>79.0</ele><time>2026-04-30T10:07:45.082Z</time></trkpt><trkpt lat="45.7705183" lon="13.6384917"><ele>79.0</ele><time>2026-04-30T10:07:46.089Z</time></trkpt><trkpt lat="45.7704317" lon="13.6384967"><ele>79.0</ele><time>2026-04-30T10:07:47.096Z</time></trkpt><trkpt lat="45.7703467" lon="13.6385133"><ele>79.0</ele><time>2026-04-30T10:07:48.102Z</time></trkpt><trkpt lat="45.7702617" lon="13.6385467"><ele>79.0</ele><time>2026-04-30T10:07:49.042Z</time></trkpt><trkpt lat="45.7701933" lon="13.638615"><ele>79.0</ele><time>2026-04-30T10:07:50.115Z</time></trkpt><trkpt lat="45.770145" lon="13.6387383"><ele>79.2</ele><time>2026-04-30T10:07:51.055Z</time></trkpt><trkpt lat="45.7701483" lon="13.63889"><ele>79.4</ele><time>2026-04-30T10:07:52.129Z</time></trkpt><trkpt lat="45.7701567" lon="13.6390317"><ele>79.6</ele><time>2026-04-30T10:07:53.068Z</time></trkpt><trkpt lat="45.7701567" lon="13.63918"><ele>79.8</ele><time>2026-04-30T10:07:54.074Z</time></trkpt><trkpt lat="45.7701267" lon="13.6393233"><ele>80.0</ele><time>2026-04-30T10:07:55.082Z</time></trkpt><trkpt lat="45.7700683" lon="13.6394617"><ele>80.33333333333334</ele><time>2026-04-30T10:07:56.087Z</time></trkpt><trkpt lat="45.7699933" lon="13.639595"><ele>80.66666666666667</ele><time>2026-04-30T10:07:57.094Z</time></trkpt><trkpt lat="45.769905" lon="13.63973"><ele>81.0</ele><time>2026-04-30T10:07:58.1Z</time></trkpt><trkpt lat="45.7697217" lon="13.64"><ele>81.0</ele><time>2026-04-30T10:08:00.114Z</time></trkpt><trkpt lat="45.7696317" lon="13.6401317"><ele>81.0</ele><time>2026-04-30T10:08:01.054Z</time></trkpt><trkpt lat="45.76955" lon="13.6402533"><ele>81.0</ele><time>2026-04-30T10:08:02.128Z</time></trkpt><trkpt lat="45.7693933" lon="13.6404817"><ele>81.75</ele><time>2026-04-30T10:08:04.073Z</time></trkpt><trkpt lat="45.769315" lon="13.640595"><ele>82.5</ele><time>2026-04-30T10:08:05.081Z</time></trkpt><trkpt lat="45.769235" lon="13.6407083"><ele>83.25</ele><time>2026-04-30T10:08:06.086Z</time></trkpt><trkpt lat="45.7691583" lon="13.6408283"><ele>84.0</ele><time>2026-04-30T10:08:07.094Z</time></trkpt><trkpt lat="45.7690833" lon="13.6409483"><ele>84.0</ele><time>2026-04-30T10:08:08.101Z</time></trkpt><trkpt lat="45.7690117" lon="13.6410683"><ele>84.0</ele><time>2026-04-30T10:08:09.039Z</time></trkpt><trkpt lat="45.7689383" lon="13.641185"><ele>84.0</ele><time>2026-04-30T10:08:10.114Z</time></trkpt><trkpt lat="45.768865" lon="13.6412933"><ele>84.0</ele><time>2026-04-30T10:08:11.052Z</time></trkpt><trkpt lat="45.76879" lon="13.6413983"><ele>84.0</ele><time>2026-04-30T10:08:12.126Z</time></trkpt><trkpt lat="45.7687167" lon="13.6415"><ele>84.4</ele><time>2026-04-30T10:08:13.067Z</time></trkpt><trkpt lat="45.768645" lon="13.6416033"><ele>84.80000000000001</ele><time>2026-04-30T10:08:14.072Z</time></trkpt><trkpt lat="45.768575" lon="13.6417083"><ele>85.19999999999999</ele><time>2026-04-30T10:08:15.079Z</time></trkpt><trkpt lat="45.768505" lon="13.6418183"><ele>85.6</ele><time>2026-04-30T10:08:16.087Z</time></trkpt><trkpt lat="45.7684333" lon="13.64193"><ele>86.0</ele><time>2026-04-30T10:08:17.093Z</time></trkpt><trkpt lat="45.76836" lon="13.6420433"><ele>86.8</ele><time>2026-04-30T10:08:18.1Z</time></trkpt><trkpt lat="45.768285" lon="13.64216"><ele>87.6</ele><time>2026-04-30T10:08:19.038Z</time></trkpt><trkpt lat="45.7682083" lon="13.6422767"><ele>88.4</ele><time>2026-04-30T10:08:20.112Z</time></trkpt><trkpt lat="45.7681317" lon="13.64239"><ele>89.2</ele><time>2026-04-30T10:08:21.052Z</time></trkpt><trkpt lat="45.768055" lon="13.6425"><ele>90.0</ele><time>2026-04-30T10:08:22.125Z</time></trkpt><trkpt lat="45.7679783" lon="13.64261"><ele>90.0</ele><time>2026-04-30T10:08:23.065Z</time></trkpt><trkpt lat="45.7679033" lon="13.64272"><ele>90.0</ele><time>2026-04-30T10:08:24.072Z</time></trkpt><trkpt lat="45.7678267" lon="13.6428283"><ele>90.0</ele><time>2026-04-30T10:08:25.078Z</time></trkpt><trkpt lat="45.76775" lon="13.6429383"><ele>90.0</ele><time>2026-04-30T10:08:26.085Z</time></trkpt><trkpt lat="45.7676733" lon="13.6430583"><ele>90.0</ele><time>2026-04-30T10:08:27.091Z</time></trkpt><trkpt lat="45.7675967" lon="13.6431817"><ele>90.25</ele><time>2026-04-30T10:08:28.098Z</time></trkpt><trkpt lat="45.7675167" lon="13.64331"><ele>90.5</ele><time>2026-04-30T10:08:29.038Z</time></trkpt><trkpt lat="45.7674333" lon="13.6434383"><ele>90.75</ele><time>2026-04-30T10:08:30.111Z</time></trkpt><trkpt lat="45.7673467" lon="13.6435683"><ele>91.0</ele><time>2026-04-30T10:08:31.052Z</time></trkpt><trkpt lat="45.76726" lon="13.6436983"><ele>91.0</ele><time>2026-04-30T10:08:32.126Z</time></trkpt><trkpt lat="45.76717" lon="13.64383"><ele>91.0</ele><time>2026-04-30T10:08:33.064Z</time></trkpt><trkpt lat="45.7670817" lon="13.6439633"><ele>91.0</ele><time>2026-04-30T10:08:34.071Z</time></trkpt><trkpt lat="45.7669917" lon="13.6441017"><ele>91.0</ele><time>2026-04-30T10:08:35.077Z</time></trkpt><trkpt lat="45.7669033" lon="13.6442333"><ele>90.75</ele><time>2026-04-30T10:08:36.085Z</time></trkpt><trkpt lat="45.7668183" lon="13.6443633"><ele>90.5</ele><time>2026-04-30T10:08:37.091Z</time></trkpt><trkpt lat="45.7667333" lon="13.6444883"><ele>90.25</ele><time>2026-04-30T10:08:38.098Z</time></trkpt><trkpt lat="45.7666517" lon="13.644605"><ele>90.0</ele><time>2026-04-30T10:08:39.037Z</time></trkpt><trkpt lat="45.76657" lon="13.6447217"><ele>90.75</ele><time>2026-04-30T10:08:40.112Z</time></trkpt><trkpt lat="45.7664883" lon="13.6448367"><ele>91.5</ele><time>2026-04-30T10:08:41.05Z</time></trkpt><trkpt lat="45.7664067" lon="13.64495"><ele>92.25</ele><time>2026-04-30T10:08:42.125Z</time></trkpt><trkpt lat="45.7663283" lon="13.6450683"><ele>93.0</ele><time>2026-04-30T10:08:43.063Z</time></trkpt><trkpt lat="45.766245" lon="13.6451933"><ele>92.75</ele><time>2026-04-30T10:08:44.071Z</time></trkpt><trkpt lat="45.76616" lon="13.6453267"><ele>92.5</ele><time>2026-04-30T10:08:45.077Z</time></trkpt><trkpt lat="45.766075" lon="13.6454617"><ele>92.25</ele><time>2026-04-30T10:08:46.083Z</time></trkpt><trkpt lat="45.7659917" lon="13.6455917"><ele>92.0</ele><time>2026-04-30T10:08:47.024Z</time></trkpt><trkpt lat="45.765915" lon="13.6457067"><ele>92.6</ele><time>2026-04-30T10:08:48.097Z</time></trkpt><trkpt lat="45.7658417" lon="13.64582"><ele>93.19999999999999</ele><time>2026-04-30T10:08:49.036Z</time></trkpt><trkpt lat="45.7657667" lon="13.6459333"><ele>93.8</ele><time>2026-04-30T10:08:50.111Z</time></trkpt><trkpt lat="45.7656917" lon="13.6460417"><ele>94.4</ele><time>2026-04-30T10:08:51.049Z</time></trkpt><trkpt lat="45.7656133" lon="13.6461517"><ele>95.0</ele><time>2026-04-30T10:08:52.057Z</time></trkpt><trkpt lat="45.7655367" lon="13.6462633"><ele>96.0</ele><time>2026-04-30T10:08:53.064Z</time></trkpt><trkpt lat="45.7654567" lon="13.646375"><ele>97.0</ele><time>2026-04-30T10:08:54.07Z</time></trkpt><trkpt lat="45.765375" lon="13.6464933"><ele>98.0</ele><time>2026-04-30T10:08:55.143Z</time></trkpt><trkpt lat="45.7652917" lon="13.64662"><ele>99.0</ele><time>2026-04-30T10:08:56.084Z</time></trkpt><trkpt lat="45.7652067" lon="13.64675"><ele>99.25</ele><time>2026-04-30T10:08:57.022Z</time></trkpt><trkpt lat="45.7651167" lon="13.6468833"><ele>99.5</ele><time>2026-04-30T10:08:58.097Z</time></trkpt><trkpt lat="45.765025" lon="13.6470217"><ele>99.75</ele><time>2026-04-30T10:08:59.035Z</time></trkpt><trkpt lat="45.7649317" lon="13.6471667"><ele>100.0</ele><time>2026-04-30T10:09:00.109Z</time></trkpt><trkpt lat="45.7648383" lon="13.6473033"><ele>100.25</ele><time>2026-04-30T10:09:01.05Z</time></trkpt><trkpt lat="45.7647517" lon="13.6474317"><ele>100.5</ele><time>2026-04-30T10:09:02.056Z</time></trkpt><trkpt lat="45.7646683" lon="13.64755"><ele>100.75</ele><time>2026-04-30T10:09:03.063Z</time></trkpt><trkpt lat="45.7645883" lon="13.64767"><ele>101.0</ele><time>2026-04-30T10:09:04.069Z</time></trkpt><trkpt lat="45.7645033" lon="13.647795"><ele>101.5</ele><time>2026-04-30T10:09:05.142Z</time></trkpt><trkpt lat="45.7644167" lon="13.647925"><ele>102.0</ele><time>2026-04-30T10:09:06.082Z</time></trkpt><trkpt lat="45.7643267" lon="13.6480617"><ele>102.5</ele><time>2026-04-30T10:09:07.021Z</time></trkpt><trkpt lat="45.7642317" lon="13.6482067"><ele>103.0</ele><time>2026-04-30T10:09:08.095Z</time></trkpt><trkpt lat="45.76403" lon="13.6485167"><ele>103.66666666666667</ele><time>2026-04-30T10:09:10.108Z</time></trkpt><trkpt lat="45.76392" lon="13.648685"><ele>104.33333333333334</ele><time>2026-04-30T10:09:11.049Z</time></trkpt><trkpt lat="45.7637967" lon="13.6488617"><ele>105.0</ele><time>2026-04-30T10:09:12.055Z</time></trkpt><trkpt lat="45.763665" lon="13.6490483"><ele>105.0</ele><time>2026-04-30T10:09:13.128Z</time></trkpt><trkpt lat="45.7635317" lon="13.64924"><ele>105.0</ele><time>2026-04-30T10:09:14.069Z</time></trkpt><trkpt lat="45.763395" lon="13.6494383"><ele>105.0</ele><time>2026-04-30T10:09:15.141Z</time></trkpt><trkpt lat="45.7632583" lon="13.64964"><ele>107.0</ele><time>2026-04-30T10:09:16.081Z</time></trkpt><trkpt lat="45.7631217" lon="13.6498433"><ele>109.0</ele><time>2026-04-30T10:09:17.02Z</time></trkpt><trkpt lat="45.7629883" lon="13.6500433"><ele>111.0</ele><time>2026-04-30T10:09:18.095Z</time></trkpt><trkpt lat="45.7628567" lon="13.6502433"><ele>112.66666666666666</ele><time>2026-04-30T10:09:19.035Z</time></trkpt><trkpt lat="45.76273" lon="13.6504433"><ele>114.33333333333333</ele><time>2026-04-30T10:09:20.108Z</time></trkpt><trkpt lat="45.7626083" lon="13.6506433"><ele>116.0</ele><time>2026-04-30T10:09:21.115Z</time></trkpt><trkpt lat="45.7624817" lon="13.6508417"><ele>116.0</ele><time>2026-04-30T10:09:22.055Z</time></trkpt><trkpt lat="45.76235" lon="13.6510267"><ele>116.0</ele><time>2026-04-30T10:09:23.127Z</time></trkpt><trkpt lat="45.7622267" lon="13.6512133"><ele>116.0</ele><time>2026-04-30T10:09:24.067Z</time></trkpt><trkpt lat="45.7621017" lon="13.6514067"><ele>116.0</ele><time>2026-04-30T10:09:25.142Z</time></trkpt><trkpt lat="45.76198" lon="13.651605"><ele>116.0</ele><time>2026-04-30T10:09:26.08Z</time></trkpt><trkpt lat="45.7618583" lon="13.6518033"><ele>116.0</ele><time>2026-04-30T10:09:27.021Z</time></trkpt><trkpt lat="45.7617317" lon="13.652"><ele>116.0</ele><time>2026-04-30T10:09:28.093Z</time></trkpt><trkpt lat="45.7616" lon="13.6521917"><ele>116.0</ele><time>2026-04-30T10:09:29.1Z</time></trkpt><trkpt lat="45.76147" lon="13.6523783"><ele>116.0</ele><time>2026-04-30T10:09:30.107Z</time></trkpt><trkpt lat="45.7613383" lon="13.6525633"><ele>116.0</ele><time>2026-04-30T10:09:31.114Z</time></trkpt><trkpt lat="45.761205" lon="13.65275"><ele>116.0</ele><time>2026-04-30T10:09:32.053Z</time></trkpt><trkpt lat="45.7610717" lon="13.6529333"><ele>116.0</ele><time>2026-04-30T10:09:33.127Z</time></trkpt><trkpt lat="45.76094" lon="13.65312"><ele>116.0</ele><time>2026-04-30T10:09:34.066Z</time></trkpt><trkpt lat="45.76081" lon="13.6533083"><ele>116.0</ele><time>2026-04-30T10:09:35.141Z</time></trkpt><trkpt lat="45.7606833" lon="13.653505"><ele>116.0</ele><time>2026-04-30T10:09:36.079Z</time></trkpt><trkpt lat="45.7605633" lon="13.6537133"><ele>117.33333333333333</ele><time>2026-04-30T10:09:37.087Z</time></trkpt><trkpt lat="45.7604533" lon="13.6539383"><ele>118.66666666666666</ele><time>2026-04-30T10:09:38.093Z</time></trkpt><trkpt lat="45.76035" lon="13.6541767"><ele>120.0</ele><time>2026-04-30T10:09:39.099Z</time></trkpt><trkpt lat="45.7602483" lon="13.6544267"><ele>118.33333333333334</ele><time>2026-04-30T10:09:40.107Z</time></trkpt><trkpt lat="45.7601483" lon="13.65469"><ele>116.66666666666667</ele><time>2026-04-30T10:09:41.114Z</time></trkpt><trkpt lat="45.7600533" lon="13.65494"><ele>115.0</ele><time>2026-04-30T10:09:42.053Z</time></trkpt><trkpt lat="45.759965" lon="13.6551767"><ele>114.0</ele><time>2026-04-30T10:09:43.126Z</time></trkpt><trkpt lat="45.7598833" lon="13.6554"><ele>113.0</ele><time>2026-04-30T10:09:44.065Z</time></trkpt><trkpt lat="45.7598017" lon="13.6556183"><ele>112.0</ele><time>2026-04-30T10:09:45.14Z</time></trkpt><trkpt lat="45.75972" lon="13.65584"><ele>112.0</ele><time>2026-04-30T10:09:46.08Z</time></trkpt><trkpt lat="45.759635" lon="13.6560667"><ele>112.0</ele><time>2026-04-30T10:09:47.085Z</time></trkpt><trkpt lat="45.75955" lon="13.6562933"><ele>112.0</ele><time>2026-04-30T10:09:48.093Z</time></trkpt><trkpt lat="45.7594667" lon="13.65652"><ele>114.33333333333334</ele><time>2026-04-30T10:09:49.099Z</time></trkpt><trkpt lat="45.7593817" lon="13.6567417"><ele>116.66666666666666</ele><time>2026-04-30T10:09:50.105Z</time></trkpt><trkpt lat="45.7592917" lon="13.6569567"><ele>119.0</ele><time>2026-04-30T10:09:51.112Z</time></trkpt><trkpt lat="45.7591933" lon="13.65717"><ele>119.0</ele><time>2026-04-30T10:09:52.052Z</time></trkpt><trkpt lat="45.7590817" lon="13.6573733"><ele>119.0</ele><time>2026-04-30T10:09:53.125Z</time></trkpt><trkpt lat="45.7589583" lon="13.6575567"><ele>119.0</ele><time>2026-04-30T10:09:54.065Z</time></trkpt><trkpt lat="45.7588267" lon="13.657725"><ele>119.0</ele><time>2026-04-30T10:09:55.139Z</time></trkpt><trkpt lat="45.758685" lon="13.65788"><ele>119.0</ele><time>2026-04-30T10:09:56.079Z</time></trkpt><trkpt lat="45.758535" lon="13.6580267"><ele>119.0</ele><time>2026-04-30T10:09:57.084Z</time></trkpt><trkpt lat="45.7583767" lon="13.6581583"><ele>119.0</ele><time>2026-04-30T10:09:58.092Z</time></trkpt><trkpt lat="45.758215" lon="13.6582867"><ele>119.0</ele><time>2026-04-30T10:09:59.099Z</time></trkpt><trkpt lat="45.7580517" lon="13.65842"><ele>119.0</ele><time>2026-04-30T10:10:00.105Z</time></trkpt><trkpt lat="45.7578883" lon="13.6585567"><ele>118.66666666666666</ele><time>2026-04-30T10:10:01.111Z</time></trkpt><trkpt lat="45.7577217" lon="13.658695"><ele>118.33333333333334</ele><time>2026-04-30T10:10:02.051Z</time></trkpt><trkpt lat="45.757555" lon="13.6588333"><ele>118.0</ele><time>2026-04-30T10:10:03.124Z</time></trkpt><trkpt lat="45.757385" lon="13.6589717"><ele>118.66666666666667</ele><time>2026-04-30T10:10:04.065Z</time></trkpt><trkpt lat="45.7572133" lon="13.6591083"><ele>119.33333333333334</ele><time>2026-04-30T10:10:05.138Z</time></trkpt><trkpt lat="45.7570367" lon="13.65924"><ele>120.0</ele><time>2026-04-30T10:10:06.077Z</time></trkpt><trkpt lat="45.7568633" lon="13.6593767"><ele>120.0</ele><time>2026-04-30T10:10:07.085Z</time></trkpt><trkpt lat="45.7566883" lon="13.6595133"><ele>120.0</ele><time>2026-04-30T10:10:08.091Z</time></trkpt><trkpt lat="45.7565167" lon="13.6596567"><ele>120.0</ele><time>2026-04-30T10:10:09.098Z</time></trkpt><trkpt lat="45.7563483" lon="13.65979"><ele>120.0</ele><time>2026-04-30T10:10:10.104Z</time></trkpt><trkpt lat="45.7561933" lon="13.65992"><ele>120.0</ele><time>2026-04-30T10:10:11.11Z</time></trkpt><trkpt lat="45.75605" lon="13.6600583"><ele>120.0</ele><time>2026-04-30T10:10:12.05Z</time></trkpt><trkpt lat="45.7559167" lon="13.6602167"><ele>120.66666666666666</ele><time>2026-04-30T10:10:13.124Z</time></trkpt><trkpt lat="45.75579" lon="13.6603983"><ele>121.33333333333333</ele><time>2026-04-30T10:10:14.064Z</time></trkpt><trkpt lat="45.7556683" lon="13.660595"><ele>122.0</ele><time>2026-04-30T10:10:15.071Z</time></trkpt><trkpt lat="45.7555467" lon="13.6607967"><ele>122.0</ele><time>2026-04-30T10:10:16.077Z</time></trkpt><trkpt lat="45.7554267" lon="13.660995"><ele>122.0</ele><time>2026-04-30T10:10:17.083Z</time></trkpt><trkpt lat="45.755315" lon="13.6611783"><ele>122.0</ele><time>2026-04-30T10:10:18.09Z</time></trkpt><trkpt lat="45.7552083" lon="13.6613517"><ele>123.0</ele><time>2026-04-30T10:10:19.096Z</time></trkpt><trkpt lat="45.7551" lon="13.6615183"><ele>124.0</ele><time>2026-04-30T10:10:20.037Z</time></trkpt><trkpt lat="45.7549867" lon="13.6616833"><ele>125.0</ele><time>2026-04-30T10:10:21.109Z</time></trkpt><trkpt lat="45.75486" lon="13.661835"><ele>124.33333333333333</ele><time>2026-04-30T10:10:22.049Z</time></trkpt><trkpt lat="45.7547233" lon="13.6619783"><ele>123.66666666666666</ele><time>2026-04-30T10:10:23.123Z</time></trkpt><trkpt lat="45.7545883" lon="13.6621167"><ele>123.0</ele><time>2026-04-30T10:10:24.063Z</time></trkpt><trkpt lat="45.7544617" lon="13.66225"><ele>125.0</ele><time>2026-04-30T10:10:25.07Z</time></trkpt><trkpt lat="45.7543433" lon="13.6623767"><ele>127.0</ele><time>2026-04-30T10:10:26.077Z</time></trkpt><trkpt lat="45.75424" lon="13.6625"><ele>129.0</ele><time>2026-04-30T10:10:27.082Z</time></trkpt><trkpt lat="45.754155" lon="13.66262"><ele>131.0</ele><time>2026-04-30T10:10:28.09Z</time></trkpt><trkpt lat="45.7540983" lon="13.662745"><ele>130.8</ele><time>2026-04-30T10:10:29.096Z</time></trkpt><trkpt lat="45.75407" lon="13.662875"><ele>130.6</ele><time>2026-04-30T10:10:30.035Z</time></trkpt><trkpt lat="45.7540667" lon="13.6630183"><ele>130.4</ele><time>2026-04-30T10:10:31.11Z</time></trkpt><trkpt lat="45.75408" lon="13.663165"><ele>130.2</ele><time>2026-04-30T10:10:32.049Z</time></trkpt><trkpt lat="45.754105" lon="13.66333"><ele>130.0</ele><time>2026-04-30T10:10:33.123Z</time></trkpt><trkpt lat="45.7541367" lon="13.6635017"><ele>130.4</ele><time>2026-04-30T10:10:34.061Z</time></trkpt><trkpt lat="45.7541683" lon="13.66367"><ele>130.8</ele><time>2026-04-30T10:10:35.068Z</time></trkpt><trkpt lat="45.7541967" lon="13.6638267"><ele>131.2</ele><time>2026-04-30T10:10:36.075Z</time></trkpt><trkpt lat="45.7542183" lon="13.6639767"><ele>131.6</ele><time>2026-04-30T10:10:37.081Z</time></trkpt><trkpt lat="45.7542417" lon="13.6641133"><ele>132.0</ele><time>2026-04-30T10:10:38.088Z</time></trkpt><trkpt lat="45.7542667" lon="13.6642433"><ele>132.0</ele><time>2026-04-30T10:10:39.096Z</time></trkpt><trkpt lat="45.7542833" lon="13.6643583"><ele>132.0</ele><time>2026-04-30T10:10:40.034Z</time></trkpt><trkpt lat="45.7542967" lon="13.6644467"><ele>132.0</ele><time>2026-04-30T10:10:41.108Z</time></trkpt><trkpt lat="45.7543067" lon="13.6645517"><ele>132.0</ele><time>2026-04-30T10:10:43.121Z</time></trkpt><trkpt lat="45.7543067" lon="13.6646583"><ele>132.0</ele><time>2026-04-30T10:10:46.075Z</time></trkpt><trkpt lat="45.7543117" lon="13.6647767"><ele>132.0</ele><time>2026-04-30T10:10:49.094Z</time></trkpt><trkpt lat="45.7543033" lon="13.6649733"><ele>131.79999999999998</ele><time>2026-04-30T10:11:04.059Z</time></trkpt><trkpt lat="45.7543133" lon="13.6651533"><ele>131.6</ele><time>2026-04-30T10:11:06.073Z</time></trkpt><trkpt lat="45.7543267" lon="13.665265"><ele>131.39999999999998</ele><time>2026-04-30T10:11:07.08Z</time></trkpt><trkpt lat="45.7543333" lon="13.665395"><ele>131.2</ele><time>2026-04-30T10:11:08.087Z</time></trkpt><trkpt lat="45.7543283" lon="13.665545"><ele>131.0</ele><time>2026-04-30T10:11:09.092Z</time></trkpt><trkpt lat="45.754315" lon="13.6656833"><ele>131.0</ele><time>2026-04-30T10:11:10.032Z</time></trkpt><trkpt lat="45.7542933" lon="13.6658283"><ele>131.0</ele><time>2026-04-30T10:11:11.107Z</time></trkpt><trkpt lat="45.7542683" lon="13.6659733"><ele>131.0</ele><time>2026-04-30T10:11:12.046Z</time></trkpt><trkpt lat="45.7542433" lon="13.6661"><ele>131.0</ele><time>2026-04-30T10:11:13.12Z</time></trkpt><trkpt lat="45.7542183" lon="13.6662217"><ele>131.0</ele><time>2026-04-30T10:11:14.059Z</time></trkpt><trkpt lat="45.7541883" lon="13.6663367"><ele>130.8</ele><time>2026-04-30T10:11:15.066Z</time></trkpt><trkpt lat="45.7541567" lon="13.66646"><ele>130.6</ele><time>2026-04-30T10:11:16.073Z</time></trkpt><trkpt lat="45.754125" lon="13.66659"><ele>130.4</ele><time>2026-04-30T10:11:17.078Z</time></trkpt><trkpt lat="45.7540933" lon="13.6667283"><ele>130.2</ele><time>2026-04-30T10:11:18.152Z</time></trkpt><trkpt lat="45.7540633" lon="13.6668733"><ele>130.0</ele><time>2026-04-30T10:11:19.092Z</time></trkpt><trkpt lat="45.7540333" lon="13.6670217"><ele>130.0</ele><time>2026-04-30T10:11:20.032Z</time></trkpt><trkpt lat="45.7540017" lon="13.6671733"><ele>130.0</ele><time>2026-04-30T10:11:21.105Z</time></trkpt><trkpt lat="45.7539683" lon="13.6673283"><ele>130.0</ele><time>2026-04-30T10:11:22.044Z</time></trkpt><trkpt lat="45.7539333" lon="13.6674767"><ele>130.0</ele><time>2026-04-30T10:11:23.119Z</time></trkpt><trkpt lat="45.753895" lon="13.6676233"><ele>130.0</ele><time>2026-04-30T10:11:24.059Z</time></trkpt><trkpt lat="45.75385" lon="13.6677617"><ele>130.4</ele><time>2026-04-30T10:11:25.064Z</time></trkpt><trkpt lat="45.7537933" lon="13.6678933"><ele>130.8</ele><time>2026-04-30T10:11:26.139Z</time></trkpt><trkpt lat="45.7537217" lon="13.6680033"><ele>131.2</ele><time>2026-04-30T10:11:27.077Z</time></trkpt><trkpt lat="45.7536433" lon="13.6681017"><ele>131.6</ele><time>2026-04-30T10:11:28.151Z</time></trkpt><trkpt lat="45.7535567" lon="13.66819"><ele>132.0</ele><time>2026-04-30T10:11:29.091Z</time></trkpt><trkpt lat="45.7534667" lon="13.6682867"><ele>133.4</ele><time>2026-04-30T10:11:30.03Z</time></trkpt><trkpt lat="45.7533933" lon="13.6683983"><ele>134.79999999999998</ele><time>2026-04-30T10:11:31.104Z</time></trkpt><trkpt lat="45.75333" lon="13.6685183"><ele>136.2</ele><time>2026-04-30T10:11:32.045Z</time></trkpt><trkpt lat="45.7532817" lon="13.668645"><ele>137.6</ele><time>2026-04-30T10:11:33.117Z</time></trkpt><trkpt lat="45.7532367" lon="13.6687667"><ele>139.0</ele><time>2026-04-30T10:11:34.057Z</time></trkpt><trkpt lat="45.7531933" lon="13.6688867"><ele>139.0</ele><time>2026-04-30T10:11:35.063Z</time></trkpt><trkpt lat="45.7531517" lon="13.6690083"><ele>139.0</ele><time>2026-04-30T10:11:36.137Z</time></trkpt><trkpt lat="45.7531133" lon="13.6691317"><ele>139.0</ele><time>2026-04-30T10:11:37.077Z</time></trkpt><trkpt lat="45.7530733" lon="13.6692583"><ele>139.0</ele><time>2026-04-30T10:11:38.15Z</time></trkpt><trkpt lat="45.7530283" lon="13.6693783"><ele>139.0</ele><time>2026-04-30T10:11:39.091Z</time></trkpt><trkpt lat="45.7529717" lon="13.66949"><ele>138.8</ele><time>2026-04-30T10:11:40.03Z</time></trkpt><trkpt lat="45.7529033" lon="13.66958"><ele>138.60000000000002</ele><time>2026-04-30T10:11:41.104Z</time></trkpt><trkpt lat="45.7528283" lon="13.66965"><ele>138.4</ele><time>2026-04-30T10:11:42.043Z</time></trkpt><trkpt lat="45.7527417" lon="13.66969"><ele>138.20000000000002</ele><time>2026-04-30T10:11:43.116Z</time></trkpt><trkpt lat="45.75265" lon="13.6697017"><ele>138.0</ele><time>2026-04-30T10:11:44.123Z</time></trkpt><trkpt lat="45.7525567" lon="13.66969"><ele>138.0</ele><time>2026-04-30T10:11:45.063Z</time></trkpt><trkpt lat="45.75246" lon="13.6696517"><ele>138.0</ele><time>2026-04-30T10:11:46.136Z</time></trkpt><trkpt lat="45.7523633" lon="13.6696017"><ele>138.0</ele><time>2026-04-30T10:11:47.076Z</time></trkpt><trkpt lat="45.7522617" lon="13.6695417"><ele>138.0</ele><time>2026-04-30T10:11:48.015Z</time></trkpt><trkpt lat="45.7521667" lon="13.6694767"><ele>138.0</ele><time>2026-04-30T10:11:49.089Z</time></trkpt><trkpt lat="45.7520783" lon="13.66942"><ele>138.6</ele><time>2026-04-30T10:11:50.029Z</time></trkpt><trkpt lat="45.75199" lon="13.669365"><ele>139.20000000000002</ele><time>2026-04-30T10:11:51.102Z</time></trkpt><trkpt lat="45.751895" lon="13.6693117"><ele>139.8</ele><time>2026-04-30T10:11:52.11Z</time></trkpt><trkpt lat="45.7518033" lon="13.6692533"><ele>140.4</ele><time>2026-04-30T10:11:53.049Z</time></trkpt><trkpt lat="45.75171" lon="13.6692"><ele>141.0</ele><time>2026-04-30T10:11:54.123Z</time></trkpt><trkpt lat="45.75162" lon="13.6691617"><ele>141.0</ele><time>2026-04-30T10:11:55.063Z</time></trkpt><trkpt lat="45.7515333" lon="13.669135"><ele>141.0</ele><time>2026-04-30T10:11:56.137Z</time></trkpt><trkpt lat="45.751445" lon="13.669125"><ele>141.0</ele><time>2026-04-30T10:11:57.076Z</time></trkpt><trkpt lat="45.7513517" lon="13.6691233"><ele>141.0</ele><time>2026-04-30T10:11:58.015Z</time></trkpt><trkpt lat="45.7512517" lon="13.66913"><ele>141.0</ele><time>2026-04-30T10:11:59.089Z</time></trkpt><trkpt lat="45.7511533" lon="13.66914"><ele>141.0</ele><time>2026-04-30T10:12:00.095Z</time></trkpt><trkpt lat="45.7510617" lon="13.6691517"><ele>141.0</ele><time>2026-04-30T10:12:01.102Z</time></trkpt><trkpt lat="45.7509817" lon="13.66917"><ele>141.0</ele><time>2026-04-30T10:12:02.108Z</time></trkpt><trkpt lat="45.7509067" lon="13.6692033"><ele>141.0</ele><time>2026-04-30T10:12:03.048Z</time></trkpt><trkpt lat="45.7508317" lon="13.6692567"><ele>141.0</ele><time>2026-04-30T10:12:04.123Z</time></trkpt><trkpt lat="45.75076" lon="13.66934"><ele>141.0</ele><time>2026-04-30T10:12:05.062Z</time></trkpt><trkpt lat="45.7506967" lon="13.6694583"><ele>140.4</ele><time>2026-04-30T10:12:06.135Z</time></trkpt><trkpt lat="45.750645" lon="13.6695917"><ele>139.8</ele><time>2026-04-30T10:12:07.074Z</time></trkpt><trkpt lat="45.750595" lon="13.669735"><ele>139.20000000000002</ele><time>2026-04-30T10:12:08.082Z</time></trkpt><trkpt lat="45.7505467" lon="13.6698783"><ele>138.6</ele><time>2026-04-30T10:12:09.089Z</time></trkpt><trkpt lat="45.7504967" lon="13.6700233"><ele>138.0</ele><time>2026-04-30T10:12:10.094Z</time></trkpt><trkpt lat="45.7504483" lon="13.6701683"><ele>138.25</ele><time>2026-04-30T10:12:11.102Z</time></trkpt><trkpt lat="45.7503967" lon="13.6703117"><ele>138.5</ele><time>2026-04-30T10:12:12.108Z</time></trkpt><trkpt lat="45.7503417" lon="13.67046"><ele>138.75</ele><time>2026-04-30T10:12:13.047Z</time></trkpt><trkpt lat="45.750285" lon="13.670605"><ele>139.0</ele><time>2026-04-30T10:12:14.121Z</time></trkpt><trkpt lat="45.75023" lon="13.6707533"><ele>140.25</ele><time>2026-04-30T10:12:15.06Z</time></trkpt><trkpt lat="45.750175" lon="13.6709017"><ele>141.5</ele><time>2026-04-30T10:12:16.134Z</time></trkpt><trkpt lat="45.7501283" lon="13.671055"><ele>142.75</ele><time>2026-04-30T10:12:17.075Z</time></trkpt><trkpt lat="45.750085" lon="13.67121"><ele>144.0</ele><time>2026-04-30T10:12:18.08Z</time></trkpt><trkpt lat="45.7500433" lon="13.6713567"><ele>144.0</ele><time>2026-04-30T10:12:19.087Z</time></trkpt><trkpt lat="45.750005" lon="13.6715017"><ele>144.0</ele><time>2026-04-30T10:12:20.093Z</time></trkpt><trkpt lat="45.7499667" lon="13.6716433"><ele>144.0</ele><time>2026-04-30T10:12:21.1Z</time></trkpt><trkpt lat="45.749925" lon="13.6717783"><ele>144.0</ele><time>2026-04-30T10:12:22.108Z</time></trkpt><trkpt lat="45.7498783" lon="13.6719067"><ele>144.0</ele><time>2026-04-30T10:12:23.047Z</time></trkpt><trkpt lat="45.749825" lon="13.6720283"><ele>144.0</ele><time>2026-04-30T10:12:24.12Z</time></trkpt><trkpt lat="45.7497733" lon="13.672145"><ele>144.0</ele><time>2026-04-30T10:12:25.061Z</time></trkpt><trkpt lat="45.7497183" lon="13.67226"><ele>144.0</ele><time>2026-04-30T10:12:26.133Z</time></trkpt><trkpt lat="45.7496617" lon="13.6723717"><ele>144.0</ele><time>2026-04-30T10:12:27.074Z</time></trkpt><trkpt lat="45.7496083" lon="13.6724683"><ele>144.0</ele><time>2026-04-30T10:12:28.08Z</time></trkpt><trkpt lat="45.74955" lon="13.6725583"><ele>144.0</ele><time>2026-04-30T10:12:29.087Z</time></trkpt><trkpt lat="45.7494833" lon="13.6726517"><ele>144.0</ele><time>2026-04-30T10:12:30.094Z</time></trkpt><trkpt lat="45.74941" lon="13.67275"><ele>144.0</ele><time>2026-04-30T10:12:31.1Z</time></trkpt><trkpt lat="45.74933" lon="13.6728533"><ele>144.0</ele><time>2026-04-30T10:12:32.107Z</time></trkpt><trkpt lat="45.7492467" lon="13.672965"><ele>144.0</ele><time>2026-04-30T10:12:33.045Z</time></trkpt><trkpt lat="45.7491617" lon="13.6730767"><ele>144.25</ele><time>2026-04-30T10:12:34.119Z</time></trkpt><trkpt lat="45.749075" lon="13.67319"><ele>144.5</ele><time>2026-04-30T10:12:35.06Z</time></trkpt><trkpt lat="45.7489833" lon="13.6733067"><ele>144.75</ele><time>2026-04-30T10:12:36.133Z</time></trkpt><trkpt lat="45.7488867" lon="13.6734333"><ele>145.0</ele><time>2026-04-30T10:12:37.073Z</time></trkpt><trkpt lat="45.748785" lon="13.6735633"><ele>145.0</ele><time>2026-04-30T10:12:38.08Z</time></trkpt><trkpt lat="45.7486783" lon="13.673695"><ele>145.0</ele><time>2026-04-30T10:12:39.086Z</time></trkpt><trkpt lat="45.7485717" lon="13.6738283"><ele>145.0</ele><time>2026-04-30T10:12:40.093Z</time></trkpt><trkpt lat="45.748465" lon="13.6739617"><ele>145.0</ele><time>2026-04-30T10:12:41.1Z</time></trkpt><trkpt lat="45.7483617" lon="13.6740933"><ele>146.0</ele><time>2026-04-30T10:12:42.106Z</time></trkpt><trkpt lat="45.74826" lon="13.6742183"><ele>147.0</ele><time>2026-04-30T10:12:43.046Z</time></trkpt><trkpt lat="45.7481583" lon="13.674345"><ele>148.0</ele><time>2026-04-30T10:12:44.119Z</time></trkpt><trkpt lat="45.74806" lon="13.6744733"><ele>149.0</ele><time>2026-04-30T10:12:45.058Z</time></trkpt><trkpt lat="45.7479633" lon="13.6746033"><ele>149.25</ele><time>2026-04-30T10:12:46.133Z</time></trkpt><trkpt lat="45.7478667" lon="13.6747317"><ele>149.5</ele><time>2026-04-30T10:12:47.071Z</time></trkpt><trkpt lat="45.7477717" lon="13.6748617"><ele>149.75</ele><time>2026-04-30T10:12:48.079Z</time></trkpt><trkpt lat="45.74767" lon="13.6749917"><ele>150.0</ele><time>2026-04-30T10:12:49.085Z</time></trkpt><trkpt lat="45.7475633" lon="13.675125"><ele>150.25</ele><time>2026-04-30T10:12:50.092Z</time></trkpt><trkpt lat="45.747455" lon="13.6752617"><ele>150.5</ele><time>2026-04-30T10:12:51.099Z</time></trkpt><trkpt lat="45.747345" lon="13.6754033"><ele>150.75</ele><time>2026-04-30T10:12:52.104Z</time></trkpt><trkpt lat="45.747235" lon="13.6755467"><ele>151.0</ele><time>2026-04-30T10:12:53.044Z</time></trkpt><trkpt lat="45.7471233" lon="13.6756883"><ele>151.0</ele><time>2026-04-30T10:12:54.118Z</time></trkpt><trkpt lat="45.7470117" lon="13.67583"><ele>151.0</ele><time>2026-04-30T10:12:55.058Z</time></trkpt><trkpt lat="45.7469" lon="13.6759717"><ele>151.0</ele><time>2026-04-30T10:12:56.131Z</time></trkpt><trkpt lat="45.74679" lon="13.6761117"><ele>151.0</ele><time>2026-04-30T10:12:57.071Z</time></trkpt><trkpt lat="45.7466817" lon="13.6762533"><ele>151.75</ele><time>2026-04-30T10:12:58.078Z</time></trkpt><trkpt lat="45.7465733" lon="13.676395"><ele>152.5</ele><time>2026-04-30T10:12:59.084Z</time></trkpt><trkpt lat="45.746465" lon="13.6765383"><ele>153.25</ele><time>2026-04-30T10:13:00.091Z</time></trkpt><trkpt lat="45.7463583" lon="13.6766817"><ele>154.0</ele><time>2026-04-30T10:13:01.098Z</time></trkpt><trkpt lat="45.7462517" lon="13.6768267"><ele>155.0</ele><time>2026-04-30T10:13:02.104Z</time></trkpt><trkpt lat="45.7461433" lon="13.6769683"><ele>156.0</ele><time>2026-04-30T10:13:03.043Z</time></trkpt><trkpt lat="45.746035" lon="13.677115"><ele>157.0</ele><time>2026-04-30T10:13:04.117Z</time></trkpt><trkpt lat="45.745925" lon="13.6772533"><ele>158.0</ele><time>2026-04-30T10:13:05.056Z</time></trkpt><trkpt lat="45.745815" lon="13.6773933"><ele>158.75</ele><time>2026-04-30T10:13:06.13Z</time></trkpt><trkpt lat="45.7457067" lon="13.6775333"><ele>159.5</ele><time>2026-04-30T10:13:07.07Z</time></trkpt><trkpt lat="45.7455967" lon="13.6776733"><ele>160.25</ele><time>2026-04-30T10:13:08.076Z</time></trkpt><trkpt lat="45.7454867" lon="13.67781"><ele>161.0</ele><time>2026-04-30T10:13:09.084Z</time></trkpt><trkpt lat="45.7453767" lon="13.67795"><ele>161.0</ele><time>2026-04-30T10:13:10.091Z</time></trkpt><trkpt lat="45.74527" lon="13.6780867"><ele>161.0</ele><time>2026-04-30T10:13:11.097Z</time></trkpt><trkpt lat="45.7451617" lon="13.6782317"><ele>161.0</ele><time>2026-04-30T10:13:12.104Z</time></trkpt><trkpt lat="45.7450517" lon="13.6783767"><ele>161.0</ele><time>2026-04-30T10:13:13.043Z</time></trkpt><trkpt lat="45.7449417" lon="13.6785233"><ele>162.5</ele><time>2026-04-30T10:13:14.116Z</time></trkpt><trkpt lat="45.7448317" lon="13.6786633"><ele>164.0</ele><time>2026-04-30T10:13:15.057Z</time></trkpt><trkpt lat="45.744725" lon="13.6788067"><ele>165.5</ele><time>2026-04-30T10:13:16.13Z</time></trkpt><trkpt lat="45.7446217" lon="13.6789467"><ele>167.0</ele><time>2026-04-30T10:13:17.07Z</time></trkpt><trkpt lat="45.7445267" lon="13.6790867"><ele>167.0</ele><time>2026-04-30T10:13:18.077Z</time></trkpt><trkpt lat="45.74444" lon="13.67922"><ele>167.0</ele><time>2026-04-30T10:13:19.083Z</time></trkpt><trkpt lat="45.744355" lon="13.6793467"><ele>167.0</ele><time>2026-04-30T10:13:20.089Z</time></trkpt><trkpt lat="45.7442683" lon="13.67948"><ele>167.0</ele><time>2026-04-30T10:13:21.029Z</time></trkpt><trkpt lat="45.7441783" lon="13.6796217"><ele>168.5</ele><time>2026-04-30T10:13:22.103Z</time></trkpt><trkpt lat="45.74409" lon="13.6797617"><ele>170.0</ele><time>2026-04-30T10:13:23.042Z</time></trkpt><trkpt lat="45.744" lon="13.6799067"><ele>171.5</ele><time>2026-04-30T10:13:24.115Z</time></trkpt><trkpt lat="45.7439133" lon="13.6800583"><ele>173.0</ele><time>2026-04-30T10:13:25.055Z</time></trkpt><trkpt lat="45.7438183" lon="13.6802183"><ele>172.0</ele><time>2026-04-30T10:13:26.062Z</time></trkpt><trkpt lat="45.7437217" lon="13.6803783"><ele>171.0</ele><time>2026-04-30T10:13:27.068Z</time></trkpt><trkpt lat="45.74362" lon="13.6805417"><ele>170.0</ele><time>2026-04-30T10:13:28.076Z</time></trkpt><trkpt lat="45.743515" lon="13.68071"><ele>171.66666666666666</ele><time>2026-04-30T10:13:29.081Z</time></trkpt><trkpt lat="45.74341" lon="13.68088"><ele>173.33333333333334</ele><time>2026-04-30T10:13:30.088Z</time></trkpt><trkpt lat="45.7433017" lon="13.68105"><ele>175.0</ele><time>2026-04-30T10:13:31.029Z</time></trkpt><trkpt lat="45.7431917" lon="13.6812283"><ele>175.0</ele><time>2026-04-30T10:13:32.101Z</time></trkpt><trkpt lat="45.7430817" lon="13.6814083"><ele>175.0</ele><time>2026-04-30T10:13:33.041Z</time></trkpt><trkpt lat="45.7429733" lon="13.6815917"><ele>175.0</ele><time>2026-04-30T10:13:34.116Z</time></trkpt><trkpt lat="45.7428633" lon="13.681775"><ele>175.66666666666669</ele><time>2026-04-30T10:13:35.054Z</time></trkpt><trkpt lat="45.7427517" lon="13.6819567"><ele>176.33333333333334</ele><time>2026-04-30T10:13:36.062Z</time></trkpt><trkpt lat="45.74264" lon="13.68214"><ele>177.0</ele><time>2026-04-30T10:13:37.067Z</time></trkpt><trkpt lat="45.74253" lon="13.68232"><ele>177.0</ele><time>2026-04-30T10:13:38.074Z</time></trkpt><trkpt lat="45.7424217" lon="13.6825033"><ele>177.0</ele><time>2026-04-30T10:13:39.081Z</time></trkpt><trkpt lat="45.7423133" lon="13.6826883"><ele>177.0</ele><time>2026-04-30T10:13:40.087Z</time></trkpt><trkpt lat="45.7422083" lon="13.682865"><ele>176.0</ele><time>2026-04-30T10:13:41.027Z</time></trkpt><trkpt lat="45.7421067" lon="13.6830333"><ele>175.0</ele><time>2026-04-30T10:13:42.101Z</time></trkpt><trkpt lat="45.742005" lon="13.6831967"><ele>174.0</ele><time>2026-04-30T10:13:43.04Z</time></trkpt><trkpt lat="45.7419067" lon="13.6833583"><ele>176.33333333333334</ele><time>2026-04-30T10:13:44.115Z</time></trkpt><trkpt lat="45.74181" lon="13.6835217"><ele>178.66666666666669</ele><time>2026-04-30T10:13:45.054Z</time></trkpt><trkpt lat="45.7417117" lon="13.683685"><ele>181.0</ele><time>2026-04-30T10:13:46.061Z</time></trkpt><trkpt lat="45.7416133" lon="13.6838533"><ele>181.0</ele><time>2026-04-30T10:13:47.068Z</time></trkpt><trkpt lat="45.7415133" lon="13.684025"><ele>181.0</ele><time>2026-04-30T10:13:48.073Z</time></trkpt><trkpt lat="45.74141" lon="13.6841967"><ele>181.0</ele><time>2026-04-30T10:13:49.147Z</time></trkpt><trkpt lat="45.741305" lon="13.6843683"><ele>181.66666666666669</ele><time>2026-04-30T10:13:50.086Z</time></trkpt><trkpt lat="45.7412017" lon="13.684545"><ele>182.33333333333334</ele><time>2026-04-30T10:13:51.026Z</time></trkpt><trkpt lat="45.7410933" lon="13.6847217"><ele>183.0</ele><time>2026-04-30T10:13:52.101Z</time></trkpt><trkpt lat="45.740985" lon="13.6848967"><ele>183.0</ele><time>2026-04-30T10:13:53.04Z</time></trkpt><trkpt lat="45.7408767" lon="13.6850717"><ele>183.0</ele><time>2026-04-30T10:13:54.114Z</time></trkpt><trkpt lat="45.7407683" lon="13.685245"><ele>183.0</ele><time>2026-04-30T10:13:55.053Z</time></trkpt><trkpt lat="45.7406583" lon="13.6854233"><ele>183.0</ele><time>2026-04-30T10:13:56.059Z</time></trkpt><trkpt lat="45.7405467" lon="13.6856017"><ele>183.0</ele><time>2026-04-30T10:13:57.133Z</time></trkpt><trkpt lat="45.7404367" lon="13.6857733"><ele>183.0</ele><time>2026-04-30T10:13:58.072Z</time></trkpt><trkpt lat="45.7403317" lon="13.6859483"><ele>183.0</ele><time>2026-04-30T10:13:59.146Z</time></trkpt><trkpt lat="45.7402267" lon="13.6861217"><ele>183.0</ele><time>2026-04-30T10:14:00.087Z</time></trkpt><trkpt lat="45.7401233" lon="13.686295"><ele>183.0</ele><time>2026-04-30T10:14:01.026Z</time></trkpt><trkpt lat="45.7400217" lon="13.6864617"><ele>184.33333333333334</ele><time>2026-04-30T10:14:02.099Z</time></trkpt><trkpt lat="45.73992" lon="13.6866267"><ele>185.66666666666669</ele><time>2026-04-30T10:14:03.039Z</time></trkpt><trkpt lat="45.7398183" lon="13.6867883"><ele>187.0</ele><time>2026-04-30T10:14:04.112Z</time></trkpt><trkpt lat="45.7397167" lon="13.6869533"><ele>187.75</ele><time>2026-04-30T10:14:05.052Z</time></trkpt><trkpt lat="45.7396167" lon="13.687115"><ele>188.5</ele><time>2026-04-30T10:14:06.058Z</time></trkpt><trkpt lat="45.7395183" lon="13.6872767"><ele>189.25</ele><time>2026-04-30T10:14:07.132Z</time></trkpt><trkpt lat="45.73942" lon="13.6874367"><ele>190.0</ele><time>2026-04-30T10:14:08.072Z</time></trkpt><trkpt lat="45.7393183" lon="13.6875933"><ele>190.0</ele><time>2026-04-30T10:14:09.145Z</time></trkpt><trkpt lat="45.73922" lon="13.6877467"><ele>190.0</ele><time>2026-04-30T10:14:10.086Z</time></trkpt><trkpt lat="45.7391233" lon="13.6878983"><ele>190.0</ele><time>2026-04-30T10:14:11.025Z</time></trkpt><trkpt lat="45.7390283" lon="13.6880517"><ele>190.0</ele><time>2026-04-30T10:14:12.098Z</time></trkpt><trkpt lat="45.7389317" lon="13.688205"><ele>189.0</ele><time>2026-04-30T10:14:13.038Z</time></trkpt><trkpt lat="45.7388367" lon="13.688365"><ele>188.0</ele><time>2026-04-30T10:14:14.111Z</time></trkpt><trkpt lat="45.73874" lon="13.6885267"><ele>187.0</ele><time>2026-04-30T10:14:15.119Z</time></trkpt><trkpt lat="45.73864" lon="13.6886883"><ele>186.0</ele><time>2026-04-30T10:14:16.058Z</time></trkpt><trkpt lat="45.7385383" lon="13.68885"><ele>188.66666666666669</ele><time>2026-04-30T10:14:17.131Z</time></trkpt><trkpt lat="45.7384367" lon="13.6890133"><ele>191.33333333333334</ele><time>2026-04-30T10:14:18.071Z</time></trkpt><trkpt lat="45.738335" lon="13.68918"><ele>194.0</ele><time>2026-04-30T10:14:19.146Z</time></trkpt><trkpt lat="45.7382317" lon="13.6893467"><ele>193.33333333333334</ele><time>2026-04-30T10:14:20.084Z</time></trkpt><trkpt lat="45.7381283" lon="13.6895167"><ele>192.66666666666669</ele><time>2026-04-30T10:14:21.025Z</time></trkpt><trkpt lat="45.7380233" lon="13.689685"><ele>192.0</ele><time>2026-04-30T10:14:22.097Z</time></trkpt><trkpt lat="45.737915" lon="13.6898483"><ele>192.0</ele><time>2026-04-30T10:14:23.104Z</time></trkpt><trkpt lat="45.7378117" lon="13.6900067"><ele>192.0</ele><time>2026-04-30T10:14:24.112Z</time></trkpt><trkpt lat="45.7377183" lon="13.690155"><ele>192.0</ele><time>2026-04-30T10:14:25.117Z</time></trkpt><trkpt lat="45.7376283" lon="13.6903"><ele>192.0</ele><time>2026-04-30T10:14:26.058Z</time></trkpt><trkpt lat="45.73754" lon="13.6904483"><ele>192.75</ele><time>2026-04-30T10:14:27.132Z</time></trkpt><trkpt lat="45.73745" lon="13.6906"><ele>193.5</ele><time>2026-04-30T10:14:28.071Z</time></trkpt><trkpt lat="45.7373633" lon="13.690745"><ele>194.25</ele><time>2026-04-30T10:14:29.145Z</time></trkpt><trkpt lat="45.7372833" lon="13.69088"><ele>195.0</ele><time>2026-04-30T10:14:30.083Z</time></trkpt><trkpt lat="45.7372067" lon="13.6910117"><ele>194.25</ele><time>2026-04-30T10:14:31.09Z</time></trkpt><trkpt lat="45.7371317" lon="13.6911483"><ele>193.5</ele><time>2026-04-30T10:14:32.097Z</time></trkpt><trkpt lat="45.73706" lon="13.6912917"><ele>192.75</ele><time>2026-04-30T10:14:33.104Z</time></trkpt><trkpt lat="45.7369883" lon="13.6914383"><ele>192.0</ele><time>2026-04-30T10:14:34.11Z</time></trkpt><trkpt lat="45.7369183" lon="13.6915833"><ele>193.2</ele><time>2026-04-30T10:14:35.117Z</time></trkpt><trkpt lat="45.7368517" lon="13.69172"><ele>194.39999999999998</ele><time>2026-04-30T10:14:36.057Z</time></trkpt><trkpt lat="45.7367883" lon="13.6918467"><ele>195.60000000000002</ele><time>2026-04-30T10:14:37.13Z</time></trkpt><trkpt lat="45.736725" lon="13.6919667"><ele>196.8</ele><time>2026-04-30T10:14:38.069Z</time></trkpt><trkpt lat="45.7366617" lon="13.6920883"><ele>198.0</ele><time>2026-04-30T10:14:39.143Z</time></trkpt><trkpt lat="45.7365967" lon="13.692215"><ele>198.0</ele><time>2026-04-30T10:14:40.083Z</time></trkpt><trkpt lat="45.7365333" lon="13.6923533"><ele>198.0</ele><time>2026-04-30T10:14:41.09Z</time></trkpt><trkpt lat="45.7364683" lon="13.69249"><ele>198.0</ele><time>2026-04-30T10:14:42.096Z</time></trkpt><trkpt lat="45.736405" lon="13.6926267"><ele>198.0</ele><time>2026-04-30T10:14:43.103Z</time></trkpt><trkpt lat="45.73634" lon="13.6927633"><ele>197.5</ele><time>2026-04-30T10:14:44.109Z</time></trkpt><trkpt lat="45.736275" lon="13.6928983"><ele>197.0</ele><time>2026-04-30T10:14:45.116Z</time></trkpt><trkpt lat="45.736205" lon="13.69303"><ele>196.5</ele><time>2026-04-30T10:14:46.055Z</time></trkpt><trkpt lat="45.7361367" lon="13.6931583"><ele>196.0</ele><time>2026-04-30T10:14:47.129Z</time></trkpt><trkpt lat="45.736065" lon="13.6932917"><ele>197.25</ele><time>2026-04-30T10:14:48.07Z</time></trkpt><trkpt lat="45.735995" lon="13.6934383"><ele>198.5</ele><time>2026-04-30T10:14:49.076Z</time></trkpt><trkpt lat="45.7359233" lon="13.6935883"><ele>199.75</ele><time>2026-04-30T10:14:50.083Z</time></trkpt><trkpt lat="45.73585" lon="13.6937367"><ele>201.0</ele><time>2026-04-30T10:14:51.089Z</time></trkpt><trkpt lat="45.735775" lon="13.693885"><ele>201.0</ele><time>2026-04-30T10:14:52.096Z</time></trkpt><trkpt lat="45.7356983" lon="13.6940283"><ele>201.0</ele><time>2026-04-30T10:14:53.103Z</time></trkpt><trkpt lat="45.735625" lon="13.6941717"><ele>201.0</ele><time>2026-04-30T10:14:54.042Z</time></trkpt><trkpt lat="45.7355533" lon="13.6943183"><ele>201.0</ele><time>2026-04-30T10:14:55.115Z</time></trkpt><trkpt lat="45.7354817" lon="13.694465"><ele>200.5</ele><time>2026-04-30T10:14:56.054Z</time></trkpt><trkpt lat="45.7354083" lon="13.6946117"><ele>200.0</ele><time>2026-04-30T10:14:57.129Z</time></trkpt><trkpt lat="45.7353283" lon="13.6947583"><ele>199.5</ele><time>2026-04-30T10:14:58.069Z</time></trkpt><trkpt lat="45.7352467" lon="13.6949083"><ele>199.0</ele><time>2026-04-30T10:14:59.075Z</time></trkpt><trkpt lat="45.7351617" lon="13.6950583"><ele>200.0</ele><time>2026-04-30T10:15:00.082Z</time></trkpt><trkpt lat="45.7350767" lon="13.6952133"><ele>201.0</ele><time>2026-04-30T10:15:01.088Z</time></trkpt><trkpt lat="45.7349883" lon="13.6953717"><ele>202.0</ele><time>2026-04-30T10:15:02.095Z</time></trkpt><trkpt lat="45.7349017" lon="13.69553"><ele>203.0</ele><time>2026-04-30T10:15:03.101Z</time></trkpt><trkpt lat="45.734815" lon="13.6956883"><ele>203.0</ele><time>2026-04-30T10:15:04.041Z</time></trkpt><trkpt lat="45.734735" lon="13.6958383"><ele>203.0</ele><time>2026-04-30T10:15:05.114Z</time></trkpt><trkpt lat="45.7346617" lon="13.6959767"><ele>203.0</ele><time>2026-04-30T10:15:06.054Z</time></trkpt><trkpt lat="45.73459" lon="13.6961117"><ele>203.0</ele><time>2026-04-30T10:15:07.127Z</time></trkpt><trkpt lat="45.7345183" lon="13.6962433"><ele>202.75</ele><time>2026-04-30T10:15:08.067Z</time></trkpt><trkpt lat="45.734445" lon="13.69638"><ele>202.5</ele><time>2026-04-30T10:15:09.075Z</time></trkpt><trkpt lat="45.73437" lon="13.6965217"><ele>202.25</ele><time>2026-04-30T10:15:10.08Z</time></trkpt><trkpt lat="45.734295" lon="13.6966667"><ele>202.0</ele><time>2026-04-30T10:15:11.087Z</time></trkpt><trkpt lat="45.7342167" lon="13.696815"><ele>202.75</ele><time>2026-04-30T10:15:12.094Z</time></trkpt><trkpt lat="45.7341367" lon="13.6969667"><ele>203.5</ele><time>2026-04-30T10:15:13.1Z</time></trkpt><trkpt lat="45.7340567" lon="13.6971217"><ele>204.25</ele><time>2026-04-30T10:15:14.04Z</time></trkpt><trkpt lat="45.733975" lon="13.69728"><ele>205.0</ele><time>2026-04-30T10:15:15.113Z</time></trkpt><trkpt lat="45.7338867" lon="13.6974383"><ele>205.0</ele><time>2026-04-30T10:15:16.053Z</time></trkpt><trkpt lat="45.7338" lon="13.6975983"><ele>205.0</ele><time>2026-04-30T10:15:17.127Z</time></trkpt><trkpt lat="45.7337117" lon="13.6977617"><ele>205.0</ele><time>2026-04-30T10:15:18.066Z</time></trkpt><trkpt lat="45.7336233" lon="13.6979233"><ele>205.0</ele><time>2026-04-30T10:15:19.074Z</time></trkpt><trkpt lat="45.7335333" lon="13.6980933"><ele>206.25</ele><time>2026-04-30T10:15:20.079Z</time></trkpt><trkpt lat="45.7334433" lon="13.6982633"><ele>207.5</ele><time>2026-04-30T10:15:21.086Z</time></trkpt><trkpt lat="45.7333533" lon="13.6984367"><ele>208.75</ele><time>2026-04-30T10:15:22.093Z</time></trkpt><trkpt lat="45.7332633" lon="13.6986033"><ele>210.0</ele><time>2026-04-30T10:15:23.1Z</time></trkpt><trkpt lat="45.733175" lon="13.698765"><ele>210.0</ele><time>2026-04-30T10:15:24.039Z</time></trkpt><trkpt lat="45.7330867" lon="13.69892"><ele>210.0</ele><time>2026-04-30T10:15:25.113Z</time></trkpt><trkpt lat="45.733" lon="13.6990783"><ele>210.0</ele><time>2026-04-30T10:15:26.052Z</time></trkpt><trkpt lat="45.7329133" lon="13.6992383"><ele>210.0</ele><time>2026-04-30T10:15:27.126Z</time></trkpt><trkpt lat="45.7328267" lon="13.6994"><ele>210.0</ele><time>2026-04-30T10:15:28.065Z</time></trkpt><trkpt lat="45.7327367" lon="13.699565"><ele>210.0</ele><time>2026-04-30T10:15:29.073Z</time></trkpt><trkpt lat="45.7326467" lon="13.6997333"><ele>210.0</ele><time>2026-04-30T10:15:30.08Z</time></trkpt><trkpt lat="45.7325533" lon="13.69991"><ele>210.0</ele><time>2026-04-30T10:15:31.086Z</time></trkpt><trkpt lat="45.7324567" lon="13.700095"><ele>210.0</ele><time>2026-04-30T10:15:32.092Z</time></trkpt><trkpt lat="45.7323583" lon="13.7002883"><ele>210.0</ele><time>2026-04-30T10:15:33.1Z</time></trkpt><trkpt lat="45.732255" lon="13.7004783"><ele>210.0</ele><time>2026-04-30T10:15:34.038Z</time></trkpt><trkpt lat="45.732055" lon="13.70086"><ele>210.0</ele><time>2026-04-30T10:15:36.051Z</time></trkpt><trkpt lat="45.731955" lon="13.7010433"><ele>210.0</ele><time>2026-04-30T10:15:37.125Z</time></trkpt><trkpt lat="45.731855" lon="13.7012233"><ele>210.0</ele><time>2026-04-30T10:15:38.065Z</time></trkpt><trkpt lat="45.7317567" lon="13.7014033"><ele>210.66666666666669</ele><time>2026-04-30T10:15:39.072Z</time></trkpt><trkpt lat="45.73166" lon="13.7015817"><ele>211.33333333333334</ele><time>2026-04-30T10:15:40.078Z</time></trkpt><trkpt lat="45.731565" lon="13.7017617"><ele>212.0</ele><time>2026-04-30T10:15:41.085Z</time></trkpt><trkpt lat="45.7314683" lon="13.701945"><ele>212.0</ele><time>2026-04-30T10:15:42.092Z</time></trkpt><trkpt lat="45.73137" lon="13.7021283"><ele>212.0</ele><time>2026-04-30T10:15:43.098Z</time></trkpt><trkpt lat="45.7312683" lon="13.7023183"><ele>212.0</ele><time>2026-04-30T10:15:44.037Z</time></trkpt><trkpt lat="45.731165" lon="13.7025083"><ele>212.0</ele><time>2026-04-30T10:15:45.111Z</time></trkpt><trkpt lat="45.7310617" lon="13.7027017"><ele>212.0</ele><time>2026-04-30T10:15:46.051Z</time></trkpt><trkpt lat="45.7309567" lon="13.702895"><ele>212.0</ele><time>2026-04-30T10:15:47.125Z</time></trkpt><trkpt lat="45.7308533" lon="13.7030883"><ele>212.0</ele><time>2026-04-30T10:15:48.065Z</time></trkpt><trkpt lat="45.73075" lon="13.7032833"><ele>212.0</ele><time>2026-04-30T10:15:49.07Z</time></trkpt><trkpt lat="45.730645" lon="13.703475"><ele>212.0</ele><time>2026-04-30T10:15:50.078Z</time></trkpt><trkpt lat="45.7305417" lon="13.703665"><ele>212.0</ele><time>2026-04-30T10:15:51.085Z</time></trkpt><trkpt lat="45.7304417" lon="13.7038533"><ele>212.0</ele><time>2026-04-30T10:15:52.091Z</time></trkpt><trkpt lat="45.7303417" lon="13.70404"><ele>212.0</ele><time>2026-04-30T10:15:53.098Z</time></trkpt><trkpt lat="45.7302433" lon="13.7042217"><ele>213.33333333333334</ele><time>2026-04-30T10:15:54.038Z</time></trkpt><trkpt lat="45.7301467" lon="13.7044033"><ele>214.66666666666669</ele><time>2026-04-30T10:15:55.11Z</time></trkpt><trkpt lat="45.73005" lon="13.7045833"><ele>216.0</ele><time>2026-04-30T10:15:56.05Z</time></trkpt><trkpt lat="45.729955" lon="13.7047667"><ele>216.0</ele><time>2026-04-30T10:15:57.124Z</time></trkpt><trkpt lat="45.7298617" lon="13.7049483"><ele>216.0</ele><time>2026-04-30T10:15:58.064Z</time></trkpt><trkpt lat="45.7297683" lon="13.70513"><ele>216.0</ele><time>2026-04-30T10:15:59.07Z</time></trkpt><trkpt lat="45.7296717" lon="13.70531"><ele>215.66666666666669</ele><time>2026-04-30T10:16:00.076Z</time></trkpt><trkpt lat="45.729575" lon="13.7054883"><ele>215.33333333333334</ele><time>2026-04-30T10:16:01.084Z</time></trkpt><trkpt lat="45.7294767" lon="13.7056667"><ele>215.0</ele><time>2026-04-30T10:16:02.09Z</time></trkpt><trkpt lat="45.72938" lon="13.7058417"><ele>216.0</ele><time>2026-04-30T10:16:03.097Z</time></trkpt><trkpt lat="45.729285" lon="13.7060133"><ele>217.0</ele><time>2026-04-30T10:16:04.037Z</time></trkpt><trkpt lat="45.7291867" lon="13.7061817"><ele>218.0</ele><time>2026-04-30T10:16:05.109Z</time></trkpt><trkpt lat="45.7290883" lon="13.7063583"><ele>218.0</ele><time>2026-04-30T10:16:06.049Z</time></trkpt><trkpt lat="45.7289933" lon="13.70654"><ele>218.0</ele><time>2026-04-30T10:16:07.123Z</time></trkpt><trkpt lat="45.7288933" lon="13.7067233"><ele>218.0</ele><time>2026-04-30T10:16:08.062Z</time></trkpt><trkpt lat="45.7287917" lon="13.7069067"><ele>218.33333333333334</ele><time>2026-04-30T10:16:09.069Z</time></trkpt><trkpt lat="45.7286883" lon="13.707095"><ele>218.66666666666669</ele><time>2026-04-30T10:16:10.076Z</time></trkpt><trkpt lat="45.7285867" lon="13.7072783"><ele>219.0</ele><time>2026-04-30T10:16:11.082Z</time></trkpt><trkpt lat="45.72849" lon="13.707455"><ele>219.0</ele><time>2026-04-30T10:16:12.157Z</time></trkpt><trkpt lat="45.7284017" lon="13.7076233"><ele>219.0</ele><time>2026-04-30T10:16:13.096Z</time></trkpt><trkpt lat="45.7283167" lon="13.7077883"><ele>219.0</ele><time>2026-04-30T10:16:14.035Z</time></trkpt><trkpt lat="45.72823" lon="13.7079533"><ele>219.0</ele><time>2026-04-30T10:16:15.11Z</time></trkpt><trkpt lat="45.7281417" lon="13.7081167"><ele>218.5</ele><time>2026-04-30T10:16:16.049Z</time></trkpt><trkpt lat="45.7280517" lon="13.70828"><ele>218.0</ele><time>2026-04-30T10:16:17.056Z</time></trkpt><trkpt lat="45.7279583" lon="13.708445"><ele>217.5</ele><time>2026-04-30T10:16:18.062Z</time></trkpt><trkpt lat="45.7278617" lon="13.7086183"><ele>217.0</ele><time>2026-04-30T10:16:19.068Z</time></trkpt><trkpt lat="45.7277633" lon="13.7088"><ele>217.66666666666666</ele><time>2026-04-30T10:16:20.143Z</time></trkpt><trkpt lat="45.7276633" lon="13.7089867"><ele>218.33333333333331</ele><time>2026-04-30T10:16:21.082Z</time></trkpt><trkpt lat="45.7275617" lon="13.7091767"><ele>219.0</ele><time>2026-04-30T10:16:22.022Z</time></trkpt><trkpt lat="45.72746" lon="13.70937"><ele>219.0</ele><time>2026-04-30T10:16:23.096Z</time></trkpt><trkpt lat="45.727355" lon="13.7095667"><ele>219.0</ele><time>2026-04-30T10:16:24.035Z</time></trkpt><trkpt lat="45.72725" lon="13.709765"><ele>219.0</ele><time>2026-04-30T10:16:25.109Z</time></trkpt><trkpt lat="45.7271433" lon="13.70996"><ele>219.0</ele><time>2026-04-30T10:16:26.048Z</time></trkpt><trkpt lat="45.7270383" lon="13.710155"><ele>219.0</ele><time>2026-04-30T10:16:27.054Z</time></trkpt><trkpt lat="45.7269333" lon="13.71035"><ele>219.0</ele><time>2026-04-30T10:16:28.128Z</time></trkpt><trkpt lat="45.7268283" lon="13.7105433"><ele>220.33333333333331</ele><time>2026-04-30T10:16:29.067Z</time></trkpt><trkpt lat="45.726725" lon="13.7107383"><ele>221.66666666666666</ele><time>2026-04-30T10:16:30.142Z</time></trkpt><trkpt lat="45.7266233" lon="13.7109333"><ele>223.0</ele><time>2026-04-30T10:16:31.082Z</time></trkpt><trkpt lat="45.7265217" lon="13.711125"><ele>223.0</ele><time>2026-04-30T10:16:32.021Z</time></trkpt><trkpt lat="45.7264183" lon="13.711315"><ele>223.0</ele><time>2026-04-30T10:16:33.094Z</time></trkpt><trkpt lat="45.7263133" lon="13.7115067"><ele>223.0</ele><time>2026-04-30T10:16:34.033Z</time></trkpt><trkpt lat="45.7262083" lon="13.7117"><ele>223.0</ele><time>2026-04-30T10:16:35.108Z</time></trkpt><trkpt lat="45.7261" lon="13.7118933"><ele>223.0</ele><time>2026-04-30T10:16:36.048Z</time></trkpt><trkpt lat="45.72599" lon="13.7120883"><ele>223.0</ele><time>2026-04-30T10:16:37.054Z</time></trkpt><trkpt lat="45.7258783" lon="13.7122833"><ele>224.33333333333331</ele><time>2026-04-30T10:16:38.128Z</time></trkpt><trkpt lat="45.7257633" lon="13.7124783"><ele>225.66666666666669</ele><time>2026-04-30T10:16:39.067Z</time></trkpt><trkpt lat="45.725645" lon="13.712665"><ele>227.0</ele><time>2026-04-30T10:16:40.14Z</time></trkpt><trkpt lat="45.72553" lon="13.7128433"><ele>227.0</ele><time>2026-04-30T10:16:41.081Z</time></trkpt><trkpt lat="45.7254167" lon="13.713015"><ele>227.0</ele><time>2026-04-30T10:16:42.02Z</time></trkpt><trkpt lat="45.725305" lon="13.7131833"><ele>227.0</ele><time>2026-04-30T10:16:43.093Z</time></trkpt><trkpt lat="45.7251983" lon="13.7133483"><ele>228.33333333333334</ele><time>2026-04-30T10:16:44.034Z</time></trkpt><trkpt lat="45.7250917" lon="13.7135117"><ele>229.66666666666669</ele><time>2026-04-30T10:16:45.106Z</time></trkpt><trkpt lat="45.724985" lon="13.713675"><ele>231.0</ele><time>2026-04-30T10:16:46.113Z</time></trkpt><trkpt lat="45.724875" lon="13.71384"><ele>231.0</ele><time>2026-04-30T10:16:47.053Z</time></trkpt><trkpt lat="45.724765" lon="13.7140067"><ele>231.0</ele><time>2026-04-30T10:16:48.126Z</time></trkpt><trkpt lat="45.7246517" lon="13.7141717"><ele>231.0</ele><time>2026-04-30T10:16:49.066Z</time></trkpt><trkpt lat="45.72454" lon="13.7143417"><ele>230.66666666666669</ele><time>2026-04-30T10:16:50.141Z</time></trkpt><trkpt lat="45.7244283" lon="13.7145117"><ele>230.33333333333334</ele><time>2026-04-30T10:16:51.079Z</time></trkpt><trkpt lat="45.724315" lon="13.714685"><ele>230.0</ele><time>2026-04-30T10:16:52.02Z</time></trkpt><trkpt lat="45.7242017" lon="13.7148617"><ele>231.66666666666669</ele><time>2026-04-30T10:16:53.092Z</time></trkpt><trkpt lat="45.7240833" lon="13.7150367"><ele>233.33333333333331</ele><time>2026-04-30T10:16:54.099Z</time></trkpt><trkpt lat="45.7239633" lon="13.7152167"><ele>235.0</ele><time>2026-04-30T10:16:55.107Z</time></trkpt><trkpt lat="45.7238433" lon="13.7153983"><ele>235.0</ele><time>2026-04-30T10:16:56.112Z</time></trkpt><trkpt lat="45.7237217" lon="13.7155833"><ele>235.0</ele><time>2026-04-30T10:16:57.053Z</time></trkpt><trkpt lat="45.7236" lon="13.7157683"><ele>235.0</ele><time>2026-04-30T10:16:58.126Z</time></trkpt><trkpt lat="45.723485" lon="13.7159433"><ele>235.5</ele><time>2026-04-30T10:16:59.066Z</time></trkpt><trkpt lat="45.7233767" lon="13.7161083"><ele>236.0</ele><time>2026-04-30T10:17:00.14Z</time></trkpt><trkpt lat="45.723275" lon="13.7162617"><ele>236.5</ele><time>2026-04-30T10:17:01.079Z</time></trkpt><trkpt lat="45.7231783" lon="13.716405"><ele>237.0</ele><time>2026-04-30T10:17:02.085Z</time></trkpt><trkpt lat="45.723085" lon="13.7165433"><ele>237.0</ele><time>2026-04-30T10:17:03.093Z</time></trkpt><trkpt lat="45.72299" lon="13.7166833"><ele>237.0</ele><time>2026-04-30T10:17:04.098Z</time></trkpt><trkpt lat="45.7228933" lon="13.716825"><ele>237.0</ele><time>2026-04-30T10:17:05.106Z</time></trkpt><trkpt lat="45.7228017" lon="13.716965"><ele>237.0</ele><time>2026-04-30T10:17:06.111Z</time></trkpt><trkpt lat="45.7227167" lon="13.7170967"><ele>237.75</ele><time>2026-04-30T10:17:07.051Z</time></trkpt><trkpt lat="45.722635" lon="13.717225"><ele>238.5</ele><time>2026-04-30T10:17:08.125Z</time></trkpt><trkpt lat="45.722555" lon="13.7173467"><ele>239.25</ele><time>2026-04-30T10:17:09.064Z</time></trkpt><trkpt lat="45.7224783" lon="13.71747"><ele>240.0</ele><time>2026-04-30T10:17:10.139Z</time></trkpt><trkpt lat="45.7223983" lon="13.7175917"><ele>240.0</ele><time>2026-04-30T10:17:11.078Z</time></trkpt><trkpt lat="45.7223167" lon="13.71772"><ele>240.0</ele><time>2026-04-30T10:17:12.084Z</time></trkpt><trkpt lat="45.7222367" lon="13.7178433"><ele>240.0</ele><time>2026-04-30T10:17:13.092Z</time></trkpt><trkpt lat="45.72216" lon="13.71796"><ele>240.0</ele><time>2026-04-30T10:17:14.098Z</time></trkpt><trkpt lat="45.7220933" lon="13.7180583"><ele>240.0</ele><time>2026-04-30T10:17:15.104Z</time></trkpt><trkpt lat="45.722035" lon="13.7181317"><ele>240.2</ele><time>2026-04-30T10:17:16.111Z</time></trkpt><trkpt lat="45.7219567" lon="13.7182133"><ele>240.4</ele><time>2026-04-30T10:17:18.124Z</time></trkpt><trkpt lat="45.7218917" lon="13.71835"><ele>240.60000000000002</ele><time>2026-04-30T10:18:15.033Z</time></trkpt><trkpt lat="45.7218567" lon="13.71848"><ele>240.8</ele><time>2026-04-30T10:19:57.105Z</time></trkpt><trkpt lat="45.72181" lon="13.7185517"><ele>241.0</ele><time>2026-04-30T10:19:58.044Z</time></trkpt><trkpt lat="45.721755" lon="13.7186333"><ele>241.0</ele><time>2026-04-30T10:19:59.119Z</time></trkpt><trkpt lat="45.7216917" lon="13.71873"><ele>241.00000000000003</ele><time>2026-04-30T10:20:00.058Z</time></trkpt><trkpt lat="45.72162" lon="13.7188367"><ele>241.00000000000003</ele><time>2026-04-30T10:20:01.132Z</time></trkpt><trkpt lat="45.7215417" lon="13.7189533"><ele>241.0</ele><time>2026-04-30T10:20:02.071Z</time></trkpt><trkpt lat="45.72145" lon="13.7190867"><ele>241.0</ele><time>2026-04-30T10:20:03.078Z</time></trkpt><trkpt lat="45.72135" lon="13.7192333"><ele>241.0</ele><time>2026-04-30T10:20:04.084Z</time></trkpt><trkpt lat="45.72124" lon="13.7193933"><ele>241.0</ele><time>2026-04-30T10:20:05.091Z</time></trkpt><trkpt lat="45.7211217" lon="13.719565"><ele>241.0</ele><time>2026-04-30T10:20:06.098Z</time></trkpt><trkpt lat="45.7210067" lon="13.719745"><ele>240.0</ele><time>2026-04-30T10:20:07.104Z</time></trkpt><trkpt lat="45.7208867" lon="13.719935"><ele>239.0</ele><time>2026-04-30T10:20:08.044Z</time></trkpt><trkpt lat="45.720765" lon="13.7201317"><ele>238.0</ele><time>2026-04-30T10:20:09.117Z</time></trkpt><trkpt lat="45.72064" lon="13.7203283"><ele>237.33333333333331</ele><time>2026-04-30T10:20:10.058Z</time></trkpt><trkpt lat="45.72051" lon="13.7205233"><ele>236.66666666666669</ele><time>2026-04-30T10:20:11.131Z</time></trkpt><trkpt lat="45.7203767" lon="13.7207233"><ele>236.0</ele><time>2026-04-30T10:20:12.071Z</time></trkpt><trkpt lat="45.7202417" lon="13.7209183"><ele>236.0</ele><time>2026-04-30T10:20:13.078Z</time></trkpt><trkpt lat="45.7201017" lon="13.72111"><ele>236.0</ele><time>2026-04-30T10:20:14.084Z</time></trkpt><trkpt lat="45.7199567" lon="13.7212967"><ele>236.0</ele><time>2026-04-30T10:20:15.09Z</time></trkpt><trkpt lat="45.71981" lon="13.7214817"><ele>236.0</ele><time>2026-04-30T10:20:16.097Z</time></trkpt><trkpt lat="45.719665" lon="13.7216633"><ele>236.0</ele><time>2026-04-30T10:20:17.104Z</time></trkpt><trkpt lat="45.7195183" lon="13.721845"><ele>236.0</ele><time>2026-04-30T10:20:18.044Z</time></trkpt><trkpt lat="45.7193717" lon="13.7220283"><ele>237.0</ele><time>2026-04-30T10:20:19.118Z</time></trkpt><trkpt lat="45.7192283" lon="13.72221"><ele>238.0</ele><time>2026-04-30T10:20:20.056Z</time></trkpt><trkpt lat="45.71909" lon="13.7223867"><ele>239.0</ele><time>2026-04-30T10:20:21.13Z</time></trkpt><trkpt lat="45.7189517" lon="13.72256"><ele>239.0</ele><time>2026-04-30T10:20:22.07Z</time></trkpt><trkpt lat="45.7188133" lon="13.722735"><ele>239.0</ele><time>2026-04-30T10:20:23.076Z</time></trkpt><trkpt lat="45.7186717" lon="13.7229133"><ele>239.0</ele><time>2026-04-30T10:20:24.084Z</time></trkpt><trkpt lat="45.7185317" lon="13.7230917"><ele>239.0</ele><time>2026-04-30T10:20:25.089Z</time></trkpt><trkpt lat="45.71839" lon="13.723275"><ele>239.0</ele><time>2026-04-30T10:20:26.097Z</time></trkpt><trkpt lat="45.7182467" lon="13.72346"><ele>239.0</ele><time>2026-04-30T10:20:27.104Z</time></trkpt><trkpt lat="45.7181033" lon="13.723645"><ele>239.0</ele><time>2026-04-30T10:20:28.042Z</time></trkpt><trkpt lat="45.7179583" lon="13.7238283"><ele>239.0</ele><time>2026-04-30T10:20:29.117Z</time></trkpt><trkpt lat="45.7178133" lon="13.7240083"><ele>239.0</ele><time>2026-04-30T10:20:30.055Z</time></trkpt><trkpt lat="45.7176717" lon="13.7241867"><ele>239.0</ele><time>2026-04-30T10:20:31.13Z</time></trkpt><trkpt lat="45.7175317" lon="13.724365"><ele>239.0</ele><time>2026-04-30T10:20:32.069Z</time></trkpt><trkpt lat="45.7173983" lon="13.7245283"><ele>239.0</ele><time>2026-04-30T10:20:33.076Z</time></trkpt><trkpt lat="45.7172733" lon="13.7246883"><ele>238.0</ele><time>2026-04-30T10:20:34.082Z</time></trkpt><trkpt lat="45.71715" lon="13.724845"><ele>237.0</ele><time>2026-04-30T10:20:35.089Z</time></trkpt><trkpt lat="45.717025" lon="13.7249983"><ele>236.0</ele><time>2026-04-30T10:20:36.095Z</time></trkpt><trkpt lat="45.7169033" lon="13.7251517"><ele>236.66666666666669</ele><time>2026-04-30T10:20:37.102Z</time></trkpt><trkpt lat="45.7167833" lon="13.7253083"><ele>237.33333333333331</ele><time>2026-04-30T10:20:38.041Z</time></trkpt><trkpt lat="45.71666" lon="13.7254617"><ele>238.0</ele><time>2026-04-30T10:20:39.115Z</time></trkpt><trkpt lat="45.7165383" lon="13.72561"><ele>238.0</ele><time>2026-04-30T10:20:40.055Z</time></trkpt><trkpt lat="45.71642" lon="13.7257617"><ele>238.0</ele><time>2026-04-30T10:20:41.129Z</time></trkpt><trkpt lat="45.7163017" lon="13.72591"><ele>238.0</ele><time>2026-04-30T10:20:42.069Z</time></trkpt><trkpt lat="45.7161883" lon="13.7260583"><ele>237.66666666666666</ele><time>2026-04-30T10:20:43.074Z</time></trkpt><trkpt lat="45.7160733" lon="13.726205"><ele>237.33333333333331</ele><time>2026-04-30T10:20:44.081Z</time></trkpt><trkpt lat="45.71596" lon="13.7263533"><ele>237.0</ele><time>2026-04-30T10:20:45.088Z</time></trkpt><trkpt lat="45.7158467" lon="13.7265017"><ele>237.0</ele><time>2026-04-30T10:20:46.027Z</time></trkpt><trkpt lat="45.71573" lon="13.72664"><ele>237.0</ele><time>2026-04-30T10:20:47.102Z</time></trkpt><trkpt lat="45.7156183" lon="13.726775"><ele>237.0</ele><time>2026-04-30T10:20:48.041Z</time></trkpt><trkpt lat="45.7155083" lon="13.7269083"><ele>237.0</ele><time>2026-04-30T10:20:49.115Z</time></trkpt><trkpt lat="45.7154083" lon="13.7270333"><ele>236.5</ele><time>2026-04-30T10:20:50.054Z</time></trkpt><trkpt lat="45.7153117" lon="13.727155"><ele>236.0</ele><time>2026-04-30T10:20:51.06Z</time></trkpt><trkpt lat="45.7152183" lon="13.72727"><ele>235.5</ele><time>2026-04-30T10:20:52.067Z</time></trkpt><trkpt lat="45.7151283" lon="13.72738"><ele>235.0</ele><time>2026-04-30T10:20:53.074Z</time></trkpt><trkpt lat="45.7150433" lon="13.727485"><ele>236.0</ele><time>2026-04-30T10:20:54.081Z</time></trkpt><trkpt lat="45.7149567" lon="13.727585"><ele>237.0</ele><time>2026-04-30T10:20:55.087Z</time></trkpt><trkpt lat="45.714785" lon="13.7277433"><ele>238.0</ele><time>2026-04-30T10:20:57.101Z</time></trkpt><trkpt lat="45.71469" lon="13.7278217"><ele>239.0</ele><time>2026-04-30T10:20:58.04Z</time></trkpt><trkpt lat="45.7145867" lon="13.7279"><ele>239.0</ele><time>2026-04-30T10:20:59.113Z</time></trkpt><trkpt lat="45.7144717" lon="13.727975"><ele>239.0</ele><time>2026-04-30T10:21:00.054Z</time></trkpt><trkpt lat="45.7143467" lon="13.72804"><ele>239.0</ele><time>2026-04-30T10:21:01.061Z</time></trkpt><trkpt lat="45.7142067" lon="13.7280867"><ele>239.0</ele><time>2026-04-30T10:21:02.066Z</time></trkpt><trkpt lat="45.7140633" lon="13.72813"><ele>239.0</ele><time>2026-04-30T10:21:03.074Z</time></trkpt><trkpt lat="45.71391" lon="13.7281783"><ele>239.0</ele><time>2026-04-30T10:21:04.079Z</time></trkpt><trkpt lat="45.7137483" lon="13.7282267"><ele>239.0</ele><time>2026-04-30T10:21:05.086Z</time></trkpt><trkpt lat="45.71358" lon="13.7282783"><ele>238.66666666666669</ele><time>2026-04-30T10:21:06.027Z</time></trkpt><trkpt lat="45.7134083" lon="13.728335"><ele>238.33333333333331</ele><time>2026-04-30T10:21:07.1Z</time></trkpt><trkpt lat="45.7132317" lon="13.728385"><ele>238.0</ele><time>2026-04-30T10:21:08.04Z</time></trkpt><trkpt lat="45.7128817" lon="13.7284867"><ele>238.66666666666666</ele><time>2026-04-30T10:21:10.052Z</time></trkpt><trkpt lat="45.7127117" lon="13.7285367"><ele>239.33333333333331</ele><time>2026-04-30T10:21:11.059Z</time></trkpt><trkpt lat="45.71254" lon="13.72859"><ele>240.0</ele><time>2026-04-30T10:21:12.066Z</time></trkpt><trkpt lat="45.71237" lon="13.7286467"><ele>240.0</ele><time>2026-04-30T10:21:13.073Z</time></trkpt><trkpt lat="45.7122017" lon="13.7287083"><ele>240.0</ele><time>2026-04-30T10:21:14.146Z</time></trkpt><trkpt lat="45.712035" lon="13.7287717"><ele>240.0</ele><time>2026-04-30T10:21:15.085Z</time></trkpt><trkpt lat="45.7118683" lon="13.7288367"><ele>240.66666666666669</ele><time>2026-04-30T10:21:16.026Z</time></trkpt><trkpt lat="45.7117" lon="13.728905"><ele>241.33333333333334</ele><time>2026-04-30T10:21:17.1Z</time></trkpt><trkpt lat="45.7115267" lon="13.72897"><ele>242.0</ele><time>2026-04-30T10:21:18.038Z</time></trkpt><trkpt lat="45.7113483" lon="13.7290267"><ele>242.0</ele><time>2026-04-30T10:21:19.112Z</time></trkpt><trkpt lat="45.7111617" lon="13.7290833"><ele>242.0</ele><time>2026-04-30T10:21:20.051Z</time></trkpt><trkpt lat="45.7109667" lon="13.7291433"><ele>242.0</ele><time>2026-04-30T10:21:21.059Z</time></trkpt><trkpt lat="45.7107667" lon="13.7292083"><ele>242.0</ele><time>2026-04-30T10:21:22.133Z</time></trkpt><trkpt lat="45.7105717" lon="13.7292717"><ele>242.0</ele><time>2026-04-30T10:21:23.071Z</time></trkpt><trkpt lat="45.7103883" lon="13.72933"><ele>242.0</ele><time>2026-04-30T10:21:24.145Z</time></trkpt><trkpt lat="45.7102133" lon="13.7293867"><ele>243.66666666666669</ele><time>2026-04-30T10:21:25.086Z</time></trkpt><trkpt lat="45.7100433" lon="13.7294433"><ele>245.33333333333331</ele><time>2026-04-30T10:21:26.025Z</time></trkpt><trkpt lat="45.709875" lon="13.7295017"><ele>247.0</ele><time>2026-04-30T10:21:27.098Z</time></trkpt><trkpt lat="45.70971" lon="13.7295617"><ele>247.0</ele><time>2026-04-30T10:21:28.037Z</time></trkpt><trkpt lat="45.70956" lon="13.7296167"><ele>247.0</ele><time>2026-04-30T10:21:29.112Z</time></trkpt><trkpt lat="45.7094217" lon="13.7296767"><ele>247.0</ele><time>2026-04-30T10:21:30.118Z</time></trkpt><trkpt lat="45.7093017" lon="13.7297517"><ele>247.0</ele><time>2026-04-30T10:21:31.057Z</time></trkpt><trkpt lat="45.7091917" lon="13.7298533"><ele>247.75</ele><time>2026-04-30T10:21:32.131Z</time></trkpt><trkpt lat="45.7090817" lon="13.7299767"><ele>248.5</ele><time>2026-04-30T10:21:33.071Z</time></trkpt><trkpt lat="45.708965" lon="13.7301117"><ele>249.25</ele><time>2026-04-30T10:21:34.144Z</time></trkpt><trkpt lat="45.70885" lon="13.730245"><ele>250.0</ele><time>2026-04-30T10:21:35.084Z</time></trkpt><trkpt lat="45.7087417" lon="13.7303833"><ele>250.25</ele><time>2026-04-30T10:21:36.024Z</time></trkpt><trkpt lat="45.7086433" lon="13.730505"><ele>250.5</ele><time>2026-04-30T10:21:37.097Z</time></trkpt><trkpt lat="45.7085567" lon="13.7306233"><ele>250.75</ele><time>2026-04-30T10:21:38.038Z</time></trkpt><trkpt lat="45.7084817" lon="13.7307533"><ele>251.0</ele><time>2026-04-30T10:21:39.111Z</time></trkpt><trkpt lat="45.7084233" lon="13.7308967"><ele>251.5</ele><time>2026-04-30T10:21:40.118Z</time></trkpt><trkpt lat="45.7083783" lon="13.7310567"><ele>252.0</ele><time>2026-04-30T10:21:41.056Z</time></trkpt><trkpt lat="45.7083367" lon="13.7312183"><ele>252.5</ele><time>2026-04-30T10:21:42.131Z</time></trkpt><trkpt lat="45.7083017" lon="13.7313767"><ele>253.0</ele><time>2026-04-30T10:21:43.071Z</time></trkpt><trkpt lat="45.7082667" lon="13.7315267"><ele>253.0</ele><time>2026-04-30T10:21:44.144Z</time></trkpt><trkpt lat="45.708235" lon="13.7316633"><ele>253.0</ele><time>2026-04-30T10:21:45.084Z</time></trkpt><trkpt lat="45.7082133" lon="13.7317917"><ele>253.0</ele><time>2026-04-30T10:21:46.023Z</time></trkpt><trkpt lat="45.7081967" lon="13.7319167"><ele>253.0</ele><time>2026-04-30T10:21:47.096Z</time></trkpt><trkpt lat="45.7081717" lon="13.7320383"><ele>253.0</ele><time>2026-04-30T10:21:48.103Z</time></trkpt><trkpt lat="45.7081483" lon="13.7321583"><ele>252.66666666666666</ele><time>2026-04-30T10:21:49.11Z</time></trkpt><trkpt lat="45.70813" lon="13.7322733"><ele>252.33333333333331</ele><time>2026-04-30T10:21:50.116Z</time></trkpt><trkpt lat="45.708115" lon="13.73238"><ele>252.0</ele><time>2026-04-30T10:21:51.056Z</time></trkpt><trkpt lat="45.7081083" lon="13.7324817"><ele>251.66666666666669</ele><time>2026-04-30T10:21:52.129Z</time></trkpt><trkpt lat="45.7081083" lon="13.7325833"><ele>251.33333333333334</ele><time>2026-04-30T10:21:53.069Z</time></trkpt><trkpt lat="45.708095" lon="13.7327417"><ele>251.0</ele><time>2026-04-30T10:21:55.082Z</time></trkpt><trkpt lat="45.7080833" lon="13.73298"><ele>251.0</ele><time>2026-04-30T10:22:11.055Z</time></trkpt><trkpt lat="45.7080917" lon="13.7331333"><ele>251.00000000000003</ele><time>2026-04-30T10:22:13.067Z</time></trkpt><trkpt lat="45.70809" lon="13.7332733"><ele>251.00000000000003</ele><time>2026-04-30T10:22:15.082Z</time></trkpt><trkpt lat="45.7080867" lon="13.73344"><ele>251.0</ele><time>2026-04-30T10:22:17.095Z</time></trkpt><trkpt lat="45.7080833" lon="13.7335383"><ele>251.0</ele><time>2026-04-30T10:22:18.101Z</time></trkpt><trkpt lat="45.7080767" lon="13.7336483"><ele>250.83333333333334</ele><time>2026-04-30T10:22:19.041Z</time></trkpt><trkpt lat="45.7080733" lon="13.7337667"><ele>250.66666666666669</ele><time>2026-04-30T10:22:20.114Z</time></trkpt><trkpt lat="45.708075" lon="13.7338867"><ele>250.5</ele><time>2026-04-30T10:22:21.054Z</time></trkpt><trkpt lat="45.7080683" lon="13.7340033"><ele>250.33333333333331</ele><time>2026-04-30T10:22:22.127Z</time></trkpt><trkpt lat="45.708055" lon="13.7341217"><ele>250.16666666666666</ele><time>2026-04-30T10:22:23.067Z</time></trkpt><trkpt lat="45.7080333" lon="13.7342567"><ele>250.0</ele><time>2026-04-30T10:22:24.074Z</time></trkpt><trkpt lat="45.7080133" lon="13.73441"><ele>249.75</ele><time>2026-04-30T10:22:25.08Z</time></trkpt><trkpt lat="45.7079917" lon="13.73458"><ele>249.5</ele><time>2026-04-30T10:22:26.087Z</time></trkpt><trkpt lat="45.7079633" lon="13.7347533"><ele>249.25</ele><time>2026-04-30T10:22:27.093Z</time></trkpt><trkpt lat="45.70792" lon="13.734945"><ele>249.0</ele><time>2026-04-30T10:22:28.101Z</time></trkpt><trkpt lat="45.7078683" lon="13.73515"><ele>248.66666666666669</ele><time>2026-04-30T10:22:29.039Z</time></trkpt><trkpt lat="45.7078083" lon="13.7353533"><ele>248.33333333333334</ele><time>2026-04-30T10:22:30.114Z</time></trkpt><trkpt lat="45.7077417" lon="13.735565"><ele>248.0</ele><time>2026-04-30T10:22:31.054Z</time></trkpt><trkpt lat="45.7076683" lon="13.7357833"><ele>248.0</ele><time>2026-04-30T10:22:32.126Z</time></trkpt><trkpt lat="45.7075967" lon="13.736005"><ele>248.0</ele><time>2026-04-30T10:22:33.066Z</time></trkpt><trkpt lat="45.7075283" lon="13.7362267"><ele>248.0</ele><time>2026-04-30T10:22:34.072Z</time></trkpt><trkpt lat="45.7074717" lon="13.7364483"><ele>248.0</ele><time>2026-04-30T10:22:35.079Z</time></trkpt><trkpt lat="45.7074267" lon="13.7366733"><ele>248.0</ele><time>2026-04-30T10:22:36.086Z</time></trkpt><trkpt lat="45.7074" lon="13.7369067"><ele>248.0</ele><time>2026-04-30T10:22:37.092Z</time></trkpt><trkpt lat="45.7073933" lon="13.7371467"><ele>248.0</ele><time>2026-04-30T10:22:38.1Z</time></trkpt><trkpt lat="45.7074" lon="13.7373917"><ele>248.0</ele><time>2026-04-30T10:22:39.039Z</time></trkpt><trkpt lat="45.7074117" lon="13.7376383"><ele>248.0</ele><time>2026-04-30T10:22:40.112Z</time></trkpt><trkpt lat="45.7074283" lon="13.73788"><ele>248.0</ele><time>2026-04-30T10:22:41.052Z</time></trkpt><trkpt lat="45.707435" lon="13.7381217"><ele>248.0</ele><time>2026-04-30T10:22:42.127Z</time></trkpt><trkpt lat="45.707435" lon="13.7383583"><ele>248.0</ele><time>2026-04-30T10:22:43.065Z</time></trkpt><trkpt lat="45.7074233" lon="13.7385933"><ele>248.0</ele><time>2026-04-30T10:22:44.072Z</time></trkpt><trkpt lat="45.7073883" lon="13.738825"><ele>248.0</ele><time>2026-04-30T10:22:45.078Z</time></trkpt><trkpt lat="45.7073367" lon="13.739055"><ele>248.0</ele><time>2026-04-30T10:22:46.086Z</time></trkpt><trkpt lat="45.7072767" lon="13.7392917"><ele>248.33333333333334</ele><time>2026-04-30T10:22:47.092Z</time></trkpt><trkpt lat="45.7072133" lon="13.7395267"><ele>248.66666666666669</ele><time>2026-04-30T10:22:48.098Z</time></trkpt><trkpt lat="45.7071467" lon="13.73977"><ele>249.0</ele><time>2026-04-30T10:22:49.039Z</time></trkpt><trkpt lat="45.707085" lon="13.7400017"><ele>249.0</ele><time>2026-04-30T10:22:50.112Z</time></trkpt><trkpt lat="45.7070317" lon="13.7402133"><ele>249.0</ele><time>2026-04-30T10:22:51.052Z</time></trkpt><trkpt lat="45.7069883" lon="13.7404233"><ele>249.0</ele><time>2026-04-30T10:22:52.126Z</time></trkpt><trkpt lat="45.706965" lon="13.7406467"><ele>249.33333333333331</ele><time>2026-04-30T10:22:53.064Z</time></trkpt><trkpt lat="45.7069633" lon="13.7408783"><ele>249.66666666666666</ele><time>2026-04-30T10:22:54.071Z</time></trkpt><trkpt lat="45.7069733" lon="13.7411167"><ele>250.0</ele><time>2026-04-30T10:22:55.078Z</time></trkpt><trkpt lat="45.706985" lon="13.741355"><ele>250.0</ele><time>2026-04-30T10:22:56.085Z</time></trkpt><trkpt lat="45.7069983" lon="13.7415917"><ele>250.0</ele><time>2026-04-30T10:22:57.091Z</time></trkpt><trkpt lat="45.70701" lon="13.7418117"><ele>250.0</ele><time>2026-04-30T10:22:58.097Z</time></trkpt><trkpt lat="45.707025" lon="13.7420217"><ele>250.0</ele><time>2026-04-30T10:22:59.038Z</time></trkpt><trkpt lat="45.7070383" lon="13.74223"><ele>250.0</ele><time>2026-04-30T10:23:00.111Z</time></trkpt><trkpt lat="45.7070417" lon="13.7424433"><ele>250.0</ele><time>2026-04-30T10:23:01.05Z</time></trkpt><trkpt lat="45.7070367" lon="13.7426567"><ele>250.0</ele><time>2026-04-30T10:23:02.124Z</time></trkpt><trkpt lat="45.707015" lon="13.7428667"><ele>250.0</ele><time>2026-04-30T10:23:03.064Z</time></trkpt><trkpt lat="45.7069867" lon="13.7430683"><ele>250.0</ele><time>2026-04-30T10:23:04.071Z</time></trkpt><trkpt lat="45.7069567" lon="13.7432617"><ele>250.0</ele><time>2026-04-30T10:23:05.077Z</time></trkpt><trkpt lat="45.7069017" lon="13.7436067"><ele>250.2</ele><time>2026-04-30T10:23:07.09Z</time></trkpt><trkpt lat="45.7068717" lon="13.7437583"><ele>250.4</ele><time>2026-04-30T10:23:08.098Z</time></trkpt><trkpt lat="45.706835" lon="13.743905"><ele>250.60000000000002</ele><time>2026-04-30T10:23:09.037Z</time></trkpt><trkpt lat="45.7067933" lon="13.7440483"><ele>250.8</ele><time>2026-04-30T10:23:10.11Z</time></trkpt><trkpt lat="45.706745" lon="13.74419"><ele>251.0</ele><time>2026-04-30T10:23:11.05Z</time></trkpt><trkpt lat="45.7066967" lon="13.74432"><ele>251.0</ele><time>2026-04-30T10:23:12.124Z</time></trkpt><trkpt lat="45.706645" lon="13.7444267"><ele>251.00000000000003</ele><time>2026-04-30T10:23:13.064Z</time></trkpt><trkpt lat="45.7066017" lon="13.7445117"><ele>251.00000000000003</ele><time>2026-04-30T10:23:14.069Z</time></trkpt><trkpt lat="45.7065317" lon="13.74463"><ele>251.0</ele><time>2026-04-30T10:23:16.084Z</time></trkpt><trkpt lat="45.7064733" lon="13.7447317"><ele>251.0</ele><time>2026-04-30T10:23:18.096Z</time></trkpt><trkpt lat="45.7064417" lon="13.744875"><ele>251.00000000000003</ele><time>2026-04-30T10:23:20.109Z</time></trkpt><trkpt lat="45.7064683" lon="13.7449983"><ele>251.0</ele><time>2026-04-30T10:23:22.123Z</time></trkpt><trkpt lat="45.7065167" lon="13.745075"><ele>251.0</ele><time>2026-04-30T10:23:25.076Z</time></trkpt><trkpt lat="45.7065683" lon="13.7451467"><ele>251.0</ele><time>2026-04-30T10:23:27.088Z</time></trkpt><trkpt lat="45.706645" lon="13.7452683"><ele>251.00000000000003</ele><time>2026-04-30T10:23:29.035Z</time></trkpt><trkpt lat="45.7066967" lon="13.7453433"><ele>251.0</ele><time>2026-04-30T10:23:30.108Z</time></trkpt><trkpt lat="45.70675" lon="13.7454217"><ele>250.4</ele><time>2026-04-30T10:23:31.048Z</time></trkpt><trkpt lat="45.7068017" lon="13.7454983"><ele>249.8</ele><time>2026-04-30T10:23:32.122Z</time></trkpt><trkpt lat="45.70685" lon="13.7455833"><ele>249.20000000000002</ele><time>2026-04-30T10:23:33.062Z</time></trkpt><trkpt lat="45.70689" lon="13.74566"><ele>248.60000000000002</ele><time>2026-04-30T10:23:34.069Z</time></trkpt><trkpt lat="45.706945" lon="13.7458017"><ele>248.0</ele><time>2026-04-30T10:23:36.081Z</time></trkpt><trkpt lat="45.7069617" lon="13.7459783"><ele>248.16666666666669</ele><time>2026-04-30T10:23:38.094Z</time></trkpt><trkpt lat="45.70695" lon="13.7460783"><ele>248.33333333333334</ele><time>2026-04-30T10:23:39.035Z</time></trkpt><trkpt lat="45.7069217" lon="13.74618"><ele>248.5</ele><time>2026-04-30T10:23:40.108Z</time></trkpt><trkpt lat="45.7068717" lon="13.7462817"><ele>248.66666666666669</ele><time>2026-04-30T10:23:41.048Z</time></trkpt><trkpt lat="45.7068083" lon="13.7463883"><ele>248.83333333333334</ele><time>2026-04-30T10:23:42.121Z</time></trkpt><trkpt lat="45.706735" lon="13.7465017"><ele>249.0</ele><time>2026-04-30T10:23:43.061Z</time></trkpt><trkpt lat="45.7066433" lon="13.7466367"><ele>249.0</ele><time>2026-04-30T10:23:44.067Z</time></trkpt><trkpt lat="45.7065417" lon="13.7467967"><ele>249.0</ele><time>2026-04-30T10:23:45.141Z</time></trkpt><trkpt lat="45.7064217" lon="13.7469833"><ele>249.0</ele><time>2026-04-30T10:23:46.08Z</time></trkpt><trkpt lat="45.7062867" lon="13.74718"><ele>249.66666666666669</ele><time>2026-04-30T10:23:47.021Z</time></trkpt><trkpt lat="45.70614" lon="13.747385"><ele>250.33333333333334</ele><time>2026-04-30T10:23:48.094Z</time></trkpt><trkpt lat="45.7059817" lon="13.7476067"><ele>251.0</ele><time>2026-04-30T10:23:49.034Z</time></trkpt><trkpt lat="45.7058183" lon="13.7478367"><ele>252.0</ele><time>2026-04-30T10:23:50.107Z</time></trkpt><trkpt lat="45.70565" lon="13.74808"><ele>253.0</ele><time>2026-04-30T10:23:51.047Z</time></trkpt><trkpt lat="45.7054783" lon="13.7483367"><ele>253.5</ele><time>2026-04-30T10:23:52.054Z</time></trkpt><trkpt lat="45.7053033" lon="13.7486083"><ele>254.0</ele><time>2026-04-30T10:23:53.127Z</time></trkpt><trkpt lat="45.70514" lon="13.7488633"><ele>256.0</ele><time>2026-04-30T10:23:54.067Z</time></trkpt><trkpt lat="45.7049867" lon="13.749105"><ele>258.0</ele><time>2026-04-30T10:23:55.141Z</time></trkpt><trkpt lat="45.7048367" lon="13.749345"><ele>259.0</ele><time>2026-04-30T10:23:56.081Z</time></trkpt><trkpt lat="45.7046933" lon="13.7495833"><ele>260.0</ele><time>2026-04-30T10:23:57.019Z</time></trkpt><trkpt lat="45.7045567" lon="13.7498167"><ele>261.0</ele><time>2026-04-30T10:23:58.094Z</time></trkpt><trkpt lat="45.704425" lon="13.7500467"><ele>261.6666666666667</ele><time>2026-04-30T10:23:59.032Z</time></trkpt><trkpt lat="45.704295" lon="13.7502767"><ele>262.33333333333337</ele><time>2026-04-30T10:24:00.107Z</time></trkpt><trkpt lat="45.7041667" lon="13.75051"><ele>263.0</ele><time>2026-04-30T10:24:01.113Z</time></trkpt><trkpt lat="45.7040417" lon="13.7507417"><ele>263.0</ele><time>2026-04-30T10:24:02.053Z</time></trkpt><trkpt lat="45.7039167" lon="13.7509717"><ele>263.0</ele><time>2026-04-30T10:24:03.126Z</time></trkpt><trkpt lat="45.703795" lon="13.7511983"><ele>263.0</ele><time>2026-04-30T10:24:04.065Z</time></trkpt><trkpt lat="45.7036767" lon="13.7514183"><ele>263.0</ele><time>2026-04-30T10:24:05.139Z</time></trkpt><trkpt lat="45.7035667" lon="13.75162"><ele>263.0</ele><time>2026-04-30T10:24:06.079Z</time></trkpt><trkpt lat="45.7034617" lon="13.7518117"><ele>263.0</ele><time>2026-04-30T10:24:07.018Z</time></trkpt><trkpt lat="45.70336" lon="13.7519983"><ele>263.6666666666667</ele><time>2026-04-30T10:24:08.092Z</time></trkpt><trkpt lat="45.7032583" lon="13.7521783"><ele>264.3333333333333</ele><time>2026-04-30T10:24:09.033Z</time></trkpt><trkpt lat="45.7031583" lon="13.7523533"><ele>265.0</ele><time>2026-04-30T10:24:10.106Z</time></trkpt><trkpt lat="45.7030567" lon="13.7525267"><ele>265.3333333333333</ele><time>2026-04-30T10:24:11.112Z</time></trkpt><trkpt lat="45.7029083" lon="13.7527467"><ele>265.6666666666667</ele><time>2026-04-30T10:24:12.052Z</time></trkpt><trkpt lat="45.7028233" lon="13.7529133"><ele>266.0</ele><time>2026-04-30T10:24:13.126Z</time></trkpt><trkpt lat="45.7027217" lon="13.7530933"><ele>266.0</ele><time>2026-04-30T10:24:14.066Z</time></trkpt><trkpt lat="45.7026367" lon="13.7532517"><ele>266.0</ele><time>2026-04-30T10:24:15.138Z</time></trkpt><trkpt lat="45.702545" lon="13.7534267"><ele>266.0</ele><time>2026-04-30T10:24:16.078Z</time></trkpt><trkpt lat="45.7024383" lon="13.7535883"><ele>266.0</ele><time>2026-04-30T10:24:17.017Z</time></trkpt><trkpt lat="45.7023417" lon="13.7537783"><ele>267.0</ele><time>2026-04-30T10:24:18.092Z</time></trkpt><trkpt lat="45.7022467" lon="13.7539567"><ele>268.0</ele><time>2026-04-30T10:24:19.098Z</time></trkpt><trkpt lat="45.7021517" lon="13.7541333"><ele>269.0</ele><time>2026-04-30T10:24:20.104Z</time></trkpt><trkpt lat="45.70206" lon="13.7543117"><ele>270.5</ele><time>2026-04-30T10:24:21.112Z</time></trkpt><trkpt lat="45.70197" lon="13.7544883"><ele>272.0</ele><time>2026-04-30T10:24:22.052Z</time></trkpt><trkpt lat="45.70188" lon="13.754655"><ele>273.5</ele><time>2026-04-30T10:24:23.124Z</time></trkpt><trkpt lat="45.7017883" lon="13.7548183"><ele>275.0</ele><time>2026-04-30T10:24:24.065Z</time></trkpt><trkpt lat="45.7017017" lon="13.7549833"><ele>276.25</ele><time>2026-04-30T10:24:25.139Z</time></trkpt><trkpt lat="45.7016133" lon="13.7551483"><ele>277.5</ele><time>2026-04-30T10:24:26.077Z</time></trkpt><trkpt lat="45.701525" lon="13.7553117"><ele>278.75</ele><time>2026-04-30T10:24:27.085Z</time></trkpt><trkpt lat="45.701435" lon="13.755475"><ele>280.0</ele><time>2026-04-30T10:24:28.09Z</time></trkpt><trkpt lat="45.7013417" lon="13.755635"><ele>280.0</ele><time>2026-04-30T10:24:29.098Z</time></trkpt><trkpt lat="45.70125" lon="13.7557983"><ele>280.0</ele><time>2026-04-30T10:24:30.104Z</time></trkpt><trkpt lat="45.701155" lon="13.755965"><ele>280.0</ele><time>2026-04-30T10:24:31.11Z</time></trkpt><trkpt lat="45.7010633" lon="13.756135"><ele>280.0</ele><time>2026-04-30T10:24:32.051Z</time></trkpt><trkpt lat="45.7009667" lon="13.7563067"><ele>281.0</ele><time>2026-04-30T10:24:33.125Z</time></trkpt><trkpt lat="45.70087" lon="13.756485"><ele>282.0</ele><time>2026-04-30T10:24:34.064Z</time></trkpt><trkpt lat="45.70077" lon="13.7566683"><ele>283.0</ele><time>2026-04-30T10:24:35.138Z</time></trkpt><trkpt lat="45.7006667" lon="13.75685"><ele>283.0</ele><time>2026-04-30T10:24:36.076Z</time></trkpt><trkpt lat="45.7005633" lon="13.757035"><ele>283.0</ele><time>2026-04-30T10:24:37.083Z</time></trkpt><trkpt lat="45.7004617" lon="13.75722"><ele>283.0</ele><time>2026-04-30T10:24:38.09Z</time></trkpt><trkpt lat="45.70036" lon="13.7574083"><ele>283.0</ele><time>2026-04-30T10:24:39.096Z</time></trkpt><trkpt lat="45.7002583" lon="13.7575983"><ele>283.0</ele><time>2026-04-30T10:24:40.103Z</time></trkpt><trkpt lat="45.7001533" lon="13.7577933"><ele>283.0</ele><time>2026-04-30T10:24:41.11Z</time></trkpt><trkpt lat="45.7000467" lon="13.75799"><ele>284.0</ele><time>2026-04-30T10:24:42.049Z</time></trkpt><trkpt lat="45.6999417" lon="13.758185"><ele>285.0</ele><time>2026-04-30T10:24:43.123Z</time></trkpt><trkpt lat="45.699835" lon="13.758375"><ele>286.0</ele><time>2026-04-30T10:24:44.062Z</time></trkpt><trkpt lat="45.6997267" lon="13.7585633"><ele>286.66666666666663</ele><time>2026-04-30T10:24:45.137Z</time></trkpt><trkpt lat="45.6996183" lon="13.7587467"><ele>287.3333333333333</ele><time>2026-04-30T10:24:46.076Z</time></trkpt><trkpt lat="45.6995083" lon="13.758935"><ele>288.0</ele><time>2026-04-30T10:24:47.082Z</time></trkpt><trkpt lat="45.6994" lon="13.7591333"><ele>288.0</ele><time>2026-04-30T10:24:48.089Z</time></trkpt><trkpt lat="45.6992933" lon="13.7593367"><ele>288.0</ele><time>2026-04-30T10:24:49.097Z</time></trkpt><trkpt lat="45.6991817" lon="13.7595483"><ele>288.0</ele><time>2026-04-30T10:24:50.103Z</time></trkpt><trkpt lat="45.6990683" lon="13.75976"><ele>288.0</ele><time>2026-04-30T10:24:51.109Z</time></trkpt><trkpt lat="45.6989517" lon="13.7599767"><ele>288.0</ele><time>2026-04-30T10:24:52.049Z</time></trkpt><trkpt lat="45.6988333" lon="13.7602"><ele>288.0</ele><time>2026-04-30T10:24:53.122Z</time></trkpt><trkpt lat="45.69871" lon="13.7604183"><ele>287.0</ele><time>2026-04-30T10:24:54.062Z</time></trkpt><trkpt lat="45.6985867" lon="13.76063"><ele>286.0</ele><time>2026-04-30T10:24:55.135Z</time></trkpt><trkpt lat="45.698465" lon="13.7608367"><ele>285.0</ele><time>2026-04-30T10:24:56.075Z</time></trkpt><trkpt lat="45.6983417" lon="13.76104"><ele>287.3333333333333</ele><time>2026-04-30T10:24:57.081Z</time></trkpt><trkpt lat="45.69822" lon="13.7612467"><ele>289.66666666666663</ele><time>2026-04-30T10:24:58.089Z</time></trkpt><trkpt lat="45.6981017" lon="13.7614467"><ele>292.0</ele><time>2026-04-30T10:24:59.096Z</time></trkpt><trkpt lat="45.6979883" lon="13.7616383"><ele>292.0</ele><time>2026-04-30T10:25:00.101Z</time></trkpt><trkpt lat="45.6978767" lon="13.7618217"><ele>292.0</ele><time>2026-04-30T10:25:01.108Z</time></trkpt><trkpt lat="45.6977667" lon="13.762"><ele>292.0</ele><time>2026-04-30T10:25:02.048Z</time></trkpt><trkpt lat="45.6976517" lon="13.7621767"><ele>293.66666666666663</ele><time>2026-04-30T10:25:03.122Z</time></trkpt><trkpt lat="45.697535" lon="13.762355"><ele>295.3333333333333</ele><time>2026-04-30T10:25:04.061Z</time></trkpt><trkpt lat="45.697415" lon="13.76254"><ele>297.0</ele><time>2026-04-30T10:25:05.136Z</time></trkpt><trkpt lat="45.69729" lon="13.7627267"><ele>297.3333333333333</ele><time>2026-04-30T10:25:06.075Z</time></trkpt><trkpt lat="45.6971583" lon="13.7629133"><ele>297.66666666666663</ele><time>2026-04-30T10:25:07.081Z</time></trkpt><trkpt lat="45.697025" lon="13.763105"><ele>298.0</ele><time>2026-04-30T10:25:08.087Z</time></trkpt><trkpt lat="45.696885" lon="13.763305"><ele>298.66666666666663</ele><time>2026-04-30T10:25:09.094Z</time></trkpt><trkpt lat="45.6967383" lon="13.7635067"><ele>299.3333333333333</ele><time>2026-04-30T10:25:10.101Z</time></trkpt><trkpt lat="45.6965817" lon="13.76371"><ele>300.0</ele><time>2026-04-30T10:25:11.107Z</time></trkpt><trkpt lat="45.6964167" lon="13.76391"><ele>300.0</ele><time>2026-04-30T10:25:12.048Z</time></trkpt><trkpt lat="45.696245" lon="13.7641117"><ele>300.0</ele><time>2026-04-30T10:25:13.12Z</time></trkpt><trkpt lat="45.6960717" lon="13.76432"><ele>300.0</ele><time>2026-04-30T10:25:14.061Z</time></trkpt><trkpt lat="45.695715" lon="13.7647317"><ele>303.0</ele><time>2026-04-30T10:25:16.073Z</time></trkpt><trkpt lat="45.695535" lon="13.7649333"><ele>306.0</ele><time>2026-04-30T10:25:17.081Z</time></trkpt><trkpt lat="45.6953567" lon="13.76513"><ele>308.6666666666667</ele><time>2026-04-30T10:25:18.087Z</time></trkpt><trkpt lat="45.6951767" lon="13.76532"><ele>311.33333333333337</ele><time>2026-04-30T10:25:19.094Z</time></trkpt><trkpt lat="45.6949967" lon="13.7655067"><ele>314.0</ele><time>2026-04-30T10:25:20.033Z</time></trkpt><trkpt lat="45.69481" lon="13.7656933"><ele>314.0</ele><time>2026-04-30T10:25:21.107Z</time></trkpt><trkpt lat="45.6946217" lon="13.7658817"><ele>314.0</ele><time>2026-04-30T10:25:22.047Z</time></trkpt><trkpt lat="45.6944333" lon="13.7660733"><ele>316.5</ele><time>2026-04-30T10:25:23.12Z</time></trkpt><trkpt lat="45.694245" lon="13.76627"><ele>319.0</ele><time>2026-04-30T10:25:24.059Z</time></trkpt><trkpt lat="45.6940567" lon="13.76647"><ele>319.0</ele><time>2026-04-30T10:25:25.066Z</time></trkpt><trkpt lat="45.6938667" lon="13.766665"><ele>319.0</ele><time>2026-04-30T10:25:26.073Z</time></trkpt><trkpt lat="45.693675" lon="13.76686"><ele>320.5</ele><time>2026-04-30T10:25:27.079Z</time></trkpt><trkpt lat="45.6934833" lon="13.7670517"><ele>322.0</ele><time>2026-04-30T10:25:28.086Z</time></trkpt><trkpt lat="45.693295" lon="13.7672383"><ele>322.0</ele><time>2026-04-30T10:25:29.092Z</time></trkpt><trkpt lat="45.6931167" lon="13.767415"><ele>322.0</ele><time>2026-04-30T10:25:30.032Z</time></trkpt><trkpt lat="45.6929467" lon="13.76759"><ele>322.0</ele><time>2026-04-30T10:25:31.106Z</time></trkpt><trkpt lat="45.6927817" lon="13.7677667"><ele>321.3333333333333</ele><time>2026-04-30T10:25:32.046Z</time></trkpt><trkpt lat="45.6926133" lon="13.7679383"><ele>320.6666666666667</ele><time>2026-04-30T10:25:33.12Z</time></trkpt><trkpt lat="45.6924417" lon="13.768115"><ele>320.0</ele><time>2026-04-30T10:25:34.058Z</time></trkpt><trkpt lat="45.69227" lon="13.76829"><ele>320.0</ele><time>2026-04-30T10:25:35.066Z</time></trkpt><trkpt lat="45.692095" lon="13.76847"><ele>320.0</ele><time>2026-04-30T10:25:36.073Z</time></trkpt><trkpt lat="45.6919167" lon="13.7686517"><ele>320.0</ele><time>2026-04-30T10:25:37.078Z</time></trkpt><trkpt lat="45.6917367" lon="13.76883"><ele>320.33333333333337</ele><time>2026-04-30T10:25:38.085Z</time></trkpt><trkpt lat="45.6915667" lon="13.769"><ele>320.6666666666667</ele><time>2026-04-30T10:25:39.092Z</time></trkpt><trkpt lat="45.6914067" lon="13.7691633"><ele>321.0</ele><time>2026-04-30T10:25:40.031Z</time></trkpt><trkpt lat="45.691255" lon="13.769315"><ele>320.6666666666667</ele><time>2026-04-30T10:25:41.105Z</time></trkpt><trkpt lat="45.6911117" lon="13.7694583"><ele>320.33333333333337</ele><time>2026-04-30T10:25:42.044Z</time></trkpt><trkpt lat="45.6909717" lon="13.7695983"><ele>320.0</ele><time>2026-04-30T10:25:43.118Z</time></trkpt><trkpt lat="45.69083" lon="13.7697383"><ele>320.0</ele><time>2026-04-30T10:25:44.059Z</time></trkpt><trkpt lat="45.6906917" lon="13.7698783"><ele>320.0</ele><time>2026-04-30T10:25:45.064Z</time></trkpt><trkpt lat="45.6905533" lon="13.7700167"><ele>320.0</ele><time>2026-04-30T10:25:46.071Z</time></trkpt><trkpt lat="45.6904133" lon="13.7701583"><ele>320.0</ele><time>2026-04-30T10:25:47.078Z</time></trkpt><trkpt lat="45.6902717" lon="13.7702983"><ele>320.0</ele><time>2026-04-30T10:25:48.084Z</time></trkpt><trkpt lat="45.6901283" lon="13.77044"><ele>320.0</ele><time>2026-04-30T10:25:49.091Z</time></trkpt><trkpt lat="45.6899833" lon="13.770585"><ele>319.6666666666667</ele><time>2026-04-30T10:25:50.03Z</time></trkpt><trkpt lat="45.6898383" lon="13.7707283"><ele>319.3333333333333</ele><time>2026-04-30T10:25:51.105Z</time></trkpt><trkpt lat="45.689695" lon="13.7708717"><ele>319.0</ele><time>2026-04-30T10:25:52.044Z</time></trkpt><trkpt lat="45.6895517" lon="13.7710133"><ele>320.66666666666663</ele><time>2026-04-30T10:25:53.118Z</time></trkpt><trkpt lat="45.6894133" lon="13.7711533"><ele>322.3333333333333</ele><time>2026-04-30T10:25:54.057Z</time></trkpt><trkpt lat="45.6892817" lon="13.7712867"><ele>324.0</ele><time>2026-04-30T10:25:55.064Z</time></trkpt><trkpt lat="45.6891533" lon="13.7714183"><ele>324.0</ele><time>2026-04-30T10:25:56.071Z</time></trkpt><trkpt lat="45.68903" lon="13.771545"><ele>324.0</ele><time>2026-04-30T10:25:57.077Z</time></trkpt><trkpt lat="45.6889067" lon="13.7716683"><ele>324.0</ele><time>2026-04-30T10:25:58.083Z</time></trkpt><trkpt lat="45.688785" lon="13.7717883"><ele>324.25</ele><time>2026-04-30T10:25:59.09Z</time></trkpt><trkpt lat="45.6886633" lon="13.77191"><ele>324.5</ele><time>2026-04-30T10:26:00.03Z</time></trkpt><trkpt lat="45.688545" lon="13.7720333"><ele>324.75</ele><time>2026-04-30T10:26:01.103Z</time></trkpt><trkpt lat="45.68843" lon="13.772155"><ele>325.0</ele><time>2026-04-30T10:26:02.044Z</time></trkpt><trkpt lat="45.688315" lon="13.7722767"><ele>326.0</ele><time>2026-04-30T10:26:03.117Z</time></trkpt><trkpt lat="45.6881983" lon="13.7723933"><ele>327.0</ele><time>2026-04-30T10:26:04.056Z</time></trkpt><trkpt lat="45.6880833" lon="13.77251"><ele>328.0</ele><time>2026-04-30T10:26:05.064Z</time></trkpt><trkpt lat="45.6879683" lon="13.772625"><ele>329.0</ele><time>2026-04-30T10:26:06.069Z</time></trkpt><trkpt lat="45.68786" lon="13.7727433"><ele>329.0</ele><time>2026-04-30T10:26:07.076Z</time></trkpt><trkpt lat="45.6877617" lon="13.7728617"><ele>329.0</ele><time>2026-04-30T10:26:08.15Z</time></trkpt><trkpt lat="45.687665" lon="13.7729883"><ele>329.0</ele><time>2026-04-30T10:26:09.09Z</time></trkpt><trkpt lat="45.68757" lon="13.773125"><ele>329.0</ele><time>2026-04-30T10:26:10.029Z</time></trkpt><trkpt lat="45.6874767" lon="13.7732717"><ele>332.5</ele><time>2026-04-30T10:26:11.103Z</time></trkpt><trkpt lat="45.6873817" lon="13.7734233"><ele>336.0</ele><time>2026-04-30T10:26:12.042Z</time></trkpt><trkpt lat="45.6872867" lon="13.77358"><ele>339.5</ele><time>2026-04-30T10:26:13.116Z</time></trkpt><trkpt lat="45.6871917" lon="13.7737367"><ele>343.0</ele><time>2026-04-30T10:26:14.056Z</time></trkpt><trkpt lat="45.6871017" lon="13.7738883"><ele>343.0</ele><time>2026-04-30T10:26:15.063Z</time></trkpt><trkpt lat="45.68702" lon="13.7740383"><ele>343.0</ele><time>2026-04-30T10:26:16.137Z</time></trkpt><trkpt lat="45.6869383" lon="13.7741833"><ele>343.0</ele><time>2026-04-30T10:26:17.075Z</time></trkpt><trkpt lat="45.6868617" lon="13.7743283"><ele>343.0</ele><time>2026-04-30T10:26:18.149Z</time></trkpt><trkpt lat="45.68672" lon="13.77463"><ele>343.0</ele><time>2026-04-30T10:26:20.028Z</time></trkpt><trkpt lat="45.6866533" lon="13.7747917"><ele>343.0</ele><time>2026-04-30T10:26:21.102Z</time></trkpt><trkpt lat="45.6865867" lon="13.7749583"><ele>343.0</ele><time>2026-04-30T10:26:22.041Z</time></trkpt><trkpt lat="45.6865183" lon="13.77513"><ele>343.0</ele><time>2026-04-30T10:26:23.115Z</time></trkpt><trkpt lat="45.686445" lon="13.7753033"><ele>343.0</ele><time>2026-04-30T10:26:24.122Z</time></trkpt><trkpt lat="45.6863683" lon="13.7754817"><ele>343.0</ele><time>2026-04-30T10:26:25.061Z</time></trkpt><trkpt lat="45.68629" lon="13.775665"><ele>343.0</ele><time>2026-04-30T10:26:26.136Z</time></trkpt><trkpt lat="45.68621" lon="13.775855"><ele>342.66666666666663</ele><time>2026-04-30T10:26:27.074Z</time></trkpt><trkpt lat="45.6861283" lon="13.7760467"><ele>342.3333333333333</ele><time>2026-04-30T10:26:28.149Z</time></trkpt><trkpt lat="45.68605" lon="13.77624"><ele>342.0</ele><time>2026-04-30T10:26:29.088Z</time></trkpt><trkpt lat="45.6859683" lon="13.7764317"><ele>344.0</ele><time>2026-04-30T10:26:30.027Z</time></trkpt><trkpt lat="45.68589" lon="13.7766217"><ele>346.0</ele><time>2026-04-30T10:26:31.101Z</time></trkpt><trkpt lat="45.6858117" lon="13.77681"><ele>348.0</ele><time>2026-04-30T10:26:32.108Z</time></trkpt><trkpt lat="45.6857367" lon="13.7769967"><ele>348.0</ele><time>2026-04-30T10:26:33.115Z</time></trkpt><trkpt lat="45.68566" lon="13.7771817"><ele>348.0</ele><time>2026-04-30T10:26:34.121Z</time></trkpt><trkpt lat="45.6855833" lon="13.777365"><ele>348.0</ele><time>2026-04-30T10:26:35.06Z</time></trkpt><trkpt lat="45.6855083" lon="13.7775467"><ele>348.0</ele><time>2026-04-30T10:26:36.134Z</time></trkpt><trkpt lat="45.685435" lon="13.777725"><ele>347.6666666666667</ele><time>2026-04-30T10:26:37.075Z</time></trkpt><trkpt lat="45.68536" lon="13.7779117"><ele>347.33333333333337</ele><time>2026-04-30T10:26:38.148Z</time></trkpt><trkpt lat="45.685285" lon="13.7781083"><ele>347.0</ele><time>2026-04-30T10:26:39.088Z</time></trkpt><trkpt lat="45.6852067" lon="13.7783067"><ele>348.0</ele><time>2026-04-30T10:26:40.026Z</time></trkpt><trkpt lat="45.6851267" lon="13.7785017"><ele>349.0</ele><time>2026-04-30T10:26:41.1Z</time></trkpt><trkpt lat="45.6850433" lon="13.7786983"><ele>350.0</ele><time>2026-04-30T10:26:42.107Z</time></trkpt><trkpt lat="45.6849617" lon="13.7788917"><ele>350.0</ele><time>2026-04-30T10:26:43.046Z</time></trkpt><trkpt lat="45.68488" lon="13.7790817"><ele>350.0</ele><time>2026-04-30T10:26:44.121Z</time></trkpt><trkpt lat="45.684805" lon="13.7792617"><ele>350.0</ele><time>2026-04-30T10:26:45.061Z</time></trkpt><trkpt lat="45.6847333" lon="13.7794317"><ele>350.0</ele><time>2026-04-30T10:26:46.133Z</time></trkpt><trkpt lat="45.6846633" lon="13.7795933"><ele>349.5</ele><time>2026-04-30T10:26:47.074Z</time></trkpt><trkpt lat="45.6845933" lon="13.7797617"><ele>349.0</ele><time>2026-04-30T10:26:48.012Z</time></trkpt><trkpt lat="45.6845183" lon="13.779935"><ele>348.5</ele><time>2026-04-30T10:26:49.086Z</time></trkpt><trkpt lat="45.6844433" lon="13.7801183"><ele>348.0</ele><time>2026-04-30T10:26:50.094Z</time></trkpt><trkpt lat="45.6843667" lon="13.7803083"><ele>348.0</ele><time>2026-04-30T10:26:51.1Z</time></trkpt><trkpt lat="45.684285" lon="13.7804983"><ele>348.0</ele><time>2026-04-30T10:26:52.106Z</time></trkpt><trkpt lat="45.6842033" lon="13.7806917"><ele>348.0</ele><time>2026-04-30T10:26:53.047Z</time></trkpt><trkpt lat="45.6841217" lon="13.780885"><ele>347.0</ele><time>2026-04-30T10:26:54.119Z</time></trkpt><trkpt lat="45.68404" lon="13.7810783"><ele>346.0</ele><time>2026-04-30T10:26:55.06Z</time></trkpt><trkpt lat="45.683965" lon="13.7812617"><ele>345.0</ele><time>2026-04-30T10:26:56.134Z</time></trkpt><trkpt lat="45.6838933" lon="13.7814383"><ele>344.0</ele><time>2026-04-30T10:26:57.073Z</time></trkpt><trkpt lat="45.6838217" lon="13.78161"><ele>344.0</ele><time>2026-04-30T10:26:58.079Z</time></trkpt><trkpt lat="45.6837533" lon="13.7817833"><ele>344.0</ele><time>2026-04-30T10:26:59.085Z</time></trkpt><trkpt lat="45.683685" lon="13.7819517"><ele>344.0</ele><time>2026-04-30T10:27:00.092Z</time></trkpt><trkpt lat="45.683615" lon="13.7821167"><ele>344.0</ele><time>2026-04-30T10:27:01.1Z</time></trkpt><trkpt lat="45.6835467" lon="13.7822783"><ele>342.79999999999995</ele><time>2026-04-30T10:27:02.106Z</time></trkpt><trkpt lat="45.6834833" lon="13.7824317"><ele>341.59999999999997</ele><time>2026-04-30T10:27:03.046Z</time></trkpt><trkpt lat="45.6834267" lon="13.7825717"><ele>340.4</ele><time>2026-04-30T10:27:04.119Z</time></trkpt><trkpt lat="45.6833733" lon="13.7826933"><ele>339.2</ele><time>2026-04-30T10:27:05.058Z</time></trkpt><trkpt lat="45.6833167" lon="13.7828067"><ele>338.0</ele><time>2026-04-30T10:27:06.132Z</time></trkpt><trkpt lat="45.6832617" lon="13.7829"><ele>337.6666666666667</ele><time>2026-04-30T10:27:07.072Z</time></trkpt><trkpt lat="45.6832133" lon="13.7829683"><ele>337.33333333333337</ele><time>2026-04-30T10:27:08.078Z</time></trkpt><trkpt lat="45.6831183" lon="13.7830667"><ele>337.0</ele><time>2026-04-30T10:27:10.091Z</time></trkpt><trkpt lat="45.6830083" lon="13.7831233"><ele>336.6666666666667</ele><time>2026-04-30T10:27:12.104Z</time></trkpt><trkpt lat="45.6829433" lon="13.78313"><ele>336.3333333333333</ele><time>2026-04-30T10:27:13.044Z</time></trkpt><trkpt lat="45.6828683" lon="13.783115"><ele>336.0</ele><time>2026-04-30T10:27:14.118Z</time></trkpt><trkpt lat="45.682785" lon="13.7830733"><ele>336.4</ele><time>2026-04-30T10:27:15.058Z</time></trkpt><trkpt lat="45.682695" lon="13.7830167"><ele>336.8</ele><time>2026-04-30T10:27:16.132Z</time></trkpt><trkpt lat="45.6825967" lon="13.7829433"><ele>337.2</ele><time>2026-04-30T10:27:17.072Z</time></trkpt><trkpt lat="45.6825017" lon="13.7828683"><ele>337.59999999999997</ele><time>2026-04-30T10:27:18.078Z</time></trkpt><trkpt lat="45.6824017" lon="13.78279"><ele>338.0</ele><time>2026-04-30T10:27:19.084Z</time></trkpt><trkpt lat="45.682295" lon="13.7827067"><ele>337.75</ele><time>2026-04-30T10:27:20.09Z</time></trkpt><trkpt lat="45.6821817" lon="13.7826167"><ele>337.5</ele><time>2026-04-30T10:27:21.098Z</time></trkpt><trkpt lat="45.6820617" lon="13.7825183"><ele>337.25</ele><time>2026-04-30T10:27:22.105Z</time></trkpt><trkpt lat="45.6819367" lon="13.7824117"><ele>337.0</ele><time>2026-04-30T10:27:23.044Z</time></trkpt><trkpt lat="45.6818033" lon="13.7823017"><ele>336.66666666666663</ele><time>2026-04-30T10:27:24.118Z</time></trkpt><trkpt lat="45.68166" lon="13.78219"><ele>336.3333333333333</ele><time>2026-04-30T10:27:25.058Z</time></trkpt><trkpt lat="45.6815017" lon="13.7820717"><ele>336.0</ele><time>2026-04-30T10:27:26.13Z</time></trkpt><trkpt lat="45.6813217" lon="13.781935"><ele>340.0</ele><time>2026-04-30T10:27:27.07Z</time></trkpt><trkpt lat="45.6811267" lon="13.78178"><ele>344.0</ele><time>2026-04-30T10:27:28.076Z</time></trkpt><trkpt lat="45.68093" lon="13.7816183"><ele>344.33333333333337</ele><time>2026-04-30T10:27:29.083Z</time></trkpt><trkpt lat="45.6807417" lon="13.781485"><ele>344.6666666666667</ele><time>2026-04-30T10:27:30.091Z</time></trkpt><trkpt lat="45.6805667" lon="13.7813733"><ele>345.0</ele><time>2026-04-30T10:27:31.096Z</time></trkpt><trkpt lat="45.6803967" lon="13.7812917"><ele>345.25</ele><time>2026-04-30T10:27:32.103Z</time></trkpt><trkpt lat="45.6802367" lon="13.78123"><ele>345.5</ele><time>2026-04-30T10:27:33.042Z</time></trkpt><trkpt lat="45.6800933" lon="13.7811883"><ele>345.75</ele><time>2026-04-30T10:27:34.116Z</time></trkpt><trkpt lat="45.6799667" lon="13.7811733"><ele>346.0</ele><time>2026-04-30T10:27:35.056Z</time></trkpt><trkpt lat="45.6798567" lon="13.78119"><ele>346.0</ele><time>2026-04-30T10:27:36.13Z</time></trkpt><trkpt lat="45.6797617" lon="13.78124"><ele>346.0</ele><time>2026-04-30T10:27:37.069Z</time></trkpt><trkpt lat="45.6796783" lon="13.7813267"><ele>346.0</ele><time>2026-04-30T10:27:38.077Z</time></trkpt><trkpt lat="45.6796" lon="13.781455"><ele>346.0</ele><time>2026-04-30T10:27:39.082Z</time></trkpt><trkpt lat="45.67953" lon="13.78161"><ele>346.0</ele><time>2026-04-30T10:27:40.089Z</time></trkpt><trkpt lat="45.6794683" lon="13.7817917"><ele>346.0</ele><time>2026-04-30T10:27:41.097Z</time></trkpt><trkpt lat="45.67941" lon="13.7820017"><ele>346.0</ele><time>2026-04-30T10:27:42.102Z</time></trkpt><trkpt lat="45.6793533" lon="13.78223"><ele>344.3333333333333</ele><time>2026-04-30T10:27:43.042Z</time></trkpt><trkpt lat="45.6792967" lon="13.7824767"><ele>342.6666666666667</ele><time>2026-04-30T10:27:44.115Z</time></trkpt><trkpt lat="45.6792383" lon="13.78272"><ele>341.0</ele><time>2026-04-30T10:27:45.055Z</time></trkpt><trkpt lat="45.6791783" lon="13.7829417"><ele>341.0</ele><time>2026-04-30T10:27:46.13Z</time></trkpt><trkpt lat="45.6791133" lon="13.78315"><ele>341.0</ele><time>2026-04-30T10:27:47.068Z</time></trkpt><trkpt lat="45.6790417" lon="13.7833533"><ele>341.0</ele><time>2026-04-30T10:27:48.075Z</time></trkpt><trkpt lat="45.6789583" lon="13.7835467"><ele>346.0</ele><time>2026-04-30T10:27:49.081Z</time></trkpt><trkpt lat="45.6788633" lon="13.783735"><ele>351.0</ele><time>2026-04-30T10:27:50.088Z</time></trkpt><trkpt lat="45.6787567" lon="13.7839183"><ele>356.0</ele><time>2026-04-30T10:27:51.096Z</time></trkpt><trkpt lat="45.6786467" lon="13.7840967"><ele>350.6666666666667</ele><time>2026-04-30T10:27:52.101Z</time></trkpt><trkpt lat="45.6785433" lon="13.7842717"><ele>345.3333333333333</ele><time>2026-04-30T10:27:53.041Z</time></trkpt><trkpt lat="45.6784433" lon="13.7844517"><ele>340.0</ele><time>2026-04-30T10:27:54.116Z</time></trkpt><trkpt lat="45.6783467" lon="13.78464"><ele>340.0</ele><time>2026-04-30T10:27:55.054Z</time></trkpt><trkpt lat="45.678255" lon="13.7848367"><ele>340.0</ele><time>2026-04-30T10:27:56.129Z</time></trkpt><trkpt lat="45.6781633" lon="13.7850417"><ele>340.0</ele><time>2026-04-30T10:27:57.067Z</time></trkpt><trkpt lat="45.6780717" lon="13.78525"><ele>345.0</ele><time>2026-04-30T10:27:58.074Z</time></trkpt><trkpt lat="45.6779783" lon="13.7854533"><ele>350.0</ele><time>2026-04-30T10:27:59.082Z</time></trkpt><trkpt lat="45.6778833" lon="13.7856433"><ele>355.0</ele><time>2026-04-30T10:28:00.087Z</time></trkpt><trkpt lat="45.6777883" lon="13.7858233"><ele>348.3333333333333</ele><time>2026-04-30T10:28:01.095Z</time></trkpt><trkpt lat="45.6776883" lon="13.785995"><ele>341.6666666666667</ele><time>2026-04-30T10:28:02.102Z</time></trkpt><trkpt lat="45.6775817" lon="13.7861633"><ele>335.0</ele><time>2026-04-30T10:28:03.04Z</time></trkpt><trkpt lat="45.6774683" lon="13.7863317"><ele>335.0</ele><time>2026-04-30T10:28:04.115Z</time></trkpt><trkpt lat="45.6773467" lon="13.7865017"><ele>335.0</ele><time>2026-04-30T10:28:05.054Z</time></trkpt><trkpt lat="45.6772167" lon="13.786675"><ele>335.0</ele><time>2026-04-30T10:28:06.127Z</time></trkpt><trkpt lat="45.6770817" lon="13.7868483"><ele>332.33333333333337</ele><time>2026-04-30T10:28:07.068Z</time></trkpt><trkpt lat="45.67695" lon="13.7870133"><ele>329.6666666666667</ele><time>2026-04-30T10:28:08.073Z</time></trkpt><trkpt lat="45.67682" lon="13.7871667"><ele>327.0</ele><time>2026-04-30T10:28:09.08Z</time></trkpt><trkpt lat="45.676695" lon="13.7873083"><ele>327.0</ele><time>2026-04-30T10:28:10.087Z</time></trkpt><trkpt lat="45.67657" lon="13.7874383"><ele>327.0</ele><time>2026-04-30T10:28:11.027Z</time></trkpt><trkpt lat="45.67644" lon="13.7875683"><ele>327.0</ele><time>2026-04-30T10:28:12.101Z</time></trkpt><trkpt lat="45.6763017" lon="13.7877083"><ele>323.3333333333333</ele><time>2026-04-30T10:28:13.04Z</time></trkpt><trkpt lat="45.6761583" lon="13.7878667"><ele>319.66666666666663</ele><time>2026-04-30T10:28:14.113Z</time></trkpt><trkpt lat="45.6760133" lon="13.788045"><ele>316.0</ele><time>2026-04-30T10:28:15.053Z</time></trkpt><trkpt lat="45.6758667" lon="13.7882383"><ele>316.0</ele><time>2026-04-30T10:28:16.059Z</time></trkpt><trkpt lat="45.67572" lon="13.78844"><ele>316.0</ele><time>2026-04-30T10:28:17.067Z</time></trkpt><trkpt lat="45.67558" lon="13.78863"><ele>316.0</ele><time>2026-04-30T10:28:18.073Z</time></trkpt><trkpt lat="45.6754433" lon="13.7888067"><ele>314.0</ele><time>2026-04-30T10:28:19.079Z</time></trkpt><trkpt lat="45.6753133" lon="13.7889717"><ele>312.0</ele><time>2026-04-30T10:28:20.087Z</time></trkpt><trkpt lat="45.6751833" lon="13.7891317"><ele>310.0</ele><time>2026-04-30T10:28:21.026Z</time></trkpt><trkpt lat="45.6750567" lon="13.7892917"><ele>315.0</ele><time>2026-04-30T10:28:22.099Z</time></trkpt><trkpt lat="45.67493" lon="13.7894533"><ele>320.0</ele><time>2026-04-30T10:28:23.039Z</time></trkpt><trkpt lat="45.6748133" lon="13.78962"><ele>325.0</ele><time>2026-04-30T10:28:24.113Z</time></trkpt><trkpt lat="45.674715" lon="13.7898033"><ele>325.0</ele><time>2026-04-30T10:28:25.053Z</time></trkpt><trkpt lat="45.674625" lon="13.7900067"><ele>325.0</ele><time>2026-04-30T10:28:26.059Z</time></trkpt><trkpt lat="45.6744783" lon="13.79046"><ele>320.66666666666663</ele><time>2026-04-30T10:28:28.072Z</time></trkpt><trkpt lat="45.6744133" lon="13.7907083"><ele>316.3333333333333</ele><time>2026-04-30T10:28:29.079Z</time></trkpt><trkpt lat="45.6743467" lon="13.7909517"><ele>312.0</ele><time>2026-04-30T10:28:30.085Z</time></trkpt><trkpt lat="45.6742767" lon="13.7911817"><ele>312.0</ele><time>2026-04-30T10:28:31.026Z</time></trkpt><trkpt lat="45.6742" lon="13.7914"><ele>312.0</ele><time>2026-04-30T10:28:32.098Z</time></trkpt><trkpt lat="45.6741167" lon="13.7916"><ele>312.0</ele><time>2026-04-30T10:28:33.038Z</time></trkpt><trkpt lat="45.67403" lon="13.791785"><ele>312.75</ele><time>2026-04-30T10:28:34.112Z</time></trkpt><trkpt lat="45.6739333" lon="13.7919467"><ele>313.5</ele><time>2026-04-30T10:28:35.051Z</time></trkpt><trkpt lat="45.6738233" lon="13.7920733"><ele>314.25</ele><time>2026-04-30T10:28:36.059Z</time></trkpt><trkpt lat="45.6737033" lon="13.7921567"><ele>315.0</ele><time>2026-04-30T10:28:37.065Z</time></trkpt><trkpt lat="45.6735767" lon="13.7921933"><ele>315.0</ele><time>2026-04-30T10:28:38.071Z</time></trkpt><trkpt lat="45.6734467" lon="13.7921883"><ele>315.0</ele><time>2026-04-30T10:28:39.145Z</time></trkpt><trkpt lat="45.673315" lon="13.7921467"><ele>315.0</ele><time>2026-04-30T10:28:40.084Z</time></trkpt><trkpt lat="45.673175" lon="13.792075"><ele>315.0</ele><time>2026-04-30T10:28:41.025Z</time></trkpt><trkpt lat="45.6730267" lon="13.7919917"><ele>315.0</ele><time>2026-04-30T10:28:42.097Z</time></trkpt><trkpt lat="45.6728733" lon="13.7919033"><ele>315.0</ele><time>2026-04-30T10:28:43.037Z</time></trkpt><trkpt lat="45.6727133" lon="13.7918067"><ele>315.0</ele><time>2026-04-30T10:28:44.112Z</time></trkpt><trkpt lat="45.6725483" lon="13.791705"><ele>310.3333333333333</ele><time>2026-04-30T10:28:45.05Z</time></trkpt><trkpt lat="45.6723867" lon="13.7916083"><ele>305.66666666666663</ele><time>2026-04-30T10:28:46.058Z</time></trkpt><trkpt lat="45.6722317" lon="13.79151"><ele>301.0</ele><time>2026-04-30T10:28:47.131Z</time></trkpt><trkpt lat="45.6720833" lon="13.7914017"><ele>300.0</ele><time>2026-04-30T10:28:48.07Z</time></trkpt><trkpt lat="45.6719367" lon="13.7912717"><ele>299.0</ele><time>2026-04-30T10:28:49.144Z</time></trkpt><trkpt lat="45.6718017" lon="13.7911167"><ele>298.0</ele><time>2026-04-30T10:28:50.084Z</time></trkpt><trkpt lat="45.6716733" lon="13.7909467"><ele>298.0</ele><time>2026-04-30T10:28:51.024Z</time></trkpt><trkpt lat="45.671545" lon="13.7907783"><ele>298.0</ele><time>2026-04-30T10:28:52.097Z</time></trkpt><trkpt lat="45.6714217" lon="13.7906217"><ele>298.0</ele><time>2026-04-30T10:28:53.036Z</time></trkpt><trkpt lat="45.6713" lon="13.7904733"><ele>298.0</ele><time>2026-04-30T10:28:54.11Z</time></trkpt><trkpt lat="45.6711767" lon="13.79035"><ele>298.0</ele><time>2026-04-30T10:28:55.117Z</time></trkpt><trkpt lat="45.6710517" lon="13.7902667"><ele>298.0</ele><time>2026-04-30T10:28:56.056Z</time></trkpt><trkpt lat="45.6709267" lon="13.79024"><ele>298.0</ele><time>2026-04-30T10:28:57.131Z</time></trkpt><trkpt lat="45.67081" lon="13.7902817"><ele>298.25</ele><time>2026-04-30T10:28:58.069Z</time></trkpt><trkpt lat="45.6707183" lon="13.79037"><ele>298.5</ele><time>2026-04-30T10:28:59.143Z</time></trkpt><trkpt lat="45.6706417" lon="13.7905117"><ele>298.75</ele><time>2026-04-30T10:29:00.083Z</time></trkpt><trkpt lat="45.67058" lon="13.790685"><ele>299.0</ele><time>2026-04-30T10:29:01.022Z</time></trkpt><trkpt lat="45.6705233" lon="13.7908583"><ele>299.75</ele><time>2026-04-30T10:29:02.097Z</time></trkpt><trkpt lat="45.6704667" lon="13.791025"><ele>300.5</ele><time>2026-04-30T10:29:03.103Z</time></trkpt><trkpt lat="45.6704017" lon="13.79119"><ele>301.25</ele><time>2026-04-30T10:29:04.11Z</time></trkpt><trkpt lat="45.6703233" lon="13.791335"><ele>302.0</ele><time>2026-04-30T10:29:05.116Z</time></trkpt><trkpt lat="45.6702283" lon="13.7914417"><ele>302.0</ele><time>2026-04-30T10:29:06.056Z</time></trkpt><trkpt lat="45.67012" lon="13.7914883"><ele>302.0</ele><time>2026-04-30T10:29:07.129Z</time></trkpt><trkpt lat="45.670005" lon="13.791465"><ele>302.0</ele><time>2026-04-30T10:29:08.069Z</time></trkpt><trkpt lat="45.6698917" lon="13.791395"><ele>302.0</ele><time>2026-04-30T10:29:09.143Z</time></trkpt><trkpt lat="45.66977" lon="13.7913083"><ele>302.0</ele><time>2026-04-30T10:29:10.083Z</time></trkpt><trkpt lat="45.6696433" lon="13.7912267"><ele>302.0</ele><time>2026-04-30T10:29:11.022Z</time></trkpt><trkpt lat="45.6695033" lon="13.7911367"><ele>302.0</ele><time>2026-04-30T10:29:12.095Z</time></trkpt><trkpt lat="45.669355" lon="13.7910533"><ele>293.6666666666667</ele><time>2026-04-30T10:29:13.102Z</time></trkpt><trkpt lat="45.6692033" lon="13.79098"><ele>285.3333333333333</ele><time>2026-04-30T10:29:14.108Z</time></trkpt><trkpt lat="45.6690533" lon="13.7909233"><ele>277.0</ele><time>2026-04-30T10:29:15.116Z</time></trkpt><trkpt lat="45.6689067" lon="13.7908817"><ele>277.0</ele><time>2026-04-30T10:29:16.056Z</time></trkpt><trkpt lat="45.668765" lon="13.7908467"><ele>277.0</ele><time>2026-04-30T10:29:17.128Z</time></trkpt><trkpt lat="45.668625" lon="13.7908217"><ele>277.0</ele><time>2026-04-30T10:29:18.068Z</time></trkpt><trkpt lat="45.66849" lon="13.7908"><ele>277.0</ele><time>2026-04-30T10:29:19.143Z</time></trkpt><trkpt lat="45.6683583" lon="13.7907783"><ele>277.25</ele><time>2026-04-30T10:29:20.081Z</time></trkpt><trkpt lat="45.66822" lon="13.79075"><ele>277.5</ele><time>2026-04-30T10:29:21.089Z</time></trkpt><trkpt lat="45.6680767" lon="13.7907133"><ele>277.75</ele><time>2026-04-30T10:29:22.094Z</time></trkpt><trkpt lat="45.667925" lon="13.7906783"><ele>278.0</ele><time>2026-04-30T10:29:23.102Z</time></trkpt><trkpt lat="45.667775" lon="13.79065"><ele>276.25</ele><time>2026-04-30T10:29:24.109Z</time></trkpt><trkpt lat="45.6676317" lon="13.7906433"><ele>274.5</ele><time>2026-04-30T10:29:25.115Z</time></trkpt><trkpt lat="45.667495" lon="13.7906833"><ele>272.75</ele><time>2026-04-30T10:29:26.054Z</time></trkpt><trkpt lat="45.6673717" lon="13.790775"><ele>271.0</ele><time>2026-04-30T10:29:27.129Z</time></trkpt><trkpt lat="45.667265" lon="13.7909183"><ele>272.0</ele><time>2026-04-30T10:29:28.068Z</time></trkpt><trkpt lat="45.6671783" lon="13.791095"><ele>273.0</ele><time>2026-04-30T10:29:29.142Z</time></trkpt><trkpt lat="45.6671233" lon="13.7912983"><ele>274.0</ele><time>2026-04-30T10:29:30.081Z</time></trkpt><trkpt lat="45.66711" lon="13.7915133"><ele>270.0</ele><time>2026-04-30T10:29:31.087Z</time></trkpt><trkpt lat="45.6671833" lon="13.7918983"><ele>266.0</ele><time>2026-04-30T10:29:33.1Z</time></trkpt><trkpt lat="45.6672733" lon="13.7920633"><ele>262.0</ele><time>2026-04-30T10:29:34.108Z</time></trkpt><trkpt lat="45.6673867" lon="13.792215"><ele>262.0</ele><time>2026-04-30T10:29:35.114Z</time></trkpt><trkpt lat="45.6675183" lon="13.79236"><ele>262.0</ele><time>2026-04-30T10:29:36.054Z</time></trkpt><trkpt lat="45.667655" lon="13.7925083"><ele>262.0</ele><time>2026-04-30T10:29:37.128Z</time></trkpt><trkpt lat="45.667795" lon="13.7926633"><ele>266.66666666666663</ele><time>2026-04-30T10:29:38.067Z</time></trkpt><trkpt lat="45.66793" lon="13.7928217"><ele>271.3333333333333</ele><time>2026-04-30T10:29:39.141Z</time></trkpt><trkpt lat="45.668055" lon="13.7929817"><ele>276.0</ele><time>2026-04-30T10:29:40.08Z</time></trkpt><trkpt lat="45.6681617" lon="13.7931533"><ele>276.0</ele><time>2026-04-30T10:29:41.086Z</time></trkpt><trkpt lat="45.6682383" lon="13.7933367"><ele>276.0</ele><time>2026-04-30T10:29:42.093Z</time></trkpt><trkpt lat="45.66828" lon="13.793535"><ele>276.0</ele><time>2026-04-30T10:29:43.1Z</time></trkpt><trkpt lat="45.6682967" lon="13.793745"><ele>276.0</ele><time>2026-04-30T10:29:44.04Z</time></trkpt><trkpt lat="45.6683083" lon="13.7939667"><ele>273.3333333333333</ele><time>2026-04-30T10:29:45.113Z</time></trkpt><trkpt lat="45.6683167" lon="13.7941983"><ele>270.66666666666663</ele><time>2026-04-30T10:29:46.052Z</time></trkpt><trkpt lat="45.66832" lon="13.794435"><ele>268.0</ele><time>2026-04-30T10:29:47.126Z</time></trkpt><trkpt lat="45.66832" lon="13.794675"><ele>263.66666666666663</ele><time>2026-04-30T10:29:48.065Z</time></trkpt><trkpt lat="45.6683233" lon="13.7949167"><ele>259.3333333333333</ele><time>2026-04-30T10:29:49.072Z</time></trkpt><trkpt lat="45.66833" lon="13.79516"><ele>255.0</ele><time>2026-04-30T10:29:50.079Z</time></trkpt><trkpt lat="45.6683467" lon="13.7954033"><ele>252.33333333333331</ele><time>2026-04-30T10:29:51.085Z</time></trkpt><trkpt lat="45.6683767" lon="13.7956467"><ele>249.66666666666666</ele><time>2026-04-30T10:29:52.092Z</time></trkpt><trkpt lat="45.6684217" lon="13.79589"><ele>247.0</ele><time>2026-04-30T10:29:53.099Z</time></trkpt><trkpt lat="45.6684783" lon="13.7961267"><ele>244.33333333333331</ele><time>2026-04-30T10:29:54.038Z</time></trkpt><trkpt lat="45.6685517" lon="13.79635"><ele>241.66666666666669</ele><time>2026-04-30T10:29:55.112Z</time></trkpt><trkpt lat="45.6686317" lon="13.7965533"><ele>239.0</ele><time>2026-04-30T10:29:56.052Z</time></trkpt><trkpt lat="45.6687133" lon="13.79674"><ele>248.25</ele><time>2026-04-30T10:29:57.125Z</time></trkpt><trkpt lat="45.6687867" lon="13.79691"><ele>257.5</ele><time>2026-04-30T10:29:58.065Z</time></trkpt><trkpt lat="45.66884" lon="13.7970783"><ele>266.75</ele><time>2026-04-30T10:29:59.071Z</time></trkpt><trkpt lat="45.668855" lon="13.7972467"><ele>276.0</ele><time>2026-04-30T10:30:00.079Z</time></trkpt><trkpt lat="45.6688417" lon="13.7974133"><ele>276.0</ele><time>2026-04-30T10:30:01.085Z</time></trkpt><trkpt lat="45.6687867" lon="13.797575"><ele>276.0</ele><time>2026-04-30T10:30:02.092Z</time></trkpt><trkpt lat="45.6687017" lon="13.797735"><ele>276.0</ele><time>2026-04-30T10:30:03.098Z</time></trkpt><trkpt lat="45.6686" lon="13.797895"><ele>276.0</ele><time>2026-04-30T10:30:04.038Z</time></trkpt><trkpt lat="45.6684783" lon="13.7980467"><ele>268.0</ele><time>2026-04-30T10:30:05.111Z</time></trkpt><trkpt lat="45.6683367" lon="13.79819"><ele>260.0</ele><time>2026-04-30T10:30:06.051Z</time></trkpt><trkpt lat="45.6681883" lon="13.798325"><ele>252.0</ele><time>2026-04-30T10:30:07.124Z</time></trkpt><trkpt lat="45.66804" lon="13.7984433"><ele>253.0</ele><time>2026-04-30T10:30:08.064Z</time></trkpt><trkpt lat="45.6678917" lon="13.7985483"><ele>254.0</ele><time>2026-04-30T10:30:09.071Z</time></trkpt><trkpt lat="45.66775" lon="13.7986267"><ele>255.0</ele><time>2026-04-30T10:30:10.078Z</time></trkpt><trkpt lat="45.6676217" lon="13.798685"><ele>255.0</ele><time>2026-04-30T10:30:11.084Z</time></trkpt><trkpt lat="45.6675" lon="13.798735"><ele>255.0</ele><time>2026-04-30T10:30:12.09Z</time></trkpt><trkpt lat="45.6673783" lon="13.798775"><ele>255.0</ele><time>2026-04-30T10:30:13.098Z</time></trkpt><trkpt lat="45.66725" lon="13.7988133"><ele>255.0</ele><time>2026-04-30T10:30:14.037Z</time></trkpt><trkpt lat="45.667115" lon="13.7988533"><ele>255.0</ele><time>2026-04-30T10:30:15.111Z</time></trkpt><trkpt lat="45.6669717" lon="13.7989033"><ele>255.0</ele><time>2026-04-30T10:30:16.05Z</time></trkpt><trkpt lat="45.6668217" lon="13.79896"><ele>255.0</ele><time>2026-04-30T10:30:17.125Z</time></trkpt><trkpt lat="45.66667" lon="13.79902"><ele>257.3333333333333</ele><time>2026-04-30T10:30:18.063Z</time></trkpt><trkpt lat="45.6665167" lon="13.7991"><ele>259.66666666666663</ele><time>2026-04-30T10:30:19.07Z</time></trkpt><trkpt lat="45.6663683" lon="13.79921"><ele>262.0</ele><time>2026-04-30T10:30:20.077Z</time></trkpt><trkpt lat="45.66623" lon="13.7993483"><ele>253.0</ele><time>2026-04-30T10:30:21.083Z</time></trkpt><trkpt lat="45.666105" lon="13.79951"><ele>244.0</ele><time>2026-04-30T10:30:22.091Z</time></trkpt><trkpt lat="45.6659867" lon="13.7996967"><ele>235.0</ele><time>2026-04-30T10:30:23.096Z</time></trkpt><trkpt lat="45.6658783" lon="13.7998983"><ele>235.0</ele><time>2026-04-30T10:30:24.036Z</time></trkpt><trkpt lat="45.66578" lon="13.8001067"><ele>235.0</ele><time>2026-04-30T10:30:25.11Z</time></trkpt><trkpt lat="45.665695" lon="13.8003183"><ele>235.0</ele><time>2026-04-30T10:30:26.05Z</time></trkpt><trkpt lat="45.665625" lon="13.800535"><ele>237.66666666666666</ele><time>2026-04-30T10:30:27.123Z</time></trkpt><trkpt lat="45.6655683" lon="13.800765"><ele>240.33333333333331</ele><time>2026-04-30T10:30:28.062Z</time></trkpt><trkpt lat="45.6655233" lon="13.8010017"><ele>243.0</ele><time>2026-04-30T10:30:29.069Z</time></trkpt><trkpt lat="45.6654883" lon="13.8012433"><ele>243.0</ele><time>2026-04-30T10:30:30.076Z</time></trkpt><trkpt lat="45.665465" lon="13.80149"><ele>243.0</ele><time>2026-04-30T10:30:31.083Z</time></trkpt><trkpt lat="45.6654633" lon="13.8017367"><ele>243.0</ele><time>2026-04-30T10:30:32.089Z</time></trkpt><trkpt lat="45.66548" lon="13.8019717"><ele>240.0</ele><time>2026-04-30T10:30:33.097Z</time></trkpt><trkpt lat="45.665525" lon="13.8021967"><ele>237.0</ele><time>2026-04-30T10:30:34.035Z</time></trkpt><trkpt lat="45.6655933" lon="13.8024133"><ele>234.0</ele><time>2026-04-30T10:30:35.11Z</time></trkpt><trkpt lat="45.6656817" lon="13.802615"><ele>230.33333333333331</ele><time>2026-04-30T10:30:36.048Z</time></trkpt><trkpt lat="45.6657933" lon="13.8027967"><ele>226.66666666666666</ele><time>2026-04-30T10:30:37.123Z</time></trkpt><trkpt lat="45.665905" lon="13.80297"><ele>223.0</ele><time>2026-04-30T10:30:38.062Z</time></trkpt><trkpt lat="45.6660017" lon="13.803145"><ele>223.0</ele><time>2026-04-30T10:30:39.069Z</time></trkpt><trkpt lat="45.6660783" lon="13.80333"><ele>223.0</ele><time>2026-04-30T10:30:40.075Z</time></trkpt><trkpt lat="45.6661283" lon="13.8035217"><ele>223.0</ele><time>2026-04-30T10:30:41.081Z</time></trkpt><trkpt lat="45.6661467" lon="13.8037217"><ele>223.0</ele><time>2026-04-30T10:30:42.089Z</time></trkpt><trkpt lat="45.6661283" lon="13.8039233"><ele>223.25</ele><time>2026-04-30T10:30:43.096Z</time></trkpt><trkpt lat="45.66608" lon="13.8041133"><ele>223.5</ele><time>2026-04-30T10:30:44.035Z</time></trkpt><trkpt lat="45.6660083" lon="13.8042917"><ele>223.75</ele><time>2026-04-30T10:30:45.108Z</time></trkpt><trkpt lat="45.6659183" lon="13.8044517"><ele>224.0</ele><time>2026-04-30T10:30:46.048Z</time></trkpt><trkpt lat="45.6658083" lon="13.8045867"><ele>228.66666666666669</ele><time>2026-04-30T10:30:47.121Z</time></trkpt><trkpt lat="45.6656767" lon="13.8047"><ele>233.33333333333331</ele><time>2026-04-30T10:30:48.061Z</time></trkpt><trkpt lat="45.6655217" lon="13.804775"><ele>238.0</ele><time>2026-04-30T10:30:49.067Z</time></trkpt><trkpt lat="45.6653567" lon="13.80482"><ele>231.66666666666666</ele><time>2026-04-30T10:30:50.075Z</time></trkpt><trkpt lat="45.665185" lon="13.8048417"><ele>225.33333333333331</ele><time>2026-04-30T10:30:51.082Z</time></trkpt><trkpt lat="45.6650033" lon="13.8048567"><ele>219.0</ele><time>2026-04-30T10:30:52.154Z</time></trkpt><trkpt lat="45.664815" lon="13.8048633"><ele>219.0</ele><time>2026-04-30T10:30:53.094Z</time></trkpt><trkpt lat="45.6646317" lon="13.804855"><ele>219.0</ele><time>2026-04-30T10:30:54.034Z</time></trkpt><trkpt lat="45.6644533" lon="13.8048433"><ele>219.0</ele><time>2026-04-30T10:30:55.107Z</time></trkpt><trkpt lat="45.6642867" lon="13.8048367"><ele>216.33333333333331</ele><time>2026-04-30T10:30:56.048Z</time></trkpt><trkpt lat="45.6641317" lon="13.804855"><ele>213.66666666666666</ele><time>2026-04-30T10:30:57.121Z</time></trkpt><trkpt lat="45.663985" lon="13.8049217"><ele>211.0</ele><time>2026-04-30T10:30:58.061Z</time></trkpt><trkpt lat="45.663845" lon="13.8050417"><ele>207.66666666666666</ele><time>2026-04-30T10:30:59.067Z</time></trkpt><trkpt lat="45.66371" lon="13.8051983"><ele>204.33333333333331</ele><time>2026-04-30T10:31:00.074Z</time></trkpt><trkpt lat="45.6635767" lon="13.80537"><ele>201.0</ele><time>2026-04-30T10:31:01.08Z</time></trkpt><trkpt lat="45.6634433" lon="13.805535"><ele>201.0</ele><time>2026-04-30T10:31:02.154Z</time></trkpt><trkpt lat="45.663315" lon="13.8056933"><ele>201.0</ele><time>2026-04-30T10:31:03.093Z</time></trkpt><trkpt lat="45.6631883" lon="13.805845"><ele>201.0</ele><time>2026-04-30T10:31:04.034Z</time></trkpt><trkpt lat="45.6630617" lon="13.8060017"><ele>204.66666666666669</ele><time>2026-04-30T10:31:05.107Z</time></trkpt><trkpt lat="45.6629383" lon="13.8061733"><ele>208.33333333333334</ele><time>2026-04-30T10:31:06.046Z</time></trkpt><trkpt lat="45.6628267" lon="13.806365"><ele>212.0</ele><time>2026-04-30T10:31:07.12Z</time></trkpt><trkpt lat="45.662725" lon="13.806575"><ele>209.66666666666669</ele><time>2026-04-30T10:31:08.06Z</time></trkpt><trkpt lat="45.6626333" lon="13.8067883"><ele>207.33333333333331</ele><time>2026-04-30T10:31:09.066Z</time></trkpt><trkpt lat="45.662545" lon="13.8069917"><ele>205.0</ele><time>2026-04-30T10:31:10.141Z</time></trkpt><trkpt lat="45.6624633" lon="13.8071917"><ele>205.0</ele><time>2026-04-30T10:31:11.08Z</time></trkpt><trkpt lat="45.6623833" lon="13.807385"><ele>205.0</ele><time>2026-04-30T10:31:12.019Z</time></trkpt><trkpt lat="45.6623017" lon="13.8075683"><ele>205.0</ele><time>2026-04-30T10:31:13.093Z</time></trkpt><trkpt lat="45.6622217" lon="13.8077433"><ele>208.5</ele><time>2026-04-30T10:31:14.032Z</time></trkpt><trkpt lat="45.6621383" lon="13.8079133"><ele>212.0</ele><time>2026-04-30T10:31:15.106Z</time></trkpt><trkpt lat="45.6620517" lon="13.8080867"><ele>215.5</ele><time>2026-04-30T10:31:16.045Z</time></trkpt><trkpt lat="45.66196" lon="13.8082633"><ele>219.0</ele><time>2026-04-30T10:31:17.052Z</time></trkpt><trkpt lat="45.6618633" lon="13.808445"><ele>211.33333333333331</ele><time>2026-04-30T10:31:18.126Z</time></trkpt><trkpt lat="45.66176" lon="13.80863"><ele>203.66666666666666</ele><time>2026-04-30T10:31:19.066Z</time></trkpt><trkpt lat="45.66165" lon="13.8088133"><ele>196.0</ele><time>2026-04-30T10:31:20.139Z</time></trkpt><trkpt lat="45.6615383" lon="13.8089967"><ele>196.0</ele><time>2026-04-30T10:31:21.079Z</time></trkpt><trkpt lat="45.6614317" lon="13.809175"><ele>196.0</ele><time>2026-04-30T10:31:22.018Z</time></trkpt><trkpt lat="45.6613283" lon="13.8093517"><ele>196.0</ele><time>2026-04-30T10:31:23.092Z</time></trkpt><trkpt lat="45.6612283" lon="13.80953"><ele>191.33333333333331</ele><time>2026-04-30T10:31:24.031Z</time></trkpt><trkpt lat="45.6611233" lon="13.8097067"><ele>186.66666666666666</ele><time>2026-04-30T10:31:25.105Z</time></trkpt><trkpt lat="45.6610183" lon="13.8098867"><ele>182.0</ele><time>2026-04-30T10:31:26.112Z</time></trkpt><trkpt lat="45.6609133" lon="13.810075"><ele>186.33333333333331</ele><time>2026-04-30T10:31:27.051Z</time></trkpt><trkpt lat="45.6608083" lon="13.8102767"><ele>190.66666666666666</ele><time>2026-04-30T10:31:28.126Z</time></trkpt><trkpt lat="45.6607067" lon="13.8104867"><ele>195.0</ele><time>2026-04-30T10:31:29.064Z</time></trkpt><trkpt lat="45.660605" lon="13.8107067"><ele>195.0</ele><time>2026-04-30T10:31:30.138Z</time></trkpt><trkpt lat="45.6605067" lon="13.810925"><ele>195.0</ele><time>2026-04-30T10:31:31.079Z</time></trkpt><trkpt lat="45.66041" lon="13.81114"><ele>195.0</ele><time>2026-04-30T10:31:32.017Z</time></trkpt><trkpt lat="45.6603133" lon="13.811345"><ele>194.0</ele><time>2026-04-30T10:31:33.091Z</time></trkpt><trkpt lat="45.6602117" lon="13.8115333"><ele>193.0</ele><time>2026-04-30T10:31:34.098Z</time></trkpt><trkpt lat="45.6600983" lon="13.8117033"><ele>192.0</ele><time>2026-04-30T10:31:35.104Z</time></trkpt><trkpt lat="45.659975" lon="13.8118483"><ele>192.0</ele><time>2026-04-30T10:31:36.111Z</time></trkpt><trkpt lat="45.6598383" lon="13.8119717"><ele>192.0</ele><time>2026-04-30T10:31:37.051Z</time></trkpt><trkpt lat="45.65969" lon="13.8120783"><ele>192.0</ele><time>2026-04-30T10:31:38.125Z</time></trkpt><trkpt lat="45.6595383" lon="13.8121767"><ele>188.0</ele><time>2026-04-30T10:31:39.065Z</time></trkpt><trkpt lat="45.6593833" lon="13.812275"><ele>184.0</ele><time>2026-04-30T10:31:40.138Z</time></trkpt><trkpt lat="45.6592367" lon="13.8123783"><ele>180.0</ele><time>2026-04-30T10:31:41.077Z</time></trkpt><trkpt lat="45.6591017" lon="13.8124933"><ele>180.0</ele><time>2026-04-30T10:31:42.017Z</time></trkpt><trkpt lat="45.658975" lon="13.8126167"><ele>180.0</ele><time>2026-04-30T10:31:43.09Z</time></trkpt><trkpt lat="45.65886" lon="13.812755"><ele>180.0</ele><time>2026-04-30T10:31:44.098Z</time></trkpt><trkpt lat="45.6587567" lon="13.8129017"><ele>180.0</ele><time>2026-04-30T10:31:45.104Z</time></trkpt><trkpt lat="45.6586633" lon="13.8130433"><ele>178.8</ele><time>2026-04-30T10:31:46.11Z</time></trkpt><trkpt lat="45.6585783" lon="13.813175"><ele>177.6</ele><time>2026-04-30T10:31:47.051Z</time></trkpt><trkpt lat="45.6585017" lon="13.813295"><ele>176.39999999999998</ele><time>2026-04-30T10:31:48.123Z</time></trkpt><trkpt lat="45.6584317" lon="13.813405"><ele>175.2</ele><time>2026-04-30T10:31:49.063Z</time></trkpt><trkpt lat="45.6583683" lon="13.8135117"><ele>174.0</ele><time>2026-04-30T10:31:50.137Z</time></trkpt><trkpt lat="45.6583083" lon="13.8136183"><ele>176.66666666666666</ele><time>2026-04-30T10:31:51.076Z</time></trkpt><trkpt lat="45.658255" lon="13.8137217"><ele>179.33333333333334</ele><time>2026-04-30T10:31:52.083Z</time></trkpt><trkpt lat="45.658205" lon="13.8138133"><ele>182.0</ele><time>2026-04-30T10:31:53.089Z</time></trkpt><trkpt lat="45.6581533" lon="13.813885"><ele>184.66666666666669</ele><time>2026-04-30T10:31:54.096Z</time></trkpt><trkpt lat="45.6580517" lon="13.8139317"><ele>187.33333333333334</ele><time>2026-04-30T10:31:56.11Z</time></trkpt><trkpt lat="45.6579833" lon="13.8138933"><ele>190.0</ele><time>2026-04-30T10:31:58.123Z</time></trkpt><trkpt lat="45.6579417" lon="13.8138167"><ele>190.0</ele><time>2026-04-30T10:32:00.137Z</time></trkpt><trkpt lat="45.657945" lon="13.8137"><ele>190.0</ele><time>2026-04-30T10:32:02.082Z</time></trkpt><trkpt lat="45.6580233" lon="13.8135683"><ele>190.0</ele><time>2026-04-30T10:32:04.096Z</time></trkpt><trkpt lat="45.6580933" lon="13.8134983"><ele>190.0</ele><time>2026-04-30T10:32:05.102Z</time></trkpt><trkpt lat="45.6581733" lon="13.81342"><ele>190.0</ele><time>2026-04-30T10:32:06.108Z</time></trkpt><trkpt lat="45.6582567" lon="13.8133417"><ele>186.8</ele><time>2026-04-30T10:32:07.049Z</time></trkpt><trkpt lat="45.6583383" lon="13.8132567"><ele>183.6</ele><time>2026-04-30T10:32:08.123Z</time></trkpt><trkpt lat="45.6584117" lon="13.8131633"><ele>180.39999999999998</ele><time>2026-04-30T10:32:09.061Z</time></trkpt><trkpt lat="45.6584783" lon="13.813065"><ele>177.2</ele><time>2026-04-30T10:32:10.135Z</time></trkpt><trkpt lat="45.658545" lon="13.81296"><ele>174.0</ele><time>2026-04-30T10:32:11.074Z</time></trkpt><trkpt lat="45.658615" lon="13.8128533"><ele>175.5</ele><time>2026-04-30T10:32:12.082Z</time></trkpt><trkpt lat="45.6586867" lon="13.8127417"><ele>177.0</ele><time>2026-04-30T10:32:13.089Z</time></trkpt><trkpt lat="45.6587617" lon="13.812625"><ele>178.5</ele><time>2026-04-30T10:32:14.095Z</time></trkpt><trkpt lat="45.65884" lon="13.8125067"><ele>180.0</ele><time>2026-04-30T10:32:15.101Z</time></trkpt><trkpt lat="45.658925" lon="13.8123817"><ele>180.0</ele><time>2026-04-30T10:32:16.108Z</time></trkpt><trkpt lat="45.6590133" lon="13.81225"><ele>180.0</ele><time>2026-04-30T10:32:17.047Z</time></trkpt><trkpt lat="45.6591033" lon="13.8121117"><ele>180.0</ele><time>2026-04-30T10:32:18.121Z</time></trkpt><trkpt lat="45.65919" lon="13.8119617"><ele>180.0</ele><time>2026-04-30T10:32:19.061Z</time></trkpt><trkpt lat="45.6592683" lon="13.8118017"><ele>180.75</ele><time>2026-04-30T10:32:20.134Z</time></trkpt><trkpt lat="45.659335" lon="13.81163"><ele>181.5</ele><time>2026-04-30T10:32:21.075Z</time></trkpt><trkpt lat="45.6594" lon="13.811465"><ele>182.25</ele><time>2026-04-30T10:32:22.08Z</time></trkpt><trkpt lat="45.6594717" lon="13.8113117"><ele>183.0</ele><time>2026-04-30T10:32:23.087Z</time></trkpt><trkpt lat="45.659555" lon="13.81117"><ele>183.0</ele><time>2026-04-30T10:32:24.094Z</time></trkpt><trkpt lat="45.6596483" lon="13.811035"><ele>183.0</ele><time>2026-04-30T10:32:25.101Z</time></trkpt><trkpt lat="45.6597467" lon="13.810905"><ele>183.0</ele><time>2026-04-30T10:32:26.107Z</time></trkpt><trkpt lat="45.65984" lon="13.8107717"><ele>183.0</ele><time>2026-04-30T10:32:27.047Z</time></trkpt><trkpt lat="45.659925" lon="13.810635"><ele>180.0</ele><time>2026-04-30T10:32:28.121Z</time></trkpt><trkpt lat="45.6599983" lon="13.8104967"><ele>177.0</ele><time>2026-04-30T10:32:29.061Z</time></trkpt><trkpt lat="45.66006" lon="13.810365"><ele>174.0</ele><time>2026-04-30T10:32:30.133Z</time></trkpt><trkpt lat="45.6601083" lon="13.81025"><ele>171.0</ele><time>2026-04-30T10:32:31.074Z</time></trkpt><trkpt lat="45.660145" lon="13.8101517"><ele>168.0</ele><time>2026-04-30T10:32:32.08Z</time></trkpt><trkpt lat="45.6601733" lon="13.8100583"><ele>166.20000000000002</ele><time>2026-04-30T10:32:33.086Z</time></trkpt><trkpt lat="45.6602083" lon="13.8099083"><ele>164.4</ele><time>2026-04-30T10:32:35.1Z</time></trkpt><trkpt lat="45.66023" lon="13.8097567"><ele>162.60000000000002</ele><time>2026-04-30T10:32:37.047Z</time></trkpt><trkpt lat="45.66025" lon="13.8096667"><ele>160.8</ele><time>2026-04-30T10:32:38.119Z</time></trkpt><trkpt lat="45.6602717" lon="13.8095567"><ele>159.0</ele><time>2026-04-30T10:32:39.06Z</time></trkpt><trkpt lat="45.6603" lon="13.809435"><ele>160.16666666666666</ele><time>2026-04-30T10:32:40.066Z</time></trkpt><trkpt lat="45.6603283" lon="13.8093133"><ele>161.33333333333334</ele><time>2026-04-30T10:32:41.072Z</time></trkpt><trkpt lat="45.6603667" lon="13.809195"><ele>162.5</ele><time>2026-04-30T10:32:42.079Z</time></trkpt><trkpt lat="45.660405" lon="13.8090917"><ele>163.66666666666669</ele><time>2026-04-30T10:32:43.086Z</time></trkpt><trkpt lat="45.6604483" lon="13.8089917"><ele>164.83333333333334</ele><time>2026-04-30T10:32:44.092Z</time></trkpt><trkpt lat="45.6604983" lon="13.8088933"><ele>166.0</ele><time>2026-04-30T10:32:45.032Z</time></trkpt><trkpt lat="45.6605467" lon="13.8087967"><ele>166.0</ele><time>2026-04-30T10:32:46.106Z</time></trkpt><trkpt lat="45.6606" lon="13.8086967"><ele>166.0</ele><time>2026-04-30T10:32:47.045Z</time></trkpt><trkpt lat="45.6606517" lon="13.808595"><ele>166.0</ele><time>2026-04-30T10:32:48.12Z</time></trkpt><trkpt lat="45.6607067" lon="13.8085017"><ele>166.0</ele><time>2026-04-30T10:32:49.058Z</time></trkpt><trkpt lat="45.66076" lon="13.808425"><ele>166.0</ele><time>2026-04-30T10:32:50.066Z</time></trkpt><trkpt lat="45.660845" lon="13.8083017"><ele>163.60000000000002</ele><time>2026-04-30T10:32:52.079Z</time></trkpt><trkpt lat="45.6609267" lon="13.808185"><ele>161.20000000000002</ele><time>2026-04-30T10:32:54.092Z</time></trkpt><trkpt lat="45.6610133" lon="13.8080583"><ele>158.8</ele><time>2026-04-30T10:32:56.106Z</time></trkpt><trkpt lat="45.66106" lon="13.8079883"><ele>156.4</ele><time>2026-04-30T10:32:57.045Z</time></trkpt><trkpt lat="45.661115" lon="13.8078983"><ele>154.0</ele><time>2026-04-30T10:32:58.119Z</time></trkpt><trkpt lat="45.6611767" lon="13.807795"><ele>156.16666666666669</ele><time>2026-04-30T10:32:59.057Z</time></trkpt><trkpt lat="45.661235" lon="13.8076867"><ele>158.33333333333334</ele><time>2026-04-30T10:33:00.064Z</time></trkpt><trkpt lat="45.6612917" lon="13.8075883"><ele>160.5</ele><time>2026-04-30T10:33:01.071Z</time></trkpt><trkpt lat="45.6613433" lon="13.807495"><ele>162.66666666666666</ele><time>2026-04-30T10:33:02.077Z</time></trkpt><trkpt lat="45.6613917" lon="13.8074017"><ele>164.83333333333331</ele><time>2026-04-30T10:33:03.085Z</time></trkpt><trkpt lat="45.6614317" lon="13.8073217"><ele>167.0</ele><time>2026-04-30T10:33:04.09Z</time></trkpt><trkpt lat="45.6614733" lon="13.8072367"><ele>167.0</ele><time>2026-04-30T10:33:05.03Z</time></trkpt><trkpt lat="45.6615183" lon="13.80714"><ele>167.0</ele><time>2026-04-30T10:33:06.105Z</time></trkpt><trkpt lat="45.6615683" lon="13.807015"><ele>167.0</ele><time>2026-04-30T10:33:07.043Z</time></trkpt><trkpt lat="45.6616133" lon="13.8068833"><ele>167.0</ele><time>2026-04-30T10:33:08.118Z</time></trkpt><trkpt lat="45.6616533" lon="13.8067483"><ele>167.0</ele><time>2026-04-30T10:33:09.058Z</time></trkpt><trkpt lat="45.6616817" lon="13.80662"><ele>164.66666666666666</ele><time>2026-04-30T10:33:10.064Z</time></trkpt><trkpt lat="45.661705" lon="13.8065117"><ele>162.33333333333331</ele><time>2026-04-30T10:33:11.071Z</time></trkpt><trkpt lat="45.66175" lon="13.806375"><ele>160.0</ele><time>2026-04-30T10:33:13.083Z</time></trkpt><trkpt lat="45.6617717" lon="13.8062883"><ele>157.66666666666666</ele><time>2026-04-30T10:33:16.104Z</time></trkpt><trkpt lat="45.6617167" lon="13.8063883"><ele>155.33333333333334</ele><time>2026-04-30T10:33:40.061Z</time></trkpt><trkpt lat="45.661695" lon="13.806485"><ele>153.0</ele><time>2026-04-30T10:33:41.135Z</time></trkpt><trkpt lat="45.66167" lon="13.806605"><ele>153.0</ele><time>2026-04-30T10:33:42.074Z</time></trkpt><trkpt lat="45.661635" lon="13.8067667"><ele>153.0</ele><time>2026-04-30T10:33:43.149Z</time></trkpt><trkpt lat="45.6615817" lon="13.8069533"><ele>153.0</ele><time>2026-04-30T10:33:44.087Z</time></trkpt><trkpt lat="45.661505" lon="13.8071517"><ele>153.0</ele><time>2026-04-30T10:33:45.027Z</time></trkpt><trkpt lat="45.6614067" lon="13.8073483"><ele>153.5</ele><time>2026-04-30T10:33:46.101Z</time></trkpt><trkpt lat="45.6612967" lon="13.8075533"><ele>154.0</ele><time>2026-04-30T10:33:47.041Z</time></trkpt><trkpt lat="45.6610733" lon="13.80798"><ele>154.0</ele><time>2026-04-30T10:33:49.121Z</time></trkpt><trkpt lat="45.6609517" lon="13.8081783"><ele>154.0</ele><time>2026-04-30T10:33:50.061Z</time></trkpt><trkpt lat="45.660815" lon="13.8083667"><ele>154.0</ele><time>2026-04-30T10:33:51.135Z</time></trkpt><trkpt lat="45.66068" lon="13.8085617"><ele>158.0</ele><time>2026-04-30T10:33:52.074Z</time></trkpt><trkpt lat="45.6605533" lon="13.80877"><ele>162.0</ele><time>2026-04-30T10:33:53.147Z</time></trkpt><trkpt lat="45.660445" lon="13.808985"><ele>166.0</ele><time>2026-04-30T10:33:54.087Z</time></trkpt><trkpt lat="45.6603533" lon="13.8092033"><ele>163.66666666666669</ele><time>2026-04-30T10:33:55.026Z</time></trkpt><trkpt lat="45.6602817" lon="13.809445"><ele>161.33333333333334</ele><time>2026-04-30T10:33:56.101Z</time></trkpt><trkpt lat="45.660215" lon="13.80969"><ele>159.0</ele><time>2026-04-30T10:33:57.106Z</time></trkpt><trkpt lat="45.6601517" lon="13.8099233"><ele>159.0</ele><time>2026-04-30T10:33:58.113Z</time></trkpt><trkpt lat="45.6600933" lon="13.8101367"><ele>159.0</ele><time>2026-04-30T10:33:59.121Z</time></trkpt><trkpt lat="45.6600267" lon="13.8103383"><ele>159.0</ele><time>2026-04-30T10:34:00.06Z</time></trkpt><trkpt lat="45.6599483" lon="13.81053"><ele>162.0</ele><time>2026-04-30T10:34:01.133Z</time></trkpt><trkpt lat="45.6598517" lon="13.8107183"><ele>165.0</ele><time>2026-04-30T10:34:02.073Z</time></trkpt><trkpt lat="45.659745" lon="13.8108817"><ele>168.0</ele><time>2026-04-30T10:34:03.146Z</time></trkpt><trkpt lat="45.6596383" lon="13.8110233"><ele>167.33333333333334</ele><time>2026-04-30T10:34:04.086Z</time></trkpt><trkpt lat="45.6595317" lon="13.8111733"><ele>166.66666666666669</ele><time>2026-04-30T10:34:05.092Z</time></trkpt><trkpt lat="45.6594283" lon="13.8113633"><ele>166.0</ele><time>2026-04-30T10:34:06.099Z</time></trkpt><trkpt lat="45.6593383" lon="13.8115733"><ele>166.0</ele><time>2026-04-30T10:34:07.106Z</time></trkpt><trkpt lat="45.659245" lon="13.8117867"><ele>166.0</ele><time>2026-04-30T10:34:08.045Z</time></trkpt><trkpt lat="45.65914" lon="13.811985"><ele>166.0</ele><time>2026-04-30T10:34:09.119Z</time></trkpt><trkpt lat="45.6590217" lon="13.812185"><ele>170.66666666666669</ele><time>2026-04-30T10:34:10.058Z</time></trkpt><trkpt lat="45.6588967" lon="13.8123817"><ele>175.33333333333334</ele><time>2026-04-30T10:34:11.132Z</time></trkpt><trkpt lat="45.6587717" lon="13.81257"><ele>180.0</ele><time>2026-04-30T10:34:12.073Z</time></trkpt><trkpt lat="45.6586533" lon="13.812745"><ele>178.5</ele><time>2026-04-30T10:34:13.012Z</time></trkpt><trkpt lat="45.6585417" lon="13.8128983"><ele>177.0</ele><time>2026-04-30T10:34:14.085Z</time></trkpt><trkpt lat="45.6584333" lon="13.8130267"><ele>175.5</ele><time>2026-04-30T10:34:15.093Z</time></trkpt><trkpt lat="45.6583283" lon="13.813135"><ele>174.0</ele><time>2026-04-30T10:34:16.098Z</time></trkpt><trkpt lat="45.6582267" lon="13.8132383"><ele>174.0</ele><time>2026-04-30T10:34:17.105Z</time></trkpt><trkpt lat="45.658125" lon="13.813335"><ele>174.0</ele><time>2026-04-30T10:34:18.045Z</time></trkpt><trkpt lat="45.6580283" lon="13.8134183"><ele>174.0</ele><time>2026-04-30T10:34:19.119Z</time></trkpt><trkpt lat="45.65793" lon="13.8135033"><ele>174.0</ele><time>2026-04-30T10:34:20.059Z</time></trkpt><trkpt lat="45.6578283" lon="13.813595"><ele>174.75</ele><time>2026-04-30T10:34:21.132Z</time></trkpt><trkpt lat="45.657725" lon="13.8136917"><ele>175.5</ele><time>2026-04-30T10:34:22.071Z</time></trkpt><trkpt lat="45.6576133" lon="13.8137917"><ele>176.25</ele><time>2026-04-30T10:34:23.078Z</time></trkpt><trkpt lat="45.65749" lon="13.8138883"><ele>177.0</ele><time>2026-04-30T10:34:24.085Z</time></trkpt><trkpt lat="45.6573633" lon="13.813985"><ele>177.0</ele><time>2026-04-30T10:34:25.091Z</time></trkpt><trkpt lat="45.6572283" lon="13.8140817"><ele>177.0</ele><time>2026-04-30T10:34:26.098Z</time></trkpt><trkpt lat="45.65709" lon="13.8141733"><ele>177.0</ele><time>2026-04-30T10:34:27.105Z</time></trkpt><trkpt lat="45.6569417" lon="13.814265"><ele>180.0</ele><time>2026-04-30T10:34:28.044Z</time></trkpt><trkpt lat="45.6567883" lon="13.8143567"><ele>183.0</ele><time>2026-04-30T10:34:29.117Z</time></trkpt><trkpt lat="45.6566333" lon="13.8144533"><ele>186.0</ele><time>2026-04-30T10:34:30.057Z</time></trkpt><trkpt lat="45.6564783" lon="13.81455"><ele>186.0</ele><time>2026-04-30T10:34:31.132Z</time></trkpt><trkpt lat="45.6563233" lon="13.81464"><ele>186.0</ele><time>2026-04-30T10:34:32.071Z</time></trkpt><trkpt lat="45.6561767" lon="13.8147317"><ele>186.0</ele><time>2026-04-30T10:34:33.077Z</time></trkpt><trkpt lat="45.6560333" lon="13.8148233"><ele>184.0</ele><time>2026-04-30T10:34:34.084Z</time></trkpt><trkpt lat="45.6558933" lon="13.8149117"><ele>182.0</ele><time>2026-04-30T10:34:35.09Z</time></trkpt><trkpt lat="45.655755" lon="13.8150017"><ele>180.0</ele><time>2026-04-30T10:34:36.098Z</time></trkpt><trkpt lat="45.6556133" lon="13.8150933"><ele>185.33333333333331</ele><time>2026-04-30T10:34:37.103Z</time></trkpt><trkpt lat="45.6554733" lon="13.81519"><ele>190.66666666666666</ele><time>2026-04-30T10:34:38.044Z</time></trkpt><trkpt lat="45.6553317" lon="13.8152967"><ele>196.0</ele><time>2026-04-30T10:34:39.117Z</time></trkpt><trkpt lat="45.6551917" lon="13.815415"><ele>196.0</ele><time>2026-04-30T10:34:40.056Z</time></trkpt><trkpt lat="45.6550467" lon="13.8155383"><ele>196.0</ele><time>2026-04-30T10:34:41.131Z</time></trkpt><trkpt lat="45.6549033" lon="13.81567"><ele>196.0</ele><time>2026-04-30T10:34:42.069Z</time></trkpt><trkpt lat="45.6547567" lon="13.8158033"><ele>196.0</ele><time>2026-04-30T10:34:43.076Z</time></trkpt><trkpt lat="45.6546067" lon="13.8159333"><ele>196.0</ele><time>2026-04-30T10:34:44.083Z</time></trkpt><trkpt lat="45.6544533" lon="13.816065"><ele>196.0</ele><time>2026-04-30T10:34:45.09Z</time></trkpt><trkpt lat="45.6542983" lon="13.8161883"><ele>198.66666666666666</ele><time>2026-04-30T10:34:46.097Z</time></trkpt><trkpt lat="45.6541383" lon="13.8163017"><ele>201.33333333333331</ele><time>2026-04-30T10:34:47.104Z</time></trkpt><trkpt lat="45.6539817" lon="13.816405"><ele>204.0</ele><time>2026-04-30T10:34:48.042Z</time></trkpt><trkpt lat="45.6538283" lon="13.8164917"><ele>204.0</ele><time>2026-04-30T10:34:49.116Z</time></trkpt><trkpt lat="45.6536817" lon="13.8165833"><ele>204.0</ele><time>2026-04-30T10:34:50.055Z</time></trkpt><trkpt lat="45.653535" lon="13.8166783"><ele>204.0</ele><time>2026-04-30T10:34:51.129Z</time></trkpt><trkpt lat="45.65339" lon="13.8167767"><ele>205.66666666666669</ele><time>2026-04-30T10:34:52.069Z</time></trkpt><trkpt lat="45.653245" lon="13.8168833"><ele>207.33333333333334</ele><time>2026-04-30T10:34:53.075Z</time></trkpt><trkpt lat="45.6531067" lon="13.817005"><ele>209.0</ele><time>2026-04-30T10:34:54.083Z</time></trkpt><trkpt lat="45.6529733" lon="13.8171433"><ele>209.0</ele><time>2026-04-30T10:34:55.09Z</time></trkpt><trkpt lat="45.6528467" lon="13.8172983"><ele>209.0</ele><time>2026-04-30T10:34:56.096Z</time></trkpt><trkpt lat="45.652725" lon="13.8174717"><ele>209.0</ele><time>2026-04-30T10:34:57.103Z</time></trkpt><trkpt lat="45.652605" lon="13.8176567"><ele>210.66666666666669</ele><time>2026-04-30T10:34:58.041Z</time></trkpt><trkpt lat="45.652485" lon="13.8178417"><ele>212.33333333333331</ele><time>2026-04-30T10:34:59.116Z</time></trkpt><trkpt lat="45.6523617" lon="13.81803"><ele>214.0</ele><time>2026-04-30T10:35:00.055Z</time></trkpt><trkpt lat="45.652235" lon="13.818225"><ele>214.0</ele><time>2026-04-30T10:35:01.128Z</time></trkpt><trkpt lat="45.652105" lon="13.81842"><ele>214.0</ele><time>2026-04-30T10:35:02.069Z</time></trkpt><trkpt lat="45.6519767" lon="13.8186133"><ele>214.0</ele><time>2026-04-30T10:35:03.075Z</time></trkpt><trkpt lat="45.65185" lon="13.8188083"><ele>213.33333333333331</ele><time>2026-04-30T10:35:04.081Z</time></trkpt><trkpt lat="45.651725" lon="13.8189917"><ele>212.66666666666669</ele><time>2026-04-30T10:35:05.089Z</time></trkpt><trkpt lat="45.651605" lon="13.8191667"><ele>212.0</ele><time>2026-04-30T10:35:06.094Z</time></trkpt><trkpt lat="45.6514933" lon="13.81933"><ele>216.33333333333334</ele><time>2026-04-30T10:35:07.102Z</time></trkpt><trkpt lat="45.651385" lon="13.819485"><ele>220.66666666666669</ele><time>2026-04-30T10:35:08.041Z</time></trkpt><trkpt lat="45.651275" lon="13.8196283"><ele>225.0</ele><time>2026-04-30T10:35:09.114Z</time></trkpt><trkpt lat="45.6511633" lon="13.81977"><ele>228.33333333333331</ele><time>2026-04-30T10:35:10.055Z</time></trkpt><trkpt lat="45.651045" lon="13.8199083"><ele>231.66666666666666</ele><time>2026-04-30T10:35:11.128Z</time></trkpt><trkpt lat="45.650915" lon="13.820035"><ele>235.0</ele><time>2026-04-30T10:35:12.068Z</time></trkpt><trkpt lat="45.650785" lon="13.8201583"><ele>235.0</ele><time>2026-04-30T10:35:13.074Z</time></trkpt><trkpt lat="45.6506483" lon="13.820285"><ele>235.0</ele><time>2026-04-30T10:35:14.08Z</time></trkpt><trkpt lat="45.6505067" lon="13.8204083"><ele>235.0</ele><time>2026-04-30T10:35:15.087Z</time></trkpt><trkpt lat="45.6503633" lon="13.820535"><ele>229.0</ele><time>2026-04-30T10:35:16.094Z</time></trkpt><trkpt lat="45.6502217" lon="13.8206717"><ele>223.0</ele><time>2026-04-30T10:35:17.1Z</time></trkpt><trkpt lat="45.650085" lon="13.8208167"><ele>217.0</ele><time>2026-04-30T10:35:18.041Z</time></trkpt><trkpt lat="45.6499517" lon="13.82098"><ele>222.33333333333331</ele><time>2026-04-30T10:35:19.115Z</time></trkpt><trkpt lat="45.6498233" lon="13.82116"><ele>227.66666666666669</ele><time>2026-04-30T10:35:20.053Z</time></trkpt><trkpt lat="45.649695" lon="13.82135"><ele>233.0</ele><time>2026-04-30T10:35:21.127Z</time></trkpt><trkpt lat="45.649565" lon="13.8215417"><ele>233.66666666666669</ele><time>2026-04-30T10:35:22.066Z</time></trkpt><trkpt lat="45.649435" lon="13.82173"><ele>234.33333333333331</ele><time>2026-04-30T10:35:23.073Z</time></trkpt><trkpt lat="45.64931" lon="13.8219267"><ele>235.0</ele><time>2026-04-30T10:35:24.08Z</time></trkpt><trkpt lat="45.6491967" lon="13.822135"><ele>235.0</ele><time>2026-04-30T10:35:25.086Z</time></trkpt><trkpt lat="45.6490883" lon="13.8223417"><ele>235.0</ele><time>2026-04-30T10:35:26.094Z</time></trkpt><trkpt lat="45.6489783" lon="13.8225267"><ele>235.0</ele><time>2026-04-30T10:35:27.099Z</time></trkpt><trkpt lat="45.6488583" lon="13.8226883"><ele>235.66666666666666</ele><time>2026-04-30T10:35:28.04Z</time></trkpt><trkpt lat="45.6487317" lon="13.8228367"><ele>236.33333333333331</ele><time>2026-04-30T10:35:29.114Z</time></trkpt><trkpt lat="45.6486" lon="13.822985"><ele>237.0</ele><time>2026-04-30T10:35:30.052Z</time></trkpt><trkpt lat="45.64847" lon="13.8231383"><ele>237.0</ele><time>2026-04-30T10:35:31.126Z</time></trkpt><trkpt lat="45.6483467" lon="13.823285"><ele>237.0</ele><time>2026-04-30T10:35:32.066Z</time></trkpt><trkpt lat="45.64823" lon="13.8234217"><ele>237.0</ele><time>2026-04-30T10:35:33.073Z</time></trkpt><trkpt lat="45.648125" lon="13.82357"><ele>245.66666666666669</ele><time>2026-04-30T10:35:34.079Z</time></trkpt><trkpt lat="45.6480267" lon="13.823735"><ele>254.33333333333334</ele><time>2026-04-30T10:35:35.085Z</time></trkpt><trkpt lat="45.64794" lon="13.8239183"><ele>263.0</ele><time>2026-04-30T10:35:36.092Z</time></trkpt><trkpt lat="45.647855" lon="13.824115"><ele>259.0</ele><time>2026-04-30T10:35:37.099Z</time></trkpt><trkpt lat="45.6477683" lon="13.8243167"><ele>255.0</ele><time>2026-04-30T10:35:38.038Z</time></trkpt><trkpt lat="45.6476767" lon="13.8245117"><ele>251.0</ele><time>2026-04-30T10:35:39.113Z</time></trkpt><trkpt lat="45.6475767" lon="13.8246983"><ele>251.0</ele><time>2026-04-30T10:35:40.051Z</time></trkpt><trkpt lat="45.647465" lon="13.82488"><ele>251.0</ele><time>2026-04-30T10:35:41.058Z</time></trkpt><trkpt lat="45.6473467" lon="13.825055"><ele>251.0</ele><time>2026-04-30T10:35:42.065Z</time></trkpt><trkpt lat="45.647215" lon="13.8252117"><ele>253.33333333333334</ele><time>2026-04-30T10:35:43.071Z</time></trkpt><trkpt lat="45.6470767" lon="13.82535"><ele>255.66666666666669</ele><time>2026-04-30T10:35:44.078Z</time></trkpt><trkpt lat="45.646935" lon="13.8254567"><ele>258.0</ele><time>2026-04-30T10:35:45.086Z</time></trkpt><trkpt lat="45.64679" lon="13.8255333"><ele>258.0</ele><time>2026-04-30T10:35:46.024Z</time></trkpt><trkpt lat="45.6466417" lon="13.8255967"><ele>258.0</ele><time>2026-04-30T10:35:47.098Z</time></trkpt><trkpt lat="45.6464883" lon="13.825655"><ele>258.0</ele><time>2026-04-30T10:35:48.037Z</time></trkpt><trkpt lat="45.6463317" lon="13.8257233"><ele>258.0</ele><time>2026-04-30T10:35:49.111Z</time></trkpt><trkpt lat="45.6461733" lon="13.8258033"><ele>258.0</ele><time>2026-04-30T10:35:50.051Z</time></trkpt><trkpt lat="45.646015" lon="13.8259017"><ele>258.0</ele><time>2026-04-30T10:35:51.058Z</time></trkpt><trkpt lat="45.64586" lon="13.82602"><ele>259.3333333333333</ele><time>2026-04-30T10:35:52.064Z</time></trkpt><trkpt lat="45.6457083" lon="13.8261583"><ele>260.66666666666663</ele><time>2026-04-30T10:35:53.071Z</time></trkpt><trkpt lat="45.6455583" lon="13.82631"><ele>262.0</ele><time>2026-04-30T10:35:54.145Z</time></trkpt><trkpt lat="45.645405" lon="13.8264717"><ele>263.3333333333333</ele><time>2026-04-30T10:35:55.085Z</time></trkpt><trkpt lat="45.6452483" lon="13.826635"><ele>264.6666666666667</ele><time>2026-04-30T10:35:56.024Z</time></trkpt><trkpt lat="45.6450883" lon="13.826805"><ele>266.0</ele><time>2026-04-30T10:35:57.097Z</time></trkpt><trkpt lat="45.64493" lon="13.8269783"><ele>266.0</ele><time>2026-04-30T10:35:58.038Z</time></trkpt><trkpt lat="45.6447683" lon="13.8271533"><ele>266.0</ele><time>2026-04-30T10:35:59.11Z</time></trkpt><trkpt lat="45.6446083" lon="13.8273383"><ele>266.0</ele><time>2026-04-30T10:36:00.05Z</time></trkpt><trkpt lat="45.6444533" lon="13.8275367"><ele>268.0</ele><time>2026-04-30T10:36:01.057Z</time></trkpt><trkpt lat="45.644305" lon="13.8277333"><ele>270.0</ele><time>2026-04-30T10:36:02.063Z</time></trkpt><trkpt lat="45.64416" lon="13.8279317"><ele>272.0</ele><time>2026-04-30T10:36:03.07Z</time></trkpt><trkpt lat="45.6440183" lon="13.82813"><ele>272.0</ele><time>2026-04-30T10:36:04.144Z</time></trkpt><trkpt lat="45.6438783" lon="13.828325"><ele>272.0</ele><time>2026-04-30T10:36:05.084Z</time></trkpt><trkpt lat="45.64374" lon="13.8285217"><ele>272.0</ele><time>2026-04-30T10:36:06.023Z</time></trkpt><trkpt lat="45.6436033" lon="13.8287183"><ele>273.33333333333337</ele><time>2026-04-30T10:36:07.096Z</time></trkpt><trkpt lat="45.6434667" lon="13.8289117"><ele>274.6666666666667</ele><time>2026-04-30T10:36:08.037Z</time></trkpt><trkpt lat="45.6433317" lon="13.8291083"><ele>276.0</ele><time>2026-04-30T10:36:09.11Z</time></trkpt><trkpt lat="45.6431967" lon="13.8293017"><ele>274.0</ele><time>2026-04-30T10:36:10.049Z</time></trkpt><trkpt lat="45.64306" lon="13.82949"><ele>272.0</ele><time>2026-04-30T10:36:11.056Z</time></trkpt><trkpt lat="45.6429233" lon="13.8296783"><ele>270.0</ele><time>2026-04-30T10:36:12.13Z</time></trkpt><trkpt lat="45.6427867" lon="13.82987"><ele>270.0</ele><time>2026-04-30T10:36:13.07Z</time></trkpt><trkpt lat="45.6426483" lon="13.8300683"><ele>270.0</ele><time>2026-04-30T10:36:14.143Z</time></trkpt><trkpt lat="45.6425067" lon="13.8302717"><ele>270.0</ele><time>2026-04-30T10:36:15.083Z</time></trkpt><trkpt lat="45.6423633" lon="13.8304767"><ele>277.0</ele><time>2026-04-30T10:36:16.022Z</time></trkpt><trkpt lat="45.64222" lon="13.83068"><ele>284.0</ele><time>2026-04-30T10:36:17.096Z</time></trkpt><trkpt lat="45.6420833" lon="13.8308767"><ele>291.0</ele><time>2026-04-30T10:36:18.035Z</time></trkpt><trkpt lat="45.6419567" lon="13.8310533"><ele>292.6666666666667</ele><time>2026-04-30T10:36:19.11Z</time></trkpt><trkpt lat="45.6418317" lon="13.8312233"><ele>294.33333333333337</ele><time>2026-04-30T10:36:20.116Z</time></trkpt><trkpt lat="45.641705" lon="13.83139"><ele>296.0</ele><time>2026-04-30T10:36:21.055Z</time></trkpt><trkpt lat="45.6415733" lon="13.8315633"><ele>296.0</ele><time>2026-04-30T10:36:22.129Z</time></trkpt><trkpt lat="45.64144" lon="13.8317417"><ele>296.0</ele><time>2026-04-30T10:36:23.068Z</time></trkpt><trkpt lat="45.6413067" lon="13.831925"><ele>296.0</ele><time>2026-04-30T10:36:24.142Z</time></trkpt><trkpt lat="45.6411733" lon="13.8321033"><ele>294.0</ele><time>2026-04-30T10:36:25.082Z</time></trkpt><trkpt lat="45.6410483" lon="13.8322717"><ele>292.0</ele><time>2026-04-30T10:36:26.021Z</time></trkpt><trkpt lat="45.64093" lon="13.83243"><ele>290.0</ele><time>2026-04-30T10:36:27.096Z</time></trkpt><trkpt lat="45.640815" lon="13.8325867"><ele>296.0</ele><time>2026-04-30T10:36:28.101Z</time></trkpt><trkpt lat="45.6407033" lon="13.8327483"><ele>302.0</ele><time>2026-04-30T10:36:29.109Z</time></trkpt><trkpt lat="45.6405917" lon="13.8329083"><ele>308.0</ele><time>2026-04-30T10:36:30.115Z</time></trkpt><trkpt lat="45.6404817" lon="13.8330667"><ele>308.0</ele><time>2026-04-30T10:36:31.055Z</time></trkpt><trkpt lat="45.6403683" lon="13.8332217"><ele>308.0</ele><time>2026-04-30T10:36:32.128Z</time></trkpt><trkpt lat="45.6402567" lon="13.8333767"><ele>308.0</ele><time>2026-04-30T10:36:33.068Z</time></trkpt><trkpt lat="45.64015" lon="13.8335317"><ele>307.25</ele><time>2026-04-30T10:36:34.142Z</time></trkpt><trkpt lat="45.640045" lon="13.83368"><ele>306.5</ele><time>2026-04-30T10:36:35.081Z</time></trkpt><trkpt lat="45.6399433" lon="13.83383"><ele>305.75</ele><time>2026-04-30T10:36:36.087Z</time></trkpt><trkpt lat="45.63985" lon="13.8339733"><ele>305.0</ele><time>2026-04-30T10:36:37.094Z</time></trkpt><trkpt lat="45.6397617" lon="13.8341167"><ele>305.0</ele><time>2026-04-30T10:36:38.102Z</time></trkpt><trkpt lat="45.639675" lon="13.83426"><ele>305.0</ele><time>2026-04-30T10:36:39.107Z</time></trkpt><trkpt lat="45.63959" lon="13.834405"><ele>305.0</ele><time>2026-04-30T10:36:40.114Z</time></trkpt><trkpt lat="45.6395083" lon="13.8345567"><ele>305.0</ele><time>2026-04-30T10:36:41.054Z</time></trkpt><trkpt lat="45.639425" lon="13.8347067"><ele>305.0</ele><time>2026-04-30T10:36:42.128Z</time></trkpt><trkpt lat="45.6393317" lon="13.83485"><ele>305.0</ele><time>2026-04-30T10:36:43.067Z</time></trkpt><trkpt lat="45.6392267" lon="13.8349767"><ele>305.0</ele><time>2026-04-30T10:36:44.14Z</time></trkpt><trkpt lat="45.6391083" lon="13.835085"><ele>305.0</ele><time>2026-04-30T10:36:45.08Z</time></trkpt><trkpt lat="45.6389817" lon="13.8351883"><ele>306.75</ele><time>2026-04-30T10:36:46.088Z</time></trkpt><trkpt lat="45.6388533" lon="13.8352917"><ele>308.5</ele><time>2026-04-30T10:36:47.094Z</time></trkpt><trkpt lat="45.6387217" lon="13.835395"><ele>310.25</ele><time>2026-04-30T10:36:48.101Z</time></trkpt><trkpt lat="45.63859" lon="13.8355"><ele>312.0</ele><time>2026-04-30T10:36:49.108Z</time></trkpt><trkpt lat="45.638465" lon="13.8356017"><ele>312.0</ele><time>2026-04-30T10:36:50.114Z</time></trkpt><trkpt lat="45.6383483" lon="13.8357017"><ele>312.0</ele><time>2026-04-30T10:36:51.053Z</time></trkpt><trkpt lat="45.6382367" lon="13.8358"><ele>312.0</ele><time>2026-04-30T10:36:52.126Z</time></trkpt><trkpt lat="45.63802" lon="13.8360033"><ele>311.25</ele><time>2026-04-30T10:36:54.14Z</time></trkpt><trkpt lat="45.6379183" lon="13.8360983"><ele>310.5</ele><time>2026-04-30T10:36:55.08Z</time></trkpt><trkpt lat="45.6378233" lon="13.83619"><ele>309.75</ele><time>2026-04-30T10:36:56.086Z</time></trkpt><trkpt lat="45.637725" lon="13.8362917"><ele>309.0</ele><time>2026-04-30T10:36:57.092Z</time></trkpt><trkpt lat="45.6376233" lon="13.8363983"><ele>309.0</ele><time>2026-04-30T10:36:58.1Z</time></trkpt><trkpt lat="45.63752" lon="13.8365067"><ele>309.0</ele><time>2026-04-30T10:36:59.106Z</time></trkpt><trkpt lat="45.637305" lon="13.8366883"><ele>309.0</ele><time>2026-04-30T10:37:01.053Z</time></trkpt><trkpt lat="45.6371817" lon="13.8367583"><ele>310.25</ele><time>2026-04-30T10:37:02.127Z</time></trkpt><trkpt lat="45.6370517" lon="13.8368333"><ele>311.5</ele><time>2026-04-30T10:37:03.066Z</time></trkpt><trkpt lat="45.6369217" lon="13.83692"><ele>312.75</ele><time>2026-04-30T10:37:04.139Z</time></trkpt><trkpt lat="45.636785" lon="13.8370233"><ele>314.0</ele><time>2026-04-30T10:37:05.079Z</time></trkpt><trkpt lat="45.636645" lon="13.83713"><ele>314.0</ele><time>2026-04-30T10:37:06.086Z</time></trkpt><trkpt lat="45.6364983" lon="13.83724"><ele>314.0</ele><time>2026-04-30T10:37:07.092Z</time></trkpt><trkpt lat="45.63635" lon="13.8373533"><ele>314.0</ele><time>2026-04-30T10:37:08.098Z</time></trkpt><trkpt lat="45.6361933" lon="13.8374633"><ele>314.0</ele><time>2026-04-30T10:37:09.039Z</time></trkpt><trkpt lat="45.6360333" lon="13.837565"><ele>314.0</ele><time>2026-04-30T10:37:10.113Z</time></trkpt><trkpt lat="45.6358767" lon="13.8376633"><ele>314.0</ele><time>2026-04-30T10:37:11.051Z</time></trkpt><trkpt lat="45.6357233" lon="13.8377633"><ele>314.0</ele><time>2026-04-30T10:37:12.125Z</time></trkpt><trkpt lat="45.6355767" lon="13.837865"><ele>314.0</ele><time>2026-04-30T10:37:13.065Z</time></trkpt><trkpt lat="45.6354333" lon="13.8379683"><ele>314.0</ele><time>2026-04-30T10:37:14.071Z</time></trkpt><trkpt lat="45.63529" lon="13.838075"><ele>306.6666666666667</ele><time>2026-04-30T10:37:15.078Z</time></trkpt><trkpt lat="45.6351433" lon="13.8381817"><ele>299.3333333333333</ele><time>2026-04-30T10:37:16.084Z</time></trkpt><trkpt lat="45.6349983" lon="13.8382867"><ele>292.0</ele><time>2026-04-30T10:37:17.092Z</time></trkpt><trkpt lat="45.6348583" lon="13.8383967"><ele>299.0</ele><time>2026-04-30T10:37:18.098Z</time></trkpt><trkpt lat="45.6347217" lon="13.838515"><ele>306.0</ele><time>2026-04-30T10:37:19.038Z</time></trkpt><trkpt lat="45.634595" lon="13.8386467"><ele>313.0</ele><time>2026-04-30T10:37:20.112Z</time></trkpt><trkpt lat="45.634475" lon="13.8387917"><ele>309.0</ele><time>2026-04-30T10:37:21.05Z</time></trkpt><trkpt lat="45.6343667" lon="13.8389483"><ele>305.0</ele><time>2026-04-30T10:37:22.125Z</time></trkpt><trkpt lat="45.6342667" lon="13.8391183"><ele>301.0</ele><time>2026-04-30T10:37:23.065Z</time></trkpt><trkpt lat="45.634175" lon="13.8393033"><ele>301.0</ele><time>2026-04-30T10:37:24.07Z</time></trkpt><trkpt lat="45.6340883" lon="13.8394833"><ele>301.0</ele><time>2026-04-30T10:37:25.077Z</time></trkpt><trkpt lat="45.634" lon="13.8396533"><ele>301.0</ele><time>2026-04-30T10:37:26.083Z</time></trkpt><trkpt lat="45.63391" lon="13.8398117"><ele>301.0</ele><time>2026-04-30T10:37:27.091Z</time></trkpt><trkpt lat="45.6338133" lon="13.8399633"><ele>301.0</ele><time>2026-04-30T10:37:28.098Z</time></trkpt><trkpt lat="45.6337167" lon="13.8401117"><ele>301.0</ele><time>2026-04-30T10:37:29.036Z</time></trkpt><trkpt lat="45.63362" lon="13.840235"><ele>301.0</ele><time>2026-04-30T10:37:30.11Z</time></trkpt><trkpt lat="45.6335133" lon="13.8403117"><ele>301.0</ele><time>2026-04-30T10:37:31.05Z</time></trkpt><trkpt lat="45.63341" lon="13.8403567"><ele>298.8</ele><time>2026-04-30T10:37:32.123Z</time></trkpt><trkpt lat="45.633305" lon="13.8403933"><ele>296.6</ele><time>2026-04-30T10:37:33.063Z</time></trkpt><trkpt lat="45.6332017" lon="13.8404367"><ele>294.4</ele><time>2026-04-30T10:37:34.069Z</time></trkpt><trkpt lat="45.6331017" lon="13.8404917"><ele>292.2</ele><time>2026-04-30T10:37:35.076Z</time></trkpt><trkpt lat="45.6329867" lon="13.8405633"><ele>290.0</ele><time>2026-04-30T10:37:36.083Z</time></trkpt><trkpt lat="45.6328567" lon="13.84064"><ele>286.0</ele><time>2026-04-30T10:37:37.09Z</time></trkpt><trkpt lat="45.6327167" lon="13.8407233"><ele>282.0</ele><time>2026-04-30T10:37:38.096Z</time></trkpt><trkpt lat="45.6325683" lon="13.84082"><ele>278.0</ele><time>2026-04-30T10:37:39.036Z</time></trkpt><trkpt lat="45.63241" lon="13.8409183"><ele>275.0</ele><time>2026-04-30T10:37:40.109Z</time></trkpt><trkpt lat="45.6322483" lon="13.841015"><ele>272.0</ele><time>2026-04-30T10:37:41.049Z</time></trkpt><trkpt lat="45.6320867" lon="13.841115"><ele>269.0</ele><time>2026-04-30T10:37:42.123Z</time></trkpt><trkpt lat="45.63193" lon="13.8412117"><ele>269.0</ele><time>2026-04-30T10:37:43.062Z</time></trkpt><trkpt lat="45.6317783" lon="13.84131"><ele>269.0</ele><time>2026-04-30T10:37:44.069Z</time></trkpt><trkpt lat="45.631635" lon="13.84141"><ele>269.0</ele><time>2026-04-30T10:37:45.076Z</time></trkpt><trkpt lat="45.6315017" lon="13.8415267"><ele>269.0</ele><time>2026-04-30T10:37:46.082Z</time></trkpt><trkpt lat="45.6313783" lon="13.8416667"><ele>269.0</ele><time>2026-04-30T10:37:47.089Z</time></trkpt><trkpt lat="45.6312567" lon="13.8418233"><ele>269.0</ele><time>2026-04-30T10:37:48.096Z</time></trkpt><trkpt lat="45.6311333" lon="13.8419933"><ele>266.33333333333337</ele><time>2026-04-30T10:37:49.035Z</time></trkpt><trkpt lat="45.6310067" lon="13.8421617"><ele>263.6666666666667</ele><time>2026-04-30T10:37:50.109Z</time></trkpt><trkpt lat="45.6308817" lon="13.8423233"><ele>261.0</ele><time>2026-04-30T10:37:51.048Z</time></trkpt><trkpt lat="45.630755" lon="13.8424667"><ele>261.0</ele><time>2026-04-30T10:37:52.123Z</time></trkpt><trkpt lat="45.6306233" lon="13.84259"><ele>261.0</ele><time>2026-04-30T10:37:53.062Z</time></trkpt><trkpt lat="45.6304867" lon="13.8426967"><ele>261.0</ele><time>2026-04-30T10:37:54.068Z</time></trkpt><trkpt lat="45.6303483" lon="13.8427767"><ele>262.6666666666667</ele><time>2026-04-30T10:37:55.076Z</time></trkpt><trkpt lat="45.6302033" lon="13.84284"><ele>264.33333333333337</ele><time>2026-04-30T10:37:56.081Z</time></trkpt><trkpt lat="45.63005" lon="13.842885"><ele>266.0</ele><time>2026-04-30T10:37:57.089Z</time></trkpt><trkpt lat="45.62989" lon="13.8429117"><ele>266.0</ele><time>2026-04-30T10:37:58.095Z</time></trkpt><trkpt lat="45.629725" lon="13.842925"><ele>266.0</ele><time>2026-04-30T10:37:59.035Z</time></trkpt><trkpt lat="45.6295567" lon="13.8429317"><ele>266.0</ele><time>2026-04-30T10:38:00.109Z</time></trkpt><trkpt lat="45.6293833" lon="13.8429367"><ele>260.6666666666667</ele><time>2026-04-30T10:38:01.047Z</time></trkpt><trkpt lat="45.6292117" lon="13.8429517"><ele>255.33333333333331</ele><time>2026-04-30T10:38:02.121Z</time></trkpt><trkpt lat="45.6290483" lon="13.8429717"><ele>250.0</ele><time>2026-04-30T10:38:03.06Z</time></trkpt><trkpt lat="45.6288883" lon="13.8429983"><ele>250.0</ele><time>2026-04-30T10:38:04.067Z</time></trkpt><trkpt lat="45.628725" lon="13.8430367"><ele>250.0</ele><time>2026-04-30T10:38:05.074Z</time></trkpt><trkpt lat="45.6285617" lon="13.84309"><ele>250.0</ele><time>2026-04-30T10:38:06.081Z</time></trkpt><trkpt lat="45.6283983" lon="13.8431617"><ele>244.33333333333331</ele><time>2026-04-30T10:38:07.087Z</time></trkpt><trkpt lat="45.6282333" lon="13.8432517"><ele>238.66666666666669</ele><time>2026-04-30T10:38:08.094Z</time></trkpt><trkpt lat="45.62807" lon="13.8433467"><ele>233.0</ele><time>2026-04-30T10:38:09.034Z</time></trkpt><trkpt lat="45.62791" lon="13.8434333"><ele>235.33333333333334</ele><time>2026-04-30T10:38:10.108Z</time></trkpt><trkpt lat="45.627755" lon="13.8435"><ele>237.66666666666669</ele><time>2026-04-30T10:38:11.047Z</time></trkpt><trkpt lat="45.6276033" lon="13.8435433"><ele>240.0</ele><time>2026-04-30T10:38:12.12Z</time></trkpt><trkpt lat="45.6274517" lon="13.8435683"><ele>240.0</ele><time>2026-04-30T10:38:13.06Z</time></trkpt><trkpt lat="45.6272983" lon="13.843595"><ele>240.0</ele><time>2026-04-30T10:38:14.067Z</time></trkpt><trkpt lat="45.6271467" lon="13.843635"><ele>240.0</ele><time>2026-04-30T10:38:15.074Z</time></trkpt><trkpt lat="45.6270033" lon="13.8436933"><ele>234.66666666666669</ele><time>2026-04-30T10:38:16.081Z</time></trkpt><trkpt lat="45.626865" lon="13.8437717"><ele>229.33333333333334</ele><time>2026-04-30T10:38:17.153Z</time></trkpt><trkpt lat="45.6267367" lon="13.84388"><ele>224.0</ele><time>2026-04-30T10:38:18.094Z</time></trkpt><trkpt lat="45.6266167" lon="13.8440183"><ele>224.0</ele><time>2026-04-30T10:38:19.032Z</time></trkpt><trkpt lat="45.6265067" lon="13.84418"><ele>224.0</ele><time>2026-04-30T10:38:20.106Z</time></trkpt><trkpt lat="45.626405" lon="13.844365"><ele>224.0</ele><time>2026-04-30T10:38:21.046Z</time></trkpt><trkpt lat="45.626305" lon="13.8445567"><ele>222.0</ele><time>2026-04-30T10:38:22.119Z</time></trkpt><trkpt lat="45.6262017" lon="13.8447483"><ele>220.0</ele><time>2026-04-30T10:38:23.06Z</time></trkpt><trkpt lat="45.62609" lon="13.8449433"><ele>218.0</ele><time>2026-04-30T10:38:24.066Z</time></trkpt><trkpt lat="45.625975" lon="13.8451383"><ele>218.0</ele><time>2026-04-30T10:38:25.139Z</time></trkpt><trkpt lat="45.6258567" lon="13.8453383"><ele>218.0</ele><time>2026-04-30T10:38:26.08Z</time></trkpt><trkpt lat="45.6257367" lon="13.8455433"><ele>218.0</ele><time>2026-04-30T10:38:27.154Z</time></trkpt><trkpt lat="45.625615" lon="13.8457517"><ele>218.0</ele><time>2026-04-30T10:38:28.092Z</time></trkpt><trkpt lat="45.625495" lon="13.845955"><ele>218.0</ele><time>2026-04-30T10:38:29.032Z</time></trkpt><trkpt lat="45.6253833" lon="13.84615"><ele>218.0</ele><time>2026-04-30T10:38:30.105Z</time></trkpt><trkpt lat="45.6252767" lon="13.846335"><ele>216.33333333333334</ele><time>2026-04-30T10:38:31.045Z</time></trkpt><trkpt lat="45.6251733" lon="13.8465217"><ele>214.66666666666669</ele><time>2026-04-30T10:38:32.119Z</time></trkpt><trkpt lat="45.6250717" lon="13.846705"><ele>213.0</ele><time>2026-04-30T10:38:33.059Z</time></trkpt><trkpt lat="45.6249833" lon="13.8468967"><ele>213.0</ele><time>2026-04-30T10:38:34.066Z</time></trkpt><trkpt lat="45.62491" lon="13.8471017"><ele>213.0</ele><time>2026-04-30T10:38:35.14Z</time></trkpt><trkpt lat="45.6248533" lon="13.8473167"><ele>213.0</ele><time>2026-04-30T10:38:36.078Z</time></trkpt><trkpt lat="45.6248083" lon="13.847535"><ele>215.66666666666669</ele><time>2026-04-30T10:38:37.153Z</time></trkpt><trkpt lat="45.6247817" lon="13.8477567"><ele>218.33333333333334</ele><time>2026-04-30T10:38:38.092Z</time></trkpt><trkpt lat="45.6247683" lon="13.8479767"><ele>221.0</ele><time>2026-04-30T10:38:39.032Z</time></trkpt><trkpt lat="45.624775" lon="13.8482033"><ele>221.0</ele><time>2026-04-30T10:38:40.106Z</time></trkpt><trkpt lat="45.6247917" lon="13.8484283"><ele>221.0</ele><time>2026-04-30T10:38:41.045Z</time></trkpt><trkpt lat="45.6248183" lon="13.8486533"><ele>221.0</ele><time>2026-04-30T10:38:42.052Z</time></trkpt><trkpt lat="45.624855" lon="13.848875"><ele>218.66666666666669</ele><time>2026-04-30T10:38:43.125Z</time></trkpt><trkpt lat="45.6249033" lon="13.8490983"><ele>216.33333333333331</ele><time>2026-04-30T10:38:44.064Z</time></trkpt><trkpt lat="45.624955" lon="13.8493133"><ele>214.0</ele><time>2026-04-30T10:38:45.138Z</time></trkpt><trkpt lat="45.6249983" lon="13.8495317"><ele>210.0</ele><time>2026-04-30T10:38:46.077Z</time></trkpt><trkpt lat="45.62503" lon="13.8497583"><ele>206.0</ele><time>2026-04-30T10:38:47.018Z</time></trkpt><trkpt lat="45.6250517" lon="13.8499917"><ele>202.0</ele><time>2026-04-30T10:38:48.091Z</time></trkpt><trkpt lat="45.6250533" lon="13.8502283"><ele>201.0</ele><time>2026-04-30T10:38:49.03Z</time></trkpt><trkpt lat="45.6250367" lon="13.850465"><ele>200.0</ele><time>2026-04-30T10:38:50.104Z</time></trkpt><trkpt lat="45.6250067" lon="13.8506867"><ele>199.0</ele><time>2026-04-30T10:38:51.111Z</time></trkpt><trkpt lat="45.6249717" lon="13.8508967"><ele>199.5</ele><time>2026-04-30T10:38:52.05Z</time></trkpt><trkpt lat="45.6249533" lon="13.8510983"><ele>200.0</ele><time>2026-04-30T10:38:53.125Z</time></trkpt><trkpt lat="45.6249583" lon="13.8513033"><ele>200.5</ele><time>2026-04-30T10:38:54.064Z</time></trkpt><trkpt lat="45.6249833" lon="13.8515117"><ele>201.0</ele><time>2026-04-30T10:38:55.137Z</time></trkpt><trkpt lat="45.62503" lon="13.8517167"><ele>198.33333333333331</ele><time>2026-04-30T10:38:56.077Z</time></trkpt><trkpt lat="45.6250917" lon="13.8519217"><ele>195.66666666666666</ele><time>2026-04-30T10:38:57.017Z</time></trkpt><trkpt lat="45.62516" lon="13.8521267"><ele>193.0</ele><time>2026-04-30T10:38:58.09Z</time></trkpt><trkpt lat="45.625225" lon="13.8523217"><ele>193.0</ele><time>2026-04-30T10:38:59.096Z</time></trkpt><trkpt lat="45.625275" lon="13.852515"><ele>193.0</ele><time>2026-04-30T10:39:00.104Z</time></trkpt><trkpt lat="45.625305" lon="13.8527017"><ele>193.0</ele><time>2026-04-30T10:39:01.111Z</time></trkpt><trkpt lat="45.6253067" lon="13.852885"><ele>193.0</ele><time>2026-04-30T10:39:02.05Z</time></trkpt><trkpt lat="45.6252883" lon="13.853085"><ele>192.0</ele><time>2026-04-30T10:39:03.123Z</time></trkpt><trkpt lat="45.6252717" lon="13.8533017"><ele>191.0</ele><time>2026-04-30T10:39:04.062Z</time></trkpt><trkpt lat="45.625255" lon="13.85353"><ele>190.0</ele><time>2026-04-30T10:39:05.136Z</time></trkpt><trkpt lat="45.625235" lon="13.8537667"><ele>189.33333333333334</ele><time>2026-04-30T10:39:06.076Z</time></trkpt><trkpt lat="45.6252133" lon="13.85401"><ele>188.66666666666666</ele><time>2026-04-30T10:39:07.083Z</time></trkpt><trkpt lat="45.6251933" lon="13.854255"><ele>188.0</ele><time>2026-04-30T10:39:08.089Z</time></trkpt><trkpt lat="45.6251467" lon="13.8547517"><ele>188.33333333333331</ele><time>2026-04-30T10:39:10.102Z</time></trkpt><trkpt lat="45.6251117" lon="13.85499"><ele>188.66666666666666</ele><time>2026-04-30T10:39:11.11Z</time></trkpt><trkpt lat="45.62507" lon="13.8552167"><ele>189.0</ele><time>2026-04-30T10:39:12.048Z</time></trkpt><trkpt lat="45.6250217" lon="13.8554383"><ele>189.0</ele><time>2026-04-30T10:39:13.122Z</time></trkpt><trkpt lat="45.624965" lon="13.8556583"><ele>189.0</ele><time>2026-04-30T10:39:14.063Z</time></trkpt><trkpt lat="45.6249033" lon="13.8558767"><ele>189.0</ele><time>2026-04-30T10:39:15.136Z</time></trkpt><trkpt lat="45.624835" lon="13.8560967"><ele>191.66666666666669</ele><time>2026-04-30T10:39:16.075Z</time></trkpt><trkpt lat="45.6247567" lon="13.8563133"><ele>194.33333333333334</ele><time>2026-04-30T10:39:17.082Z</time></trkpt><trkpt lat="45.624675" lon="13.85653"><ele>197.0</ele><time>2026-04-30T10:39:18.088Z</time></trkpt><trkpt lat="45.62459" lon="13.8567433"><ele>198.75</ele><time>2026-04-30T10:39:19.095Z</time></trkpt><trkpt lat="45.62451" lon="13.856945"><ele>200.5</ele><time>2026-04-30T10:39:20.101Z</time></trkpt><trkpt lat="45.624435" lon="13.857125"><ele>202.25</ele><time>2026-04-30T10:39:21.108Z</time></trkpt><trkpt lat="45.6243617" lon="13.8572817"><ele>204.0</ele><time>2026-04-30T10:39:22.049Z</time></trkpt><trkpt lat="45.62428" lon="13.8574183"><ele>200.5</ele><time>2026-04-30T10:39:23.121Z</time></trkpt><trkpt lat="45.624175" lon="13.857525"><ele>197.0</ele><time>2026-04-30T10:39:24.061Z</time></trkpt><trkpt lat="45.6240517" lon="13.8576217"><ele>193.5</ele><time>2026-04-30T10:39:25.135Z</time></trkpt><trkpt lat="45.6239183" lon="13.85771"><ele>190.0</ele><time>2026-04-30T10:39:26.074Z</time></trkpt><trkpt lat="45.623795" lon="13.8577967"><ele>190.0</ele><time>2026-04-30T10:39:27.081Z</time></trkpt><trkpt lat="45.62368" lon="13.8578867"><ele>190.0</ele><time>2026-04-30T10:39:28.087Z</time></trkpt><trkpt lat="45.6235717" lon="13.8579733"><ele>190.0</ele><time>2026-04-30T10:39:29.095Z</time></trkpt><trkpt lat="45.623475" lon="13.8580733"><ele>190.0</ele><time>2026-04-30T10:39:30.102Z</time></trkpt><trkpt lat="45.6233917" lon="13.8582"><ele>185.5</ele><time>2026-04-30T10:39:31.107Z</time></trkpt><trkpt lat="45.623325" lon="13.858345"><ele>181.0</ele><time>2026-04-30T10:39:32.047Z</time></trkpt><trkpt lat="45.6232833" lon="13.8585033"><ele>176.5</ele><time>2026-04-30T10:39:33.121Z</time></trkpt><trkpt lat="45.6232633" lon="13.8586633"><ele>172.0</ele><time>2026-04-30T10:39:34.06Z</time></trkpt><trkpt lat="45.623265" lon="13.8588267"><ele>171.25</ele><time>2026-04-30T10:39:35.135Z</time></trkpt><trkpt lat="45.6232933" lon="13.8589983"><ele>170.5</ele><time>2026-04-30T10:39:36.074Z</time></trkpt><trkpt lat="45.623345" lon="13.8591483"><ele>169.75</ele><time>2026-04-30T10:39:37.08Z</time></trkpt><trkpt lat="45.6234117" lon="13.8592783"><ele>169.0</ele><time>2026-04-30T10:39:38.088Z</time></trkpt><trkpt lat="45.6234933" lon="13.859395"><ele>167.2</ele><time>2026-04-30T10:39:39.093Z</time></trkpt><trkpt lat="45.6235783" lon="13.8595083"><ele>165.39999999999998</ele><time>2026-04-30T10:39:40.1Z</time></trkpt><trkpt lat="45.6236533" lon="13.8596217"><ele>163.6</ele><time>2026-04-30T10:39:41.108Z</time></trkpt><trkpt lat="45.623705" lon="13.859735"><ele>161.8</ele><time>2026-04-30T10:39:42.046Z</time></trkpt><trkpt lat="45.6237383" lon="13.8598583"><ele>160.0</ele><time>2026-04-30T10:39:43.121Z</time></trkpt><trkpt lat="45.6237417" lon="13.86"><ele>166.0</ele><time>2026-04-30T10:39:44.06Z</time></trkpt><trkpt lat="45.6237317" lon="13.8601567"><ele>172.0</ele><time>2026-04-30T10:39:45.133Z</time></trkpt><trkpt lat="45.6237133" lon="13.8603283"><ele>178.0</ele><time>2026-04-30T10:39:46.074Z</time></trkpt><trkpt lat="45.6236917" lon="13.8605033"><ele>184.0</ele><time>2026-04-30T10:39:47.08Z</time></trkpt><trkpt lat="45.6236583" lon="13.86067"><ele>180.79999999999998</ele><time>2026-04-30T10:39:48.086Z</time></trkpt><trkpt lat="45.6236167" lon="13.8608217"><ele>177.6</ele><time>2026-04-30T10:39:49.093Z</time></trkpt><trkpt lat="45.6235667" lon="13.8609617"><ele>174.4</ele><time>2026-04-30T10:39:50.1Z</time></trkpt><trkpt lat="45.62351" lon="13.8610867"><ele>171.2</ele><time>2026-04-30T10:39:51.106Z</time></trkpt><trkpt lat="45.6234417" lon="13.8611867"><ele>168.0</ele><time>2026-04-30T10:39:52.045Z</time></trkpt><trkpt lat="45.62336" lon="13.8612567"><ele>168.0</ele><time>2026-04-30T10:39:53.119Z</time></trkpt><trkpt lat="45.6232717" lon="13.8612967"><ele>168.0</ele><time>2026-04-30T10:39:54.06Z</time></trkpt><trkpt lat="45.6231817" lon="13.861305"><ele>168.0</ele><time>2026-04-30T10:39:55.132Z</time></trkpt><trkpt lat="45.6230867" lon="13.8612833"><ele>168.0</ele><time>2026-04-30T10:39:56.072Z</time></trkpt><trkpt lat="45.6229833" lon="13.8612367"><ele>168.0</ele><time>2026-04-30T10:39:57.078Z</time></trkpt><trkpt lat="45.6228767" lon="13.8611733"><ele>167.25</ele><time>2026-04-30T10:39:58.086Z</time></trkpt><trkpt lat="45.62276" lon="13.8611067"><ele>166.5</ele><time>2026-04-30T10:39:59.092Z</time></trkpt><trkpt lat="45.6226333" lon="13.8610433"><ele>165.75</ele><time>2026-04-30T10:40:00.098Z</time></trkpt><trkpt lat="45.6225033" lon="13.8609717"><ele>165.0</ele><time>2026-04-30T10:40:01.106Z</time></trkpt><trkpt lat="45.6223767" lon="13.860905"><ele>163.0</ele><time>2026-04-30T10:40:02.044Z</time></trkpt><trkpt lat="45.6222567" lon="13.8608367"><ele>161.0</ele><time>2026-04-30T10:40:03.118Z</time></trkpt><trkpt lat="45.6221483" lon="13.8607667"><ele>159.0</ele><time>2026-04-30T10:40:04.058Z</time></trkpt><trkpt lat="45.62205" lon="13.8606767"><ele>157.0</ele><time>2026-04-30T10:40:05.131Z</time></trkpt><trkpt lat="45.6219617" lon="13.8605567"><ele>157.0</ele><time>2026-04-30T10:40:06.071Z</time></trkpt><trkpt lat="45.62189" lon="13.8604017"><ele>157.0</ele><time>2026-04-30T10:40:07.078Z</time></trkpt><trkpt lat="45.6218333" lon="13.8602217"><ele>157.0</ele><time>2026-04-30T10:40:08.085Z</time></trkpt><trkpt lat="45.62178" lon="13.8600267"><ele>157.0</ele><time>2026-04-30T10:40:09.092Z</time></trkpt><trkpt lat="45.6217133" lon="13.8598283"><ele>155.66666666666669</ele><time>2026-04-30T10:40:10.03Z</time></trkpt><trkpt lat="45.6216333" lon="13.8596267"><ele>154.33333333333334</ele><time>2026-04-30T10:40:11.104Z</time></trkpt><trkpt lat="45.62153" lon="13.8594233"><ele>153.0</ele><time>2026-04-30T10:40:12.045Z</time></trkpt><trkpt lat="45.6214233" lon="13.8592183"><ele>150.0</ele><time>2026-04-30T10:40:13.117Z</time></trkpt><trkpt lat="45.62132" lon="13.8590217"><ele>147.0</ele><time>2026-04-30T10:40:14.057Z</time></trkpt><trkpt lat="45.62122" lon="13.8588267"><ele>144.0</ele><time>2026-04-30T10:40:15.065Z</time></trkpt><trkpt lat="45.6211333" lon="13.8586233"><ele>144.0</ele><time>2026-04-30T10:40:16.071Z</time></trkpt><trkpt lat="45.6209933" lon="13.858185"><ele>144.0</ele><time>2026-04-30T10:40:18.085Z</time></trkpt><trkpt lat="45.62092" lon="13.85797"><ele>144.0</ele><time>2026-04-30T10:40:19.09Z</time></trkpt><trkpt lat="45.6208367" lon="13.857765"><ele>144.0</ele><time>2026-04-30T10:40:20.031Z</time></trkpt><trkpt lat="45.6207433" lon="13.8575667"><ele>144.0</ele><time>2026-04-30T10:40:21.103Z</time></trkpt><trkpt lat="45.6206417" lon="13.8573783"><ele>142.66666666666666</ele><time>2026-04-30T10:40:22.044Z</time></trkpt><trkpt lat="45.6205283" lon="13.8571983"><ele>141.33333333333331</ele><time>2026-04-30T10:40:23.117Z</time></trkpt><trkpt lat="45.62041" lon="13.8570283"><ele>140.0</ele><time>2026-04-30T10:40:24.056Z</time></trkpt><trkpt lat="45.6202833" lon="13.856875"><ele>133.33333333333331</ele><time>2026-04-30T10:40:25.063Z</time></trkpt><trkpt lat="45.62015" lon="13.8567433"><ele>126.66666666666666</ele><time>2026-04-30T10:40:26.07Z</time></trkpt><trkpt lat="45.6200083" lon="13.85663"><ele>120.0</ele><time>2026-04-30T10:40:27.077Z</time></trkpt><trkpt lat="45.6198567" lon="13.85653"><ele>120.0</ele><time>2026-04-30T10:40:28.084Z</time></trkpt><trkpt lat="45.6197017" lon="13.8564467"><ele>120.0</ele><time>2026-04-30T10:40:29.089Z</time></trkpt><trkpt lat="45.6195383" lon="13.8563867"><ele>120.0</ele><time>2026-04-30T10:40:30.029Z</time></trkpt><trkpt lat="45.6193683" lon="13.8563433"><ele>120.33333333333334</ele><time>2026-04-30T10:40:31.103Z</time></trkpt><trkpt lat="45.6191917" lon="13.856315"><ele>120.66666666666667</ele><time>2026-04-30T10:40:32.043Z</time></trkpt><trkpt lat="45.61901" lon="13.8562917"><ele>121.0</ele><time>2026-04-30T10:40:33.117Z</time></trkpt><trkpt lat="45.618825" lon="13.8562717"><ele>118.0</ele><time>2026-04-30T10:40:34.055Z</time></trkpt><trkpt lat="45.6186417" lon="13.8562517"><ele>115.0</ele><time>2026-04-30T10:40:35.063Z</time></trkpt><trkpt lat="45.61846" lon="13.85623"><ele>112.0</ele><time>2026-04-30T10:40:36.07Z</time></trkpt><trkpt lat="45.6182833" lon="13.8562067"><ele>112.0</ele><time>2026-04-30T10:40:37.075Z</time></trkpt><trkpt lat="45.61811" lon="13.85619"><ele>112.0</ele><time>2026-04-30T10:40:38.082Z</time></trkpt><trkpt lat="45.6179417" lon="13.8561833"><ele>112.0</ele><time>2026-04-30T10:40:39.09Z</time></trkpt><trkpt lat="45.6177733" lon="13.8561917"><ele>110.0</ele><time>2026-04-30T10:40:40.028Z</time></trkpt><trkpt lat="45.6176017" lon="13.856215"><ele>108.0</ele><time>2026-04-30T10:40:41.103Z</time></trkpt><trkpt lat="45.6174267" lon="13.8562517"><ele>106.0</ele><time>2026-04-30T10:40:42.041Z</time></trkpt><trkpt lat="45.61725" lon="13.856295"><ele>106.0</ele><time>2026-04-30T10:40:43.115Z</time></trkpt><trkpt lat="45.6170717" lon="13.8563417"><ele>106.0</ele><time>2026-04-30T10:40:44.055Z</time></trkpt><trkpt lat="45.6168983" lon="13.8563833"><ele>106.0</ele><time>2026-04-30T10:40:45.062Z</time></trkpt><trkpt lat="45.6167283" lon="13.856425"><ele>100.33333333333334</ele><time>2026-04-30T10:40:46.069Z</time></trkpt><trkpt lat="45.6165683" lon="13.85647"><ele>94.66666666666667</ele><time>2026-04-30T10:40:47.075Z</time></trkpt><trkpt lat="45.6164167" lon="13.856525"><ele>89.0</ele><time>2026-04-30T10:40:48.148Z</time></trkpt><trkpt lat="45.6162733" lon="13.8565933"><ele>88.75</ele><time>2026-04-30T10:40:49.089Z</time></trkpt><trkpt lat="45.6161417" lon="13.85668"><ele>88.5</ele><time>2026-04-30T10:40:50.027Z</time></trkpt><trkpt lat="45.6160183" lon="13.8567783"><ele>88.25</ele><time>2026-04-30T10:40:51.101Z</time></trkpt><trkpt lat="45.6159033" lon="13.856885"><ele>88.0</ele><time>2026-04-30T10:40:52.042Z</time></trkpt><trkpt lat="45.6158033" lon="13.856995"><ele>88.0</ele><time>2026-04-30T10:40:53.114Z</time></trkpt><trkpt lat="45.6157083" lon="13.8571117"><ele>88.0</ele><time>2026-04-30T10:40:54.054Z</time></trkpt><trkpt lat="45.6156167" lon="13.8572183"><ele>88.0</ele><time>2026-04-30T10:40:55.06Z</time></trkpt><trkpt lat="45.6155317" lon="13.857325"><ele>88.0</ele><time>2026-04-30T10:40:56.135Z</time></trkpt><trkpt lat="45.615445" lon="13.85743"><ele>88.0</ele><time>2026-04-30T10:40:57.075Z</time></trkpt><trkpt lat="45.61536" lon="13.8575283"><ele>88.0</ele><time>2026-04-30T10:40:58.149Z</time></trkpt><trkpt lat="45.615275" lon="13.85762"><ele>88.0</ele><time>2026-04-30T10:40:59.088Z</time></trkpt><trkpt lat="45.6151833" lon="13.8576933"><ele>88.0</ele><time>2026-04-30T10:41:00.028Z</time></trkpt><trkpt lat="45.6150933" lon="13.85775"><ele>88.0</ele><time>2026-04-30T10:41:01.1Z</time></trkpt><trkpt lat="45.6150067" lon="13.857795"><ele>85.5</ele><time>2026-04-30T10:41:02.041Z</time></trkpt><trkpt lat="45.6149233" lon="13.8578367"><ele>83.0</ele><time>2026-04-30T10:41:03.114Z</time></trkpt><trkpt lat="45.6148467" lon="13.857875"><ele>80.5</ele><time>2026-04-30T10:41:04.053Z</time></trkpt><trkpt lat="45.6147717" lon="13.8579133"><ele>78.0</ele><time>2026-04-30T10:41:05.061Z</time></trkpt><trkpt lat="45.6146983" lon="13.8579483"><ele>75.5</ele><time>2026-04-30T10:41:06.133Z</time></trkpt><trkpt lat="45.6146267" lon="13.8579867"><ele>73.0</ele><time>2026-04-30T10:41:07.074Z</time></trkpt><trkpt lat="45.614555" lon="13.8580217"><ele>72.14285714285714</ele><time>2026-04-30T10:41:08.147Z</time></trkpt><trkpt lat="45.6144817" lon="13.8580583"><ele>71.28571428571429</ele><time>2026-04-30T10:41:09.087Z</time></trkpt><trkpt lat="45.61441" lon="13.8580967"><ele>70.42857142857143</ele><time>2026-04-30T10:41:10.027Z</time></trkpt><trkpt lat="45.6143433" lon="13.8581283"><ele>69.57142857142857</ele><time>2026-04-30T10:41:11.1Z</time></trkpt><trkpt lat="45.61428" lon="13.8581583"><ele>68.71428571428571</ele><time>2026-04-30T10:41:12.039Z</time></trkpt><trkpt lat="45.6142183" lon="13.85819"><ele>67.85714285714286</ele><time>2026-04-30T10:41:13.113Z</time></trkpt><trkpt lat="45.6141583" lon="13.85822"><ele>67.0</ele><time>2026-04-30T10:41:14.119Z</time></trkpt><trkpt lat="45.6140583" lon="13.8582717"><ele>67.0</ele><time>2026-04-30T10:41:16.133Z</time></trkpt><trkpt lat="45.61391" lon="13.8583467"><ele>67.0</ele><time>2026-04-30T10:41:19.086Z</time></trkpt><trkpt lat="45.6138067" lon="13.8584"><ele>67.0</ele><time>2026-04-30T10:41:21.099Z</time></trkpt><trkpt lat="45.6137417" lon="13.8584217"><ele>67.0</ele><time>2026-04-30T10:41:22.105Z</time></trkpt><trkpt lat="45.613665" lon="13.8584317"><ele>67.0</ele><time>2026-04-30T10:41:23.112Z</time></trkpt><trkpt lat="45.6135783" lon="13.8584267"><ele>66.8</ele><time>2026-04-30T10:41:24.12Z</time></trkpt><trkpt lat="45.6134933" lon="13.8583933"><ele>66.6</ele><time>2026-04-30T10:41:25.058Z</time></trkpt><trkpt lat="45.613405" lon="13.85834"><ele>66.39999999999999</ele><time>2026-04-30T10:41:26.133Z</time></trkpt><trkpt lat="45.613315" lon="13.8582567"><ele>66.2</ele><time>2026-04-30T10:41:27.072Z</time></trkpt><trkpt lat="45.6132183" lon="13.8581567"><ele>66.0</ele><time>2026-04-30T10:41:28.145Z</time></trkpt><trkpt lat="45.61311" lon="13.8580517"><ele>66.0</ele><time>2026-04-30T10:41:29.085Z</time></trkpt><trkpt lat="45.6130017" lon="13.8579367"><ele>66.0</ele><time>2026-04-30T10:41:30.091Z</time></trkpt><trkpt lat="45.6128917" lon="13.8578333"><ele>66.0</ele><time>2026-04-30T10:41:31.099Z</time></trkpt><trkpt lat="45.612775" lon="13.8577467"><ele>66.0</ele><time>2026-04-30T10:41:32.106Z</time></trkpt><trkpt lat="45.6126567" lon="13.8576767"><ele>65.6</ele><time>2026-04-30T10:41:33.111Z</time></trkpt><trkpt lat="45.6125433" lon="13.857615"><ele>65.19999999999999</ele><time>2026-04-30T10:41:34.118Z</time></trkpt><trkpt lat="45.6124367" lon="13.85756"><ele>64.80000000000001</ele><time>2026-04-30T10:41:35.057Z</time></trkpt><trkpt lat="45.612335" lon="13.8575067"><ele>64.4</ele><time>2026-04-30T10:41:36.132Z</time></trkpt><trkpt lat="45.6122383" lon="13.8574567"><ele>64.0</ele><time>2026-04-30T10:41:37.072Z</time></trkpt><trkpt lat="45.6121467" lon="13.8574083"><ele>64.0</ele><time>2026-04-30T10:41:38.144Z</time></trkpt><trkpt lat="45.6120633" lon="13.8573667"><ele>64.0</ele><time>2026-04-30T10:41:39.084Z</time></trkpt><trkpt lat="45.6119867" lon="13.85733"><ele>64.0</ele><time>2026-04-30T10:41:40.091Z</time></trkpt><trkpt lat="45.6118767" lon="13.85729"><ele>64.0</ele><time>2026-04-30T10:41:42.104Z</time></trkpt><trkpt lat="45.6117933" lon="13.8572667"><ele>64.0</ele><time>2026-04-30T10:41:44.118Z</time></trkpt><trkpt lat="45.6116867" lon="13.8572217"><ele>63.83333333333333</ele><time>2026-04-30T10:41:46.13Z</time></trkpt><trkpt lat="45.611625" lon="13.8571833"><ele>63.666666666666664</ele><time>2026-04-30T10:41:47.07Z</time></trkpt><trkpt lat="45.61156" lon="13.857135"><ele>63.5</ele><time>2026-04-30T10:41:48.077Z</time></trkpt><trkpt lat="45.6114883" lon="13.85708"><ele>63.33333333333333</ele><time>2026-04-30T10:41:49.083Z</time></trkpt><trkpt lat="45.6114217" lon="13.857015"><ele>63.166666666666664</ele><time>2026-04-30T10:41:50.09Z</time></trkpt><trkpt lat="45.6113633" lon="13.8569417"><ele>63.0</ele><time>2026-04-30T10:41:51.097Z</time></trkpt><trkpt lat="45.6113167" lon="13.8568683"><ele>63.0</ele><time>2026-04-30T10:41:52.104Z</time></trkpt><trkpt lat="45.61125" lon="13.8567333"><ele>63.0</ele><time>2026-04-30T10:41:54.116Z</time></trkpt><trkpt lat="45.6111717" lon="13.8566617"><ele>63.0</ele><time>2026-04-30T10:41:56.13Z</time></trkpt><trkpt lat="45.6110967" lon="13.8567783"><ele>63.0</ele><time>2026-04-30T10:41:58.076Z</time></trkpt><trkpt lat="45.6111267" lon="13.856915"><ele>63.0</ele><time>2026-04-30T10:42:00.09Z</time></trkpt><trkpt lat="45.6111883" lon="13.856955"><ele>63.0</ele><time>2026-04-30T10:42:01.096Z</time></trkpt><trkpt lat="45.611265" lon="13.856995"><ele>63.0</ele><time>2026-04-30T10:42:02.103Z</time></trkpt><trkpt lat="45.6113517" lon="13.8570517"><ele>63.0</ele><time>2026-04-30T10:42:03.042Z</time></trkpt><trkpt lat="45.6114517" lon="13.8571167"><ele>63.0</ele><time>2026-04-30T10:42:04.116Z</time></trkpt><trkpt lat="45.6115617" lon="13.85718"><ele>63.0</ele><time>2026-04-30T10:42:05.055Z</time></trkpt><trkpt lat="45.6116783" lon="13.8572417"><ele>63.0</ele><time>2026-04-30T10:42:06.13Z</time></trkpt><trkpt lat="45.6118033" lon="13.8572983"><ele>63.0</ele><time>2026-04-30T10:42:07.069Z</time></trkpt><trkpt lat="45.6119217" lon="13.8573567"><ele>63.0</ele><time>2026-04-30T10:42:08.075Z</time></trkpt><trkpt lat="45.6120283" lon="13.8574067"><ele>63.0</ele><time>2026-04-30T10:42:09.082Z</time></trkpt><trkpt lat="45.6121233" lon="13.85745"><ele>63.166666666666664</ele><time>2026-04-30T10:42:10.089Z</time></trkpt><trkpt lat="45.6122083" lon="13.85749"><ele>63.33333333333333</ele><time>2026-04-30T10:42:11.096Z</time></trkpt><trkpt lat="45.612285" lon="13.8575267"><ele>63.5</ele><time>2026-04-30T10:42:12.101Z</time></trkpt><trkpt lat="45.6123467" lon="13.8575617"><ele>63.666666666666664</ele><time>2026-04-30T10:42:13.041Z</time></trkpt><trkpt lat="45.6124033" lon="13.8576633"><ele>63.83333333333333</ele><time>2026-04-30T10:42:15.054Z</time></trkpt><trkpt lat="45.6123833" lon="13.8577817"><ele>64.0</ele><time>2026-04-30T10:42:17.069Z</time></trkpt><trkpt lat="45.61235" lon="13.85792"><ele>64.16666666666666</ele><time>2026-04-30T10:42:19.081Z</time></trkpt><trkpt lat="45.61231" lon="13.8580533"><ele>64.33333333333333</ele><time>2026-04-30T10:42:21.094Z</time></trkpt><trkpt lat="45.6122817" lon="13.8581683"><ele>64.5</ele><time>2026-04-30T10:42:23.04Z</time></trkpt><trkpt lat="45.6122533" lon="13.8582633"><ele>64.66666666666667</ele><time>2026-04-30T10:42:25.053Z</time></trkpt><trkpt lat="45.612225" lon="13.8583633"><ele>64.83333333333334</ele><time>2026-04-30T10:42:28.074Z</time></trkpt><trkpt lat="45.6122133" lon="13.858465"><ele>65.0</ele><time>2026-04-30T10:42:31.093Z</time></trkpt><trkpt lat="45.612255" lon="13.8585783"><ele>65.0</ele><time>2026-04-30T10:47:50.063Z</time></trkpt><trkpt lat="45.612315" lon="13.858525"><ele>65.0</ele><time>2026-04-30T10:47:54.089Z</time></trkpt><trkpt lat="45.6123117" lon="13.8584167"><ele>65.0</ele><time>2026-04-30T10:47:56.103Z</time></trkpt><trkpt lat="45.612325" lon="13.85831"><ele>65.0</ele><time>2026-04-30T10:47:58.116Z</time></trkpt><trkpt lat="45.6123517" lon="13.8582"><ele>65.0</ele><time>2026-04-30T10:48:01.069Z</time></trkpt><trkpt lat="45.612385" lon="13.8579717"><ele>65.0</ele><time>2026-04-30T10:48:32.073Z</time></trkpt><trkpt lat="45.6124117" lon="13.8578483"><ele>65.0</ele><time>2026-04-30T10:48:34.085Z</time></trkpt><trkpt lat="45.6124367" lon="13.8577483"><ele>65.0</ele><time>2026-04-30T10:48:36.098Z</time></trkpt><trkpt lat="45.6124917" lon="13.8576867"><ele>65.0</ele><time>2026-04-30T10:48:38.112Z</time></trkpt><trkpt lat="45.6125933" lon="13.85769"><ele>65.0</ele><time>2026-04-30T10:48:40.059Z</time></trkpt><trkpt lat="45.61266" lon="13.857715"><ele>65.0</ele><time>2026-04-30T10:48:41.132Z</time></trkpt><trkpt lat="45.6127283" lon="13.85775"><ele>65.0</ele><time>2026-04-30T10:48:42.072Z</time></trkpt><trkpt lat="45.612805" lon="13.8577983"><ele>65.0</ele><time>2026-04-30T10:48:43.145Z</time></trkpt><trkpt lat="45.6128833" lon="13.8578533"><ele>65.0</ele><time>2026-04-30T10:48:44.084Z</time></trkpt><trkpt lat="45.612965" lon="13.8579233"><ele>65.0</ele><time>2026-04-30T10:48:45.024Z</time></trkpt><trkpt lat="45.6130433" lon="13.8579967"><ele>65.0</ele><time>2026-04-30T10:48:46.098Z</time></trkpt><trkpt lat="45.6131217" lon="13.858075"><ele>65.2</ele><time>2026-04-30T10:48:47.104Z</time></trkpt><trkpt lat="45.6131967" lon="13.8581567"><ele>65.4</ele><time>2026-04-30T10:48:48.112Z</time></trkpt><trkpt lat="45.613275" lon="13.858235"><ele>65.6</ele><time>2026-04-30T10:48:49.118Z</time></trkpt><trkpt lat="45.613355" lon="13.858315"><ele>65.8</ele><time>2026-04-30T10:48:50.058Z</time></trkpt><trkpt lat="45.613435" lon="13.8583867"><ele>66.0</ele><time>2026-04-30T10:48:51.132Z</time></trkpt><trkpt lat="45.6135083" lon="13.8584383"><ele>65.85714285714286</ele><time>2026-04-30T10:48:52.07Z</time></trkpt><trkpt lat="45.6135717" lon="13.8584683"><ele>65.71428571428572</ele><time>2026-04-30T10:48:53.144Z</time></trkpt><trkpt lat="45.6136367" lon="13.858485"><ele>65.57142857142858</ele><time>2026-04-30T10:48:54.085Z</time></trkpt><trkpt lat="45.6137067" lon="13.8585017"><ele>65.42857142857143</ele><time>2026-04-30T10:48:55.09Z</time></trkpt><trkpt lat="45.61378" lon="13.8585267"><ele>65.28571428571429</ele><time>2026-04-30T10:48:56.098Z</time></trkpt><trkpt lat="45.6138517" lon="13.85856"><ele>65.14285714285715</ele><time>2026-04-30T10:48:57.103Z</time></trkpt><trkpt lat="45.6139217" lon="13.85859"><ele>65.0</ele><time>2026-04-30T10:48:58.11Z</time></trkpt><trkpt lat="45.6139867" lon="13.8586183"><ele>65.6</ele><time>2026-04-30T10:48:59.117Z</time></trkpt><trkpt lat="45.6140967" lon="13.85867"><ele>66.2</ele><time>2026-04-30T10:49:01.13Z</time></trkpt><trkpt lat="45.6141733" lon="13.858715"><ele>66.8</ele><time>2026-04-30T10:49:03.143Z</time></trkpt><trkpt lat="45.6142517" lon="13.8587833"><ele>67.4</ele><time>2026-04-30T10:49:06.096Z</time></trkpt><trkpt lat="45.61431" lon="13.8588517"><ele>68.0</ele><time>2026-04-30T10:49:08.042Z</time></trkpt><trkpt lat="45.6143733" lon="13.8589383"><ele>68.0</ele><time>2026-04-30T10:49:10.056Z</time></trkpt><trkpt lat="45.6144417" lon="13.8590267"><ele>68.0</ele><time>2026-04-30T10:49:12.069Z</time></trkpt><trkpt lat="45.6145033" lon="13.8591267"><ele>68.0</ele><time>2026-04-30T10:49:14.082Z</time></trkpt><trkpt lat="45.6145667" lon="13.8592317"><ele>68.0</ele><time>2026-04-30T10:49:16.095Z</time></trkpt><trkpt lat="45.6146333" lon="13.859325"><ele>68.0</ele><time>2026-04-30T10:49:18.041Z</time></trkpt><trkpt lat="45.6146917" lon="13.8593883"><ele>68.0</ele><time>2026-04-30T10:49:20.056Z</time></trkpt><trkpt lat="45.61477" lon="13.859485"><ele>68.57142857142857</ele><time>2026-04-30T10:49:43.073Z</time></trkpt><trkpt lat="45.6148183" lon="13.859415"><ele>69.14285714285714</ele><time>2026-04-30T10:49:47.101Z</time></trkpt><trkpt lat="45.6148367" lon="13.85932"><ele>69.71428571428572</ele><time>2026-04-30T10:49:50.052Z</time></trkpt><trkpt lat="45.6148617" lon="13.8592033"><ele>70.28571428571428</ele><time>2026-04-30T10:49:53.072Z</time></trkpt><trkpt lat="45.6148933" lon="13.8591133"><ele>70.85714285714286</ele><time>2026-04-30T10:49:55.086Z</time></trkpt><trkpt lat="45.6149167" lon="13.8590283"><ele>71.42857142857143</ele><time>2026-04-30T10:49:57.1Z</time></trkpt><trkpt lat="45.6149017" lon="13.858935"><ele>72.0</ele><time>2026-04-30T10:49:59.112Z</time></trkpt><trkpt lat="45.6149017" lon="13.858815"><ele>72.25</ele><time>2026-04-30T10:50:01.125Z</time></trkpt><trkpt lat="45.6149417" lon="13.8586583"><ele>72.5</ele><time>2026-04-30T10:50:03.071Z</time></trkpt><trkpt lat="45.6149883" lon="13.8585133"><ele>72.75</ele><time>2026-04-30T10:50:05.085Z</time></trkpt><trkpt lat="45.615035" lon="13.8583617"><ele>73.0</ele><time>2026-04-30T10:50:07.098Z</time></trkpt><trkpt lat="45.6150783" lon="13.8582067"><ele>73.0</ele><time>2026-04-30T10:50:09.112Z</time></trkpt><trkpt lat="45.615115" lon="13.8580533"><ele>73.0</ele><time>2026-04-30T10:50:11.125Z</time></trkpt><trkpt lat="45.61515" lon="13.8579267"><ele>73.0</ele><time>2026-04-30T10:50:13.072Z</time></trkpt><trkpt lat="45.6151767" lon="13.8578283"><ele>73.0</ele><time>2026-04-30T10:50:15.084Z</time></trkpt><trkpt lat="45.61512" lon="13.8577533"><ele>73.0</ele><time>2026-04-30T10:50:27.097Z</time></trkpt><trkpt lat="45.6150067" lon="13.857785"><ele>73.0</ele><time>2026-04-30T10:50:29.11Z</time></trkpt><trkpt lat="45.6149333" lon="13.8578217"><ele>73.0</ele><time>2026-04-30T10:50:30.049Z</time></trkpt><trkpt lat="45.6148483" lon="13.85787"><ele>73.0</ele><time>2026-04-30T10:50:31.124Z</time></trkpt><trkpt lat="45.6147583" lon="13.8579133"><ele>73.0</ele><time>2026-04-30T10:50:32.063Z</time></trkpt><trkpt lat="45.6146633" lon="13.8579633"><ele>73.0</ele><time>2026-04-30T10:50:33.069Z</time></trkpt><trkpt lat="45.61456" lon="13.8580233"><ele>71.8</ele><time>2026-04-30T10:50:34.076Z</time></trkpt><trkpt lat="45.6144567" lon="13.8580833"><ele>70.6</ele><time>2026-04-30T10:50:35.082Z</time></trkpt><trkpt lat="45.6143517" lon="13.8581417"><ele>69.4</ele><time>2026-04-30T10:50:36.022Z</time></trkpt><trkpt lat="45.6142517" lon="13.85819"><ele>68.2</ele><time>2026-04-30T10:50:37.096Z</time></trkpt><trkpt lat="45.61416" lon="13.8582333"><ele>67.0</ele><time>2026-04-30T10:50:38.036Z</time></trkpt><trkpt lat="45.614075" lon="13.8582717"><ele>67.0</ele><time>2026-04-30T10:50:39.11Z</time></trkpt><trkpt lat="45.614005" lon="13.8583067"><ele>67.0</ele><time>2026-04-30T10:50:40.049Z</time></trkpt><trkpt lat="45.6139083" lon="13.8583717"><ele>67.0</ele><time>2026-04-30T10:50:42.062Z</time></trkpt><trkpt lat="45.6138317" lon="13.8584333"><ele>67.0</ele><time>2026-04-30T10:50:45.082Z</time></trkpt><trkpt lat="45.6138183" lon="13.858525"><ele>67.0</ele><time>2026-04-30T10:50:47.095Z</time></trkpt><trkpt lat="45.6138733" lon="13.8585817"><ele>67.0</ele><time>2026-04-30T10:50:49.108Z</time></trkpt><trkpt lat="45.6139533" lon="13.85861"><ele>67.16666666666666</ele><time>2026-04-30T10:50:51.054Z</time></trkpt><trkpt lat="45.6140167" lon="13.8586333"><ele>67.33333333333333</ele><time>2026-04-30T10:50:53.068Z</time></trkpt><trkpt lat="45.6141017" lon="13.8586633"><ele>67.5</ele><time>2026-04-30T10:51:06.02Z</time></trkpt><trkpt lat="45.6141683" lon="13.8586983"><ele>67.66666666666667</ele><time>2026-04-30T10:51:09.107Z</time></trkpt><trkpt lat="45.614235" lon="13.85877"><ele>67.83333333333334</ele><time>2026-04-30T10:51:12.126Z</time></trkpt><trkpt lat="45.6142983" lon="13.85885"><ele>68.0</ele><time>2026-04-30T10:51:15.08Z</time></trkpt><trkpt lat="45.6143683" lon="13.8589317"><ele>67.99999999999999</ele><time>2026-04-30T10:51:18.099Z</time></trkpt><trkpt lat="45.614425" lon="13.8589917"><ele>68.0</ele><time>2026-04-30T10:51:20.112Z</time></trkpt><trkpt lat="45.6144867" lon="13.85906"><ele>68.0</ele><time>2026-04-30T10:51:22.127Z</time></trkpt><trkpt lat="45.61454" lon="13.8591217"><ele>68.0</ele><time>2026-04-30T10:51:24.139Z</time></trkpt><trkpt lat="45.614495" lon="13.85905"><ele>68.0</ele><time>2026-04-30T10:54:12.045Z</time></trkpt><trkpt lat="45.6144425" lon="13.8589946"><ele>67.99999999999999</ele><time>2026-04-30T10:54:19.44Z</time></trkpt><trkpt lat="45.6143945" lon="13.8589254"><ele>68.0</ele><time>2026-04-30T10:54:25.531Z</time></trkpt><trkpt lat="45.6143406" lon="13.8588737"><ele>68.0</ele><time>2026-04-30T10:54:37.414Z</time></trkpt><trkpt lat="45.6142719" lon="13.8588327"><ele>68.0</ele><time>2026-04-30T10:54:42.499Z</time></trkpt><trkpt lat="45.6142021" lon="13.8588208"><ele>68.0</ele><time>2026-04-30T10:54:47.488Z</time></trkpt><trkpt lat="45.6141351" lon="13.8588115"><ele>68.0</ele><time>2026-04-30T10:55:27.491Z</time></trkpt><trkpt lat="45.6139483" lon="13.8588367"><ele>68.0</ele><time>2026-04-30T10:55:35.06Z</time></trkpt><trkpt lat="45.6140783" lon="13.8588633"><ele>68.0</ele><time>2026-04-30T10:56:16.131Z</time></trkpt><trkpt lat="45.61416" lon="13.8588917"><ele>68.0</ele><time>2026-04-30T10:56:58.074Z</time></trkpt><trkpt lat="45.6140833" lon="13.8588667"><ele>68.0</ele><time>2026-04-30T10:57:07.065Z</time></trkpt><trkpt lat="45.6140333" lon="13.8587867"><ele>68.0</ele><time>2026-04-30T10:57:16.125Z</time></trkpt><trkpt lat="45.614115" lon="13.858835"><ele>68.0</ele><time>2026-04-30T10:57:37.063Z</time></trkpt><trkpt lat="45.6141583" lon="13.85891"><ele>68.0</ele><time>2026-04-30T10:58:31.019Z</time></trkpt><trkpt lat="45.614205" lon="13.858835"><ele>68.0</ele><time>2026-04-30T10:58:42.091Z</time></trkpt><trkpt lat="45.614155" lon="13.85891"><ele>68.0</ele><time>2026-04-30T10:59:07.123Z</time></trkpt><trkpt lat="45.6141983" lon="13.8587667"><ele>68.0</ele><time>2026-04-30T11:01:38.119Z</time></trkpt><trkpt lat="45.6141067" lon="13.8587917"><ele>68.0</ele><time>2026-04-30T11:03:13.144Z</time></trkpt><trkpt lat="45.6140717" lon="13.8588667"><ele>68.0</ele><time>2026-04-30T11:05:59.105Z</time></trkpt><trkpt lat="45.6141483" lon="13.8588667"><ele>68.0</ele><time>2026-04-30T11:06:19.103Z</time></trkpt><trkpt lat="45.6141683" lon="13.85878"><ele>67.99999999999999</ele><time>2026-04-30T11:10:55.055Z</time></trkpt><trkpt lat="45.614135" lon="13.85887"><ele>68.0</ele><time>2026-04-30T11:12:03.036Z</time></trkpt><trkpt lat="45.61418" lon="13.8589333"><ele>68.0</ele><time>2026-04-30T11:12:11.09Z</time></trkpt><trkpt lat="45.61416" lon="13.8590267"><ele>68.0</ele><time>2026-04-30T11:12:19.075Z</time></trkpt><trkpt lat="45.61412" lon="13.8589083"><ele>68.0</ele><time>2026-04-30T11:15:44.035Z</time></trkpt><trkpt lat="45.6141417" lon="13.858995"><ele>67.99999999999999</ele><time>2026-04-30T11:15:50.142Z</time></trkpt><trkpt lat="45.6141283" lon="13.85889"><ele>68.0</ele><time>2026-04-30T11:16:18.127Z</time></trkpt><trkpt lat="45.6140433" lon="13.8588767"><ele>68.0</ele><time>2026-04-30T11:18:16.104Z</time></trkpt><trkpt lat="45.614055" lon="13.858785"><ele>68.0</ele><time>2026-04-30T11:18:43.148Z</time></trkpt><trkpt lat="45.6141233" lon="13.8588433"><ele>68.0</ele><time>2026-04-30T11:19:34.084Z</time></trkpt><trkpt lat="45.6140367" lon="13.8588417"><ele>68.0</ele><time>2026-04-30T11:20:18.041Z</time></trkpt><trkpt lat="45.6140367" lon="13.8587117"><ele>68.0</ele><time>2026-04-30T11:21:21.056Z</time></trkpt><trkpt lat="45.614045" lon="13.8588333"><ele>68.0</ele><time>2026-04-30T11:21:43.067Z</time></trkpt><trkpt lat="45.6141233" lon="13.8587683"><ele>67.99999999999999</ele><time>2026-04-30T11:22:32.125Z</time></trkpt><trkpt lat="45.61413" lon="13.8588583"><ele>68.0</ele><time>2026-04-30T11:23:04.069Z</time></trkpt><trkpt lat="45.6140567" lon="13.8588283"><ele>68.0</ele><time>2026-04-30T11:23:11.114Z</time></trkpt><trkpt lat="45.61411" lon="13.858885"><ele>68.0</ele><time>2026-04-30T11:23:51.111Z</time></trkpt><trkpt lat="45.6140733" lon="13.85881"><ele>68.0</ele><time>2026-04-30T11:24:43.121Z</time></trkpt><trkpt lat="45.6141533" lon="13.858805"><ele>67.99999999999999</ele><time>2026-04-30T11:26:13.113Z</time></trkpt><trkpt lat="45.6141017" lon="13.8588783"><ele>68.0</ele><time>2026-04-30T11:28:09.145Z</time></trkpt><trkpt lat="45.6141117" lon="13.8589817"><ele>67.99999999999999</ele><time>2026-04-30T11:28:18.07Z</time></trkpt><trkpt lat="45.6140667" lon="13.8589183"><ele>68.0</ele><time>2026-04-30T11:29:09.141Z</time></trkpt><trkpt lat="45.6140367" lon="13.8588383"><ele>68.0</ele><time>2026-04-30T11:29:16.052Z</time></trkpt><trkpt lat="45.6140333" lon="13.8587267"><ele>68.0</ele><time>2026-04-30T11:29:42.091Z</time></trkpt><trkpt lat="45.6139767" lon="13.85868"><ele>68.0</ele><time>2026-04-30T11:30:23.094Z</time></trkpt><trkpt lat="45.6140333" lon="13.8587517"><ele>67.99999999999999</ele><time>2026-04-30T11:31:17.049Z</time></trkpt><trkpt lat="45.6140483" lon="13.8588567"><ele>68.0</ele><time>2026-04-30T11:31:22.083Z</time></trkpt><trkpt lat="45.61413" lon="13.8588617"><ele>68.0</ele><time>2026-04-30T11:33:17.107Z</time></trkpt><trkpt lat="45.6140933" lon="13.85877"><ele>68.0</ele><time>2026-04-30T11:33:20.061Z</time></trkpt><trkpt lat="45.6141217" lon="13.8586883"><ele>68.0</ele><time>2026-04-30T11:34:09.117Z</time></trkpt><trkpt lat="45.61427" lon="13.8586633"><ele>68.0</ele><time>2026-04-30T11:34:18.042Z</time></trkpt><trkpt lat="45.6142033" lon="13.858725"><ele>68.0</ele><time>2026-04-30T11:34:24.083Z</time></trkpt><trkpt lat="45.6141233" lon="13.85879"><ele>68.0</ele><time>2026-04-30T11:34:27.102Z</time></trkpt><trkpt lat="45.6140817" lon="13.858685"><ele>68.0</ele><time>2026-04-30T11:36:44.138Z</time></trkpt><trkpt lat="45.6140833" lon="13.85878"><ele>68.0</ele><time>2026-04-30T11:36:58.098Z</time></trkpt><trkpt lat="45.6141033" lon="13.8588733"><ele>68.0</ele><time>2026-04-30T11:37:07.09Z</time></trkpt><trkpt lat="45.6140533" lon="13.8587933"><ele>68.0</ele><time>2026-04-30T11:37:28.095Z</time></trkpt><trkpt lat="45.61404" lon="13.8586933"><ele>68.0</ele><time>2026-04-30T11:37:42.12Z</time></trkpt><trkpt lat="45.6140917" lon="13.858885"><ele>67.99999999999999</ele><time>2026-04-30T11:39:50.031Z</time></trkpt><trkpt lat="45.6141083" lon="13.858985"><ele>68.0</ele><time>2026-04-30T11:41:01.099Z</time></trkpt><trkpt lat="45.6140533" lon="13.85889"><ele>68.0</ele><time>2026-04-30T11:41:12.104Z</time></trkpt><trkpt lat="45.6140433" lon="13.8588"><ele>68.0</ele><time>2026-04-30T11:41:18.144Z</time></trkpt><trkpt lat="45.614015" lon="13.8586983"><ele>68.0</ele><time>2026-04-30T11:41:29.083Z</time></trkpt><trkpt lat="45.614" lon="13.8585933"><ele>67.99999999999999</ele><time>2026-04-30T11:41:33.043Z</time></trkpt><trkpt lat="45.61401" lon="13.8586833"><ele>68.0</ele><time>2026-04-30T11:41:53.041Z</time></trkpt><trkpt lat="45.6140217" lon="13.8587817"><ele>68.0</ele><time>2026-04-30T11:42:09.079Z</time></trkpt><trkpt lat="45.6140667" lon="13.8586617"><ele>68.0</ele><time>2026-04-30T11:42:11.16Z</time></trkpt><trkpt lat="45.61404" lon="13.85858"><ele>68.0</ele><time>2026-04-30T11:42:26.125Z</time></trkpt><trkpt lat="45.6139683" lon="13.85845"><ele>68.0</ele><time>2026-04-30T11:42:30.085Z</time></trkpt><trkpt lat="45.61395" lon="13.85855"><ele>68.0</ele><time>2026-04-30T11:42:39.144Z</time></trkpt><trkpt lat="45.6140133" lon="13.8585783"><ele>68.0</ele><time>2026-04-30T11:42:44.11Z</time></trkpt><trkpt lat="45.61398" lon="13.8586583"><ele>67.99999999999999</ele><time>2026-04-30T11:42:49.144Z</time></trkpt><trkpt lat="45.6139283" lon="13.8587317"><ele>68.0</ele><time>2026-04-30T11:42:53.103Z</time></trkpt><trkpt lat="45.6139" lon="13.8588483"><ele>68.0</ele><time>2026-04-30T11:42:57.129Z</time></trkpt><trkpt lat="45.6138383" lon="13.8589"><ele>68.0</ele><time>2026-04-30T11:43:02.095Z</time></trkpt><trkpt lat="45.6138967" lon="13.8588483"><ele>68.0</ele><time>2026-04-30T11:43:11.089Z</time></trkpt><trkpt lat="45.6139617" lon="13.8587917"><ele>67.99999999999999</ele><time>2026-04-30T11:43:13.101Z</time></trkpt><trkpt lat="45.6140133" lon="13.8587267"><ele>68.0</ele><time>2026-04-30T11:43:16.055Z</time></trkpt><trkpt lat="45.614035" lon="13.8586317"><ele>68.0</ele><time>2026-04-30T11:43:27.128Z</time></trkpt><trkpt lat="45.6141417" lon="13.8586317"><ele>68.0</ele><time>2026-04-30T11:43:31.087Z</time></trkpt><trkpt lat="45.6141783" lon="13.858705"><ele>68.0</ele><time>2026-04-30T11:43:34.106Z</time></trkpt><trkpt lat="45.61423" lon="13.8585483"><ele>68.0</ele><time>2026-04-30T11:43:41.086Z</time></trkpt><trkpt lat="45.6142317" lon="13.8582267"><ele>68.0</ele><time>2026-04-30T11:43:43.099Z</time></trkpt><trkpt lat="45.6142483" lon="13.8584117"><ele>68.0</ele><time>2026-04-30T11:43:53.098Z</time></trkpt><trkpt lat="45.61421" lon="13.858505"><ele>68.0</ele><time>2026-04-30T11:43:54.105Z</time></trkpt><trkpt lat="45.61414" lon="13.8586017"><ele>68.0</ele><time>2026-04-30T11:43:55.111Z</time></trkpt><trkpt lat="45.6140817" lon="13.85864"><ele>68.0</ele><time>2026-04-30T11:44:05.11Z</time></trkpt><trkpt lat="45.6140733" lon="13.8587367"><ele>68.0</ele><time>2026-04-30T11:44:11.083Z</time></trkpt><trkpt lat="45.6140633" lon="13.8588467"><ele>68.0</ele><time>2026-04-30T11:45:03.092Z</time></trkpt><trkpt lat="45.6139933" lon="13.858885"><ele>68.0</ele><time>2026-04-30T12:08:24.057Z</time></trkpt><trkpt lat="45.6139067" lon="13.8589033"><ele>68.0</ele><time>2026-04-30T12:08:27.077Z</time></trkpt><trkpt lat="45.6138017" lon="13.858915"><ele>68.0</ele><time>2026-04-30T12:08:30.098Z</time></trkpt><trkpt lat="45.613725" lon="13.858915"><ele>68.0</ele><time>2026-04-30T12:08:34.056Z</time></trkpt><trkpt lat="45.613725" lon="13.858825"><ele>68.0</ele><time>2026-04-30T12:09:23.114Z</time></trkpt><trkpt lat="45.61377" lon="13.8587483"><ele>67.99999999999999</ele><time>2026-04-30T12:11:49.143Z</time></trkpt><trkpt lat="45.61383" lon="13.8587133"><ele>68.0</ele><time>2026-04-30T12:12:00.082Z</time></trkpt><trkpt lat="45.6138967" lon="13.8587"><ele>68.0</ele><time>2026-04-30T12:12:25.113Z</time></trkpt><trkpt lat="45.6138617" lon="13.8586233"><ele>68.0</ele><time>2026-04-30T12:13:16.048Z</time></trkpt><trkpt lat="45.613795" lon="13.858635"><ele>68.0</ele><time>2026-04-30T12:14:51.075Z</time></trkpt><trkpt lat="45.6137417" lon="13.858725"><ele>67.99999999999999</ele><time>2026-04-30T12:15:47.043Z</time></trkpt><trkpt lat="45.6138067" lon="13.858755"><ele>68.0</ele><time>2026-04-30T12:16:50.125Z</time></trkpt><trkpt lat="45.613875" lon="13.8587867"><ele>68.0</ele><time>2026-04-30T12:17:07.105Z</time></trkpt><trkpt lat="45.61385" lon="13.85887"><ele>68.0</ele><time>2026-04-30T12:18:53.068Z</time></trkpt><trkpt lat="45.6138033" lon="13.8587967"><ele>68.0</ele><time>2026-04-30T12:22:40.099Z</time></trkpt><trkpt lat="45.6139717" lon="13.858785"><ele>68.0</ele><time>2026-04-30T12:22:44.058Z</time></trkpt><trkpt lat="45.614065" lon="13.8587783"><ele>68.0</ele><time>2026-04-30T12:22:47.144Z</time></trkpt><trkpt lat="45.6141567" lon="13.85882"><ele>67.99999999999999</ele><time>2026-04-30T12:27:09.138Z</time></trkpt><trkpt lat="45.6142217" lon="13.858885"><ele>68.0</ele><time>2026-04-30T12:27:28.062Z</time></trkpt><trkpt lat="45.6142917" lon="13.8588783"><ele>68.0</ele><time>2026-04-30T12:27:35.108Z</time></trkpt><trkpt lat="45.61435" lon="13.858945"><ele>68.0</ele><time>2026-04-30T12:27:41.082Z</time></trkpt><trkpt lat="45.6144133" lon="13.8589883"><ele>68.0</ele><time>2026-04-30T12:27:46.048Z</time></trkpt><trkpt lat="45.6144433" lon="13.8590767"><ele>67.99999999999999</ele><time>2026-04-30T12:27:51.08Z</time></trkpt><trkpt lat="45.6145011" lon="13.8591342"><ele>68.0</ele><time>2026-04-30T12:27:57.458Z</time></trkpt><trkpt lat="45.6145544" lon="13.8591943"><ele>68.66666666666667</ele><time>2026-04-30T12:28:05.544Z</time></trkpt><trkpt lat="45.6146341" lon="13.8592466"><ele>69.33333333333334</ele><time>2026-04-30T12:35:15.476Z</time></trkpt><trkpt lat="45.6147091" lon="13.8592751"><ele>70.0</ele><time>2026-04-30T12:35:17.485Z</time></trkpt><trkpt lat="45.6147744" lon="13.8592791"><ele>70.66666666666667</ele><time>2026-04-30T12:35:19.408Z</time></trkpt><trkpt lat="45.6148338" lon="13.8592394"><ele>71.33333333333333</ele><time>2026-04-30T12:35:21.356Z</time></trkpt><trkpt lat="45.6148233" lon="13.85941"><ele>72.0</ele><time>2026-04-30T12:35:23.058Z</time></trkpt><trkpt lat="45.6148433" lon="13.85931"><ele>72.4</ele><time>2026-04-30T12:35:25.072Z</time></trkpt><trkpt lat="45.61487" lon="13.8591467"><ele>72.80000000000001</ele><time>2026-04-30T12:35:27.085Z</time></trkpt><trkpt lat="45.6148917" lon="13.85903"><ele>73.2</ele><time>2026-04-30T12:35:28.092Z</time></trkpt><trkpt lat="45.6149083" lon="13.8589417"><ele>73.60000000000001</ele><time>2026-04-30T12:35:29.098Z</time></trkpt><trkpt lat="45.6149267" lon="13.8587633"><ele>74.0</ele><time>2026-04-30T12:35:31.045Z</time></trkpt><trkpt lat="45.6149483" lon="13.8586717"><ele>74.0</ele><time>2026-04-30T12:35:32.119Z</time></trkpt><trkpt lat="45.61498" lon="13.8585733"><ele>74.0</ele><time>2026-04-30T12:35:33.058Z</time></trkpt><trkpt lat="45.61502" lon="13.8584683"><ele>74.0</ele><time>2026-04-30T12:35:34.132Z</time></trkpt><trkpt lat="45.6150617" lon="13.8583583"><ele>74.0</ele><time>2026-04-30T12:35:35.072Z</time></trkpt><trkpt lat="45.6151" lon="13.8582417"><ele>74.0</ele><time>2026-04-30T12:35:36.078Z</time></trkpt><trkpt lat="45.6151333" lon="13.8581283"><ele>74.0</ele><time>2026-04-30T12:35:37.084Z</time></trkpt><trkpt lat="45.6151583" lon="13.8580283"><ele>73.83333333333334</ele><time>2026-04-30T12:35:38.091Z</time></trkpt><trkpt lat="45.61519" lon="13.8578917"><ele>73.66666666666667</ele><time>2026-04-30T12:35:40.104Z</time></trkpt><trkpt lat="45.6151783" lon="13.8577717"><ele>73.5</ele><time>2026-04-30T12:36:01.042Z</time></trkpt><trkpt lat="45.6151" lon="13.857745"><ele>73.33333333333333</ele><time>2026-04-30T12:36:03.056Z</time></trkpt><trkpt lat="45.6150367" lon="13.8577767"><ele>73.16666666666666</ele><time>2026-04-30T12:36:04.129Z</time></trkpt><trkpt lat="45.61496" lon="13.8578233"><ele>73.0</ele><time>2026-04-30T12:36:05.07Z</time></trkpt><trkpt lat="45.6148767" lon="13.8578767"><ele>73.0</ele><time>2026-04-30T12:36:06.076Z</time></trkpt><trkpt lat="45.6147933" lon="13.857925"><ele>73.0</ele><time>2026-04-30T12:36:07.083Z</time></trkpt><trkpt lat="45.614705" lon="13.8579767"><ele>73.0</ele><time>2026-04-30T12:36:08.089Z</time></trkpt><trkpt lat="45.614615" lon="13.8580283"><ele>73.0</ele><time>2026-04-30T12:36:09.163Z</time></trkpt><trkpt lat="45.6145267" lon="13.8580733"><ele>73.0</ele><time>2026-04-30T12:36:10.103Z</time></trkpt><trkpt lat="45.61444" lon="13.85812"><ele>72.0</ele><time>2026-04-30T12:36:11.042Z</time></trkpt><trkpt lat="45.614355" lon="13.8581633"><ele>71.0</ele><time>2026-04-30T12:36:12.116Z</time></trkpt><trkpt lat="45.61427" lon="13.858205"><ele>70.0</ele><time>2026-04-30T12:36:13.055Z</time></trkpt><trkpt lat="45.6141883" lon="13.85825"><ele>69.0</ele><time>2026-04-30T12:36:14.129Z</time></trkpt><trkpt lat="45.6141117" lon="13.8582917"><ele>68.0</ele><time>2026-04-30T12:36:15.068Z</time></trkpt><trkpt lat="45.6140417" lon="13.8583283"><ele>67.0</ele><time>2026-04-30T12:36:16.075Z</time></trkpt><trkpt lat="45.6139733" lon="13.8583633"><ele>67.0</ele><time>2026-04-30T12:36:17.149Z</time></trkpt><trkpt lat="45.6138983" lon="13.858395"><ele>67.0</ele><time>2026-04-30T12:36:18.089Z</time></trkpt><trkpt lat="45.6138183" lon="13.8584233"><ele>67.0</ele><time>2026-04-30T12:36:19.161Z</time></trkpt><trkpt lat="45.61373" lon="13.85844"><ele>67.0</ele><time>2026-04-30T12:36:20.102Z</time></trkpt><trkpt lat="45.6136317" lon="13.858435"><ele>67.0</ele><time>2026-04-30T12:36:21.04Z</time></trkpt><trkpt lat="45.6135317" lon="13.8584017"><ele>66.8</ele><time>2026-04-30T12:36:22.114Z</time></trkpt><trkpt lat="45.613435" lon="13.85834"><ele>66.6</ele><time>2026-04-30T12:36:23.055Z</time></trkpt><trkpt lat="45.6133433" lon="13.858265"><ele>66.39999999999999</ele><time>2026-04-30T12:36:24.127Z</time></trkpt><trkpt lat="45.6132533" lon="13.85818"><ele>66.2</ele><time>2026-04-30T12:36:25.135Z</time></trkpt><trkpt lat="45.61316" lon="13.8580933"><ele>66.0</ele><time>2026-04-30T12:36:26.075Z</time></trkpt><trkpt lat="45.613065" lon="13.858005"><ele>66.0</ele><time>2026-04-30T12:36:27.148Z</time></trkpt><trkpt lat="45.6129733" lon="13.8579183"><ele>66.0</ele><time>2026-04-30T12:36:28.088Z</time></trkpt><trkpt lat="45.6128717" lon="13.8578367"><ele>66.0</ele><time>2026-04-30T12:36:29.162Z</time></trkpt><trkpt lat="45.6127667" lon="13.8577633"><ele>66.0</ele><time>2026-04-30T12:36:30.101Z</time></trkpt><trkpt lat="45.6126617" lon="13.8577067"><ele>65.8</ele><time>2026-04-30T12:36:31.041Z</time></trkpt><trkpt lat="45.6125633" lon="13.8576533"><ele>65.6</ele><time>2026-04-30T12:36:32.113Z</time></trkpt><trkpt lat="45.612465" lon="13.8576033"><ele>65.4</ele><time>2026-04-30T12:36:33.12Z</time></trkpt><trkpt lat="45.6123617" lon="13.85755"><ele>65.2</ele><time>2026-04-30T12:36:34.06Z</time></trkpt><trkpt lat="45.6122517" lon="13.8574933"><ele>65.0</ele><time>2026-04-30T12:36:35.134Z</time></trkpt><trkpt lat="45.6121383" lon="13.8574367"><ele>64.75</ele><time>2026-04-30T12:36:36.073Z</time></trkpt><trkpt lat="45.6120267" lon="13.8573783"><ele>64.5</ele><time>2026-04-30T12:36:37.148Z</time></trkpt><trkpt lat="45.6119167" lon="13.8573167"><ele>64.25</ele><time>2026-04-30T12:36:38.087Z</time></trkpt><trkpt lat="45.6118067" lon="13.85726"><ele>64.0</ele><time>2026-04-30T12:36:39.027Z</time></trkpt><trkpt lat="45.6117067" lon="13.8572083"><ele>63.800000000000004</ele><time>2026-04-30T12:36:40.099Z</time></trkpt><trkpt lat="45.6116117" lon="13.8571567"><ele>63.60000000000001</ele><time>2026-04-30T12:36:41.039Z</time></trkpt><trkpt lat="45.6115233" lon="13.8571"><ele>63.4</ele><time>2026-04-30T12:36:42.114Z</time></trkpt><trkpt lat="45.61144" lon="13.8570383"><ele>63.2</ele><time>2026-04-30T12:36:43.119Z</time></trkpt><trkpt lat="45.6113733" lon="13.8569783"><ele>63.0</ele><time>2026-04-30T12:36:44.059Z</time></trkpt><trkpt lat="45.6113083" lon="13.8568617"><ele>62.599999999999994</ele><time>2026-04-30T12:36:46.072Z</time></trkpt><trkpt lat="45.611285" lon="13.85674"><ele>62.199999999999996</ele><time>2026-04-30T12:36:48.086Z</time></trkpt><trkpt lat="45.6112283" lon="13.85659"><ele>61.8</ele><time>2026-04-30T12:37:21.103Z</time></trkpt><trkpt lat="45.6111883" lon="13.8564267"><ele>61.4</ele><time>2026-04-30T12:37:23.116Z</time></trkpt><trkpt lat="45.6111767" lon="13.85631"><ele>61.0</ele><time>2026-04-30T12:37:24.056Z</time></trkpt><trkpt lat="45.61117" lon="13.856185"><ele>60.99999999999999</ele><time>2026-04-30T12:37:25.129Z</time></trkpt><trkpt lat="45.6111667" lon="13.8560567"><ele>61.0</ele><time>2026-04-30T12:37:26.069Z</time></trkpt><trkpt lat="45.6111683" lon="13.8559283"><ele>61.0</ele><time>2026-04-30T12:37:27.144Z</time></trkpt><trkpt lat="45.6111733" lon="13.85581"><ele>61.0</ele><time>2026-04-30T12:37:28.082Z</time></trkpt><trkpt lat="45.61118" lon="13.8557033"><ele>60.99999999999999</ele><time>2026-04-30T12:37:29.089Z</time></trkpt><trkpt lat="45.6111883" lon="13.8555533"><ele>61.0</ele><time>2026-04-30T12:37:31.102Z</time></trkpt><trkpt lat="45.61116" lon="13.8554333"><ele>60.666666666666664</ele><time>2026-04-30T12:37:44.055Z</time></trkpt><trkpt lat="45.6111433" lon="13.8555267"><ele>60.33333333333333</ele><time>2026-04-30T12:37:47.141Z</time></trkpt><trkpt lat="45.611145" lon="13.8556817"><ele>60.0</ele><time>2026-04-30T12:37:49.088Z</time></trkpt><trkpt lat="45.6111433" lon="13.8557883"><ele>59.66666666666667</ele><time>2026-04-30T12:37:50.094Z</time></trkpt><trkpt lat="45.6111433" lon="13.8559083"><ele>59.333333333333336</ele><time>2026-04-30T12:37:51.101Z</time></trkpt><trkpt lat="45.6111417" lon="13.8560467"><ele>59.0</ele><time>2026-04-30T12:37:52.107Z</time></trkpt><trkpt lat="45.6111433" lon="13.85619"><ele>59.00000000000001</ele><time>2026-04-30T12:37:53.114Z</time></trkpt><trkpt lat="45.6111417" lon="13.8563283"><ele>59.0</ele><time>2026-04-30T12:37:54.054Z</time></trkpt><trkpt lat="45.6111333" lon="13.8564583"><ele>59.0</ele><time>2026-04-30T12:37:55.127Z</time></trkpt><trkpt lat="45.6111167" lon="13.8565783"><ele>59.0</ele><time>2026-04-30T12:37:56.068Z</time></trkpt><trkpt lat="45.6110867" lon="13.8566867"><ele>59.00000000000001</ele><time>2026-04-30T12:37:57.141Z</time></trkpt><trkpt lat="45.611045" lon="13.8567767"><ele>59.0</ele><time>2026-04-30T12:37:58.081Z</time></trkpt><trkpt lat="45.61099" lon="13.8568367"><ele>59.5</ele><time>2026-04-30T12:37:59.087Z</time></trkpt><trkpt lat="45.610845" lon="13.8569033"><ele>60.0</ele><time>2026-04-30T12:38:01.1Z</time></trkpt><trkpt lat="45.6107467" lon="13.856905"><ele>60.5</ele><time>2026-04-30T12:38:02.039Z</time></trkpt><trkpt lat="45.61064" lon="13.856905"><ele>61.0</ele><time>2026-04-30T12:38:03.114Z</time></trkpt><trkpt lat="45.610525" lon="13.856905"><ele>61.0</ele><time>2026-04-30T12:38:04.053Z</time></trkpt><trkpt lat="45.6104033" lon="13.8568967"><ele>61.0</ele><time>2026-04-30T12:38:05.127Z</time></trkpt><trkpt lat="45.6102767" lon="13.8568817"><ele>61.0</ele><time>2026-04-30T12:38:06.066Z</time></trkpt><trkpt lat="45.6101467" lon="13.856855"><ele>61.0</ele><time>2026-04-30T12:38:07.072Z</time></trkpt><trkpt lat="45.6100167" lon="13.8568183"><ele>60.0</ele><time>2026-04-30T12:38:08.08Z</time></trkpt><trkpt lat="45.609895" lon="13.8567767"><ele>59.0</ele><time>2026-04-30T12:38:09.086Z</time></trkpt><trkpt lat="45.6097783" lon="13.8567333"><ele>58.0</ele><time>2026-04-30T12:38:10.093Z</time></trkpt><trkpt lat="45.60967" lon="13.8566933"><ele>57.0</ele><time>2026-04-30T12:38:11.099Z</time></trkpt><trkpt lat="45.6095617" lon="13.85665"><ele>57.5</ele><time>2026-04-30T12:38:12.039Z</time></trkpt><trkpt lat="45.6094517" lon="13.8566017"><ele>58.0</ele><time>2026-04-30T12:38:13.113Z</time></trkpt><trkpt lat="45.60934" lon="13.85654"><ele>58.5</ele><time>2026-04-30T12:38:14.052Z</time></trkpt><trkpt lat="45.6092333" lon="13.856465"><ele>59.0</ele><time>2026-04-30T12:38:15.127Z</time></trkpt><trkpt lat="45.60913" lon="13.85637"><ele>59.0</ele><time>2026-04-30T12:38:16.065Z</time></trkpt><trkpt lat="45.6090317" lon="13.8562583"><ele>59.0</ele><time>2026-04-30T12:38:17.072Z</time></trkpt><trkpt lat="45.6089367" lon="13.8561383"><ele>59.0</ele><time>2026-04-30T12:38:18.078Z</time></trkpt><trkpt lat="45.60884" lon="13.8560133"><ele>59.0</ele><time>2026-04-30T12:38:19.086Z</time></trkpt><trkpt lat="45.6087383" lon="13.8558833"><ele>58.0</ele><time>2026-04-30T12:38:20.092Z</time></trkpt><trkpt lat="45.6086283" lon="13.8557467"><ele>57.0</ele><time>2026-04-30T12:38:21.099Z</time></trkpt><trkpt lat="45.6085167" lon="13.8556067"><ele>56.0</ele><time>2026-04-30T12:38:22.038Z</time></trkpt><trkpt lat="45.6084033" lon="13.855465"><ele>55.0</ele><time>2026-04-30T12:38:23.113Z</time></trkpt><trkpt lat="45.6082933" lon="13.855325"><ele>55.0</ele><time>2026-04-30T12:38:24.051Z</time></trkpt><trkpt lat="45.6081867" lon="13.8551933"><ele>55.0</ele><time>2026-04-30T12:38:25.125Z</time></trkpt><trkpt lat="45.6080883" lon="13.8550683"><ele>55.0</ele><time>2026-04-30T12:38:26.065Z</time></trkpt><trkpt lat="45.6079867" lon="13.85494"><ele>55.0</ele><time>2026-04-30T12:38:27.071Z</time></trkpt><trkpt lat="45.60788" lon="13.8548033"><ele>54.5</ele><time>2026-04-30T12:38:28.078Z</time></trkpt><trkpt lat="45.6077667" lon="13.8546617"><ele>54.0</ele><time>2026-04-30T12:38:29.084Z</time></trkpt><trkpt lat="45.6076533" lon="13.854515"><ele>53.5</ele><time>2026-04-30T12:38:30.091Z</time></trkpt><trkpt lat="45.607545" lon="13.854375"><ele>53.0</ele><time>2026-04-30T12:38:31.097Z</time></trkpt><trkpt lat="45.6074417" lon="13.85424"><ele>52.75</ele><time>2026-04-30T12:38:32.037Z</time></trkpt><trkpt lat="45.60735" lon="13.8541067"><ele>52.5</ele><time>2026-04-30T12:38:33.111Z</time></trkpt><trkpt lat="45.6072717" lon="13.8539733"><ele>52.25</ele><time>2026-04-30T12:38:34.05Z</time></trkpt><trkpt lat="45.6071967" lon="13.8538333"><ele>52.0</ele><time>2026-04-30T12:38:35.125Z</time></trkpt><trkpt lat="45.6071217" lon="13.8536883"><ele>52.0</ele><time>2026-04-30T12:38:36.065Z</time></trkpt><trkpt lat="45.6070517" lon="13.8535333"><ele>52.0</ele><time>2026-04-30T12:38:37.071Z</time></trkpt><trkpt lat="45.6069833" lon="13.8533667"><ele>52.0</ele><time>2026-04-30T12:38:38.077Z</time></trkpt><trkpt lat="45.6069183" lon="13.8531867"><ele>52.0</ele><time>2026-04-30T12:38:39.083Z</time></trkpt><trkpt lat="45.6068583" lon="13.8529983"><ele>52.33333333333333</ele><time>2026-04-30T12:38:40.157Z</time></trkpt><trkpt lat="45.6068017" lon="13.8528033"><ele>52.66666666666667</ele><time>2026-04-30T12:38:41.098Z</time></trkpt><trkpt lat="45.6067483" lon="13.8525983"><ele>53.0</ele><time>2026-04-30T12:38:42.037Z</time></trkpt><trkpt lat="45.6066917" lon="13.8523917"><ele>53.0</ele><time>2026-04-30T12:38:43.111Z</time></trkpt><trkpt lat="45.60663" lon="13.8521883"><ele>53.0</ele><time>2026-04-30T12:38:44.049Z</time></trkpt><trkpt lat="45.6065583" lon="13.85199"><ele>53.0</ele><time>2026-04-30T12:38:45.124Z</time></trkpt><trkpt lat="45.606485" lon="13.8517967"><ele>53.0</ele><time>2026-04-30T12:38:46.063Z</time></trkpt><trkpt lat="45.6064067" lon="13.8516033"><ele>53.0</ele><time>2026-04-30T12:38:47.07Z</time></trkpt><trkpt lat="45.606325" lon="13.8514133"><ele>53.0</ele><time>2026-04-30T12:38:48.143Z</time></trkpt><trkpt lat="45.60625" lon="13.8512333"><ele>53.0</ele><time>2026-04-30T12:38:49.084Z</time></trkpt><trkpt lat="45.6061867" lon="13.8510667"><ele>53.0</ele><time>2026-04-30T12:38:50.157Z</time></trkpt><trkpt lat="45.6061317" lon="13.8509133"><ele>53.0</ele><time>2026-04-30T12:38:51.096Z</time></trkpt><trkpt lat="45.60609" lon="13.85077"><ele>53.0</ele><time>2026-04-30T12:38:52.036Z</time></trkpt><trkpt lat="45.6060583" lon="13.8506433"><ele>52.16666666666667</ele><time>2026-04-30T12:38:53.11Z</time></trkpt><trkpt lat="45.6060317" lon="13.85053"><ele>51.333333333333336</ele><time>2026-04-30T12:38:54.05Z</time></trkpt><trkpt lat="45.6059917" lon="13.8504417"><ele>50.5</ele><time>2026-04-30T12:38:55.122Z</time></trkpt><trkpt lat="45.6059483" lon="13.8503717"><ele>49.66666666666667</ele><time>2026-04-30T12:38:56.129Z</time></trkpt><trkpt lat="45.6058333" lon="13.850395"><ele>48.833333333333336</ele><time>2026-04-30T12:38:58.143Z</time></trkpt><trkpt lat="45.60578" lon="13.8504583"><ele>48.0</ele><time>2026-04-30T12:38:59.082Z</time></trkpt><trkpt lat="45.6057267" lon="13.8505533"><ele>48.0</ele><time>2026-04-30T12:39:00.157Z</time></trkpt><trkpt lat="45.6056683" lon="13.8506383"><ele>48.0</ele><time>2026-04-30T12:39:01.095Z</time></trkpt><trkpt lat="45.6056083" lon="13.85071"><ele>48.0</ele><time>2026-04-30T12:39:02.035Z</time></trkpt><trkpt lat="45.6055483" lon="13.8507717"><ele>48.0</ele><time>2026-04-30T12:39:03.108Z</time></trkpt><trkpt lat="45.6054817" lon="13.8508333"><ele>48.0</ele><time>2026-04-30T12:39:04.116Z</time></trkpt><trkpt lat="45.6054117" lon="13.8509017"><ele>48.0</ele><time>2026-04-30T12:39:05.122Z</time></trkpt><trkpt lat="45.6053367" lon="13.85098"><ele>47.4</ele><time>2026-04-30T12:39:06.128Z</time></trkpt><trkpt lat="45.6052567" lon="13.8510617"><ele>46.8</ele><time>2026-04-30T12:39:07.068Z</time></trkpt><trkpt lat="45.6051767" lon="13.8511467"><ele>46.2</ele><time>2026-04-30T12:39:08.142Z</time></trkpt><trkpt lat="45.605095" lon="13.8512417"><ele>45.6</ele><time>2026-04-30T12:39:09.081Z</time></trkpt><trkpt lat="45.6050167" lon="13.85134"><ele>45.0</ele><time>2026-04-30T12:39:10.156Z</time></trkpt><trkpt lat="45.604935" lon="13.8514417"><ele>45.0</ele><time>2026-04-30T12:39:11.094Z</time></trkpt><trkpt lat="45.6048517" lon="13.8515483"><ele>45.0</ele><time>2026-04-30T12:39:12.034Z</time></trkpt><trkpt lat="45.6047683" lon="13.8516633"><ele>45.0</ele><time>2026-04-30T12:39:13.109Z</time></trkpt><trkpt lat="45.6046817" lon="13.85179"><ele>45.0</ele><time>2026-04-30T12:39:14.114Z</time></trkpt><trkpt lat="45.6045933" lon="13.851925"><ele>45.25</ele><time>2026-04-30T12:39:15.122Z</time></trkpt><trkpt lat="45.604505" lon="13.85206"><ele>45.5</ele><time>2026-04-30T12:39:16.128Z</time></trkpt><trkpt lat="45.6044167" lon="13.8522"><ele>45.75</ele><time>2026-04-30T12:39:17.067Z</time></trkpt><trkpt lat="45.6043283" lon="13.8523467"><ele>46.0</ele><time>2026-04-30T12:39:18.142Z</time></trkpt><trkpt lat="45.60424" lon="13.8524967"><ele>46.5</ele><time>2026-04-30T12:39:19.081Z</time></trkpt><trkpt lat="45.6041467" lon="13.8526533"><ele>47.0</ele><time>2026-04-30T12:39:20.155Z</time></trkpt><trkpt lat="45.60405" lon="13.8528167"><ele>47.5</ele><time>2026-04-30T12:39:21.095Z</time></trkpt><trkpt lat="45.6039483" lon="13.852985"><ele>48.0</ele><time>2026-04-30T12:39:22.1Z</time></trkpt><trkpt lat="45.6038417" lon="13.8531633"><ele>48.0</ele><time>2026-04-30T12:39:23.107Z</time></trkpt><trkpt lat="45.6037383" lon="13.85334"><ele>48.0</ele><time>2026-04-30T12:39:24.114Z</time></trkpt><trkpt lat="45.6036367" lon="13.85352"><ele>48.0</ele><time>2026-04-30T12:39:25.121Z</time></trkpt><trkpt lat="45.603535" lon="13.8536983"><ele>50.0</ele><time>2026-04-30T12:39:26.128Z</time></trkpt><trkpt lat="45.6034383" lon="13.8538733"><ele>52.0</ele><time>2026-04-30T12:39:27.067Z</time></trkpt><trkpt lat="45.60334" lon="13.85404"><ele>54.0</ele><time>2026-04-30T12:39:28.14Z</time></trkpt><trkpt lat="45.603245" lon="13.8541983"><ele>54.5</ele><time>2026-04-30T12:39:29.08Z</time></trkpt><trkpt lat="45.6031517" lon="13.8543517"><ele>55.0</ele><time>2026-04-30T12:39:30.154Z</time></trkpt><trkpt lat="45.6030517" lon="13.854495"><ele>55.5</ele><time>2026-04-30T12:39:31.094Z</time></trkpt><trkpt lat="45.602955" lon="13.85464"><ele>56.0</ele><time>2026-04-30T12:39:32.099Z</time></trkpt><trkpt lat="45.6028633" lon="13.8547767"><ele>56.25</ele><time>2026-04-30T12:39:33.106Z</time></trkpt><trkpt lat="45.6027717" lon="13.854905"><ele>56.5</ele><time>2026-04-30T12:39:34.113Z</time></trkpt><trkpt lat="45.6026933" lon="13.8550283"><ele>56.75</ele><time>2026-04-30T12:39:35.052Z</time></trkpt><trkpt lat="45.602625" lon="13.8551533"><ele>57.0</ele><time>2026-04-30T12:39:36.126Z</time></trkpt><trkpt lat="45.602565" lon="13.8552917"><ele>58.25</ele><time>2026-04-30T12:39:37.065Z</time></trkpt><trkpt lat="45.6025133" lon="13.8554433"><ele>59.5</ele><time>2026-04-30T12:39:38.139Z</time></trkpt><trkpt lat="45.602465" lon="13.855595"><ele>60.75</ele><time>2026-04-30T12:39:39.079Z</time></trkpt><trkpt lat="45.602415" lon="13.85575"><ele>62.0</ele><time>2026-04-30T12:39:40.086Z</time></trkpt><trkpt lat="45.6023667" lon="13.85591"><ele>63.0</ele><time>2026-04-30T12:39:41.092Z</time></trkpt><trkpt lat="45.6023217" lon="13.85607"><ele>64.0</ele><time>2026-04-30T12:39:42.1Z</time></trkpt><trkpt lat="45.602275" lon="13.8562267"><ele>65.0</ele><time>2026-04-30T12:39:43.105Z</time></trkpt><trkpt lat="45.602225" lon="13.856375"><ele>66.0</ele><time>2026-04-30T12:39:44.113Z</time></trkpt><trkpt lat="45.602165" lon="13.8564917"><ele>66.0</ele><time>2026-04-30T12:39:45.052Z</time></trkpt><trkpt lat="45.602095" lon="13.8565583"><ele>66.0</ele><time>2026-04-30T12:39:46.125Z</time></trkpt><trkpt lat="45.6020233" lon="13.8565817"><ele>66.0</ele><time>2026-04-30T12:39:47.066Z</time></trkpt><trkpt lat="45.6019417" lon="13.856545"><ele>66.0</ele><time>2026-04-30T12:39:48.138Z</time></trkpt><trkpt lat="45.60187" lon="13.8564767"><ele>66.0</ele><time>2026-04-30T12:39:49.079Z</time></trkpt><trkpt lat="45.6018233" lon="13.8563367"><ele>66.0</ele><time>2026-04-30T12:39:50.085Z</time></trkpt><trkpt lat="45.6017833" lon="13.856195"><ele>67.75</ele><time>2026-04-30T12:39:51.091Z</time></trkpt><trkpt lat="45.6017433" lon="13.856045"><ele>69.5</ele><time>2026-04-30T12:39:52.098Z</time></trkpt><trkpt lat="45.6017" lon="13.85589"><ele>71.25</ele><time>2026-04-30T12:39:53.106Z</time></trkpt><trkpt lat="45.6016417" lon="13.8557483"><ele>73.0</ele><time>2026-04-30T12:39:54.111Z</time></trkpt><trkpt lat="45.6015633" lon="13.8556333"><ele>73.0</ele><time>2026-04-30T12:39:55.052Z</time></trkpt><trkpt lat="45.601465" lon="13.8555617"><ele>73.0</ele><time>2026-04-30T12:39:56.125Z</time></trkpt><trkpt lat="45.6013667" lon="13.85554"><ele>73.0</ele><time>2026-04-30T12:39:57.065Z</time></trkpt><trkpt lat="45.6012667" lon="13.85558"><ele>73.0</ele><time>2026-04-30T12:39:58.139Z</time></trkpt><trkpt lat="45.6011833" lon="13.8556617"><ele>73.0</ele><time>2026-04-30T12:39:59.077Z</time></trkpt><trkpt lat="45.6011167" lon="13.8557767"><ele>76.6</ele><time>2026-04-30T12:40:00.085Z</time></trkpt><trkpt lat="45.6010733" lon="13.855915"><ele>80.19999999999999</ele><time>2026-04-30T12:40:01.091Z</time></trkpt><trkpt lat="45.6010483" lon="13.8560617"><ele>83.8</ele><time>2026-04-30T12:40:02.097Z</time></trkpt><trkpt lat="45.60104" lon="13.856215"><ele>87.39999999999999</ele><time>2026-04-30T12:40:03.105Z</time></trkpt><trkpt lat="45.6010367" lon="13.8563783"><ele>91.0</ele><time>2026-04-30T12:40:04.111Z</time></trkpt><trkpt lat="45.6010333" lon="13.8565417"><ele>93.33333333333333</ele><time>2026-04-30T12:40:05.051Z</time></trkpt><trkpt lat="45.60103" lon="13.8567067"><ele>95.66666666666666</ele><time>2026-04-30T12:40:06.124Z</time></trkpt><trkpt lat="45.6010267" lon="13.85704"><ele>98.0</ele><time>2026-04-30T12:40:08.137Z</time></trkpt><trkpt lat="45.6010217" lon="13.857205"><ele>98.60000000000001</ele><time>2026-04-30T12:40:09.076Z</time></trkpt><trkpt lat="45.6010133" lon="13.8573717"><ele>99.2</ele><time>2026-04-30T12:40:10.084Z</time></trkpt><trkpt lat="45.6010083" lon="13.85753"><ele>99.8</ele><time>2026-04-30T12:40:11.09Z</time></trkpt><trkpt lat="45.601" lon="13.8576767"><ele>100.4</ele><time>2026-04-30T12:40:12.097Z</time></trkpt><trkpt lat="45.601005" lon="13.8578183"><ele>101.0</ele><time>2026-04-30T12:40:13.103Z</time></trkpt><trkpt lat="45.601025" lon="13.8579617"><ele>101.16666666666666</ele><time>2026-04-30T12:40:14.111Z</time></trkpt><trkpt lat="45.6010583" lon="13.8581033"><ele>101.33333333333333</ele><time>2026-04-30T12:40:15.05Z</time></trkpt><trkpt lat="45.6010983" lon="13.8582267"><ele>101.5</ele><time>2026-04-30T12:40:16.123Z</time></trkpt><trkpt lat="45.601145" lon="13.8583383"><ele>101.66666666666666</ele><time>2026-04-30T12:40:17.062Z</time></trkpt><trkpt lat="45.6011817" lon="13.8584417"><ele>101.83333333333333</ele><time>2026-04-30T12:40:18.136Z</time></trkpt><trkpt lat="45.6012033" lon="13.8585467"><ele>102.0</ele><time>2026-04-30T12:40:19.076Z</time></trkpt><trkpt lat="45.6012133" lon="13.8586617"><ele>101.19999999999999</ele><time>2026-04-30T12:40:20.082Z</time></trkpt><trkpt lat="45.6012183" lon="13.8587767"><ele>100.4</ele><time>2026-04-30T12:40:21.09Z</time></trkpt><trkpt lat="45.6012217" lon="13.8588817"><ele>99.6</ele><time>2026-04-30T12:40:22.097Z</time></trkpt><trkpt lat="45.601235" lon="13.8590483"><ele>98.80000000000001</ele><time>2026-04-30T12:40:24.109Z</time></trkpt><trkpt lat="45.6012683" lon="13.8592233"><ele>98.0</ele><time>2026-04-30T12:40:26.123Z</time></trkpt><trkpt lat="45.60129" lon="13.8593083"><ele>99.66666666666666</ele><time>2026-04-30T12:40:27.063Z</time></trkpt><trkpt lat="45.6013133" lon="13.8594383"><ele>101.33333333333333</ele><time>2026-04-30T12:40:29.076Z</time></trkpt><trkpt lat="45.6013383" lon="13.859565"><ele>103.0</ele><time>2026-04-30T12:40:31.088Z</time></trkpt><trkpt lat="45.6013633" lon="13.8596783"><ele>104.66666666666666</ele><time>2026-04-30T12:40:33.101Z</time></trkpt><trkpt lat="45.6014317" lon="13.8597517"><ele>106.33333333333333</ele><time>2026-04-30T12:40:36.121Z</time></trkpt><trkpt lat="45.601505" lon="13.8597633"><ele>108.0</ele><time>2026-04-30T12:40:39.075Z</time></trkpt><trkpt lat="45.6016017" lon="13.8597783"><ele>108.0</ele><time>2026-04-30T12:40:41.087Z</time></trkpt><trkpt lat="45.60172" lon="13.8598167"><ele>108.00000000000001</ele><time>2026-04-30T12:40:43.102Z</time></trkpt><trkpt lat="45.6017817" lon="13.8598433"><ele>108.00000000000001</ele><time>2026-04-30T12:40:44.107Z</time></trkpt><trkpt lat="45.6018467" lon="13.85987"><ele>108.0</ele><time>2026-04-30T12:40:45.048Z</time></trkpt><trkpt lat="45.6019717" lon="13.8598817"><ele>108.0</ele><time>2026-04-30T12:40:47.061Z</time></trkpt><trkpt lat="45.6020733" lon="13.8598683"><ele>108.0</ele><time>2026-04-30T12:40:49.073Z</time></trkpt><trkpt lat="45.6021567" lon="13.8598233"><ele>108.0</ele><time>2026-04-30T12:40:51.087Z</time></trkpt><trkpt lat="45.6022283" lon="13.8597733"><ele>108.0</ele><time>2026-04-30T12:40:54.107Z</time></trkpt><trkpt lat="45.6021517" lon="13.8597583"><ele>108.0</ele><time>2026-04-30T12:41:50.075Z</time></trkpt><trkpt lat="45.6020867" lon="13.859815"><ele>108.0</ele><time>2026-04-30T12:41:53.095Z</time></trkpt><trkpt lat="45.60201" lon="13.85985"><ele>108.0</ele><time>2026-04-30T12:41:55.108Z</time></trkpt><trkpt lat="45.6019117" lon="13.859855"><ele>108.0</ele><time>2026-04-30T12:41:57.122Z</time></trkpt><trkpt lat="45.6018033" lon="13.85985"><ele>108.00000000000001</ele><time>2026-04-30T12:41:59.135Z</time></trkpt><trkpt lat="45.6016967" lon="13.8598033"><ele>108.00000000000001</ele><time>2026-04-30T12:42:01.148Z</time></trkpt><trkpt lat="45.6015983" lon="13.8597333"><ele>108.0</ele><time>2026-04-30T12:42:03.095Z</time></trkpt><trkpt lat="45.6015133" lon="13.85971"><ele>108.0</ele><time>2026-04-30T12:42:05.109Z</time></trkpt><trkpt lat="45.6014267" lon="13.8597017"><ele>108.0</ele><time>2026-04-30T12:42:09.134Z</time></trkpt><trkpt lat="45.6013733" lon="13.8596283"><ele>108.0</ele><time>2026-04-30T12:42:11.147Z</time></trkpt><trkpt lat="45.6013417" lon="13.8595133"><ele>108.0</ele><time>2026-04-30T12:42:13.094Z</time></trkpt><trkpt lat="45.6013267" lon="13.859405"><ele>108.0</ele><time>2026-04-30T12:42:15.107Z</time></trkpt><trkpt lat="45.6012583" lon="13.85935"><ele>108.0</ele><time>2026-04-30T12:42:17.12Z</time></trkpt><trkpt lat="45.601165" lon="13.8593667"><ele>108.0</ele><time>2026-04-30T12:42:19.134Z</time></trkpt><trkpt lat="45.6010833" lon="13.8593833"><ele>109.0</ele><time>2026-04-30T12:42:20.073Z</time></trkpt><trkpt lat="45.601005" lon="13.8594"><ele>110.0</ele><time>2026-04-30T12:42:21.147Z</time></trkpt><trkpt lat="45.6009283" lon="13.8594117"><ele>111.0</ele><time>2026-04-30T12:42:22.086Z</time></trkpt><trkpt lat="45.6008633" lon="13.8593967"><ele>112.0</ele><time>2026-04-30T12:42:23.093Z</time></trkpt><trkpt lat="45.6007983" lon="13.8593867"><ele>113.0</ele><time>2026-04-30T12:42:24.099Z</time></trkpt><trkpt lat="45.6007283" lon="13.8593733"><ele>113.99999999999999</ele><time>2026-04-30T12:42:25.107Z</time></trkpt><trkpt lat="45.6006567" lon="13.8593567"><ele>114.99999999999999</ele><time>2026-04-30T12:42:26.114Z</time></trkpt><trkpt lat="45.6005867" lon="13.859335"><ele>114.99999999999999</ele><time>2026-04-30T12:42:27.12Z</time></trkpt><trkpt lat="45.600515" lon="13.8593167"><ele>115.0</ele><time>2026-04-30T12:42:28.059Z</time></trkpt><trkpt lat="45.6004433" lon="13.8592983"><ele>114.99999999999999</ele><time>2026-04-30T12:42:29.133Z</time></trkpt><trkpt lat="45.6003683" lon="13.8592767"><ele>114.99999999999999</ele><time>2026-04-30T12:42:30.072Z</time></trkpt><trkpt lat="45.6002967" lon="13.8592433"><ele>115.0</ele><time>2026-04-30T12:42:31.08Z</time></trkpt><trkpt lat="45.60023" lon="13.8591917"><ele>114.99999999999999</ele><time>2026-04-30T12:42:32.086Z</time></trkpt><trkpt lat="45.6001733" lon="13.8591217"><ele>114.99999999999999</ele><time>2026-04-30T12:42:33.092Z</time></trkpt><trkpt lat="45.6001367" lon="13.859045"><ele>115.83333333333334</ele><time>2026-04-30T12:42:34.099Z</time></trkpt><trkpt lat="45.6001167" lon="13.8589583"><ele>116.66666666666667</ele><time>2026-04-30T12:42:35.105Z</time></trkpt><trkpt lat="45.6001183" lon="13.8588533"><ele>117.5</ele><time>2026-04-30T12:42:36.046Z</time></trkpt><trkpt lat="45.60012" lon="13.8587433"><ele>118.33333333333334</ele><time>2026-04-30T12:42:37.119Z</time></trkpt><trkpt lat="45.6001183" lon="13.8586183"><ele>119.16666666666667</ele><time>2026-04-30T12:42:38.059Z</time></trkpt><trkpt lat="45.60012" lon="13.8584817"><ele>120.0</ele><time>2026-04-30T12:42:39.132Z</time></trkpt><trkpt lat="45.6001317" lon="13.8583367"><ele>120.4</ele><time>2026-04-30T12:42:40.071Z</time></trkpt><trkpt lat="45.6001483" lon="13.85819"><ele>120.8</ele><time>2026-04-30T12:42:41.078Z</time></trkpt><trkpt lat="45.6001683" lon="13.85804"><ele>121.19999999999999</ele><time>2026-04-30T12:42:42.085Z</time></trkpt><trkpt lat="45.6001917" lon="13.8578983"><ele>121.6</ele><time>2026-04-30T12:42:43.092Z</time></trkpt><trkpt lat="45.600215" lon="13.857765"><ele>122.0</ele><time>2026-04-30T12:42:44.099Z</time></trkpt><trkpt lat="45.6002333" lon="13.85764"><ele>122.0</ele><time>2026-04-30T12:42:45.105Z</time></trkpt><trkpt lat="45.600245" lon="13.8575317"><ele>121.99999999999999</ele><time>2026-04-30T12:42:46.044Z</time></trkpt><trkpt lat="45.6002417" lon="13.8574333"><ele>121.99999999999999</ele><time>2026-04-30T12:42:47.118Z</time></trkpt><trkpt lat="45.60021" lon="13.8572717"><ele>122.0</ele><time>2026-04-30T12:42:49.132Z</time></trkpt><trkpt lat="45.6000917" lon="13.8571967"><ele>122.0</ele><time>2026-04-30T12:42:51.078Z</time></trkpt><trkpt lat="45.6000083" lon="13.8572117"><ele>122.0</ele><time>2026-04-30T12:42:52.084Z</time></trkpt><trkpt lat="45.5999183" lon="13.8572567"><ele>121.99999999999999</ele><time>2026-04-30T12:42:53.09Z</time></trkpt><trkpt lat="45.599825" lon="13.857325"><ele>121.99999999999999</ele><time>2026-04-30T12:42:54.097Z</time></trkpt><trkpt lat="45.5997417" lon="13.8574133"><ele>122.0</ele><time>2026-04-30T12:42:55.105Z</time></trkpt><trkpt lat="45.5996833" lon="13.8575217"><ele>122.0</ele><time>2026-04-30T12:42:56.043Z</time></trkpt><trkpt lat="45.59965" lon="13.8576367"><ele>121.99999999999999</ele><time>2026-04-30T12:42:57.118Z</time></trkpt><trkpt lat="45.5996417" lon="13.8577533"><ele>122.0</ele><time>2026-04-30T12:42:58.057Z</time></trkpt><trkpt lat="45.59966" lon="13.8578683"><ele>122.0</ele><time>2026-04-30T12:42:59.13Z</time></trkpt><trkpt lat="45.5996867" lon="13.8579833"><ele>122.0</ele><time>2026-04-30T12:43:00.071Z</time></trkpt><trkpt lat="45.5997133" lon="13.8581133"><ele>121.99999999999999</ele><time>2026-04-30T12:43:01.077Z</time></trkpt><trkpt lat="45.5997217" lon="13.8582467"><ele>122.0</ele><time>2026-04-30T12:43:02.083Z</time></trkpt><trkpt lat="45.59971" lon="13.8583867"><ele>121.5</ele><time>2026-04-30T12:43:03.091Z</time></trkpt><trkpt lat="45.5996717" lon="13.8585283"><ele>121.0</ele><time>2026-04-30T12:43:04.097Z</time></trkpt><trkpt lat="45.5996267" lon="13.8586767"><ele>120.5</ele><time>2026-04-30T12:43:05.104Z</time></trkpt><trkpt lat="45.599575" lon="13.8588267"><ele>120.0</ele><time>2026-04-30T12:43:06.042Z</time></trkpt><trkpt lat="45.5995217" lon="13.85898"><ele>124.0</ele><time>2026-04-30T12:43:07.117Z</time></trkpt><trkpt lat="45.599465" lon="13.85912"><ele>128.0</ele><time>2026-04-30T12:43:08.057Z</time></trkpt><trkpt lat="45.5994217" lon="13.8592483"><ele>132.0</ele><time>2026-04-30T12:43:09.129Z</time></trkpt><trkpt lat="45.5993833" lon="13.8593583"><ele>136.0</ele><time>2026-04-30T12:43:10.069Z</time></trkpt><trkpt lat="45.59935" lon="13.859445"><ele>140.0</ele><time>2026-04-30T12:43:11.076Z</time></trkpt><trkpt lat="45.5992933" lon="13.8595383"><ele>140.0</ele><time>2026-04-30T12:43:13.09Z</time></trkpt><trkpt lat="45.599235" lon="13.8594467"><ele>140.0</ele><time>2026-04-30T12:43:16.042Z</time></trkpt><trkpt lat="45.5992283" lon="13.8592567"><ele>140.0</ele><time>2026-04-30T12:43:18.055Z</time></trkpt><trkpt lat="45.59922" lon="13.85915"><ele>140.0</ele><time>2026-04-30T12:43:19.129Z</time></trkpt><trkpt lat="45.5992017" lon="13.85904"><ele>140.0</ele><time>2026-04-30T12:43:20.069Z</time></trkpt><trkpt lat="45.5991633" lon="13.858935"><ele>140.2</ele><time>2026-04-30T12:43:21.076Z</time></trkpt><trkpt lat="45.5991133" lon="13.8588433"><ele>140.4</ele><time>2026-04-30T12:43:22.082Z</time></trkpt><trkpt lat="45.5990383" lon="13.8587767"><ele>140.6</ele><time>2026-04-30T12:43:23.089Z</time></trkpt><trkpt lat="45.5989433" lon="13.8587233"><ele>140.8</ele><time>2026-04-30T12:43:24.163Z</time></trkpt><trkpt lat="45.5988433" lon="13.8586667"><ele>141.0</ele><time>2026-04-30T12:43:25.102Z</time></trkpt><trkpt lat="45.598735" lon="13.8586033"><ele>144.25</ele><time>2026-04-30T12:43:26.041Z</time></trkpt><trkpt lat="45.59862" lon="13.858535"><ele>147.5</ele><time>2026-04-30T12:43:27.116Z</time></trkpt><trkpt lat="45.5984967" lon="13.8584667"><ele>150.75</ele><time>2026-04-30T12:43:28.054Z</time></trkpt><trkpt lat="45.598365" lon="13.8583983"><ele>154.0</ele><time>2026-04-30T12:43:29.128Z</time></trkpt><trkpt lat="45.5982217" lon="13.858345"><ele>154.0</ele><time>2026-04-30T12:43:30.067Z</time></trkpt><trkpt lat="45.598075" lon="13.8583083"><ele>154.0</ele><time>2026-04-30T12:43:31.074Z</time></trkpt><trkpt lat="45.5979333" lon="13.858265"><ele>154.0</ele><time>2026-04-30T12:43:32.081Z</time></trkpt><trkpt lat="45.5978167" lon="13.8582017"><ele>154.0</ele><time>2026-04-30T12:43:33.087Z</time></trkpt><trkpt lat="45.5977183" lon="13.8581183"><ele>155.25</ele><time>2026-04-30T12:43:34.161Z</time></trkpt><trkpt lat="45.597625" lon="13.8580133"><ele>156.5</ele><time>2026-04-30T12:43:35.101Z</time></trkpt><trkpt lat="45.5975367" lon="13.8578917"><ele>157.75</ele><time>2026-04-30T12:43:36.04Z</time></trkpt><trkpt lat="45.5974517" lon="13.8577567"><ele>159.0</ele><time>2026-04-30T12:43:37.114Z</time></trkpt><trkpt lat="45.5973667" lon="13.85761"><ele>159.0</ele><time>2026-04-30T12:43:38.054Z</time></trkpt><trkpt lat="45.5972833" lon="13.8574633"><ele>159.0</ele><time>2026-04-30T12:43:39.127Z</time></trkpt><trkpt lat="45.5971983" lon="13.8573117"><ele>159.0</ele><time>2026-04-30T12:43:40.068Z</time></trkpt><trkpt lat="45.5971067" lon="13.8571633"><ele>159.0</ele><time>2026-04-30T12:43:41.073Z</time></trkpt><trkpt lat="45.597005" lon="13.8570283"><ele>160.5</ele><time>2026-04-30T12:43:42.147Z</time></trkpt><trkpt lat="45.5968933" lon="13.8569017"><ele>162.0</ele><time>2026-04-30T12:43:43.088Z</time></trkpt><trkpt lat="45.596785" lon="13.8567883"><ele>163.5</ele><time>2026-04-30T12:43:44.161Z</time></trkpt><trkpt lat="45.5966833" lon="13.8566917"><ele>165.0</ele><time>2026-04-30T12:43:45.101Z</time></trkpt><trkpt lat="45.5965883" lon="13.8566217"><ele>165.0</ele><time>2026-04-30T12:43:46.039Z</time></trkpt><trkpt lat="45.59649" lon="13.85658"><ele>165.0</ele><time>2026-04-30T12:43:47.114Z</time></trkpt><trkpt lat="45.596385" lon="13.85656"><ele>165.0</ele><time>2026-04-30T12:43:48.053Z</time></trkpt><trkpt lat="45.5962683" lon="13.8565583"><ele>165.0</ele><time>2026-04-30T12:43:49.127Z</time></trkpt><trkpt lat="45.5961483" lon="13.8565733"><ele>165.0</ele><time>2026-04-30T12:43:50.133Z</time></trkpt><trkpt lat="45.5960233" lon="13.8565967"><ele>167.6</ele><time>2026-04-30T12:43:51.073Z</time></trkpt><trkpt lat="45.5959017" lon="13.8566233"><ele>170.2</ele><time>2026-04-30T12:43:52.147Z</time></trkpt><trkpt lat="45.59579" lon="13.856655"><ele>172.8</ele><time>2026-04-30T12:43:53.086Z</time></trkpt><trkpt lat="45.5956933" lon="13.8566733"><ele>175.4</ele><time>2026-04-30T12:43:54.161Z</time></trkpt><trkpt lat="45.5955917" lon="13.8566633"><ele>178.0</ele><time>2026-04-30T12:43:55.099Z</time></trkpt><trkpt lat="45.595495" lon="13.856635"><ele>178.0</ele><time>2026-04-30T12:43:56.039Z</time></trkpt><trkpt lat="45.5953983" lon="13.85658"><ele>178.0</ele><time>2026-04-30T12:43:57.112Z</time></trkpt><trkpt lat="45.5952917" lon="13.85651"><ele>178.0</ele><time>2026-04-30T12:43:58.12Z</time></trkpt><trkpt lat="45.5951883" lon="13.8564367"><ele>178.0</ele><time>2026-04-30T12:43:59.059Z</time></trkpt><trkpt lat="45.5950883" lon="13.8563583"><ele>181.2</ele><time>2026-04-30T12:44:00.133Z</time></trkpt><trkpt lat="45.5949833" lon="13.8562833"><ele>184.4</ele><time>2026-04-30T12:44:01.072Z</time></trkpt><trkpt lat="45.5948933" lon="13.8562117"><ele>187.6</ele><time>2026-04-30T12:44:02.145Z</time></trkpt><trkpt lat="45.5948267" lon="13.8561467"><ele>190.79999999999998</ele><time>2026-04-30T12:44:03.086Z</time></trkpt><trkpt lat="45.594775" lon="13.8560817"><ele>194.0</ele><time>2026-04-30T12:44:04.025Z</time></trkpt><trkpt lat="45.5947483" lon="13.855945"><ele>194.0</ele><time>2026-04-30T12:44:06.106Z</time></trkpt><trkpt lat="45.5948233" lon="13.8558733"><ele>194.0</ele><time>2026-04-30T12:44:08.118Z</time></trkpt><trkpt lat="45.594975" lon="13.8558933"><ele>194.0</ele><time>2026-04-30T12:44:09.058Z</time></trkpt><trkpt lat="45.5950983" lon="13.8558733"><ele>194.0</ele><time>2026-04-30T12:44:10.131Z</time></trkpt><trkpt lat="45.5952483" lon="13.8558367"><ele>187.25</ele><time>2026-04-30T12:44:11.071Z</time></trkpt><trkpt lat="45.5953683" lon="13.8557083"><ele>180.5</ele><time>2026-04-30T12:44:12.145Z</time></trkpt><trkpt lat="45.595455" lon="13.8555833"><ele>173.75</ele><time>2026-04-30T12:44:13.084Z</time></trkpt><trkpt lat="45.5955267" lon="13.8554483"><ele>167.0</ele><time>2026-04-30T12:44:14.024Z</time></trkpt><trkpt lat="45.5955917" lon="13.8552983"><ele>167.0</ele><time>2026-04-30T12:44:15.099Z</time></trkpt><trkpt lat="45.5956383" lon="13.8551417"><ele>167.0</ele><time>2026-04-30T12:44:16.105Z</time></trkpt><trkpt lat="45.5956633" lon="13.8549833"><ele>167.0</ele><time>2026-04-30T12:44:17.112Z</time></trkpt><trkpt lat="45.5956683" lon="13.8548317"><ele>167.0</ele><time>2026-04-30T12:44:18.117Z</time></trkpt><trkpt lat="45.5956483" lon="13.8546867"><ele>167.0</ele><time>2026-04-30T12:44:19.057Z</time></trkpt><trkpt lat="45.595605" lon="13.8545567"><ele>168.75</ele><time>2026-04-30T12:44:20.131Z</time></trkpt><trkpt lat="45.5955417" lon="13.8544317"><ele>170.5</ele><time>2026-04-30T12:44:21.071Z</time></trkpt><trkpt lat="45.5954733" lon="13.854315"><ele>172.25</ele><time>2026-04-30T12:44:22.145Z</time></trkpt><trkpt lat="45.5953917" lon="13.8541983"><ele>174.0</ele><time>2026-04-30T12:44:23.083Z</time></trkpt><trkpt lat="45.5952983" lon="13.8540817"><ele>185.0</ele><time>2026-04-30T12:44:24.091Z</time></trkpt><trkpt lat="45.5952033" lon="13.8539583"><ele>196.0</ele><time>2026-04-30T12:44:25.098Z</time></trkpt><trkpt lat="45.595005" lon="13.8536883"><ele>207.0</ele><time>2026-04-30T12:44:27.111Z</time></trkpt><trkpt lat="45.5948967" lon="13.85356"><ele>208.75</ele><time>2026-04-30T12:44:28.118Z</time></trkpt><trkpt lat="45.594785" lon="13.8534317"><ele>210.5</ele><time>2026-04-30T12:44:29.056Z</time></trkpt><trkpt lat="45.594665" lon="13.8533117"><ele>212.25</ele><time>2026-04-30T12:44:30.131Z</time></trkpt><trkpt lat="45.5945417" lon="13.8532033"><ele>214.0</ele><time>2026-04-30T12:44:31.07Z</time></trkpt><trkpt lat="45.5944167" lon="13.8530967"><ele>214.0</ele><time>2026-04-30T12:44:32.143Z</time></trkpt><trkpt lat="45.5942983" lon="13.8529917"><ele>214.0</ele><time>2026-04-30T12:44:33.084Z</time></trkpt><trkpt lat="45.59419" lon="13.8528883"><ele>214.0</ele><time>2026-04-30T12:44:34.089Z</time></trkpt><trkpt lat="45.59409" lon="13.8528017"><ele>214.0</ele><time>2026-04-30T12:44:35.097Z</time></trkpt><trkpt lat="45.59399" lon="13.85273"><ele>214.0</ele><time>2026-04-30T12:44:36.103Z</time></trkpt><trkpt lat="45.593885" lon="13.8526683"><ele>214.0</ele><time>2026-04-30T12:44:37.109Z</time></trkpt><trkpt lat="45.5937683" lon="13.8526333"><ele>214.0</ele><time>2026-04-30T12:44:38.116Z</time></trkpt><trkpt lat="45.5936417" lon="13.85261"><ele>214.0</ele><time>2026-04-30T12:44:39.055Z</time></trkpt><trkpt lat="45.593515" lon="13.852575"><ele>213.0</ele><time>2026-04-30T12:44:40.13Z</time></trkpt><trkpt lat="45.5933933" lon="13.8525"><ele>212.0</ele><time>2026-04-30T12:44:41.07Z</time></trkpt><trkpt lat="45.59328" lon="13.8524033"><ele>211.0</ele><time>2026-04-30T12:44:42.142Z</time></trkpt><trkpt lat="45.59317" lon="13.8522983"><ele>210.0</ele><time>2026-04-30T12:44:43.083Z</time></trkpt><trkpt lat="45.593055" lon="13.8522083"><ele>210.0</ele><time>2026-04-30T12:44:44.09Z</time></trkpt><trkpt lat="45.5929267" lon="13.8521333"><ele>210.0</ele><time>2026-04-30T12:44:45.095Z</time></trkpt><trkpt lat="45.5927917" lon="13.8520683"><ele>210.0</ele><time>2026-04-30T12:44:46.102Z</time></trkpt><trkpt lat="45.5926617" lon="13.8519833"><ele>210.0</ele><time>2026-04-30T12:44:47.108Z</time></trkpt><trkpt lat="45.5925483" lon="13.8518683"><ele>212.8</ele><time>2026-04-30T12:44:48.116Z</time></trkpt><trkpt lat="45.5924433" lon="13.8517517"><ele>215.6</ele><time>2026-04-30T12:44:49.055Z</time></trkpt><trkpt lat="45.59235" lon="13.8516567"><ele>218.39999999999998</ele><time>2026-04-30T12:44:50.128Z</time></trkpt><trkpt lat="45.5922633" lon="13.8515967"><ele>221.2</ele><time>2026-04-30T12:44:51.069Z</time></trkpt><trkpt lat="45.5921633" lon="13.8515917"><ele>224.0</ele><time>2026-04-30T12:44:52.142Z</time></trkpt><trkpt lat="45.5920583" lon="13.851635"><ele>226.6</ele><time>2026-04-30T12:44:53.082Z</time></trkpt><trkpt lat="45.5919483" lon="13.85168"><ele>229.2</ele><time>2026-04-30T12:44:54.088Z</time></trkpt><trkpt lat="45.5918433" lon="13.851705"><ele>231.79999999999998</ele><time>2026-04-30T12:44:55.094Z</time></trkpt><trkpt lat="45.591735" lon="13.8516917"><ele>234.39999999999998</ele><time>2026-04-30T12:44:56.101Z</time></trkpt><trkpt lat="45.5916267" lon="13.8516383"><ele>237.0</ele><time>2026-04-30T12:44:57.109Z</time></trkpt><trkpt lat="45.591525" lon="13.851565"><ele>237.0</ele><time>2026-04-30T12:44:58.114Z</time></trkpt><trkpt lat="45.5914383" lon="13.8514517"><ele>237.0</ele><time>2026-04-30T12:44:59.055Z</time></trkpt><trkpt lat="45.59137" lon="13.8513167"><ele>237.0</ele><time>2026-04-30T12:45:00.129Z</time></trkpt><trkpt lat="45.59132" lon="13.8511633"><ele>237.0</ele><time>2026-04-30T12:45:01.068Z</time></trkpt><trkpt lat="45.59126" lon="13.851005"><ele>238.5</ele><time>2026-04-30T12:45:02.141Z</time></trkpt><trkpt lat="45.5911867" lon="13.8508483"><ele>240.0</ele><time>2026-04-30T12:45:03.081Z</time></trkpt><trkpt lat="45.591105" lon="13.8506983"><ele>241.5</ele><time>2026-04-30T12:45:04.087Z</time></trkpt><trkpt lat="45.5910117" lon="13.8505567"><ele>243.0</ele><time>2026-04-30T12:45:05.095Z</time></trkpt><trkpt lat="45.59091" lon="13.8504083"><ele>243.0</ele><time>2026-04-30T12:45:06.101Z</time></trkpt><trkpt lat="45.5908133" lon="13.850265"><ele>243.0</ele><time>2026-04-30T12:45:07.107Z</time></trkpt><trkpt lat="45.5907267" lon="13.85011"><ele>243.0</ele><time>2026-04-30T12:45:08.115Z</time></trkpt><trkpt lat="45.5906483" lon="13.849935"><ele>243.0</ele><time>2026-04-30T12:45:09.053Z</time></trkpt><trkpt lat="45.5905667" lon="13.8497583"><ele>240.66666666666669</ele><time>2026-04-30T12:45:10.127Z</time></trkpt><trkpt lat="45.5904833" lon="13.84958"><ele>238.33333333333334</ele><time>2026-04-30T12:45:11.066Z</time></trkpt><trkpt lat="45.5903983" lon="13.8494033"><ele>236.0</ele><time>2026-04-30T12:45:12.141Z</time></trkpt><trkpt lat="45.5903183" lon="13.8492217"><ele>241.25</ele><time>2026-04-30T12:45:13.081Z</time></trkpt><trkpt lat="45.5902433" lon="13.8490433"><ele>246.5</ele><time>2026-04-30T12:45:14.087Z</time></trkpt><trkpt lat="45.5901783" lon="13.84888"><ele>251.75</ele><time>2026-04-30T12:45:15.093Z</time></trkpt><trkpt lat="45.5901233" lon="13.8487417"><ele>257.0</ele><time>2026-04-30T12:45:16.099Z</time></trkpt><trkpt lat="45.5900583" lon="13.8486333"><ele>257.0</ele><time>2026-04-30T12:45:17.107Z</time></trkpt><trkpt lat="45.590005" lon="13.8485417"><ele>257.0</ele><time>2026-04-30T12:45:18.114Z</time></trkpt><trkpt lat="45.5899383" lon="13.8484783"><ele>257.0</ele><time>2026-04-30T12:45:19.052Z</time></trkpt><trkpt lat="45.5898517" lon="13.84846"><ele>257.0</ele><time>2026-04-30T12:45:20.127Z</time></trkpt><trkpt lat="45.5897567" lon="13.8484717"><ele>257.0</ele><time>2026-04-30T12:45:21.067Z</time></trkpt><trkpt lat="45.58968" lon="13.84854"><ele>257.0</ele><time>2026-04-30T12:45:22.14Z</time></trkpt><trkpt lat="45.5896117" lon="13.8486333"><ele>257.0</ele><time>2026-04-30T12:45:23.08Z</time></trkpt><trkpt lat="45.589585" lon="13.848765"><ele>257.0</ele><time>2026-04-30T12:45:24.085Z</time></trkpt><trkpt lat="45.5895783" lon="13.8488933"><ele>257.0</ele><time>2026-04-30T12:45:25.093Z</time></trkpt><trkpt lat="45.589605" lon="13.8490233"><ele>257.0</ele><time>2026-04-30T12:45:26.1Z</time></trkpt><trkpt lat="45.5896617" lon="13.8491417"><ele>257.0</ele><time>2026-04-30T12:45:27.105Z</time></trkpt><trkpt lat="45.5897317" lon="13.8492483"><ele>259.2</ele><time>2026-04-30T12:45:28.112Z</time></trkpt><trkpt lat="45.5898067" lon="13.8493583"><ele>261.4</ele><time>2026-04-30T12:45:29.051Z</time></trkpt><trkpt lat="45.58988" lon="13.849475"><ele>263.6</ele><time>2026-04-30T12:45:30.126Z</time></trkpt><trkpt lat="45.5899333" lon="13.84961"><ele>265.8</ele><time>2026-04-30T12:45:31.065Z</time></trkpt><trkpt lat="45.58997" lon="13.8497633"><ele>268.0</ele><time>2026-04-30T12:45:32.072Z</time></trkpt><trkpt lat="45.5899867" lon="13.8499217"><ele>268.0</ele><time>2026-04-30T12:45:33.078Z</time></trkpt><trkpt lat="45.5899917" lon="13.850085"><ele>268.0</ele><time>2026-04-30T12:45:34.085Z</time></trkpt><trkpt lat="45.5899917" lon="13.8502467"><ele>268.0</ele><time>2026-04-30T12:45:35.092Z</time></trkpt><trkpt lat="45.5899883" lon="13.8504067"><ele>268.0</ele><time>2026-04-30T12:45:36.098Z</time></trkpt><trkpt lat="45.589985" lon="13.8505533"><ele>268.0</ele><time>2026-04-30T12:45:37.038Z</time></trkpt><trkpt lat="45.589985" lon="13.850685"><ele>267.8333333333333</ele><time>2026-04-30T12:45:38.112Z</time></trkpt><trkpt lat="45.5899883" lon="13.8508067"><ele>267.66666666666663</ele><time>2026-04-30T12:45:39.051Z</time></trkpt><trkpt lat="45.5899933" lon="13.8509133"><ele>267.5</ele><time>2026-04-30T12:45:40.124Z</time></trkpt><trkpt lat="45.5900117" lon="13.8510783"><ele>267.3333333333333</ele><time>2026-04-30T12:45:42.072Z</time></trkpt><trkpt lat="45.5900333" lon="13.8511683"><ele>267.1666666666667</ele><time>2026-04-30T12:45:43.077Z</time></trkpt><trkpt lat="45.5900617" lon="13.851275"><ele>267.0</ele><time>2026-04-30T12:45:44.085Z</time></trkpt><trkpt lat="45.5900917" lon="13.8513917"><ele>270.0</ele><time>2026-04-30T12:45:45.091Z</time></trkpt><trkpt lat="45.5901267" lon="13.8515217"><ele>273.0</ele><time>2026-04-30T12:45:46.097Z</time></trkpt><trkpt lat="45.590165" lon="13.8516617"><ele>276.0</ele><time>2026-04-30T12:45:47.037Z</time></trkpt><trkpt lat="45.5902133" lon="13.8518033"><ele>279.0</ele><time>2026-04-30T12:45:48.111Z</time></trkpt><trkpt lat="45.5902733" lon="13.8519383"><ele>282.0</ele><time>2026-04-30T12:45:49.051Z</time></trkpt><trkpt lat="45.5903467" lon="13.8520583"><ele>282.0</ele><time>2026-04-30T12:45:50.124Z</time></trkpt><trkpt lat="45.5904317" lon="13.8521667"><ele>282.0</ele><time>2026-04-30T12:45:51.063Z</time></trkpt><trkpt lat="45.5905267" lon="13.8522633"><ele>282.0</ele><time>2026-04-30T12:45:52.071Z</time></trkpt><trkpt lat="45.5906183" lon="13.8523583"><ele>282.0</ele><time>2026-04-30T12:45:53.076Z</time></trkpt><trkpt lat="45.590705" lon="13.85246"><ele>282.0</ele><time>2026-04-30T12:45:54.083Z</time></trkpt><trkpt lat="45.5907783" lon="13.8525683"><ele>282.0</ele><time>2026-04-30T12:45:55.157Z</time></trkpt><trkpt lat="45.5908417" lon="13.8526983"><ele>282.0</ele><time>2026-04-30T12:45:56.097Z</time></trkpt><trkpt lat="45.5908933" lon="13.852845"><ele>282.0</ele><time>2026-04-30T12:45:57.036Z</time></trkpt><trkpt lat="45.5909417" lon="13.853"><ele>285.5</ele><time>2026-04-30T12:45:58.111Z</time></trkpt><trkpt lat="45.5909833" lon="13.8531583"><ele>289.0</ele><time>2026-04-30T12:45:59.049Z</time></trkpt><trkpt lat="45.5910267" lon="13.8533117"><ele>292.5</ele><time>2026-04-30T12:46:00.123Z</time></trkpt><trkpt lat="45.5910817" lon="13.85346"><ele>296.0</ele><time>2026-04-30T12:46:01.062Z</time></trkpt><trkpt lat="45.5911467" lon="13.853595"><ele>294.25</ele><time>2026-04-30T12:46:02.069Z</time></trkpt><trkpt lat="45.591225" lon="13.85372"><ele>292.5</ele><time>2026-04-30T12:46:03.076Z</time></trkpt><trkpt lat="45.5913117" lon="13.8538367"><ele>290.75</ele><time>2026-04-30T12:46:04.082Z</time></trkpt><trkpt lat="45.5914017" lon="13.8539533"><ele>289.0</ele><time>2026-04-30T12:46:05.156Z</time></trkpt><trkpt lat="45.5914917" lon="13.854075"><ele>289.0</ele><time>2026-04-30T12:46:06.096Z</time></trkpt><trkpt lat="45.5915817" lon="13.8542017"><ele>289.0</ele><time>2026-04-30T12:46:07.036Z</time></trkpt><trkpt lat="45.591665" lon="13.8543233"><ele>289.0</ele><time>2026-04-30T12:46:08.11Z</time></trkpt><trkpt lat="45.591735" lon="13.8544567"><ele>289.0</ele><time>2026-04-30T12:46:09.048Z</time></trkpt><trkpt lat="45.5917917" lon="13.8546"><ele>290.5</ele><time>2026-04-30T12:46:10.122Z</time></trkpt><trkpt lat="45.5918267" lon="13.8547583"><ele>292.0</ele><time>2026-04-30T12:46:11.063Z</time></trkpt><trkpt lat="45.5918517" lon="13.85493"><ele>293.5</ele><time>2026-04-30T12:46:12.069Z</time></trkpt><trkpt lat="45.5918667" lon="13.8551067"><ele>295.0</ele><time>2026-04-30T12:46:13.142Z</time></trkpt><trkpt lat="45.591865" lon="13.855285"><ele>295.8</ele><time>2026-04-30T12:46:14.082Z</time></trkpt><trkpt lat="45.591855" lon="13.8554583"><ele>296.6</ele><time>2026-04-30T12:46:15.156Z</time></trkpt><trkpt lat="45.59184" lon="13.85562"><ele>297.4</ele><time>2026-04-30T12:46:16.095Z</time></trkpt><trkpt lat="45.5918217" lon="13.85576"><ele>298.2</ele><time>2026-04-30T12:46:17.035Z</time></trkpt><trkpt lat="45.5918133" lon="13.8558883"><ele>299.0</ele><time>2026-04-30T12:46:18.109Z</time></trkpt><trkpt lat="45.5918" lon="13.8559983"><ele>299.0</ele><time>2026-04-30T12:46:19.049Z</time></trkpt><trkpt lat="45.59178" lon="13.856085"><ele>299.0</ele><time>2026-04-30T12:46:20.121Z</time></trkpt><trkpt lat="45.59171" lon="13.856165"><ele>299.0</ele><time>2026-04-30T12:46:22.068Z</time></trkpt><trkpt lat="45.591615" lon="13.85607"><ele>299.0</ele><time>2026-04-30T12:46:24.081Z</time></trkpt><trkpt lat="45.5916017" lon="13.855875"><ele>299.0</ele><time>2026-04-30T12:46:26.095Z</time></trkpt><trkpt lat="45.5916133" lon="13.8557367"><ele>299.0</ele><time>2026-04-30T12:46:27.034Z</time></trkpt><trkpt lat="45.5916117" lon="13.8555817"><ele>299.0</ele><time>2026-04-30T12:46:28.107Z</time></trkpt><trkpt lat="45.5915967" lon="13.855425"><ele>299.0</ele><time>2026-04-30T12:46:29.115Z</time></trkpt><trkpt lat="45.5915683" lon="13.855265"><ele>299.0</ele><time>2026-04-30T12:46:30.122Z</time></trkpt><trkpt lat="45.59153" lon="13.8551067"><ele>298.0</ele><time>2026-04-30T12:46:31.128Z</time></trkpt><trkpt lat="45.5914767" lon="13.854965"><ele>297.0</ele><time>2026-04-30T12:46:32.068Z</time></trkpt><trkpt lat="45.5913983" lon="13.85484"><ele>296.0</ele><time>2026-04-30T12:46:33.141Z</time></trkpt><trkpt lat="45.5912917" lon="13.85473"><ele>295.0</ele><time>2026-04-30T12:46:34.08Z</time></trkpt><trkpt lat="45.5910667" lon="13.854515"><ele>297.5</ele><time>2026-04-30T12:46:36.094Z</time></trkpt><trkpt lat="45.5909517" lon="13.8544067"><ele>300.0</ele><time>2026-04-30T12:46:37.101Z</time></trkpt><trkpt lat="45.5908383" lon="13.8542983"><ele>302.5</ele><time>2026-04-30T12:46:38.107Z</time></trkpt><trkpt lat="45.5907267" lon="13.8541933"><ele>305.0</ele><time>2026-04-30T12:46:39.113Z</time></trkpt><trkpt lat="45.5906167" lon="13.8540867"><ele>305.0</ele><time>2026-04-30T12:46:40.121Z</time></trkpt><trkpt lat="45.5905067" lon="13.853975"><ele>305.0</ele><time>2026-04-30T12:46:41.127Z</time></trkpt><trkpt lat="45.590405" lon="13.853855"><ele>305.0</ele><time>2026-04-30T12:46:42.066Z</time></trkpt><trkpt lat="45.590305" lon="13.8537333"><ele>305.0</ele><time>2026-04-30T12:46:43.141Z</time></trkpt><trkpt lat="45.59021" lon="13.853615"><ele>308.5</ele><time>2026-04-30T12:46:44.079Z</time></trkpt><trkpt lat="45.5901183" lon="13.8535"><ele>312.0</ele><time>2026-04-30T12:46:45.153Z</time></trkpt><trkpt lat="45.5900333" lon="13.8534017"><ele>315.5</ele><time>2026-04-30T12:46:46.092Z</time></trkpt><trkpt lat="45.5899533" lon="13.8533033"><ele>319.0</ele><time>2026-04-30T12:46:47.1Z</time></trkpt><trkpt lat="45.589865" lon="13.8531983"><ele>319.0</ele><time>2026-04-30T12:46:48.107Z</time></trkpt><trkpt lat="45.58977" lon="13.8530867"><ele>319.0</ele><time>2026-04-30T12:46:49.112Z</time></trkpt><trkpt lat="45.5896717" lon="13.852965"><ele>319.0</ele><time>2026-04-30T12:46:50.119Z</time></trkpt><trkpt lat="45.5895683" lon="13.8528417"><ele>319.0</ele><time>2026-04-30T12:46:51.126Z</time></trkpt><trkpt lat="45.5894617" lon="13.8527167"><ele>320.0</ele><time>2026-04-30T12:46:52.065Z</time></trkpt><trkpt lat="45.5893433" lon="13.8526067"><ele>321.0</ele><time>2026-04-30T12:46:53.14Z</time></trkpt><trkpt lat="45.5892167" lon="13.8525117"><ele>322.0</ele><time>2026-04-30T12:46:54.078Z</time></trkpt><trkpt lat="45.58908" lon="13.8524383"><ele>323.0</ele><time>2026-04-30T12:46:55.153Z</time></trkpt><trkpt lat="45.588935" lon="13.8523833"><ele>323.0</ele><time>2026-04-30T12:46:56.092Z</time></trkpt><trkpt lat="45.58879" lon="13.85235"><ele>323.0</ele><time>2026-04-30T12:46:57.099Z</time></trkpt><trkpt lat="45.58864" lon="13.8523517"><ele>323.0</ele><time>2026-04-30T12:46:58.105Z</time></trkpt><trkpt lat="45.5884883" lon="13.8523783"><ele>325.75</ele><time>2026-04-30T12:46:59.113Z</time></trkpt><trkpt lat="45.5883367" lon="13.8524283"><ele>328.5</ele><time>2026-04-30T12:47:00.051Z</time></trkpt><trkpt lat="45.5882" lon="13.8524983"><ele>331.25</ele><time>2026-04-30T12:47:01.126Z</time></trkpt><trkpt lat="45.5880683" lon="13.852585"><ele>334.0</ele><time>2026-04-30T12:47:02.065Z</time></trkpt><trkpt lat="45.58795" lon="13.8526883"><ele>332.5</ele><time>2026-04-30T12:47:03.139Z</time></trkpt><trkpt lat="45.5878483" lon="13.8528083"><ele>331.0</ele><time>2026-04-30T12:47:04.078Z</time></trkpt><trkpt lat="45.587765" lon="13.8529283"><ele>329.5</ele><time>2026-04-30T12:47:05.084Z</time></trkpt><trkpt lat="45.587705" lon="13.8530583"><ele>328.0</ele><time>2026-04-30T12:47:06.091Z</time></trkpt><trkpt lat="45.5876633" lon="13.8531983"><ele>328.0</ele><time>2026-04-30T12:47:07.099Z</time></trkpt><trkpt lat="45.58764" lon="13.8533517"><ele>328.0</ele><time>2026-04-30T12:47:08.104Z</time></trkpt><trkpt lat="45.5876317" lon="13.8535067"><ele>328.0</ele><time>2026-04-30T12:47:09.111Z</time></trkpt><trkpt lat="45.587645" lon="13.853665"><ele>328.0</ele><time>2026-04-30T12:47:10.051Z</time></trkpt><trkpt lat="45.587675" lon="13.8538317"><ele>328.0</ele><time>2026-04-30T12:47:11.124Z</time></trkpt><trkpt lat="45.5877283" lon="13.8540033"><ele>328.0</ele><time>2026-04-30T12:47:12.064Z</time></trkpt><trkpt lat="45.58778" lon="13.8541733"><ele>328.0</ele><time>2026-04-30T12:47:13.137Z</time></trkpt><trkpt lat="45.5878317" lon="13.8543433"><ele>328.0</ele><time>2026-04-30T12:47:14.077Z</time></trkpt><trkpt lat="45.5878867" lon="13.854515"><ele>332.75</ele><time>2026-04-30T12:47:15.083Z</time></trkpt><trkpt lat="45.5879433" lon="13.8546833"><ele>337.5</ele><time>2026-04-30T12:47:16.09Z</time></trkpt><trkpt lat="45.5879967" lon="13.8548533"><ele>342.25</ele><time>2026-04-30T12:47:17.098Z</time></trkpt><trkpt lat="45.588045" lon="13.8550233"><ele>347.0</ele><time>2026-04-30T12:47:18.104Z</time></trkpt><trkpt lat="45.5880917" lon="13.8551933"><ele>347.0</ele><time>2026-04-30T12:47:19.11Z</time></trkpt><trkpt lat="45.588135" lon="13.8553683"><ele>347.0</ele><time>2026-04-30T12:47:20.05Z</time></trkpt><trkpt lat="45.5881767" lon="13.855545"><ele>347.0</ele><time>2026-04-30T12:47:21.123Z</time></trkpt><trkpt lat="45.588215" lon="13.8557217"><ele>347.0</ele><time>2026-04-30T12:47:22.063Z</time></trkpt><trkpt lat="45.5882583" lon="13.855895"><ele>347.75</ele><time>2026-04-30T12:47:23.138Z</time></trkpt><trkpt lat="45.5883" lon="13.856065"><ele>348.5</ele><time>2026-04-30T12:47:24.076Z</time></trkpt><trkpt lat="45.5883417" lon="13.8562367"><ele>349.25</ele><time>2026-04-30T12:47:25.083Z</time></trkpt><trkpt lat="45.588385" lon="13.85641"><ele>350.0</ele><time>2026-04-30T12:47:26.089Z</time></trkpt><trkpt lat="45.5884217" lon="13.8565933"><ele>350.0</ele><time>2026-04-30T12:47:27.097Z</time></trkpt><trkpt lat="45.5884567" lon="13.85678"><ele>350.0</ele><time>2026-04-30T12:47:28.103Z</time></trkpt><trkpt lat="45.5884883" lon="13.8569717"><ele>350.0</ele><time>2026-04-30T12:47:29.11Z</time></trkpt><trkpt lat="45.5885133" lon="13.8571667"><ele>350.0</ele><time>2026-04-30T12:47:30.049Z</time></trkpt><trkpt lat="45.58854" lon="13.8573633"><ele>349.5</ele><time>2026-04-30T12:47:31.122Z</time></trkpt><trkpt lat="45.5885617" lon="13.8575617"><ele>349.0</ele><time>2026-04-30T12:47:32.062Z</time></trkpt><trkpt lat="45.58858" lon="13.8577617"><ele>348.5</ele><time>2026-04-30T12:47:33.136Z</time></trkpt><trkpt lat="45.5885983" lon="13.8579617"><ele>348.0</ele><time>2026-04-30T12:47:34.076Z</time></trkpt><trkpt lat="45.588605" lon="13.8581583"><ele>349.25</ele><time>2026-04-30T12:47:35.083Z</time></trkpt><trkpt lat="45.5886017" lon="13.85835"><ele>350.5</ele><time>2026-04-30T12:47:36.09Z</time></trkpt><trkpt lat="45.5885917" lon="13.8585383"><ele>351.75</ele><time>2026-04-30T12:47:37.095Z</time></trkpt><trkpt lat="45.5885683" lon="13.8587233"><ele>353.0</ele><time>2026-04-30T12:47:38.103Z</time></trkpt><trkpt lat="45.5885417" lon="13.858905"><ele>355.75</ele><time>2026-04-30T12:47:39.109Z</time></trkpt><trkpt lat="45.5885017" lon="13.8590883"><ele>358.5</ele><time>2026-04-30T12:47:40.048Z</time></trkpt><trkpt lat="45.5884483" lon="13.85927"><ele>361.25</ele><time>2026-04-30T12:47:41.123Z</time></trkpt><trkpt lat="45.5883867" lon="13.8594567"><ele>364.0</ele><time>2026-04-30T12:47:42.062Z</time></trkpt><trkpt lat="45.5883167" lon="13.8596467"><ele>369.3333333333333</ele><time>2026-04-30T12:47:43.135Z</time></trkpt><trkpt lat="45.5882417" lon="13.8598383"><ele>374.6666666666667</ele><time>2026-04-30T12:47:44.075Z</time></trkpt><trkpt lat="45.5881617" lon="13.8600333"><ele>380.0</ele><time>2026-04-30T12:47:45.082Z</time></trkpt><trkpt lat="45.5880767" lon="13.8602283"><ele>374.0</ele><time>2026-04-30T12:47:46.088Z</time></trkpt><trkpt lat="45.58798" lon="13.8604217"><ele>368.0</ele><time>2026-04-30T12:47:47.094Z</time></trkpt><trkpt lat="45.58788" lon="13.8606017"><ele>362.0</ele><time>2026-04-30T12:47:48.102Z</time></trkpt><trkpt lat="45.5877767" lon="13.86077"><ele>362.0</ele><time>2026-04-30T12:47:49.109Z</time></trkpt><trkpt lat="45.587675" lon="13.860935"><ele>362.0</ele><time>2026-04-30T12:47:50.048Z</time></trkpt><trkpt lat="45.5875683" lon="13.861105"><ele>362.0</ele><time>2026-04-30T12:47:51.122Z</time></trkpt><trkpt lat="45.58746" lon="13.8612817"><ele>367.0</ele><time>2026-04-30T12:47:52.061Z</time></trkpt><trkpt lat="45.58735" lon="13.86148"><ele>372.0</ele><time>2026-04-30T12:47:53.135Z</time></trkpt><trkpt lat="45.5872467" lon="13.86169"><ele>377.0</ele><time>2026-04-30T12:47:54.075Z</time></trkpt><trkpt lat="45.5871483" lon="13.86191"><ele>379.6666666666667</ele><time>2026-04-30T12:47:55.08Z</time></trkpt><trkpt lat="45.5870533" lon="13.8621233"><ele>382.33333333333337</ele><time>2026-04-30T12:47:56.088Z</time></trkpt><trkpt lat="45.5869583" lon="13.862335"><ele>385.0</ele><time>2026-04-30T12:47:57.095Z</time></trkpt><trkpt lat="45.5868633" lon="13.8625433"><ele>378.33333333333337</ele><time>2026-04-30T12:47:58.1Z</time></trkpt><trkpt lat="45.586765" lon="13.8627533"><ele>371.6666666666667</ele><time>2026-04-30T12:47:59.108Z</time></trkpt><trkpt lat="45.58667" lon="13.8629633"><ele>365.0</ele><time>2026-04-30T12:48:00.046Z</time></trkpt><trkpt lat="45.586575" lon="13.8631717"><ele>365.0</ele><time>2026-04-30T12:48:01.121Z</time></trkpt><trkpt lat="45.586485" lon="13.86338"><ele>365.0</ele><time>2026-04-30T12:48:02.06Z</time></trkpt><trkpt lat="45.5863967" lon="13.8635883"><ele>365.0</ele><time>2026-04-30T12:48:03.133Z</time></trkpt><trkpt lat="45.5863117" lon="13.8638033"><ele>366.33333333333337</ele><time>2026-04-30T12:48:04.073Z</time></trkpt><trkpt lat="45.58623" lon="13.86402"><ele>367.6666666666667</ele><time>2026-04-30T12:48:05.08Z</time></trkpt><trkpt lat="45.5861567" lon="13.8642417"><ele>369.0</ele><time>2026-04-30T12:48:06.087Z</time></trkpt><trkpt lat="45.5860867" lon="13.86447"><ele>365.6666666666667</ele><time>2026-04-30T12:48:07.093Z</time></trkpt><trkpt lat="45.5860183" lon="13.8646983"><ele>362.33333333333337</ele><time>2026-04-30T12:48:08.1Z</time></trkpt><trkpt lat="45.5859517" lon="13.8649167"><ele>359.0</ele><time>2026-04-30T12:48:09.106Z</time></trkpt><trkpt lat="45.5858817" lon="13.8651267"><ele>359.0</ele><time>2026-04-30T12:48:10.046Z</time></trkpt><trkpt lat="45.5858067" lon="13.8653283"><ele>359.0</ele><time>2026-04-30T12:48:11.119Z</time></trkpt><trkpt lat="45.5857267" lon="13.8655233"><ele>359.0</ele><time>2026-04-30T12:48:12.059Z</time></trkpt><trkpt lat="45.5856367" lon="13.865715"><ele>359.0</ele><time>2026-04-30T12:48:13.133Z</time></trkpt><trkpt lat="45.5855433" lon="13.86591"><ele>359.0</ele><time>2026-04-30T12:48:14.073Z</time></trkpt><trkpt lat="45.5854533" lon="13.8661117"><ele>359.0</ele><time>2026-04-30T12:48:15.08Z</time></trkpt><trkpt lat="45.58537" lon="13.8663233"><ele>353.6666666666667</ele><time>2026-04-30T12:48:16.085Z</time></trkpt><trkpt lat="45.5852933" lon="13.8665433"><ele>348.3333333333333</ele><time>2026-04-30T12:48:17.093Z</time></trkpt><trkpt lat="45.5852233" lon="13.8667683"><ele>343.0</ele><time>2026-04-30T12:48:18.166Z</time></trkpt><trkpt lat="45.5851567" lon="13.8669983"><ele>343.0</ele><time>2026-04-30T12:48:19.105Z</time></trkpt><trkpt lat="45.5850967" lon="13.8672317"><ele>343.0</ele><time>2026-04-30T12:48:20.045Z</time></trkpt><trkpt lat="45.5850367" lon="13.8674633"><ele>343.0</ele><time>2026-04-30T12:48:21.119Z</time></trkpt><trkpt lat="45.584975" lon="13.8676883"><ele>344.66666666666663</ele><time>2026-04-30T12:48:22.058Z</time></trkpt><trkpt lat="45.5849083" lon="13.8678983"><ele>346.3333333333333</ele><time>2026-04-30T12:48:23.133Z</time></trkpt><trkpt lat="45.5848333" lon="13.868095"><ele>348.0</ele><time>2026-04-30T12:48:24.071Z</time></trkpt><trkpt lat="45.5847433" lon="13.8682717"><ele>348.0</ele><time>2026-04-30T12:48:25.078Z</time></trkpt><trkpt lat="45.5846317" lon="13.8684267"><ele>348.0</ele><time>2026-04-30T12:48:26.152Z</time></trkpt><trkpt lat="45.584505" lon="13.8685667"><ele>348.0</ele><time>2026-04-30T12:48:27.091Z</time></trkpt><trkpt lat="45.5843683" lon="13.868705"><ele>345.6666666666667</ele><time>2026-04-30T12:48:28.031Z</time></trkpt><trkpt lat="45.5842267" lon="13.8688467"><ele>343.33333333333337</ele><time>2026-04-30T12:48:29.106Z</time></trkpt><trkpt lat="45.584085" lon="13.86898"><ele>341.0</ele><time>2026-04-30T12:48:30.045Z</time></trkpt><trkpt lat="45.583945" lon="13.8690983"><ele>341.0</ele><time>2026-04-30T12:48:31.118Z</time></trkpt><trkpt lat="45.583805" lon="13.8692"><ele>341.0</ele><time>2026-04-30T12:48:32.057Z</time></trkpt><trkpt lat="45.583655" lon="13.8692717"><ele>341.0</ele><time>2026-04-30T12:48:33.064Z</time></trkpt><trkpt lat="45.5835" lon="13.869325"><ele>340.6666666666667</ele><time>2026-04-30T12:48:34.071Z</time></trkpt><trkpt lat="45.5833367" lon="13.86936"><ele>340.3333333333333</ele><time>2026-04-30T12:48:35.077Z</time></trkpt><trkpt lat="45.5831717" lon="13.8693883"><ele>340.0</ele><time>2026-04-30T12:48:36.152Z</time></trkpt><trkpt lat="45.583005" lon="13.8694217"><ele>338.3333333333333</ele><time>2026-04-30T12:48:37.091Z</time></trkpt><trkpt lat="45.5828367" lon="13.8694567"><ele>336.6666666666667</ele><time>2026-04-30T12:48:38.03Z</time></trkpt><trkpt lat="45.5826683" lon="13.869495"><ele>335.0</ele><time>2026-04-30T12:48:39.104Z</time></trkpt><trkpt lat="45.5825067" lon="13.869535"><ele>335.0</ele><time>2026-04-30T12:48:40.043Z</time></trkpt><trkpt lat="45.582355" lon="13.8695833"><ele>335.0</ele><time>2026-04-30T12:48:41.117Z</time></trkpt><trkpt lat="45.5822167" lon="13.869655"><ele>335.0</ele><time>2026-04-30T12:48:42.058Z</time></trkpt><trkpt lat="45.5819933" lon="13.86987"><ele>332.25</ele><time>2026-04-30T12:48:44.137Z</time></trkpt><trkpt lat="45.58191" lon="13.8700217"><ele>329.5</ele><time>2026-04-30T12:48:45.077Z</time></trkpt><trkpt lat="45.5818383" lon="13.870195"><ele>326.75</ele><time>2026-04-30T12:48:46.15Z</time></trkpt><trkpt lat="45.5817783" lon="13.8703783"><ele>324.0</ele><time>2026-04-30T12:48:47.09Z</time></trkpt><trkpt lat="45.581725" lon="13.870575"><ele>324.0</ele><time>2026-04-30T12:48:48.029Z</time></trkpt><trkpt lat="45.5816683" lon="13.8707783"><ele>324.0</ele><time>2026-04-30T12:48:49.104Z</time></trkpt><trkpt lat="45.5816067" lon="13.8709867"><ele>324.0</ele><time>2026-04-30T12:48:50.043Z</time></trkpt><trkpt lat="45.5815483" lon="13.8712017"><ele>324.0</ele><time>2026-04-30T12:48:51.116Z</time></trkpt><trkpt lat="45.5814883" lon="13.871415"><ele>324.0</ele><time>2026-04-30T12:48:52.124Z</time></trkpt><trkpt lat="45.58143" lon="13.8716217"><ele>324.0</ele><time>2026-04-30T12:48:53.062Z</time></trkpt><trkpt lat="45.58137" lon="13.8718183"><ele>324.0</ele><time>2026-04-30T12:48:54.137Z</time></trkpt><trkpt lat="45.5813067" lon="13.8719983"><ele>324.0</ele><time>2026-04-30T12:48:55.077Z</time></trkpt><trkpt lat="45.5812367" lon="13.8721633"><ele>324.0</ele><time>2026-04-30T12:48:56.149Z</time></trkpt><trkpt lat="45.581155" lon="13.87232"><ele>324.0</ele><time>2026-04-30T12:48:57.09Z</time></trkpt><trkpt lat="45.58106" lon="13.8724683"><ele>326.25</ele><time>2026-04-30T12:48:58.028Z</time></trkpt><trkpt lat="45.5809583" lon="13.8726067"><ele>328.5</ele><time>2026-04-30T12:48:59.102Z</time></trkpt><trkpt lat="45.580855" lon="13.8727333"><ele>330.75</ele><time>2026-04-30T12:49:00.109Z</time></trkpt><trkpt lat="45.5807567" lon="13.87284"><ele>333.0</ele><time>2026-04-30T12:49:01.116Z</time></trkpt><trkpt lat="45.58065" lon="13.87293"><ele>333.0</ele><time>2026-04-30T12:49:02.123Z</time></trkpt><trkpt lat="45.58053" lon="13.87301"><ele>333.0</ele><time>2026-04-30T12:49:03.063Z</time></trkpt><trkpt lat="45.5804" lon="13.8730783"><ele>333.0</ele><time>2026-04-30T12:49:04.135Z</time></trkpt><trkpt lat="45.58026" lon="13.8731333"><ele>333.0</ele><time>2026-04-30T12:49:05.075Z</time></trkpt><trkpt lat="45.5801133" lon="13.873175"><ele>330.6666666666667</ele><time>2026-04-30T12:49:06.149Z</time></trkpt><trkpt lat="45.5799633" lon="13.873215"><ele>328.33333333333337</ele><time>2026-04-30T12:49:07.088Z</time></trkpt><trkpt lat="45.5798067" lon="13.873255"><ele>326.0</ele><time>2026-04-30T12:49:08.096Z</time></trkpt><trkpt lat="45.5796467" lon="13.873295"><ele>324.33333333333337</ele><time>2026-04-30T12:49:09.101Z</time></trkpt><trkpt lat="45.57948" lon="13.8733367"><ele>322.6666666666667</ele><time>2026-04-30T12:49:10.109Z</time></trkpt><trkpt lat="45.5793117" lon="13.8733717"><ele>321.0</ele><time>2026-04-30T12:49:11.115Z</time></trkpt><trkpt lat="45.5791433" lon="13.8733983"><ele>321.0</ele><time>2026-04-30T12:49:12.122Z</time></trkpt><trkpt lat="45.5789717" lon="13.8734183"><ele>321.0</ele><time>2026-04-30T12:49:13.062Z</time></trkpt><trkpt lat="45.5788067" lon="13.8734283"><ele>321.0</ele><time>2026-04-30T12:49:14.135Z</time></trkpt><trkpt lat="45.57865" lon="13.8734267"><ele>322.75</ele><time>2026-04-30T12:49:15.074Z</time></trkpt><trkpt lat="45.5784983" lon="13.8734183"><ele>324.5</ele><time>2026-04-30T12:49:16.148Z</time></trkpt><trkpt lat="45.57835" lon="13.8734067"><ele>326.25</ele><time>2026-04-30T12:49:17.087Z</time></trkpt><trkpt lat="45.5782017" lon="13.8733867"><ele>328.0</ele><time>2026-04-30T12:49:18.095Z</time></trkpt><trkpt lat="45.5780567" lon="13.8733583"><ele>328.0</ele><time>2026-04-30T12:49:19.102Z</time></trkpt><trkpt lat="45.57791" lon="13.87332"><ele>328.0</ele><time>2026-04-30T12:49:20.107Z</time></trkpt><trkpt lat="45.5777633" lon="13.8732767"><ele>328.0</ele><time>2026-04-30T12:49:21.114Z</time></trkpt><trkpt lat="45.5776167" lon="13.8732233"><ele>328.3333333333333</ele><time>2026-04-30T12:49:22.122Z</time></trkpt><trkpt lat="45.57747" lon="13.8731583"><ele>328.6666666666667</ele><time>2026-04-30T12:49:23.061Z</time></trkpt><trkpt lat="45.5773233" lon="13.8730867"><ele>329.0</ele><time>2026-04-30T12:49:24.135Z</time></trkpt><trkpt lat="45.577175" lon="13.873005"><ele>329.0</ele><time>2026-04-30T12:49:25.074Z</time></trkpt><trkpt lat="45.57702" lon="13.87291"><ele>329.0</ele><time>2026-04-30T12:49:26.147Z</time></trkpt><trkpt lat="45.5768633" lon="13.8728017"><ele>329.0</ele><time>2026-04-30T12:49:27.088Z</time></trkpt><trkpt lat="45.576705" lon="13.872685"><ele>325.0</ele><time>2026-04-30T12:49:28.094Z</time></trkpt><trkpt lat="45.5765517" lon="13.872555"><ele>321.0</ele><time>2026-04-30T12:49:29.1Z</time></trkpt><trkpt lat="45.5764033" lon="13.8724167"><ele>317.0</ele><time>2026-04-30T12:49:30.108Z</time></trkpt><trkpt lat="45.576265" lon="13.87227"><ele>320.0</ele><time>2026-04-30T12:49:31.113Z</time></trkpt><trkpt lat="45.5761383" lon="13.87212"><ele>323.0</ele><time>2026-04-30T12:49:32.12Z</time></trkpt><trkpt lat="45.576015" lon="13.8719717"><ele>326.0</ele><time>2026-04-30T12:49:33.06Z</time></trkpt><trkpt lat="45.575905" lon="13.8718217"><ele>322.75</ele><time>2026-04-30T12:49:34.133Z</time></trkpt><trkpt lat="45.5758033" lon="13.87167"><ele>319.5</ele><time>2026-04-30T12:49:35.074Z</time></trkpt><trkpt lat="45.5757083" lon="13.8715167"><ele>316.25</ele><time>2026-04-30T12:49:36.146Z</time></trkpt><trkpt lat="45.57562" lon="13.8713617"><ele>313.0</ele><time>2026-04-30T12:49:37.086Z</time></trkpt><trkpt lat="45.5755333" lon="13.8712033"><ele>313.0</ele><time>2026-04-30T12:49:38.092Z</time></trkpt><trkpt lat="45.5754517" lon="13.8710367"><ele>313.0</ele><time>2026-04-30T12:49:39.1Z</time></trkpt><trkpt lat="45.5753717" lon="13.87087"><ele>313.0</ele><time>2026-04-30T12:49:40.107Z</time></trkpt><trkpt lat="45.5752883" lon="13.8707233"><ele>313.0</ele><time>2026-04-30T12:49:41.112Z</time></trkpt><trkpt lat="45.575205" lon="13.870595"><ele>311.75</ele><time>2026-04-30T12:49:42.12Z</time></trkpt><trkpt lat="45.575115" lon="13.8704833"><ele>310.5</ele><time>2026-04-30T12:49:43.06Z</time></trkpt><trkpt lat="45.57502" lon="13.870395"><ele>309.25</ele><time>2026-04-30T12:49:44.133Z</time></trkpt><trkpt lat="45.5749217" lon="13.8703283"><ele>308.0</ele><time>2026-04-30T12:49:45.073Z</time></trkpt><trkpt lat="45.5748183" lon="13.8702817"><ele>308.0</ele><time>2026-04-30T12:49:46.146Z</time></trkpt><trkpt lat="45.574705" lon="13.8702533"><ele>308.0</ele><time>2026-04-30T12:49:47.086Z</time></trkpt><trkpt lat="45.5745867" lon="13.8702417"><ele>308.0</ele><time>2026-04-30T12:49:48.093Z</time></trkpt><trkpt lat="45.57446" lon="13.8702533"><ele>308.0</ele><time>2026-04-30T12:49:49.099Z</time></trkpt><trkpt lat="45.5743283" lon="13.8702933"><ele>308.75</ele><time>2026-04-30T12:49:50.105Z</time></trkpt><trkpt lat="45.5742033" lon="13.8703633"><ele>309.5</ele><time>2026-04-30T12:49:51.112Z</time></trkpt><trkpt lat="45.5740817" lon="13.8704633"><ele>310.25</ele><time>2026-04-30T12:49:52.119Z</time></trkpt><trkpt lat="45.5739733" lon="13.8705867"><ele>311.0</ele><time>2026-04-30T12:49:53.058Z</time></trkpt><trkpt lat="45.573875" lon="13.8707317"><ele>311.0</ele><time>2026-04-30T12:49:54.132Z</time></trkpt><trkpt lat="45.573785" lon="13.8708767"><ele>311.0</ele><time>2026-04-30T12:49:55.072Z</time></trkpt><trkpt lat="45.5736983" lon="13.87101"><ele>311.0</ele><time>2026-04-30T12:49:56.078Z</time></trkpt><trkpt lat="45.5736167" lon="13.8711383"><ele>311.0</ele><time>2026-04-30T12:49:57.084Z</time></trkpt><trkpt lat="45.573535" lon="13.8712617"><ele>315.0</ele><time>2026-04-30T12:49:58.091Z</time></trkpt><trkpt lat="45.57345" lon="13.871385"><ele>319.0</ele><time>2026-04-30T12:49:59.098Z</time></trkpt><trkpt lat="45.573355" lon="13.871505"><ele>323.0</ele><time>2026-04-30T12:50:00.105Z</time></trkpt><trkpt lat="45.5732467" lon="13.8716167"><ele>327.0</ele><time>2026-04-30T12:50:01.045Z</time></trkpt><trkpt lat="45.57313" lon="13.8717183"><ele>330.25</ele><time>2026-04-30T12:50:02.118Z</time></trkpt><trkpt lat="45.573" lon="13.8718017"><ele>333.5</ele><time>2026-04-30T12:50:03.057Z</time></trkpt><trkpt lat="45.57286" lon="13.8718567"><ele>336.75</ele><time>2026-04-30T12:50:04.131Z</time></trkpt><trkpt lat="45.572715" lon="13.871885"><ele>340.0</ele><time>2026-04-30T12:50:05.07Z</time></trkpt><trkpt lat="45.5725617" lon="13.8718817"><ele>340.0</ele><time>2026-04-30T12:50:06.077Z</time></trkpt><trkpt lat="45.5724067" lon="13.8718633"><ele>340.0</ele><time>2026-04-30T12:50:07.083Z</time></trkpt><trkpt lat="45.5722483" lon="13.8718367"><ele>340.0</ele><time>2026-04-30T12:50:08.09Z</time></trkpt><trkpt lat="45.5720883" lon="13.8718117"><ele>338.3333333333333</ele><time>2026-04-30T12:50:09.097Z</time></trkpt><trkpt lat="45.5719283" lon="13.8717967"><ele>336.6666666666667</ele><time>2026-04-30T12:50:10.104Z</time></trkpt><trkpt lat="45.5717683" lon="13.8717983"><ele>335.0</ele><time>2026-04-30T12:50:11.043Z</time></trkpt><trkpt lat="45.5716067" lon="13.8718217"><ele>335.0</ele><time>2026-04-30T12:50:12.117Z</time></trkpt><trkpt lat="45.5714483" lon="13.87187"><ele>335.0</ele><time>2026-04-30T12:50:13.056Z</time></trkpt><trkpt lat="45.57129" lon="13.8719383"><ele>335.0</ele><time>2026-04-30T12:50:14.131Z</time></trkpt><trkpt lat="45.57114" lon="13.872005"><ele>336.0</ele><time>2026-04-30T12:50:15.069Z</time></trkpt><trkpt lat="45.5710067" lon="13.8720533"><ele>337.0</ele><time>2026-04-30T12:50:16.077Z</time></trkpt><trkpt lat="45.570885" lon="13.8720767"><ele>338.0</ele><time>2026-04-30T12:50:17.084Z</time></trkpt><trkpt lat="45.57078" lon="13.8720767"><ele>339.0</ele><time>2026-04-30T12:50:18.09Z</time></trkpt><trkpt lat="45.5706917" lon="13.8720667"><ele>339.0</ele><time>2026-04-30T12:50:19.097Z</time></trkpt><trkpt lat="45.5706133" lon="13.8720817"><ele>339.0</ele><time>2026-04-30T12:50:20.103Z</time></trkpt><trkpt lat="45.5705467" lon="13.8721367"><ele>339.0</ele><time>2026-04-30T12:50:21.043Z</time></trkpt><trkpt lat="45.57049" lon="13.8722167"><ele>339.0</ele><time>2026-04-30T12:50:22.117Z</time></trkpt><trkpt lat="45.57045" lon="13.8723283"><ele>339.0</ele><time>2026-04-30T12:50:23.055Z</time></trkpt><trkpt lat="45.5704167" lon="13.8724683"><ele>339.0</ele><time>2026-04-30T12:50:24.129Z</time></trkpt><trkpt lat="45.5703783" lon="13.8726183"><ele>341.2</ele><time>2026-04-30T12:50:25.069Z</time></trkpt><trkpt lat="45.5703317" lon="13.872775"><ele>343.4</ele><time>2026-04-30T12:50:26.076Z</time></trkpt><trkpt lat="45.57027" lon="13.8729133"><ele>345.6</ele><time>2026-04-30T12:50:27.082Z</time></trkpt><trkpt lat="45.5702" lon="13.8730183"><ele>347.8</ele><time>2026-04-30T12:50:28.09Z</time></trkpt><trkpt lat="45.57012" lon="13.8730733"><ele>350.0</ele><time>2026-04-30T12:50:29.096Z</time></trkpt><trkpt lat="45.570035" lon="13.8731"><ele>350.0</ele><time>2026-04-30T12:50:30.102Z</time></trkpt><trkpt lat="45.56995" lon="13.87311"><ele>350.0</ele><time>2026-04-30T12:50:31.042Z</time></trkpt><trkpt lat="45.5698667" lon="13.8730933"><ele>350.0</ele><time>2026-04-30T12:50:32.115Z</time></trkpt><trkpt lat="45.5697783" lon="13.8730517"><ele>350.0</ele><time>2026-04-30T12:50:33.056Z</time></trkpt><trkpt lat="45.5696817" lon="13.8729983"><ele>350.0</ele><time>2026-04-30T12:50:34.128Z</time></trkpt><trkpt lat="45.569575" lon="13.8729317"><ele>351.5</ele><time>2026-04-30T12:50:35.068Z</time></trkpt><trkpt lat="45.5694583" lon="13.8728533"><ele>353.0</ele><time>2026-04-30T12:50:36.075Z</time></trkpt><trkpt lat="45.569325" lon="13.87278"><ele>354.5</ele><time>2026-04-30T12:50:37.082Z</time></trkpt><trkpt lat="45.5691833" lon="13.87272"><ele>356.0</ele><time>2026-04-30T12:50:38.088Z</time></trkpt><trkpt lat="45.569035" lon="13.8726833"><ele>356.0</ele><time>2026-04-30T12:50:39.094Z</time></trkpt><trkpt lat="45.5688783" lon="13.87268"><ele>356.0</ele><time>2026-04-30T12:50:40.102Z</time></trkpt><trkpt lat="45.5687167" lon="13.8727117"><ele>356.0</ele><time>2026-04-30T12:50:41.042Z</time></trkpt><trkpt lat="45.5685617" lon="13.8727717"><ele>355.0</ele><time>2026-04-30T12:50:42.114Z</time></trkpt><trkpt lat="45.5684133" lon="13.872855"><ele>354.0</ele><time>2026-04-30T12:50:43.054Z</time></trkpt><trkpt lat="45.5682633" lon="13.8729617"><ele>353.0</ele><time>2026-04-30T12:50:44.128Z</time></trkpt><trkpt lat="45.5681183" lon="13.873085"><ele>353.0</ele><time>2026-04-30T12:50:45.067Z</time></trkpt><trkpt lat="45.5679767" lon="13.8732167"><ele>353.0</ele><time>2026-04-30T12:50:46.074Z</time></trkpt><trkpt lat="45.567835" lon="13.873345"><ele>353.0</ele><time>2026-04-30T12:50:47.081Z</time></trkpt><trkpt lat="45.567695" lon="13.8734767"><ele>357.6666666666667</ele><time>2026-04-30T12:50:48.088Z</time></trkpt><trkpt lat="45.56756" lon="13.8736083"><ele>362.3333333333333</ele><time>2026-04-30T12:50:49.162Z</time></trkpt><trkpt lat="45.5674283" lon="13.8737417"><ele>367.0</ele><time>2026-04-30T12:50:50.1Z</time></trkpt><trkpt lat="45.5672983" lon="13.8738783"><ele>367.0</ele><time>2026-04-30T12:50:51.04Z</time></trkpt><trkpt lat="45.5671717" lon="13.8740217"><ele>367.0</ele><time>2026-04-30T12:50:52.115Z</time></trkpt><trkpt lat="45.5670467" lon="13.8741667"><ele>367.0</ele><time>2026-04-30T12:50:53.054Z</time></trkpt><trkpt lat="45.5669167" lon="13.8743117"><ele>369.66666666666663</ele><time>2026-04-30T12:50:54.127Z</time></trkpt><trkpt lat="45.566785" lon="13.8744567"><ele>372.3333333333333</ele><time>2026-04-30T12:50:55.066Z</time></trkpt><trkpt lat="45.5666583" lon="13.8746017"><ele>375.0</ele><time>2026-04-30T12:50:56.073Z</time></trkpt><trkpt lat="45.5665317" lon="13.8747483"><ele>375.0</ele><time>2026-04-30T12:50:57.147Z</time></trkpt><trkpt lat="45.5664067" lon="13.8748983"><ele>375.0</ele><time>2026-04-30T12:50:58.086Z</time></trkpt><trkpt lat="45.56628" lon="13.8750517"><ele>375.0</ele><time>2026-04-30T12:50:59.16Z</time></trkpt><trkpt lat="45.566155" lon="13.8752083"><ele>377.0</ele><time>2026-04-30T12:51:00.101Z</time></trkpt><trkpt lat="45.5660283" lon="13.8753633"><ele>379.0</ele><time>2026-04-30T12:51:01.039Z</time></trkpt><trkpt lat="45.5659067" lon="13.87553"><ele>381.0</ele><time>2026-04-30T12:51:02.113Z</time></trkpt><trkpt lat="45.5657867" lon="13.8757"><ele>381.0</ele><time>2026-04-30T12:51:03.052Z</time></trkpt><trkpt lat="45.5656667" lon="13.8758733"><ele>381.0</ele><time>2026-04-30T12:51:04.126Z</time></trkpt><trkpt lat="45.565545" lon="13.8760533"><ele>381.0</ele><time>2026-04-30T12:51:05.066Z</time></trkpt><trkpt lat="45.565425" lon="13.87623"><ele>381.3333333333333</ele><time>2026-04-30T12:51:06.072Z</time></trkpt><trkpt lat="45.5652983" lon="13.876405"><ele>381.66666666666663</ele><time>2026-04-30T12:51:07.146Z</time></trkpt><trkpt lat="45.56517" lon="13.8765767"><ele>382.0</ele><time>2026-04-30T12:51:08.085Z</time></trkpt><trkpt lat="45.5650383" lon="13.8767433"><ele>386.66666666666663</ele><time>2026-04-30T12:51:09.159Z</time></trkpt><trkpt lat="45.5648983" lon="13.8768983"><ele>391.3333333333333</ele><time>2026-04-30T12:51:10.099Z</time></trkpt><trkpt lat="45.5647533" lon="13.8770367"><ele>396.0</ele><time>2026-04-30T12:51:11.039Z</time></trkpt><trkpt lat="45.5646083" lon="13.87716"><ele>392.0</ele><time>2026-04-30T12:51:12.113Z</time></trkpt><trkpt lat="45.564465" lon="13.8772767"><ele>388.0</ele><time>2026-04-30T12:51:13.052Z</time></trkpt><trkpt lat="45.5643317" lon="13.8773933"><ele>384.0</ele><time>2026-04-30T12:51:14.125Z</time></trkpt><trkpt lat="45.5642033" lon="13.8775117"><ele>386.0</ele><time>2026-04-30T12:51:15.132Z</time></trkpt><trkpt lat="45.5640817" lon="13.8776333"><ele>388.0</ele><time>2026-04-30T12:51:16.071Z</time></trkpt><trkpt lat="45.5639733" lon="13.87777"><ele>390.0</ele><time>2026-04-30T12:51:17.145Z</time></trkpt><trkpt lat="45.563875" lon="13.8779267"><ele>392.0</ele><time>2026-04-30T12:51:18.085Z</time></trkpt><trkpt lat="45.5637933" lon="13.8781033"><ele>392.0</ele><time>2026-04-30T12:51:19.158Z</time></trkpt><trkpt lat="45.5637283" lon="13.878295"><ele>392.0</ele><time>2026-04-30T12:51:20.099Z</time></trkpt><trkpt lat="45.563685" lon="13.878505"><ele>392.0</ele><time>2026-04-30T12:51:21.038Z</time></trkpt><trkpt lat="45.5636533" lon="13.8787283"><ele>390.0</ele><time>2026-04-30T12:51:22.111Z</time></trkpt><trkpt lat="45.5636283" lon="13.878955"><ele>388.0</ele><time>2026-04-30T12:51:23.118Z</time></trkpt><trkpt lat="45.5636083" lon="13.8791867"><ele>386.0</ele><time>2026-04-30T12:51:24.058Z</time></trkpt><trkpt lat="45.5636" lon="13.8794267"><ele>386.0</ele><time>2026-04-30T12:51:25.132Z</time></trkpt><trkpt lat="45.5635983" lon="13.8796667"><ele>386.0</ele><time>2026-04-30T12:51:26.071Z</time></trkpt><trkpt lat="45.5636017" lon="13.8799117"><ele>386.0</ele><time>2026-04-30T12:51:27.145Z</time></trkpt><trkpt lat="45.5636083" lon="13.8801567"><ele>387.0</ele><time>2026-04-30T12:51:28.085Z</time></trkpt><trkpt lat="45.5636217" lon="13.8804017"><ele>388.0</ele><time>2026-04-30T12:51:29.023Z</time></trkpt><trkpt lat="45.5636333" lon="13.8806433"><ele>389.0</ele><time>2026-04-30T12:51:30.098Z</time></trkpt><trkpt lat="45.56365" lon="13.8808867"><ele>390.0</ele><time>2026-04-30T12:51:31.104Z</time></trkpt><trkpt lat="45.5636767" lon="13.8811267"><ele>391.0</ele><time>2026-04-30T12:51:32.11Z</time></trkpt><trkpt lat="45.5637167" lon="13.88136"><ele>392.0</ele><time>2026-04-30T12:51:33.117Z</time></trkpt><trkpt lat="45.5637683" lon="13.8815917"><ele>395.3333333333333</ele><time>2026-04-30T12:51:34.057Z</time></trkpt><trkpt lat="45.5638267" lon="13.88182"><ele>398.66666666666663</ele><time>2026-04-30T12:51:35.13Z</time></trkpt><trkpt lat="45.5638867" lon="13.8820433"><ele>402.0</ele><time>2026-04-30T12:51:36.071Z</time></trkpt><trkpt lat="45.563945" lon="13.8822533"><ele>402.0</ele><time>2026-04-30T12:51:37.145Z</time></trkpt><trkpt lat="45.5640017" lon="13.8824483"><ele>402.0</ele><time>2026-04-30T12:51:38.084Z</time></trkpt><trkpt lat="45.5640617" lon="13.8826317"><ele>402.0</ele><time>2026-04-30T12:51:39.09Z</time></trkpt><trkpt lat="45.56413" lon="13.8828117"><ele>402.0</ele><time>2026-04-30T12:51:40.097Z</time></trkpt><trkpt lat="45.5642" lon="13.882985"><ele>401.75</ele><time>2026-04-30T12:51:41.103Z</time></trkpt><trkpt lat="45.564265" lon="13.8831517"><ele>401.5</ele><time>2026-04-30T12:51:42.11Z</time></trkpt><trkpt lat="45.5643217" lon="13.88332"><ele>401.25</ele><time>2026-04-30T12:51:43.116Z</time></trkpt><trkpt lat="45.5643633" lon="13.8835"><ele>401.0</ele><time>2026-04-30T12:51:44.056Z</time></trkpt><trkpt lat="45.56439" lon="13.8836917"><ele>402.0</ele><time>2026-04-30T12:51:45.131Z</time></trkpt><trkpt lat="45.5643967" lon="13.8838917"><ele>403.0</ele><time>2026-04-30T12:51:46.069Z</time></trkpt><trkpt lat="45.5643817" lon="13.8841"><ele>404.0</ele><time>2026-04-30T12:51:47.143Z</time></trkpt><trkpt lat="45.564355" lon="13.884315"><ele>405.0</ele><time>2026-04-30T12:51:48.083Z</time></trkpt><trkpt lat="45.56432" lon="13.8845383"><ele>407.33333333333337</ele><time>2026-04-30T12:51:49.089Z</time></trkpt><trkpt lat="45.5642767" lon="13.8847633"><ele>409.6666666666667</ele><time>2026-04-30T12:51:50.096Z</time></trkpt><trkpt lat="45.564215" lon="13.8849833"><ele>412.0</ele><time>2026-04-30T12:51:51.103Z</time></trkpt><trkpt lat="45.5641333" lon="13.885195"><ele>417.33333333333337</ele><time>2026-04-30T12:51:52.109Z</time></trkpt><trkpt lat="45.5640267" lon="13.8853917"><ele>422.66666666666663</ele><time>2026-04-30T12:51:53.117Z</time></trkpt><trkpt lat="45.5639083" lon="13.8855783"><ele>428.0</ele><time>2026-04-30T12:51:54.056Z</time></trkpt><trkpt lat="45.56379" lon="13.8857517"><ele>429.3333333333333</ele><time>2026-04-30T12:51:55.129Z</time></trkpt><trkpt lat="45.5636717" lon="13.8859017"><ele>430.66666666666663</ele><time>2026-04-30T12:51:56.068Z</time></trkpt><trkpt lat="45.5635483" lon="13.8860233"><ele>432.0</ele><time>2026-04-30T12:51:57.143Z</time></trkpt><trkpt lat="45.5634117" lon="13.8861133"><ele>432.0</ele><time>2026-04-30T12:51:58.082Z</time></trkpt><trkpt lat="45.5632617" lon="13.8861783"><ele>432.0</ele><time>2026-04-30T12:51:59.089Z</time></trkpt><trkpt lat="45.563105" lon="13.8862367"><ele>432.0</ele><time>2026-04-30T12:52:00.096Z</time></trkpt><trkpt lat="45.562945" lon="13.8862967"><ele>429.33333333333337</ele><time>2026-04-30T12:52:01.101Z</time></trkpt><trkpt lat="45.5627933" lon="13.8863617"><ele>426.6666666666667</ele><time>2026-04-30T12:52:02.108Z</time></trkpt><trkpt lat="45.56265" lon="13.8864317"><ele>424.0</ele><time>2026-04-30T12:52:03.115Z</time></trkpt><trkpt lat="45.5625233" lon="13.8865267"><ele>424.0</ele><time>2026-04-30T12:52:04.055Z</time></trkpt><trkpt lat="45.5624167" lon="13.8866683"><ele>424.0</ele><time>2026-04-30T12:52:05.129Z</time></trkpt><trkpt lat="45.5623283" lon="13.8868517"><ele>424.0</ele><time>2026-04-30T12:52:06.068Z</time></trkpt><trkpt lat="45.5622517" lon="13.8870517"><ele>428.33333333333337</ele><time>2026-04-30T12:52:07.141Z</time></trkpt><trkpt lat="45.5621767" lon="13.8872633"><ele>432.66666666666663</ele><time>2026-04-30T12:52:08.081Z</time></trkpt><trkpt lat="45.5621033" lon="13.8874833"><ele>437.0</ele><time>2026-04-30T12:52:09.088Z</time></trkpt><trkpt lat="45.5620333" lon="13.8877083"><ele>432.66666666666663</ele><time>2026-04-30T12:52:10.095Z</time></trkpt><trkpt lat="45.5619617" lon="13.8879317"><ele>428.33333333333337</ele><time>2026-04-30T12:52:11.101Z</time></trkpt><trkpt lat="45.5618867" lon="13.888145"><ele>424.0</ele><time>2026-04-30T12:52:12.108Z</time></trkpt><trkpt lat="45.561805" lon="13.8883383"><ele>428.6666666666667</ele><time>2026-04-30T12:52:13.115Z</time></trkpt><trkpt lat="45.5617083" lon="13.888515"><ele>433.33333333333337</ele><time>2026-04-30T12:52:14.053Z</time></trkpt><trkpt lat="45.5616" lon="13.88868"><ele>438.0</ele><time>2026-04-30T12:52:15.127Z</time></trkpt><trkpt lat="45.5614733" lon="13.8888233"><ele>438.0</ele><time>2026-04-30T12:52:16.067Z</time></trkpt><trkpt lat="45.5613433" lon="13.8889633"><ele>438.0</ele><time>2026-04-30T12:52:17.14Z</time></trkpt><trkpt lat="45.5612167" lon="13.88911"><ele>438.0</ele><time>2026-04-30T12:52:18.081Z</time></trkpt><trkpt lat="45.5610917" lon="13.88927"><ele>437.0</ele><time>2026-04-30T12:52:19.087Z</time></trkpt><trkpt lat="45.5609717" lon="13.8894317"><ele>436.0</ele><time>2026-04-30T12:52:20.093Z</time></trkpt><trkpt lat="45.5608667" lon="13.8895967"><ele>435.0</ele><time>2026-04-30T12:52:21.1Z</time></trkpt><trkpt lat="45.5607767" lon="13.8897667"><ele>435.0</ele><time>2026-04-30T12:52:22.107Z</time></trkpt><trkpt lat="45.5607083" lon="13.8899517"><ele>435.0</ele><time>2026-04-30T12:52:23.114Z</time></trkpt><trkpt lat="45.56067" lon="13.8901583"><ele>435.0</ele><time>2026-04-30T12:52:24.053Z</time></trkpt><trkpt lat="45.56065" lon="13.89037"><ele>435.0</ele><time>2026-04-30T12:52:25.127Z</time></trkpt><trkpt lat="45.5606567" lon="13.890585"><ele>436.33333333333337</ele><time>2026-04-30T12:52:26.066Z</time></trkpt><trkpt lat="45.5606867" lon="13.8908017"><ele>437.6666666666667</ele><time>2026-04-30T12:52:27.14Z</time></trkpt><trkpt lat="45.5607417" lon="13.8910083"><ele>439.0</ele><time>2026-04-30T12:52:28.08Z</time></trkpt><trkpt lat="45.5608133" lon="13.8911933"><ele>439.5</ele><time>2026-04-30T12:52:29.086Z</time></trkpt><trkpt lat="45.5608783" lon="13.8913583"><ele>440.0</ele><time>2026-04-30T12:52:30.092Z</time></trkpt><trkpt lat="45.5609233" lon="13.8915117"><ele>440.5</ele><time>2026-04-30T12:52:31.1Z</time></trkpt><trkpt lat="45.5609333" lon="13.8916683"><ele>441.0</ele><time>2026-04-30T12:52:32.106Z</time></trkpt><trkpt lat="45.5609133" lon="13.89183"><ele>441.0</ele><time>2026-04-30T12:52:33.112Z</time></trkpt><trkpt lat="45.5608617" lon="13.8919917"><ele>441.0</ele><time>2026-04-30T12:52:34.053Z</time></trkpt><trkpt lat="45.5607817" lon="13.8921433"><ele>441.0</ele><time>2026-04-30T12:52:35.126Z</time></trkpt><trkpt lat="45.5606817" lon="13.892295"><ele>441.0</ele><time>2026-04-30T12:52:36.065Z</time></trkpt><trkpt lat="45.5605717" lon="13.8924517"><ele>440.66666666666663</ele><time>2026-04-30T12:52:37.139Z</time></trkpt><trkpt lat="45.560455" lon="13.8926133"><ele>440.3333333333333</ele><time>2026-04-30T12:52:38.079Z</time></trkpt><trkpt lat="45.560335" lon="13.8927783"><ele>440.0</ele><time>2026-04-30T12:52:39.086Z</time></trkpt><trkpt lat="45.5602083" lon="13.892945"><ele>440.0</ele><time>2026-04-30T12:52:40.093Z</time></trkpt><trkpt lat="45.5600783" lon="13.89312"><ele>440.0</ele><time>2026-04-30T12:52:41.098Z</time></trkpt><trkpt lat="45.5599433" lon="13.8933067"><ele>440.0</ele><time>2026-04-30T12:52:42.105Z</time></trkpt><trkpt lat="45.5598067" lon="13.8935"><ele>440.0</ele><time>2026-04-30T12:52:43.112Z</time></trkpt><trkpt lat="45.5596667" lon="13.8936967"><ele>440.0</ele><time>2026-04-30T12:52:44.051Z</time></trkpt><trkpt lat="45.5595267" lon="13.8938967"><ele>440.0</ele><time>2026-04-30T12:52:45.125Z</time></trkpt><trkpt lat="45.5593883" lon="13.894095"><ele>440.0</ele><time>2026-04-30T12:52:46.064Z</time></trkpt><trkpt lat="45.5592533" lon="13.8942867"><ele>440.0</ele><time>2026-04-30T12:52:47.138Z</time></trkpt><trkpt lat="45.5591183" lon="13.894475"><ele>440.0</ele><time>2026-04-30T12:52:48.078Z</time></trkpt><trkpt lat="45.5589833" lon="13.8946583"><ele>440.0</ele><time>2026-04-30T12:52:49.084Z</time></trkpt><trkpt lat="45.55885" lon="13.894845"><ele>440.0</ele><time>2026-04-30T12:52:50.091Z</time></trkpt><trkpt lat="45.5587167" lon="13.89503"><ele>440.0</ele><time>2026-04-30T12:52:51.098Z</time></trkpt><trkpt lat="45.5585867" lon="13.895215"><ele>439.0</ele><time>2026-04-30T12:52:52.104Z</time></trkpt><trkpt lat="45.5584533" lon="13.8954033"><ele>438.0</ele><time>2026-04-30T12:52:53.112Z</time></trkpt><trkpt lat="45.5583183" lon="13.8955933"><ele>437.0</ele><time>2026-04-30T12:52:54.051Z</time></trkpt><trkpt lat="45.5581817" lon="13.895785"><ele>436.66666666666663</ele><time>2026-04-30T12:52:55.125Z</time></trkpt><trkpt lat="45.558045" lon="13.8959767"><ele>436.33333333333337</ele><time>2026-04-30T12:52:56.065Z</time></trkpt><trkpt lat="45.55791" lon="13.89617"><ele>436.0</ele><time>2026-04-30T12:52:57.138Z</time></trkpt><trkpt lat="45.557775" lon="13.8963617"><ele>435.33333333333337</ele><time>2026-04-30T12:52:58.078Z</time></trkpt><trkpt lat="45.557635" lon="13.8965517"><ele>434.66666666666663</ele><time>2026-04-30T12:52:59.084Z</time></trkpt><trkpt lat="45.5574933" lon="13.8967433"><ele>434.0</ele><time>2026-04-30T12:53:00.09Z</time></trkpt><trkpt lat="45.5573467" lon="13.89694"><ele>435.0</ele><time>2026-04-30T12:53:01.097Z</time></trkpt><trkpt lat="45.5571983" lon="13.8971433"><ele>436.0</ele><time>2026-04-30T12:53:02.036Z</time></trkpt><trkpt lat="45.55705" lon="13.8973483"><ele>437.0</ele><time>2026-04-30T12:53:03.111Z</time></trkpt><trkpt lat="45.5569033" lon="13.897545"><ele>436.66666666666663</ele><time>2026-04-30T12:53:04.051Z</time></trkpt><trkpt lat="45.5567583" lon="13.8977367"><ele>436.33333333333337</ele><time>2026-04-30T12:53:05.124Z</time></trkpt><trkpt lat="45.5566217" lon="13.89792"><ele>436.0</ele><time>2026-04-30T12:53:06.064Z</time></trkpt><trkpt lat="45.5564883" lon="13.8981"><ele>436.0</ele><time>2026-04-30T12:53:07.069Z</time></trkpt><trkpt lat="45.5563567" lon="13.8982817"><ele>436.0</ele><time>2026-04-30T12:53:08.077Z</time></trkpt><trkpt lat="45.556225" lon="13.89847"><ele>436.0</ele><time>2026-04-30T12:53:09.084Z</time></trkpt><trkpt lat="45.55609" lon="13.8986567"><ele>436.33333333333337</ele><time>2026-04-30T12:53:10.09Z</time></trkpt><trkpt lat="45.5559533" lon="13.89885"><ele>436.66666666666663</ele><time>2026-04-30T12:53:11.097Z</time></trkpt><trkpt lat="45.5558183" lon="13.89905"><ele>437.0</ele><time>2026-04-30T12:53:12.037Z</time></trkpt><trkpt lat="45.55568" lon="13.8992467"><ele>437.3333333333333</ele><time>2026-04-30T12:53:13.109Z</time></trkpt><trkpt lat="45.55554" lon="13.8994433"><ele>437.66666666666663</ele><time>2026-04-30T12:53:14.05Z</time></trkpt><trkpt lat="45.555395" lon="13.8996417"><ele>438.0</ele><time>2026-04-30T12:53:15.123Z</time></trkpt><trkpt lat="45.5552483" lon="13.8998433"><ele>438.0</ele><time>2026-04-30T12:53:16.062Z</time></trkpt><trkpt lat="45.5551" lon="13.9000517"><ele>438.0</ele><time>2026-04-30T12:53:17.069Z</time></trkpt><trkpt lat="45.5549517" lon="13.9002583"><ele>438.0</ele><time>2026-04-30T12:53:18.075Z</time></trkpt><trkpt lat="45.554805" lon="13.9004717"><ele>438.0</ele><time>2026-04-30T12:53:19.082Z</time></trkpt><trkpt lat="45.5546533" lon="13.9006883"><ele>438.0</ele><time>2026-04-30T12:53:20.156Z</time></trkpt><trkpt lat="45.5545017" lon="13.9009083"><ele>438.0</ele><time>2026-04-30T12:53:21.095Z</time></trkpt><trkpt lat="45.5543533" lon="13.90113"><ele>438.0</ele><time>2026-04-30T12:53:22.036Z</time></trkpt><trkpt lat="45.5541967" lon="13.9013467"><ele>438.0</ele><time>2026-04-30T12:53:23.108Z</time></trkpt><trkpt lat="45.55404" lon="13.90156"><ele>438.0</ele><time>2026-04-30T12:53:24.049Z</time></trkpt><trkpt lat="45.5538833" lon="13.901775"><ele>438.66666666666663</ele><time>2026-04-30T12:53:25.122Z</time></trkpt><trkpt lat="45.5537267" lon="13.90199"><ele>439.3333333333333</ele><time>2026-04-30T12:53:26.061Z</time></trkpt><trkpt lat="45.55357" lon="13.9022017"><ele>440.0</ele><time>2026-04-30T12:53:27.069Z</time></trkpt><trkpt lat="45.553415" lon="13.902415"><ele>438.66666666666663</ele><time>2026-04-30T12:53:28.142Z</time></trkpt><trkpt lat="45.5532567" lon="13.9026267"><ele>437.33333333333337</ele><time>2026-04-30T12:53:29.081Z</time></trkpt><trkpt lat="45.5531017" lon="13.9028383"><ele>436.0</ele><time>2026-04-30T12:53:30.156Z</time></trkpt><trkpt lat="45.5529483" lon="13.9030533"><ele>435.6666666666667</ele><time>2026-04-30T12:53:31.094Z</time></trkpt><trkpt lat="45.5527967" lon="13.903265"><ele>435.33333333333337</ele><time>2026-04-30T12:53:32.035Z</time></trkpt><trkpt lat="45.5526433" lon="13.903475"><ele>435.0</ele><time>2026-04-30T12:53:33.108Z</time></trkpt><trkpt lat="45.5524917" lon="13.9036867"><ele>435.0</ele><time>2026-04-30T12:53:34.048Z</time></trkpt><trkpt lat="45.5523417" lon="13.9038983"><ele>435.0</ele><time>2026-04-30T12:53:35.121Z</time></trkpt><trkpt lat="45.5521933" lon="13.9041117"><ele>435.0</ele><time>2026-04-30T12:53:36.061Z</time></trkpt><trkpt lat="45.5520467" lon="13.9043267"><ele>434.33333333333337</ele><time>2026-04-30T12:53:37.068Z</time></trkpt><trkpt lat="45.5519" lon="13.9045333"><ele>433.6666666666667</ele><time>2026-04-30T12:53:38.141Z</time></trkpt><trkpt lat="45.5517533" lon="13.9047417"><ele>433.0</ele><time>2026-04-30T12:53:39.08Z</time></trkpt><trkpt lat="45.551605" lon="13.9049433"><ele>434.33333333333337</ele><time>2026-04-30T12:53:40.155Z</time></trkpt><trkpt lat="45.551455" lon="13.9051467"><ele>435.66666666666663</ele><time>2026-04-30T12:53:41.094Z</time></trkpt><trkpt lat="45.551305" lon="13.9053467"><ele>437.0</ele><time>2026-04-30T12:53:42.034Z</time></trkpt><trkpt lat="45.551155" lon="13.9055467"><ele>434.0</ele><time>2026-04-30T12:53:43.107Z</time></trkpt><trkpt lat="45.5510117" lon="13.9057533"><ele>431.0</ele><time>2026-04-30T12:53:44.046Z</time></trkpt><trkpt lat="45.55087" lon="13.9059633"><ele>428.0</ele><time>2026-04-30T12:53:45.12Z</time></trkpt><trkpt lat="45.5507267" lon="13.9061667"><ele>428.0</ele><time>2026-04-30T12:53:46.128Z</time></trkpt><trkpt lat="45.5505833" lon="13.9063717"><ele>428.0</ele><time>2026-04-30T12:53:47.066Z</time></trkpt><trkpt lat="45.5504417" lon="13.9065717"><ele>428.0</ele><time>2026-04-30T12:53:48.14Z</time></trkpt><trkpt lat="45.5503033" lon="13.9067667"><ele>428.0</ele><time>2026-04-30T12:53:49.08Z</time></trkpt><trkpt lat="45.550165" lon="13.90696"><ele>428.0</ele><time>2026-04-30T12:53:50.154Z</time></trkpt><trkpt lat="45.5500233" lon="13.907155"><ele>428.0</ele><time>2026-04-30T12:53:51.094Z</time></trkpt><trkpt lat="45.5498817" lon="13.9073533"><ele>428.0</ele><time>2026-04-30T12:53:52.032Z</time></trkpt><trkpt lat="45.54974" lon="13.90755"><ele>428.0</ele><time>2026-04-30T12:53:53.107Z</time></trkpt><trkpt lat="45.5496" lon="13.9077467"><ele>428.0</ele><time>2026-04-30T12:53:54.114Z</time></trkpt><trkpt lat="45.5494617" lon="13.9079433"><ele>428.3333333333333</ele><time>2026-04-30T12:53:55.119Z</time></trkpt><trkpt lat="45.5493217" lon="13.90814"><ele>428.66666666666663</ele><time>2026-04-30T12:53:56.127Z</time></trkpt><trkpt lat="45.54918" lon="13.9083333"><ele>429.0</ele><time>2026-04-30T12:53:57.066Z</time></trkpt><trkpt lat="45.5490383" lon="13.9085283"><ele>429.0</ele><time>2026-04-30T12:53:58.139Z</time></trkpt><trkpt lat="45.5488967" lon="13.908725"><ele>429.0</ele><time>2026-04-30T12:53:59.08Z</time></trkpt><trkpt lat="45.5487567" lon="13.9089183"><ele>429.0</ele><time>2026-04-30T12:54:00.154Z</time></trkpt><trkpt lat="45.5486167" lon="13.9091133"><ele>429.0</ele><time>2026-04-30T12:54:01.093Z</time></trkpt><trkpt lat="45.5484767" lon="13.90931"><ele>429.0</ele><time>2026-04-30T12:54:02.099Z</time></trkpt><trkpt lat="45.548335" lon="13.90951"><ele>429.0</ele><time>2026-04-30T12:54:03.106Z</time></trkpt><trkpt lat="45.5481933" lon="13.9097133"><ele>429.0</ele><time>2026-04-30T12:54:04.112Z</time></trkpt><trkpt lat="45.5480533" lon="13.9099133"><ele>429.0</ele><time>2026-04-30T12:54:05.119Z</time></trkpt><trkpt lat="45.5479133" lon="13.9101133"><ele>429.0</ele><time>2026-04-30T12:54:06.126Z</time></trkpt><trkpt lat="45.5477717" lon="13.9103167"><ele>429.66666666666663</ele><time>2026-04-30T12:54:07.065Z</time></trkpt><trkpt lat="45.54763" lon="13.910515"><ele>430.3333333333333</ele><time>2026-04-30T12:54:08.139Z</time></trkpt><trkpt lat="45.5474917" lon="13.9107067"><ele>431.0</ele><time>2026-04-30T12:54:09.078Z</time></trkpt><trkpt lat="45.5473517" lon="13.9108983"><ele>431.3333333333333</ele><time>2026-04-30T12:54:10.152Z</time></trkpt><trkpt lat="45.547215" lon="13.9110883"><ele>431.66666666666663</ele><time>2026-04-30T12:54:11.091Z</time></trkpt><trkpt lat="45.54708" lon="13.9112767"><ele>432.0</ele><time>2026-04-30T12:54:12.098Z</time></trkpt><trkpt lat="45.5469467" lon="13.911465"><ele>432.0</ele><time>2026-04-30T12:54:13.105Z</time></trkpt><trkpt lat="45.5468167" lon="13.91165"><ele>432.0</ele><time>2026-04-30T12:54:14.111Z</time></trkpt><trkpt lat="45.5466883" lon="13.9118383"><ele>432.0</ele><time>2026-04-30T12:54:15.119Z</time></trkpt><trkpt lat="45.5465667" lon="13.9120367"><ele>433.33333333333337</ele><time>2026-04-30T12:54:16.125Z</time></trkpt><trkpt lat="45.5464533" lon="13.9122467"><ele>434.6666666666667</ele><time>2026-04-30T12:54:17.064Z</time></trkpt><trkpt lat="45.5463483" lon="13.9124667"><ele>436.0</ele><time>2026-04-30T12:54:18.139Z</time></trkpt><trkpt lat="45.546255" lon="13.912695"><ele>435.33333333333337</ele><time>2026-04-30T12:54:19.078Z</time></trkpt><trkpt lat="45.5461717" lon="13.9129267"><ele>434.66666666666663</ele><time>2026-04-30T12:54:20.152Z</time></trkpt><trkpt lat="45.5460883" lon="13.9131617"><ele>434.0</ele><time>2026-04-30T12:54:21.092Z</time></trkpt><trkpt lat="45.5460067" lon="13.9133967"><ele>436.0</ele><time>2026-04-30T12:54:22.097Z</time></trkpt><trkpt lat="45.54592" lon="13.9136217"><ele>438.0</ele><time>2026-04-30T12:54:23.104Z</time></trkpt><trkpt lat="45.5458317" lon="13.913835"><ele>440.0</ele><time>2026-04-30T12:54:24.11Z</time></trkpt><trkpt lat="45.5457517" lon="13.9140333"><ele>440.0</ele><time>2026-04-30T12:54:25.117Z</time></trkpt><trkpt lat="45.5456767" lon="13.9142267"><ele>440.0</ele><time>2026-04-30T12:54:26.125Z</time></trkpt><trkpt lat="45.5456033" lon="13.9144183"><ele>440.0</ele><time>2026-04-30T12:54:27.063Z</time></trkpt><trkpt lat="45.54553" lon="13.9146117"><ele>440.3333333333333</ele><time>2026-04-30T12:54:28.138Z</time></trkpt><trkpt lat="45.545455" lon="13.914805"><ele>440.66666666666663</ele><time>2026-04-30T12:54:29.078Z</time></trkpt><trkpt lat="45.54538" lon="13.9150017"><ele>441.0</ele><time>2026-04-30T12:54:30.083Z</time></trkpt><trkpt lat="45.5453033" lon="13.9152"><ele>441.0</ele><time>2026-04-30T12:54:31.091Z</time></trkpt><trkpt lat="45.54523" lon="13.9153933"><ele>441.0</ele><time>2026-04-30T12:54:32.096Z</time></trkpt><trkpt lat="45.5451567" lon="13.9155867"><ele>441.0</ele><time>2026-04-30T12:54:33.104Z</time></trkpt><trkpt lat="45.5450833" lon="13.9157733"><ele>442.0</ele><time>2026-04-30T12:54:34.111Z</time></trkpt><trkpt lat="45.5450117" lon="13.91596"><ele>443.0</ele><time>2026-04-30T12:54:35.05Z</time></trkpt><trkpt lat="45.54494" lon="13.9161483"><ele>444.0</ele><time>2026-04-30T12:54:36.123Z</time></trkpt><trkpt lat="45.544865" lon="13.916335"><ele>444.0</ele><time>2026-04-30T12:54:37.062Z</time></trkpt><trkpt lat="45.54479" lon="13.9165217"><ele>444.0</ele><time>2026-04-30T12:54:38.137Z</time></trkpt><trkpt lat="45.5447133" lon="13.9167117"><ele>444.0</ele><time>2026-04-30T12:54:39.077Z</time></trkpt><trkpt lat="45.54464" lon="13.9169067"><ele>444.66666666666663</ele><time>2026-04-30T12:54:40.083Z</time></trkpt><trkpt lat="45.5445667" lon="13.9171017"><ele>445.3333333333333</ele><time>2026-04-30T12:54:41.089Z</time></trkpt><trkpt lat="45.5444933" lon="13.917295"><ele>446.0</ele><time>2026-04-30T12:54:42.096Z</time></trkpt><trkpt lat="45.54442" lon="13.9174833"><ele>445.25</ele><time>2026-04-30T12:54:43.103Z</time></trkpt><trkpt lat="45.5443467" lon="13.9176717"><ele>444.5</ele><time>2026-04-30T12:54:44.109Z</time></trkpt><trkpt lat="45.5442783" lon="13.91785"><ele>443.75</ele><time>2026-04-30T12:54:45.049Z</time></trkpt><trkpt lat="45.5442117" lon="13.918025"><ele>443.0</ele><time>2026-04-30T12:54:46.123Z</time></trkpt><trkpt lat="45.5441483" lon="13.9182"><ele>443.0</ele><time>2026-04-30T12:54:47.063Z</time></trkpt><trkpt lat="45.5440833" lon="13.9183783"><ele>443.0</ele><time>2026-04-30T12:54:48.136Z</time></trkpt><trkpt lat="45.5440167" lon="13.9185617"><ele>443.0</ele><time>2026-04-30T12:54:49.076Z</time></trkpt><trkpt lat="45.5439483" lon="13.9187417"><ele>443.0</ele><time>2026-04-30T12:54:50.082Z</time></trkpt><trkpt lat="45.5438733" lon="13.9189283"><ele>442.3333333333333</ele><time>2026-04-30T12:54:51.088Z</time></trkpt><trkpt lat="45.5437967" lon="13.9191233"><ele>441.66666666666663</ele><time>2026-04-30T12:54:52.095Z</time></trkpt><trkpt lat="45.5437217" lon="13.919325"><ele>441.0</ele><time>2026-04-30T12:54:53.101Z</time></trkpt><trkpt lat="45.5436467" lon="13.9195283"><ele>441.0</ele><time>2026-04-30T12:54:54.109Z</time></trkpt><trkpt lat="45.5435683" lon="13.9197333"><ele>441.0</ele><time>2026-04-30T12:54:55.049Z</time></trkpt><trkpt lat="45.54349" lon="13.9199383"><ele>441.0</ele><time>2026-04-30T12:54:56.121Z</time></trkpt><trkpt lat="45.5434083" lon="13.9201417"><ele>442.66666666666663</ele><time>2026-04-30T12:54:57.062Z</time></trkpt><trkpt lat="45.5433283" lon="13.92034"><ele>444.3333333333333</ele><time>2026-04-30T12:54:58.136Z</time></trkpt><trkpt lat="45.543245" lon="13.920535"><ele>446.0</ele><time>2026-04-30T12:54:59.075Z</time></trkpt><trkpt lat="45.5431567" lon="13.920725"><ele>447.0</ele><time>2026-04-30T12:55:00.081Z</time></trkpt><trkpt lat="45.543065" lon="13.92091"><ele>448.0</ele><time>2026-04-30T12:55:01.088Z</time></trkpt><trkpt lat="45.54297" lon="13.9210967"><ele>449.0</ele><time>2026-04-30T12:55:02.094Z</time></trkpt><trkpt lat="45.5428733" lon="13.921285"><ele>448.0</ele><time>2026-04-30T12:55:03.101Z</time></trkpt><trkpt lat="45.5427767" lon="13.9214733"><ele>447.0</ele><time>2026-04-30T12:55:04.107Z</time></trkpt><trkpt lat="45.5426817" lon="13.9216667"><ele>446.0</ele><time>2026-04-30T12:55:05.048Z</time></trkpt><trkpt lat="45.542585" lon="13.9218583"><ele>446.0</ele><time>2026-04-30T12:55:06.122Z</time></trkpt><trkpt lat="45.54249" lon="13.9220467"><ele>446.0</ele><time>2026-04-30T12:55:07.061Z</time></trkpt><trkpt lat="45.5423983" lon="13.922235"><ele>446.0</ele><time>2026-04-30T12:55:08.134Z</time></trkpt><trkpt lat="45.5423033" lon="13.9224267"><ele>445.0</ele><time>2026-04-30T12:55:09.073Z</time></trkpt><trkpt lat="45.54221" lon="13.9226233"><ele>444.0</ele><time>2026-04-30T12:55:10.08Z</time></trkpt><trkpt lat="45.5421117" lon="13.9228283"><ele>443.0</ele><time>2026-04-30T12:55:11.088Z</time></trkpt><trkpt lat="45.5420083" lon="13.9230367"><ele>443.0</ele><time>2026-04-30T12:55:12.094Z</time></trkpt><trkpt lat="45.5419017" lon="13.9232567"><ele>443.0</ele><time>2026-04-30T12:55:13.101Z</time></trkpt><trkpt lat="45.5417917" lon="13.9234867"><ele>443.0</ele><time>2026-04-30T12:55:14.107Z</time></trkpt><trkpt lat="45.5416767" lon="13.9237283"><ele>444.0</ele><time>2026-04-30T12:55:15.047Z</time></trkpt><trkpt lat="45.54156" lon="13.92398"><ele>445.0</ele><time>2026-04-30T12:55:16.121Z</time></trkpt><trkpt lat="45.5414383" lon="13.9242317"><ele>446.0</ele><time>2026-04-30T12:55:17.059Z</time></trkpt><trkpt lat="45.54131" lon="13.9244883"><ele>446.5</ele><time>2026-04-30T12:55:18.133Z</time></trkpt><trkpt lat="45.541175" lon="13.9247483"><ele>447.0</ele><time>2026-04-30T12:55:19.074Z</time></trkpt><trkpt lat="45.5410417" lon="13.9250067"><ele>450.0</ele><time>2026-04-30T12:55:20.08Z</time></trkpt><trkpt lat="45.54091" lon="13.925265"><ele>453.0</ele><time>2026-04-30T12:55:21.087Z</time></trkpt><trkpt lat="45.540795" lon="13.9254917"><ele>456.0</ele><time>2026-04-30T12:55:22.093Z</time></trkpt><trkpt lat="45.5406833" lon="13.92571"><ele>458.0</ele><time>2026-04-30T12:55:23.099Z</time></trkpt><trkpt lat="45.5405767" lon="13.9259217"><ele>460.0</ele><time>2026-04-30T12:55:24.107Z</time></trkpt><trkpt lat="45.5404767" lon="13.9261267"><ele>462.0</ele><time>2026-04-30T12:55:25.046Z</time></trkpt><trkpt lat="45.5403767" lon="13.926325"><ele>460.66666666666663</ele><time>2026-04-30T12:55:26.12Z</time></trkpt><trkpt lat="45.5402783" lon="13.9265183"><ele>459.3333333333333</ele><time>2026-04-30T12:55:27.06Z</time></trkpt><trkpt lat="45.5401817" lon="13.9267133"><ele>458.0</ele><time>2026-04-30T12:55:28.133Z</time></trkpt><trkpt lat="45.5400883" lon="13.9269133"><ele>458.0</ele><time>2026-04-30T12:55:29.072Z</time></trkpt><trkpt lat="45.5399917" lon="13.9271067"><ele>458.0</ele><time>2026-04-30T12:55:30.079Z</time></trkpt><trkpt lat="45.539895" lon="13.9273"><ele>458.0</ele><time>2026-04-30T12:55:31.086Z</time></trkpt><trkpt lat="45.5397983" lon="13.9274933"><ele>457.66666666666663</ele><time>2026-04-30T12:55:32.092Z</time></trkpt><trkpt lat="45.5397" lon="13.9276833"><ele>457.33333333333337</ele><time>2026-04-30T12:55:33.099Z</time></trkpt><trkpt lat="45.5396017" lon="13.927875"><ele>457.0</ele><time>2026-04-30T12:55:34.105Z</time></trkpt><trkpt lat="45.5395067" lon="13.92807"><ele>457.0</ele><time>2026-04-30T12:55:35.045Z</time></trkpt><trkpt lat="45.5394167" lon="13.9282717"><ele>457.0</ele><time>2026-04-30T12:55:36.118Z</time></trkpt><trkpt lat="45.539335" lon="13.9284817"><ele>457.0</ele><time>2026-04-30T12:55:37.059Z</time></trkpt><trkpt lat="45.5392683" lon="13.9287033"><ele>459.0</ele><time>2026-04-30T12:55:38.133Z</time></trkpt><trkpt lat="45.5392133" lon="13.9289317"><ele>461.0</ele><time>2026-04-30T12:55:39.071Z</time></trkpt><trkpt lat="45.5391733" lon="13.92917"><ele>463.0</ele><time>2026-04-30T12:55:40.079Z</time></trkpt><trkpt lat="45.5391483" lon="13.9294133"><ele>465.6666666666667</ele><time>2026-04-30T12:55:41.085Z</time></trkpt><trkpt lat="45.5391317" lon="13.929665"><ele>468.33333333333337</ele><time>2026-04-30T12:55:42.091Z</time></trkpt><trkpt lat="45.5391217" lon="13.92992"><ele>471.0</ele><time>2026-04-30T12:55:43.165Z</time></trkpt><trkpt lat="45.5391167" lon="13.9301817"><ele>471.66666666666663</ele><time>2026-04-30T12:55:44.104Z</time></trkpt><trkpt lat="45.5391083" lon="13.9304417"><ele>472.3333333333333</ele><time>2026-04-30T12:55:45.044Z</time></trkpt><trkpt lat="45.5390967" lon="13.9307017"><ele>473.0</ele><time>2026-04-30T12:55:46.117Z</time></trkpt><trkpt lat="45.53909" lon="13.93096"><ele>475.0</ele><time>2026-04-30T12:55:47.058Z</time></trkpt><trkpt lat="45.539085" lon="13.9312183"><ele>477.0</ele><time>2026-04-30T12:55:48.132Z</time></trkpt><trkpt lat="45.5390767" lon="13.931475"><ele>479.0</ele><time>2026-04-30T12:55:49.071Z</time></trkpt><trkpt lat="45.53907" lon="13.9317183"><ele>479.3333333333333</ele><time>2026-04-30T12:55:50.078Z</time></trkpt><trkpt lat="45.5390683" lon="13.9319483"><ele>479.66666666666663</ele><time>2026-04-30T12:55:51.152Z</time></trkpt><trkpt lat="45.5390633" lon="13.932175"><ele>480.0</ele><time>2026-04-30T12:55:52.091Z</time></trkpt><trkpt lat="45.5390583" lon="13.932405"><ele>480.0</ele><time>2026-04-30T12:55:53.164Z</time></trkpt><trkpt lat="45.5390533" lon="13.9326383"><ele>480.0</ele><time>2026-04-30T12:55:54.103Z</time></trkpt><trkpt lat="45.5390467" lon="13.9328733"><ele>480.0</ele><time>2026-04-30T12:55:55.043Z</time></trkpt><trkpt lat="45.5390433" lon="13.9331117"><ele>480.0</ele><time>2026-04-30T12:55:56.117Z</time></trkpt><trkpt lat="45.53904" lon="13.93335"><ele>480.0</ele><time>2026-04-30T12:55:57.056Z</time></trkpt><trkpt lat="45.5390367" lon="13.93359"><ele>480.0</ele><time>2026-04-30T12:55:58.064Z</time></trkpt><trkpt lat="45.53903" lon="13.9338333"><ele>479.66666666666663</ele><time>2026-04-30T12:55:59.137Z</time></trkpt><trkpt lat="45.539025" lon="13.9340817"><ele>479.3333333333333</ele><time>2026-04-30T12:56:00.076Z</time></trkpt><trkpt lat="45.53902" lon="13.9343333"><ele>479.0</ele><time>2026-04-30T12:56:01.15Z</time></trkpt><trkpt lat="45.539015" lon="13.9345917"><ele>478.66666666666663</ele><time>2026-04-30T12:56:02.089Z</time></trkpt><trkpt lat="45.53901" lon="13.9348533"><ele>478.33333333333337</ele><time>2026-04-30T12:56:03.03Z</time></trkpt><trkpt lat="45.5390067" lon="13.9351183"><ele>478.0</ele><time>2026-04-30T12:56:04.103Z</time></trkpt><trkpt lat="45.5390033" lon="13.935385"><ele>478.0</ele><time>2026-04-30T12:56:05.043Z</time></trkpt><trkpt lat="45.5389967" lon="13.9356533"><ele>478.0</ele><time>2026-04-30T12:56:06.116Z</time></trkpt><trkpt lat="45.5389883" lon="13.935925"><ele>478.0</ele><time>2026-04-30T12:56:07.056Z</time></trkpt><trkpt lat="45.53898" lon="13.9362"><ele>478.0</ele><time>2026-04-30T12:56:08.062Z</time></trkpt><trkpt lat="45.5389733" lon="13.936475"><ele>478.0</ele><time>2026-04-30T12:56:09.137Z</time></trkpt><trkpt lat="45.5389667" lon="13.9367533"><ele>478.0</ele><time>2026-04-30T12:56:10.076Z</time></trkpt><trkpt lat="45.53896" lon="13.9370317"><ele>477.6666666666667</ele><time>2026-04-30T12:56:11.149Z</time></trkpt><trkpt lat="45.5389533" lon="13.9373133"><ele>477.33333333333337</ele><time>2026-04-30T12:56:12.089Z</time></trkpt><trkpt lat="45.5389467" lon="13.937595"><ele>477.0</ele><time>2026-04-30T12:56:13.028Z</time></trkpt><trkpt lat="45.5389417" lon="13.937875"><ele>477.0</ele><time>2026-04-30T12:56:14.102Z</time></trkpt><trkpt lat="45.538935" lon="13.9381533"><ele>477.0</ele><time>2026-04-30T12:56:15.041Z</time></trkpt><trkpt lat="45.53893" lon="13.9384267"><ele>477.0</ele><time>2026-04-30T12:56:16.116Z</time></trkpt><trkpt lat="45.538925" lon="13.9387"><ele>477.0</ele><time>2026-04-30T12:56:17.122Z</time></trkpt><trkpt lat="45.538915" lon="13.9389583"><ele>477.0</ele><time>2026-04-30T12:56:18.062Z</time></trkpt><trkpt lat="45.5389067" lon="13.9392033"><ele>477.0</ele><time>2026-04-30T12:56:19.135Z</time></trkpt><trkpt lat="45.53889" lon="13.939445"><ele>478.0</ele><time>2026-04-30T12:56:20.076Z</time></trkpt><trkpt lat="45.53886" lon="13.9396867"><ele>479.0</ele><time>2026-04-30T12:56:21.148Z</time></trkpt><trkpt lat="45.5388117" lon="13.9399167"><ele>480.0</ele><time>2026-04-30T12:56:22.089Z</time></trkpt><trkpt lat="45.5387417" lon="13.94014"><ele>480.0</ele><time>2026-04-30T12:56:23.028Z</time></trkpt><trkpt lat="45.5386517" lon="13.9403483"><ele>480.0</ele><time>2026-04-30T12:56:24.102Z</time></trkpt><trkpt lat="45.5385417" lon="13.9405467"><ele>480.0</ele><time>2026-04-30T12:56:25.108Z</time></trkpt><trkpt lat="45.5384233" lon="13.9407367"><ele>480.33333333333337</ele><time>2026-04-30T12:56:26.115Z</time></trkpt><trkpt lat="45.5383017" lon="13.9409283"><ele>480.6666666666667</ele><time>2026-04-30T12:56:27.122Z</time></trkpt><trkpt lat="45.5381767" lon="13.9411233"><ele>481.0</ele><time>2026-04-30T12:56:28.061Z</time></trkpt><trkpt lat="45.5380483" lon="13.9413233"><ele>481.0</ele><time>2026-04-30T12:56:29.135Z</time></trkpt><trkpt lat="45.5379183" lon="13.9415217"><ele>481.0</ele><time>2026-04-30T12:56:30.075Z</time></trkpt><trkpt lat="45.5377833" lon="13.9417267"><ele>481.0</ele><time>2026-04-30T12:56:31.148Z</time></trkpt><trkpt lat="45.53765" lon="13.9419267"><ele>484.33333333333337</ele><time>2026-04-30T12:56:32.088Z</time></trkpt><trkpt lat="45.5375167" lon="13.9421267"><ele>487.66666666666663</ele><time>2026-04-30T12:56:33.095Z</time></trkpt><trkpt lat="45.537385" lon="13.9423267"><ele>491.0</ele><time>2026-04-30T12:56:34.1Z</time></trkpt><trkpt lat="45.5372583" lon="13.9425167"><ele>491.0</ele><time>2026-04-30T12:56:35.107Z</time></trkpt><trkpt lat="45.537135" lon="13.9426983"><ele>491.0</ele><time>2026-04-30T12:56:36.115Z</time></trkpt><trkpt lat="45.5370183" lon="13.94288"><ele>491.0</ele><time>2026-04-30T12:56:37.12Z</time></trkpt><trkpt lat="45.5369" lon="13.943055"><ele>491.0</ele><time>2026-04-30T12:56:38.06Z</time></trkpt><trkpt lat="45.536785" lon="13.94323"><ele>491.0</ele><time>2026-04-30T12:56:39.133Z</time></trkpt><trkpt lat="45.5366683" lon="13.9434033"><ele>491.0</ele><time>2026-04-30T12:56:40.074Z</time></trkpt><trkpt lat="45.5365483" lon="13.94358"><ele>490.66666666666663</ele><time>2026-04-30T12:56:41.147Z</time></trkpt><trkpt lat="45.53643" lon="13.9437567"><ele>490.33333333333337</ele><time>2026-04-30T12:56:42.086Z</time></trkpt><trkpt lat="45.536315" lon="13.9439317"><ele>490.0</ele><time>2026-04-30T12:56:43.094Z</time></trkpt><trkpt lat="45.5362017" lon="13.9441017"><ele>489.33333333333337</ele><time>2026-04-30T12:56:44.1Z</time></trkpt><trkpt lat="45.536095" lon="13.9442667"><ele>488.66666666666663</ele><time>2026-04-30T12:56:45.106Z</time></trkpt><trkpt lat="45.53599" lon="13.9444283"><ele>488.0</ele><time>2026-04-30T12:56:46.113Z</time></trkpt><trkpt lat="45.53589" lon="13.9445783"><ele>488.0</ele><time>2026-04-30T12:56:47.119Z</time></trkpt><trkpt lat="45.53579" lon="13.9447117"><ele>488.0</ele><time>2026-04-30T12:56:48.06Z</time></trkpt><trkpt lat="45.53568" lon="13.9448333"><ele>488.0</ele><time>2026-04-30T12:56:49.133Z</time></trkpt><trkpt lat="45.5355533" lon="13.9449383"><ele>488.0</ele><time>2026-04-30T12:56:50.072Z</time></trkpt><trkpt lat="45.5354133" lon="13.94502"><ele>488.3333333333333</ele><time>2026-04-30T12:56:51.146Z</time></trkpt><trkpt lat="45.5352633" lon="13.9450733"><ele>488.66666666666663</ele><time>2026-04-30T12:56:52.085Z</time></trkpt><trkpt lat="45.5351033" lon="13.9451117"><ele>489.0</ele><time>2026-04-30T12:56:53.092Z</time></trkpt><trkpt lat="45.53494" lon="13.94514"><ele>489.0</ele><time>2026-04-30T12:56:54.1Z</time></trkpt><trkpt lat="45.534775" lon="13.945165"><ele>489.0</ele><time>2026-04-30T12:56:55.106Z</time></trkpt><trkpt lat="45.5346083" lon="13.94519"><ele>489.0</ele><time>2026-04-30T12:56:56.112Z</time></trkpt><trkpt lat="45.53444" lon="13.94522"><ele>489.66666666666663</ele><time>2026-04-30T12:56:57.119Z</time></trkpt><trkpt lat="45.534275" lon="13.9452583"><ele>490.3333333333333</ele><time>2026-04-30T12:56:58.058Z</time></trkpt><trkpt lat="45.5341117" lon="13.9453033"><ele>491.0</ele><time>2026-04-30T12:56:59.133Z</time></trkpt><trkpt lat="45.5339533" lon="13.94537"><ele>491.0</ele><time>2026-04-30T12:57:00.071Z</time></trkpt><trkpt lat="45.5338067" lon="13.9454633"><ele>491.0</ele><time>2026-04-30T12:57:01.145Z</time></trkpt><trkpt lat="45.5336867" lon="13.9455817"><ele>491.0</ele><time>2026-04-30T12:57:02.085Z</time></trkpt><trkpt lat="45.5335867" lon="13.9457167"><ele>491.0</ele><time>2026-04-30T12:57:03.091Z</time></trkpt><trkpt lat="45.533495" lon="13.9458633"><ele>492.66666666666663</ele><time>2026-04-30T12:57:04.098Z</time></trkpt><trkpt lat="45.5334" lon="13.94602"><ele>494.33333333333337</ele><time>2026-04-30T12:57:05.105Z</time></trkpt><trkpt lat="45.5333" lon="13.946185"><ele>496.0</ele><time>2026-04-30T12:57:06.111Z</time></trkpt><trkpt lat="45.533195" lon="13.94635"><ele>496.0</ele><time>2026-04-30T12:57:07.119Z</time></trkpt><trkpt lat="45.533085" lon="13.94652"><ele>496.0</ele><time>2026-04-30T12:57:08.058Z</time></trkpt><trkpt lat="45.5329767" lon="13.9466983"><ele>496.0</ele><time>2026-04-30T12:57:09.131Z</time></trkpt><trkpt lat="45.5328667" lon="13.9468783"><ele>497.0</ele><time>2026-04-30T12:57:10.071Z</time></trkpt><trkpt lat="45.5327533" lon="13.947065"><ele>498.0</ele><time>2026-04-30T12:57:11.144Z</time></trkpt><trkpt lat="45.5326417" lon="13.9472483"><ele>499.0</ele><time>2026-04-30T12:57:12.084Z</time></trkpt><trkpt lat="45.532535" lon="13.9474167"><ele>499.75</ele><time>2026-04-30T12:57:13.091Z</time></trkpt><trkpt lat="45.5324317" lon="13.9475733"><ele>500.5</ele><time>2026-04-30T12:57:14.097Z</time></trkpt><trkpt lat="45.5323317" lon="13.9477117"><ele>501.25</ele><time>2026-04-30T12:57:15.104Z</time></trkpt><trkpt lat="45.5322333" lon="13.9478367"><ele>502.0</ele><time>2026-04-30T12:57:16.11Z</time></trkpt><trkpt lat="45.5321333" lon="13.94796"><ele>502.5</ele><time>2026-04-30T12:57:17.118Z</time></trkpt><trkpt lat="45.53203" lon="13.9480783"><ele>503.0</ele><time>2026-04-30T12:57:18.058Z</time></trkpt><trkpt lat="45.5319217" lon="13.9481933"><ele>503.5</ele><time>2026-04-30T12:57:19.131Z</time></trkpt><trkpt lat="45.5318083" lon="13.9483067"><ele>504.0</ele><time>2026-04-30T12:57:20.07Z</time></trkpt><trkpt lat="45.5315733" lon="13.94853"><ele>504.0</ele><time>2026-04-30T12:57:22.084Z</time></trkpt><trkpt lat="45.5314567" lon="13.9486417"><ele>504.0</ele><time>2026-04-30T12:57:23.091Z</time></trkpt><trkpt lat="45.5313417" lon="13.9487533"><ele>504.0</ele><time>2026-04-30T12:57:24.097Z</time></trkpt><trkpt lat="45.5312283" lon="13.9488667"><ele>504.0</ele><time>2026-04-30T12:57:25.103Z</time></trkpt><trkpt lat="45.5311133" lon="13.9489767"><ele>504.0</ele><time>2026-04-30T12:57:26.044Z</time></trkpt><trkpt lat="45.5309983" lon="13.9490867"><ele>504.0</ele><time>2026-04-30T12:57:27.116Z</time></trkpt><trkpt lat="45.5308917" lon="13.9491883"><ele>504.0</ele><time>2026-04-30T12:57:28.056Z</time></trkpt><trkpt lat="45.5307867" lon="13.9492867"><ele>504.0</ele><time>2026-04-30T12:57:29.131Z</time></trkpt><trkpt lat="45.53068" lon="13.9493867"><ele>503.5</ele><time>2026-04-30T12:57:30.07Z</time></trkpt><trkpt lat="45.53057" lon="13.9494867"><ele>503.0</ele><time>2026-04-30T12:57:31.076Z</time></trkpt><trkpt lat="45.5304617" lon="13.94959"><ele>502.5</ele><time>2026-04-30T12:57:32.082Z</time></trkpt><trkpt lat="45.53035" lon="13.9496917"><ele>502.0</ele><time>2026-04-30T12:57:33.09Z</time></trkpt><trkpt lat="45.5302383" lon="13.9497983"><ele>502.0</ele><time>2026-04-30T12:57:34.096Z</time></trkpt><trkpt lat="45.5301267" lon="13.9499067"><ele>502.0</ele><time>2026-04-30T12:57:35.102Z</time></trkpt><trkpt lat="45.530015" lon="13.9500133"><ele>502.0</ele><time>2026-04-30T12:57:36.042Z</time></trkpt><trkpt lat="45.5299" lon="13.9501217"><ele>502.0</ele><time>2026-04-30T12:57:37.117Z</time></trkpt><trkpt lat="45.529785" lon="13.9502317"><ele>501.75</ele><time>2026-04-30T12:57:38.056Z</time></trkpt><trkpt lat="45.5296667" lon="13.9503433"><ele>501.5</ele><time>2026-04-30T12:57:39.13Z</time></trkpt><trkpt lat="45.5295467" lon="13.950455"><ele>501.25</ele><time>2026-04-30T12:57:40.068Z</time></trkpt><trkpt lat="45.5294283" lon="13.9505633"><ele>501.0</ele><time>2026-04-30T12:57:41.075Z</time></trkpt><trkpt lat="45.529315" lon="13.9506683"><ele>501.0</ele><time>2026-04-30T12:57:42.083Z</time></trkpt><trkpt lat="45.5292083" lon="13.95077"><ele>501.0</ele><time>2026-04-30T12:57:43.088Z</time></trkpt><trkpt lat="45.5291067" lon="13.9508667"><ele>501.0</ele><time>2026-04-30T12:57:44.095Z</time></trkpt><trkpt lat="45.529005" lon="13.9509633"><ele>501.0</ele><time>2026-04-30T12:57:45.101Z</time></trkpt><trkpt lat="45.528905" lon="13.9510583"><ele>501.5</ele><time>2026-04-30T12:57:46.041Z</time></trkpt><trkpt lat="45.528805" lon="13.951155"><ele>502.0</ele><time>2026-04-30T12:57:47.115Z</time></trkpt><trkpt lat="45.5287083" lon="13.9512517"><ele>502.5</ele><time>2026-04-30T12:57:48.054Z</time></trkpt><trkpt lat="45.528605" lon="13.9513517"><ele>503.0</ele><time>2026-04-30T12:57:49.128Z</time></trkpt><trkpt lat="45.5285083" lon="13.9514433"><ele>503.0</ele><time>2026-04-30T12:57:50.068Z</time></trkpt><trkpt lat="45.5284133" lon="13.9515283"><ele>502.99999999999994</ele><time>2026-04-30T12:57:51.075Z</time></trkpt><trkpt lat="45.5283233" lon="13.95161"><ele>502.99999999999994</ele><time>2026-04-30T12:57:52.081Z</time></trkpt><trkpt lat="45.528235" lon="13.9516883"><ele>503.0</ele><time>2026-04-30T12:57:53.088Z</time></trkpt><trkpt lat="45.528145" lon="13.9517717"><ele>503.0</ele><time>2026-04-30T12:57:54.094Z</time></trkpt><trkpt lat="45.5280517" lon="13.9518583"><ele>503.25</ele><time>2026-04-30T12:57:55.101Z</time></trkpt><trkpt lat="45.527955" lon="13.95195"><ele>503.5</ele><time>2026-04-30T12:57:56.04Z</time></trkpt><trkpt lat="45.5278533" lon="13.9520483"><ele>503.75</ele><time>2026-04-30T12:57:57.115Z</time></trkpt><trkpt lat="45.5277467" lon="13.95214"><ele>504.0</ele><time>2026-04-30T12:57:58.055Z</time></trkpt><trkpt lat="45.52764" lon="13.9522317"><ele>504.0</ele><time>2026-04-30T12:57:59.127Z</time></trkpt><trkpt lat="45.5275317" lon="13.9523267"><ele>504.0</ele><time>2026-04-30T12:58:00.068Z</time></trkpt><trkpt lat="45.52742" lon="13.95242"><ele>504.0</ele><time>2026-04-30T12:58:01.074Z</time></trkpt><trkpt lat="45.5273067" lon="13.9525083"><ele>504.0</ele><time>2026-04-30T12:58:02.081Z</time></trkpt><trkpt lat="45.5271967" lon="13.9525933"><ele>505.0</ele><time>2026-04-30T12:58:03.088Z</time></trkpt><trkpt lat="45.5270867" lon="13.952675"><ele>506.0</ele><time>2026-04-30T12:58:04.093Z</time></trkpt><trkpt lat="45.52698" lon="13.952755"><ele>507.0</ele><time>2026-04-30T12:58:05.101Z</time></trkpt><trkpt lat="45.5268783" lon="13.9528383"><ele>508.0</ele><time>2026-04-30T12:58:06.039Z</time></trkpt><trkpt lat="45.526775" lon="13.9529217"><ele>508.0</ele><time>2026-04-30T12:58:07.113Z</time></trkpt><trkpt lat="45.5266733" lon="13.9530083"><ele>508.0</ele><time>2026-04-30T12:58:08.054Z</time></trkpt><trkpt lat="45.5265683" lon="13.953095"><ele>508.0</ele><time>2026-04-30T12:58:09.126Z</time></trkpt><trkpt lat="45.5264617" lon="13.95318"><ele>508.0</ele><time>2026-04-30T12:58:10.066Z</time></trkpt><trkpt lat="45.5263533" lon="13.9532667"><ele>508.0</ele><time>2026-04-30T12:58:11.074Z</time></trkpt><trkpt lat="45.5262433" lon="13.9533533"><ele>508.0</ele><time>2026-04-30T12:58:12.079Z</time></trkpt><trkpt lat="45.5261267" lon="13.9534433"><ele>508.0</ele><time>2026-04-30T12:58:13.087Z</time></trkpt><trkpt lat="45.52601" lon="13.9535283"><ele>508.0</ele><time>2026-04-30T12:58:14.161Z</time></trkpt><trkpt lat="45.5258883" lon="13.9536133"><ele>510.0</ele><time>2026-04-30T12:58:15.099Z</time></trkpt><trkpt lat="45.52577" lon="13.9537183"><ele>512.0</ele><time>2026-04-30T12:58:16.039Z</time></trkpt><trkpt lat="45.525655" lon="13.953835"><ele>514.0</ele><time>2026-04-30T12:58:17.112Z</time></trkpt><trkpt lat="45.5255533" lon="13.953965"><ele>516.0</ele><time>2026-04-30T12:58:18.052Z</time></trkpt><trkpt lat="45.5254683" lon="13.9541283"><ele>518.25</ele><time>2026-04-30T12:58:19.126Z</time></trkpt><trkpt lat="45.52539" lon="13.9542917"><ele>520.5</ele><time>2026-04-30T12:58:20.065Z</time></trkpt><trkpt lat="45.5253083" lon="13.9544517"><ele>522.75</ele><time>2026-04-30T12:58:21.073Z</time></trkpt><trkpt lat="45.5252083" lon="13.95459"><ele>525.0</ele><time>2026-04-30T12:58:22.146Z</time></trkpt><trkpt lat="45.5250933" lon="13.9546983"><ele>525.0</ele><time>2026-04-30T12:58:23.085Z</time></trkpt><trkpt lat="45.52496" lon="13.9547733"><ele>525.0</ele><time>2026-04-30T12:58:24.16Z</time></trkpt><trkpt lat="45.524815" lon="13.9548283"><ele>525.0</ele><time>2026-04-30T12:58:25.098Z</time></trkpt><trkpt lat="45.5246717" lon="13.95489"><ele>525.0</ele><time>2026-04-30T12:58:26.038Z</time></trkpt><trkpt lat="45.524525" lon="13.9549417"><ele>523.25</ele><time>2026-04-30T12:58:27.112Z</time></trkpt><trkpt lat="45.5243867" lon="13.9549767"><ele>521.5</ele><time>2026-04-30T12:58:28.051Z</time></trkpt><trkpt lat="45.52426" lon="13.9550117"><ele>519.75</ele><time>2026-04-30T12:58:29.126Z</time></trkpt><trkpt lat="45.52414" lon="13.9550517"><ele>518.0</ele><time>2026-04-30T12:58:30.133Z</time></trkpt><trkpt lat="45.5240283" lon="13.9551"><ele>520.8</ele><time>2026-04-30T12:58:31.071Z</time></trkpt><trkpt lat="45.523925" lon="13.9551667"><ele>523.5999999999999</ele><time>2026-04-30T12:58:32.146Z</time></trkpt><trkpt lat="45.5238367" lon="13.9552533"><ele>526.4000000000001</ele><time>2026-04-30T12:58:33.085Z</time></trkpt><trkpt lat="45.523755" lon="13.9553517"><ele>529.2</ele><time>2026-04-30T12:58:34.158Z</time></trkpt><trkpt lat="45.5236667" lon="13.9554533"><ele>532.0</ele><time>2026-04-30T12:58:35.098Z</time></trkpt><trkpt lat="45.5235667" lon="13.9555367"><ele>532.0</ele><time>2026-04-30T12:58:36.037Z</time></trkpt><trkpt lat="45.5234533" lon="13.9555933"><ele>532.0</ele><time>2026-04-30T12:58:37.111Z</time></trkpt><trkpt lat="45.5233367" lon="13.9556367"><ele>532.0</ele><time>2026-04-30T12:58:38.05Z</time></trkpt><trkpt lat="45.5232133" lon="13.9556633"><ele>532.0</ele><time>2026-04-30T12:58:39.125Z</time></trkpt><trkpt lat="45.5230883" lon="13.9556783"><ele>532.0</ele><time>2026-04-30T12:58:40.132Z</time></trkpt><trkpt lat="45.5229567" lon="13.9556883"><ele>532.0</ele><time>2026-04-30T12:58:41.07Z</time></trkpt><trkpt lat="45.5228217" lon="13.9556983"><ele>532.0</ele><time>2026-04-30T12:58:42.145Z</time></trkpt><trkpt lat="45.522685" lon="13.955715"><ele>532.0</ele><time>2026-04-30T12:58:43.085Z</time></trkpt><trkpt lat="45.5225433" lon="13.9557333"><ele>531.0</ele><time>2026-04-30T12:58:44.157Z</time></trkpt><trkpt lat="45.5224017" lon="13.955755"><ele>530.0</ele><time>2026-04-30T12:58:45.097Z</time></trkpt><trkpt lat="45.5222567" lon="13.9557867"><ele>529.0</ele><time>2026-04-30T12:58:46.036Z</time></trkpt><trkpt lat="45.52211" lon="13.9558317"><ele>528.0</ele><time>2026-04-30T12:58:47.111Z</time></trkpt><trkpt lat="45.5219617" lon="13.9558883"><ele>535.3333333333334</ele><time>2026-04-30T12:58:48.118Z</time></trkpt><trkpt lat="45.5218133" lon="13.9559617"><ele>542.6666666666667</ele><time>2026-04-30T12:58:49.123Z</time></trkpt><trkpt lat="45.521665" lon="13.95604"><ele>550.0</ele><time>2026-04-30T12:58:50.131Z</time></trkpt><trkpt lat="45.5215117" lon="13.9561133"><ele>550.0</ele><time>2026-04-30T12:58:51.07Z</time></trkpt><trkpt lat="45.52136" lon="13.95619"><ele>550.0</ele><time>2026-04-30T12:58:52.144Z</time></trkpt><trkpt lat="45.5212067" lon="13.9562667"><ele>550.0</ele><time>2026-04-30T12:58:53.083Z</time></trkpt><trkpt lat="45.5210583" lon="13.956335"><ele>549.25</ele><time>2026-04-30T12:58:54.022Z</time></trkpt><trkpt lat="45.52092" lon="13.9563833"><ele>548.5</ele><time>2026-04-30T12:58:55.097Z</time></trkpt><trkpt lat="45.5207917" lon="13.9564117"><ele>547.75</ele><time>2026-04-30T12:58:56.104Z</time></trkpt><trkpt lat="45.520675" lon="13.956425"><ele>547.0</ele><time>2026-04-30T12:58:57.109Z</time></trkpt><trkpt lat="45.52056" lon="13.95643"><ele>547.0</ele><time>2026-04-30T12:58:58.116Z</time></trkpt><trkpt lat="45.5204467" lon="13.9564317"><ele>547.0</ele><time>2026-04-30T12:58:59.056Z</time></trkpt><trkpt lat="45.5203267" lon="13.95644"><ele>547.0</ele><time>2026-04-30T12:59:00.129Z</time></trkpt><trkpt lat="45.5202067" lon="13.9564533"><ele>547.0</ele><time>2026-04-30T12:59:01.069Z</time></trkpt><trkpt lat="45.5200817" lon="13.9564767"><ele>546.0</ele><time>2026-04-30T12:59:02.142Z</time></trkpt><trkpt lat="45.5199517" lon="13.9565017"><ele>545.0</ele><time>2026-04-30T12:59:03.083Z</time></trkpt><trkpt lat="45.5198183" lon="13.9565333"><ele>544.0</ele><time>2026-04-30T12:59:04.089Z</time></trkpt><trkpt lat="45.5196783" lon="13.9565683"><ele>543.0</ele><time>2026-04-30T12:59:05.095Z</time></trkpt><trkpt lat="45.5195367" lon="13.9566117"><ele>542.6666666666666</ele><time>2026-04-30T12:59:06.103Z</time></trkpt><trkpt lat="45.5193933" lon="13.9566567"><ele>542.3333333333333</ele><time>2026-04-30T12:59:07.11Z</time></trkpt><trkpt lat="45.5192467" lon="13.9567"><ele>542.0</ele><time>2026-04-30T12:59:08.116Z</time></trkpt><trkpt lat="45.5190967" lon="13.9567467"><ele>546.0</ele><time>2026-04-30T12:59:09.055Z</time></trkpt><trkpt lat="45.518945" lon="13.9568"><ele>550.0</ele><time>2026-04-30T12:59:10.129Z</time></trkpt><trkpt lat="45.518795" lon="13.9568617"><ele>554.0</ele><time>2026-04-30T12:59:11.068Z</time></trkpt><trkpt lat="45.518645" lon="13.9569383"><ele>554.0</ele><time>2026-04-30T12:59:12.143Z</time></trkpt><trkpt lat="45.5184983" lon="13.9570283"><ele>554.0</ele><time>2026-04-30T12:59:13.081Z</time></trkpt><trkpt lat="45.5183533" lon="13.9571283"><ele>554.0</ele><time>2026-04-30T12:59:14.088Z</time></trkpt><trkpt lat="45.5182067" lon="13.9572317"><ele>554.0</ele><time>2026-04-30T12:59:15.095Z</time></trkpt><trkpt lat="45.5180617" lon="13.9573383"><ele>554.0</ele><time>2026-04-30T12:59:16.101Z</time></trkpt><trkpt lat="45.5179167" lon="13.957445"><ele>554.0</ele><time>2026-04-30T12:59:17.108Z</time></trkpt><trkpt lat="45.517775" lon="13.9575517"><ele>556.25</ele><time>2026-04-30T12:59:18.114Z</time></trkpt><trkpt lat="45.517635" lon="13.9576583"><ele>558.5</ele><time>2026-04-30T12:59:19.054Z</time></trkpt><trkpt lat="45.5175017" lon="13.95776"><ele>560.75</ele><time>2026-04-30T12:59:20.128Z</time></trkpt><trkpt lat="45.5173783" lon="13.9578533"><ele>563.0</ele><time>2026-04-30T12:59:21.067Z</time></trkpt><trkpt lat="45.5172583" lon="13.957945"><ele>563.0</ele><time>2026-04-30T12:59:22.141Z</time></trkpt><trkpt lat="45.517145" lon="13.9580417"><ele>563.0</ele><time>2026-04-30T12:59:23.08Z</time></trkpt><trkpt lat="45.5170383" lon="13.95815"><ele>563.0</ele><time>2026-04-30T12:59:24.088Z</time></trkpt><trkpt lat="45.5169433" lon="13.9582717"><ele>563.0</ele><time>2026-04-30T12:59:25.094Z</time></trkpt><trkpt lat="45.5168583" lon="13.9584067"><ele>564.0</ele><time>2026-04-30T12:59:26.101Z</time></trkpt><trkpt lat="45.516785" lon="13.9585567"><ele>565.0</ele><time>2026-04-30T12:59:27.107Z</time></trkpt><trkpt lat="45.516715" lon="13.95871"><ele>566.0</ele><time>2026-04-30T12:59:28.114Z</time></trkpt><trkpt lat="45.5165633" lon="13.9589883"><ele>566.0</ele><time>2026-04-30T12:59:30.127Z</time></trkpt><trkpt lat="45.51646" lon="13.9590867"><ele>566.0</ele><time>2026-04-30T12:59:31.067Z</time></trkpt><trkpt lat="45.5163483" lon="13.9591667"><ele>566.0</ele><time>2026-04-30T12:59:32.14Z</time></trkpt><trkpt lat="45.516235" lon="13.9592367"><ele>566.0</ele><time>2026-04-30T12:59:33.081Z</time></trkpt><trkpt lat="45.5161217" lon="13.9592933"><ele>570.5</ele><time>2026-04-30T12:59:34.086Z</time></trkpt><trkpt lat="45.5160017" lon="13.9593467"><ele>575.0</ele><time>2026-04-30T12:59:35.094Z</time></trkpt><trkpt lat="45.5158767" lon="13.9593917"><ele>579.5</ele><time>2026-04-30T12:59:36.101Z</time></trkpt><trkpt lat="45.5157483" lon="13.9594283"><ele>584.0</ele><time>2026-04-30T12:59:37.107Z</time></trkpt><trkpt lat="45.51562" lon="13.9594517"><ele>584.0</ele><time>2026-04-30T12:59:38.113Z</time></trkpt><trkpt lat="45.51549" lon="13.9594717"><ele>584.0</ele><time>2026-04-30T12:59:39.053Z</time></trkpt><trkpt lat="45.5153633" lon="13.9594983"><ele>584.0</ele><time>2026-04-30T12:59:40.127Z</time></trkpt><trkpt lat="45.5152383" lon="13.95954"><ele>584.0</ele><time>2026-04-30T12:59:41.066Z</time></trkpt><trkpt lat="45.51512" lon="13.9596083"><ele>581.0</ele><time>2026-04-30T12:59:42.139Z</time></trkpt><trkpt lat="45.5150067" lon="13.9596883"><ele>578.0</ele><time>2026-04-30T12:59:43.08Z</time></trkpt><trkpt lat="45.5149" lon="13.9597867"><ele>575.0</ele><time>2026-04-30T12:59:44.087Z</time></trkpt><trkpt lat="45.514795" lon="13.9598933"><ele>572.0</ele><time>2026-04-30T12:59:45.092Z</time></trkpt><trkpt lat="45.5147017" lon="13.96001"><ele>571.75</ele><time>2026-04-30T12:59:46.099Z</time></trkpt><trkpt lat="45.5146283" lon="13.960135"><ele>571.5</ele><time>2026-04-30T12:59:47.106Z</time></trkpt><trkpt lat="45.51458" lon="13.9602783"><ele>571.25</ele><time>2026-04-30T12:59:48.112Z</time></trkpt><trkpt lat="45.5145517" lon="13.9604333"><ele>571.0</ele><time>2026-04-30T12:59:49.052Z</time></trkpt><trkpt lat="45.5145217" lon="13.9605933"><ele>571.0</ele><time>2026-04-30T12:59:50.125Z</time></trkpt><trkpt lat="45.5144783" lon="13.9607367"><ele>571.0</ele><time>2026-04-30T12:59:51.065Z</time></trkpt><trkpt lat="45.51441" lon="13.9608617"><ele>571.0</ele><time>2026-04-30T12:59:52.139Z</time></trkpt><trkpt lat="45.5143083" lon="13.9609667"><ele>571.0</ele><time>2026-04-30T12:59:53.078Z</time></trkpt><trkpt lat="45.5141933" lon="13.9610733"><ele>577.3333333333334</ele><time>2026-04-30T12:59:54.086Z</time></trkpt><trkpt lat="45.5140667" lon="13.961185"><ele>583.6666666666666</ele><time>2026-04-30T12:59:55.092Z</time></trkpt><trkpt lat="45.5139367" lon="13.9613067"><ele>590.0</ele><time>2026-04-30T12:59:56.098Z</time></trkpt><trkpt lat="45.513815" lon="13.96144"><ele>592.75</ele><time>2026-04-30T12:59:57.105Z</time></trkpt><trkpt lat="45.51371" lon="13.961575"><ele>595.5</ele><time>2026-04-30T12:59:58.111Z</time></trkpt><trkpt lat="45.513615" lon="13.9617017"><ele>598.25</ele><time>2026-04-30T12:59:59.052Z</time></trkpt><trkpt lat="45.513525" lon="13.96181"><ele>601.0</ele><time>2026-04-30T13:00:00.125Z</time></trkpt><trkpt lat="45.513425" lon="13.9618883"><ele>601.0</ele><time>2026-04-30T13:00:01.064Z</time></trkpt><trkpt lat="45.5133133" lon="13.9619417"><ele>601.0</ele><time>2026-04-30T13:00:02.138Z</time></trkpt><trkpt lat="45.5131883" lon="13.9619767"><ele>601.0</ele><time>2026-04-30T13:00:03.077Z</time></trkpt><trkpt lat="45.5130583" lon="13.9620067"><ele>601.0</ele><time>2026-04-30T13:00:04.085Z</time></trkpt><trkpt lat="45.5129283" lon="13.9620333"><ele>597.8</ele><time>2026-04-30T13:00:05.091Z</time></trkpt><trkpt lat="45.5128067" lon="13.962055"><ele>594.6</ele><time>2026-04-30T13:00:06.098Z</time></trkpt><trkpt lat="45.5127" lon="13.96209"><ele>591.4</ele><time>2026-04-30T13:00:07.105Z</time></trkpt><trkpt lat="45.5126033" lon="13.9621467"><ele>588.2</ele><time>2026-04-30T13:00:08.11Z</time></trkpt><trkpt lat="45.5125167" lon="13.9622433"><ele>585.0</ele><time>2026-04-30T13:00:09.051Z</time></trkpt><trkpt lat="45.5124517" lon="13.96236"><ele>585.0</ele><time>2026-04-30T13:00:10.125Z</time></trkpt><trkpt lat="45.512405" lon="13.9624967"><ele>585.0</ele><time>2026-04-30T13:00:11.064Z</time></trkpt><trkpt lat="45.51237" lon="13.962645"><ele>585.0</ele><time>2026-04-30T13:00:12.137Z</time></trkpt><trkpt lat="45.51234" lon="13.962795"><ele>585.0</ele><time>2026-04-30T13:00:13.077Z</time></trkpt><trkpt lat="45.5123033" lon="13.962945"><ele>585.0</ele><time>2026-04-30T13:00:14.083Z</time></trkpt><trkpt lat="45.51225" lon="13.96309"><ele>587.5</ele><time>2026-04-30T13:00:15.091Z</time></trkpt><trkpt lat="45.5121933" lon="13.9632333"><ele>590.0</ele><time>2026-04-30T13:00:16.097Z</time></trkpt><trkpt lat="45.512145" lon="13.96339"><ele>592.5</ele><time>2026-04-30T13:00:17.104Z</time></trkpt><trkpt lat="45.5121017" lon="13.963555"><ele>595.0</ele><time>2026-04-30T13:00:18.11Z</time></trkpt><trkpt lat="45.51205" lon="13.963715"><ele>595.0</ele><time>2026-04-30T13:00:19.049Z</time></trkpt><trkpt lat="45.5119733" lon="13.9638567"><ele>595.0</ele><time>2026-04-30T13:00:20.124Z</time></trkpt><trkpt lat="45.5118783" lon="13.9639733"><ele>595.0</ele><time>2026-04-30T13:00:21.062Z</time></trkpt><trkpt lat="45.5117717" lon="13.9640717"><ele>595.0</ele><time>2026-04-30T13:00:22.07Z</time></trkpt><trkpt lat="45.51166" lon="13.9641633"><ele>595.25</ele><time>2026-04-30T13:00:23.077Z</time></trkpt><trkpt lat="45.5115467" lon="13.9642617"><ele>595.5</ele><time>2026-04-30T13:00:24.083Z</time></trkpt><trkpt lat="45.5114383" lon="13.9643767"><ele>595.75</ele><time>2026-04-30T13:00:25.089Z</time></trkpt><trkpt lat="45.511335" lon="13.9645083"><ele>596.0</ele><time>2026-04-30T13:00:26.097Z</time></trkpt><trkpt lat="45.5112367" lon="13.9646483"><ele>596.0</ele><time>2026-04-30T13:00:27.035Z</time></trkpt><trkpt lat="45.5111367" lon="13.964795"><ele>596.0</ele><time>2026-04-30T13:00:28.109Z</time></trkpt><trkpt lat="45.5110383" lon="13.964935"><ele>596.0</ele><time>2026-04-30T13:00:29.048Z</time></trkpt><trkpt lat="45.5109417" lon="13.9650617"><ele>596.0</ele><time>2026-04-30T13:00:30.122Z</time></trkpt><trkpt lat="45.5108433" lon="13.9651633"><ele>596.6</ele><time>2026-04-30T13:00:31.062Z</time></trkpt><trkpt lat="45.5107383" lon="13.9652383"><ele>597.2</ele><time>2026-04-30T13:00:32.068Z</time></trkpt><trkpt lat="45.5106317" lon="13.9652883"><ele>597.8</ele><time>2026-04-30T13:00:33.075Z</time></trkpt><trkpt lat="45.5105367" lon="13.96533"><ele>598.4</ele><time>2026-04-30T13:00:34.082Z</time></trkpt><trkpt lat="45.5104533" lon="13.965395"><ele>599.0</ele><time>2026-04-30T13:00:35.089Z</time></trkpt><trkpt lat="45.5103867" lon="13.965495"><ele>599.0</ele><time>2026-04-30T13:00:36.095Z</time></trkpt><trkpt lat="45.510325" lon="13.9656183"><ele>599.0</ele><time>2026-04-30T13:00:37.034Z</time></trkpt><trkpt lat="45.5102733" lon="13.9657533"><ele>599.0</ele><time>2026-04-30T13:00:38.108Z</time></trkpt><trkpt lat="45.510225" lon="13.9658917"><ele>599.0</ele><time>2026-04-30T13:00:39.049Z</time></trkpt><trkpt lat="45.5101783" lon="13.9660183"><ele>599.0</ele><time>2026-04-30T13:00:40.122Z</time></trkpt><trkpt lat="45.51013" lon="13.966125"><ele>601.6666666666666</ele><time>2026-04-30T13:00:41.061Z</time></trkpt><trkpt lat="45.5100717" lon="13.9662167"><ele>604.3333333333333</ele><time>2026-04-30T13:00:42.068Z</time></trkpt><trkpt lat="45.5100033" lon="13.96628"><ele>607.0</ele><time>2026-04-30T13:00:43.074Z</time></trkpt><trkpt lat="45.5099183" lon="13.9663167"><ele>609.6666666666666</ele><time>2026-04-30T13:00:44.081Z</time></trkpt><trkpt lat="45.509825" lon="13.966345"><ele>612.3333333333334</ele><time>2026-04-30T13:00:45.156Z</time></trkpt><trkpt lat="45.509735" lon="13.9663867"><ele>615.0</ele><time>2026-04-30T13:00:46.094Z</time></trkpt><trkpt lat="45.509665" lon="13.966465"><ele>615.0</ele><time>2026-04-30T13:00:47.035Z</time></trkpt><trkpt lat="45.509615" lon="13.96658"><ele>615.0</ele><time>2026-04-30T13:00:48.108Z</time></trkpt><trkpt lat="45.5095883" lon="13.96672"><ele>615.0</ele><time>2026-04-30T13:00:49.048Z</time></trkpt><trkpt lat="45.5095717" lon="13.966875"><ele>615.0</ele><time>2026-04-30T13:00:50.122Z</time></trkpt><trkpt lat="45.5095683" lon="13.9670383"><ele>615.0</ele><time>2026-04-30T13:00:51.06Z</time></trkpt><trkpt lat="45.50957" lon="13.9672083"><ele>614.2</ele><time>2026-04-30T13:00:52.067Z</time></trkpt><trkpt lat="45.5095733" lon="13.96737"><ele>613.4</ele><time>2026-04-30T13:00:53.141Z</time></trkpt><trkpt lat="45.5095633" lon="13.967515"><ele>612.6</ele><time>2026-04-30T13:00:54.08Z</time></trkpt><trkpt lat="45.5095367" lon="13.9676483"><ele>611.8</ele><time>2026-04-30T13:00:55.154Z</time></trkpt><trkpt lat="45.5094883" lon="13.967775"><ele>611.0</ele><time>2026-04-30T13:00:56.093Z</time></trkpt><trkpt lat="45.5094283" lon="13.967895"><ele>611.0</ele><time>2026-04-30T13:00:57.034Z</time></trkpt><trkpt lat="45.50937" lon="13.9680167"><ele>611.0</ele><time>2026-04-30T13:00:58.108Z</time></trkpt><trkpt lat="45.5093267" lon="13.968145"><ele>611.0</ele><time>2026-04-30T13:00:59.047Z</time></trkpt><trkpt lat="45.5093067" lon="13.9682783"><ele>611.0</ele><time>2026-04-30T13:01:00.12Z</time></trkpt><trkpt lat="45.5093117" lon="13.968415"><ele>611.0</ele><time>2026-04-30T13:01:01.126Z</time></trkpt><trkpt lat="45.5093383" lon="13.9685517"><ele>612.6</ele><time>2026-04-30T13:01:02.067Z</time></trkpt><trkpt lat="45.5093833" lon="13.9686783"><ele>614.2</ele><time>2026-04-30T13:01:03.14Z</time></trkpt><trkpt lat="45.509435" lon="13.9688067"><ele>615.8</ele><time>2026-04-30T13:01:04.08Z</time></trkpt><trkpt lat="45.5094733" lon="13.9689383"><ele>617.4</ele><time>2026-04-30T13:01:05.153Z</time></trkpt><trkpt lat="45.5094833" lon="13.9690717"><ele>619.0</ele><time>2026-04-30T13:01:06.093Z</time></trkpt><trkpt lat="45.5094617" lon="13.9691967"><ele>622.4</ele><time>2026-04-30T13:01:07.032Z</time></trkpt><trkpt lat="45.5094117" lon="13.9693117"><ele>625.8</ele><time>2026-04-30T13:01:08.107Z</time></trkpt><trkpt lat="45.5093333" lon="13.9693983"><ele>629.2</ele><time>2026-04-30T13:01:09.045Z</time></trkpt><trkpt lat="45.5092433" lon="13.9694767"><ele>632.6</ele><time>2026-04-30T13:01:10.12Z</time></trkpt><trkpt lat="45.50914" lon="13.969555"><ele>636.0</ele><time>2026-04-30T13:01:11.127Z</time></trkpt><trkpt lat="45.5090333" lon="13.9696367"><ele>636.0</ele><time>2026-04-30T13:01:12.065Z</time></trkpt><trkpt lat="45.50892" lon="13.96972"><ele>636.0</ele><time>2026-04-30T13:01:13.139Z</time></trkpt><trkpt lat="45.5088017" lon="13.9698"><ele>636.0</ele><time>2026-04-30T13:01:14.079Z</time></trkpt><trkpt lat="45.5086817" lon="13.96985"><ele>636.0</ele><time>2026-04-30T13:01:15.152Z</time></trkpt><trkpt lat="45.50856" lon="13.9698683"><ele>634.25</ele><time>2026-04-30T13:01:16.092Z</time></trkpt><trkpt lat="45.50844" lon="13.9698733"><ele>632.5</ele><time>2026-04-30T13:01:17.031Z</time></trkpt><trkpt lat="45.5083283" lon="13.9699017"><ele>630.75</ele><time>2026-04-30T13:01:18.105Z</time></trkpt><trkpt lat="45.508225" lon="13.969975"><ele>629.0</ele><time>2026-04-30T13:01:19.113Z</time></trkpt><trkpt lat="45.5081317" lon="13.9700733"><ele>628.75</ele><time>2026-04-30T13:01:20.118Z</time></trkpt><trkpt lat="45.50804" lon="13.9701933"><ele>628.5</ele><time>2026-04-30T13:01:21.125Z</time></trkpt><trkpt lat="45.5079467" lon="13.9703233"><ele>628.25</ele><time>2026-04-30T13:01:22.064Z</time></trkpt><trkpt lat="45.50785" lon="13.9704617"><ele>628.0</ele><time>2026-04-30T13:01:23.139Z</time></trkpt><trkpt lat="45.50775" lon="13.9706033"><ele>628.0</ele><time>2026-04-30T13:01:24.079Z</time></trkpt><trkpt lat="45.5076483" lon="13.9707483"><ele>628.0</ele><time>2026-04-30T13:01:25.151Z</time></trkpt><trkpt lat="45.50755" lon="13.9709017"><ele>628.0</ele><time>2026-04-30T13:01:26.091Z</time></trkpt><trkpt lat="45.507455" lon="13.9710517"><ele>628.0</ele><time>2026-04-30T13:01:27.099Z</time></trkpt><trkpt lat="45.5073717" lon="13.971215"><ele>631.25</ele><time>2026-04-30T13:01:28.105Z</time></trkpt><trkpt lat="45.5073017" lon="13.97139"><ele>634.5</ele><time>2026-04-30T13:01:29.112Z</time></trkpt><trkpt lat="45.50724" lon="13.9715683"><ele>637.75</ele><time>2026-04-30T13:01:30.119Z</time></trkpt><trkpt lat="45.5071817" lon="13.9717467"><ele>641.0</ele><time>2026-04-30T13:01:31.124Z</time></trkpt><trkpt lat="45.507125" lon="13.9719283"><ele>639.25</ele><time>2026-04-30T13:01:32.064Z</time></trkpt><trkpt lat="45.5070683" lon="13.9721083"><ele>637.5</ele><time>2026-04-30T13:01:33.138Z</time></trkpt><trkpt lat="45.5070133" lon="13.972285"><ele>635.75</ele><time>2026-04-30T13:01:34.077Z</time></trkpt><trkpt lat="45.5069667" lon="13.972465"><ele>634.0</ele><time>2026-04-30T13:01:35.151Z</time></trkpt><trkpt lat="45.506925" lon="13.972645"><ele>634.0</ele><time>2026-04-30T13:01:36.09Z</time></trkpt><trkpt lat="45.50689" lon="13.97283"><ele>634.0</ele><time>2026-04-30T13:01:37.097Z</time></trkpt><trkpt lat="45.50686" lon="13.9730183"><ele>634.0</ele><time>2026-04-30T13:01:38.103Z</time></trkpt><trkpt lat="45.5068383" lon="13.9732133"><ele>634.0</ele><time>2026-04-30T13:01:39.11Z</time></trkpt><trkpt lat="45.506815" lon="13.9734067"><ele>635.5</ele><time>2026-04-30T13:01:40.117Z</time></trkpt><trkpt lat="45.5067883" lon="13.9735983"><ele>637.0</ele><time>2026-04-30T13:01:41.123Z</time></trkpt><trkpt lat="45.506765" lon="13.9737883"><ele>638.5</ele><time>2026-04-30T13:01:42.063Z</time></trkpt><trkpt lat="45.5067367" lon="13.9739783"><ele>640.0</ele><time>2026-04-30T13:01:43.138Z</time></trkpt><trkpt lat="45.5067017" lon="13.97416"><ele>643.0</ele><time>2026-04-30T13:01:44.076Z</time></trkpt><trkpt lat="45.506655" lon="13.9743367"><ele>646.0</ele><time>2026-04-30T13:01:45.15Z</time></trkpt><trkpt lat="45.50659" lon="13.9745033"><ele>649.0</ele><time>2026-04-30T13:01:46.089Z</time></trkpt><trkpt lat="45.5065083" lon="13.9746583"><ele>652.0</ele><time>2026-04-30T13:01:47.096Z</time></trkpt><trkpt lat="45.5064233" lon="13.974815"><ele>652.0</ele><time>2026-04-30T13:01:48.104Z</time></trkpt><trkpt lat="45.5063433" lon="13.9749783"><ele>652.0</ele><time>2026-04-30T13:01:49.109Z</time></trkpt><trkpt lat="45.5062767" lon="13.9751517"><ele>652.0</ele><time>2026-04-30T13:01:50.05Z</time></trkpt><trkpt lat="45.5062183" lon="13.9753233"><ele>652.0</ele><time>2026-04-30T13:01:51.124Z</time></trkpt><trkpt lat="45.5061667" lon="13.9754867"><ele>648.75</ele><time>2026-04-30T13:01:52.062Z</time></trkpt><trkpt lat="45.506125" lon="13.9756433"><ele>645.5</ele><time>2026-04-30T13:01:53.137Z</time></trkpt><trkpt lat="45.5060917" lon="13.9758083"><ele>642.25</ele><time>2026-04-30T13:01:54.076Z</time></trkpt><trkpt lat="45.50607" lon="13.9759867"><ele>639.0</ele><time>2026-04-30T13:01:55.082Z</time></trkpt><trkpt lat="45.50606" lon="13.97618"><ele>639.0</ele><time>2026-04-30T13:01:56.089Z</time></trkpt><trkpt lat="45.5060517" lon="13.976385"><ele>639.0</ele><time>2026-04-30T13:01:57.095Z</time></trkpt><trkpt lat="45.50604" lon="13.9765933"><ele>639.0</ele><time>2026-04-30T13:01:58.103Z</time></trkpt><trkpt lat="45.5060283" lon="13.9768067"><ele>639.0</ele><time>2026-04-30T13:01:59.109Z</time></trkpt><trkpt lat="45.50601" lon="13.9770117"><ele>641.5</ele><time>2026-04-30T13:02:00.048Z</time></trkpt><trkpt lat="45.50599" lon="13.9772117"><ele>644.0</ele><time>2026-04-30T13:02:01.122Z</time></trkpt><trkpt lat="45.5059533" lon="13.9773983"><ele>646.5</ele><time>2026-04-30T13:02:02.061Z</time></trkpt><trkpt lat="45.5058933" lon="13.9775717"><ele>649.0</ele><time>2026-04-30T13:02:03.136Z</time></trkpt><trkpt lat="45.5058117" lon="13.977735"><ele>653.0</ele><time>2026-04-30T13:02:04.075Z</time></trkpt><trkpt lat="45.50572" lon="13.9779017"><ele>657.0</ele><time>2026-04-30T13:02:05.082Z</time></trkpt><trkpt lat="45.50563" lon="13.9780667"><ele>661.0</ele><time>2026-04-30T13:02:06.089Z</time></trkpt><trkpt lat="45.5055483" lon="13.9782283"><ele>665.0</ele><time>2026-04-30T13:02:07.095Z</time></trkpt><trkpt lat="45.505475" lon="13.9783967"><ele>669.3333333333333</ele><time>2026-04-30T13:02:08.101Z</time></trkpt><trkpt lat="45.505415" lon="13.9785883"><ele>673.6666666666666</ele><time>2026-04-30T13:02:09.109Z</time></trkpt><trkpt lat="45.5053667" lon="13.9787983"><ele>678.0</ele><time>2026-04-30T13:02:10.047Z</time></trkpt><trkpt lat="45.5053233" lon="13.9790183"><ele>670.3333333333334</ele><time>2026-04-30T13:02:11.121Z</time></trkpt><trkpt lat="45.5052833" lon="13.9792433"><ele>662.6666666666667</ele><time>2026-04-30T13:02:12.061Z</time></trkpt><trkpt lat="45.5052433" lon="13.9794633"><ele>655.0</ele><time>2026-04-30T13:02:13.134Z</time></trkpt><trkpt lat="45.505195" lon="13.9796667"><ele>655.0</ele><time>2026-04-30T13:02:14.075Z</time></trkpt><trkpt lat="45.5051283" lon="13.9798483"><ele>655.0</ele><time>2026-04-30T13:02:15.08Z</time></trkpt><trkpt lat="45.5050383" lon="13.9800067"><ele>655.0</ele><time>2026-04-30T13:02:16.087Z</time></trkpt><trkpt lat="45.50494" lon="13.9801617"><ele>655.0</ele><time>2026-04-30T13:02:17.094Z</time></trkpt><trkpt lat="45.5048483" lon="13.98033"><ele>659.6666666666667</ele><time>2026-04-30T13:02:18.1Z</time></trkpt><trkpt lat="45.504765" lon="13.9805117"><ele>664.3333333333334</ele><time>2026-04-30T13:02:19.108Z</time></trkpt><trkpt lat="45.5046883" lon="13.9807067"><ele>669.0</ele><time>2026-04-30T13:02:20.048Z</time></trkpt><trkpt lat="45.5046217" lon="13.9809117"><ele>661.0</ele><time>2026-04-30T13:02:21.121Z</time></trkpt><trkpt lat="45.5045567" lon="13.9811267"><ele>653.0</ele><time>2026-04-30T13:02:22.06Z</time></trkpt><trkpt lat="45.5044983" lon="13.9813483"><ele>645.0</ele><time>2026-04-30T13:02:23.135Z</time></trkpt><trkpt lat="45.5044467" lon="13.9815767"><ele>646.3333333333334</ele><time>2026-04-30T13:02:24.074Z</time></trkpt><trkpt lat="45.504405" lon="13.9818133"><ele>647.6666666666667</ele><time>2026-04-30T13:02:25.081Z</time></trkpt><trkpt lat="45.50437" lon="13.9820617"><ele>649.0</ele><time>2026-04-30T13:02:26.086Z</time></trkpt><trkpt lat="45.5043367" lon="13.9823183"><ele>649.6666666666667</ele><time>2026-04-30T13:02:27.093Z</time></trkpt><trkpt lat="45.5043067" lon="13.98257"><ele>650.3333333333334</ele><time>2026-04-30T13:02:28.101Z</time></trkpt><trkpt lat="45.5042767" lon="13.98281"><ele>651.0</ele><time>2026-04-30T13:02:29.106Z</time></trkpt><trkpt lat="45.5042517" lon="13.9830333"><ele>651.0</ele><time>2026-04-30T13:02:30.046Z</time></trkpt><trkpt lat="45.50423" lon="13.9832483"><ele>651.0</ele><time>2026-04-30T13:02:31.119Z</time></trkpt><trkpt lat="45.50421" lon="13.9834667"><ele>651.0</ele><time>2026-04-30T13:02:32.06Z</time></trkpt><trkpt lat="45.5041867" lon="13.98369"><ele>652.0</ele><time>2026-04-30T13:02:33.133Z</time></trkpt><trkpt lat="45.504155" lon="13.9839183"><ele>653.0</ele><time>2026-04-30T13:02:34.072Z</time></trkpt><trkpt lat="45.5041133" lon="13.98415"><ele>654.0</ele><time>2026-04-30T13:02:35.079Z</time></trkpt><trkpt lat="45.5040633" lon="13.98438"><ele>654.3333333333334</ele><time>2026-04-30T13:02:36.087Z</time></trkpt><trkpt lat="45.5040133" lon="13.984615"><ele>654.6666666666667</ele><time>2026-04-30T13:02:37.093Z</time></trkpt><trkpt lat="45.5039617" lon="13.9848567"><ele>655.0</ele><time>2026-04-30T13:02:38.1Z</time></trkpt><trkpt lat="45.5039183" lon="13.9851"><ele>656.3333333333334</ele><time>2026-04-30T13:02:39.105Z</time></trkpt><trkpt lat="45.5038767" lon="13.985345"><ele>657.6666666666666</ele><time>2026-04-30T13:02:40.046Z</time></trkpt><trkpt lat="45.5038367" lon="13.9855867"><ele>659.0</ele><time>2026-04-30T13:02:41.119Z</time></trkpt><trkpt lat="45.5037967" lon="13.985825"><ele>659.3333333333333</ele><time>2026-04-30T13:02:42.058Z</time></trkpt><trkpt lat="45.503755" lon="13.9860567"><ele>659.6666666666666</ele><time>2026-04-30T13:02:43.133Z</time></trkpt><trkpt lat="45.503715" lon="13.98628"><ele>660.0</ele><time>2026-04-30T13:02:44.071Z</time></trkpt><trkpt lat="45.503685" lon="13.9864983"><ele>652.75</ele><time>2026-04-30T13:02:45.078Z</time></trkpt><trkpt lat="45.5036717" lon="13.9867117"><ele>645.5</ele><time>2026-04-30T13:02:46.085Z</time></trkpt><trkpt lat="45.5036767" lon="13.9869217"><ele>638.25</ele><time>2026-04-30T13:02:47.091Z</time></trkpt><trkpt lat="45.50369" lon="13.98713"><ele>631.0</ele><time>2026-04-30T13:02:48.098Z</time></trkpt><trkpt lat="45.5037" lon="13.9873267"><ele>631.0</ele><time>2026-04-30T13:02:49.105Z</time></trkpt><trkpt lat="45.5036883" lon="13.98751"><ele>631.0</ele><time>2026-04-30T13:02:50.044Z</time></trkpt><trkpt lat="45.5036417" lon="13.9876683"><ele>631.0</ele><time>2026-04-30T13:02:51.119Z</time></trkpt><trkpt lat="45.5035717" lon="13.9878"><ele>631.0</ele><time>2026-04-30T13:02:52.057Z</time></trkpt><trkpt lat="45.5034983" lon="13.9879333"><ele>632.5</ele><time>2026-04-30T13:02:53.132Z</time></trkpt><trkpt lat="45.5034367" lon="13.9880867"><ele>634.0</ele><time>2026-04-30T13:02:54.072Z</time></trkpt><trkpt lat="45.503395" lon="13.9882633"><ele>635.5</ele><time>2026-04-30T13:02:55.078Z</time></trkpt><trkpt lat="45.5033683" lon="13.98846"><ele>637.0</ele><time>2026-04-30T13:02:56.085Z</time></trkpt><trkpt lat="45.5033517" lon="13.9886717"><ele>637.0</ele><time>2026-04-30T13:02:57.092Z</time></trkpt><trkpt lat="45.5033517" lon="13.988895"><ele>637.0</ele><time>2026-04-30T13:02:58.097Z</time></trkpt><trkpt lat="45.50336" lon="13.9891233"><ele>637.0</ele><time>2026-04-30T13:02:59.105Z</time></trkpt><trkpt lat="45.5033717" lon="13.9893517"><ele>637.0</ele><time>2026-04-30T13:03:00.043Z</time></trkpt><trkpt lat="45.5033783" lon="13.9895783"><ele>637.0</ele><time>2026-04-30T13:03:01.118Z</time></trkpt><trkpt lat="45.5033717" lon="13.9898117"><ele>637.0</ele><time>2026-04-30T13:03:02.058Z</time></trkpt><trkpt lat="45.5033467" lon="13.9900467"><ele>637.0</ele><time>2026-04-30T13:03:03.13Z</time></trkpt><trkpt lat="45.503315" lon="13.9902767"><ele>637.0</ele><time>2026-04-30T13:03:04.07Z</time></trkpt><trkpt lat="45.50328" lon="13.9904983"><ele>637.0</ele><time>2026-04-30T13:03:05.078Z</time></trkpt><trkpt lat="45.5032417" lon="13.9907167"><ele>639.3333333333334</ele><time>2026-04-30T13:03:06.083Z</time></trkpt><trkpt lat="45.5031983" lon="13.99093"><ele>641.6666666666666</ele><time>2026-04-30T13:03:07.091Z</time></trkpt><trkpt lat="45.503145" lon="13.9911367"><ele>644.0</ele><time>2026-04-30T13:03:08.164Z</time></trkpt><trkpt lat="45.5030833" lon="13.9913283"><ele>644.0</ele><time>2026-04-30T13:03:09.104Z</time></trkpt><trkpt lat="45.5030167" lon="13.9915133"><ele>644.0</ele><time>2026-04-30T13:03:10.043Z</time></trkpt><trkpt lat="45.5029483" lon="13.99169"><ele>644.0</ele><time>2026-04-30T13:03:11.116Z</time></trkpt><trkpt lat="45.5028783" lon="13.9918617"><ele>644.0</ele><time>2026-04-30T13:03:12.057Z</time></trkpt><trkpt lat="45.50281" lon="13.99203"><ele>643.25</ele><time>2026-04-30T13:03:13.13Z</time></trkpt><trkpt lat="45.5027383" lon="13.9921933"><ele>642.5</ele><time>2026-04-30T13:03:14.069Z</time></trkpt><trkpt lat="45.5026617" lon="13.9923517"><ele>641.75</ele><time>2026-04-30T13:03:15.076Z</time></trkpt><trkpt lat="45.5025783" lon="13.992505"><ele>641.0</ele><time>2026-04-30T13:03:16.151Z</time></trkpt><trkpt lat="45.5024883" lon="13.992655"><ele>641.0</ele><time>2026-04-30T13:03:17.089Z</time></trkpt><trkpt lat="45.5023883" lon="13.9928033"><ele>641.0</ele><time>2026-04-30T13:03:18.163Z</time></trkpt><trkpt lat="45.50228" lon="13.9929467"><ele>641.0</ele><time>2026-04-30T13:03:19.102Z</time></trkpt><trkpt lat="45.502165" lon="13.99309"><ele>641.0</ele><time>2026-04-30T13:03:20.043Z</time></trkpt><trkpt lat="45.502045" lon="13.9932317"><ele>642.6666666666666</ele><time>2026-04-30T13:03:21.116Z</time></trkpt><trkpt lat="45.5019217" lon="13.9933717"><ele>644.3333333333334</ele><time>2026-04-30T13:03:22.055Z</time></trkpt><trkpt lat="45.50179" lon="13.9935033"><ele>646.0</ele><time>2026-04-30T13:03:23.129Z</time></trkpt><trkpt lat="45.50166" lon="13.9936333"><ele>646.0</ele><time>2026-04-30T13:03:24.136Z</time></trkpt><trkpt lat="45.5015367" lon="13.9937683"><ele>646.0</ele><time>2026-04-30T13:03:25.075Z</time></trkpt><trkpt lat="45.501425" lon="13.9939217"><ele>646.0</ele><time>2026-04-30T13:03:26.149Z</time></trkpt><trkpt lat="45.5013233" lon="13.99409"><ele>647.0</ele><time>2026-04-30T13:03:27.089Z</time></trkpt><trkpt lat="45.501225" lon="13.9942633"><ele>648.0</ele><time>2026-04-30T13:03:28.028Z</time></trkpt><trkpt lat="45.50113" lon="13.99443"><ele>649.0</ele><time>2026-04-30T13:03:29.102Z</time></trkpt><trkpt lat="45.5010367" lon="13.9945783"><ele>650.0</ele><time>2026-04-30T13:03:30.042Z</time></trkpt><trkpt lat="45.5009433" lon="13.99471"><ele>650.0</ele><time>2026-04-30T13:03:31.115Z</time></trkpt><trkpt lat="45.50084" lon="13.99483"><ele>650.0</ele><time>2026-04-30T13:03:32.122Z</time></trkpt><trkpt lat="45.5007233" lon="13.99494"><ele>650.0</ele><time>2026-04-30T13:03:33.062Z</time></trkpt><trkpt lat="45.5006" lon="13.9950433"><ele>650.0</ele><time>2026-04-30T13:03:34.136Z</time></trkpt><trkpt lat="45.5004717" lon="13.9951467"><ele>652.3333333333333</ele><time>2026-04-30T13:03:35.074Z</time></trkpt><trkpt lat="45.5003367" lon="13.9952533"><ele>654.6666666666666</ele><time>2026-04-30T13:03:36.148Z</time></trkpt><trkpt lat="45.5001983" lon="13.9953617"><ele>657.0</ele><time>2026-04-30T13:03:37.087Z</time></trkpt><trkpt lat="45.5000583" lon="13.995475"><ele>657.0</ele><time>2026-04-30T13:03:38.027Z</time></trkpt><trkpt lat="45.4999217" lon="13.99559"><ele>657.0</ele><time>2026-04-30T13:03:39.102Z</time></trkpt><trkpt lat="45.499795" lon="13.9957067"><ele>657.0</ele><time>2026-04-30T13:03:40.04Z</time></trkpt><trkpt lat="45.49968" lon="13.9958283"><ele>656.25</ele><time>2026-04-30T13:03:41.115Z</time></trkpt><trkpt lat="45.4995717" lon="13.9959567"><ele>655.5</ele><time>2026-04-30T13:03:42.122Z</time></trkpt><trkpt lat="45.4994717" lon="13.9961"><ele>654.75</ele><time>2026-04-30T13:03:43.061Z</time></trkpt><trkpt lat="45.4993783" lon="13.99625"><ele>654.0</ele><time>2026-04-30T13:03:44.134Z</time></trkpt><trkpt lat="45.4992867" lon="13.9964033"><ele>654.0</ele><time>2026-04-30T13:03:45.074Z</time></trkpt><trkpt lat="45.499195" lon="13.9965533"><ele>654.0</ele><time>2026-04-30T13:03:46.148Z</time></trkpt><trkpt lat="45.4991017" lon="13.9967017"><ele>654.0</ele><time>2026-04-30T13:03:47.087Z</time></trkpt><trkpt lat="45.4990117" lon="13.996855"><ele>654.0</ele><time>2026-04-30T13:03:48.027Z</time></trkpt><trkpt lat="45.4989233" lon="13.9970117"><ele>652.5</ele><time>2026-04-30T13:03:49.1Z</time></trkpt><trkpt lat="45.4988317" lon="13.9971617"><ele>651.0</ele><time>2026-04-30T13:03:50.108Z</time></trkpt><trkpt lat="45.4987383" lon="13.9973117"><ele>649.5</ele><time>2026-04-30T13:03:51.113Z</time></trkpt><trkpt lat="45.498645" lon="13.9974617"><ele>648.0</ele><time>2026-04-30T13:03:52.12Z</time></trkpt><trkpt lat="45.4985567" lon="13.9976083"><ele>651.0</ele><time>2026-04-30T13:03:53.06Z</time></trkpt><trkpt lat="45.4984767" lon="13.99774"><ele>654.0</ele><time>2026-04-30T13:03:54.133Z</time></trkpt><trkpt lat="45.4983917" lon="13.997855"><ele>657.0</ele><time>2026-04-30T13:03:55.073Z</time></trkpt><trkpt lat="45.4983017" lon="13.99794"><ele>660.0</ele><time>2026-04-30T13:03:56.147Z</time></trkpt><trkpt lat="45.4982083" lon="13.998"><ele>660.0</ele><time>2026-04-30T13:03:57.086Z</time></trkpt><trkpt lat="45.49811" lon="13.9980267"><ele>660.0</ele><time>2026-04-30T13:03:58.093Z</time></trkpt><trkpt lat="45.497995" lon="13.998035"><ele>660.0</ele><time>2026-04-30T13:03:59.1Z</time></trkpt><trkpt lat="45.4978817" lon="13.9980433"><ele>660.0</ele><time>2026-04-30T13:04:00.107Z</time></trkpt><trkpt lat="45.4977633" lon="13.998065"><ele>660.0</ele><time>2026-04-30T13:04:01.112Z</time></trkpt><trkpt lat="45.4976517" lon="13.9981117"><ele>660.75</ele><time>2026-04-30T13:04:02.119Z</time></trkpt><trkpt lat="45.4975533" lon="13.9981883"><ele>661.5</ele><time>2026-04-30T13:04:03.059Z</time></trkpt><trkpt lat="45.4974733" lon="13.9982967"><ele>662.25</ele><time>2026-04-30T13:04:04.132Z</time></trkpt><trkpt lat="45.4974083" lon="13.9984417"><ele>663.0</ele><time>2026-04-30T13:04:05.073Z</time></trkpt><trkpt lat="45.4973533" lon="13.998605"><ele>663.0</ele><time>2026-04-30T13:04:06.146Z</time></trkpt><trkpt lat="45.4973017" lon="13.9987717"><ele>663.0</ele><time>2026-04-30T13:04:07.085Z</time></trkpt><trkpt lat="45.4972483" lon="13.9989483"><ele>663.0</ele><time>2026-04-30T13:04:08.092Z</time></trkpt><trkpt lat="45.4971933" lon="13.9991283"><ele>663.0</ele><time>2026-04-30T13:04:09.098Z</time></trkpt><trkpt lat="45.4971333" lon="13.9993017"><ele>661.5</ele><time>2026-04-30T13:04:10.106Z</time></trkpt><trkpt lat="45.4970667" lon="13.9994617"><ele>660.0</ele><time>2026-04-30T13:04:11.112Z</time></trkpt><trkpt lat="45.4969917" lon="13.9996117"><ele>658.5</ele><time>2026-04-30T13:04:12.119Z</time></trkpt><trkpt lat="45.4969067" lon="13.9997533"><ele>657.0</ele><time>2026-04-30T13:04:13.058Z</time></trkpt><trkpt lat="45.496825" lon="13.9998883"><ele>657.0</ele><time>2026-04-30T13:04:14.132Z</time></trkpt><trkpt lat="45.4967533" lon="14.0000217"><ele>657.0</ele><time>2026-04-30T13:04:15.071Z</time></trkpt><trkpt lat="45.4966933" lon="14.000155"><ele>657.0</ele><time>2026-04-30T13:04:16.146Z</time></trkpt><trkpt lat="45.49665" lon="14.0003017"><ele>657.0</ele><time>2026-04-30T13:04:17.084Z</time></trkpt><trkpt lat="45.4966217" lon="14.00046"><ele>657.0</ele><time>2026-04-30T13:04:18.091Z</time></trkpt><trkpt lat="45.4966067" lon="14.000625"><ele>657.0</ele><time>2026-04-30T13:04:19.099Z</time></trkpt><trkpt lat="45.4965967" lon="14.000795"><ele>657.0</ele><time>2026-04-30T13:04:20.104Z</time></trkpt><trkpt lat="45.4965917" lon="14.0009667"><ele>657.0</ele><time>2026-04-30T13:04:21.111Z</time></trkpt><trkpt lat="45.4965983" lon="14.001145"><ele>658.25</ele><time>2026-04-30T13:04:22.118Z</time></trkpt><trkpt lat="45.4966067" lon="14.0013317"><ele>659.5</ele><time>2026-04-30T13:04:23.057Z</time></trkpt><trkpt lat="45.4966167" lon="14.001525"><ele>660.75</ele><time>2026-04-30T13:04:24.131Z</time></trkpt><trkpt lat="45.4966283" lon="14.0017233"><ele>662.0</ele><time>2026-04-30T13:04:25.07Z</time></trkpt><trkpt lat="45.496645" lon="14.0019217"><ele>662.5</ele><time>2026-04-30T13:04:26.145Z</time></trkpt><trkpt lat="45.4966667" lon="14.00212"><ele>663.0</ele><time>2026-04-30T13:04:27.084Z</time></trkpt><trkpt lat="45.4966967" lon="14.0023133"><ele>663.5</ele><time>2026-04-30T13:04:28.09Z</time></trkpt><trkpt lat="45.49673" lon="14.0025"><ele>664.0</ele><time>2026-04-30T13:04:29.098Z</time></trkpt><trkpt lat="45.4967517" lon="14.0026783"><ele>664.5</ele><time>2026-04-30T13:04:30.103Z</time></trkpt><trkpt lat="45.4967533" lon="14.0028467"><ele>665.0</ele><time>2026-04-30T13:04:31.11Z</time></trkpt><trkpt lat="45.49675" lon="14.0030167"><ele>665.5</ele><time>2026-04-30T13:04:32.118Z</time></trkpt><trkpt lat="45.49676" lon="14.00318"><ele>666.0</ele><time>2026-04-30T13:04:33.056Z</time></trkpt><trkpt lat="45.4967917" lon="14.003335"><ele>666.25</ele><time>2026-04-30T13:04:34.13Z</time></trkpt><trkpt lat="45.49684" lon="14.0034867"><ele>666.5</ele><time>2026-04-30T13:04:35.07Z</time></trkpt><trkpt lat="45.4969" lon="14.003635"><ele>666.75</ele><time>2026-04-30T13:04:36.143Z</time></trkpt><trkpt lat="45.4969683" lon="14.003775"><ele>667.0</ele><time>2026-04-30T13:04:37.083Z</time></trkpt><trkpt lat="45.4970467" lon="14.0039"><ele>669.5</ele><time>2026-04-30T13:04:38.089Z</time></trkpt><trkpt lat="45.4971383" lon="14.00401"><ele>672.0</ele><time>2026-04-30T13:04:39.096Z</time></trkpt><trkpt lat="45.4972417" lon="14.0041033"><ele>674.5</ele><time>2026-04-30T13:04:40.103Z</time></trkpt><trkpt lat="45.497355" lon="14.0041883"><ele>677.0</ele><time>2026-04-30T13:04:41.11Z</time></trkpt><trkpt lat="45.4974717" lon="14.00427"><ele>677.0</ele><time>2026-04-30T13:04:42.116Z</time></trkpt><trkpt lat="45.4975933" lon="14.0043517"><ele>677.0</ele><time>2026-04-30T13:04:43.057Z</time></trkpt><trkpt lat="45.4977167" lon="14.004435"><ele>677.0</ele><time>2026-04-30T13:04:44.129Z</time></trkpt><trkpt lat="45.4978383" lon="14.004525"><ele>677.0</ele><time>2026-04-30T13:04:45.07Z</time></trkpt><trkpt lat="45.49796" lon="14.004625"><ele>677.25</ele><time>2026-04-30T13:04:46.143Z</time></trkpt><trkpt lat="45.4980733" lon="14.0047383"><ele>677.5</ele><time>2026-04-30T13:04:47.082Z</time></trkpt><trkpt lat="45.4981783" lon="14.0048533"><ele>677.75</ele><time>2026-04-30T13:04:48.089Z</time></trkpt><trkpt lat="45.4982767" lon="14.004975"><ele>678.0</ele><time>2026-04-30T13:04:49.095Z</time></trkpt><trkpt lat="45.498375" lon="14.0051083"><ele>678.0</ele><time>2026-04-30T13:04:50.102Z</time></trkpt><trkpt lat="45.4984633" lon="14.005245"><ele>678.0</ele><time>2026-04-30T13:04:51.11Z</time></trkpt><trkpt lat="45.4985367" lon="14.0053817"><ele>678.0</ele><time>2026-04-30T13:04:52.116Z</time></trkpt><trkpt lat="45.4986017" lon="14.0055183"><ele>678.0</ele><time>2026-04-30T13:04:53.055Z</time></trkpt><trkpt lat="45.4986567" lon="14.0056517"><ele>678.0</ele><time>2026-04-30T13:04:54.129Z</time></trkpt><trkpt lat="45.4987067" lon="14.0057783"><ele>678.0</ele><time>2026-04-30T13:04:55.068Z</time></trkpt><trkpt lat="45.4987533" lon="14.0058983"><ele>678.0</ele><time>2026-04-30T13:04:56.075Z</time></trkpt><trkpt lat="45.498805" lon="14.0060133"><ele>678.0</ele><time>2026-04-30T13:04:57.081Z</time></trkpt><trkpt lat="45.4988533" lon="14.0061217"><ele>678.0</ele><time>2026-04-30T13:04:58.088Z</time></trkpt><trkpt lat="45.4989017" lon="14.0062217"><ele>678.7142857142857</ele><time>2026-04-30T13:04:59.095Z</time></trkpt><trkpt lat="45.4989483" lon="14.006315"><ele>679.4285714285714</ele><time>2026-04-30T13:05:00.101Z</time></trkpt><trkpt lat="45.498995" lon="14.0064017"><ele>680.1428571428571</ele><time>2026-04-30T13:05:01.042Z</time></trkpt><trkpt lat="45.499035" lon="14.0064817"><ele>680.8571428571429</ele><time>2026-04-30T13:05:02.114Z</time></trkpt><trkpt lat="45.4990767" lon="14.0065583"><ele>681.5714285714286</ele><time>2026-04-30T13:05:03.055Z</time></trkpt><trkpt lat="45.4991183" lon="14.0066317"><ele>682.2857142857143</ele><time>2026-04-30T13:05:04.128Z</time></trkpt><trkpt lat="45.4991617" lon="14.0067067"><ele>683.0</ele><time>2026-04-30T13:05:05.067Z</time></trkpt><trkpt lat="45.4992033" lon="14.0067767"><ele>681.4285714285714</ele><time>2026-04-30T13:05:06.075Z</time></trkpt><trkpt lat="45.499245" lon="14.00685"><ele>679.8571428571429</ele><time>2026-04-30T13:05:07.08Z</time></trkpt><trkpt lat="45.499285" lon="14.006925"><ele>678.2857142857142</ele><time>2026-04-30T13:05:08.087Z</time></trkpt><trkpt lat="45.4993267" lon="14.0069983"><ele>676.7142857142858</ele><time>2026-04-30T13:05:09.094Z</time></trkpt><trkpt lat="45.49937" lon="14.007075"><ele>675.1428571428571</ele><time>2026-04-30T13:05:10.101Z</time></trkpt><trkpt lat="45.4994133" lon="14.0071517"><ele>673.5714285714286</ele><time>2026-04-30T13:05:11.04Z</time></trkpt><trkpt lat="45.49946" lon="14.0072383"><ele>672.0</ele><time>2026-04-30T13:05:12.114Z</time></trkpt><trkpt lat="45.499515" lon="14.0073367"><ele>672.0</ele><time>2026-04-30T13:05:13.054Z</time></trkpt><trkpt lat="45.4995783" lon="14.0074483"><ele>672.0</ele><time>2026-04-30T13:05:14.128Z</time></trkpt><trkpt lat="45.4996483" lon="14.0075717"><ele>672.0</ele><time>2026-04-30T13:05:15.067Z</time></trkpt><trkpt lat="45.499725" lon="14.007705"><ele>672.0</ele><time>2026-04-30T13:05:16.073Z</time></trkpt><trkpt lat="45.499805" lon="14.0078483"><ele>670.75</ele><time>2026-04-30T13:05:17.081Z</time></trkpt><trkpt lat="45.4998867" lon="14.0079983"><ele>669.5</ele><time>2026-04-30T13:05:18.087Z</time></trkpt><trkpt lat="45.4999667" lon="14.0081533"><ele>668.25</ele><time>2026-04-30T13:05:19.094Z</time></trkpt><trkpt lat="45.5000317" lon="14.0083083"><ele>667.0</ele><time>2026-04-30T13:05:20.101Z</time></trkpt><trkpt lat="45.5000733" lon="14.0084717"><ele>665.5</ele><time>2026-04-30T13:05:21.04Z</time></trkpt><trkpt lat="45.5000883" lon="14.008645"><ele>664.0</ele><time>2026-04-30T13:05:22.113Z</time></trkpt><trkpt lat="45.50007" lon="14.0088267"><ele>662.5</ele><time>2026-04-30T13:05:23.053Z</time></trkpt><trkpt lat="45.5000317" lon="14.0090167"><ele>661.0</ele><time>2026-04-30T13:05:24.126Z</time></trkpt><trkpt lat="45.49998" lon="14.00922"><ele>661.0</ele><time>2026-04-30T13:05:25.067Z</time></trkpt><trkpt lat="45.4999267" lon="14.00944"><ele>661.0</ele><time>2026-04-30T13:05:26.072Z</time></trkpt><trkpt lat="45.4998717" lon="14.0096767"><ele>661.0</ele><time>2026-04-30T13:05:27.079Z</time></trkpt><trkpt lat="45.4998167" lon="14.009915"><ele>660.6666666666667</ele><time>2026-04-30T13:05:28.087Z</time></trkpt><trkpt lat="45.4997567" lon="14.010155"><ele>660.3333333333334</ele><time>2026-04-30T13:05:29.093Z</time></trkpt><trkpt lat="45.4996983" lon="14.0103783"><ele>660.0</ele><time>2026-04-30T13:05:30.099Z</time></trkpt><trkpt lat="45.49965" lon="14.0105867"><ele>660.0</ele><time>2026-04-30T13:05:31.038Z</time></trkpt><trkpt lat="45.4996133" lon="14.010795"><ele>660.0</ele><time>2026-04-30T13:05:32.113Z</time></trkpt><trkpt lat="45.4995883" lon="14.01099"><ele>660.0</ele><time>2026-04-30T13:05:33.052Z</time></trkpt><trkpt lat="45.499565" lon="14.0111717"><ele>660.0</ele><time>2026-04-30T13:05:34.126Z</time></trkpt><trkpt lat="45.4995367" lon="14.0113383"><ele>660.8</ele><time>2026-04-30T13:05:35.065Z</time></trkpt><trkpt lat="45.4994917" lon="14.0114833"><ele>661.6</ele><time>2026-04-30T13:05:36.072Z</time></trkpt><trkpt lat="45.4994217" lon="14.0115967"><ele>662.4000000000001</ele><time>2026-04-30T13:05:37.078Z</time></trkpt><trkpt lat="45.4993317" lon="14.0116817"><ele>663.2</ele><time>2026-04-30T13:05:38.085Z</time></trkpt><trkpt lat="45.4992183" lon="14.01174"><ele>664.0</ele><time>2026-04-30T13:05:39.16Z</time></trkpt><trkpt lat="45.49909" lon="14.0117883"><ele>664.0</ele><time>2026-04-30T13:05:40.098Z</time></trkpt><trkpt lat="45.4989483" lon="14.0118367"><ele>664.0</ele><time>2026-04-30T13:05:41.039Z</time></trkpt><trkpt lat="45.4988033" lon="14.0118883"><ele>664.0</ele><time>2026-04-30T13:05:42.112Z</time></trkpt><trkpt lat="45.4986533" lon="14.0119533"><ele>667.6666666666667</ele><time>2026-04-30T13:05:43.051Z</time></trkpt><trkpt lat="45.49851" lon="14.0120433"><ele>671.3333333333334</ele><time>2026-04-30T13:05:44.126Z</time></trkpt><trkpt lat="45.498385" lon="14.0121633"><ele>675.0</ele><time>2026-04-30T13:05:45.064Z</time></trkpt><trkpt lat="45.4982817" lon="14.0123117"><ele>675.0</ele><time>2026-04-30T13:05:46.071Z</time></trkpt><trkpt lat="45.4982" lon="14.01248"><ele>675.0</ele><time>2026-04-30T13:05:47.145Z</time></trkpt><trkpt lat="45.4981383" lon="14.0126667"><ele>675.0</ele><time>2026-04-30T13:05:48.085Z</time></trkpt><trkpt lat="45.4980933" lon="14.0128733"><ele>675.0</ele><time>2026-04-30T13:05:49.158Z</time></trkpt><trkpt lat="45.4980583" lon="14.01309"><ele>671.6666666666666</ele><time>2026-04-30T13:05:50.097Z</time></trkpt><trkpt lat="45.4980333" lon="14.013315"><ele>668.3333333333333</ele><time>2026-04-30T13:05:51.037Z</time></trkpt><trkpt lat="45.498" lon="14.0135417"><ele>665.0</ele><time>2026-04-30T13:05:52.111Z</time></trkpt><trkpt lat="45.4979617" lon="14.0137633"><ele>668.0</ele><time>2026-04-30T13:05:53.05Z</time></trkpt><trkpt lat="45.4979117" lon="14.0139783"><ele>671.0</ele><time>2026-04-30T13:05:54.124Z</time></trkpt><trkpt lat="45.49785" lon="14.0141733"><ele>674.0</ele><time>2026-04-30T13:05:55.13Z</time></trkpt><trkpt lat="45.49779" lon="14.0143533"><ele>677.0</ele><time>2026-04-30T13:05:56.07Z</time></trkpt><trkpt lat="45.4977467" lon="14.014535"><ele>677.0</ele><time>2026-04-30T13:05:57.144Z</time></trkpt><trkpt lat="45.497725" lon="14.0147233"><ele>677.0</ele><time>2026-04-30T13:05:58.083Z</time></trkpt><trkpt lat="45.49773" lon="14.01492"><ele>677.0</ele><time>2026-04-30T13:05:59.158Z</time></trkpt><trkpt lat="45.4977567" lon="14.0151217"><ele>677.0</ele><time>2026-04-30T13:06:00.096Z</time></trkpt><trkpt lat="45.4977883" lon="14.0153283"><ele>677.25</ele><time>2026-04-30T13:06:01.037Z</time></trkpt><trkpt lat="45.4978133" lon="14.015535"><ele>677.5</ele><time>2026-04-30T13:06:02.11Z</time></trkpt><trkpt lat="45.4978383" lon="14.01574"><ele>677.75</ele><time>2026-04-30T13:06:03.116Z</time></trkpt><trkpt lat="45.4978617" lon="14.0159367"><ele>678.0</ele><time>2026-04-30T13:06:04.123Z</time></trkpt><trkpt lat="45.497885" lon="14.01613"><ele>678.6666666666666</ele><time>2026-04-30T13:06:05.13Z</time></trkpt><trkpt lat="45.49791" lon="14.0165333"><ele>679.3333333333333</ele><time>2026-04-30T13:06:07.144Z</time></trkpt><trkpt lat="45.497905" lon="14.016745"><ele>680.0</ele><time>2026-04-30T13:06:08.082Z</time></trkpt><trkpt lat="45.4978933" lon="14.0169633"><ele>681.0</ele><time>2026-04-30T13:06:09.157Z</time></trkpt><trkpt lat="45.497875" lon="14.0171817"><ele>682.0</ele><time>2026-04-30T13:06:10.096Z</time></trkpt><trkpt lat="45.4978583" lon="14.0174017"><ele>683.0</ele><time>2026-04-30T13:06:11.035Z</time></trkpt><trkpt lat="45.4978417" lon="14.0176233"><ele>683.0</ele><time>2026-04-30T13:06:12.109Z</time></trkpt><trkpt lat="45.497825" lon="14.0178467"><ele>683.0</ele><time>2026-04-30T13:06:13.116Z</time></trkpt><trkpt lat="45.4978067" lon="14.01807"><ele>683.0</ele><time>2026-04-30T13:06:14.123Z</time></trkpt><trkpt lat="45.497785" lon="14.0182967"><ele>683.3333333333333</ele><time>2026-04-30T13:06:15.13Z</time></trkpt><trkpt lat="45.4977683" lon="14.01853"><ele>683.6666666666666</ele><time>2026-04-30T13:06:16.068Z</time></trkpt><trkpt lat="45.49775" lon="14.0187583"><ele>684.0</ele><time>2026-04-30T13:06:17.143Z</time></trkpt><trkpt lat="45.4977333" lon="14.0189767"><ele>683.3333333333334</ele><time>2026-04-30T13:06:18.082Z</time></trkpt><trkpt lat="45.4977133" lon="14.0192"><ele>682.6666666666667</ele><time>2026-04-30T13:06:19.156Z</time></trkpt><trkpt lat="45.497685" lon="14.01942"><ele>682.0</ele><time>2026-04-30T13:06:20.095Z</time></trkpt><trkpt lat="45.4976517" lon="14.0196383"><ele>682.0</ele><time>2026-04-30T13:06:21.103Z</time></trkpt><trkpt lat="45.49761" lon="14.019855"><ele>682.0</ele><time>2026-04-30T13:06:22.108Z</time></trkpt><trkpt lat="45.4975667" lon="14.0200733"><ele>682.0</ele><time>2026-04-30T13:06:23.116Z</time></trkpt><trkpt lat="45.4975167" lon="14.0202917"><ele>680.6666666666667</ele><time>2026-04-30T13:06:24.054Z</time></trkpt><trkpt lat="45.4974567" lon="14.020505"><ele>679.3333333333334</ele><time>2026-04-30T13:06:25.128Z</time></trkpt><trkpt lat="45.4973883" lon="14.0207033"><ele>678.0</ele><time>2026-04-30T13:06:26.069Z</time></trkpt><trkpt lat="45.4973133" lon="14.020875"><ele>677.75</ele><time>2026-04-30T13:06:27.141Z</time></trkpt><trkpt lat="45.4972267" lon="14.0210117"><ele>677.5</ele><time>2026-04-30T13:06:28.081Z</time></trkpt><trkpt lat="45.4971233" lon="14.0211133"><ele>677.25</ele><time>2026-04-30T13:06:29.088Z</time></trkpt><trkpt lat="45.4970067" lon="14.0211983"><ele>677.0</ele><time>2026-04-30T13:06:30.095Z</time></trkpt><trkpt lat="45.49688" lon="14.0212767"><ele>677.0</ele><time>2026-04-30T13:06:31.101Z</time></trkpt><trkpt lat="45.4967467" lon="14.0213583"><ele>677.0</ele><time>2026-04-30T13:06:32.108Z</time></trkpt><trkpt lat="45.49661" lon="14.0214417"><ele>677.0</ele><time>2026-04-30T13:06:33.115Z</time></trkpt><trkpt lat="45.4964733" lon="14.02153"><ele>677.0</ele><time>2026-04-30T13:06:34.055Z</time></trkpt><trkpt lat="45.4963417" lon="14.0216133"><ele>677.25</ele><time>2026-04-30T13:06:35.127Z</time></trkpt><trkpt lat="45.4962233" lon="14.0217033"><ele>677.5</ele><time>2026-04-30T13:06:36.067Z</time></trkpt><trkpt lat="45.4961217" lon="14.0218133"><ele>677.75</ele><time>2026-04-30T13:06:37.141Z</time></trkpt><trkpt lat="45.4960367" lon="14.0219483"><ele>678.0</ele><time>2026-04-30T13:06:38.081Z</time></trkpt><trkpt lat="45.49597" lon="14.0221167"><ele>678.0</ele><time>2026-04-30T13:06:39.088Z</time></trkpt><trkpt lat="45.4959117" lon="14.0222967"><ele>678.0</ele><time>2026-04-30T13:06:40.093Z</time></trkpt><trkpt lat="45.4958483" lon="14.02248"><ele>678.0</ele><time>2026-04-30T13:06:41.101Z</time></trkpt><trkpt lat="45.495765" lon="14.0226533"><ele>678.0</ele><time>2026-04-30T13:06:42.107Z</time></trkpt><trkpt lat="45.4956683" lon="14.0228233"><ele>676.6666666666666</ele><time>2026-04-30T13:06:43.113Z</time></trkpt><trkpt lat="45.4955667" lon="14.0229983"><ele>675.3333333333333</ele><time>2026-04-30T13:06:44.054Z</time></trkpt><trkpt lat="45.495465" lon="14.0231817"><ele>674.0</ele><time>2026-04-30T13:06:45.128Z</time></trkpt><trkpt lat="45.4953617" lon="14.0233633"><ele>674.0</ele><time>2026-04-30T13:06:46.066Z</time></trkpt><trkpt lat="45.4952633" lon="14.0235367"><ele>674.0</ele><time>2026-04-30T13:06:47.141Z</time></trkpt><trkpt lat="45.4951633" lon="14.023705"><ele>674.0</ele><time>2026-04-30T13:06:48.079Z</time></trkpt><trkpt lat="45.4950717" lon="14.0238717"><ele>674.0</ele><time>2026-04-30T13:06:49.086Z</time></trkpt><trkpt lat="45.494995" lon="14.0240433"><ele>674.0</ele><time>2026-04-30T13:06:50.093Z</time></trkpt><trkpt lat="45.4949433" lon="14.024225"><ele>674.0</ele><time>2026-04-30T13:06:51.1Z</time></trkpt><trkpt lat="45.4949017" lon="14.024415"><ele>674.0</ele><time>2026-04-30T13:06:52.107Z</time></trkpt><trkpt lat="45.4948583" lon="14.0246067"><ele>672.0</ele><time>2026-04-30T13:06:53.112Z</time></trkpt><trkpt lat="45.494805" lon="14.0247967"><ele>670.0</ele><time>2026-04-30T13:06:54.052Z</time></trkpt><trkpt lat="45.4947333" lon="14.024965"><ele>668.0</ele><time>2026-04-30T13:06:55.127Z</time></trkpt><trkpt lat="45.494665" lon="14.025125"><ele>666.0</ele><time>2026-04-30T13:06:56.066Z</time></trkpt><trkpt lat="45.4946133" lon="14.025285"><ele>667.5</ele><time>2026-04-30T13:06:57.139Z</time></trkpt><trkpt lat="45.49459" lon="14.0254633"><ele>669.0</ele><time>2026-04-30T13:06:58.079Z</time></trkpt><trkpt lat="45.4945667" lon="14.025645"><ele>670.5</ele><time>2026-04-30T13:06:59.085Z</time></trkpt><trkpt lat="45.49453" lon="14.0258283"><ele>672.0</ele><time>2026-04-30T13:07:00.092Z</time></trkpt><trkpt lat="45.494475" lon="14.0260117"><ele>672.0</ele><time>2026-04-30T13:07:01.098Z</time></trkpt><trkpt lat="45.494405" lon="14.026195"><ele>672.0</ele><time>2026-04-30T13:07:02.105Z</time></trkpt><trkpt lat="45.4943217" lon="14.026375"><ele>672.0</ele><time>2026-04-30T13:07:03.113Z</time></trkpt><trkpt lat="45.4942317" lon="14.0265567"><ele>669.6666666666666</ele><time>2026-04-30T13:07:04.051Z</time></trkpt><trkpt lat="45.4941367" lon="14.0267417"><ele>667.3333333333333</ele><time>2026-04-30T13:07:05.125Z</time></trkpt><trkpt lat="45.4940467" lon="14.0269317"><ele>665.0</ele><time>2026-04-30T13:07:06.064Z</time></trkpt><trkpt lat="45.493955" lon="14.02712"><ele>665.0</ele><time>2026-04-30T13:07:07.139Z</time></trkpt><trkpt lat="45.493865" lon="14.0273117"><ele>665.0</ele><time>2026-04-30T13:07:08.078Z</time></trkpt><trkpt lat="45.4937667" lon="14.0275"><ele>665.0</ele><time>2026-04-30T13:07:09.085Z</time></trkpt><trkpt lat="45.4936633" lon="14.0276867"><ele>669.6666666666666</ele><time>2026-04-30T13:07:10.092Z</time></trkpt><trkpt lat="45.4935633" lon="14.0278733"><ele>674.3333333333334</ele><time>2026-04-30T13:07:11.099Z</time></trkpt><trkpt lat="45.4934567" lon="14.0280517"><ele>679.0</ele><time>2026-04-30T13:07:12.104Z</time></trkpt><trkpt lat="45.4933467" lon="14.0282233"><ele>673.3333333333334</ele><time>2026-04-30T13:07:13.112Z</time></trkpt><trkpt lat="45.49323" lon="14.0283867"><ele>667.6666666666666</ele><time>2026-04-30T13:07:14.051Z</time></trkpt><trkpt lat="45.49311" lon="14.0285517"><ele>662.0</ele><time>2026-04-30T13:07:15.125Z</time></trkpt><trkpt lat="45.49299" lon="14.0287167"><ele>662.3333333333333</ele><time>2026-04-30T13:07:16.064Z</time></trkpt><trkpt lat="45.4928733" lon="14.0288817"><ele>662.6666666666666</ele><time>2026-04-30T13:07:17.137Z</time></trkpt><trkpt lat="45.4927583" lon="14.02905"><ele>663.0</ele><time>2026-04-30T13:07:18.078Z</time></trkpt><trkpt lat="45.49264" lon="14.0292217"><ele>663.0</ele><time>2026-04-30T13:07:19.085Z</time></trkpt><trkpt lat="45.4925183" lon="14.0293883"><ele>663.0</ele><time>2026-04-30T13:07:20.09Z</time></trkpt><trkpt lat="45.4923967" lon="14.0295583"><ele>663.0</ele><time>2026-04-30T13:07:21.098Z</time></trkpt><trkpt lat="45.4922733" lon="14.029725"><ele>663.0</ele><time>2026-04-30T13:07:22.104Z</time></trkpt><trkpt lat="45.4921533" lon="14.0298817"><ele>663.0</ele><time>2026-04-30T13:07:23.111Z</time></trkpt><trkpt lat="45.4920317" lon="14.03002"><ele>663.0</ele><time>2026-04-30T13:07:24.051Z</time></trkpt><trkpt lat="45.4919033" lon="14.0301417"><ele>663.6666666666666</ele><time>2026-04-30T13:07:25.123Z</time></trkpt><trkpt lat="45.4917717" lon="14.0302567"><ele>664.3333333333333</ele><time>2026-04-30T13:07:26.064Z</time></trkpt><trkpt lat="45.491645" lon="14.0303733"><ele>665.0</ele><time>2026-04-30T13:07:27.137Z</time></trkpt><trkpt lat="45.4915267" lon="14.0305"><ele>665.0</ele><time>2026-04-30T13:07:28.077Z</time></trkpt><trkpt lat="45.4914233" lon="14.0306483"><ele>665.0</ele><time>2026-04-30T13:07:29.084Z</time></trkpt><trkpt lat="45.4913367" lon="14.0308167"><ele>665.0</ele><time>2026-04-30T13:07:30.089Z</time></trkpt><trkpt lat="45.4912667" lon="14.0310067"><ele>665.0</ele><time>2026-04-30T13:07:31.097Z</time></trkpt><trkpt lat="45.4912083" lon="14.03121"><ele>664.6666666666666</ele><time>2026-04-30T13:07:32.104Z</time></trkpt><trkpt lat="45.4911567" lon="14.0314167"><ele>664.3333333333334</ele><time>2026-04-30T13:07:33.11Z</time></trkpt><trkpt lat="45.4911067" lon="14.03163"><ele>664.0</ele><time>2026-04-30T13:07:34.049Z</time></trkpt><trkpt lat="45.491055" lon="14.031845"><ele>664.0</ele><time>2026-04-30T13:07:35.124Z</time></trkpt><trkpt lat="45.4909983" lon="14.03206"><ele>664.0</ele><time>2026-04-30T13:07:36.062Z</time></trkpt><trkpt lat="45.4909367" lon="14.032275"><ele>664.0</ele><time>2026-04-30T13:07:37.137Z</time></trkpt><trkpt lat="45.4908683" lon="14.0324883"><ele>661.0</ele><time>2026-04-30T13:07:38.075Z</time></trkpt><trkpt lat="45.4908033" lon="14.0327033"><ele>658.0</ele><time>2026-04-30T13:07:39.082Z</time></trkpt><trkpt lat="45.4907333" lon="14.0329167"><ele>655.0</ele><time>2026-04-30T13:07:40.089Z</time></trkpt><trkpt lat="45.4906633" lon="14.0331317"><ele>652.6666666666667</ele><time>2026-04-30T13:07:41.095Z</time></trkpt><trkpt lat="45.4905917" lon="14.033345"><ele>650.3333333333334</ele><time>2026-04-30T13:07:42.102Z</time></trkpt><trkpt lat="45.4905217" lon="14.0335567"><ele>648.0</ele><time>2026-04-30T13:07:43.109Z</time></trkpt><trkpt lat="45.4904533" lon="14.033765"><ele>652.6666666666666</ele><time>2026-04-30T13:07:44.048Z</time></trkpt><trkpt lat="45.4903833" lon="14.0339717"><ele>657.3333333333333</ele><time>2026-04-30T13:07:45.123Z</time></trkpt><trkpt lat="45.490315" lon="14.0341783"><ele>662.0</ele><time>2026-04-30T13:07:46.062Z</time></trkpt><trkpt lat="45.490245" lon="14.0343867"><ele>662.0</ele><time>2026-04-30T13:07:47.135Z</time></trkpt><trkpt lat="45.4901767" lon="14.0345917"><ele>662.0</ele><time>2026-04-30T13:07:48.075Z</time></trkpt><trkpt lat="45.49011" lon="14.034785"><ele>662.0</ele><time>2026-04-30T13:07:49.082Z</time></trkpt><trkpt lat="45.4900417" lon="14.0349683"><ele>659.75</ele><time>2026-04-30T13:07:50.089Z</time></trkpt><trkpt lat="45.489965" lon="14.03514"><ele>657.5</ele><time>2026-04-30T13:07:51.095Z</time></trkpt><trkpt lat="45.4898767" lon="14.0353017"><ele>655.25</ele><time>2026-04-30T13:07:52.035Z</time></trkpt><trkpt lat="45.48978" lon="14.0354617"><ele>653.0</ele><time>2026-04-30T13:07:53.109Z</time></trkpt><trkpt lat="45.48968" lon="14.035625"><ele>656.0</ele><time>2026-04-30T13:07:54.047Z</time></trkpt><trkpt lat="45.489585" lon="14.0358033"><ele>659.0</ele><time>2026-04-30T13:07:55.121Z</time></trkpt><trkpt lat="45.4894917" lon="14.0359917"><ele>662.0</ele><time>2026-04-30T13:07:56.062Z</time></trkpt><trkpt lat="45.4894" lon="14.0361933"><ele>662.0</ele><time>2026-04-30T13:07:57.068Z</time></trkpt><trkpt lat="45.4893083" lon="14.0364017"><ele>662.0</ele><time>2026-04-30T13:07:58.075Z</time></trkpt><trkpt lat="45.4892133" lon="14.0366083"><ele>662.0</ele><time>2026-04-30T13:07:59.081Z</time></trkpt><trkpt lat="45.4891167" lon="14.0368167"><ele>658.3333333333333</ele><time>2026-04-30T13:08:00.087Z</time></trkpt><trkpt lat="45.4890233" lon="14.037025"><ele>654.6666666666666</ele><time>2026-04-30T13:08:01.095Z</time></trkpt><trkpt lat="45.4889367" lon="14.037225"><ele>651.0</ele><time>2026-04-30T13:08:02.033Z</time></trkpt><trkpt lat="45.4888517" lon="14.0374217"><ele>647.6666666666666</ele><time>2026-04-30T13:08:03.108Z</time></trkpt><trkpt lat="45.4887667" lon="14.03762"><ele>644.3333333333333</ele><time>2026-04-30T13:08:04.048Z</time></trkpt><trkpt lat="45.4886817" lon="14.037815"><ele>641.0</ele><time>2026-04-30T13:08:05.12Z</time></trkpt><trkpt lat="45.4885983" lon="14.0380133"><ele>645.0</ele><time>2026-04-30T13:08:06.061Z</time></trkpt><trkpt lat="45.488515" lon="14.0382133"><ele>649.0</ele><time>2026-04-30T13:08:07.067Z</time></trkpt><trkpt lat="45.48843" lon="14.0384167"><ele>653.0</ele><time>2026-04-30T13:08:08.073Z</time></trkpt><trkpt lat="45.4883467" lon="14.0386217"><ele>653.0</ele><time>2026-04-30T13:08:09.08Z</time></trkpt><trkpt lat="45.4882633" lon="14.0388283"><ele>653.0</ele><time>2026-04-30T13:08:10.153Z</time></trkpt><trkpt lat="45.48818" lon="14.0390333"><ele>653.0</ele><time>2026-04-30T13:08:11.093Z</time></trkpt><trkpt lat="45.4881017" lon="14.0392267"><ele>649.6666666666666</ele><time>2026-04-30T13:08:12.033Z</time></trkpt><trkpt lat="45.488025" lon="14.039415"><ele>646.3333333333334</ele><time>2026-04-30T13:08:13.107Z</time></trkpt><trkpt lat="45.487945" lon="14.0395967"><ele>643.0</ele><time>2026-04-30T13:08:14.046Z</time></trkpt><trkpt lat="45.4878667" lon="14.0397833"><ele>646.0</ele><time>2026-04-30T13:08:15.12Z</time></trkpt><trkpt lat="45.4877867" lon="14.03997"><ele>649.0</ele><time>2026-04-30T13:08:16.06Z</time></trkpt><trkpt lat="45.4877083" lon="14.0401583"><ele>652.0</ele><time>2026-04-30T13:08:17.067Z</time></trkpt><trkpt lat="45.487635" lon="14.0403483"><ele>652.0</ele><time>2026-04-30T13:08:18.14Z</time></trkpt><trkpt lat="45.4875667" lon="14.0405433"><ele>652.0</ele><time>2026-04-30T13:08:19.079Z</time></trkpt><trkpt lat="45.4875117" lon="14.0407567"><ele>652.0</ele><time>2026-04-30T13:08:20.153Z</time></trkpt><trkpt lat="45.4874717" lon="14.0409767"><ele>649.6666666666667</ele><time>2026-04-30T13:08:21.092Z</time></trkpt><trkpt lat="45.4874383" lon="14.0412017"><ele>647.3333333333334</ele><time>2026-04-30T13:08:22.032Z</time></trkpt><trkpt lat="45.4874033" lon="14.0414267"><ele>645.0</ele><time>2026-04-30T13:08:23.106Z</time></trkpt><trkpt lat="45.4873683" lon="14.04165"><ele>643.3333333333334</ele><time>2026-04-30T13:08:24.045Z</time></trkpt><trkpt lat="45.4873367" lon="14.041875"><ele>641.6666666666667</ele><time>2026-04-30T13:08:25.119Z</time></trkpt><trkpt lat="45.4873083" lon="14.042105"><ele>640.0</ele><time>2026-04-30T13:08:26.125Z</time></trkpt><trkpt lat="45.4872917" lon="14.0423383"><ele>639.3333333333334</ele><time>2026-04-30T13:08:27.065Z</time></trkpt><trkpt lat="45.4872867" lon="14.0425817"><ele>638.6666666666666</ele><time>2026-04-30T13:08:28.14Z</time></trkpt><trkpt lat="45.4872833" lon="14.042825"><ele>638.0</ele><time>2026-04-30T13:08:29.078Z</time></trkpt><trkpt lat="45.4872883" lon="14.0430667"><ele>638.0</ele><time>2026-04-30T13:08:30.152Z</time></trkpt><trkpt lat="45.4872983" lon="14.043295"><ele>638.0</ele><time>2026-04-30T13:08:31.092Z</time></trkpt><trkpt lat="45.4873167" lon="14.0435083"><ele>638.0</ele><time>2026-04-30T13:08:32.031Z</time></trkpt><trkpt lat="45.48734" lon="14.0437083"><ele>637.75</ele><time>2026-04-30T13:08:33.105Z</time></trkpt><trkpt lat="45.4873633" lon="14.043895"><ele>637.5</ele><time>2026-04-30T13:08:34.111Z</time></trkpt><trkpt lat="45.4873717" lon="14.04408"><ele>637.25</ele><time>2026-04-30T13:08:35.119Z</time></trkpt><trkpt lat="45.4873667" lon="14.04427"><ele>637.0</ele><time>2026-04-30T13:08:36.125Z</time></trkpt><trkpt lat="45.48735" lon="14.044465"><ele>636.6666666666667</ele><time>2026-04-30T13:08:37.065Z</time></trkpt><trkpt lat="45.4873183" lon="14.044665"><ele>636.3333333333334</ele><time>2026-04-30T13:08:38.138Z</time></trkpt><trkpt lat="45.4872733" lon="14.0448683"><ele>636.0</ele><time>2026-04-30T13:08:39.077Z</time></trkpt><trkpt lat="45.4872183" lon="14.0450783"><ele>635.3333333333334</ele><time>2026-04-30T13:08:40.151Z</time></trkpt><trkpt lat="45.4871633" lon="14.0452917"><ele>634.6666666666667</ele><time>2026-04-30T13:08:41.091Z</time></trkpt><trkpt lat="45.4871033" lon="14.04551"><ele>634.0</ele><time>2026-04-30T13:08:42.03Z</time></trkpt><trkpt lat="45.4870433" lon="14.04573"><ele>639.3333333333334</ele><time>2026-04-30T13:08:43.104Z</time></trkpt><trkpt lat="45.486975" lon="14.0459467"><ele>644.6666666666666</ele><time>2026-04-30T13:08:44.112Z</time></trkpt><trkpt lat="45.4868933" lon="14.0461517"><ele>650.0</ele><time>2026-04-30T13:08:45.117Z</time></trkpt><trkpt lat="45.4868017" lon="14.0463433"><ele>650.0</ele><time>2026-04-30T13:08:46.124Z</time></trkpt><trkpt lat="45.4866983" lon="14.0465267"><ele>650.0</ele><time>2026-04-30T13:08:47.063Z</time></trkpt><trkpt lat="45.486585" lon="14.0466983"><ele>650.0</ele><time>2026-04-30T13:08:48.138Z</time></trkpt><trkpt lat="45.4864633" lon="14.04686"><ele>653.6666666666666</ele><time>2026-04-30T13:08:49.077Z</time></trkpt><trkpt lat="45.48634" lon="14.047015"><ele>657.3333333333334</ele><time>2026-04-30T13:08:50.15Z</time></trkpt><trkpt lat="45.4862133" lon="14.0471667"><ele>661.0</ele><time>2026-04-30T13:08:51.091Z</time></trkpt><trkpt lat="45.486085" lon="14.04732"><ele>655.6666666666667</ele><time>2026-04-30T13:08:52.096Z</time></trkpt><trkpt lat="45.4859567" lon="14.047475"><ele>650.3333333333334</ele><time>2026-04-30T13:08:53.103Z</time></trkpt><trkpt lat="45.4858283" lon="14.0476317"><ele>645.0</ele><time>2026-04-30T13:08:54.11Z</time></trkpt><trkpt lat="45.4857017" lon="14.047785"><ele>645.0</ele><time>2026-04-30T13:08:55.116Z</time></trkpt><trkpt lat="45.485575" lon="14.0479417"><ele>645.0</ele><time>2026-04-30T13:08:56.123Z</time></trkpt><trkpt lat="45.4854533" lon="14.0480933"><ele>645.0</ele><time>2026-04-30T13:08:57.063Z</time></trkpt><trkpt lat="45.4853417" lon="14.04824"><ele>645.75</ele><time>2026-04-30T13:08:58.136Z</time></trkpt><trkpt lat="45.4852333" lon="14.0483767"><ele>646.5</ele><time>2026-04-30T13:08:59.076Z</time></trkpt><trkpt lat="45.4851233" lon="14.04851"><ele>647.25</ele><time>2026-04-30T13:09:00.15Z</time></trkpt><trkpt lat="45.4850033" lon="14.048625"><ele>648.0</ele><time>2026-04-30T13:09:01.089Z</time></trkpt><trkpt lat="45.4848783" lon="14.0487183"><ele>648.0</ele><time>2026-04-30T13:09:02.096Z</time></trkpt><trkpt lat="45.484745" lon="14.04882"><ele>648.0</ele><time>2026-04-30T13:09:03.103Z</time></trkpt><trkpt lat="45.484615" lon="14.0489233"><ele>648.0</ele><time>2026-04-30T13:09:04.11Z</time></trkpt><trkpt lat="45.4844917" lon="14.0490317"><ele>648.0</ele><time>2026-04-30T13:09:05.117Z</time></trkpt><trkpt lat="45.4843733" lon="14.049155"><ele>647.75</ele><time>2026-04-30T13:09:06.123Z</time></trkpt><trkpt lat="45.4842617" lon="14.04929"><ele>647.5</ele><time>2026-04-30T13:09:07.062Z</time></trkpt><trkpt lat="45.4841617" lon="14.0494267"><ele>647.25</ele><time>2026-04-30T13:09:08.136Z</time></trkpt><trkpt lat="45.4840733" lon="14.0495683"><ele>647.0</ele><time>2026-04-30T13:09:09.075Z</time></trkpt><trkpt lat="45.4840017" lon="14.0497283"><ele>647.0</ele><time>2026-04-30T13:09:10.15Z</time></trkpt><trkpt lat="45.4839467" lon="14.0499083"><ele>647.0</ele><time>2026-04-30T13:09:11.088Z</time></trkpt><trkpt lat="45.4839083" lon="14.0501033"><ele>647.0</ele><time>2026-04-30T13:09:12.095Z</time></trkpt><trkpt lat="45.4838883" lon="14.050305"><ele>647.0</ele><time>2026-04-30T13:09:13.102Z</time></trkpt><trkpt lat="45.4838917" lon="14.05051"><ele>647.25</ele><time>2026-04-30T13:09:14.108Z</time></trkpt><trkpt lat="45.4839167" lon="14.0507083"><ele>647.5</ele><time>2026-04-30T13:09:15.115Z</time></trkpt><trkpt lat="45.4839533" lon="14.0509017"><ele>647.75</ele><time>2026-04-30T13:09:16.121Z</time></trkpt><trkpt lat="45.4839917" lon="14.051095"><ele>648.0</ele><time>2026-04-30T13:09:17.062Z</time></trkpt><trkpt lat="45.4840333" lon="14.0512883"><ele>648.75</ele><time>2026-04-30T13:09:18.135Z</time></trkpt><trkpt lat="45.4840733" lon="14.0514783"><ele>649.5</ele><time>2026-04-30T13:09:19.074Z</time></trkpt><trkpt lat="45.4841117" lon="14.05167"><ele>650.25</ele><time>2026-04-30T13:09:20.082Z</time></trkpt><trkpt lat="45.4841467" lon="14.051855"><ele>651.0</ele><time>2026-04-30T13:09:21.089Z</time></trkpt><trkpt lat="45.48417" lon="14.0520283"><ele>652.4</ele><time>2026-04-30T13:09:22.094Z</time></trkpt><trkpt lat="45.4841833" lon="14.0521867"><ele>653.8</ele><time>2026-04-30T13:09:23.101Z</time></trkpt><trkpt lat="45.4841883" lon="14.0523217"><ele>655.1999999999999</ele><time>2026-04-30T13:09:24.108Z</time></trkpt><trkpt lat="45.4841883" lon="14.052425"><ele>656.5999999999999</ele><time>2026-04-30T13:09:25.047Z</time></trkpt><trkpt lat="45.48415" lon="14.05254"><ele>658.0</ele><time>2026-04-30T13:09:27.061Z</time></trkpt><trkpt lat="45.4840683" lon="14.0525967"><ele>658.5999999999999</ele><time>2026-04-30T13:09:29.073Z</time></trkpt><trkpt lat="45.48395" lon="14.052695"><ele>659.1999999999999</ele><time>2026-04-30T13:09:31.087Z</time></trkpt><trkpt lat="45.4838817" lon="14.0527633"><ele>659.8</ele><time>2026-04-30T13:09:32.094Z</time></trkpt><trkpt lat="45.4838083" lon="14.0528367"><ele>660.4</ele><time>2026-04-30T13:09:33.1Z</time></trkpt><trkpt lat="45.4837317" lon="14.0529"><ele>661.0</ele><time>2026-04-30T13:09:34.108Z</time></trkpt><trkpt lat="45.4836483" lon="14.0529383"><ele>661.0</ele><time>2026-04-30T13:09:35.046Z</time></trkpt><trkpt lat="45.4835633" lon="14.0529667"><ele>661.0</ele><time>2026-04-30T13:09:36.121Z</time></trkpt><trkpt lat="45.4834783" lon="14.0530033"><ele>661.0</ele><time>2026-04-30T13:09:37.06Z</time></trkpt><trkpt lat="45.483395" lon="14.0530617"><ele>661.0</ele><time>2026-04-30T13:09:38.134Z</time></trkpt><trkpt lat="45.4833133" lon="14.053155"><ele>661.0</ele><time>2026-04-30T13:09:39.074Z</time></trkpt><trkpt lat="45.4832383" lon="14.0532717"><ele>660.5</ele><time>2026-04-30T13:09:40.079Z</time></trkpt><trkpt lat="45.4831583" lon="14.0533917"><ele>660.0</ele><time>2026-04-30T13:09:41.087Z</time></trkpt><trkpt lat="45.4830717" lon="14.0535183"><ele>659.5</ele><time>2026-04-30T13:09:42.093Z</time></trkpt><trkpt lat="45.4829783" lon="14.0536467"><ele>659.0</ele><time>2026-04-30T13:09:43.099Z</time></trkpt><trkpt lat="45.4828833" lon="14.0537667"><ele>659.0</ele><time>2026-04-30T13:09:44.107Z</time></trkpt><trkpt lat="45.48279" lon="14.0538833"><ele>659.0</ele><time>2026-04-30T13:09:45.045Z</time></trkpt><trkpt lat="45.4827083" lon="14.0539883"><ele>659.0</ele><time>2026-04-30T13:09:46.119Z</time></trkpt><trkpt lat="45.4826317" lon="14.05408"><ele>659.0</ele><time>2026-04-30T13:09:47.059Z</time></trkpt><trkpt lat="45.482555" lon="14.0541633"><ele>659.0</ele><time>2026-04-30T13:09:48.132Z</time></trkpt><trkpt lat="45.4824733" lon="14.0542483"><ele>659.6</ele><time>2026-04-30T13:09:49.072Z</time></trkpt><trkpt lat="45.4823833" lon="14.0543233"><ele>660.2</ele><time>2026-04-30T13:09:50.079Z</time></trkpt><trkpt lat="45.48229" lon="14.0544017"><ele>660.8000000000001</ele><time>2026-04-30T13:09:51.086Z</time></trkpt><trkpt lat="45.482195" lon="14.0544783"><ele>661.4000000000001</ele><time>2026-04-30T13:09:52.092Z</time></trkpt><trkpt lat="45.48209" lon="14.0545617"><ele>662.0</ele><time>2026-04-30T13:09:53.098Z</time></trkpt><trkpt lat="45.4819867" lon="14.0546617"><ele>662.0</ele><time>2026-04-30T13:09:54.106Z</time></trkpt><trkpt lat="45.4818817" lon="14.0547667"><ele>662.0</ele><time>2026-04-30T13:09:55.046Z</time></trkpt><trkpt lat="45.48177" lon="14.0548683"><ele>662.0</ele><time>2026-04-30T13:09:56.119Z</time></trkpt><trkpt lat="45.4816517" lon="14.054975"><ele>662.0</ele><time>2026-04-30T13:09:57.059Z</time></trkpt><trkpt lat="45.481535" lon="14.055075"><ele>662.0</ele><time>2026-04-30T13:09:58.132Z</time></trkpt><trkpt lat="45.4814217" lon="14.0551717"><ele>662.0</ele><time>2026-04-30T13:09:59.072Z</time></trkpt><trkpt lat="45.4813117" lon="14.0552633"><ele>662.0</ele><time>2026-04-30T13:10:00.078Z</time></trkpt><trkpt lat="45.4812133" lon="14.0553433"><ele>662.0</ele><time>2026-04-30T13:10:01.085Z</time></trkpt><trkpt lat="45.4811233" lon="14.055415"><ele>662.0</ele><time>2026-04-30T13:10:02.091Z</time></trkpt><trkpt lat="45.4810433" lon="14.055485"><ele>662.0</ele><time>2026-04-30T13:10:03.098Z</time></trkpt><trkpt lat="45.4809733" lon="14.0555533"><ele>662.0</ele><time>2026-04-30T13:10:04.104Z</time></trkpt><trkpt lat="45.48091" lon="14.0556283"><ele>662.0</ele><time>2026-04-30T13:10:05.044Z</time></trkpt><trkpt lat="45.48086" lon="14.055715"><ele>662.0</ele><time>2026-04-30T13:10:06.118Z</time></trkpt><trkpt lat="45.4808183" lon="14.05581"><ele>662.0</ele><time>2026-04-30T13:10:07.057Z</time></trkpt><trkpt lat="45.4807867" lon="14.055915"><ele>662.6</ele><time>2026-04-30T13:10:08.131Z</time></trkpt><trkpt lat="45.4807517" lon="14.056035"><ele>663.2</ele><time>2026-04-30T13:10:09.071Z</time></trkpt><trkpt lat="45.48071" lon="14.0561683"><ele>663.8</ele><time>2026-04-30T13:10:10.077Z</time></trkpt><trkpt lat="45.4806667" lon="14.056315"><ele>664.4</ele><time>2026-04-30T13:10:11.084Z</time></trkpt><trkpt lat="45.4806133" lon="14.0564667"><ele>665.0</ele><time>2026-04-30T13:10:12.09Z</time></trkpt><trkpt lat="45.480555" lon="14.05663"><ele>666.6666666666666</ele><time>2026-04-30T13:10:13.098Z</time></trkpt><trkpt lat="45.4804833" lon="14.0567983"><ele>668.3333333333334</ele><time>2026-04-30T13:10:14.104Z</time></trkpt><trkpt lat="45.4803083" lon="14.0571383"><ele>670.0</ele><time>2026-04-30T13:10:16.117Z</time></trkpt><trkpt lat="45.4802133" lon="14.0573133"><ele>672.3333333333334</ele><time>2026-04-30T13:10:17.057Z</time></trkpt><trkpt lat="45.4801133" lon="14.05749"><ele>674.6666666666666</ele><time>2026-04-30T13:10:18.13Z</time></trkpt><trkpt lat="45.4800167" lon="14.0576683"><ele>677.0</ele><time>2026-04-30T13:10:19.071Z</time></trkpt><trkpt lat="45.4799367" lon="14.05785"><ele>677.0</ele><time>2026-04-30T13:10:20.077Z</time></trkpt><trkpt lat="45.4798733" lon="14.0580267"><ele>677.0</ele><time>2026-04-30T13:10:21.083Z</time></trkpt><trkpt lat="45.47983" lon="14.058215"><ele>677.0</ele><time>2026-04-30T13:10:22.089Z</time></trkpt><trkpt lat="45.479805" lon="14.058415"><ele>677.0</ele><time>2026-04-30T13:10:23.163Z</time></trkpt><trkpt lat="45.4797917" lon="14.058625"><ele>679.0</ele><time>2026-04-30T13:10:24.103Z</time></trkpt><trkpt lat="45.4797833" lon="14.05884"><ele>681.0</ele><time>2026-04-30T13:10:25.042Z</time></trkpt><trkpt lat="45.4797717" lon="14.05906"><ele>683.0</ele><time>2026-04-30T13:10:26.117Z</time></trkpt><trkpt lat="45.479755" lon="14.0592767"><ele>684.3333333333333</ele><time>2026-04-30T13:10:27.056Z</time></trkpt><trkpt lat="45.479735" lon="14.0594933"><ele>685.6666666666666</ele><time>2026-04-30T13:10:28.13Z</time></trkpt><trkpt lat="45.4797067" lon="14.05971"><ele>687.0</ele><time>2026-04-30T13:10:29.069Z</time></trkpt><trkpt lat="45.4796733" lon="14.0599267"><ele>686.6666666666666</ele><time>2026-04-30T13:10:30.075Z</time></trkpt><trkpt lat="45.479635" lon="14.06015"><ele>686.3333333333333</ele><time>2026-04-30T13:10:31.082Z</time></trkpt><trkpt lat="45.479585" lon="14.0603767"><ele>686.0</ele><time>2026-04-30T13:10:32.089Z</time></trkpt><trkpt lat="45.4795367" lon="14.0606067"><ele>687.6666666666666</ele><time>2026-04-30T13:10:33.162Z</time></trkpt><trkpt lat="45.4794967" lon="14.0608367"><ele>689.3333333333334</ele><time>2026-04-30T13:10:34.103Z</time></trkpt><trkpt lat="45.479455" lon="14.0610617"><ele>691.0</ele><time>2026-04-30T13:10:35.041Z</time></trkpt><trkpt lat="45.4794083" lon="14.0612817"><ele>691.0</ele><time>2026-04-30T13:10:36.115Z</time></trkpt><trkpt lat="45.479365" lon="14.0614983"><ele>691.0</ele><time>2026-04-30T13:10:37.055Z</time></trkpt><trkpt lat="45.4793233" lon="14.0617183"><ele>691.0</ele><time>2026-04-30T13:10:38.13Z</time></trkpt><trkpt lat="45.47928" lon="14.0619367"><ele>692.6666666666667</ele><time>2026-04-30T13:10:39.068Z</time></trkpt><trkpt lat="45.4792367" lon="14.0621567"><ele>694.3333333333334</ele><time>2026-04-30T13:10:40.075Z</time></trkpt><trkpt lat="45.4791933" lon="14.0623767"><ele>696.0</ele><time>2026-04-30T13:10:41.149Z</time></trkpt><trkpt lat="45.4791483" lon="14.0625983"><ele>698.6666666666666</ele><time>2026-04-30T13:10:42.088Z</time></trkpt><trkpt lat="45.4791033" lon="14.0628167"><ele>701.3333333333333</ele><time>2026-04-30T13:10:43.163Z</time></trkpt><trkpt lat="45.4790583" lon="14.0630367"><ele>704.0</ele><time>2026-04-30T13:10:44.101Z</time></trkpt><trkpt lat="45.4790183" lon="14.0632583"><ele>705.3333333333333</ele><time>2026-04-30T13:10:45.042Z</time></trkpt><trkpt lat="45.478975" lon="14.0634833"><ele>706.6666666666666</ele><time>2026-04-30T13:10:46.115Z</time></trkpt><trkpt lat="45.4789283" lon="14.063705"><ele>708.0</ele><time>2026-04-30T13:10:47.055Z</time></trkpt><trkpt lat="45.4788817" lon="14.0639267"><ele>707.3333333333334</ele><time>2026-04-30T13:10:48.061Z</time></trkpt><trkpt lat="45.47884" lon="14.0641433"><ele>706.6666666666667</ele><time>2026-04-30T13:10:49.134Z</time></trkpt><trkpt lat="45.4787933" lon="14.064355"><ele>706.0</ele><time>2026-04-30T13:10:50.074Z</time></trkpt><trkpt lat="45.4787383" lon="14.0645617"><ele>706.0</ele><time>2026-04-30T13:10:51.148Z</time></trkpt><trkpt lat="45.4786833" lon="14.0647667"><ele>706.0</ele><time>2026-04-30T13:10:52.087Z</time></trkpt><trkpt lat="45.4786233" lon="14.0649733"><ele>706.0</ele><time>2026-04-30T13:10:53.027Z</time></trkpt><trkpt lat="45.4785633" lon="14.0651817"><ele>707.6666666666667</ele><time>2026-04-30T13:10:54.1Z</time></trkpt><trkpt lat="45.4785" lon="14.0653933"><ele>709.3333333333334</ele><time>2026-04-30T13:10:55.04Z</time></trkpt><trkpt lat="45.4784367" lon="14.0656033"><ele>711.0</ele><time>2026-04-30T13:10:56.114Z</time></trkpt><trkpt lat="45.4783733" lon="14.0658133"><ele>714.3333333333334</ele><time>2026-04-30T13:10:57.121Z</time></trkpt><trkpt lat="45.4783083" lon="14.0660183"><ele>717.6666666666667</ele><time>2026-04-30T13:10:58.06Z</time></trkpt><trkpt lat="45.4782433" lon="14.0662217"><ele>721.0</ele><time>2026-04-30T13:10:59.134Z</time></trkpt><trkpt lat="45.47818" lon="14.0664267"><ele>723.3333333333334</ele><time>2026-04-30T13:11:00.073Z</time></trkpt><trkpt lat="45.47812" lon="14.0666317"><ele>725.6666666666666</ele><time>2026-04-30T13:11:01.148Z</time></trkpt><trkpt lat="45.4780617" lon="14.0668317"><ele>728.0</ele><time>2026-04-30T13:11:02.086Z</time></trkpt><trkpt lat="45.47801" lon="14.067025"><ele>728.0</ele><time>2026-04-30T13:11:03.027Z</time></trkpt><trkpt lat="45.4779717" lon="14.0672183"><ele>728.0</ele><time>2026-04-30T13:11:04.1Z</time></trkpt><trkpt lat="45.47794" lon="14.067415"><ele>728.0</ele><time>2026-04-30T13:11:05.106Z</time></trkpt><trkpt lat="45.4779167" lon="14.067615"><ele>728.0</ele><time>2026-04-30T13:11:06.114Z</time></trkpt><trkpt lat="45.4778917" lon="14.0678167"><ele>727.75</ele><time>2026-04-30T13:11:07.12Z</time></trkpt><trkpt lat="45.4778717" lon="14.06802"><ele>727.5</ele><time>2026-04-30T13:11:08.06Z</time></trkpt><trkpt lat="45.477845" lon="14.0682283"><ele>727.25</ele><time>2026-04-30T13:11:09.133Z</time></trkpt><trkpt lat="45.477815" lon="14.0684383"><ele>727.0</ele><time>2026-04-30T13:11:10.072Z</time></trkpt><trkpt lat="45.4777883" lon="14.068655"><ele>727.6666666666667</ele><time>2026-04-30T13:11:11.146Z</time></trkpt><trkpt lat="45.4777617" lon="14.068875"><ele>728.3333333333334</ele><time>2026-04-30T13:11:12.086Z</time></trkpt><trkpt lat="45.477735" lon="14.069095"><ele>729.0</ele><time>2026-04-30T13:11:13.026Z</time></trkpt><trkpt lat="45.4777083" lon="14.069315"><ele>731.3333333333334</ele><time>2026-04-30T13:11:14.099Z</time></trkpt><trkpt lat="45.4776817" lon="14.06953"><ele>733.6666666666667</ele><time>2026-04-30T13:11:15.105Z</time></trkpt><trkpt lat="45.4776617" lon="14.0697433"><ele>736.0</ele><time>2026-04-30T13:11:16.113Z</time></trkpt><trkpt lat="45.47765" lon="14.0699567"><ele>737.3333333333334</ele><time>2026-04-30T13:11:17.119Z</time></trkpt><trkpt lat="45.47765" lon="14.0701683"><ele>738.6666666666666</ele><time>2026-04-30T13:11:18.058Z</time></trkpt><trkpt lat="45.47766" lon="14.070385"><ele>740.0</ele><time>2026-04-30T13:11:19.132Z</time></trkpt><trkpt lat="45.4776783" lon="14.0706067"><ele>741.0</ele><time>2026-04-30T13:11:20.072Z</time></trkpt><trkpt lat="45.4777083" lon="14.0708267"><ele>742.0</ele><time>2026-04-30T13:11:21.145Z</time></trkpt><trkpt lat="45.4777483" lon="14.0710517"><ele>743.0</ele><time>2026-04-30T13:11:22.085Z</time></trkpt><trkpt lat="45.47779" lon="14.0712767"><ele>743.0</ele><time>2026-04-30T13:11:23.091Z</time></trkpt><trkpt lat="45.4778283" lon="14.0714883"><ele>743.0</ele><time>2026-04-30T13:11:24.098Z</time></trkpt><trkpt lat="45.4778583" lon="14.0716817"><ele>743.0</ele><time>2026-04-30T13:11:25.105Z</time></trkpt><trkpt lat="45.4778667" lon="14.07186"><ele>743.0</ele><time>2026-04-30T13:11:26.112Z</time></trkpt><trkpt lat="45.4778433" lon="14.0720317"><ele>744.25</ele><time>2026-04-30T13:11:27.118Z</time></trkpt><trkpt lat="45.47779" lon="14.072195"><ele>745.5</ele><time>2026-04-30T13:11:28.058Z</time></trkpt><trkpt lat="45.47772" lon="14.0723517"><ele>746.75</ele><time>2026-04-30T13:11:29.132Z</time></trkpt><trkpt lat="45.4776433" lon="14.07251"><ele>748.0</ele><time>2026-04-30T13:11:30.072Z</time></trkpt><trkpt lat="45.4775683" lon="14.0726767"><ele>750.0</ele><time>2026-04-30T13:11:31.146Z</time></trkpt><trkpt lat="45.4774967" lon="14.07285"><ele>752.0</ele><time>2026-04-30T13:11:32.084Z</time></trkpt><trkpt lat="45.4774267" lon="14.07303"><ele>754.0</ele><time>2026-04-30T13:11:33.092Z</time></trkpt><trkpt lat="45.4773667" lon="14.07322"><ele>756.0</ele><time>2026-04-30T13:11:34.098Z</time></trkpt><trkpt lat="45.47732" lon="14.073415"><ele>759.0</ele><time>2026-04-30T13:11:35.105Z</time></trkpt><trkpt lat="45.4772783" lon="14.0736117"><ele>762.0</ele><time>2026-04-30T13:11:36.111Z</time></trkpt><trkpt lat="45.477245" lon="14.0738117"><ele>765.0</ele><time>2026-04-30T13:11:37.117Z</time></trkpt><trkpt lat="45.4772067" lon="14.074005"><ele>768.0</ele><time>2026-04-30T13:11:38.057Z</time></trkpt><trkpt lat="45.4771567" lon="14.07419"><ele>768.0</ele><time>2026-04-30T13:11:39.13Z</time></trkpt><trkpt lat="45.477095" lon="14.0743667"><ele>768.0</ele><time>2026-04-30T13:11:40.07Z</time></trkpt><trkpt lat="45.4770267" lon="14.07454"><ele>768.0</ele><time>2026-04-30T13:11:41.145Z</time></trkpt><trkpt lat="45.4769533" lon="14.0747133"><ele>768.0</ele><time>2026-04-30T13:11:42.083Z</time></trkpt><trkpt lat="45.4768833" lon="14.074885"><ele>770.0</ele><time>2026-04-30T13:11:43.09Z</time></trkpt><trkpt lat="45.4768167" lon="14.0750417"><ele>772.0</ele><time>2026-04-30T13:11:44.097Z</time></trkpt><trkpt lat="45.4767533" lon="14.0751817"><ele>774.0</ele><time>2026-04-30T13:11:45.104Z</time></trkpt><trkpt lat="45.4766933" lon="14.07532"><ele>776.0</ele><time>2026-04-30T13:11:46.11Z</time></trkpt><trkpt lat="45.47664" lon="14.0754667"><ele>776.0</ele><time>2026-04-30T13:11:47.117Z</time></trkpt><trkpt lat="45.47659" lon="14.0756233"><ele>776.0</ele><time>2026-04-30T13:11:48.056Z</time></trkpt><trkpt lat="45.4765433" lon="14.0757933"><ele>776.0</ele><time>2026-04-30T13:11:49.13Z</time></trkpt><trkpt lat="45.4765017" lon="14.0759767"><ele>776.0</ele><time>2026-04-30T13:11:50.069Z</time></trkpt><trkpt lat="45.4764667" lon="14.0761783"><ele>778.0</ele><time>2026-04-30T13:11:51.143Z</time></trkpt><trkpt lat="45.4764283" lon="14.0763883"><ele>780.0</ele><time>2026-04-30T13:11:52.083Z</time></trkpt><trkpt lat="45.4763917" lon="14.076605"><ele>782.0</ele><time>2026-04-30T13:11:53.09Z</time></trkpt><trkpt lat="45.476355" lon="14.0768283"><ele>782.3333333333334</ele><time>2026-04-30T13:11:54.096Z</time></trkpt><trkpt lat="45.476315" lon="14.0770567"><ele>782.6666666666667</ele><time>2026-04-30T13:11:55.103Z</time></trkpt><trkpt lat="45.476275" lon="14.0772883"><ele>783.0</ele><time>2026-04-30T13:11:56.11Z</time></trkpt><trkpt lat="45.4762317" lon="14.0775217"><ele>783.0</ele><time>2026-04-30T13:11:57.116Z</time></trkpt><trkpt lat="45.4761967" lon="14.0777583"><ele>783.0</ele><time>2026-04-30T13:11:58.055Z</time></trkpt><trkpt lat="45.4761567" lon="14.0779967"><ele>783.0</ele><time>2026-04-30T13:11:59.129Z</time></trkpt><trkpt lat="45.4761133" lon="14.07823"><ele>782.6666666666667</ele><time>2026-04-30T13:12:00.069Z</time></trkpt><trkpt lat="45.4760717" lon="14.078455"><ele>782.3333333333334</ele><time>2026-04-30T13:12:01.142Z</time></trkpt><trkpt lat="45.4760333" lon="14.0786733"><ele>782.0</ele><time>2026-04-30T13:12:02.083Z</time></trkpt><trkpt lat="45.4759967" lon="14.07889"><ele>783.3333333333334</ele><time>2026-04-30T13:12:03.088Z</time></trkpt><trkpt lat="45.47596" lon="14.07911"><ele>784.6666666666667</ele><time>2026-04-30T13:12:04.096Z</time></trkpt><trkpt lat="45.4759283" lon="14.079335"><ele>786.0</ele><time>2026-04-30T13:12:05.102Z</time></trkpt><trkpt lat="45.4758917" lon="14.079555"><ele>786.0</ele><time>2026-04-30T13:12:06.108Z</time></trkpt><trkpt lat="45.475855" lon="14.07978"><ele>786.0</ele><time>2026-04-30T13:12:07.115Z</time></trkpt><trkpt lat="45.475825" lon="14.0800033"><ele>786.0</ele><time>2026-04-30T13:12:08.054Z</time></trkpt><trkpt lat="45.4757883" lon="14.08023"><ele>786.6666666666667</ele><time>2026-04-30T13:12:09.129Z</time></trkpt><trkpt lat="45.4757483" lon="14.0804567"><ele>787.3333333333334</ele><time>2026-04-30T13:12:10.068Z</time></trkpt><trkpt lat="45.47571" lon="14.08069"><ele>788.0</ele><time>2026-04-30T13:12:11.141Z</time></trkpt><trkpt lat="45.475665" lon="14.080925"><ele>788.0</ele><time>2026-04-30T13:12:12.081Z</time></trkpt><trkpt lat="45.4756167" lon="14.0811683"><ele>788.0</ele><time>2026-04-30T13:12:13.089Z</time></trkpt><trkpt lat="45.47557" lon="14.08142"><ele>788.0</ele><time>2026-04-30T13:12:14.094Z</time></trkpt><trkpt lat="45.4755267" lon="14.0816817"><ele>787.6666666666667</ele><time>2026-04-30T13:12:15.101Z</time></trkpt><trkpt lat="45.4754783" lon="14.08194"><ele>787.3333333333333</ele><time>2026-04-30T13:12:16.108Z</time></trkpt><trkpt lat="45.475435" lon="14.0821917"><ele>787.0</ele><time>2026-04-30T13:12:17.114Z</time></trkpt><trkpt lat="45.475395" lon="14.082435"><ele>785.3333333333333</ele><time>2026-04-30T13:12:18.055Z</time></trkpt><trkpt lat="45.47535" lon="14.082675"><ele>783.6666666666667</ele><time>2026-04-30T13:12:19.128Z</time></trkpt><trkpt lat="45.4753083" lon="14.0829133"><ele>782.0</ele><time>2026-04-30T13:12:20.068Z</time></trkpt><trkpt lat="45.4752683" lon="14.083145"><ele>782.6666666666667</ele><time>2026-04-30T13:12:21.141Z</time></trkpt><trkpt lat="45.4752317" lon="14.08337"><ele>783.3333333333333</ele><time>2026-04-30T13:12:22.08Z</time></trkpt><trkpt lat="45.4751933" lon="14.0835867"><ele>784.0</ele><time>2026-04-30T13:12:23.087Z</time></trkpt><trkpt lat="45.475155" lon="14.0838"><ele>784.0</ele><time>2026-04-30T13:12:24.093Z</time></trkpt><trkpt lat="45.4751133" lon="14.0840083"><ele>784.0</ele><time>2026-04-30T13:12:25.101Z</time></trkpt><trkpt lat="45.4750683" lon="14.0842167"><ele>784.0</ele><time>2026-04-30T13:12:26.04Z</time></trkpt><trkpt lat="45.47502" lon="14.0844267"><ele>784.6666666666666</ele><time>2026-04-30T13:12:27.113Z</time></trkpt><trkpt lat="45.4749717" lon="14.0846417"><ele>785.3333333333333</ele><time>2026-04-30T13:12:28.053Z</time></trkpt><trkpt lat="45.4749233" lon="14.08486"><ele>786.0</ele><time>2026-04-30T13:12:29.127Z</time></trkpt><trkpt lat="45.4748717" lon="14.0850833"><ele>786.0</ele><time>2026-04-30T13:12:30.067Z</time></trkpt><trkpt lat="45.47482" lon="14.0853117"><ele>786.0</ele><time>2026-04-30T13:12:31.073Z</time></trkpt><trkpt lat="45.474775" lon="14.0855367"><ele>786.0</ele><time>2026-04-30T13:12:32.08Z</time></trkpt><trkpt lat="45.4747317" lon="14.08576"><ele>786.6666666666667</ele><time>2026-04-30T13:12:33.086Z</time></trkpt><trkpt lat="45.4746917" lon="14.0859767"><ele>787.3333333333334</ele><time>2026-04-30T13:12:34.093Z</time></trkpt><trkpt lat="45.4746567" lon="14.0861833"><ele>788.0</ele><time>2026-04-30T13:12:35.1Z</time></trkpt><trkpt lat="45.4746317" lon="14.0863867"><ele>788.0</ele><time>2026-04-30T13:12:36.04Z</time></trkpt><trkpt lat="45.474625" lon="14.08659"><ele>788.0</ele><time>2026-04-30T13:12:37.114Z</time></trkpt><trkpt lat="45.4746383" lon="14.0867917"><ele>788.0</ele><time>2026-04-30T13:12:38.053Z</time></trkpt><trkpt lat="45.4746617" lon="14.08699"><ele>788.0</ele><time>2026-04-30T13:12:39.127Z</time></trkpt><trkpt lat="45.4746883" lon="14.08719"><ele>788.25</ele><time>2026-04-30T13:12:40.065Z</time></trkpt><trkpt lat="45.4746867" lon="14.0873883"><ele>788.5</ele><time>2026-04-30T13:12:41.072Z</time></trkpt><trkpt lat="45.4746533" lon="14.0875817"><ele>788.75</ele><time>2026-04-30T13:12:42.08Z</time></trkpt><trkpt lat="45.4745933" lon="14.0877633"><ele>789.0</ele><time>2026-04-30T13:12:43.086Z</time></trkpt><trkpt lat="45.474515" lon="14.087935"><ele>787.0</ele><time>2026-04-30T13:12:44.093Z</time></trkpt><trkpt lat="45.47442" lon="14.088095"><ele>785.0</ele><time>2026-04-30T13:12:45.098Z</time></trkpt><trkpt lat="45.4743267" lon="14.0882483"><ele>783.0</ele><time>2026-04-30T13:12:46.038Z</time></trkpt><trkpt lat="45.4742433" lon="14.088395"><ele>781.0</ele><time>2026-04-30T13:12:47.112Z</time></trkpt><trkpt lat="45.4741767" lon="14.0885467"><ele>781.0</ele><time>2026-04-30T13:12:48.051Z</time></trkpt><trkpt lat="45.4741333" lon="14.08871"><ele>781.0</ele><time>2026-04-30T13:12:49.126Z</time></trkpt><trkpt lat="45.474115" lon="14.08889"><ele>781.0</ele><time>2026-04-30T13:12:50.065Z</time></trkpt><trkpt lat="45.4741017" lon="14.0890817"><ele>781.0</ele><time>2026-04-30T13:12:51.072Z</time></trkpt><trkpt lat="45.4740833" lon="14.0892883"><ele>781.0</ele><time>2026-04-30T13:12:52.079Z</time></trkpt><trkpt lat="45.4740417" lon="14.0894983"><ele>781.0</ele><time>2026-04-30T13:12:53.084Z</time></trkpt><trkpt lat="45.4739733" lon="14.089705"><ele>781.0</ele><time>2026-04-30T13:12:54.158Z</time></trkpt><trkpt lat="45.47389" lon="14.0899083"><ele>781.3333333333333</ele><time>2026-04-30T13:12:55.098Z</time></trkpt><trkpt lat="45.4738033" lon="14.0901117"><ele>781.6666666666667</ele><time>2026-04-30T13:12:56.037Z</time></trkpt><trkpt lat="45.4737183" lon="14.0903067"><ele>782.0</ele><time>2026-04-30T13:12:57.111Z</time></trkpt><trkpt lat="45.473635" lon="14.0905017"><ele>777.0</ele><time>2026-04-30T13:12:58.05Z</time></trkpt><trkpt lat="45.4735617" lon="14.0906983"><ele>772.0</ele><time>2026-04-30T13:12:59.124Z</time></trkpt><trkpt lat="45.473505" lon="14.0909017"><ele>767.0</ele><time>2026-04-30T13:13:00.064Z</time></trkpt><trkpt lat="45.4734567" lon="14.0911117"><ele>766.0</ele><time>2026-04-30T13:13:01.07Z</time></trkpt><trkpt lat="45.4734133" lon="14.0913283"><ele>765.0</ele><time>2026-04-30T13:13:02.078Z</time></trkpt><trkpt lat="45.4733733" lon="14.09155"><ele>764.0</ele><time>2026-04-30T13:13:03.084Z</time></trkpt><trkpt lat="45.4733317" lon="14.0917783"><ele>764.0</ele><time>2026-04-30T13:13:04.157Z</time></trkpt><trkpt lat="45.473285" lon="14.0920033"><ele>764.0</ele><time>2026-04-30T13:13:05.097Z</time></trkpt><trkpt lat="45.4732283" lon="14.09222"><ele>764.0</ele><time>2026-04-30T13:13:06.037Z</time></trkpt><trkpt lat="45.4731733" lon="14.0924283"><ele>764.6666666666666</ele><time>2026-04-30T13:13:07.11Z</time></trkpt><trkpt lat="45.47313" lon="14.0926367"><ele>765.3333333333334</ele><time>2026-04-30T13:13:08.051Z</time></trkpt><trkpt lat="45.4730967" lon="14.09285"><ele>766.0</ele><time>2026-04-30T13:13:09.124Z</time></trkpt><trkpt lat="45.4730717" lon="14.0930683"><ele>766.3333333333334</ele><time>2026-04-30T13:13:10.064Z</time></trkpt><trkpt lat="45.4730467" lon="14.0932917"><ele>766.6666666666666</ele><time>2026-04-30T13:13:11.071Z</time></trkpt><trkpt lat="45.4730217" lon="14.0935233"><ele>767.0</ele><time>2026-04-30T13:13:12.143Z</time></trkpt><trkpt lat="45.4730017" lon="14.0937633"><ele>767.0</ele><time>2026-04-30T13:13:13.083Z</time></trkpt><trkpt lat="45.4729867" lon="14.0940117"><ele>767.0</ele><time>2026-04-30T13:13:14.157Z</time></trkpt><trkpt lat="45.4729767" lon="14.0942683"><ele>767.0</ele><time>2026-04-30T13:13:15.097Z</time></trkpt><trkpt lat="45.472965" lon="14.0945233"><ele>767.0</ele><time>2026-04-30T13:13:16.037Z</time></trkpt><trkpt lat="45.4729483" lon="14.0947733"><ele>767.0</ele><time>2026-04-30T13:13:17.109Z</time></trkpt><trkpt lat="45.4729283" lon="14.0950167"><ele>767.0</ele><time>2026-04-30T13:13:18.049Z</time></trkpt><trkpt lat="45.4729017" lon="14.09525"><ele>754.0</ele><time>2026-04-30T13:13:19.124Z</time></trkpt><trkpt lat="45.47287" lon="14.0954767"><ele>741.0</ele><time>2026-04-30T13:13:20.129Z</time></trkpt><trkpt lat="45.4728233" lon="14.0956883"><ele>728.0</ele><time>2026-04-30T13:13:21.07Z</time></trkpt><trkpt lat="45.4727567" lon="14.0958817"><ele>728.0</ele><time>2026-04-30T13:13:22.144Z</time></trkpt><trkpt lat="45.47269" lon="14.0960617"><ele>728.0</ele><time>2026-04-30T13:13:23.083Z</time></trkpt><trkpt lat="45.4726333" lon="14.0962333"><ele>728.0</ele><time>2026-04-30T13:13:24.156Z</time></trkpt><trkpt lat="45.4725967" lon="14.096405"><ele>728.0</ele><time>2026-04-30T13:13:25.095Z</time></trkpt><trkpt lat="45.4725833" lon="14.096585"><ele>727.3333333333333</ele><time>2026-04-30T13:13:26.036Z</time></trkpt><trkpt lat="45.4725883" lon="14.0967817"><ele>726.6666666666666</ele><time>2026-04-30T13:13:27.109Z</time></trkpt><trkpt lat="45.4725983" lon="14.0969967"><ele>726.0</ele><time>2026-04-30T13:13:28.116Z</time></trkpt><trkpt lat="45.4726033" lon="14.0972267"><ele>727.5</ele><time>2026-04-30T13:13:29.122Z</time></trkpt><trkpt lat="45.4725933" lon="14.097705"><ele>729.0</ele><time>2026-04-30T13:13:31.069Z</time></trkpt><trkpt lat="45.472585" lon="14.0979433"><ele>729.0</ele><time>2026-04-30T13:13:32.142Z</time></trkpt><trkpt lat="45.47258" lon="14.0981783"><ele>729.0</ele><time>2026-04-30T13:13:33.082Z</time></trkpt><trkpt lat="45.472575" lon="14.0984033"><ele>729.0</ele><time>2026-04-30T13:13:34.155Z</time></trkpt><trkpt lat="45.4725633" lon="14.0986267"><ele>727.6666666666666</ele><time>2026-04-30T13:13:35.096Z</time></trkpt><trkpt lat="45.4725383" lon="14.098845"><ele>726.3333333333333</ele><time>2026-04-30T13:13:36.101Z</time></trkpt><trkpt lat="45.4725017" lon="14.099055"><ele>725.0</ele><time>2026-04-30T13:13:37.108Z</time></trkpt><trkpt lat="45.4724667" lon="14.099255"><ele>724.5</ele><time>2026-04-30T13:13:38.114Z</time></trkpt><trkpt lat="45.47244" lon="14.0994483"><ele>724.0</ele><time>2026-04-30T13:13:39.122Z</time></trkpt><trkpt lat="45.4724333" lon="14.0996383"><ele>723.5</ele><time>2026-04-30T13:13:40.128Z</time></trkpt><trkpt lat="45.47244" lon="14.09983"><ele>723.0</ele><time>2026-04-30T13:13:41.067Z</time></trkpt><trkpt lat="45.4724567" lon="14.1000283"><ele>721.6666666666666</ele><time>2026-04-30T13:13:42.141Z</time></trkpt><trkpt lat="45.4724867" lon="14.10024"><ele>720.3333333333333</ele><time>2026-04-30T13:13:43.081Z</time></trkpt><trkpt lat="45.4725183" lon="14.1004667"><ele>719.0</ele><time>2026-04-30T13:13:44.154Z</time></trkpt><trkpt lat="45.47255" lon="14.1006983"><ele>717.3333333333333</ele><time>2026-04-30T13:13:45.095Z</time></trkpt><trkpt lat="45.4725783" lon="14.10093"><ele>715.6666666666666</ele><time>2026-04-30T13:13:46.1Z</time></trkpt><trkpt lat="45.4725883" lon="14.1011483"><ele>714.0</ele><time>2026-04-30T13:13:47.108Z</time></trkpt><trkpt lat="45.47259" lon="14.1013667"><ele>712.3333333333334</ele><time>2026-04-30T13:13:48.114Z</time></trkpt><trkpt lat="45.4725767" lon="14.101595"><ele>710.6666666666667</ele><time>2026-04-30T13:13:49.121Z</time></trkpt><trkpt lat="45.4725567" lon="14.1018333"><ele>709.0</ele><time>2026-04-30T13:13:50.127Z</time></trkpt><trkpt lat="45.4725283" lon="14.1020767"><ele>709.0</ele><time>2026-04-30T13:13:51.067Z</time></trkpt><trkpt lat="45.4724933" lon="14.1023167"><ele>709.0</ele><time>2026-04-30T13:13:52.141Z</time></trkpt><trkpt lat="45.4724517" lon="14.102545"><ele>709.0</ele><time>2026-04-30T13:13:53.08Z</time></trkpt><trkpt lat="45.472405" lon="14.1027517"><ele>709.25</ele><time>2026-04-30T13:13:54.086Z</time></trkpt><trkpt lat="45.4723683" lon="14.1029417"><ele>709.5</ele><time>2026-04-30T13:13:55.094Z</time></trkpt><trkpt lat="45.4723467" lon="14.103125"><ele>709.75</ele><time>2026-04-30T13:13:56.1Z</time></trkpt><trkpt lat="45.4723367" lon="14.1033083"><ele>710.0</ele><time>2026-04-30T13:13:57.106Z</time></trkpt><trkpt lat="45.4723333" lon="14.1034967"><ele>710.0</ele><time>2026-04-30T13:13:58.113Z</time></trkpt><trkpt lat="45.472335" lon="14.1036867"><ele>710.0</ele><time>2026-04-30T13:13:59.053Z</time></trkpt><trkpt lat="45.47233" lon="14.10388"><ele>710.0</ele><time>2026-04-30T13:14:00.126Z</time></trkpt><trkpt lat="45.4723017" lon="14.1040633"><ele>710.0</ele><time>2026-04-30T13:14:01.066Z</time></trkpt><trkpt lat="45.4722433" lon="14.1042433"><ele>710.75</ele><time>2026-04-30T13:14:02.139Z</time></trkpt><trkpt lat="45.4721667" lon="14.1044167"><ele>711.5</ele><time>2026-04-30T13:14:03.079Z</time></trkpt><trkpt lat="45.4720833" lon="14.1045817"><ele>712.25</ele><time>2026-04-30T13:14:04.086Z</time></trkpt><trkpt lat="45.4720017" lon="14.1047483"><ele>713.0</ele><time>2026-04-30T13:14:05.092Z</time></trkpt><trkpt lat="45.4719317" lon="14.10493"><ele>705.0</ele><time>2026-04-30T13:14:06.1Z</time></trkpt><trkpt lat="45.4718817" lon="14.1051283"><ele>697.0</ele><time>2026-04-30T13:14:07.106Z</time></trkpt><trkpt lat="45.4718417" lon="14.1053317"><ele>689.0</ele><time>2026-04-30T13:14:08.112Z</time></trkpt><trkpt lat="45.471795" lon="14.1055267"><ele>681.0</ele><time>2026-04-30T13:14:09.053Z</time></trkpt><trkpt lat="45.4717367" lon="14.1057183"><ele>683.6666666666666</ele><time>2026-04-30T13:14:10.125Z</time></trkpt><trkpt lat="45.4716583" lon="14.105905"><ele>686.3333333333333</ele><time>2026-04-30T13:14:11.066Z</time></trkpt><trkpt lat="45.4715683" lon="14.1060967"><ele>689.0</ele><time>2026-04-30T13:14:12.139Z</time></trkpt><trkpt lat="45.4714683" lon="14.10629"><ele>689.0</ele><time>2026-04-30T13:14:13.078Z</time></trkpt><trkpt lat="45.4713633" lon="14.1064867"><ele>689.0</ele><time>2026-04-30T13:14:14.086Z</time></trkpt><trkpt lat="45.4712567" lon="14.1066817"><ele>689.0</ele><time>2026-04-30T13:14:15.092Z</time></trkpt><trkpt lat="45.4711567" lon="14.106875"><ele>684.0</ele><time>2026-04-30T13:14:16.098Z</time></trkpt><trkpt lat="45.4710567" lon="14.1070683"><ele>679.0</ele><time>2026-04-30T13:14:17.106Z</time></trkpt><trkpt lat="45.470965" lon="14.1072533"><ele>674.0</ele><time>2026-04-30T13:14:18.111Z</time></trkpt><trkpt lat="45.4708767" lon="14.1074183"><ele>674.0</ele><time>2026-04-30T13:14:19.052Z</time></trkpt><trkpt lat="45.47081" lon="14.1075667"><ele>674.0</ele><time>2026-04-30T13:14:20.125Z</time></trkpt><trkpt lat="45.4707633" lon="14.1077167"><ele>674.0</ele><time>2026-04-30T13:14:21.065Z</time></trkpt><trkpt lat="45.4707567" lon="14.1078733"><ele>674.0</ele><time>2026-04-30T13:14:22.138Z</time></trkpt><trkpt lat="45.4707667" lon="14.10804"><ele>674.0</ele><time>2026-04-30T13:14:23.077Z</time></trkpt><trkpt lat="45.4707867" lon="14.1082167"><ele>674.0</ele><time>2026-04-30T13:14:24.084Z</time></trkpt><trkpt lat="45.4707967" lon="14.1083917"><ele>674.0</ele><time>2026-04-30T13:14:25.091Z</time></trkpt><trkpt lat="45.4707833" lon="14.108565"><ele>674.0</ele><time>2026-04-30T13:14:26.098Z</time></trkpt><trkpt lat="45.4707383" lon="14.1087417"><ele>675.3333333333333</ele><time>2026-04-30T13:14:27.104Z</time></trkpt><trkpt lat="45.470665" lon="14.1089183"><ele>676.6666666666666</ele><time>2026-04-30T13:14:28.111Z</time></trkpt><trkpt lat="45.4705817" lon="14.1091017"><ele>678.0</ele><time>2026-04-30T13:14:29.051Z</time></trkpt><trkpt lat="45.47048" lon="14.1092917"><ele>671.0</ele><time>2026-04-30T13:14:30.125Z</time></trkpt><trkpt lat="45.4703717" lon="14.1094833"><ele>664.0</ele><time>2026-04-30T13:14:31.064Z</time></trkpt><trkpt lat="45.4702633" lon="14.1096783"><ele>657.0</ele><time>2026-04-30T13:14:32.137Z</time></trkpt><trkpt lat="45.4701617" lon="14.109875"><ele>658.6666666666666</ele><time>2026-04-30T13:14:33.077Z</time></trkpt><trkpt lat="45.4700667" lon="14.11007"><ele>660.3333333333333</ele><time>2026-04-30T13:14:34.084Z</time></trkpt><trkpt lat="45.469975" lon="14.1102633"><ele>662.0</ele><time>2026-04-30T13:14:35.09Z</time></trkpt><trkpt lat="45.4698817" lon="14.1104517"><ele>662.0</ele><time>2026-04-30T13:14:36.098Z</time></trkpt><trkpt lat="45.4697917" lon="14.110635"><ele>662.0</ele><time>2026-04-30T13:14:37.103Z</time></trkpt><trkpt lat="45.469705" lon="14.11082"><ele>662.0</ele><time>2026-04-30T13:14:38.11Z</time></trkpt><trkpt lat="45.46962" lon="14.1110133"><ele>657.3333333333333</ele><time>2026-04-30T13:14:39.049Z</time></trkpt><trkpt lat="45.4695483" lon="14.1112233"><ele>652.6666666666666</ele><time>2026-04-30T13:14:40.123Z</time></trkpt><trkpt lat="45.4694733" lon="14.1114367"><ele>648.0</ele><time>2026-04-30T13:14:41.064Z</time></trkpt><trkpt lat="45.4693983" lon="14.1116567"><ele>648.0</ele><time>2026-04-30T13:14:42.136Z</time></trkpt><trkpt lat="45.469325" lon="14.1118733"><ele>648.0</ele><time>2026-04-30T13:14:43.076Z</time></trkpt><trkpt lat="45.4692533" lon="14.1120817"><ele>648.0</ele><time>2026-04-30T13:14:44.082Z</time></trkpt><trkpt lat="45.4691733" lon="14.1122833"><ele>648.6666666666666</ele><time>2026-04-30T13:14:45.09Z</time></trkpt><trkpt lat="45.4690833" lon="14.112465"><ele>649.3333333333333</ele><time>2026-04-30T13:14:46.097Z</time></trkpt><trkpt lat="45.4689833" lon="14.1126383"><ele>650.0</ele><time>2026-04-30T13:14:47.102Z</time></trkpt><trkpt lat="45.4688817" lon="14.112805"><ele>650.0</ele><time>2026-04-30T13:14:48.11Z</time></trkpt><trkpt lat="45.4687867" lon="14.112965"><ele>650.0</ele><time>2026-04-30T13:14:49.049Z</time></trkpt><trkpt lat="45.4687067" lon="14.1131267"><ele>650.0</ele><time>2026-04-30T13:14:50.123Z</time></trkpt><trkpt lat="45.4686467" lon="14.1132967"><ele>650.0</ele><time>2026-04-30T13:14:51.062Z</time></trkpt><trkpt lat="45.4686083" lon="14.11346"><ele>647.5</ele><time>2026-04-30T13:14:52.137Z</time></trkpt><trkpt lat="45.468595" lon="14.11365"><ele>645.0</ele><time>2026-04-30T13:14:53.076Z</time></trkpt><trkpt lat="45.4685933" lon="14.1138483"><ele>642.5</ele><time>2026-04-30T13:14:54.083Z</time></trkpt><trkpt lat="45.4685933" lon="14.1140617"><ele>640.0</ele><time>2026-04-30T13:14:55.089Z</time></trkpt><trkpt lat="45.4685817" lon="14.114275"><ele>639.75</ele><time>2026-04-30T13:14:56.095Z</time></trkpt><trkpt lat="45.4685517" lon="14.1144717"><ele>639.5</ele><time>2026-04-30T13:14:57.102Z</time></trkpt><trkpt lat="45.4685233" lon="14.1146617"><ele>639.25</ele><time>2026-04-30T13:14:58.109Z</time></trkpt><trkpt lat="45.4684967" lon="14.1148483"><ele>639.0</ele><time>2026-04-30T13:14:59.048Z</time></trkpt><trkpt lat="45.468485" lon="14.11502"><ele>638.5</ele><time>2026-04-30T13:15:00.122Z</time></trkpt><trkpt lat="45.4684883" lon="14.1151867"><ele>638.0</ele><time>2026-04-30T13:15:01.062Z</time></trkpt><trkpt lat="45.4685117" lon="14.11535"><ele>637.5</ele><time>2026-04-30T13:15:02.136Z</time></trkpt><trkpt lat="45.4685383" lon="14.11552"><ele>637.0</ele><time>2026-04-30T13:15:03.074Z</time></trkpt><trkpt lat="45.4685667" lon="14.1157033"><ele>635.25</ele><time>2026-04-30T13:15:04.082Z</time></trkpt><trkpt lat="45.468595" lon="14.1158983"><ele>633.5</ele><time>2026-04-30T13:15:05.089Z</time></trkpt><trkpt lat="45.4686217" lon="14.1161"><ele>631.75</ele><time>2026-04-30T13:15:06.095Z</time></trkpt><trkpt lat="45.4686533" lon="14.1163117"><ele>630.0</ele><time>2026-04-30T13:15:07.101Z</time></trkpt><trkpt lat="45.4686817" lon="14.1165267"><ele>629.5</ele><time>2026-04-30T13:15:08.107Z</time></trkpt><trkpt lat="45.4686983" lon="14.1167383"><ele>629.0</ele><time>2026-04-30T13:15:09.048Z</time></trkpt><trkpt lat="45.468695" lon="14.1169383"><ele>628.5</ele><time>2026-04-30T13:15:10.121Z</time></trkpt><trkpt lat="45.46866" lon="14.1171267"><ele>628.0</ele><time>2026-04-30T13:15:11.06Z</time></trkpt><trkpt lat="45.4685983" lon="14.117295"><ele>630.25</ele><time>2026-04-30T13:15:12.135Z</time></trkpt><trkpt lat="45.4685133" lon="14.1174433"><ele>632.5</ele><time>2026-04-30T13:15:13.075Z</time></trkpt><trkpt lat="45.4684117" lon="14.1175767"><ele>634.75</ele><time>2026-04-30T13:15:14.081Z</time></trkpt><trkpt lat="45.4683033" lon="14.1177033"><ele>637.0</ele><time>2026-04-30T13:15:15.087Z</time></trkpt><trkpt lat="45.46819" lon="14.11783"><ele>637.0</ele><time>2026-04-30T13:15:16.093Z</time></trkpt><trkpt lat="45.4680783" lon="14.1179583"><ele>637.0</ele><time>2026-04-30T13:15:17.167Z</time></trkpt><trkpt lat="45.46798" lon="14.11811"><ele>637.0</ele><time>2026-04-30T13:15:18.107Z</time></trkpt><trkpt lat="45.4678933" lon="14.11828"><ele>637.0</ele><time>2026-04-30T13:15:19.046Z</time></trkpt><trkpt lat="45.4678133" lon="14.118465"><ele>633.6666666666667</ele><time>2026-04-30T13:15:20.12Z</time></trkpt><trkpt lat="45.4677367" lon="14.11866"><ele>630.3333333333334</ele><time>2026-04-30T13:15:21.059Z</time></trkpt><trkpt lat="45.467665" lon="14.1188633"><ele>627.0</ele><time>2026-04-30T13:15:22.066Z</time></trkpt><trkpt lat="45.4676" lon="14.119065"><ele>628.5</ele><time>2026-04-30T13:15:23.073Z</time></trkpt><trkpt lat="45.4675433" lon="14.1192567"><ele>630.0</ele><time>2026-04-30T13:15:24.079Z</time></trkpt><trkpt lat="45.4674967" lon="14.1194483"><ele>631.5</ele><time>2026-04-30T13:15:25.154Z</time></trkpt><trkpt lat="45.4674533" lon="14.119645"><ele>633.0</ele><time>2026-04-30T13:15:26.094Z</time></trkpt><trkpt lat="45.46741" lon="14.1198517"><ele>633.6666666666666</ele><time>2026-04-30T13:15:27.032Z</time></trkpt><trkpt lat="45.4673583" lon="14.120065"><ele>634.3333333333333</ele><time>2026-04-30T13:15:28.106Z</time></trkpt><trkpt lat="45.467305" lon="14.1202833"><ele>635.0</ele><time>2026-04-30T13:15:29.045Z</time></trkpt><trkpt lat="45.4672467" lon="14.1204967"><ele>635.0</ele><time>2026-04-30T13:15:30.12Z</time></trkpt><trkpt lat="45.4671917" lon="14.1207033"><ele>635.0</ele><time>2026-04-30T13:15:31.059Z</time></trkpt><trkpt lat="45.46714" lon="14.1209033"><ele>635.0</ele><time>2026-04-30T13:15:32.066Z</time></trkpt><trkpt lat="45.46709" lon="14.1210967"><ele>635.0</ele><time>2026-04-30T13:15:33.072Z</time></trkpt><trkpt lat="45.46704" lon="14.1212883"><ele>630.6666666666666</ele><time>2026-04-30T13:15:34.079Z</time></trkpt><trkpt lat="45.4669817" lon="14.121475"><ele>626.3333333333334</ele><time>2026-04-30T13:15:35.152Z</time></trkpt><trkpt lat="45.4669083" lon="14.12166"><ele>622.0</ele><time>2026-04-30T13:15:36.092Z</time></trkpt><trkpt lat="45.4668183" lon="14.1218483"><ele>620.6666666666667</ele><time>2026-04-30T13:15:37.031Z</time></trkpt><trkpt lat="45.4667167" lon="14.1220467"><ele>619.3333333333334</ele><time>2026-04-30T13:15:38.106Z</time></trkpt><trkpt lat="45.4666117" lon="14.1222533"><ele>618.0</ele><time>2026-04-30T13:15:39.046Z</time></trkpt><trkpt lat="45.4665017" lon="14.1224683"><ele>618.0</ele><time>2026-04-30T13:15:40.119Z</time></trkpt><trkpt lat="45.466385" lon="14.1226917"><ele>618.0</ele><time>2026-04-30T13:15:41.058Z</time></trkpt><trkpt lat="45.466265" lon="14.122925"><ele>618.0</ele><time>2026-04-30T13:15:42.065Z</time></trkpt><trkpt lat="45.4661417" lon="14.1231633"><ele>613.0</ele><time>2026-04-30T13:15:43.138Z</time></trkpt><trkpt lat="45.4660167" lon="14.1233983"><ele>608.0</ele><time>2026-04-30T13:15:44.078Z</time></trkpt><trkpt lat="45.4658917" lon="14.1236317"><ele>603.0</ele><time>2026-04-30T13:15:45.152Z</time></trkpt><trkpt lat="45.4657667" lon="14.1238667"><ele>603.3333333333334</ele><time>2026-04-30T13:15:46.091Z</time></trkpt><trkpt lat="45.4656383" lon="14.124105"><ele>603.6666666666667</ele><time>2026-04-30T13:15:47.032Z</time></trkpt><trkpt lat="45.46551" lon="14.1243433"><ele>604.0</ele><time>2026-04-30T13:15:48.105Z</time></trkpt><trkpt lat="45.46538" lon="14.1245817"><ele>599.6666666666667</ele><time>2026-04-30T13:15:49.044Z</time></trkpt><trkpt lat="45.4652533" lon="14.124825"><ele>595.3333333333334</ele><time>2026-04-30T13:15:50.118Z</time></trkpt><trkpt lat="45.4651283" lon="14.125065"><ele>591.0</ele><time>2026-04-30T13:15:51.124Z</time></trkpt><trkpt lat="45.4650033" lon="14.1252933"><ele>590.3333333333334</ele><time>2026-04-30T13:15:52.064Z</time></trkpt><trkpt lat="45.46488" lon="14.1255183"><ele>589.6666666666667</ele><time>2026-04-30T13:15:53.139Z</time></trkpt><trkpt lat="45.4647567" lon="14.1257433"><ele>589.0</ele><time>2026-04-30T13:15:54.077Z</time></trkpt><trkpt lat="45.46464" lon="14.1259667"><ele>588.6666666666667</ele><time>2026-04-30T13:15:55.152Z</time></trkpt><trkpt lat="45.4645233" lon="14.126185"><ele>588.3333333333334</ele><time>2026-04-30T13:15:56.09Z</time></trkpt><trkpt lat="45.46441" lon="14.1263983"><ele>588.0</ele><time>2026-04-30T13:15:57.03Z</time></trkpt><trkpt lat="45.4643017" lon="14.1266"><ele>588.0</ele><time>2026-04-30T13:15:58.104Z</time></trkpt><trkpt lat="45.4641883" lon="14.1267933"><ele>588.0</ele><time>2026-04-30T13:15:59.111Z</time></trkpt><trkpt lat="45.4640717" lon="14.126975"><ele>588.0</ele><time>2026-04-30T13:16:00.117Z</time></trkpt><trkpt lat="45.4639483" lon="14.12715"><ele>588.0</ele><time>2026-04-30T13:16:01.124Z</time></trkpt><trkpt lat="45.4638167" lon="14.127315"><ele>588.0</ele><time>2026-04-30T13:16:02.063Z</time></trkpt><trkpt lat="45.4636783" lon="14.127475"><ele>588.0</ele><time>2026-04-30T13:16:03.137Z</time></trkpt><trkpt lat="45.4635367" lon="14.1276367"><ele>587.6666666666666</ele><time>2026-04-30T13:16:04.077Z</time></trkpt><trkpt lat="45.46339" lon="14.1278017"><ele>587.3333333333333</ele><time>2026-04-30T13:16:05.15Z</time></trkpt><trkpt lat="45.4632483" lon="14.1279633"><ele>587.0</ele><time>2026-04-30T13:16:06.09Z</time></trkpt><trkpt lat="45.463115" lon="14.1281183"><ele>587.3333333333333</ele><time>2026-04-30T13:16:07.096Z</time></trkpt><trkpt lat="45.4629883" lon="14.128265"><ele>587.6666666666666</ele><time>2026-04-30T13:16:08.104Z</time></trkpt><trkpt lat="45.4628667" lon="14.128405"><ele>588.0</ele><time>2026-04-30T13:16:09.109Z</time></trkpt><trkpt lat="45.4627567" lon="14.12854"><ele>588.0</ele><time>2026-04-30T13:16:10.117Z</time></trkpt><trkpt lat="45.4626567" lon="14.1286783"><ele>588.0</ele><time>2026-04-30T13:16:11.124Z</time></trkpt><trkpt lat="45.4625733" lon="14.1288217"><ele>588.0</ele><time>2026-04-30T13:16:12.062Z</time></trkpt><trkpt lat="45.4625167" lon="14.1289817"><ele>588.0</ele><time>2026-04-30T13:16:13.137Z</time></trkpt><trkpt lat="45.4624817" lon="14.1291533"><ele>588.75</ele><time>2026-04-30T13:16:14.076Z</time></trkpt><trkpt lat="45.4624683" lon="14.129335"><ele>589.5</ele><time>2026-04-30T13:16:15.149Z</time></trkpt><trkpt lat="45.462475" lon="14.1295283"><ele>590.25</ele><time>2026-04-30T13:16:16.089Z</time></trkpt><trkpt lat="45.4624967" lon="14.12973"><ele>591.0</ele><time>2026-04-30T13:16:17.095Z</time></trkpt><trkpt lat="45.4625133" lon="14.129935"><ele>591.5</ele><time>2026-04-30T13:16:18.102Z</time></trkpt><trkpt lat="45.4625233" lon="14.1301333"><ele>592.0</ele><time>2026-04-30T13:16:19.109Z</time></trkpt><trkpt lat="45.4625283" lon="14.1303183"><ele>592.5</ele><time>2026-04-30T13:16:20.116Z</time></trkpt><trkpt lat="45.4625233" lon="14.1304883"><ele>593.0</ele><time>2026-04-30T13:16:21.122Z</time></trkpt><trkpt lat="45.4624967" lon="14.1306367"><ele>594.0</ele><time>2026-04-30T13:16:22.062Z</time></trkpt><trkpt lat="45.4624467" lon="14.1307667"><ele>595.0</ele><time>2026-04-30T13:16:23.135Z</time></trkpt><trkpt lat="45.4623683" lon="14.130875"><ele>596.0</ele><time>2026-04-30T13:16:24.075Z</time></trkpt><trkpt lat="45.462275" lon="14.130975"><ele>597.0</ele><time>2026-04-30T13:16:25.149Z</time></trkpt><trkpt lat="45.4621667" lon="14.131075"><ele>596.0</ele><time>2026-04-30T13:16:26.088Z</time></trkpt><trkpt lat="45.4620517" lon="14.1311783"><ele>595.0</ele><time>2026-04-30T13:16:27.096Z</time></trkpt><trkpt lat="45.4619317" lon="14.13128"><ele>594.0</ele><time>2026-04-30T13:16:28.101Z</time></trkpt><trkpt lat="45.4618033" lon="14.131385"><ele>593.0</ele><time>2026-04-30T13:16:29.108Z</time></trkpt><trkpt lat="45.4616733" lon="14.131495"><ele>592.75</ele><time>2026-04-30T13:16:30.115Z</time></trkpt><trkpt lat="45.4615483" lon="14.131595"><ele>592.5</ele><time>2026-04-30T13:16:31.121Z</time></trkpt><trkpt lat="45.4614333" lon="14.131705"><ele>592.25</ele><time>2026-04-30T13:16:32.062Z</time></trkpt><trkpt lat="45.4613317" lon="14.13183"><ele>592.0</ele><time>2026-04-30T13:16:33.135Z</time></trkpt><trkpt lat="45.4612483" lon="14.131975"><ele>592.0</ele><time>2026-04-30T13:16:34.075Z</time></trkpt><trkpt lat="45.4611817" lon="14.1321367"><ele>592.0</ele><time>2026-04-30T13:16:35.149Z</time></trkpt><trkpt lat="45.461135" lon="14.1323083"><ele>592.0</ele><time>2026-04-30T13:16:36.088Z</time></trkpt><trkpt lat="45.4611117" lon="14.1324933"><ele>592.0</ele><time>2026-04-30T13:16:37.094Z</time></trkpt><trkpt lat="45.4611017" lon="14.1326883"><ele>594.3333333333334</ele><time>2026-04-30T13:16:38.101Z</time></trkpt><trkpt lat="45.461095" lon="14.1328933"><ele>596.6666666666666</ele><time>2026-04-30T13:16:39.108Z</time></trkpt><trkpt lat="45.46109" lon="14.1331083"><ele>599.0</ele><time>2026-04-30T13:16:40.114Z</time></trkpt><trkpt lat="45.4610867" lon="14.133335"><ele>600.6666666666666</ele><time>2026-04-30T13:16:41.12Z</time></trkpt><trkpt lat="45.461085" lon="14.1335683"><ele>602.3333333333334</ele><time>2026-04-30T13:16:42.06Z</time></trkpt><trkpt lat="45.4610867" lon="14.1338067"><ele>604.0</ele><time>2026-04-30T13:16:43.134Z</time></trkpt><trkpt lat="45.461085" lon="14.1340433"><ele>604.25</ele><time>2026-04-30T13:16:44.074Z</time></trkpt><trkpt lat="45.4610833" lon="14.134265"><ele>604.5</ele><time>2026-04-30T13:16:45.147Z</time></trkpt><trkpt lat="45.4610817" lon="14.1344733"><ele>604.75</ele><time>2026-04-30T13:16:46.086Z</time></trkpt><trkpt lat="45.4610767" lon="14.1346667"><ele>605.0</ele><time>2026-04-30T13:16:47.093Z</time></trkpt><trkpt lat="45.4610717" lon="14.1348567"><ele>605.5</ele><time>2026-04-30T13:16:48.101Z</time></trkpt><trkpt lat="45.4610533" lon="14.1350417"><ele>606.0</ele><time>2026-04-30T13:16:49.106Z</time></trkpt><trkpt lat="45.4610117" lon="14.1352167"><ele>606.5</ele><time>2026-04-30T13:16:50.046Z</time></trkpt><trkpt lat="45.4609467" lon="14.1353817"><ele>607.0</ele><time>2026-04-30T13:16:51.121Z</time></trkpt><trkpt lat="45.4608667" lon="14.13554"><ele>607.0</ele><time>2026-04-30T13:16:52.06Z</time></trkpt><trkpt lat="45.4607733" lon="14.1356917"><ele>607.0</ele><time>2026-04-30T13:16:53.133Z</time></trkpt><trkpt lat="45.4606717" lon="14.1358433"><ele>607.0</ele><time>2026-04-30T13:16:54.072Z</time></trkpt><trkpt lat="45.4605633" lon="14.1359983"><ele>607.0</ele><time>2026-04-30T13:16:55.079Z</time></trkpt><trkpt lat="45.4604533" lon="14.1361567"><ele>609.0</ele><time>2026-04-30T13:16:56.086Z</time></trkpt><trkpt lat="45.46034" lon="14.1363217"><ele>611.0</ele><time>2026-04-30T13:16:57.092Z</time></trkpt><trkpt lat="45.4602267" lon="14.1364833"><ele>613.0</ele><time>2026-04-30T13:16:58.099Z</time></trkpt><trkpt lat="45.460115" lon="14.1366367"><ele>614.0</ele><time>2026-04-30T13:16:59.106Z</time></trkpt><trkpt lat="45.4600067" lon="14.1367867"><ele>615.0</ele><time>2026-04-30T13:17:00.046Z</time></trkpt><trkpt lat="45.459905" lon="14.1369317"><ele>616.0</ele><time>2026-04-30T13:17:01.119Z</time></trkpt><trkpt lat="45.4598067" lon="14.1370717"><ele>617.0</ele><time>2026-04-30T13:17:02.059Z</time></trkpt><trkpt lat="45.4597133" lon="14.137205"><ele>617.0</ele><time>2026-04-30T13:17:03.133Z</time></trkpt><trkpt lat="45.45962" lon="14.137335"><ele>617.0</ele><time>2026-04-30T13:17:04.072Z</time></trkpt><trkpt lat="45.4595333" lon="14.13747"><ele>617.0</ele><time>2026-04-30T13:17:05.078Z</time></trkpt><trkpt lat="45.45945" lon="14.1376117"><ele>617.0</ele><time>2026-04-30T13:17:06.085Z</time></trkpt><trkpt lat="45.45937" lon="14.1377617"><ele>618.0</ele><time>2026-04-30T13:17:07.091Z</time></trkpt><trkpt lat="45.45929" lon="14.13792"><ele>619.0</ele><time>2026-04-30T13:17:08.098Z</time></trkpt><trkpt lat="45.4592167" lon="14.1380767"><ele>620.0</ele><time>2026-04-30T13:17:09.105Z</time></trkpt><trkpt lat="45.4591433" lon="14.1382367"><ele>621.0</ele><time>2026-04-30T13:17:10.045Z</time></trkpt><trkpt lat="45.459075" lon="14.138395"><ele>622.5</ele><time>2026-04-30T13:17:11.118Z</time></trkpt><trkpt lat="45.4590167" lon="14.138555"><ele>624.0</ele><time>2026-04-30T13:17:12.058Z</time></trkpt><trkpt lat="45.4589717" lon="14.1387183"><ele>625.5</ele><time>2026-04-30T13:17:13.131Z</time></trkpt><trkpt lat="45.4589483" lon="14.13889"><ele>627.0</ele><time>2026-04-30T13:17:14.072Z</time></trkpt><trkpt lat="45.4589467" lon="14.13907"><ele>627.5</ele><time>2026-04-30T13:17:15.077Z</time></trkpt><trkpt lat="45.4589567" lon="14.139255"><ele>628.0</ele><time>2026-04-30T13:17:16.084Z</time></trkpt><trkpt lat="45.4589583" lon="14.1394433"><ele>628.5</ele><time>2026-04-30T13:17:17.091Z</time></trkpt><trkpt lat="45.4589283" lon="14.13963"><ele>629.0</ele><time>2026-04-30T13:17:18.097Z</time></trkpt><trkpt lat="45.4588683" lon="14.1398083"><ele>628.5</ele><time>2026-04-30T13:17:19.104Z</time></trkpt><trkpt lat="45.4587817" lon="14.139975"><ele>628.0</ele><time>2026-04-30T13:17:20.043Z</time></trkpt><trkpt lat="45.4586867" lon="14.1401367"><ele>627.5</ele><time>2026-04-30T13:17:21.117Z</time></trkpt><trkpt lat="45.4585917" lon="14.1403017"><ele>627.0</ele><time>2026-04-30T13:17:22.057Z</time></trkpt><trkpt lat="45.4584933" lon="14.14047"><ele>627.0</ele><time>2026-04-30T13:17:23.13Z</time></trkpt><trkpt lat="45.4583917" lon="14.1406417"><ele>627.0</ele><time>2026-04-30T13:17:24.071Z</time></trkpt><trkpt lat="45.4582917" lon="14.1408167"><ele>627.0</ele><time>2026-04-30T13:17:25.077Z</time></trkpt><trkpt lat="45.4581867" lon="14.140995"><ele>627.3333333333334</ele><time>2026-04-30T13:17:26.084Z</time></trkpt><trkpt lat="45.4580783" lon="14.141175"><ele>627.6666666666667</ele><time>2026-04-30T13:17:27.09Z</time></trkpt><trkpt lat="45.4579733" lon="14.141355"><ele>628.0</ele><time>2026-04-30T13:17:28.098Z</time></trkpt><trkpt lat="45.4578767" lon="14.1415367"><ele>628.25</ele><time>2026-04-30T13:17:29.103Z</time></trkpt><trkpt lat="45.4577967" lon="14.1417233"><ele>628.5</ele><time>2026-04-30T13:17:30.043Z</time></trkpt><trkpt lat="45.45773" lon="14.1419083"><ele>628.75</ele><time>2026-04-30T13:17:31.116Z</time></trkpt><trkpt lat="45.4576633" lon="14.142085"><ele>629.0</ele><time>2026-04-30T13:17:32.056Z</time></trkpt><trkpt lat="45.4575817" lon="14.1422533"><ele>630.3333333333333</ele><time>2026-04-30T13:17:33.13Z</time></trkpt><trkpt lat="45.4574783" lon="14.1424"><ele>631.6666666666666</ele><time>2026-04-30T13:17:34.07Z</time></trkpt><trkpt lat="45.457355" lon="14.1425183"><ele>633.0</ele><time>2026-04-30T13:17:35.077Z</time></trkpt><trkpt lat="45.45722" lon="14.1426283"><ele>632.3333333333334</ele><time>2026-04-30T13:17:36.083Z</time></trkpt><trkpt lat="45.4570817" lon="14.1427417"><ele>631.6666666666667</ele><time>2026-04-30T13:17:37.089Z</time></trkpt><trkpt lat="45.45694" lon="14.1428533"><ele>631.0</ele><time>2026-04-30T13:17:38.097Z</time></trkpt><trkpt lat="45.4567933" lon="14.142965"><ele>631.0</ele><time>2026-04-30T13:17:39.102Z</time></trkpt><trkpt lat="45.45665" lon="14.14307"><ele>631.0</ele><time>2026-04-30T13:17:40.042Z</time></trkpt><trkpt lat="45.4565133" lon="14.1431767"><ele>631.0</ele><time>2026-04-30T13:17:41.116Z</time></trkpt><trkpt lat="45.4563867" lon="14.1432933"><ele>630.0</ele><time>2026-04-30T13:17:42.056Z</time></trkpt><trkpt lat="45.4562667" lon="14.1434333"><ele>629.0</ele><time>2026-04-30T13:17:43.13Z</time></trkpt><trkpt lat="45.4561533" lon="14.1435933"><ele>628.0</ele><time>2026-04-30T13:17:44.068Z</time></trkpt><trkpt lat="45.4560383" lon="14.1437683"><ele>628.0</ele><time>2026-04-30T13:17:45.076Z</time></trkpt><trkpt lat="45.45592" lon="14.1439483"><ele>628.0</ele><time>2026-04-30T13:17:46.083Z</time></trkpt><trkpt lat="45.455795" lon="14.1441283"><ele>628.0</ele><time>2026-04-30T13:17:47.089Z</time></trkpt><trkpt lat="45.4556667" lon="14.1443133"><ele>628.6666666666667</ele><time>2026-04-30T13:17:48.162Z</time></trkpt><trkpt lat="45.45554" lon="14.1445017"><ele>629.3333333333334</ele><time>2026-04-30T13:17:49.102Z</time></trkpt><trkpt lat="45.4554117" lon="14.1446933"><ele>630.0</ele><time>2026-04-30T13:17:50.042Z</time></trkpt><trkpt lat="45.4552833" lon="14.1448867"><ele>630.3333333333334</ele><time>2026-04-30T13:17:51.115Z</time></trkpt><trkpt lat="45.4551567" lon="14.1450817"><ele>630.6666666666667</ele><time>2026-04-30T13:17:52.054Z</time></trkpt><trkpt lat="45.4550283" lon="14.145275"><ele>631.0</ele><time>2026-04-30T13:17:53.128Z</time></trkpt><trkpt lat="45.4549" lon="14.1454617"><ele>631.0</ele><time>2026-04-30T13:17:54.068Z</time></trkpt><trkpt lat="45.4547783" lon="14.14564"><ele>631.0</ele><time>2026-04-30T13:17:55.074Z</time></trkpt><trkpt lat="45.45466" lon="14.14581"><ele>631.0</ele><time>2026-04-30T13:17:56.148Z</time></trkpt><trkpt lat="45.4545533" lon="14.145975"><ele>630.5</ele><time>2026-04-30T13:17:57.089Z</time></trkpt><trkpt lat="45.4544667" lon="14.14614"><ele>630.0</ele><time>2026-04-30T13:17:58.161Z</time></trkpt><trkpt lat="45.4544033" lon="14.1463167"><ele>629.5</ele><time>2026-04-30T13:17:59.102Z</time></trkpt><trkpt lat="45.4543667" lon="14.1465083"><ele>629.0</ele><time>2026-04-30T13:18:00.041Z</time></trkpt><trkpt lat="45.454355" lon="14.1467033"><ele>629.0</ele><time>2026-04-30T13:18:01.114Z</time></trkpt><trkpt lat="45.454375" lon="14.1469017"><ele>629.0</ele><time>2026-04-30T13:18:02.055Z</time></trkpt><trkpt lat="45.4544117" lon="14.1471017"><ele>629.0</ele><time>2026-04-30T13:18:03.127Z</time></trkpt><trkpt lat="45.4544583" lon="14.1473067"><ele>629.0</ele><time>2026-04-30T13:18:04.067Z</time></trkpt><trkpt lat="45.454505" lon="14.1475133"><ele>629.0</ele><time>2026-04-30T13:18:05.074Z</time></trkpt><trkpt lat="45.454545" lon="14.1477183"><ele>629.0</ele><time>2026-04-30T13:18:06.147Z</time></trkpt><trkpt lat="45.454575" lon="14.1479267"><ele>629.0</ele><time>2026-04-30T13:18:07.087Z</time></trkpt><trkpt lat="45.4545917" lon="14.148145"><ele>628.0</ele><time>2026-04-30T13:18:08.162Z</time></trkpt><trkpt lat="45.454595" lon="14.1483733"><ele>627.0</ele><time>2026-04-30T13:18:09.1Z</time></trkpt><trkpt lat="45.4545833" lon="14.1486117"><ele>626.0</ele><time>2026-04-30T13:18:10.041Z</time></trkpt><trkpt lat="45.45457" lon="14.148855"><ele>625.6666666666666</ele><time>2026-04-30T13:18:11.113Z</time></trkpt><trkpt lat="45.4545533" lon="14.1490867"><ele>625.3333333333334</ele><time>2026-04-30T13:18:12.054Z</time></trkpt><trkpt lat="45.4545417" lon="14.1493083"><ele>625.0</ele><time>2026-04-30T13:18:13.128Z</time></trkpt><trkpt lat="45.4545267" lon="14.149515"><ele>625.0</ele><time>2026-04-30T13:18:14.134Z</time></trkpt><trkpt lat="45.4545167" lon="14.1497117"><ele>625.0</ele><time>2026-04-30T13:18:15.073Z</time></trkpt><trkpt lat="45.4545217" lon="14.1498933"><ele>625.0</ele><time>2026-04-30T13:18:16.147Z</time></trkpt><trkpt lat="45.4545567" lon="14.15006"><ele>625.0</ele><time>2026-04-30T13:18:17.086Z</time></trkpt><trkpt lat="45.4546217" lon="14.1502117"><ele>625.75</ele><time>2026-04-30T13:18:18.027Z</time></trkpt><trkpt lat="45.4547117" lon="14.1503517"><ele>626.5</ele><time>2026-04-30T13:18:19.099Z</time></trkpt><trkpt lat="45.4548183" lon="14.1504833"><ele>627.25</ele><time>2026-04-30T13:18:20.039Z</time></trkpt><trkpt lat="45.45493" lon="14.1506217"><ele>628.0</ele><time>2026-04-30T13:18:21.113Z</time></trkpt><trkpt lat="45.45503" lon="14.1507617"><ele>629.0</ele><time>2026-04-30T13:18:22.119Z</time></trkpt><trkpt lat="45.4551083" lon="14.1509167"><ele>630.0</ele><time>2026-04-30T13:18:23.06Z</time></trkpt><trkpt lat="45.45517" lon="14.151085"><ele>631.0</ele><time>2026-04-30T13:18:24.132Z</time></trkpt><trkpt lat="45.4552133" lon="14.1512683"><ele>632.0</ele><time>2026-04-30T13:18:25.072Z</time></trkpt><trkpt lat="45.4552483" lon="14.1514667"><ele>631.6666666666666</ele><time>2026-04-30T13:18:26.147Z</time></trkpt><trkpt lat="45.4552833" lon="14.1516767"><ele>631.3333333333334</ele><time>2026-04-30T13:18:27.085Z</time></trkpt><trkpt lat="45.4553167" lon="14.1518833"><ele>631.0</ele><time>2026-04-30T13:18:28.025Z</time></trkpt><trkpt lat="45.455355" lon="14.1520967"><ele>631.0</ele><time>2026-04-30T13:18:29.099Z</time></trkpt><trkpt lat="45.455385" lon="14.1523017"><ele>631.0</ele><time>2026-04-30T13:18:30.106Z</time></trkpt><trkpt lat="45.4554183" lon="14.1525"><ele>631.0</ele><time>2026-04-30T13:18:31.113Z</time></trkpt><trkpt lat="45.4554433" lon="14.15268"><ele>631.0</ele><time>2026-04-30T13:18:32.119Z</time></trkpt><trkpt lat="45.4554633" lon="14.1528433"><ele>631.0</ele><time>2026-04-30T13:18:33.058Z</time></trkpt><trkpt lat="45.455475" lon="14.1530033"><ele>631.0</ele><time>2026-04-30T13:18:34.133Z</time></trkpt><trkpt lat="45.4554667" lon="14.1531733"><ele>631.0</ele><time>2026-04-30T13:18:35.071Z</time></trkpt><trkpt lat="45.4554383" lon="14.1533517"><ele>631.0</ele><time>2026-04-30T13:18:36.146Z</time></trkpt><trkpt lat="45.4553967" lon="14.1535383"><ele>631.25</ele><time>2026-04-30T13:18:37.085Z</time></trkpt><trkpt lat="45.4553517" lon="14.1537183"><ele>631.5</ele><time>2026-04-30T13:18:38.092Z</time></trkpt><trkpt lat="45.4553183" lon="14.1538917"><ele>631.75</ele><time>2026-04-30T13:18:39.099Z</time></trkpt><trkpt lat="45.4553117" lon="14.1540583"><ele>632.0</ele><time>2026-04-30T13:18:40.105Z</time></trkpt><trkpt lat="45.4553367" lon="14.154225"><ele>633.0</ele><time>2026-04-30T13:18:41.112Z</time></trkpt><trkpt lat="45.455385" lon="14.15439"><ele>634.0</ele><time>2026-04-30T13:18:42.119Z</time></trkpt><trkpt lat="45.4554533" lon="14.1545533"><ele>635.0</ele><time>2026-04-30T13:18:43.058Z</time></trkpt><trkpt lat="45.45554" lon="14.154715"><ele>636.0</ele><time>2026-04-30T13:18:44.131Z</time></trkpt><trkpt lat="45.45564" lon="14.1548833"><ele>637.3333333333334</ele><time>2026-04-30T13:18:45.071Z</time></trkpt><trkpt lat="45.4557417" lon="14.1550583"><ele>638.6666666666667</ele><time>2026-04-30T13:18:46.145Z</time></trkpt><trkpt lat="45.4558367" lon="14.15523"><ele>640.0</ele><time>2026-04-30T13:18:47.084Z</time></trkpt><trkpt lat="45.4559217" lon="14.1553967"><ele>640.0</ele><time>2026-04-30T13:18:48.09Z</time></trkpt><trkpt lat="45.456" lon="14.155565"><ele>640.0</ele><time>2026-04-30T13:18:49.098Z</time></trkpt><trkpt lat="45.4560683" lon="14.1557417"><ele>640.0</ele><time>2026-04-30T13:18:50.104Z</time></trkpt><trkpt lat="45.4561317" lon="14.155925"><ele>640.0</ele><time>2026-04-30T13:18:51.111Z</time></trkpt><trkpt lat="45.4562433" lon="14.1562967"><ele>640.0</ele><time>2026-04-30T13:18:53.056Z</time></trkpt><trkpt lat="45.456285" lon="14.1564817"><ele>640.0</ele><time>2026-04-30T13:18:54.131Z</time></trkpt><trkpt lat="45.45631" lon="14.1566567"><ele>640.0</ele><time>2026-04-30T13:18:55.07Z</time></trkpt><trkpt lat="45.456315" lon="14.15683"><ele>640.0</ele><time>2026-04-30T13:18:56.144Z</time></trkpt><trkpt lat="45.456295" lon="14.157005"><ele>639.75</ele><time>2026-04-30T13:18:57.083Z</time></trkpt><trkpt lat="45.45625" lon="14.1571767"><ele>639.5</ele><time>2026-04-30T13:18:58.09Z</time></trkpt><trkpt lat="45.4561817" lon="14.15734"><ele>639.25</ele><time>2026-04-30T13:18:59.097Z</time></trkpt><trkpt lat="45.4561033" lon="14.1574983"><ele>639.0</ele><time>2026-04-30T13:19:00.103Z</time></trkpt><trkpt lat="45.4560267" lon="14.15765"><ele>640.0</ele><time>2026-04-30T13:19:01.109Z</time></trkpt><trkpt lat="45.4559517" lon="14.1577933"><ele>641.0</ele><time>2026-04-30T13:19:02.116Z</time></trkpt><trkpt lat="45.4558833" lon="14.1579217"><ele>642.0</ele><time>2026-04-30T13:19:03.056Z</time></trkpt><trkpt lat="45.4558233" lon="14.1580433"><ele>643.0</ele><time>2026-04-30T13:19:04.13Z</time></trkpt><trkpt lat="45.4557717" lon="14.1581683"><ele>644.0</ele><time>2026-04-30T13:19:05.069Z</time></trkpt><trkpt lat="45.4557317" lon="14.1583067"><ele>644.8000000000001</ele><time>2026-04-30T13:19:06.143Z</time></trkpt><trkpt lat="45.4557067" lon="14.1584583"><ele>645.6</ele><time>2026-04-30T13:19:07.082Z</time></trkpt><trkpt lat="45.4556933" lon="14.158605"><ele>646.4</ele><time>2026-04-30T13:19:08.089Z</time></trkpt><trkpt lat="45.4556933" lon="14.1587333"><ele>647.2</ele><time>2026-04-30T13:19:09.095Z</time></trkpt><trkpt lat="45.4556983" lon="14.158835"><ele>648.0</ele><time>2026-04-30T13:19:10.102Z</time></trkpt><trkpt lat="45.45572" lon="14.158995"><ele>648.1666666666666</ele><time>2026-04-30T13:19:12.116Z</time></trkpt><trkpt lat="45.4557317" lon="14.1590833"><ele>648.3333333333334</ele><time>2026-04-30T13:19:13.056Z</time></trkpt><trkpt lat="45.455745" lon="14.15919"><ele>648.5</ele><time>2026-04-30T13:19:14.129Z</time></trkpt><trkpt lat="45.4557583" lon="14.159315"><ele>648.6666666666667</ele><time>2026-04-30T13:19:15.068Z</time></trkpt><trkpt lat="45.4557767" lon="14.1594617"><ele>648.8333333333334</ele><time>2026-04-30T13:19:16.143Z</time></trkpt><trkpt lat="45.4558" lon="14.159625"><ele>649.0</ele><time>2026-04-30T13:19:17.081Z</time></trkpt><trkpt lat="45.4558283" lon="14.1598"><ele>648.25</ele><time>2026-04-30T13:19:18.089Z</time></trkpt><trkpt lat="45.4558533" lon="14.1599867"><ele>647.5</ele><time>2026-04-30T13:19:19.095Z</time></trkpt><trkpt lat="45.45588" lon="14.16019"><ele>646.75</ele><time>2026-04-30T13:19:20.102Z</time></trkpt><trkpt lat="45.455905" lon="14.1604067"><ele>646.0</ele><time>2026-04-30T13:19:21.109Z</time></trkpt><trkpt lat="45.4559333" lon="14.1606317"><ele>645.3333333333334</ele><time>2026-04-30T13:19:22.115Z</time></trkpt><trkpt lat="45.4559667" lon="14.1608667"><ele>644.6666666666666</ele><time>2026-04-30T13:19:23.054Z</time></trkpt><trkpt lat="45.4560017" lon="14.16111"><ele>644.0</ele><time>2026-04-30T13:19:24.128Z</time></trkpt><trkpt lat="45.4560367" lon="14.1613583"><ele>643.0</ele><time>2026-04-30T13:19:25.067Z</time></trkpt><trkpt lat="45.45607" lon="14.161605"><ele>642.0</ele><time>2026-04-30T13:19:26.141Z</time></trkpt><trkpt lat="45.4560967" lon="14.16184"><ele>641.0</ele><time>2026-04-30T13:19:27.082Z</time></trkpt><trkpt lat="45.4561117" lon="14.1620633"><ele>641.0</ele><time>2026-04-30T13:19:28.087Z</time></trkpt><trkpt lat="45.456115" lon="14.1622833"><ele>641.0</ele><time>2026-04-30T13:19:29.094Z</time></trkpt><trkpt lat="45.4561" lon="14.1625"><ele>641.0</ele><time>2026-04-30T13:19:30.1Z</time></trkpt><trkpt lat="45.4560633" lon="14.16271"><ele>641.0</ele><time>2026-04-30T13:19:31.107Z</time></trkpt><trkpt lat="45.4560083" lon="14.1629183"><ele>641.0</ele><time>2026-04-30T13:19:32.115Z</time></trkpt><trkpt lat="45.455945" lon="14.16312"><ele>641.0</ele><time>2026-04-30T13:19:33.053Z</time></trkpt><trkpt lat="45.455875" lon="14.1633167"><ele>641.5</ele><time>2026-04-30T13:19:34.127Z</time></trkpt><trkpt lat="45.4558067" lon="14.1635033"><ele>642.0</ele><time>2026-04-30T13:19:35.067Z</time></trkpt><trkpt lat="45.4557433" lon="14.1636767"><ele>642.5</ele><time>2026-04-30T13:19:36.141Z</time></trkpt><trkpt lat="45.4556883" lon="14.1638433"><ele>643.0</ele><time>2026-04-30T13:19:37.081Z</time></trkpt><trkpt lat="45.4556383" lon="14.16401"><ele>642.25</ele><time>2026-04-30T13:19:38.086Z</time></trkpt><trkpt lat="45.4555983" lon="14.1641833"><ele>641.5</ele><time>2026-04-30T13:19:39.093Z</time></trkpt><trkpt lat="45.455575" lon="14.16437"><ele>640.75</ele><time>2026-04-30T13:19:40.1Z</time></trkpt><trkpt lat="45.4555767" lon="14.1645617"><ele>640.0</ele><time>2026-04-30T13:19:41.107Z</time></trkpt><trkpt lat="45.4556033" lon="14.1647517"><ele>640.25</ele><time>2026-04-30T13:19:42.114Z</time></trkpt><trkpt lat="45.4556467" lon="14.1649417"><ele>640.5</ele><time>2026-04-30T13:19:43.053Z</time></trkpt><trkpt lat="45.455695" lon="14.1651317"><ele>640.75</ele><time>2026-04-30T13:19:44.126Z</time></trkpt><trkpt lat="45.4557417" lon="14.1653183"><ele>641.0</ele><time>2026-04-30T13:19:45.067Z</time></trkpt><trkpt lat="45.4557783" lon="14.1655067"><ele>641.5</ele><time>2026-04-30T13:19:46.139Z</time></trkpt><trkpt lat="45.4557933" lon="14.1657"><ele>642.0</ele><time>2026-04-30T13:19:47.079Z</time></trkpt><trkpt lat="45.4557767" lon="14.1658917"><ele>642.5</ele><time>2026-04-30T13:19:48.087Z</time></trkpt><trkpt lat="45.4557317" lon="14.1660833"><ele>643.0</ele><time>2026-04-30T13:19:49.093Z</time></trkpt><trkpt lat="45.455665" lon="14.16627"><ele>643.0</ele><time>2026-04-30T13:19:50.099Z</time></trkpt><trkpt lat="45.4555833" lon="14.1664517"><ele>643.0</ele><time>2026-04-30T13:19:51.039Z</time></trkpt><trkpt lat="45.455495" lon="14.1666283"><ele>643.0</ele><time>2026-04-30T13:19:52.113Z</time></trkpt><trkpt lat="45.4554017" lon="14.166805"><ele>644.0</ele><time>2026-04-30T13:19:53.052Z</time></trkpt><trkpt lat="45.4553033" lon="14.1669833"><ele>645.0</ele><time>2026-04-30T13:19:54.126Z</time></trkpt><trkpt lat="45.4552033" lon="14.1671667"><ele>646.0</ele><time>2026-04-30T13:19:55.066Z</time></trkpt><trkpt lat="45.4551017" lon="14.16735"><ele>645.3333333333334</ele><time>2026-04-30T13:19:56.072Z</time></trkpt><trkpt lat="45.455" lon="14.1675367"><ele>644.6666666666666</ele><time>2026-04-30T13:19:57.078Z</time></trkpt><trkpt lat="45.4548983" lon="14.1677183"><ele>644.0</ele><time>2026-04-30T13:19:58.085Z</time></trkpt><trkpt lat="45.4548017" lon="14.16789"><ele>644.0</ele><time>2026-04-30T13:19:59.092Z</time></trkpt><trkpt lat="45.4547083" lon="14.1680617"><ele>644.0</ele><time>2026-04-30T13:20:00.099Z</time></trkpt><trkpt lat="45.4546183" lon="14.1682333"><ele>644.0</ele><time>2026-04-30T13:20:01.039Z</time></trkpt><trkpt lat="45.4545267" lon="14.1684067"><ele>643.3333333333333</ele><time>2026-04-30T13:20:02.112Z</time></trkpt><trkpt lat="45.45443" lon="14.1685833"><ele>642.6666666666666</ele><time>2026-04-30T13:20:03.052Z</time></trkpt><trkpt lat="45.4543333" lon="14.1687633"><ele>642.0</ele><time>2026-04-30T13:20:04.125Z</time></trkpt><trkpt lat="45.4542317" lon="14.1689433"><ele>642.0</ele><time>2026-04-30T13:20:05.065Z</time></trkpt><trkpt lat="45.4541317" lon="14.169125"><ele>642.0</ele><time>2026-04-30T13:20:06.071Z</time></trkpt><trkpt lat="45.4540317" lon="14.1693067"><ele>642.0</ele><time>2026-04-30T13:20:07.078Z</time></trkpt><trkpt lat="45.453935" lon="14.1694833"><ele>642.0</ele><time>2026-04-30T13:20:08.084Z</time></trkpt><trkpt lat="45.4538433" lon="14.169655"><ele>642.0</ele><time>2026-04-30T13:20:09.091Z</time></trkpt><trkpt lat="45.4537617" lon="14.1698233"><ele>642.0</ele><time>2026-04-30T13:20:10.097Z</time></trkpt><trkpt lat="45.4536967" lon="14.1699867"><ele>642.0</ele><time>2026-04-30T13:20:11.037Z</time></trkpt><trkpt lat="45.45365" lon="14.1701333"><ele>641.3333333333334</ele><time>2026-04-30T13:20:12.111Z</time></trkpt><trkpt lat="45.453615" lon="14.1702583"><ele>640.6666666666666</ele><time>2026-04-30T13:20:13.051Z</time></trkpt><trkpt lat="45.453575" lon="14.1703633"><ele>640.0</ele><time>2026-04-30T13:20:14.125Z</time></trkpt><trkpt lat="45.4535267" lon="14.1704517"><ele>639.3333333333333</ele><time>2026-04-30T13:20:15.063Z</time></trkpt><trkpt lat="45.4534733" lon="14.1705317"><ele>638.6666666666666</ele><time>2026-04-30T13:20:16.071Z</time></trkpt><trkpt lat="45.453415" lon="14.1706083"><ele>638.0</ele><time>2026-04-30T13:20:17.078Z</time></trkpt><trkpt lat="45.4533583" lon="14.1706733"><ele>638.3333333333333</ele><time>2026-04-30T13:20:18.083Z</time></trkpt><trkpt lat="45.4532933" lon="14.1707317"><ele>638.6666666666666</ele><time>2026-04-30T13:20:19.157Z</time></trkpt><trkpt lat="45.4532217" lon="14.1707867"><ele>639.0</ele><time>2026-04-30T13:20:20.097Z</time></trkpt><trkpt lat="45.4531417" lon="14.1708333"><ele>639.3333333333334</ele><time>2026-04-30T13:20:21.037Z</time></trkpt><trkpt lat="45.4530567" lon="14.1708717"><ele>639.6666666666667</ele><time>2026-04-30T13:20:22.11Z</time></trkpt><trkpt lat="45.4529733" lon="14.170905"><ele>640.0</ele><time>2026-04-30T13:20:23.049Z</time></trkpt><trkpt lat="45.4528933" lon="14.1709367"><ele>640.5</ele><time>2026-04-30T13:20:24.123Z</time></trkpt><trkpt lat="45.4528167" lon="14.1709733"><ele>641.0</ele><time>2026-04-30T13:20:25.064Z</time></trkpt><trkpt lat="45.452745" lon="14.1710233"><ele>641.5</ele><time>2026-04-30T13:20:26.07Z</time></trkpt><trkpt lat="45.4526767" lon="14.1710733"><ele>642.0</ele><time>2026-04-30T13:20:27.143Z</time></trkpt><trkpt lat="45.45261" lon="14.1711117"><ele>642.5</ele><time>2026-04-30T13:20:28.083Z</time></trkpt><trkpt lat="45.4525417" lon="14.1711383"><ele>643.0</ele><time>2026-04-30T13:20:29.156Z</time></trkpt><trkpt lat="45.4524683" lon="14.1711583"><ele>643.0</ele><time>2026-04-30T13:20:30.096Z</time></trkpt><trkpt lat="45.45239" lon="14.171165"><ele>643.0</ele><time>2026-04-30T13:20:31.035Z</time></trkpt><trkpt lat="45.4523083" lon="14.1711667"><ele>643.0</ele><time>2026-04-30T13:20:32.11Z</time></trkpt><trkpt lat="45.4522217" lon="14.1711717"><ele>643.0</ele><time>2026-04-30T13:20:33.049Z</time></trkpt><trkpt lat="45.4521283" lon="14.171185"><ele>643.0</ele><time>2026-04-30T13:20:34.122Z</time></trkpt><trkpt lat="45.4520317" lon="14.1711983"><ele>643.0</ele><time>2026-04-30T13:20:35.062Z</time></trkpt><trkpt lat="45.451935" lon="14.171205"><ele>643.6666666666667</ele><time>2026-04-30T13:20:36.068Z</time></trkpt><trkpt lat="45.4518433" lon="14.1712033"><ele>644.3333333333334</ele><time>2026-04-30T13:20:37.143Z</time></trkpt><trkpt lat="45.451755" lon="14.171205"><ele>645.0</ele><time>2026-04-30T13:20:38.082Z</time></trkpt><trkpt lat="45.45167" lon="14.1712083"><ele>645.6666666666666</ele><time>2026-04-30T13:20:39.156Z</time></trkpt><trkpt lat="45.451585" lon="14.1712133"><ele>646.3333333333333</ele><time>2026-04-30T13:20:40.096Z</time></trkpt><trkpt lat="45.451495" lon="14.1712183"><ele>647.0</ele><time>2026-04-30T13:20:41.035Z</time></trkpt><trkpt lat="45.4514117" lon="14.1712133"><ele>647.0</ele><time>2026-04-30T13:20:42.108Z</time></trkpt><trkpt lat="45.45133" lon="14.1712083"><ele>647.0</ele><time>2026-04-30T13:20:43.048Z</time></trkpt><trkpt lat="45.4512533" lon="14.1711983"><ele>647.0</ele><time>2026-04-30T13:20:44.122Z</time></trkpt><trkpt lat="45.4511833" lon="14.1711767"><ele>647.0</ele><time>2026-04-30T13:20:45.129Z</time></trkpt><trkpt lat="45.4511117" lon="14.1711517"><ele>647.0</ele><time>2026-04-30T13:20:46.069Z</time></trkpt><trkpt lat="45.451035" lon="14.1711233"><ele>647.0</ele><time>2026-04-30T13:20:47.142Z</time></trkpt><trkpt lat="45.4509567" lon="14.17109"><ele>647.0</ele><time>2026-04-30T13:20:48.081Z</time></trkpt><trkpt lat="45.450885" lon="14.17105"><ele>647.0</ele><time>2026-04-30T13:20:49.156Z</time></trkpt><trkpt lat="45.4508217" lon="14.171"><ele>647.0</ele><time>2026-04-30T13:20:50.095Z</time></trkpt><trkpt lat="45.4507583" lon="14.1709433"><ele>647.0</ele><time>2026-04-30T13:20:51.034Z</time></trkpt><trkpt lat="45.4506983" lon="14.17088"><ele>647.0</ele><time>2026-04-30T13:20:52.108Z</time></trkpt><trkpt lat="45.4506267" lon="14.1708083"><ele>647.0</ele><time>2026-04-30T13:20:53.115Z</time></trkpt><trkpt lat="45.4505483" lon="14.170735"><ele>647.4000000000001</ele><time>2026-04-30T13:20:54.122Z</time></trkpt><trkpt lat="45.4504717" lon="14.1706717"><ele>647.8000000000001</ele><time>2026-04-30T13:20:55.128Z</time></trkpt><trkpt lat="45.4503917" lon="14.170615"><ele>648.2</ele><time>2026-04-30T13:20:56.068Z</time></trkpt><trkpt lat="45.4503083" lon="14.170565"><ele>648.6</ele><time>2026-04-30T13:20:57.142Z</time></trkpt><trkpt lat="45.4502233" lon="14.1705233"><ele>649.0</ele><time>2026-04-30T13:20:58.081Z</time></trkpt><trkpt lat="45.450135" lon="14.17049"><ele>649.0</ele><time>2026-04-30T13:20:59.154Z</time></trkpt><trkpt lat="45.4500483" lon="14.170475"><ele>649.0</ele><time>2026-04-30T13:21:00.093Z</time></trkpt><trkpt lat="45.4499717" lon="14.1704633"><ele>649.0</ele><time>2026-04-30T13:21:01.101Z</time></trkpt><trkpt lat="45.4499" lon="14.1704533"><ele>649.0</ele><time>2026-04-30T13:21:02.107Z</time></trkpt><trkpt lat="45.449825" lon="14.1704417"><ele>649.0</ele><time>2026-04-30T13:21:03.114Z</time></trkpt><trkpt lat="45.4497417" lon="14.1704317"><ele>649.0</ele><time>2026-04-30T13:21:04.121Z</time></trkpt><trkpt lat="45.44966" lon="14.17044"><ele>648.3333333333334</ele><time>2026-04-30T13:21:05.127Z</time></trkpt><trkpt lat="45.44958" lon="14.1704617"><ele>647.6666666666667</ele><time>2026-04-30T13:21:06.066Z</time></trkpt><trkpt lat="45.4494983" lon="14.1704867"><ele>647.0</ele><time>2026-04-30T13:21:07.14Z</time></trkpt><trkpt lat="45.4494133" lon="14.1705067"><ele>646.3333333333334</ele><time>2026-04-30T13:21:08.08Z</time></trkpt><trkpt lat="45.4493267" lon="14.1705217"><ele>645.6666666666666</ele><time>2026-04-30T13:21:09.153Z</time></trkpt><trkpt lat="45.4492433" lon="14.170535"><ele>645.0</ele><time>2026-04-30T13:21:10.094Z</time></trkpt><trkpt lat="45.4491683" lon="14.1705467"><ele>645.0</ele><time>2026-04-30T13:21:11.1Z</time></trkpt><trkpt lat="45.4491017" lon="14.1705567"><ele>645.0</ele><time>2026-04-30T13:21:12.107Z</time></trkpt><trkpt lat="45.448985" lon="14.170505"><ele>645.0</ele><time>2026-04-30T13:21:14.12Z</time></trkpt><trkpt lat="45.448925" lon="14.1704667"><ele>645.0</ele><time>2026-04-30T13:21:15.126Z</time></trkpt><trkpt lat="45.4488683" lon="14.1704133"><ele>645.0</ele><time>2026-04-30T13:21:16.065Z</time></trkpt><trkpt lat="45.4488083" lon="14.1703667"><ele>645.0</ele><time>2026-04-30T13:21:17.139Z</time></trkpt><trkpt lat="45.44875" lon="14.1703217"><ele>644.1428571428572</ele><time>2026-04-30T13:21:18.08Z</time></trkpt><trkpt lat="45.4486917" lon="14.1702767"><ele>643.2857142857142</ele><time>2026-04-30T13:21:19.086Z</time></trkpt><trkpt lat="45.4486267" lon="14.1702483"><ele>642.4285714285714</ele><time>2026-04-30T13:21:20.092Z</time></trkpt><trkpt lat="45.4485633" lon="14.17023"><ele>641.5714285714287</ele><time>2026-04-30T13:21:21.099Z</time></trkpt><trkpt lat="45.4485" lon="14.1702317"><ele>640.7142857142858</ele><time>2026-04-30T13:21:22.105Z</time></trkpt><trkpt lat="45.4484367" lon="14.1702433"><ele>639.8571428571429</ele><time>2026-04-30T13:21:23.113Z</time></trkpt><trkpt lat="45.4483167" lon="14.1702583"><ele>639.0</ele><time>2026-04-30T13:21:25.126Z</time></trkpt><trkpt lat="45.4481983" lon="14.1701983"><ele>639.0</ele><time>2026-04-30T13:21:27.139Z</time></trkpt><trkpt lat="45.4481333" lon="14.1701517"><ele>639.0</ele><time>2026-04-30T13:21:28.079Z</time></trkpt><trkpt lat="45.4480583" lon="14.1701133"><ele>639.0</ele><time>2026-04-30T13:21:29.084Z</time></trkpt><trkpt lat="45.4479767" lon="14.170085"><ele>639.0</ele><time>2026-04-30T13:21:30.091Z</time></trkpt><trkpt lat="45.4479" lon="14.17007"><ele>639.0</ele><time>2026-04-30T13:21:31.099Z</time></trkpt><trkpt lat="45.447825" lon="14.170075"><ele>639.0</ele><time>2026-04-30T13:21:32.105Z</time></trkpt><trkpt lat="45.44776" lon="14.1700983"><ele>639.1666666666666</ele><time>2026-04-30T13:21:33.112Z</time></trkpt><trkpt lat="45.4477" lon="14.1701383"><ele>639.3333333333334</ele><time>2026-04-30T13:21:34.051Z</time></trkpt><trkpt lat="45.4476467" lon="14.17019"><ele>639.5</ele><time>2026-04-30T13:21:35.125Z</time></trkpt><trkpt lat="45.4475567" lon="14.1702633"><ele>639.6666666666667</ele><time>2026-04-30T13:21:37.139Z</time></trkpt><trkpt lat="45.4474783" lon="14.170265"><ele>639.8333333333334</ele><time>2026-04-30T13:21:39.085Z</time></trkpt><trkpt lat="45.4474033" lon="14.1702283"><ele>640.0</ele><time>2026-04-30T13:21:41.097Z</time></trkpt><trkpt lat="45.4472967" lon="14.1701983"><ele>640.0</ele><time>2026-04-30T13:21:43.11Z</time></trkpt><trkpt lat="45.447225" lon="14.1701833"><ele>640.0</ele><time>2026-04-30T13:21:44.05Z</time></trkpt><trkpt lat="45.4471467" lon="14.1701667"><ele>640.0</ele><time>2026-04-30T13:21:45.123Z</time></trkpt><trkpt lat="45.4470667" lon="14.1701483"><ele>640.0</ele><time>2026-04-30T13:21:46.063Z</time></trkpt><trkpt lat="45.4469833" lon="14.1701433"><ele>640.0</ele><time>2026-04-30T13:21:47.137Z</time></trkpt><trkpt lat="45.4469017" lon="14.17016"><ele>640.0</ele><time>2026-04-30T13:21:48.076Z</time></trkpt><trkpt lat="45.4468233" lon="14.17019"><ele>640.1666666666667</ele><time>2026-04-30T13:21:49.084Z</time></trkpt><trkpt lat="45.44675" lon="14.1702267"><ele>640.3333333333334</ele><time>2026-04-30T13:21:50.09Z</time></trkpt><trkpt lat="45.4466767" lon="14.1702683"><ele>640.5</ele><time>2026-04-30T13:21:51.097Z</time></trkpt><trkpt lat="45.4465983" lon="14.1703083"><ele>640.6666666666666</ele><time>2026-04-30T13:21:52.103Z</time></trkpt><trkpt lat="45.4465217" lon="14.1703433"><ele>640.8333333333333</ele><time>2026-04-30T13:21:53.11Z</time></trkpt><trkpt lat="45.4464383" lon="14.1703617"><ele>641.0</ele><time>2026-04-30T13:21:54.049Z</time></trkpt><trkpt lat="45.4463483" lon="14.1703683"><ele>641.0</ele><time>2026-04-30T13:21:55.123Z</time></trkpt><trkpt lat="45.4462567" lon="14.170365"><ele>641.0</ele><time>2026-04-30T13:21:56.063Z</time></trkpt><trkpt lat="45.4461583" lon="14.1703617"><ele>641.0</ele><time>2026-04-30T13:21:57.136Z</time></trkpt><trkpt lat="45.4460617" lon="14.1703583"><ele>641.0</ele><time>2026-04-30T13:21:58.076Z</time></trkpt><trkpt lat="45.4459633" lon="14.17036"><ele>641.0</ele><time>2026-04-30T13:21:59.082Z</time></trkpt><trkpt lat="45.44587" lon="14.1703617"><ele>641.0</ele><time>2026-04-30T13:22:00.089Z</time></trkpt><trkpt lat="45.445775" lon="14.170355"><ele>641.0</ele><time>2026-04-30T13:22:01.095Z</time></trkpt><trkpt lat="45.4456783" lon="14.17035"><ele>641.0</ele><time>2026-04-30T13:22:02.103Z</time></trkpt><trkpt lat="45.4455817" lon="14.170345"><ele>641.0</ele><time>2026-04-30T13:22:03.109Z</time></trkpt><trkpt lat="45.4454917" lon="14.170345"><ele>641.0</ele><time>2026-04-30T13:22:04.048Z</time></trkpt><trkpt lat="45.4454067" lon="14.170355"><ele>640.75</ele><time>2026-04-30T13:22:05.123Z</time></trkpt><trkpt lat="45.445315" lon="14.1703683"><ele>640.5</ele><time>2026-04-30T13:22:06.062Z</time></trkpt><trkpt lat="45.4451233" lon="14.1704133"><ele>640.25</ele><time>2026-04-30T13:22:08.075Z</time></trkpt><trkpt lat="45.4450317" lon="14.17045"><ele>640.0</ele><time>2026-04-30T13:22:09.081Z</time></trkpt><trkpt lat="45.444945" lon="14.17049"><ele>640.0</ele><time>2026-04-30T13:22:10.088Z</time></trkpt><trkpt lat="45.4448667" lon="14.170525"><ele>640.0</ele><time>2026-04-30T13:22:11.095Z</time></trkpt><trkpt lat="45.4447983" lon="14.17056"><ele>640.0</ele><time>2026-04-30T13:22:12.101Z</time></trkpt><trkpt lat="45.4447367" lon="14.1705983"><ele>640.0</ele><time>2026-04-30T13:22:13.108Z</time></trkpt><trkpt lat="45.4446383" lon="14.1707"><ele>640.0</ele><time>2026-04-30T13:22:15.122Z</time></trkpt><trkpt lat="45.4446" lon="14.1707767"><ele>640.0</ele><time>2026-04-30T13:22:16.061Z</time></trkpt><trkpt lat="45.4445683" lon="14.1708633"><ele>639.5</ele><time>2026-04-30T13:22:17.135Z</time></trkpt><trkpt lat="45.4445417" lon="14.17095"><ele>639.0</ele><time>2026-04-30T13:22:18.074Z</time></trkpt><trkpt lat="45.44447" lon="14.1710867"><ele>638.5</ele><time>2026-04-30T13:22:20.088Z</time></trkpt><trkpt lat="45.4444183" lon="14.171145"><ele>638.0</ele><time>2026-04-30T13:22:21.094Z</time></trkpt><trkpt lat="45.4443617" lon="14.1712167"><ele>637.5</ele><time>2026-04-30T13:22:22.101Z</time></trkpt><trkpt lat="45.4443033" lon="14.1712933"><ele>637.0</ele><time>2026-04-30T13:22:23.107Z</time></trkpt><trkpt lat="45.44424" lon="14.1713733"><ele>637.0</ele><time>2026-04-30T13:22:24.047Z</time></trkpt><trkpt lat="45.44418" lon="14.1714583"><ele>637.0</ele><time>2026-04-30T13:22:25.121Z</time></trkpt><trkpt lat="45.4441283" lon="14.17155"><ele>637.0</ele><time>2026-04-30T13:22:26.061Z</time></trkpt><trkpt lat="45.4440833" lon="14.1716467"><ele>637.0</ele><time>2026-04-30T13:22:27.134Z</time></trkpt><trkpt lat="45.44404" lon="14.17174"><ele>637.0</ele><time>2026-04-30T13:22:28.073Z</time></trkpt><trkpt lat="45.4439983" lon="14.1718267"><ele>637.0</ele><time>2026-04-30T13:22:29.08Z</time></trkpt><trkpt lat="45.4439533" lon="14.1719083"><ele>637.7142857142857</ele><time>2026-04-30T13:22:30.087Z</time></trkpt><trkpt lat="45.4439067" lon="14.1719833"><ele>638.4285714285714</ele><time>2026-04-30T13:22:31.093Z</time></trkpt><trkpt lat="45.44386" lon="14.1720567"><ele>639.1428571428571</ele><time>2026-04-30T13:22:32.101Z</time></trkpt><trkpt lat="45.4438117" lon="14.1721333"><ele>639.8571428571429</ele><time>2026-04-30T13:22:33.106Z</time></trkpt><trkpt lat="45.4437633" lon="14.172215"><ele>640.5714285714286</ele><time>2026-04-30T13:22:34.046Z</time></trkpt><trkpt lat="45.443715" lon="14.1723"><ele>641.2857142857142</ele><time>2026-04-30T13:22:35.12Z</time></trkpt><trkpt lat="45.4436717" lon="14.1723867"><ele>642.0</ele><time>2026-04-30T13:22:36.059Z</time></trkpt><trkpt lat="45.443635" lon="14.1724817"><ele>642.6666666666666</ele><time>2026-04-30T13:22:37.133Z</time></trkpt><trkpt lat="45.4436033" lon="14.1725783"><ele>643.3333333333334</ele><time>2026-04-30T13:22:38.072Z</time></trkpt><trkpt lat="45.443575" lon="14.1726767"><ele>644.0</ele><time>2026-04-30T13:22:39.08Z</time></trkpt><trkpt lat="45.443545" lon="14.1727667"><ele>644.6666666666667</ele><time>2026-04-30T13:22:40.086Z</time></trkpt><trkpt lat="45.4435117" lon="14.1728517"><ele>645.3333333333334</ele><time>2026-04-30T13:22:41.092Z</time></trkpt><trkpt lat="45.4434367" lon="14.1729817"><ele>646.0</ele><time>2026-04-30T13:22:43.106Z</time></trkpt><trkpt lat="45.443335" lon="14.1730733"><ele>646.0</ele><time>2026-04-30T13:22:45.119Z</time></trkpt><trkpt lat="45.4432167" lon="14.173145"><ele>646.0</ele><time>2026-04-30T13:22:47.065Z</time></trkpt><trkpt lat="45.4431467" lon="14.1731933"><ele>646.0</ele><time>2026-04-30T13:22:48.072Z</time></trkpt><trkpt lat="45.443075" lon="14.173245"><ele>646.0</ele><time>2026-04-30T13:22:49.078Z</time></trkpt><trkpt lat="45.4430117" lon="14.1733033"><ele>646.0</ele><time>2026-04-30T13:22:50.152Z</time></trkpt><trkpt lat="45.4429617" lon="14.173365"><ele>646.0</ele><time>2026-04-30T13:22:51.093Z</time></trkpt><trkpt lat="45.442915" lon="14.1734333"><ele>645.0</ele><time>2026-04-30T13:22:52.031Z</time></trkpt><trkpt lat="45.4428683" lon="14.1735083"><ele>644.0</ele><time>2026-04-30T13:22:53.106Z</time></trkpt><trkpt lat="45.442785" lon="14.1736383"><ele>643.0</ele><time>2026-04-30T13:22:55.118Z</time></trkpt><trkpt lat="45.4426867" lon="14.1737317"><ele>642.0</ele><time>2026-04-30T13:22:57.065Z</time></trkpt><trkpt lat="45.4425767" lon="14.1737983"><ele>641.0</ele><time>2026-04-30T13:22:59.078Z</time></trkpt><trkpt lat="45.44246" lon="14.1738617"><ele>641.0</ele><time>2026-04-30T13:23:01.091Z</time></trkpt><trkpt lat="45.4423583" lon="14.173905"><ele>641.0</ele><time>2026-04-30T13:23:03.104Z</time></trkpt><trkpt lat="45.44226" lon="14.1739183"><ele>641.0</ele><time>2026-04-30T13:23:05.118Z</time></trkpt><trkpt lat="45.4421617" lon="14.173895"><ele>641.0</ele><time>2026-04-30T13:23:07.063Z</time></trkpt><trkpt lat="45.4420733" lon="14.173835"><ele>641.0</ele><time>2026-04-30T13:23:09.077Z</time></trkpt><trkpt lat="45.4419867" lon="14.1737383"><ele>639.6666666666666</ele><time>2026-04-30T13:23:11.091Z</time></trkpt><trkpt lat="45.4419317" lon="14.1736817"><ele>638.3333333333333</ele><time>2026-04-30T13:23:12.029Z</time></trkpt><trkpt lat="45.4418683" lon="14.17362"><ele>637.0</ele><time>2026-04-30T13:23:13.104Z</time></trkpt><trkpt lat="45.4418" lon="14.173555"><ele>635.6666666666666</ele><time>2026-04-30T13:23:14.044Z</time></trkpt><trkpt lat="45.4417283" lon="14.1734983"><ele>634.3333333333334</ele><time>2026-04-30T13:23:15.116Z</time></trkpt><trkpt lat="45.441655" lon="14.17345"><ele>633.0</ele><time>2026-04-30T13:23:16.123Z</time></trkpt><trkpt lat="45.4415883" lon="14.173405"><ele>633.0</ele><time>2026-04-30T13:23:17.063Z</time></trkpt><trkpt lat="45.4415267" lon="14.1733667"><ele>633.0</ele><time>2026-04-30T13:23:18.137Z</time></trkpt><trkpt lat="45.4414317" lon="14.17328"><ele>633.0</ele><time>2026-04-30T13:23:20.15Z</time></trkpt><trkpt lat="45.4413517" lon="14.1731567"><ele>633.0</ele><time>2026-04-30T13:23:22.029Z</time></trkpt><trkpt lat="45.44131" lon="14.1730767"><ele>633.0</ele><time>2026-04-30T13:23:23.102Z</time></trkpt><trkpt lat="45.4412633" lon="14.17299"><ele>633.0</ele><time>2026-04-30T13:23:24.11Z</time></trkpt><trkpt lat="45.4412117" lon="14.1729083"><ele>632.5714285714286</ele><time>2026-04-30T13:23:25.117Z</time></trkpt><trkpt lat="45.4411533" lon="14.1728417"><ele>632.1428571428571</ele><time>2026-04-30T13:23:26.122Z</time></trkpt><trkpt lat="45.44109" lon="14.1727967"><ele>631.7142857142858</ele><time>2026-04-30T13:23:27.063Z</time></trkpt><trkpt lat="45.4410217" lon="14.1727717"><ele>631.2857142857142</ele><time>2026-04-30T13:23:28.136Z</time></trkpt><trkpt lat="45.4409483" lon="14.1727717"><ele>630.8571428571429</ele><time>2026-04-30T13:23:29.075Z</time></trkpt><trkpt lat="45.4408733" lon="14.1727917"><ele>630.4285714285714</ele><time>2026-04-30T13:23:30.15Z</time></trkpt><trkpt lat="45.4407933" lon="14.1728267"><ele>630.0</ele><time>2026-04-30T13:23:31.089Z</time></trkpt><trkpt lat="45.4407133" lon="14.17287"><ele>630.0</ele><time>2026-04-30T13:23:32.095Z</time></trkpt><trkpt lat="45.440635" lon="14.1729133"><ele>630.0</ele><time>2026-04-30T13:23:33.102Z</time></trkpt><trkpt lat="45.4405533" lon="14.1729583"><ele>630.0</ele><time>2026-04-30T13:23:34.108Z</time></trkpt><trkpt lat="45.44047" lon="14.173"><ele>630.0</ele><time>2026-04-30T13:23:35.116Z</time></trkpt><trkpt lat="45.4403917" lon="14.173035"><ele>630.0</ele><time>2026-04-30T13:23:36.122Z</time></trkpt><trkpt lat="45.44032" lon="14.1730683"><ele>630.0</ele><time>2026-04-30T13:23:37.061Z</time></trkpt><trkpt lat="45.44025" lon="14.1730983"><ele>629.5</ele><time>2026-04-30T13:23:38.135Z</time></trkpt><trkpt lat="45.440185" lon="14.1731217"><ele>629.0</ele><time>2026-04-30T13:23:39.075Z</time></trkpt><trkpt lat="45.44012" lon="14.1731467"><ele>628.5</ele><time>2026-04-30T13:23:40.149Z</time></trkpt><trkpt lat="45.4400067" lon="14.173175"><ele>628.0</ele><time>2026-04-30T13:23:42.095Z</time></trkpt><trkpt lat="45.4399083" lon="14.1731667"><ele>627.5</ele><time>2026-04-30T13:23:44.109Z</time></trkpt><trkpt lat="45.4398167" lon="14.1731067"><ele>627.0</ele><time>2026-04-30T13:23:46.122Z</time></trkpt><trkpt lat="45.439715" lon="14.173045"><ele>627.0</ele><time>2026-04-30T13:23:48.135Z</time></trkpt><trkpt lat="45.4396533" lon="14.1730267"><ele>627.0</ele><time>2026-04-30T13:23:49.074Z</time></trkpt><trkpt lat="45.4395833" lon="14.17301"><ele>627.0</ele><time>2026-04-30T13:23:50.148Z</time></trkpt><trkpt lat="45.4395117" lon="14.1729883"><ele>627.0</ele><time>2026-04-30T13:23:51.087Z</time></trkpt><trkpt lat="45.4394417" lon="14.1729733"><ele>627.0</ele><time>2026-04-30T13:23:52.094Z</time></trkpt><trkpt lat="45.439375" lon="14.172965"><ele>627.0</ele><time>2026-04-30T13:23:53.1Z</time></trkpt><trkpt lat="45.43931" lon="14.17296"><ele>627.0</ele><time>2026-04-30T13:23:54.108Z</time></trkpt><trkpt lat="45.43919" lon="14.1729167"><ele>625.6</ele><time>2026-04-30T13:23:56.121Z</time></trkpt><trkpt lat="45.4391233" lon="14.17287"><ele>624.2</ele><time>2026-04-30T13:23:57.06Z</time></trkpt><trkpt lat="45.4390633" lon="14.172815"><ele>622.8</ele><time>2026-04-30T13:23:58.133Z</time></trkpt><trkpt lat="45.4390067" lon="14.1727667"><ele>621.4</ele><time>2026-04-30T13:23:59.074Z</time></trkpt><trkpt lat="45.4388917" lon="14.1727183"><ele>620.0</ele><time>2026-04-30T13:24:01.086Z</time></trkpt><trkpt lat="45.43877" lon="14.17274"><ele>620.0</ele><time>2026-04-30T13:24:03.099Z</time></trkpt><trkpt lat="45.4387033" lon="14.1727817"><ele>620.0</ele><time>2026-04-30T13:24:04.106Z</time></trkpt><trkpt lat="45.4386367" lon="14.17282"><ele>620.0</ele><time>2026-04-30T13:24:05.114Z</time></trkpt><trkpt lat="45.4385733" lon="14.1728383"><ele>620.0</ele><time>2026-04-30T13:24:06.12Z</time></trkpt><trkpt lat="45.4385083" lon="14.1728417"><ele>620.0</ele><time>2026-04-30T13:24:07.059Z</time></trkpt><trkpt lat="45.43844" lon="14.17283"><ele>620.0</ele><time>2026-04-30T13:24:08.132Z</time></trkpt><trkpt lat="45.4383333" lon="14.1727467"><ele>620.0</ele><time>2026-04-30T13:24:10.146Z</time></trkpt><trkpt lat="45.43828" lon="14.1726783"><ele>620.0</ele><time>2026-04-30T13:24:11.085Z</time></trkpt><trkpt lat="45.4382183" lon="14.1726"><ele>620.0</ele><time>2026-04-30T13:24:12.092Z</time></trkpt><trkpt lat="45.4381483" lon="14.17252"><ele>620.0</ele><time>2026-04-30T13:24:13.099Z</time></trkpt><trkpt lat="45.4380783" lon="14.17244"><ele>620.0</ele><time>2026-04-30T13:24:14.105Z</time></trkpt><trkpt lat="45.4380083" lon="14.17237"><ele>620.0</ele><time>2026-04-30T13:24:15.045Z</time></trkpt><trkpt lat="45.4379417" lon="14.1723217"><ele>621.0</ele><time>2026-04-30T13:24:16.119Z</time></trkpt><trkpt lat="45.4378283" lon="14.1723133"><ele>622.0</ele><time>2026-04-30T13:24:18.133Z</time></trkpt><trkpt lat="45.4377133" lon="14.172335"><ele>623.0</ele><time>2026-04-30T13:24:20.078Z</time></trkpt><trkpt lat="45.43764" lon="14.1723483"><ele>624.0</ele><time>2026-04-30T13:24:21.085Z</time></trkpt><trkpt lat="45.4375633" lon="14.1723633"><ele>625.0</ele><time>2026-04-30T13:24:22.091Z</time></trkpt><trkpt lat="45.4374833" lon="14.1723933"><ele>625.0000000000001</ele><time>2026-04-30T13:24:23.098Z</time></trkpt><trkpt lat="45.4374067" lon="14.1724317"><ele>625.0</ele><time>2026-04-30T13:24:24.105Z</time></trkpt><trkpt lat="45.437335" lon="14.1724633"><ele>625.0</ele><time>2026-04-30T13:24:25.044Z</time></trkpt><trkpt lat="45.4372683" lon="14.172485"><ele>625.0</ele><time>2026-04-30T13:24:26.119Z</time></trkpt><trkpt lat="45.4372033" lon="14.172495"><ele>625.0</ele><time>2026-04-30T13:24:27.057Z</time></trkpt><trkpt lat="45.4371367" lon="14.1724933"><ele>625.0000000000001</ele><time>2026-04-30T13:24:28.131Z</time></trkpt><trkpt lat="45.4370717" lon="14.1724817"><ele>625.0</ele><time>2026-04-30T13:24:29.071Z</time></trkpt><trkpt lat="45.4370017" lon="14.1724583"><ele>625.3333333333334</ele><time>2026-04-30T13:24:30.077Z</time></trkpt><trkpt lat="45.4369317" lon="14.1724433"><ele>625.6666666666667</ele><time>2026-04-30T13:24:31.084Z</time></trkpt><trkpt lat="45.436865" lon="14.1724267"><ele>626.0</ele><time>2026-04-30T13:24:32.09Z</time></trkpt><trkpt lat="45.436785" lon="14.1724233"><ele>626.3333333333334</ele><time>2026-04-30T13:24:33.097Z</time></trkpt><trkpt lat="45.4367067" lon="14.1724167"><ele>626.6666666666666</ele><time>2026-04-30T13:24:34.104Z</time></trkpt><trkpt lat="45.4366317" lon="14.17241"><ele>627.0</ele><time>2026-04-30T13:24:35.044Z</time></trkpt><trkpt lat="45.4365533" lon="14.1723967"><ele>627.0</ele><time>2026-04-30T13:24:36.117Z</time></trkpt><trkpt lat="45.4364717" lon="14.1723867"><ele>627.0</ele><time>2026-04-30T13:24:37.056Z</time></trkpt><trkpt lat="45.4363883" lon="14.1723833"><ele>627.0</ele><time>2026-04-30T13:24:38.131Z</time></trkpt><trkpt lat="45.4363117" lon="14.172375"><ele>627.0</ele><time>2026-04-30T13:24:39.07Z</time></trkpt><trkpt lat="45.43624" lon="14.1723517"><ele>627.0</ele><time>2026-04-30T13:24:40.076Z</time></trkpt><trkpt lat="45.4361617" lon="14.1723383"><ele>627.0</ele><time>2026-04-30T13:24:41.084Z</time></trkpt><trkpt lat="45.436075" lon="14.1723333"><ele>628.1666666666666</ele><time>2026-04-30T13:24:42.09Z</time></trkpt><trkpt lat="45.435995" lon="14.17233"><ele>629.3333333333334</ele><time>2026-04-30T13:24:43.097Z</time></trkpt><trkpt lat="45.4359083" lon="14.1723417"><ele>630.5</ele><time>2026-04-30T13:24:44.103Z</time></trkpt><trkpt lat="45.4358383" lon="14.1723617"><ele>631.6666666666667</ele><time>2026-04-30T13:24:45.042Z</time></trkpt><trkpt lat="45.4357433" lon="14.1724217"><ele>632.8333333333334</ele><time>2026-04-30T13:24:47.057Z</time></trkpt><trkpt lat="45.435675" lon="14.172475"><ele>634.0</ele><time>2026-04-30T13:24:49.069Z</time></trkpt><trkpt lat="45.4355883" lon="14.1724883"><ele>634.0</ele><time>2026-04-30T13:24:52.089Z</time></trkpt><trkpt lat="45.4355167" lon="14.172395"><ele>634.0</ele><time>2026-04-30T13:25:12.088Z</time></trkpt><trkpt lat="45.4354567" lon="14.1723017"><ele>634.0</ele><time>2026-04-30T13:25:14.101Z</time></trkpt><trkpt lat="45.4353683" lon="14.172215"><ele>634.0</ele><time>2026-04-30T13:25:16.114Z</time></trkpt><trkpt lat="45.4352717" lon="14.1721783"><ele>634.0</ele><time>2026-04-30T13:25:18.127Z</time></trkpt><trkpt lat="45.43517" lon="14.1722167"><ele>637.2</ele><time>2026-04-30T13:25:20.073Z</time></trkpt><trkpt lat="45.435115" lon="14.1722617"><ele>640.4</ele><time>2026-04-30T13:25:21.147Z</time></trkpt><trkpt lat="45.4349383" lon="14.1723367"><ele>643.6</ele><time>2026-04-30T13:25:24.1Z</time></trkpt><trkpt lat="45.4348567" lon="14.1723217"><ele>646.8</ele><time>2026-04-30T13:25:25.039Z</time></trkpt><trkpt lat="45.4347833" lon="14.1722967"><ele>650.0</ele><time>2026-04-30T13:25:26.114Z</time></trkpt><trkpt lat="45.4347217" lon="14.1722767"><ele>650.0</ele><time>2026-04-30T13:25:27.054Z</time></trkpt><trkpt lat="45.4346467" lon="14.172255"><ele>650.0</ele><time>2026-04-30T13:25:29.133Z</time></trkpt><trkpt lat="45.4345583" lon="14.1722317"><ele>650.0</ele><time>2026-04-30T13:26:40.068Z</time></trkpt><trkpt lat="45.4344483" lon="14.1722467"><ele>650.0</ele><time>2026-04-30T13:26:42.081Z</time></trkpt><trkpt lat="45.4343833" lon="14.1722767"><ele>650.0</ele><time>2026-04-30T13:26:43.087Z</time></trkpt><trkpt lat="45.434315" lon="14.17231"><ele>650.0</ele><time>2026-04-30T13:26:44.094Z</time></trkpt><trkpt lat="45.4342483" lon="14.1723417"><ele>649.7142857142857</ele><time>2026-04-30T13:26:45.101Z</time></trkpt><trkpt lat="45.4341833" lon="14.1723667"><ele>649.4285714285714</ele><time>2026-04-30T13:26:46.107Z</time></trkpt><trkpt lat="45.4341183" lon="14.17239"><ele>649.1428571428571</ele><time>2026-04-30T13:26:47.113Z</time></trkpt><trkpt lat="45.434045" lon="14.1724183"><ele>648.8571428571429</ele><time>2026-04-30T13:26:48.054Z</time></trkpt><trkpt lat="45.4339767" lon="14.1724633"><ele>648.5714285714286</ele><time>2026-04-30T13:26:49.128Z</time></trkpt><trkpt lat="45.4339133" lon="14.1725167"><ele>648.2857142857143</ele><time>2026-04-30T13:26:50.066Z</time></trkpt><trkpt lat="45.4338533" lon="14.1725733"><ele>648.0</ele><time>2026-04-30T13:26:51.141Z</time></trkpt><trkpt lat="45.4337933" lon="14.1726317"><ele>649.0</ele><time>2026-04-30T13:26:52.079Z</time></trkpt><trkpt lat="45.4337" lon="14.172725"><ele>650.0</ele><time>2026-04-30T13:26:54.094Z</time></trkpt><trkpt lat="45.4336067" lon="14.1727717"><ele>651.0</ele><time>2026-04-30T13:26:56.107Z</time></trkpt><trkpt lat="45.433525" lon="14.1727283"><ele>652.0</ele><time>2026-04-30T13:26:58.052Z</time></trkpt><trkpt lat="45.4334467" lon="14.1726217"><ele>653.0</ele><time>2026-04-30T13:27:00.066Z</time></trkpt><trkpt lat="45.433365" lon="14.172515"><ele>653.0</ele><time>2026-04-30T13:27:02.08Z</time></trkpt><trkpt lat="45.4332783" lon="14.1724767"><ele>653.0</ele><time>2026-04-30T13:27:04.092Z</time></trkpt><trkpt lat="45.4332067" lon="14.1724767"><ele>653.0</ele><time>2026-04-30T13:27:06.106Z</time></trkpt><trkpt lat="45.433145" lon="14.1724983"><ele>653.0</ele><time>2026-04-30T13:27:08.051Z</time></trkpt><trkpt lat="45.43303" lon="14.17255"><ele>653.0</ele><time>2026-04-30T13:29:47.1Z</time></trkpt><trkpt lat="45.4329167" lon="14.1725883"><ele>654.1666666666666</ele><time>2026-04-30T13:29:49.046Z</time></trkpt><trkpt lat="45.4328083" lon="14.1726283"><ele>655.3333333333333</ele><time>2026-04-30T13:29:51.059Z</time></trkpt><trkpt lat="45.4327383" lon="14.1726617"><ele>656.5</ele><time>2026-04-30T13:29:53.073Z</time></trkpt><trkpt lat="45.4326517" lon="14.1726883"><ele>657.6666666666666</ele><time>2026-04-30T13:29:56.092Z</time></trkpt><trkpt lat="45.4325767" lon="14.1727133"><ele>658.8333333333334</ele><time>2026-04-30T13:29:59.045Z</time></trkpt><trkpt lat="45.432655" lon="14.1727583"><ele>660.0</ele><time>2026-04-30T13:30:14.077Z</time></trkpt><trkpt lat="45.4327267" lon="14.1726917"><ele>660.0</ele><time>2026-04-30T13:30:17.03Z</time></trkpt><trkpt lat="45.4328233" lon="14.1726483"><ele>660.0</ele><time>2026-04-30T13:30:20.117Z</time></trkpt><trkpt lat="45.4329167" lon="14.1726167"><ele>660.0</ele><time>2026-04-30T13:30:22.063Z</time></trkpt><trkpt lat="45.43304" lon="14.17255"><ele>660.0</ele><time>2026-04-30T13:30:24.076Z</time></trkpt><trkpt lat="45.4331" lon="14.17252"><ele>660.0</ele><time>2026-04-30T13:30:25.15Z</time></trkpt><trkpt lat="45.4332033" lon="14.17251"><ele>658.6</ele><time>2026-04-30T13:30:27.029Z</time></trkpt><trkpt lat="45.4333283" lon="14.172565"><ele>657.2</ele><time>2026-04-30T13:30:30.117Z</time></trkpt><trkpt lat="45.433415" lon="14.1726667"><ele>655.8</ele><time>2026-04-30T13:30:32.062Z</time></trkpt><trkpt lat="45.4335" lon="14.1727683"><ele>654.4</ele><time>2026-04-30T13:30:34.076Z</time></trkpt><trkpt lat="45.4335783" lon="14.1728"><ele>653.0</ele><time>2026-04-30T13:30:36.089Z</time></trkpt><trkpt lat="45.43366" lon="14.172765"><ele>653.0</ele><time>2026-04-30T13:30:38.102Z</time></trkpt><trkpt lat="45.4337817" lon="14.172675"><ele>653.0</ele><time>2026-04-30T13:30:40.116Z</time></trkpt><trkpt lat="45.4338583" lon="14.1726067"><ele>653.0</ele><time>2026-04-30T13:30:41.122Z</time></trkpt><trkpt lat="45.4339383" lon="14.1725233"><ele>653.0</ele><time>2026-04-30T13:30:42.063Z</time></trkpt><trkpt lat="45.4340133" lon="14.1724467"><ele>653.0</ele><time>2026-04-30T13:30:43.135Z</time></trkpt><trkpt lat="45.4340817" lon="14.1723983"><ele>652.8333333333333</ele><time>2026-04-30T13:30:44.075Z</time></trkpt><trkpt lat="45.4341467" lon="14.1723683"><ele>652.6666666666666</ele><time>2026-04-30T13:30:45.149Z</time></trkpt><trkpt lat="45.4342183" lon="14.1723417"><ele>652.5</ele><time>2026-04-30T13:30:46.089Z</time></trkpt><trkpt lat="45.4342867" lon="14.1723183"><ele>652.3333333333334</ele><time>2026-04-30T13:30:47.028Z</time></trkpt><trkpt lat="45.4343533" lon="14.1722833"><ele>652.1666666666667</ele><time>2026-04-30T13:30:48.101Z</time></trkpt><trkpt lat="45.4344183" lon="14.1722533"><ele>652.0</ele><time>2026-04-30T13:30:49.108Z</time></trkpt><trkpt lat="45.4345333" lon="14.172215"><ele>651.6666666666667</ele><time>2026-04-30T13:30:51.122Z</time></trkpt><trkpt lat="45.4346567" lon="14.17224"><ele>651.3333333333334</ele><time>2026-04-30T13:30:53.134Z</time></trkpt><trkpt lat="45.43473" lon="14.1722767"><ele>651.0</ele><time>2026-04-30T13:30:54.074Z</time></trkpt><trkpt lat="45.4348033" lon="14.1723117"><ele>650.6666666666666</ele><time>2026-04-30T13:30:55.148Z</time></trkpt><trkpt lat="45.43487" lon="14.1723383"><ele>650.3333333333333</ele><time>2026-04-30T13:30:56.087Z</time></trkpt><trkpt lat="45.4349333" lon="14.1723517"><ele>650.0</ele><time>2026-04-30T13:30:57.094Z</time></trkpt><trkpt lat="45.4349967" lon="14.17235"><ele>650.0</ele><time>2026-04-30T13:30:58.102Z</time></trkpt><trkpt lat="45.43506" lon="14.1723267"><ele>650.0</ele><time>2026-04-30T13:30:59.107Z</time></trkpt><trkpt lat="45.43512" lon="14.1722867"><ele>650.0</ele><time>2026-04-30T13:31:00.114Z</time></trkpt><trkpt lat="45.43518" lon="14.1722383"><ele>650.0</ele><time>2026-04-30T13:31:01.12Z</time></trkpt><trkpt lat="45.4352717" lon="14.1721933"><ele>650.0</ele><time>2026-04-30T13:31:03.134Z</time></trkpt><trkpt lat="45.435355" lon="14.1722283"><ele>650.0</ele><time>2026-04-30T13:31:05.148Z</time></trkpt><trkpt lat="45.4354417" lon="14.17231"><ele>649.1666666666666</ele><time>2026-04-30T13:31:07.094Z</time></trkpt><trkpt lat="45.4355117" lon="14.1724"><ele>648.3333333333333</ele><time>2026-04-30T13:31:09.107Z</time></trkpt><trkpt lat="45.4355817" lon="14.1724817"><ele>647.5</ele><time>2026-04-30T13:31:12.059Z</time></trkpt><trkpt lat="45.4356583" lon="14.1724983"><ele>646.6666666666666</ele><time>2026-04-30T13:31:15.146Z</time></trkpt><trkpt lat="45.4357217" lon="14.172465"><ele>645.8333333333334</ele><time>2026-04-30T13:31:17.092Z</time></trkpt><trkpt lat="45.43579" lon="14.1724"><ele>645.0</ele><time>2026-04-30T13:31:19.106Z</time></trkpt><trkpt lat="45.4358717" lon="14.1723367"><ele>645.0</ele><time>2026-04-30T13:31:21.12Z</time></trkpt><trkpt lat="45.4359733" lon="14.1723083"><ele>645.0</ele><time>2026-04-30T13:31:23.133Z</time></trkpt><trkpt lat="45.4360883" lon="14.1723117"><ele>645.0</ele><time>2026-04-30T13:31:25.145Z</time></trkpt><trkpt lat="45.436155" lon="14.172315"><ele>645.0</ele><time>2026-04-30T13:31:26.085Z</time></trkpt><trkpt lat="45.43623" lon="14.1723317"><ele>645.0</ele><time>2026-04-30T13:31:27.093Z</time></trkpt><trkpt lat="45.4363083" lon="14.1723533"><ele>645.0</ele><time>2026-04-30T13:31:28.099Z</time></trkpt><trkpt lat="45.4363783" lon="14.172375"><ele>642.0</ele><time>2026-04-30T13:31:29.106Z</time></trkpt><trkpt lat="45.4364517" lon="14.1723917"><ele>639.0</ele><time>2026-04-30T13:31:30.111Z</time></trkpt><trkpt lat="45.436535" lon="14.1724033"><ele>636.0</ele><time>2026-04-30T13:31:31.119Z</time></trkpt><trkpt lat="45.4366217" lon="14.1724167"><ele>633.0</ele><time>2026-04-30T13:31:32.058Z</time></trkpt><trkpt lat="45.4367" lon="14.172425"><ele>630.0</ele><time>2026-04-30T13:31:33.132Z</time></trkpt><trkpt lat="45.436775" lon="14.17243"><ele>627.0</ele><time>2026-04-30T13:31:34.072Z</time></trkpt><trkpt lat="45.4368483" lon="14.172435"><ele>627.0</ele><time>2026-04-30T13:31:35.145Z</time></trkpt><trkpt lat="45.436925" lon="14.1724417"><ele>627.0</ele><time>2026-04-30T13:31:36.085Z</time></trkpt><trkpt lat="45.4370033" lon="14.17246"><ele>627.0</ele><time>2026-04-30T13:31:37.092Z</time></trkpt><trkpt lat="45.4370767" lon="14.1724833"><ele>627.0</ele><time>2026-04-30T13:31:38.097Z</time></trkpt><trkpt lat="45.4371483" lon="14.1724983"><ele>627.0</ele><time>2026-04-30T13:31:39.104Z</time></trkpt><trkpt lat="45.4372133" lon="14.1725033"><ele>627.0</ele><time>2026-04-30T13:31:40.111Z</time></trkpt><trkpt lat="45.4373183" lon="14.1724867"><ele>626.7142857142858</ele><time>2026-04-30T13:31:42.058Z</time></trkpt><trkpt lat="45.4373783" lon="14.172455"><ele>626.4285714285714</ele><time>2026-04-30T13:31:43.132Z</time></trkpt><trkpt lat="45.43744" lon="14.172415"><ele>626.1428571428571</ele><time>2026-04-30T13:31:44.07Z</time></trkpt><trkpt lat="45.437505" lon="14.1723917"><ele>625.8571428571429</ele><time>2026-04-30T13:31:45.145Z</time></trkpt><trkpt lat="45.4375717" lon="14.17238"><ele>625.5714285714286</ele><time>2026-04-30T13:31:46.084Z</time></trkpt><trkpt lat="45.4376417" lon="14.17237"><ele>625.2857142857143</ele><time>2026-04-30T13:31:47.09Z</time></trkpt><trkpt lat="45.437705" lon="14.1723617"><ele>625.0</ele><time>2026-04-30T13:31:48.097Z</time></trkpt><trkpt lat="45.437815" lon="14.1723483"><ele>625.0</ele><time>2026-04-30T13:31:50.043Z</time></trkpt><trkpt lat="45.4379083" lon="14.17237"><ele>625.0</ele><time>2026-04-30T13:31:52.056Z</time></trkpt><trkpt lat="45.4379883" lon="14.172445"><ele>625.0</ele><time>2026-04-30T13:31:54.069Z</time></trkpt><trkpt lat="45.4380817" lon="14.172545"><ele>625.0</ele><time>2026-04-30T13:31:56.084Z</time></trkpt><trkpt lat="45.4381367" lon="14.1726017"><ele>625.0</ele><time>2026-04-30T13:31:57.089Z</time></trkpt><trkpt lat="45.4381933" lon="14.1726683"><ele>625.0</ele><time>2026-04-30T13:31:58.097Z</time></trkpt><trkpt lat="45.4382483" lon="14.1727383"><ele>624.1666666666667</ele><time>2026-04-30T13:31:59.102Z</time></trkpt><trkpt lat="45.4383017" lon="14.1728"><ele>623.3333333333334</ele><time>2026-04-30T13:32:00.042Z</time></trkpt><trkpt lat="45.4384117" lon="14.1728667"><ele>622.5</ele><time>2026-04-30T13:32:02.056Z</time></trkpt><trkpt lat="45.4384783" lon="14.172875"><ele>621.6666666666666</ele><time>2026-04-30T13:32:03.129Z</time></trkpt><trkpt lat="45.438545" lon="14.17287"><ele>620.8333333333333</ele><time>2026-04-30T13:32:04.069Z</time></trkpt><trkpt lat="45.43861" lon="14.1728483"><ele>620.0</ele><time>2026-04-30T13:32:05.076Z</time></trkpt><trkpt lat="45.4386733" lon="14.1728183"><ele>620.0</ele><time>2026-04-30T13:32:06.083Z</time></trkpt><trkpt lat="45.4387867" lon="14.172765"><ele>620.0</ele><time>2026-04-30T13:32:08.095Z</time></trkpt><trkpt lat="45.4388983" lon="14.1727633"><ele>620.0</ele><time>2026-04-30T13:32:10.041Z</time></trkpt><trkpt lat="45.4390017" lon="14.1728333"><ele>620.0</ele><time>2026-04-30T13:32:12.055Z</time></trkpt><trkpt lat="45.43906" lon="14.172885"><ele>620.0</ele><time>2026-04-30T13:32:13.128Z</time></trkpt><trkpt lat="45.4391233" lon="14.1729333"><ele>620.0</ele><time>2026-04-30T13:32:14.068Z</time></trkpt><trkpt lat="45.4391883" lon="14.1729633"><ele>620.0</ele><time>2026-04-30T13:32:15.074Z</time></trkpt><trkpt lat="45.4392617" lon="14.1729717"><ele>620.0</ele><time>2026-04-30T13:32:16.081Z</time></trkpt><trkpt lat="45.4393367" lon="14.1729817"><ele>620.0</ele><time>2026-04-30T13:32:17.088Z</time></trkpt><trkpt lat="45.4394133" lon="14.1729933"><ele>620.0</ele><time>2026-04-30T13:32:18.095Z</time></trkpt><trkpt lat="45.4394917" lon="14.17301"><ele>620.0</ele><time>2026-04-30T13:32:19.101Z</time></trkpt><trkpt lat="45.43957" lon="14.1730317"><ele>620.3333333333333</ele><time>2026-04-30T13:32:20.04Z</time></trkpt><trkpt lat="45.43964" lon="14.173055"><ele>620.6666666666666</ele><time>2026-04-30T13:32:21.115Z</time></trkpt><trkpt lat="45.43971" lon="14.1730767"><ele>621.0</ele><time>2026-04-30T13:32:22.054Z</time></trkpt><trkpt lat="45.439775" lon="14.1731067"><ele>621.3333333333334</ele><time>2026-04-30T13:32:23.128Z</time></trkpt><trkpt lat="45.439835" lon="14.1731517"><ele>621.6666666666667</ele><time>2026-04-30T13:32:24.067Z</time></trkpt><trkpt lat="45.4399367" lon="14.1732083"><ele>622.0</ele><time>2026-04-30T13:32:26.081Z</time></trkpt><trkpt lat="45.4400367" lon="14.1732033"><ele>622.8333333333334</ele><time>2026-04-30T13:32:28.094Z</time></trkpt><trkpt lat="45.4401617" lon="14.17316"><ele>623.6666666666667</ele><time>2026-04-30T13:32:30.04Z</time></trkpt><trkpt lat="45.440235" lon="14.1731317"><ele>624.5</ele><time>2026-04-30T13:32:31.114Z</time></trkpt><trkpt lat="45.4403083" lon="14.1730967"><ele>625.3333333333334</ele><time>2026-04-30T13:32:32.054Z</time></trkpt><trkpt lat="45.4403867" lon="14.1730633"><ele>626.1666666666666</ele><time>2026-04-30T13:32:33.127Z</time></trkpt><trkpt lat="45.4404617" lon="14.1730317"><ele>627.0</ele><time>2026-04-30T13:32:34.067Z</time></trkpt><trkpt lat="45.4405333" lon="14.1729983"><ele>627.5</ele><time>2026-04-30T13:32:35.073Z</time></trkpt><trkpt lat="45.4406" lon="14.172965"><ele>628.0</ele><time>2026-04-30T13:32:36.08Z</time></trkpt><trkpt lat="45.4406633" lon="14.17293"><ele>628.5</ele><time>2026-04-30T13:32:37.086Z</time></trkpt><trkpt lat="45.4407283" lon="14.1728967"><ele>629.0</ele><time>2026-04-30T13:32:38.16Z</time></trkpt><trkpt lat="45.4408" lon="14.172865"><ele>629.5</ele><time>2026-04-30T13:32:39.1Z</time></trkpt><trkpt lat="45.4408733" lon="14.172845"><ele>630.0</ele><time>2026-04-30T13:32:40.039Z</time></trkpt><trkpt lat="45.4409983" lon="14.1728467"><ele>630.0</ele><time>2026-04-30T13:32:42.052Z</time></trkpt><trkpt lat="45.4410567" lon="14.1728817"><ele>630.0</ele><time>2026-04-30T13:32:43.126Z</time></trkpt><trkpt lat="45.4411133" lon="14.1729283"><ele>630.0</ele><time>2026-04-30T13:32:44.065Z</time></trkpt><trkpt lat="45.441165" lon="14.1729917"><ele>630.0</ele><time>2026-04-30T13:32:45.072Z</time></trkpt><trkpt lat="45.4412417" lon="14.1731217"><ele>630.0</ele><time>2026-04-30T13:32:47.086Z</time></trkpt><trkpt lat="45.441325" lon="14.1732583"><ele>630.0</ele><time>2026-04-30T13:32:49.099Z</time></trkpt><trkpt lat="45.441375" lon="14.173325"><ele>630.5</ele><time>2026-04-30T13:32:50.038Z</time></trkpt><trkpt lat="45.4414333" lon="14.1733817"><ele>631.0</ele><time>2026-04-30T13:32:51.112Z</time></trkpt><trkpt lat="45.4414983" lon="14.1734367"><ele>631.5</ele><time>2026-04-30T13:32:52.051Z</time></trkpt><trkpt lat="45.44157" lon="14.1734917"><ele>632.0</ele><time>2026-04-30T13:32:53.125Z</time></trkpt><trkpt lat="45.4416417" lon="14.17354"><ele>632.5</ele><time>2026-04-30T13:32:54.133Z</time></trkpt><trkpt lat="45.4417167" lon="14.1735967"><ele>633.0</ele><time>2026-04-30T13:32:55.071Z</time></trkpt><trkpt lat="45.4417933" lon="14.1736617"><ele>633.0</ele><time>2026-04-30T13:32:56.145Z</time></trkpt><trkpt lat="45.4418717" lon="14.17373"><ele>633.0</ele><time>2026-04-30T13:32:57.086Z</time></trkpt><trkpt lat="45.4419467" lon="14.173795"><ele>633.0</ele><time>2026-04-30T13:32:58.158Z</time></trkpt><trkpt lat="45.4420183" lon="14.1738533"><ele>633.0</ele><time>2026-04-30T13:32:59.099Z</time></trkpt><trkpt lat="45.4420867" lon="14.1739017"><ele>633.0</ele><time>2026-04-30T13:33:00.037Z</time></trkpt><trkpt lat="45.4421517" lon="14.1739383"><ele>633.0</ele><time>2026-04-30T13:33:01.111Z</time></trkpt><trkpt lat="45.4422183" lon="14.1739633"><ele>634.3333333333334</ele><time>2026-04-30T13:33:02.118Z</time></trkpt><trkpt lat="45.442285" lon="14.17397"><ele>635.6666666666666</ele><time>2026-04-30T13:33:03.124Z</time></trkpt><trkpt lat="45.4423517" lon="14.1739583"><ele>637.0</ele><time>2026-04-30T13:33:04.131Z</time></trkpt><trkpt lat="45.4424717" lon="14.1738917"><ele>638.3333333333333</ele><time>2026-04-30T13:33:06.144Z</time></trkpt><trkpt lat="45.4425317" lon="14.17384"><ele>639.6666666666666</ele><time>2026-04-30T13:33:07.085Z</time></trkpt><trkpt lat="45.4425967" lon="14.1737867"><ele>641.0</ele><time>2026-04-30T13:33:08.159Z</time></trkpt><trkpt lat="45.44266" lon="14.1737383"><ele>641.0</ele><time>2026-04-30T13:33:09.097Z</time></trkpt><trkpt lat="45.4427183" lon="14.17369"><ele>641.0</ele><time>2026-04-30T13:33:10.037Z</time></trkpt><trkpt lat="45.44277" lon="14.173635"><ele>641.0</ele><time>2026-04-30T13:33:11.11Z</time></trkpt><trkpt lat="45.44281" lon="14.1735633"><ele>641.0</ele><time>2026-04-30T13:33:12.117Z</time></trkpt><trkpt lat="45.4428533" lon="14.173485"><ele>641.0</ele><time>2026-04-30T13:33:13.124Z</time></trkpt><trkpt lat="45.4429033" lon="14.173405"><ele>641.0</ele><time>2026-04-30T13:33:14.13Z</time></trkpt><trkpt lat="45.4429617" lon="14.1733333"><ele>641.0</ele><time>2026-04-30T13:33:15.07Z</time></trkpt><trkpt lat="45.4430233" lon="14.1732733"><ele>640.5</ele><time>2026-04-30T13:33:16.143Z</time></trkpt><trkpt lat="45.4430883" lon="14.1732167"><ele>640.0</ele><time>2026-04-30T13:33:17.083Z</time></trkpt><trkpt lat="45.443155" lon="14.1731667"><ele>639.5</ele><time>2026-04-30T13:33:18.024Z</time></trkpt><trkpt lat="45.4432267" lon="14.1731267"><ele>639.0</ele><time>2026-04-30T13:33:19.096Z</time></trkpt><trkpt lat="45.4432917" lon="14.173085"><ele>638.5</ele><time>2026-04-30T13:33:20.104Z</time></trkpt><trkpt lat="45.44335" lon="14.1730383"><ele>638.0</ele><time>2026-04-30T13:33:21.111Z</time></trkpt><trkpt lat="45.4434367" lon="14.1729383"><ele>639.3333333333333</ele><time>2026-04-30T13:33:23.056Z</time></trkpt><trkpt lat="45.4434883" lon="14.1728017"><ele>640.6666666666666</ele><time>2026-04-30T13:33:25.069Z</time></trkpt><trkpt lat="45.4435167" lon="14.1727183"><ele>642.0</ele><time>2026-04-30T13:33:26.144Z</time></trkpt><trkpt lat="45.4435467" lon="14.1726217"><ele>643.3333333333334</ele><time>2026-04-30T13:33:27.083Z</time></trkpt><trkpt lat="45.4435833" lon="14.1725217"><ele>644.6666666666667</ele><time>2026-04-30T13:33:28.089Z</time></trkpt><trkpt lat="45.4436233" lon="14.1724217"><ele>646.0</ele><time>2026-04-30T13:33:29.095Z</time></trkpt><trkpt lat="45.4436683" lon="14.1723317"><ele>646.0</ele><time>2026-04-30T13:33:30.103Z</time></trkpt><trkpt lat="45.4437183" lon="14.1722433"><ele>646.0</ele><time>2026-04-30T13:33:31.109Z</time></trkpt><trkpt lat="45.4437733" lon="14.1721533"><ele>646.0</ele><time>2026-04-30T13:33:32.115Z</time></trkpt><trkpt lat="45.44383" lon="14.172065"><ele>646.0</ele><time>2026-04-30T13:33:33.055Z</time></trkpt><trkpt lat="45.4438867" lon="14.17198"><ele>646.0</ele><time>2026-04-30T13:33:34.129Z</time></trkpt><trkpt lat="45.4439433" lon="14.1718917"><ele>646.0</ele><time>2026-04-30T13:33:35.068Z</time></trkpt><trkpt lat="45.4439983" lon="14.1717967"><ele>645.3333333333334</ele><time>2026-04-30T13:33:36.142Z</time></trkpt><trkpt lat="45.4440483" lon="14.171695"><ele>644.6666666666667</ele><time>2026-04-30T13:33:37.082Z</time></trkpt><trkpt lat="45.444095" lon="14.1715967"><ele>644.0</ele><time>2026-04-30T13:33:38.088Z</time></trkpt><trkpt lat="45.4441417" lon="14.1715083"><ele>643.3333333333334</ele><time>2026-04-30T13:33:39.096Z</time></trkpt><trkpt lat="45.4442" lon="14.1714233"><ele>642.6666666666666</ele><time>2026-04-30T13:33:40.101Z</time></trkpt><trkpt lat="45.4442667" lon="14.1713317"><ele>642.0</ele><time>2026-04-30T13:33:41.108Z</time></trkpt><trkpt lat="45.4443333" lon="14.171245"><ele>641.8333333333334</ele><time>2026-04-30T13:33:42.116Z</time></trkpt><trkpt lat="45.4443983" lon="14.17117"><ele>641.6666666666666</ele><time>2026-04-30T13:33:43.055Z</time></trkpt><trkpt lat="45.4444517" lon="14.1711033"><ele>641.5</ele><time>2026-04-30T13:33:44.129Z</time></trkpt><trkpt lat="45.4445217" lon="14.1709583"><ele>641.3333333333333</ele><time>2026-04-30T13:33:46.141Z</time></trkpt><trkpt lat="45.4445517" lon="14.17087"><ele>641.1666666666666</ele><time>2026-04-30T13:33:47.081Z</time></trkpt><trkpt lat="45.4445883" lon="14.1707883"><ele>641.0</ele><time>2026-04-30T13:33:48.088Z</time></trkpt><trkpt lat="45.4446333" lon="14.1707167"><ele>640.8333333333333</ele><time>2026-04-30T13:33:49.094Z</time></trkpt><trkpt lat="45.44469" lon="14.1706567"><ele>640.6666666666666</ele><time>2026-04-30T13:33:50.101Z</time></trkpt><trkpt lat="45.4447567" lon="14.1706033"><ele>640.5</ele><time>2026-04-30T13:33:51.107Z</time></trkpt><trkpt lat="45.4448317" lon="14.170555"><ele>640.3333333333334</ele><time>2026-04-30T13:33:52.114Z</time></trkpt><trkpt lat="45.4449033" lon="14.170515"><ele>640.1666666666667</ele><time>2026-04-30T13:33:53.053Z</time></trkpt><trkpt lat="45.4449733" lon="14.1704767"><ele>640.0</ele><time>2026-04-30T13:33:54.127Z</time></trkpt><trkpt lat="45.4450433" lon="14.17044"><ele>640.0</ele><time>2026-04-30T13:33:55.068Z</time></trkpt><trkpt lat="45.4451183" lon="14.1704167"><ele>640.0</ele><time>2026-04-30T13:33:56.141Z</time></trkpt><trkpt lat="45.4452833" lon="14.170385"><ele>640.0</ele><time>2026-04-30T13:33:58.087Z</time></trkpt><trkpt lat="45.4453633" lon="14.1703733"><ele>640.0</ele><time>2026-04-30T13:33:59.094Z</time></trkpt><trkpt lat="45.4454433" lon="14.1703683"><ele>640.0</ele><time>2026-04-30T13:34:00.1Z</time></trkpt><trkpt lat="45.4455233" lon="14.17037"><ele>640.1666666666667</ele><time>2026-04-30T13:34:01.106Z</time></trkpt><trkpt lat="45.4456033" lon="14.1703783"><ele>640.3333333333334</ele><time>2026-04-30T13:34:02.113Z</time></trkpt><trkpt lat="45.4456867" lon="14.1703883"><ele>640.5</ele><time>2026-04-30T13:34:03.053Z</time></trkpt><trkpt lat="45.4457717" lon="14.1703967"><ele>640.6666666666666</ele><time>2026-04-30T13:34:04.126Z</time></trkpt><trkpt lat="45.445855" lon="14.1703967"><ele>640.8333333333333</ele><time>2026-04-30T13:34:05.066Z</time></trkpt><trkpt lat="45.4459367" lon="14.1703933"><ele>641.0</ele><time>2026-04-30T13:34:06.14Z</time></trkpt><trkpt lat="45.44602" lon="14.170395"><ele>641.0</ele><time>2026-04-30T13:34:07.08Z</time></trkpt><trkpt lat="45.4461067" lon="14.1703967"><ele>641.0</ele><time>2026-04-30T13:34:08.086Z</time></trkpt><trkpt lat="45.4461967" lon="14.170395"><ele>641.0</ele><time>2026-04-30T13:34:09.092Z</time></trkpt><trkpt lat="45.44629" lon="14.17039"><ele>641.0</ele><time>2026-04-30T13:34:10.1Z</time></trkpt><trkpt lat="45.44638" lon="14.1703783"><ele>641.0</ele><time>2026-04-30T13:34:11.106Z</time></trkpt><trkpt lat="45.4464717" lon="14.17036"><ele>641.0</ele><time>2026-04-30T13:34:12.112Z</time></trkpt><trkpt lat="45.4465567" lon="14.170335"><ele>641.0</ele><time>2026-04-30T13:34:13.053Z</time></trkpt><trkpt lat="45.446635" lon="14.17031"><ele>641.0</ele><time>2026-04-30T13:34:14.127Z</time></trkpt><trkpt lat="45.4467033" lon="14.1702817"><ele>641.0</ele><time>2026-04-30T13:34:15.065Z</time></trkpt><trkpt lat="45.44677" lon="14.170255"><ele>641.0</ele><time>2026-04-30T13:34:16.139Z</time></trkpt><trkpt lat="45.44684" lon="14.170225"><ele>641.0</ele><time>2026-04-30T13:34:17.079Z</time></trkpt><trkpt lat="45.446915" lon="14.1702033"><ele>641.0</ele><time>2026-04-30T13:34:18.085Z</time></trkpt><trkpt lat="45.4469867" lon="14.1702"><ele>641.0</ele><time>2026-04-30T13:34:19.093Z</time></trkpt><trkpt lat="45.4470617" lon="14.1702"><ele>641.0</ele><time>2026-04-30T13:34:20.098Z</time></trkpt><trkpt lat="45.4471317" lon="14.1702033"><ele>641.0</ele><time>2026-04-30T13:34:21.106Z</time></trkpt><trkpt lat="45.4472" lon="14.170215"><ele>641.0</ele><time>2026-04-30T13:34:22.112Z</time></trkpt><trkpt lat="45.4472683" lon="14.1702367"><ele>641.0</ele><time>2026-04-30T13:34:23.052Z</time></trkpt><trkpt lat="45.4473317" lon="14.170265"><ele>641.0</ele><time>2026-04-30T13:34:24.125Z</time></trkpt><trkpt lat="45.4474417" lon="14.17031"><ele>640.75</ele><time>2026-04-30T13:34:26.138Z</time></trkpt><trkpt lat="45.4475467" lon="14.1702983"><ele>640.5</ele><time>2026-04-30T13:34:28.084Z</time></trkpt><trkpt lat="45.4476417" lon="14.1702217"><ele>640.25</ele><time>2026-04-30T13:34:30.098Z</time></trkpt><trkpt lat="45.447745" lon="14.17013"><ele>640.0</ele><time>2026-04-30T13:34:32.111Z</time></trkpt><trkpt lat="45.4478617" lon="14.1701017"><ele>640.0</ele><time>2026-04-30T13:34:34.124Z</time></trkpt><trkpt lat="45.4479333" lon="14.1701133"><ele>640.0</ele><time>2026-04-30T13:34:35.063Z</time></trkpt><trkpt lat="45.44801" lon="14.1701333"><ele>640.0</ele><time>2026-04-30T13:34:36.137Z</time></trkpt><trkpt lat="45.4480833" lon="14.1701683"><ele>640.0</ele><time>2026-04-30T13:34:37.077Z</time></trkpt><trkpt lat="45.448145" lon="14.1702133"><ele>640.0</ele><time>2026-04-30T13:34:38.084Z</time></trkpt><trkpt lat="45.4482" lon="14.1702583"><ele>640.0</ele><time>2026-04-30T13:34:39.091Z</time></trkpt><trkpt lat="45.4483133" lon="14.1703083"><ele>639.8</ele><time>2026-04-30T13:34:41.103Z</time></trkpt><trkpt lat="45.44844" lon="14.1703117"><ele>639.6</ele><time>2026-04-30T13:34:43.049Z</time></trkpt><trkpt lat="45.4485067" lon="14.170305"><ele>639.4</ele><time>2026-04-30T13:34:44.123Z</time></trkpt><trkpt lat="45.4486083" lon="14.1703"><ele>639.2</ele><time>2026-04-30T13:34:46.069Z</time></trkpt><trkpt lat="45.4486883" lon="14.170345"><ele>639.0</ele><time>2026-04-30T13:34:48.083Z</time></trkpt><trkpt lat="45.4487833" lon="14.1704083"><ele>640.5</ele><time>2026-04-30T13:34:50.097Z</time></trkpt><trkpt lat="45.4488667" lon="14.1704883"><ele>642.0</ele><time>2026-04-30T13:34:52.11Z</time></trkpt><trkpt lat="45.448975" lon="14.17057"><ele>643.5</ele><time>2026-04-30T13:34:54.123Z</time></trkpt><trkpt lat="45.4490917" lon="14.1705967"><ele>645.0</ele><time>2026-04-30T13:34:56.069Z</time></trkpt><trkpt lat="45.449215" lon="14.1705883"><ele>645.0</ele><time>2026-04-30T13:34:58.083Z</time></trkpt><trkpt lat="45.449295" lon="14.1705833"><ele>645.0</ele><time>2026-04-30T13:34:59.088Z</time></trkpt><trkpt lat="45.449385" lon="14.1705733"><ele>645.0</ele><time>2026-04-30T13:35:00.095Z</time></trkpt><trkpt lat="45.449475" lon="14.1705567"><ele>645.0</ele><time>2026-04-30T13:35:01.035Z</time></trkpt><trkpt lat="45.4495667" lon="14.1705283"><ele>645.0</ele><time>2026-04-30T13:35:02.108Z</time></trkpt><trkpt lat="45.449655" lon="14.1705"><ele>645.0</ele><time>2026-04-30T13:35:03.049Z</time></trkpt><trkpt lat="45.4497317" lon="14.17048"><ele>645.6666666666666</ele><time>2026-04-30T13:35:04.123Z</time></trkpt><trkpt lat="45.4498" lon="14.170475"><ele>646.3333333333334</ele><time>2026-04-30T13:35:05.062Z</time></trkpt><trkpt lat="45.449865" lon="14.1704783"><ele>647.0</ele><time>2026-04-30T13:35:06.068Z</time></trkpt><trkpt lat="45.4499383" lon="14.1704917"><ele>647.6666666666667</ele><time>2026-04-30T13:35:07.074Z</time></trkpt><trkpt lat="45.4500217" lon="14.1705083"><ele>648.3333333333334</ele><time>2026-04-30T13:35:08.081Z</time></trkpt><trkpt lat="45.45011" lon="14.170525"><ele>649.0</ele><time>2026-04-30T13:35:09.156Z</time></trkpt><trkpt lat="45.4501933" lon="14.1705467"><ele>649.0</ele><time>2026-04-30T13:35:10.094Z</time></trkpt><trkpt lat="45.45027" lon="14.1705783"><ele>649.0</ele><time>2026-04-30T13:35:11.035Z</time></trkpt><trkpt lat="45.4503433" lon="14.1706183"><ele>649.0</ele><time>2026-04-30T13:35:12.109Z</time></trkpt><trkpt lat="45.4504233" lon="14.170675"><ele>649.0</ele><time>2026-04-30T13:35:13.047Z</time></trkpt><trkpt lat="45.4505033" lon="14.1707417"><ele>649.0</ele><time>2026-04-30T13:35:14.121Z</time></trkpt><trkpt lat="45.450585" lon="14.1708167"><ele>649.0</ele><time>2026-04-30T13:35:15.06Z</time></trkpt><trkpt lat="45.4506617" lon="14.1708917"><ele>648.6666666666667</ele><time>2026-04-30T13:35:16.068Z</time></trkpt><trkpt lat="45.4507333" lon="14.170965"><ele>648.3333333333334</ele><time>2026-04-30T13:35:17.142Z</time></trkpt><trkpt lat="45.4508033" lon="14.17103"><ele>648.0</ele><time>2026-04-30T13:35:18.081Z</time></trkpt><trkpt lat="45.4508783" lon="14.17109"><ele>647.6666666666666</ele><time>2026-04-30T13:35:19.154Z</time></trkpt><trkpt lat="45.45095" lon="14.17114"><ele>647.3333333333333</ele><time>2026-04-30T13:35:20.094Z</time></trkpt><trkpt lat="45.4510183" lon="14.1711783"><ele>647.0</ele><time>2026-04-30T13:35:21.034Z</time></trkpt><trkpt lat="45.4510867" lon="14.1712033"><ele>647.0</ele><time>2026-04-30T13:35:22.107Z</time></trkpt><trkpt lat="45.4511567" lon="14.17122"><ele>647.0</ele><time>2026-04-30T13:35:23.046Z</time></trkpt><trkpt lat="45.4512267" lon="14.1712333"><ele>647.0</ele><time>2026-04-30T13:35:24.121Z</time></trkpt><trkpt lat="45.4512983" lon="14.1712517"><ele>647.0</ele><time>2026-04-30T13:35:25.127Z</time></trkpt><trkpt lat="45.45138" lon="14.1712683"><ele>647.0</ele><time>2026-04-30T13:35:26.066Z</time></trkpt><trkpt lat="45.4514617" lon="14.1712767"><ele>647.0</ele><time>2026-04-30T13:35:27.141Z</time></trkpt><trkpt lat="45.4515417" lon="14.1712767"><ele>647.0</ele><time>2026-04-30T13:35:28.08Z</time></trkpt><trkpt lat="45.451635" lon="14.17127"><ele>647.0</ele><time>2026-04-30T13:35:29.154Z</time></trkpt><trkpt lat="45.451735" lon="14.171265"><ele>647.0</ele><time>2026-04-30T13:35:30.094Z</time></trkpt><trkpt lat="45.4518467" lon="14.1712517"><ele>647.0</ele><time>2026-04-30T13:35:31.032Z</time></trkpt><trkpt lat="45.4519567" lon="14.1712367"><ele>647.0</ele><time>2026-04-30T13:35:32.107Z</time></trkpt><trkpt lat="45.452065" lon="14.1712233"><ele>646.3333333333333</ele><time>2026-04-30T13:35:33.114Z</time></trkpt><trkpt lat="45.4521667" lon="14.1712117"><ele>645.6666666666666</ele><time>2026-04-30T13:35:34.119Z</time></trkpt><trkpt lat="45.45226" lon="14.1712017"><ele>645.0</ele><time>2026-04-30T13:35:35.127Z</time></trkpt><trkpt lat="45.4523467" lon="14.1711983"><ele>644.3333333333334</ele><time>2026-04-30T13:35:36.066Z</time></trkpt><trkpt lat="45.45243" lon="14.1711917"><ele>643.6666666666667</ele><time>2026-04-30T13:35:37.14Z</time></trkpt><trkpt lat="45.45251" lon="14.1711667"><ele>643.0</ele><time>2026-04-30T13:35:38.079Z</time></trkpt><trkpt lat="45.4525933" lon="14.171125"><ele>643.0</ele><time>2026-04-30T13:35:39.153Z</time></trkpt><trkpt lat="45.45267" lon="14.1710733"><ele>643.0</ele><time>2026-04-30T13:35:40.093Z</time></trkpt><trkpt lat="45.4527483" lon="14.1710167"><ele>643.0</ele><time>2026-04-30T13:35:41.032Z</time></trkpt><trkpt lat="45.452825" lon="14.1709733"><ele>643.0</ele><time>2026-04-30T13:35:42.105Z</time></trkpt><trkpt lat="45.452905" lon="14.17094"><ele>643.0</ele><time>2026-04-30T13:35:43.113Z</time></trkpt><trkpt lat="45.452995" lon="14.170905"><ele>643.0</ele><time>2026-04-30T13:35:44.12Z</time></trkpt><trkpt lat="45.4530867" lon="14.1708633"><ele>642.5</ele><time>2026-04-30T13:35:45.125Z</time></trkpt><trkpt lat="45.4531733" lon="14.1708133"><ele>642.0</ele><time>2026-04-30T13:35:46.065Z</time></trkpt><trkpt lat="45.4532483" lon="14.1707583"><ele>641.5</ele><time>2026-04-30T13:35:47.138Z</time></trkpt><trkpt lat="45.4533117" lon="14.1707033"><ele>641.0</ele><time>2026-04-30T13:35:48.078Z</time></trkpt><trkpt lat="45.4534033" lon="14.1706167"><ele>640.5</ele><time>2026-04-30T13:35:50.091Z</time></trkpt><trkpt lat="45.4534767" lon="14.1705967"><ele>640.0</ele><time>2026-04-30T13:35:53.111Z</time></trkpt><trkpt lat="45.4535" lon="14.1707317"><ele>640.0</ele><time>2026-04-30T13:35:56.064Z</time></trkpt><trkpt lat="45.45348" lon="14.1708917"><ele>640.0</ele><time>2026-04-30T13:35:58.078Z</time></trkpt><trkpt lat="45.4534467" lon="14.171045"><ele>640.0</ele><time>2026-04-30T13:36:00.09Z</time></trkpt><trkpt lat="45.4534267" lon="14.1711367"><ele>640.0</ele><time>2026-04-30T13:36:02.104Z</time></trkpt><trkpt lat="45.4534233" lon="14.1712467"><ele>640.0</ele><time>2026-04-30T13:37:29.077Z</time></trkpt><trkpt lat="45.4534233" lon="14.1714167"><ele>640.8</ele><time>2026-04-30T13:37:31.091Z</time></trkpt><trkpt lat="45.45341" lon="14.1715333"><ele>641.6</ele><time>2026-04-30T13:37:32.164Z</time></trkpt><trkpt lat="45.4533833" lon="14.1716717"><ele>642.4000000000001</ele><time>2026-04-30T13:37:33.104Z</time></trkpt><trkpt lat="45.45335" lon="14.171825"><ele>643.2</ele><time>2026-04-30T13:37:34.043Z</time></trkpt><trkpt lat="45.4533183" lon="14.1719883"><ele>644.0</ele><time>2026-04-30T13:37:35.117Z</time></trkpt><trkpt lat="45.4532883" lon="14.172165"><ele>643.5</ele><time>2026-04-30T13:37:36.057Z</time></trkpt><trkpt lat="45.4532517" lon="14.17236"><ele>643.0</ele><time>2026-04-30T13:37:37.13Z</time></trkpt><trkpt lat="45.4532167" lon="14.172565"><ele>642.5</ele><time>2026-04-30T13:37:38.069Z</time></trkpt><trkpt lat="45.453185" lon="14.172775"><ele>642.0</ele><time>2026-04-30T13:37:39.077Z</time></trkpt><trkpt lat="45.4531517" lon="14.1729917"><ele>642.3333333333334</ele><time>2026-04-30T13:37:40.151Z</time></trkpt><trkpt lat="45.4531267" lon="14.1732167"><ele>642.6666666666667</ele><time>2026-04-30T13:37:41.089Z</time></trkpt><trkpt lat="45.4531" lon="14.173435"><ele>643.0</ele><time>2026-04-30T13:37:42.029Z</time></trkpt><trkpt lat="45.4530733" lon="14.1736333"><ele>643.0</ele><time>2026-04-30T13:37:43.103Z</time></trkpt><trkpt lat="45.4530467" lon="14.173815"><ele>643.0</ele><time>2026-04-30T13:37:44.043Z</time></trkpt><trkpt lat="45.4530217" lon="14.1739867"><ele>643.0</ele><time>2026-04-30T13:37:45.116Z</time></trkpt><trkpt lat="45.4529933" lon="14.1741683"><ele>643.0</ele><time>2026-04-30T13:37:46.055Z</time></trkpt><trkpt lat="45.452965" lon="14.174355"><ele>643.0</ele><time>2026-04-30T13:37:47.062Z</time></trkpt><trkpt lat="45.452935" lon="14.1745417"><ele>643.0</ele><time>2026-04-30T13:37:48.137Z</time></trkpt><trkpt lat="45.4529083" lon="14.1747283"><ele>643.0</ele><time>2026-04-30T13:37:49.075Z</time></trkpt><trkpt lat="45.4528817" lon="14.1749183"><ele>643.0</ele><time>2026-04-30T13:37:50.15Z</time></trkpt><trkpt lat="45.452855" lon="14.175105"><ele>643.0</ele><time>2026-04-30T13:37:51.088Z</time></trkpt><trkpt lat="45.4528283" lon="14.1752917"><ele>643.0</ele><time>2026-04-30T13:37:52.028Z</time></trkpt><trkpt lat="45.4528033" lon="14.1754767"><ele>643.0</ele><time>2026-04-30T13:37:53.102Z</time></trkpt><trkpt lat="45.4527767" lon="14.1756567"><ele>643.0</ele><time>2026-04-30T13:37:54.041Z</time></trkpt><trkpt lat="45.4527467" lon="14.1758317"><ele>644.0</ele><time>2026-04-30T13:37:55.116Z</time></trkpt><trkpt lat="45.4527183" lon="14.1760033"><ele>645.0</ele><time>2026-04-30T13:37:56.122Z</time></trkpt><trkpt lat="45.4526917" lon="14.176175"><ele>646.0</ele><time>2026-04-30T13:37:57.061Z</time></trkpt><trkpt lat="45.452665" lon="14.1763517"><ele>647.0</ele><time>2026-04-30T13:37:58.136Z</time></trkpt><trkpt lat="45.4526383" lon="14.1765267"><ele>648.25</ele><time>2026-04-30T13:37:59.074Z</time></trkpt><trkpt lat="45.4526083" lon="14.1767067"><ele>649.5</ele><time>2026-04-30T13:38:00.149Z</time></trkpt><trkpt lat="45.4525733" lon="14.17689"><ele>650.75</ele><time>2026-04-30T13:38:01.089Z</time></trkpt><trkpt lat="45.4525367" lon="14.17707"><ele>652.0</ele><time>2026-04-30T13:38:02.027Z</time></trkpt><trkpt lat="45.452495" lon="14.1772417"><ele>652.25</ele><time>2026-04-30T13:38:03.102Z</time></trkpt><trkpt lat="45.4524517" lon="14.1774083"><ele>652.5</ele><time>2026-04-30T13:38:04.109Z</time></trkpt><trkpt lat="45.4524017" lon="14.1775733"><ele>652.75</ele><time>2026-04-30T13:38:05.115Z</time></trkpt><trkpt lat="45.45234" lon="14.1777367"><ele>653.0</ele><time>2026-04-30T13:38:06.122Z</time></trkpt><trkpt lat="45.4522617" lon="14.1778883"><ele>653.0</ele><time>2026-04-30T13:38:07.06Z</time></trkpt><trkpt lat="45.4521733" lon="14.17803"><ele>653.0</ele><time>2026-04-30T13:38:08.135Z</time></trkpt><trkpt lat="45.4520767" lon="14.178165"><ele>653.0</ele><time>2026-04-30T13:38:09.074Z</time></trkpt><trkpt lat="45.451975" lon="14.1782983"><ele>653.0</ele><time>2026-04-30T13:38:10.148Z</time></trkpt><trkpt lat="45.45187" lon="14.1784267"><ele>651.5</ele><time>2026-04-30T13:38:11.087Z</time></trkpt><trkpt lat="45.451765" lon="14.1785517"><ele>650.0</ele><time>2026-04-30T13:38:12.026Z</time></trkpt><trkpt lat="45.4516683" lon="14.1786683"><ele>648.5</ele><time>2026-04-30T13:38:13.1Z</time></trkpt><trkpt lat="45.4515733" lon="14.1787817"><ele>647.0</ele><time>2026-04-30T13:38:14.108Z</time></trkpt><trkpt lat="45.4514783" lon="14.1788917"><ele>647.0</ele><time>2026-04-30T13:38:15.114Z</time></trkpt><trkpt lat="45.4513817" lon="14.1790033"><ele>647.0</ele><time>2026-04-30T13:38:16.121Z</time></trkpt><trkpt lat="45.4512817" lon="14.17912"><ele>647.0</ele><time>2026-04-30T13:38:17.06Z</time></trkpt><trkpt lat="45.4511767" lon="14.1792317"><ele>647.0</ele><time>2026-04-30T13:38:18.133Z</time></trkpt><trkpt lat="45.4510683" lon="14.17935"><ele>647.5</ele><time>2026-04-30T13:38:19.073Z</time></trkpt><trkpt lat="45.450955" lon="14.1794733"><ele>648.0</ele><time>2026-04-30T13:38:20.147Z</time></trkpt><trkpt lat="45.4508433" lon="14.1796067"><ele>648.5</ele><time>2026-04-30T13:38:21.086Z</time></trkpt><trkpt lat="45.45073" lon="14.1797367"><ele>649.0</ele><time>2026-04-30T13:38:22.093Z</time></trkpt><trkpt lat="45.450615" lon="14.1798733"><ele>649.0</ele><time>2026-04-30T13:38:23.099Z</time></trkpt><trkpt lat="45.4505017" lon="14.1800117"><ele>649.0</ele><time>2026-04-30T13:38:24.106Z</time></trkpt><trkpt lat="45.4503883" lon="14.1801533"><ele>649.0</ele><time>2026-04-30T13:38:25.113Z</time></trkpt><trkpt lat="45.4502733" lon="14.1802917"><ele>647.0</ele><time>2026-04-30T13:38:26.12Z</time></trkpt><trkpt lat="45.45016" lon="14.18043"><ele>645.0</ele><time>2026-04-30T13:38:27.059Z</time></trkpt><trkpt lat="45.4500467" lon="14.1805633"><ele>643.0</ele><time>2026-04-30T13:38:28.134Z</time></trkpt><trkpt lat="45.4499383" lon="14.1806883"><ele>641.0</ele><time>2026-04-30T13:38:29.072Z</time></trkpt><trkpt lat="45.4498367" lon="14.1808083"><ele>641.0</ele><time>2026-04-30T13:38:30.147Z</time></trkpt><trkpt lat="45.449735" lon="14.18092"><ele>641.0</ele><time>2026-04-30T13:38:31.085Z</time></trkpt><trkpt lat="45.4496367" lon="14.1810317"><ele>641.0</ele><time>2026-04-30T13:38:32.093Z</time></trkpt><trkpt lat="45.44954" lon="14.181145"><ele>641.0</ele><time>2026-04-30T13:38:33.1Z</time></trkpt><trkpt lat="45.44945" lon="14.1812617"><ele>640.0</ele><time>2026-04-30T13:38:34.106Z</time></trkpt><trkpt lat="45.44936" lon="14.181375"><ele>639.0</ele><time>2026-04-30T13:38:35.113Z</time></trkpt><trkpt lat="45.4492683" lon="14.181485"><ele>638.0</ele><time>2026-04-30T13:38:36.12Z</time></trkpt><trkpt lat="45.4491783" lon="14.1815933"><ele>637.0</ele><time>2026-04-30T13:38:37.059Z</time></trkpt><trkpt lat="45.449085" lon="14.1817017"><ele>636.5</ele><time>2026-04-30T13:38:38.132Z</time></trkpt><trkpt lat="45.4489883" lon="14.18181"><ele>636.0</ele><time>2026-04-30T13:38:39.072Z</time></trkpt><trkpt lat="45.4488917" lon="14.1819167"><ele>635.5</ele><time>2026-04-30T13:38:40.145Z</time></trkpt><trkpt lat="45.448795" lon="14.18203"><ele>635.0</ele><time>2026-04-30T13:38:41.085Z</time></trkpt><trkpt lat="45.4486983" lon="14.182145"><ele>634.25</ele><time>2026-04-30T13:38:42.092Z</time></trkpt><trkpt lat="45.4486017" lon="14.1822633"><ele>633.5</ele><time>2026-04-30T13:38:43.098Z</time></trkpt><trkpt lat="45.4485083" lon="14.1823783"><ele>632.75</ele><time>2026-04-30T13:38:44.105Z</time></trkpt><trkpt lat="45.44841" lon="14.1824967"><ele>632.0</ele><time>2026-04-30T13:38:45.112Z</time></trkpt><trkpt lat="45.448305" lon="14.1826167"><ele>631.3333333333333</ele><time>2026-04-30T13:38:46.118Z</time></trkpt><trkpt lat="45.4481917" lon="14.1827517"><ele>630.6666666666666</ele><time>2026-04-30T13:38:47.058Z</time></trkpt><trkpt lat="45.4480667" lon="14.182895"><ele>630.0</ele><time>2026-04-30T13:38:48.131Z</time></trkpt><trkpt lat="45.4479333" lon="14.18305"><ele>629.6666666666666</ele><time>2026-04-30T13:38:49.072Z</time></trkpt><trkpt lat="45.44779" lon="14.1832167"><ele>629.3333333333333</ele><time>2026-04-30T13:38:50.145Z</time></trkpt><trkpt lat="45.44764" lon="14.183395"><ele>629.0</ele><time>2026-04-30T13:38:51.084Z</time></trkpt><trkpt lat="45.4474833" lon="14.183575"><ele>629.0</ele><time>2026-04-30T13:38:52.091Z</time></trkpt><trkpt lat="45.4473233" lon="14.18376"><ele>629.0</ele><time>2026-04-30T13:38:53.097Z</time></trkpt><trkpt lat="45.4471583" lon="14.1839517"><ele>629.0</ele><time>2026-04-30T13:38:54.105Z</time></trkpt><trkpt lat="45.4469917" lon="14.1841567"><ele>626.6666666666666</ele><time>2026-04-30T13:38:55.11Z</time></trkpt><trkpt lat="45.4468217" lon="14.1843633"><ele>624.3333333333334</ele><time>2026-04-30T13:38:56.118Z</time></trkpt><trkpt lat="45.4466533" lon="14.1845767"><ele>622.0</ele><time>2026-04-30T13:38:57.058Z</time></trkpt><trkpt lat="45.4464817" lon="14.1847917"><ele>621.5</ele><time>2026-04-30T13:38:58.13Z</time></trkpt><trkpt lat="45.4463083" lon="14.185015"><ele>621.0</ele><time>2026-04-30T13:38:59.071Z</time></trkpt><trkpt lat="45.4461367" lon="14.1852367"><ele>620.0</ele><time>2026-04-30T13:39:00.144Z</time></trkpt><trkpt lat="45.4459717" lon="14.1854467"><ele>619.0</ele><time>2026-04-30T13:39:01.084Z</time></trkpt><trkpt lat="45.4458167" lon="14.1856433"><ele>618.0</ele><time>2026-04-30T13:39:02.09Z</time></trkpt><trkpt lat="45.44567" lon="14.1858283"><ele>618.0</ele><time>2026-04-30T13:39:03.096Z</time></trkpt><trkpt lat="45.4455317" lon="14.1860033"><ele>618.0</ele><time>2026-04-30T13:39:04.104Z</time></trkpt><trkpt lat="45.4454017" lon="14.1861667"><ele>618.0</ele><time>2026-04-30T13:39:05.111Z</time></trkpt><trkpt lat="45.4452833" lon="14.1863217"><ele>617.75</ele><time>2026-04-30T13:39:06.116Z</time></trkpt><trkpt lat="45.445175" lon="14.1864733"><ele>617.5</ele><time>2026-04-30T13:39:07.056Z</time></trkpt><trkpt lat="45.44509" lon="14.1866333"><ele>617.25</ele><time>2026-04-30T13:39:08.13Z</time></trkpt><trkpt lat="45.4450217" lon="14.1868083"><ele>617.0</ele><time>2026-04-30T13:39:09.069Z</time></trkpt><trkpt lat="45.4449683" lon="14.187005"><ele>617.0</ele><time>2026-04-30T13:39:10.143Z</time></trkpt><trkpt lat="45.4449183" lon="14.1872183"><ele>617.0</ele><time>2026-04-30T13:39:11.083Z</time></trkpt><trkpt lat="45.4448683" lon="14.1874417"><ele>617.0</ele><time>2026-04-30T13:39:12.089Z</time></trkpt><trkpt lat="45.4448167" lon="14.18767"><ele>618.0</ele><time>2026-04-30T13:39:13.096Z</time></trkpt><trkpt lat="45.444765" lon="14.1879067"><ele>619.0</ele><time>2026-04-30T13:39:14.103Z</time></trkpt><trkpt lat="45.44471" lon="14.1881483"><ele>620.0</ele><time>2026-04-30T13:39:15.042Z</time></trkpt><trkpt lat="45.4446567" lon="14.188395"><ele>618.3333333333333</ele><time>2026-04-30T13:39:16.115Z</time></trkpt><trkpt lat="45.4446017" lon="14.1886467"><ele>616.6666666666666</ele><time>2026-04-30T13:39:17.055Z</time></trkpt><trkpt lat="45.44455" lon="14.1888983"><ele>615.0</ele><time>2026-04-30T13:39:18.129Z</time></trkpt><trkpt lat="45.4444983" lon="14.1891533"><ele>614.0</ele><time>2026-04-30T13:39:19.069Z</time></trkpt><trkpt lat="45.4444467" lon="14.1894017"><ele>613.0</ele><time>2026-04-30T13:39:20.076Z</time></trkpt><trkpt lat="45.4444" lon="14.189645"><ele>612.0</ele><time>2026-04-30T13:39:21.081Z</time></trkpt><trkpt lat="45.4443517" lon="14.1898833"><ele>610.6666666666666</ele><time>2026-04-30T13:39:22.088Z</time></trkpt><trkpt lat="45.444305" lon="14.1901183"><ele>609.3333333333333</ele><time>2026-04-30T13:39:23.095Z</time></trkpt><trkpt lat="45.4442583" lon="14.1903517"><ele>608.0</ele><time>2026-04-30T13:39:24.102Z</time></trkpt><trkpt lat="45.4442117" lon="14.1905833"><ele>608.3333333333333</ele><time>2026-04-30T13:39:25.041Z</time></trkpt><trkpt lat="45.4441633" lon="14.190815"><ele>608.6666666666666</ele><time>2026-04-30T13:39:26.116Z</time></trkpt><trkpt lat="45.44411" lon="14.1910417"><ele>609.0</ele><time>2026-04-30T13:39:27.054Z</time></trkpt><trkpt lat="45.44405" lon="14.1912633"><ele>609.0</ele><time>2026-04-30T13:39:28.129Z</time></trkpt><trkpt lat="45.4439833" lon="14.1914783"><ele>609.0</ele><time>2026-04-30T13:39:29.067Z</time></trkpt><trkpt lat="45.4439083" lon="14.1916867"><ele>609.0</ele><time>2026-04-30T13:39:30.074Z</time></trkpt><trkpt lat="45.4438267" lon="14.19189"><ele>609.3333333333334</ele><time>2026-04-30T13:39:31.081Z</time></trkpt><trkpt lat="45.44374" lon="14.1920883"><ele>609.6666666666667</ele><time>2026-04-30T13:39:32.087Z</time></trkpt><trkpt lat="45.44365" lon="14.192285"><ele>610.0</ele><time>2026-04-30T13:39:33.094Z</time></trkpt><trkpt lat="45.443555" lon="14.192475"><ele>610.0</ele><time>2026-04-30T13:39:34.101Z</time></trkpt><trkpt lat="45.4434533" lon="14.1926567"><ele>610.0</ele><time>2026-04-30T13:39:35.041Z</time></trkpt><trkpt lat="45.4433467" lon="14.19283"><ele>610.0</ele><time>2026-04-30T13:39:36.115Z</time></trkpt><trkpt lat="45.44324" lon="14.1929983"><ele>610.0</ele><time>2026-04-30T13:39:37.053Z</time></trkpt><trkpt lat="45.443135" lon="14.1931517"><ele>610.0</ele><time>2026-04-30T13:39:38.128Z</time></trkpt><trkpt lat="45.443025" lon="14.1933017"><ele>610.0</ele><time>2026-04-30T13:39:39.067Z</time></trkpt><trkpt lat="45.4429083" lon="14.1934433"><ele>610.0</ele><time>2026-04-30T13:39:40.073Z</time></trkpt><trkpt lat="45.4427817" lon="14.193585"><ele>610.0</ele><time>2026-04-30T13:39:41.081Z</time></trkpt><trkpt lat="45.4426483" lon="14.1937217"><ele>610.0</ele><time>2026-04-30T13:39:42.087Z</time></trkpt><trkpt lat="45.4425083" lon="14.1938583"><ele>610.0</ele><time>2026-04-30T13:39:43.094Z</time></trkpt><trkpt lat="45.4423733" lon="14.1939867"><ele>610.0</ele><time>2026-04-30T13:39:44.1Z</time></trkpt><trkpt lat="45.44224" lon="14.1941067"><ele>610.0</ele><time>2026-04-30T13:39:45.039Z</time></trkpt><trkpt lat="45.4421117" lon="14.1942233"><ele>609.0</ele><time>2026-04-30T13:39:46.113Z</time></trkpt><trkpt lat="45.4419833" lon="14.1943417"><ele>608.0</ele><time>2026-04-30T13:39:47.054Z</time></trkpt><trkpt lat="45.4418533" lon="14.1944583"><ele>607.0</ele><time>2026-04-30T13:39:48.126Z</time></trkpt><trkpt lat="45.4417183" lon="14.194575"><ele>607.0</ele><time>2026-04-30T13:39:49.067Z</time></trkpt><trkpt lat="45.4415833" lon="14.1946933"><ele>607.0</ele><time>2026-04-30T13:39:50.073Z</time></trkpt><trkpt lat="45.4414433" lon="14.1948183"><ele>607.0</ele><time>2026-04-30T13:39:51.079Z</time></trkpt><trkpt lat="45.4413" lon="14.1949483"><ele>606.0</ele><time>2026-04-30T13:39:52.086Z</time></trkpt><trkpt lat="45.44115" lon="14.1950783"><ele>605.0</ele><time>2026-04-30T13:39:53.161Z</time></trkpt><trkpt lat="45.4409967" lon="14.19521"><ele>604.0</ele><time>2026-04-30T13:39:54.099Z</time></trkpt><trkpt lat="45.4408417" lon="14.1953417"><ele>604.0</ele><time>2026-04-30T13:39:55.039Z</time></trkpt><trkpt lat="45.4406883" lon="14.1954717"><ele>604.0</ele><time>2026-04-30T13:39:56.112Z</time></trkpt><trkpt lat="45.44054" lon="14.1956017"><ele>604.0</ele><time>2026-04-30T13:39:57.053Z</time></trkpt><trkpt lat="45.4404" lon="14.1957333"><ele>604.0</ele><time>2026-04-30T13:39:58.127Z</time></trkpt><trkpt lat="45.440255" lon="14.19587"><ele>604.0</ele><time>2026-04-30T13:39:59.065Z</time></trkpt><trkpt lat="45.4401067" lon="14.1960033"><ele>604.0</ele><time>2026-04-30T13:40:00.073Z</time></trkpt><trkpt lat="45.4399567" lon="14.1961383"><ele>604.0</ele><time>2026-04-30T13:40:01.079Z</time></trkpt><trkpt lat="45.4398033" lon="14.1962733"><ele>604.0</ele><time>2026-04-30T13:40:02.085Z</time></trkpt><trkpt lat="45.4396467" lon="14.19641"><ele>604.0</ele><time>2026-04-30T13:40:03.159Z</time></trkpt><trkpt lat="45.4394883" lon="14.1965467"><ele>601.6666666666667</ele><time>2026-04-30T13:40:04.098Z</time></trkpt><trkpt lat="45.4393317" lon="14.1966833"><ele>599.3333333333334</ele><time>2026-04-30T13:40:05.038Z</time></trkpt><trkpt lat="45.4391783" lon="14.1968133"><ele>597.0</ele><time>2026-04-30T13:40:06.112Z</time></trkpt><trkpt lat="45.4390333" lon="14.19694"><ele>597.0</ele><time>2026-04-30T13:40:07.051Z</time></trkpt><trkpt lat="45.4388917" lon="14.1970617"><ele>597.0</ele><time>2026-04-30T13:40:08.125Z</time></trkpt><trkpt lat="45.4387583" lon="14.1971733"><ele>597.0</ele><time>2026-04-30T13:40:09.064Z</time></trkpt><trkpt lat="45.4386283" lon="14.1972883"><ele>596.0</ele><time>2026-04-30T13:40:10.071Z</time></trkpt><trkpt lat="45.4385033" lon="14.1973983"><ele>595.0</ele><time>2026-04-30T13:40:11.146Z</time></trkpt><trkpt lat="45.4383833" lon="14.1975017"><ele>594.0</ele><time>2026-04-30T13:40:12.084Z</time></trkpt><trkpt lat="45.4382683" lon="14.19761"><ele>593.0</ele><time>2026-04-30T13:40:13.158Z</time></trkpt><trkpt lat="45.43816" lon="14.1977167"><ele>593.0</ele><time>2026-04-30T13:40:14.097Z</time></trkpt><trkpt lat="45.43805" lon="14.19782"><ele>593.0</ele><time>2026-04-30T13:40:15.037Z</time></trkpt><trkpt lat="45.43794" lon="14.1979217"><ele>593.0</ele><time>2026-04-30T13:40:16.111Z</time></trkpt><trkpt lat="45.4378267" lon="14.19802"><ele>593.0</ele><time>2026-04-30T13:40:17.05Z</time></trkpt><trkpt lat="45.4377067" lon="14.198125"><ele>590.0</ele><time>2026-04-30T13:40:18.124Z</time></trkpt><trkpt lat="45.4375817" lon="14.1982383"><ele>587.0</ele><time>2026-04-30T13:40:19.131Z</time></trkpt><trkpt lat="45.4374533" lon="14.1983567"><ele>584.0</ele><time>2026-04-30T13:40:20.071Z</time></trkpt><trkpt lat="45.4373167" lon="14.1984817"><ele>584.0</ele><time>2026-04-30T13:40:21.145Z</time></trkpt><trkpt lat="45.43717" lon="14.1986133"><ele>584.0</ele><time>2026-04-30T13:40:22.083Z</time></trkpt><trkpt lat="45.437015" lon="14.1987517"><ele>584.0</ele><time>2026-04-30T13:40:23.158Z</time></trkpt><trkpt lat="45.43685" lon="14.198895"><ele>583.6666666666666</ele><time>2026-04-30T13:40:24.098Z</time></trkpt><trkpt lat="45.4366833" lon="14.1990417"><ele>583.3333333333334</ele><time>2026-04-30T13:40:25.036Z</time></trkpt><trkpt lat="45.4365117" lon="14.1991933"><ele>583.0</ele><time>2026-04-30T13:40:26.111Z</time></trkpt><trkpt lat="45.43634" lon="14.1993483"><ele>584.0</ele><time>2026-04-30T13:40:27.118Z</time></trkpt><trkpt lat="45.4361633" lon="14.199505"><ele>585.0</ele><time>2026-04-30T13:40:28.123Z</time></trkpt><trkpt lat="45.435985" lon="14.199665"><ele>586.0</ele><time>2026-04-30T13:40:29.13Z</time></trkpt><trkpt lat="45.4358133" lon="14.19982"><ele>585.6666666666667</ele><time>2026-04-30T13:40:30.069Z</time></trkpt><trkpt lat="45.4356483" lon="14.1999633"><ele>585.3333333333334</ele><time>2026-04-30T13:40:31.143Z</time></trkpt><trkpt lat="45.4354933" lon="14.20009"><ele>585.0</ele><time>2026-04-30T13:40:32.084Z</time></trkpt><trkpt lat="45.4353417" lon="14.200195"><ele>586.6666666666666</ele><time>2026-04-30T13:40:33.156Z</time></trkpt><trkpt lat="45.4352" lon="14.2002633"><ele>588.3333333333333</ele><time>2026-04-30T13:40:34.097Z</time></trkpt><trkpt lat="45.4350517" lon="14.2003083"><ele>590.0</ele><time>2026-04-30T13:40:35.104Z</time></trkpt><trkpt lat="45.4349" lon="14.2003467"><ele>590.0</ele><time>2026-04-30T13:40:36.109Z</time></trkpt><trkpt lat="45.4347417" lon="14.2003867"><ele>590.0</ele><time>2026-04-30T13:40:37.117Z</time></trkpt><trkpt lat="45.4345767" lon="14.2004317"><ele>590.0</ele><time>2026-04-30T13:40:38.123Z</time></trkpt><trkpt lat="45.434405" lon="14.2004767"><ele>590.6666666666666</ele><time>2026-04-30T13:40:39.129Z</time></trkpt><trkpt lat="45.4342317" lon="14.200515"><ele>591.3333333333334</ele><time>2026-04-30T13:40:40.07Z</time></trkpt><trkpt lat="45.4340533" lon="14.2005333"><ele>592.0</ele><time>2026-04-30T13:40:41.143Z</time></trkpt><trkpt lat="45.4338667" lon="14.2005333"><ele>590.6666666666667</ele><time>2026-04-30T13:40:42.082Z</time></trkpt><trkpt lat="45.433675" lon="14.2005317"><ele>589.3333333333334</ele><time>2026-04-30T13:40:43.021Z</time></trkpt><trkpt lat="45.4334883" lon="14.200525"><ele>588.0</ele><time>2026-04-30T13:40:44.095Z</time></trkpt><trkpt lat="45.43331" lon="14.200525"><ele>588.0</ele><time>2026-04-30T13:40:45.103Z</time></trkpt><trkpt lat="45.4331417" lon="14.2005317"><ele>588.0</ele><time>2026-04-30T13:40:46.109Z</time></trkpt><trkpt lat="45.4329817" lon="14.2005467"><ele>588.0</ele><time>2026-04-30T13:40:47.116Z</time></trkpt><trkpt lat="45.4328367" lon="14.20057"><ele>587.5</ele><time>2026-04-30T13:40:48.056Z</time></trkpt><trkpt lat="45.4327083" lon="14.2006167"><ele>587.0</ele><time>2026-04-30T13:40:49.128Z</time></trkpt><trkpt lat="45.4325967" lon="14.2006967"><ele>586.5</ele><time>2026-04-30T13:40:50.068Z</time></trkpt><trkpt lat="45.432495" lon="14.2008083"><ele>586.0</ele><time>2026-04-30T13:40:51.143Z</time></trkpt><trkpt lat="45.4324033" lon="14.2009483"><ele>586.0</ele><time>2026-04-30T13:40:52.082Z</time></trkpt><trkpt lat="45.4323117" lon="14.20111"><ele>586.0</ele><time>2026-04-30T13:40:53.088Z</time></trkpt><trkpt lat="45.4322167" lon="14.2012833"><ele>586.0</ele><time>2026-04-30T13:40:54.094Z</time></trkpt><trkpt lat="45.432115" lon="14.20147"><ele>585.3333333333334</ele><time>2026-04-30T13:40:55.101Z</time></trkpt><trkpt lat="45.4320117" lon="14.2016617"><ele>584.6666666666666</ele><time>2026-04-30T13:40:56.109Z</time></trkpt><trkpt lat="45.4319083" lon="14.201855"><ele>584.0</ele><time>2026-04-30T13:40:57.114Z</time></trkpt><trkpt lat="45.4318017" lon="14.202045"><ele>584.0</ele><time>2026-04-30T13:40:58.055Z</time></trkpt><trkpt lat="45.4316883" lon="14.2022167"><ele>584.0</ele><time>2026-04-30T13:40:59.128Z</time></trkpt><trkpt lat="45.431565" lon="14.2023583"><ele>584.0</ele><time>2026-04-30T13:41:00.068Z</time></trkpt><trkpt lat="45.43143" lon="14.2024733"><ele>584.3333333333333</ele><time>2026-04-30T13:41:01.141Z</time></trkpt><trkpt lat="45.4312817" lon="14.2025783"><ele>584.6666666666666</ele><time>2026-04-30T13:41:02.08Z</time></trkpt><trkpt lat="45.431125" lon="14.2026683"><ele>585.0</ele><time>2026-04-30T13:41:03.087Z</time></trkpt><trkpt lat="45.4309733" lon="14.2027367"><ele>585.0</ele><time>2026-04-30T13:41:04.095Z</time></trkpt><trkpt lat="45.4308267" lon="14.2028017"><ele>585.0</ele><time>2026-04-30T13:41:05.1Z</time></trkpt><trkpt lat="45.4306917" lon="14.20288"><ele>585.0</ele><time>2026-04-30T13:41:06.107Z</time></trkpt><trkpt lat="45.4305717" lon="14.202975"><ele>585.0</ele><time>2026-04-30T13:41:07.113Z</time></trkpt><trkpt lat="45.4304667" lon="14.20309"><ele>583.25</ele><time>2026-04-30T13:41:08.054Z</time></trkpt><trkpt lat="45.4303817" lon="14.203215"><ele>581.5</ele><time>2026-04-30T13:41:09.127Z</time></trkpt><trkpt lat="45.4303083" lon="14.2033717"><ele>579.75</ele><time>2026-04-30T13:41:10.066Z</time></trkpt><trkpt lat="45.4302433" lon="14.203555"><ele>578.0</ele><time>2026-04-30T13:41:11.141Z</time></trkpt><trkpt lat="45.43018" lon="14.2037733"><ele>576.3333333333333</ele><time>2026-04-30T13:41:12.08Z</time></trkpt><trkpt lat="45.430105" lon="14.2040067"><ele>574.6666666666666</ele><time>2026-04-30T13:41:13.086Z</time></trkpt><trkpt lat="45.4300117" lon="14.2042533"><ele>573.0</ele><time>2026-04-30T13:41:14.094Z</time></trkpt><trkpt lat="45.4299117" lon="14.2045067"><ele>573.0</ele><time>2026-04-30T13:41:15.099Z</time></trkpt><trkpt lat="45.42982" lon="14.2047433"><ele>573.0</ele><time>2026-04-30T13:41:16.107Z</time></trkpt><trkpt lat="45.4297333" lon="14.2049683"><ele>573.0</ele><time>2026-04-30T13:41:17.114Z</time></trkpt><trkpt lat="45.4296533" lon="14.2051867"><ele>569.6666666666666</ele><time>2026-04-30T13:41:18.052Z</time></trkpt><trkpt lat="45.4295767" lon="14.2053933"><ele>566.3333333333333</ele><time>2026-04-30T13:41:19.127Z</time></trkpt><trkpt lat="45.4295" lon="14.2055867"><ele>563.0</ele><time>2026-04-30T13:41:20.065Z</time></trkpt><trkpt lat="45.4294283" lon="14.2057683"><ele>563.0</ele><time>2026-04-30T13:41:21.14Z</time></trkpt><trkpt lat="45.4293567" lon="14.205945"><ele>563.0</ele><time>2026-04-30T13:41:22.08Z</time></trkpt><trkpt lat="45.4292817" lon="14.2061283"><ele>563.0</ele><time>2026-04-30T13:41:23.086Z</time></trkpt><trkpt lat="45.429205" lon="14.2063167"><ele>563.0</ele><time>2026-04-30T13:41:24.092Z</time></trkpt><trkpt lat="45.4291233" lon="14.2065067"><ele>565.0</ele><time>2026-04-30T13:41:25.099Z</time></trkpt><trkpt lat="45.4290317" lon="14.2066983"><ele>567.0</ele><time>2026-04-30T13:41:26.106Z</time></trkpt><trkpt lat="45.4289267" lon="14.2068867"><ele>569.0</ele><time>2026-04-30T13:41:27.113Z</time></trkpt><trkpt lat="45.42881" lon="14.207075"><ele>567.6666666666666</ele><time>2026-04-30T13:41:28.051Z</time></trkpt><trkpt lat="45.428685" lon="14.2072617"><ele>566.3333333333334</ele><time>2026-04-30T13:41:29.126Z</time></trkpt><trkpt lat="45.4285583" lon="14.2074483"><ele>565.0</ele><time>2026-04-30T13:41:30.065Z</time></trkpt><trkpt lat="45.428435" lon="14.2076383"><ele>565.0</ele><time>2026-04-30T13:41:31.138Z</time></trkpt><trkpt lat="45.4283117" lon="14.2078233"><ele>565.0</ele><time>2026-04-30T13:41:32.078Z</time></trkpt><trkpt lat="45.4281883" lon="14.2080083"><ele>565.0</ele><time>2026-04-30T13:41:33.086Z</time></trkpt><trkpt lat="45.4280667" lon="14.208195"><ele>564.3333333333334</ele><time>2026-04-30T13:41:34.091Z</time></trkpt><trkpt lat="45.427945" lon="14.2083783"><ele>563.6666666666666</ele><time>2026-04-30T13:41:35.098Z</time></trkpt><trkpt lat="45.4278233" lon="14.2085583"><ele>563.0</ele><time>2026-04-30T13:41:36.106Z</time></trkpt><trkpt lat="45.4276983" lon="14.2087383"><ele>563.0</ele><time>2026-04-30T13:41:37.111Z</time></trkpt><trkpt lat="45.4275767" lon="14.208915"><ele>563.0</ele><time>2026-04-30T13:41:38.052Z</time></trkpt><trkpt lat="45.4274533" lon="14.20909"><ele>563.0</ele><time>2026-04-30T13:41:39.124Z</time></trkpt><trkpt lat="45.4273333" lon="14.20926"><ele>562.6666666666666</ele><time>2026-04-30T13:41:40.065Z</time></trkpt><trkpt lat="45.4272117" lon="14.2094317"><ele>562.3333333333334</ele><time>2026-04-30T13:41:41.138Z</time></trkpt><trkpt lat="45.4270883" lon="14.209605"><ele>562.0</ele><time>2026-04-30T13:41:42.077Z</time></trkpt><trkpt lat="45.4269683" lon="14.209775"><ele>562.6666666666667</ele><time>2026-04-30T13:41:43.085Z</time></trkpt><trkpt lat="45.426855" lon="14.2099467"><ele>563.3333333333334</ele><time>2026-04-30T13:41:44.09Z</time></trkpt><trkpt lat="45.4267567" lon="14.2101167"><ele>564.0</ele><time>2026-04-30T13:41:45.098Z</time></trkpt><trkpt lat="45.42667" lon="14.2102983"><ele>564.0</ele><time>2026-04-30T13:41:46.104Z</time></trkpt><trkpt lat="45.4266067" lon="14.21049"><ele>564.0</ele><time>2026-04-30T13:41:47.11Z</time></trkpt><trkpt lat="45.426565" lon="14.2106917"><ele>564.0</ele><time>2026-04-30T13:41:48.05Z</time></trkpt><trkpt lat="45.4265433" lon="14.2109017"><ele>564.0</ele><time>2026-04-30T13:41:49.125Z</time></trkpt><trkpt lat="45.4265333" lon="14.2111217"><ele>564.3333333333334</ele><time>2026-04-30T13:41:50.063Z</time></trkpt><trkpt lat="45.426525" lon="14.2113467"><ele>564.6666666666667</ele><time>2026-04-30T13:41:51.137Z</time></trkpt><trkpt lat="45.42651" lon="14.2115733"><ele>565.0</ele><time>2026-04-30T13:41:52.077Z</time></trkpt><trkpt lat="45.42649" lon="14.21179"><ele>566.25</ele><time>2026-04-30T13:41:53.083Z</time></trkpt><trkpt lat="45.4264533" lon="14.2119867"><ele>567.5</ele><time>2026-04-30T13:41:54.09Z</time></trkpt><trkpt lat="45.4264" lon="14.2121617"><ele>568.75</ele><time>2026-04-30T13:41:55.096Z</time></trkpt><trkpt lat="45.4263233" lon="14.2123167"><ele>570.0</ele><time>2026-04-30T13:41:56.103Z</time></trkpt><trkpt lat="45.4262233" lon="14.2124433"><ele>570.0</ele><time>2026-04-30T13:41:57.11Z</time></trkpt><trkpt lat="45.426105" lon="14.2125417"><ele>570.0</ele><time>2026-04-30T13:41:58.05Z</time></trkpt><trkpt lat="45.4259717" lon="14.212625"><ele>570.0</ele><time>2026-04-30T13:41:59.124Z</time></trkpt><trkpt lat="45.42583" lon="14.212705"><ele>570.0</ele><time>2026-04-30T13:42:00.062Z</time></trkpt><trkpt lat="45.425685" lon="14.2127867"><ele>570.0</ele><time>2026-04-30T13:42:01.136Z</time></trkpt><trkpt lat="45.4255433" lon="14.2128633"><ele>570.0</ele><time>2026-04-30T13:42:02.076Z</time></trkpt><trkpt lat="45.4254167" lon="14.2129333"><ele>570.0</ele><time>2026-04-30T13:42:03.082Z</time></trkpt><trkpt lat="45.4252983" lon="14.213005"><ele>570.0</ele><time>2026-04-30T13:42:04.09Z</time></trkpt><trkpt lat="45.4251883" lon="14.2130983"><ele>572.25</ele><time>2026-04-30T13:42:05.097Z</time></trkpt><trkpt lat="45.4250883" lon="14.2132217"><ele>574.5</ele><time>2026-04-30T13:42:06.102Z</time></trkpt><trkpt lat="45.4250033" lon="14.2133633"><ele>576.75</ele><time>2026-04-30T13:42:07.109Z</time></trkpt><trkpt lat="45.4249283" lon="14.21353"><ele>579.0</ele><time>2026-04-30T13:42:08.048Z</time></trkpt><trkpt lat="45.42486" lon="14.21372"><ele>579.0</ele><time>2026-04-30T13:42:09.123Z</time></trkpt><trkpt lat="45.424795" lon="14.2139283"><ele>579.0</ele><time>2026-04-30T13:42:10.063Z</time></trkpt><trkpt lat="45.4247317" lon="14.214145"><ele>579.0</ele><time>2026-04-30T13:42:11.068Z</time></trkpt><trkpt lat="45.424665" lon="14.2143683"><ele>578.3333333333334</ele><time>2026-04-30T13:42:12.076Z</time></trkpt><trkpt lat="45.424595" lon="14.2145933"><ele>577.6666666666667</ele><time>2026-04-30T13:42:13.081Z</time></trkpt><trkpt lat="45.4245317" lon="14.2148"><ele>577.0</ele><time>2026-04-30T13:42:14.089Z</time></trkpt><trkpt lat="45.42448" lon="14.2149983"><ele>577.0</ele><time>2026-04-30T13:42:15.096Z</time></trkpt><trkpt lat="45.4244517" lon="14.2151867"><ele>577.0</ele><time>2026-04-30T13:42:16.034Z</time></trkpt><trkpt lat="45.42444" lon="14.2153783"><ele>577.0</ele><time>2026-04-30T13:42:17.109Z</time></trkpt><trkpt lat="45.4244417" lon="14.2155817"><ele>577.0</ele><time>2026-04-30T13:42:18.049Z</time></trkpt><trkpt lat="45.4244517" lon="14.2157967"><ele>579.6666666666667</ele><time>2026-04-30T13:42:19.122Z</time></trkpt><trkpt lat="45.42447" lon="14.2160133"><ele>582.3333333333334</ele><time>2026-04-30T13:42:20.061Z</time></trkpt><trkpt lat="45.424495" lon="14.21623"><ele>585.0</ele><time>2026-04-30T13:42:21.067Z</time></trkpt><trkpt lat="45.42452" lon="14.2164467"><ele>590.0</ele><time>2026-04-30T13:42:22.074Z</time></trkpt><trkpt lat="45.4245383" lon="14.216665"><ele>595.0</ele><time>2026-04-30T13:42:23.082Z</time></trkpt><trkpt lat="45.42456" lon="14.2168883"><ele>600.0</ele><time>2026-04-30T13:42:24.154Z</time></trkpt><trkpt lat="45.4245817" lon="14.2171167"><ele>599.0</ele><time>2026-04-30T13:42:25.095Z</time></trkpt><trkpt lat="45.424605" lon="14.217355"><ele>598.0</ele><time>2026-04-30T13:42:26.034Z</time></trkpt><trkpt lat="45.4246283" lon="14.2175983"><ele>597.0</ele><time>2026-04-30T13:42:27.108Z</time></trkpt><trkpt lat="45.4246517" lon="14.2178483"><ele>595.6666666666666</ele><time>2026-04-30T13:42:28.047Z</time></trkpt><trkpt lat="45.4246767" lon="14.2180867"><ele>594.3333333333333</ele><time>2026-04-30T13:42:29.121Z</time></trkpt><trkpt lat="45.4247117" lon="14.2183083"><ele>593.0</ele><time>2026-04-30T13:42:30.061Z</time></trkpt><trkpt lat="45.4247617" lon="14.2185117"><ele>592.75</ele><time>2026-04-30T13:42:31.068Z</time></trkpt><trkpt lat="45.4248117" lon="14.2187"><ele>592.5</ele><time>2026-04-30T13:42:32.073Z</time></trkpt><trkpt lat="45.4248517" lon="14.218885"><ele>592.25</ele><time>2026-04-30T13:42:33.08Z</time></trkpt><trkpt lat="45.424875" lon="14.2190717"><ele>592.0</ele><time>2026-04-30T13:42:34.154Z</time></trkpt><trkpt lat="45.42488" lon="14.21926"><ele>591.0</ele><time>2026-04-30T13:42:35.093Z</time></trkpt><trkpt lat="45.424875" lon="14.2194467"><ele>590.0</ele><time>2026-04-30T13:42:36.034Z</time></trkpt><trkpt lat="45.4248683" lon="14.21963"><ele>589.0</ele><time>2026-04-30T13:42:37.106Z</time></trkpt><trkpt lat="45.4248567" lon="14.2198083"><ele>588.0</ele><time>2026-04-30T13:42:38.046Z</time></trkpt><trkpt lat="45.424855" lon="14.219985"><ele>588.0</ele><time>2026-04-30T13:42:39.12Z</time></trkpt><trkpt lat="45.424875" lon="14.2201633"><ele>588.0</ele><time>2026-04-30T13:42:40.059Z</time></trkpt><trkpt lat="45.42491" lon="14.2203383"><ele>588.0</ele><time>2026-04-30T13:42:41.067Z</time></trkpt><trkpt lat="45.4249567" lon="14.2205167"><ele>588.0</ele><time>2026-04-30T13:42:42.14Z</time></trkpt><trkpt lat="45.4250017" lon="14.2207017"><ele>588.75</ele><time>2026-04-30T13:42:43.08Z</time></trkpt><trkpt lat="45.4250333" lon="14.2208933"><ele>589.5</ele><time>2026-04-30T13:42:44.153Z</time></trkpt><trkpt lat="45.4250467" lon="14.2210867"><ele>590.25</ele><time>2026-04-30T13:42:45.092Z</time></trkpt><trkpt lat="45.425045" lon="14.2212767"><ele>591.0</ele><time>2026-04-30T13:42:46.032Z</time></trkpt><trkpt lat="45.42502" lon="14.2214567"><ele>592.0</ele><time>2026-04-30T13:42:47.107Z</time></trkpt><trkpt lat="45.4249783" lon="14.221625"><ele>593.0</ele><time>2026-04-30T13:42:48.045Z</time></trkpt><trkpt lat="45.4249283" lon="14.221785"><ele>594.0</ele><time>2026-04-30T13:42:49.119Z</time></trkpt><trkpt lat="45.424875" lon="14.2219333"><ele>595.0</ele><time>2026-04-30T13:42:50.127Z</time></trkpt><trkpt lat="45.42483" lon="14.2220767"><ele>595.0</ele><time>2026-04-30T13:42:51.065Z</time></trkpt><trkpt lat="45.4247817" lon="14.222225"><ele>595.0</ele><time>2026-04-30T13:42:52.139Z</time></trkpt><trkpt lat="45.424735" lon="14.2223917"><ele>595.0</ele><time>2026-04-30T13:42:53.078Z</time></trkpt><trkpt lat="45.42468" lon="14.2225667"><ele>595.0</ele><time>2026-04-30T13:42:54.152Z</time></trkpt><trkpt lat="45.42462" lon="14.2227483"><ele>594.0</ele><time>2026-04-30T13:42:55.093Z</time></trkpt><trkpt lat="45.4245567" lon="14.2229317"><ele>593.0</ele><time>2026-04-30T13:42:56.031Z</time></trkpt><trkpt lat="45.4244917" lon="14.2231033"><ele>592.0</ele><time>2026-04-30T13:42:57.105Z</time></trkpt><trkpt lat="45.424425" lon="14.2232567"><ele>591.0</ele><time>2026-04-30T13:42:58.113Z</time></trkpt><trkpt lat="45.42436" lon="14.223395"><ele>591.0</ele><time>2026-04-30T13:42:59.119Z</time></trkpt><trkpt lat="45.4242917" lon="14.223525"><ele>591.0</ele><time>2026-04-30T13:43:00.125Z</time></trkpt><trkpt lat="45.4242167" lon="14.223655"><ele>591.0</ele><time>2026-04-30T13:43:01.064Z</time></trkpt><trkpt lat="45.4241417" lon="14.2237967"><ele>591.0</ele><time>2026-04-30T13:43:02.138Z</time></trkpt><trkpt lat="45.4240617" lon="14.2239433"><ele>590.5</ele><time>2026-04-30T13:43:03.078Z</time></trkpt><trkpt lat="45.42398" lon="14.224095"><ele>590.0</ele><time>2026-04-30T13:43:04.151Z</time></trkpt><trkpt lat="45.4238933" lon="14.2242317"><ele>589.5</ele><time>2026-04-30T13:43:05.092Z</time></trkpt><trkpt lat="45.4238" lon="14.22436"><ele>589.0</ele><time>2026-04-30T13:43:06.098Z</time></trkpt><trkpt lat="45.42369" lon="14.22447"><ele>589.0</ele><time>2026-04-30T13:43:07.104Z</time></trkpt><trkpt lat="45.4235667" lon="14.224555"><ele>589.0</ele><time>2026-04-30T13:43:08.112Z</time></trkpt><trkpt lat="45.4234333" lon="14.2246083"><ele>589.0</ele><time>2026-04-30T13:43:09.117Z</time></trkpt><trkpt lat="45.4233017" lon="14.2246333"><ele>589.0</ele><time>2026-04-30T13:43:10.125Z</time></trkpt><trkpt lat="45.42318" lon="14.224665"><ele>589.0</ele><time>2026-04-30T13:43:11.065Z</time></trkpt><trkpt lat="45.4230617" lon="14.224715"><ele>589.0</ele><time>2026-04-30T13:43:12.137Z</time></trkpt><trkpt lat="45.4229383" lon="14.224795"><ele>589.0</ele><time>2026-04-30T13:43:13.078Z</time></trkpt><trkpt lat="45.4228133" lon="14.2248917"><ele>589.0</ele><time>2026-04-30T13:43:14.151Z</time></trkpt><trkpt lat="45.4226833" lon="14.2249933"><ele>588.0</ele><time>2026-04-30T13:43:15.091Z</time></trkpt><trkpt lat="45.42254" lon="14.225095"><ele>587.0</ele><time>2026-04-30T13:43:16.097Z</time></trkpt><trkpt lat="45.4223883" lon="14.2251933"><ele>586.0</ele><time>2026-04-30T13:43:17.104Z</time></trkpt><trkpt lat="45.4222367" lon="14.22529"><ele>585.3333333333334</ele><time>2026-04-30T13:43:18.111Z</time></trkpt><trkpt lat="45.42208" lon="14.225385"><ele>584.6666666666666</ele><time>2026-04-30T13:43:19.118Z</time></trkpt><trkpt lat="45.42192" lon="14.225475"><ele>584.0</ele><time>2026-04-30T13:43:20.124Z</time></trkpt><trkpt lat="45.4217683" lon="14.2255483"><ele>584.0</ele><time>2026-04-30T13:43:21.063Z</time></trkpt><trkpt lat="45.4216233" lon="14.2256017"><ele>584.0</ele><time>2026-04-30T13:43:22.137Z</time></trkpt><trkpt lat="45.4214867" lon="14.2256217"><ele>584.0</ele><time>2026-04-30T13:43:23.076Z</time></trkpt><trkpt lat="45.4213517" lon="14.2256217"><ele>584.0</ele><time>2026-04-30T13:43:24.15Z</time></trkpt><trkpt lat="45.4212167" lon="14.2256083"><ele>584.75</ele><time>2026-04-30T13:43:25.089Z</time></trkpt><trkpt lat="45.421085" lon="14.225605"><ele>585.5</ele><time>2026-04-30T13:43:26.096Z</time></trkpt><trkpt lat="45.4209617" lon="14.22562"><ele>586.25</ele><time>2026-04-30T13:43:27.103Z</time></trkpt><trkpt lat="45.420845" lon="14.225655"><ele>587.0</ele><time>2026-04-30T13:43:28.11Z</time></trkpt><trkpt lat="45.42073" lon="14.2257183"><ele>587.75</ele><time>2026-04-30T13:43:29.117Z</time></trkpt><trkpt lat="45.4206167" lon="14.2258167"><ele>588.5</ele><time>2026-04-30T13:43:30.122Z</time></trkpt><trkpt lat="45.4205" lon="14.2259467"><ele>589.25</ele><time>2026-04-30T13:43:31.062Z</time></trkpt><trkpt lat="45.4203817" lon="14.2260933"><ele>590.0</ele><time>2026-04-30T13:43:32.137Z</time></trkpt><trkpt lat="45.4202617" lon="14.2262383"><ele>590.0</ele><time>2026-04-30T13:43:33.076Z</time></trkpt><trkpt lat="45.4201333" lon="14.2263683"><ele>590.0</ele><time>2026-04-30T13:43:34.15Z</time></trkpt><trkpt lat="45.419995" lon="14.2264783"><ele>590.0</ele><time>2026-04-30T13:43:35.09Z</time></trkpt><trkpt lat="45.4198533" lon="14.2265517"><ele>589.75</ele><time>2026-04-30T13:43:36.096Z</time></trkpt><trkpt lat="45.4197217" lon="14.22658"><ele>589.5</ele><time>2026-04-30T13:43:37.102Z</time></trkpt><trkpt lat="45.41959" lon="14.2266017"><ele>589.25</ele><time>2026-04-30T13:43:38.108Z</time></trkpt><trkpt lat="45.4194617" lon="14.2266383"><ele>589.0</ele><time>2026-04-30T13:43:39.049Z</time></trkpt><trkpt lat="45.4193367" lon="14.2267133"><ele>589.0</ele><time>2026-04-30T13:43:40.123Z</time></trkpt><trkpt lat="45.41922" lon="14.2268183"><ele>589.0</ele><time>2026-04-30T13:43:41.061Z</time></trkpt><trkpt lat="45.4191117" lon="14.2269383"><ele>589.0</ele><time>2026-04-30T13:43:42.136Z</time></trkpt><trkpt lat="45.4190217" lon="14.22708"><ele>589.0</ele><time>2026-04-30T13:43:43.075Z</time></trkpt><trkpt lat="45.4189517" lon="14.22725"><ele>589.6666666666667</ele><time>2026-04-30T13:43:44.081Z</time></trkpt><trkpt lat="45.4188983" lon="14.227445"><ele>590.3333333333334</ele><time>2026-04-30T13:43:45.089Z</time></trkpt><trkpt lat="45.41885" lon="14.227655"><ele>591.0</ele><time>2026-04-30T13:43:46.095Z</time></trkpt><trkpt lat="45.4187967" lon="14.2278783"><ele>591.0</ele><time>2026-04-30T13:43:47.101Z</time></trkpt><trkpt lat="45.4187267" lon="14.228095"><ele>591.0</ele><time>2026-04-30T13:43:48.109Z</time></trkpt><trkpt lat="45.418645" lon="14.228305"><ele>591.0</ele><time>2026-04-30T13:43:49.047Z</time></trkpt><trkpt lat="45.4185633" lon="14.228515"><ele>589.3333333333334</ele><time>2026-04-30T13:43:50.122Z</time></trkpt><trkpt lat="45.4184917" lon="14.2287267"><ele>587.6666666666667</ele><time>2026-04-30T13:43:51.061Z</time></trkpt><trkpt lat="45.4184367" lon="14.2289483"><ele>586.0</ele><time>2026-04-30T13:43:52.134Z</time></trkpt><trkpt lat="45.4184017" lon="14.229185"><ele>585.6666666666667</ele><time>2026-04-30T13:43:53.075Z</time></trkpt><trkpt lat="45.4183867" lon="14.2294333"><ele>585.3333333333334</ele><time>2026-04-30T13:43:54.08Z</time></trkpt><trkpt lat="45.418385" lon="14.229685"><ele>585.0</ele><time>2026-04-30T13:43:55.088Z</time></trkpt><trkpt lat="45.4183917" lon="14.2299383"><ele>585.0</ele><time>2026-04-30T13:43:56.094Z</time></trkpt><trkpt lat="45.4184083" lon="14.2301917"><ele>585.0</ele><time>2026-04-30T13:43:57.101Z</time></trkpt><trkpt lat="45.4184267" lon="14.2304333"><ele>585.0</ele><time>2026-04-30T13:43:58.108Z</time></trkpt><trkpt lat="45.418445" lon="14.2306567"><ele>585.75</ele><time>2026-04-30T13:43:59.046Z</time></trkpt><trkpt lat="45.4184567" lon="14.2308567"><ele>586.5</ele><time>2026-04-30T13:44:00.121Z</time></trkpt><trkpt lat="45.41847" lon="14.231045"><ele>587.25</ele><time>2026-04-30T13:44:01.061Z</time></trkpt><trkpt lat="45.4184617" lon="14.23123"><ele>588.0</ele><time>2026-04-30T13:44:02.133Z</time></trkpt><trkpt lat="45.4184317" lon="14.2314183"><ele>587.6666666666666</ele><time>2026-04-30T13:44:03.074Z</time></trkpt><trkpt lat="45.4183783" lon="14.23161"><ele>587.3333333333333</ele><time>2026-04-30T13:44:04.081Z</time></trkpt><trkpt lat="45.4183067" lon="14.2318067"><ele>587.0</ele><time>2026-04-30T13:44:05.087Z</time></trkpt><trkpt lat="45.4182283" lon="14.2320033"><ele>587.0</ele><time>2026-04-30T13:44:06.093Z</time></trkpt><trkpt lat="45.41814" lon="14.2322033"><ele>587.0</ele><time>2026-04-30T13:44:07.1Z</time></trkpt><trkpt lat="45.4180533" lon="14.232395"><ele>587.0</ele><time>2026-04-30T13:44:08.106Z</time></trkpt><trkpt lat="45.4179783" lon="14.2325867"><ele>586.3333333333333</ele><time>2026-04-30T13:44:09.047Z</time></trkpt><trkpt lat="45.417905" lon="14.23278"><ele>585.6666666666666</ele><time>2026-04-30T13:44:10.119Z</time></trkpt><trkpt lat="45.4178433" lon="14.232985"><ele>585.0</ele><time>2026-04-30T13:44:11.059Z</time></trkpt><trkpt lat="45.4177783" lon="14.2331933"><ele>584.3333333333334</ele><time>2026-04-30T13:44:12.133Z</time></trkpt><trkpt lat="45.4177167" lon="14.23341"><ele>583.6666666666667</ele><time>2026-04-30T13:44:13.072Z</time></trkpt><trkpt lat="45.4176517" lon="14.2336317"><ele>583.0</ele><time>2026-04-30T13:44:14.079Z</time></trkpt><trkpt lat="45.4175867" lon="14.233855"><ele>583.0</ele><time>2026-04-30T13:44:15.086Z</time></trkpt><trkpt lat="45.4175217" lon="14.2340833"><ele>583.0</ele><time>2026-04-30T13:44:16.093Z</time></trkpt><trkpt lat="45.4174533" lon="14.234315"><ele>583.0</ele><time>2026-04-30T13:44:17.1Z</time></trkpt><trkpt lat="45.4173833" lon="14.234535"><ele>583.0</ele><time>2026-04-30T13:44:18.106Z</time></trkpt><trkpt lat="45.4173167" lon="14.2347517"><ele>583.0</ele><time>2026-04-30T13:44:19.046Z</time></trkpt><trkpt lat="45.417245" lon="14.234955"><ele>583.0</ele><time>2026-04-30T13:44:20.12Z</time></trkpt><trkpt lat="45.4171617" lon="14.2351417"><ele>581.3333333333334</ele><time>2026-04-30T13:44:21.058Z</time></trkpt><trkpt lat="45.4170583" lon="14.235315"><ele>579.6666666666666</ele><time>2026-04-30T13:44:22.132Z</time></trkpt><trkpt lat="45.4169433" lon="14.2354833"><ele>578.0</ele><time>2026-04-30T13:44:23.072Z</time></trkpt><trkpt lat="45.4168183" lon="14.2356417"><ele>578.0</ele><time>2026-04-30T13:44:24.078Z</time></trkpt><trkpt lat="45.4166967" lon="14.2357983"><ele>578.0</ele><time>2026-04-30T13:44:25.085Z</time></trkpt><trkpt lat="45.4165767" lon="14.2359517"><ele>578.0</ele><time>2026-04-30T13:44:26.092Z</time></trkpt><trkpt lat="45.4164583" lon="14.236095"><ele>578.0</ele><time>2026-04-30T13:44:27.098Z</time></trkpt><trkpt lat="45.4163467" lon="14.236225"><ele>578.0</ele><time>2026-04-30T13:44:28.105Z</time></trkpt><trkpt lat="45.4162433" lon="14.2363433"><ele>578.0</ele><time>2026-04-30T13:44:29.044Z</time></trkpt><trkpt lat="45.4161517" lon="14.23647"><ele>578.0</ele><time>2026-04-30T13:44:30.118Z</time></trkpt><trkpt lat="45.4160717" lon="14.2366133"><ele>576.5</ele><time>2026-04-30T13:44:31.058Z</time></trkpt><trkpt lat="45.4160017" lon="14.2367733"><ele>575.0</ele><time>2026-04-30T13:44:32.131Z</time></trkpt><trkpt lat="45.4159433" lon="14.23695"><ele>573.5</ele><time>2026-04-30T13:44:33.072Z</time></trkpt><trkpt lat="45.4159083" lon="14.2371333"><ele>572.0</ele><time>2026-04-30T13:44:34.078Z</time></trkpt><trkpt lat="45.4158983" lon="14.23732"><ele>571.75</ele><time>2026-04-30T13:44:35.084Z</time></trkpt><trkpt lat="45.415915" lon="14.2375117"><ele>571.5</ele><time>2026-04-30T13:44:36.091Z</time></trkpt><trkpt lat="45.4159533" lon="14.2377083"><ele>571.25</ele><time>2026-04-30T13:44:37.097Z</time></trkpt><trkpt lat="45.4160017" lon="14.2379217"><ele>571.0</ele><time>2026-04-30T13:44:38.104Z</time></trkpt><trkpt lat="45.4160383" lon="14.2381467"><ele>570.6666666666667</ele><time>2026-04-30T13:44:39.043Z</time></trkpt><trkpt lat="45.4160467" lon="14.23838"><ele>570.3333333333334</ele><time>2026-04-30T13:44:40.118Z</time></trkpt><trkpt lat="45.41603" lon="14.2386167"><ele>570.0</ele><time>2026-04-30T13:44:41.058Z</time></trkpt><trkpt lat="45.4160067" lon="14.2388533"><ele>570.6666666666666</ele><time>2026-04-30T13:44:42.13Z</time></trkpt><trkpt lat="45.4159817" lon="14.2390867"><ele>571.3333333333333</ele><time>2026-04-30T13:44:43.07Z</time></trkpt><trkpt lat="45.4159533" lon="14.23932"><ele>572.0</ele><time>2026-04-30T13:44:44.076Z</time></trkpt><trkpt lat="45.4159267" lon="14.239555"><ele>572.0</ele><time>2026-04-30T13:44:45.083Z</time></trkpt><trkpt lat="45.4158983" lon="14.2397917"><ele>572.0</ele><time>2026-04-30T13:44:46.091Z</time></trkpt><trkpt lat="45.415875" lon="14.24003"><ele>572.0</ele><time>2026-04-30T13:44:47.164Z</time></trkpt><trkpt lat="45.4158467" lon="14.2402683"><ele>572.3333333333333</ele><time>2026-04-30T13:44:48.104Z</time></trkpt><trkpt lat="45.4158067" lon="14.2405017"><ele>572.6666666666666</ele><time>2026-04-30T13:44:49.043Z</time></trkpt><trkpt lat="45.4157617" lon="14.2407367"><ele>573.0</ele><time>2026-04-30T13:44:50.116Z</time></trkpt><trkpt lat="45.4157183" lon="14.2409733"><ele>575.3333333333334</ele><time>2026-04-30T13:44:51.056Z</time></trkpt><trkpt lat="45.415675" lon="14.2412117"><ele>577.6666666666667</ele><time>2026-04-30T13:44:52.13Z</time></trkpt><trkpt lat="45.4156333" lon="14.2414533"><ele>580.0</ele><time>2026-04-30T13:44:53.07Z</time></trkpt><trkpt lat="45.41559" lon="14.2416983"><ele>581.6666666666667</ele><time>2026-04-30T13:44:54.076Z</time></trkpt><trkpt lat="45.415545" lon="14.241945"><ele>583.3333333333334</ele><time>2026-04-30T13:44:55.149Z</time></trkpt><trkpt lat="45.4154967" lon="14.2421933"><ele>585.0</ele><time>2026-04-30T13:44:56.089Z</time></trkpt><trkpt lat="45.41544" lon="14.2424333"><ele>577.3333333333334</ele><time>2026-04-30T13:44:57.164Z</time></trkpt><trkpt lat="45.4153783" lon="14.2426583"><ele>569.6666666666667</ele><time>2026-04-30T13:44:58.103Z</time></trkpt><trkpt lat="45.4153183" lon="14.2428717"><ele>562.0</ele><time>2026-04-30T13:44:59.043Z</time></trkpt><trkpt lat="45.4152567" lon="14.243075"><ele>565.3333333333334</ele><time>2026-04-30T13:45:00.116Z</time></trkpt><trkpt lat="45.41519" lon="14.2432667"><ele>568.6666666666666</ele><time>2026-04-30T13:45:01.055Z</time></trkpt><trkpt lat="45.4151033" lon="14.2434417"><ele>572.0</ele><time>2026-04-30T13:45:02.129Z</time></trkpt><trkpt lat="45.4149933" lon="14.243605"><ele>572.0</ele><time>2026-04-30T13:45:03.068Z</time></trkpt><trkpt lat="45.4148767" lon="14.2437667"><ele>572.0</ele><time>2026-04-30T13:45:04.076Z</time></trkpt><trkpt lat="45.4147583" lon="14.24393"><ele>572.0</ele><time>2026-04-30T13:45:05.149Z</time></trkpt><trkpt lat="45.4146433" lon="14.244105"><ele>569.0</ele><time>2026-04-30T13:45:06.088Z</time></trkpt><trkpt lat="45.414535" lon="14.244295"><ele>566.0</ele><time>2026-04-30T13:45:07.162Z</time></trkpt><trkpt lat="45.4144317" lon="14.2444967"><ele>563.0</ele><time>2026-04-30T13:45:08.102Z</time></trkpt><trkpt lat="45.4143267" lon="14.2446933"><ele>567.0</ele><time>2026-04-30T13:45:09.041Z</time></trkpt><trkpt lat="45.4142167" lon="14.244875"><ele>571.0</ele><time>2026-04-30T13:45:10.115Z</time></trkpt><trkpt lat="45.4141117" lon="14.245045"><ele>575.0</ele><time>2026-04-30T13:45:11.055Z</time></trkpt><trkpt lat="45.4140167" lon="14.24521"><ele>575.0</ele><time>2026-04-30T13:45:12.062Z</time></trkpt><trkpt lat="45.4139367" lon="14.2453817"><ele>575.0</ele><time>2026-04-30T13:45:13.135Z</time></trkpt><trkpt lat="45.4138667" lon="14.245565"><ele>575.0</ele><time>2026-04-30T13:45:14.074Z</time></trkpt><trkpt lat="45.4137883" lon="14.24575"><ele>575.0</ele><time>2026-04-30T13:45:15.149Z</time></trkpt><trkpt lat="45.4136983" lon="14.2459317"><ele>572.6666666666666</ele><time>2026-04-30T13:45:16.087Z</time></trkpt><trkpt lat="45.413595" lon="14.246105"><ele>570.3333333333334</ele><time>2026-04-30T13:45:17.028Z</time></trkpt><trkpt lat="45.4134767" lon="14.246265"><ele>568.0</ele><time>2026-04-30T13:45:18.101Z</time></trkpt><trkpt lat="45.4133483" lon="14.2464217"><ele>565.6666666666667</ele><time>2026-04-30T13:45:19.04Z</time></trkpt><trkpt lat="45.4132183" lon="14.2465783"><ele>563.3333333333334</ele><time>2026-04-30T13:45:20.115Z</time></trkpt><trkpt lat="45.41309" lon="14.2467333"><ele>561.0</ele><time>2026-04-30T13:45:21.122Z</time></trkpt><trkpt lat="45.4129517" lon="14.2468867"><ele>561.0</ele><time>2026-04-30T13:45:22.061Z</time></trkpt><trkpt lat="45.412815" lon="14.2470433"><ele>561.0</ele><time>2026-04-30T13:45:23.134Z</time></trkpt><trkpt lat="45.4126817" lon="14.2471983"><ele>561.0</ele><time>2026-04-30T13:45:24.073Z</time></trkpt><trkpt lat="45.4125533" lon="14.2473417"><ele>564.3333333333334</ele><time>2026-04-30T13:45:25.148Z</time></trkpt><trkpt lat="45.4124317" lon="14.2474783"><ele>567.6666666666667</ele><time>2026-04-30T13:45:26.088Z</time></trkpt><trkpt lat="45.4123133" lon="14.2476117"><ele>571.0</ele><time>2026-04-30T13:45:27.027Z</time></trkpt><trkpt lat="45.412195" lon="14.247745"><ele>568.6666666666667</ele><time>2026-04-30T13:45:28.101Z</time></trkpt><trkpt lat="45.412075" lon="14.2478817"><ele>566.3333333333334</ele><time>2026-04-30T13:45:29.107Z</time></trkpt><trkpt lat="45.4119567" lon="14.2480217"><ele>564.0</ele><time>2026-04-30T13:45:30.114Z</time></trkpt><trkpt lat="45.4118483" lon="14.2481733"><ele>564.0</ele><time>2026-04-30T13:45:31.121Z</time></trkpt><trkpt lat="45.4117517" lon="14.2483333"><ele>564.0</ele><time>2026-04-30T13:45:32.06Z</time></trkpt><trkpt lat="45.4116783" lon="14.2485083"><ele>564.0</ele><time>2026-04-30T13:45:33.134Z</time></trkpt><trkpt lat="45.411625" lon="14.2487"><ele>564.0</ele><time>2026-04-30T13:45:34.073Z</time></trkpt><trkpt lat="45.4115933" lon="14.2489067"><ele>563.0</ele><time>2026-04-30T13:45:35.146Z</time></trkpt><trkpt lat="45.4115717" lon="14.2491283"><ele>562.0</ele><time>2026-04-30T13:45:36.086Z</time></trkpt><trkpt lat="45.411545" lon="14.2493533"><ele>561.0</ele><time>2026-04-30T13:45:37.092Z</time></trkpt><trkpt lat="45.4115083" lon="14.2495667"><ele>561.0</ele><time>2026-04-30T13:45:38.099Z</time></trkpt><trkpt lat="45.41145" lon="14.2497633"><ele>561.0</ele><time>2026-04-30T13:45:39.106Z</time></trkpt><trkpt lat="45.411365" lon="14.2499383"><ele>561.0</ele><time>2026-04-30T13:45:40.113Z</time></trkpt><trkpt lat="45.4112633" lon="14.25009"><ele>561.0</ele><time>2026-04-30T13:45:41.12Z</time></trkpt><trkpt lat="45.4111533" lon="14.250225"><ele>557.75</ele><time>2026-04-30T13:45:42.058Z</time></trkpt><trkpt lat="45.4110383" lon="14.2503333"><ele>554.5</ele><time>2026-04-30T13:45:43.132Z</time></trkpt><trkpt lat="45.410915" lon="14.2504117"><ele>551.25</ele><time>2026-04-30T13:45:44.073Z</time></trkpt><trkpt lat="45.4107833" lon="14.2504667"><ele>548.0</ele><time>2026-04-30T13:45:45.147Z</time></trkpt><trkpt lat="45.4106467" lon="14.250505"><ele>548.0</ele><time>2026-04-30T13:45:46.085Z</time></trkpt><trkpt lat="45.4105067" lon="14.2505417"><ele>548.0</ele><time>2026-04-30T13:45:47.093Z</time></trkpt><trkpt lat="45.4103717" lon="14.2505933"><ele>548.0</ele><time>2026-04-30T13:45:48.099Z</time></trkpt><trkpt lat="45.4102383" lon="14.2506733"><ele>548.0</ele><time>2026-04-30T13:45:49.106Z</time></trkpt><trkpt lat="45.4101183" lon="14.2507867"><ele>546.3333333333333</ele><time>2026-04-30T13:45:50.112Z</time></trkpt><trkpt lat="45.410025" lon="14.250945"><ele>544.6666666666666</ele><time>2026-04-30T13:45:51.118Z</time></trkpt><trkpt lat="45.4099567" lon="14.251145"><ele>543.0</ele><time>2026-04-30T13:45:52.059Z</time></trkpt><trkpt lat="45.4098167" lon="14.2515133"><ele>543.0</ele><time>2026-04-30T13:45:54.072Z</time></trkpt><trkpt lat="45.409735" lon="14.25167"><ele>543.0</ele><time>2026-04-30T13:45:55.145Z</time></trkpt><trkpt lat="45.409635" lon="14.251815"><ele>543.0</ele><time>2026-04-30T13:45:56.084Z</time></trkpt><trkpt lat="45.40952" lon="14.2519533"><ele>543.0</ele><time>2026-04-30T13:45:57.091Z</time></trkpt><trkpt lat="45.4093983" lon="14.2520917"><ele>544.0</ele><time>2026-04-30T13:45:58.099Z</time></trkpt><trkpt lat="45.4092817" lon="14.2522317"><ele>545.0</ele><time>2026-04-30T13:45:59.104Z</time></trkpt><trkpt lat="45.409175" lon="14.2523833"><ele>546.0</ele><time>2026-04-30T13:46:00.111Z</time></trkpt><trkpt lat="45.4090833" lon="14.252545"><ele>547.0</ele><time>2026-04-30T13:46:01.117Z</time></trkpt><trkpt lat="45.4090083" lon="14.2527183"><ele>547.0</ele><time>2026-04-30T13:46:02.057Z</time></trkpt><trkpt lat="45.408935" lon="14.25289"><ele>547.0</ele><time>2026-04-30T13:46:03.132Z</time></trkpt><trkpt lat="45.4088467" lon="14.2530333"><ele>547.0</ele><time>2026-04-30T13:46:04.07Z</time></trkpt><trkpt lat="45.4087417" lon="14.2531417"><ele>547.0</ele><time>2026-04-30T13:46:05.145Z</time></trkpt><trkpt lat="45.4086233" lon="14.253225"><ele>547.0</ele><time>2026-04-30T13:46:06.083Z</time></trkpt><trkpt lat="45.4085033" lon="14.2533017"><ele>547.0</ele><time>2026-04-30T13:46:07.091Z</time></trkpt><trkpt lat="45.4083933" lon="14.253395"><ele>547.0</ele><time>2026-04-30T13:46:08.097Z</time></trkpt><trkpt lat="45.4083" lon="14.2535283"><ele>547.0</ele><time>2026-04-30T13:46:09.103Z</time></trkpt><trkpt lat="45.40822" lon="14.2536883"><ele>547.0</ele><time>2026-04-30T13:46:10.111Z</time></trkpt><trkpt lat="45.4081417" lon="14.2538483"><ele>547.0</ele><time>2026-04-30T13:46:11.117Z</time></trkpt><trkpt lat="45.40805" lon="14.2539917"><ele>547.0</ele><time>2026-04-30T13:46:12.057Z</time></trkpt><trkpt lat="45.4079383" lon="14.2541083"><ele>547.0</ele><time>2026-04-30T13:46:13.13Z</time></trkpt><trkpt lat="45.4078067" lon="14.2542067"><ele>544.6666666666667</ele><time>2026-04-30T13:46:14.069Z</time></trkpt><trkpt lat="45.40767" lon="14.2543017"><ele>542.3333333333334</ele><time>2026-04-30T13:46:15.143Z</time></trkpt><trkpt lat="45.4075367" lon="14.2544117"><ele>540.0</ele><time>2026-04-30T13:46:16.084Z</time></trkpt><trkpt lat="45.407405" lon="14.2545467"><ele>540.0</ele><time>2026-04-30T13:46:17.089Z</time></trkpt><trkpt lat="45.4072733" lon="14.2547033"><ele>540.0</ele><time>2026-04-30T13:46:18.096Z</time></trkpt><trkpt lat="45.4071383" lon="14.25487"><ele>540.0</ele><time>2026-04-30T13:46:19.103Z</time></trkpt><trkpt lat="45.407005" lon="14.2550367"><ele>536.0</ele><time>2026-04-30T13:46:20.11Z</time></trkpt><trkpt lat="45.4068767" lon="14.255195"><ele>532.0</ele><time>2026-04-30T13:46:21.116Z</time></trkpt><trkpt lat="45.4067633" lon="14.255345"><ele>528.0</ele><time>2026-04-30T13:46:22.056Z</time></trkpt><trkpt lat="45.40667" lon="14.2555033"><ele>525.25</ele><time>2026-04-30T13:46:23.13Z</time></trkpt><trkpt lat="45.4066017" lon="14.2556767"><ele>522.5</ele><time>2026-04-30T13:46:24.069Z</time></trkpt><trkpt lat="45.4065617" lon="14.2558683"><ele>519.75</ele><time>2026-04-30T13:46:25.142Z</time></trkpt><trkpt lat="45.4065567" lon="14.2560717"><ele>517.0</ele><time>2026-04-30T13:46:26.082Z</time></trkpt><trkpt lat="45.4065767" lon="14.25627"><ele>517.75</ele><time>2026-04-30T13:46:27.09Z</time></trkpt><trkpt lat="45.406635" lon="14.2564567"><ele>518.5</ele><time>2026-04-30T13:46:28.095Z</time></trkpt><trkpt lat="45.4067217" lon="14.2566183"><ele>519.25</ele><time>2026-04-30T13:46:29.103Z</time></trkpt><trkpt lat="45.40684" lon="14.2567567"><ele>520.0</ele><time>2026-04-30T13:46:30.109Z</time></trkpt><trkpt lat="45.4069683" lon="14.256885"><ele>520.0</ele><time>2026-04-30T13:46:31.116Z</time></trkpt><trkpt lat="45.407095" lon="14.2570167"><ele>520.0</ele><time>2026-04-30T13:46:32.056Z</time></trkpt><trkpt lat="45.4072033" lon="14.2571567"><ele>520.0</ele><time>2026-04-30T13:46:33.128Z</time></trkpt><trkpt lat="45.4072933" lon="14.25731"><ele>520.0</ele><time>2026-04-30T13:46:34.068Z</time></trkpt><trkpt lat="45.4073567" lon="14.2574767"><ele>515.25</ele><time>2026-04-30T13:46:35.142Z</time></trkpt><trkpt lat="45.4073917" lon="14.2576583"><ele>510.5</ele><time>2026-04-30T13:46:36.081Z</time></trkpt><trkpt lat="45.4073983" lon="14.2578583"><ele>505.75</ele><time>2026-04-30T13:46:37.088Z</time></trkpt><trkpt lat="45.4073967" lon="14.25807"><ele>501.0</ele><time>2026-04-30T13:46:38.095Z</time></trkpt><trkpt lat="45.407405" lon="14.258275"><ele>500.0</ele><time>2026-04-30T13:46:39.101Z</time></trkpt><trkpt lat="45.40743" lon="14.2584717"><ele>499.0</ele><time>2026-04-30T13:46:40.109Z</time></trkpt><trkpt lat="45.4074533" lon="14.258655"><ele>498.0</ele><time>2026-04-30T13:46:41.115Z</time></trkpt><trkpt lat="45.4074533" lon="14.258835"><ele>497.0</ele><time>2026-04-30T13:46:42.054Z</time></trkpt><trkpt lat="45.4074333" lon="14.2590233"><ele>493.0</ele><time>2026-04-30T13:46:43.128Z</time></trkpt><trkpt lat="45.4073817" lon="14.259215"><ele>489.0</ele><time>2026-04-30T13:46:44.067Z</time></trkpt><trkpt lat="45.4073067" lon="14.2594033"><ele>485.0</ele><time>2026-04-30T13:46:45.074Z</time></trkpt><trkpt lat="45.4072217" lon="14.2596"><ele>490.3333333333333</ele><time>2026-04-30T13:46:46.081Z</time></trkpt><trkpt lat="45.4071383" lon="14.2597967"><ele>495.66666666666663</ele><time>2026-04-30T13:46:47.087Z</time></trkpt><trkpt lat="45.4070567" lon="14.2599883"><ele>501.0</ele><time>2026-04-30T13:46:48.095Z</time></trkpt><trkpt lat="45.4069733" lon="14.2601783"><ele>501.0</ele><time>2026-04-30T13:46:49.1Z</time></trkpt><trkpt lat="45.40689" lon="14.2603733"><ele>501.0</ele><time>2026-04-30T13:46:50.04Z</time></trkpt><trkpt lat="45.4068" lon="14.260575"><ele>501.0</ele><time>2026-04-30T13:46:51.114Z</time></trkpt><trkpt lat="45.4067083" lon="14.2607817"><ele>496.66666666666663</ele><time>2026-04-30T13:46:52.053Z</time></trkpt><trkpt lat="45.4066233" lon="14.2609917"><ele>492.3333333333333</ele><time>2026-04-30T13:46:53.127Z</time></trkpt><trkpt lat="45.406545" lon="14.2612017"><ele>488.0</ele><time>2026-04-30T13:46:54.066Z</time></trkpt><trkpt lat="45.4064733" lon="14.261405"><ele>482.66666666666663</ele><time>2026-04-30T13:46:55.074Z</time></trkpt><trkpt lat="45.4064133" lon="14.2616083"><ele>477.33333333333337</ele><time>2026-04-30T13:46:56.08Z</time></trkpt><trkpt lat="45.4063717" lon="14.2618117"><ele>472.0</ele><time>2026-04-30T13:46:57.086Z</time></trkpt><trkpt lat="45.4063383" lon="14.262015"><ele>472.0</ele><time>2026-04-30T13:46:58.093Z</time></trkpt><trkpt lat="45.4063283" lon="14.2622233"><ele>472.0</ele><time>2026-04-30T13:46:59.1Z</time></trkpt><trkpt lat="45.4063383" lon="14.2624383"><ele>472.0</ele><time>2026-04-30T13:47:00.039Z</time></trkpt><trkpt lat="45.40637" lon="14.26266"><ele>468.33333333333337</ele><time>2026-04-30T13:47:01.113Z</time></trkpt><trkpt lat="45.4064017" lon="14.2628817"><ele>464.66666666666663</ele><time>2026-04-30T13:47:02.052Z</time></trkpt><trkpt lat="45.4064267" lon="14.2631017"><ele>461.0</ele><time>2026-04-30T13:47:03.127Z</time></trkpt><trkpt lat="45.4064433" lon="14.2633183"><ele>459.0</ele><time>2026-04-30T13:47:04.066Z</time></trkpt><trkpt lat="45.4064333" lon="14.26353"><ele>457.0</ele><time>2026-04-30T13:47:05.072Z</time></trkpt><trkpt lat="45.406405" lon="14.2637433"><ele>455.0</ele><time>2026-04-30T13:47:06.08Z</time></trkpt><trkpt lat="45.406355" lon="14.2639633"><ele>460.0</ele><time>2026-04-30T13:47:07.085Z</time></trkpt><trkpt lat="45.40629" lon="14.2641867"><ele>465.0</ele><time>2026-04-30T13:47:08.092Z</time></trkpt><trkpt lat="45.4062167" lon="14.2644183"><ele>470.0</ele><time>2026-04-30T13:47:09.1Z</time></trkpt><trkpt lat="45.406145" lon="14.2646533"><ele>466.66666666666663</ele><time>2026-04-30T13:47:10.038Z</time></trkpt><trkpt lat="45.4060783" lon="14.2648733"><ele>463.33333333333337</ele><time>2026-04-30T13:47:11.112Z</time></trkpt><trkpt lat="45.4060017" lon="14.2650767"><ele>460.0</ele><time>2026-04-30T13:47:12.051Z</time></trkpt><trkpt lat="45.405915" lon="14.265265"><ele>460.0</ele><time>2026-04-30T13:47:13.126Z</time></trkpt><trkpt lat="45.4058167" lon="14.2654467"><ele>460.0</ele><time>2026-04-30T13:47:14.065Z</time></trkpt><trkpt lat="45.4057083" lon="14.26562"><ele>460.0</ele><time>2026-04-30T13:47:15.071Z</time></trkpt><trkpt lat="45.4056033" lon="14.26579"><ele>463.6666666666667</ele><time>2026-04-30T13:47:16.078Z</time></trkpt><trkpt lat="45.4055117" lon="14.265975"><ele>467.33333333333337</ele><time>2026-04-30T13:47:17.085Z</time></trkpt><trkpt lat="45.40544" lon="14.2661833"><ele>471.0</ele><time>2026-04-30T13:47:18.159Z</time></trkpt><trkpt lat="45.4053817" lon="14.2664083"><ele>467.0</ele><time>2026-04-30T13:47:19.098Z</time></trkpt><trkpt lat="45.4053267" lon="14.2666433"><ele>463.0</ele><time>2026-04-30T13:47:20.038Z</time></trkpt><trkpt lat="45.4052683" lon="14.2668667"><ele>459.0</ele><time>2026-04-30T13:47:21.111Z</time></trkpt><trkpt lat="45.4051967" lon="14.2670633"><ele>459.0</ele><time>2026-04-30T13:47:22.051Z</time></trkpt><trkpt lat="45.4051083" lon="14.2672367"><ele>459.0</ele><time>2026-04-30T13:47:23.124Z</time></trkpt><trkpt lat="45.40501" lon="14.267405"><ele>459.0</ele><time>2026-04-30T13:47:24.064Z</time></trkpt><trkpt lat="45.40492" lon="14.267585"><ele>452.66666666666663</ele><time>2026-04-30T13:47:25.072Z</time></trkpt><trkpt lat="45.4048417" lon="14.2677817"><ele>446.3333333333333</ele><time>2026-04-30T13:47:26.144Z</time></trkpt><trkpt lat="45.404775" lon="14.2679867"><ele>440.0</ele><time>2026-04-30T13:47:27.084Z</time></trkpt><trkpt lat="45.404715" lon="14.26819"><ele>441.0</ele><time>2026-04-30T13:47:28.159Z</time></trkpt><trkpt lat="45.4046617" lon="14.26838"><ele>442.0</ele><time>2026-04-30T13:47:29.097Z</time></trkpt><trkpt lat="45.4046117" lon="14.2685517"><ele>443.0</ele><time>2026-04-30T13:47:30.038Z</time></trkpt><trkpt lat="45.4045717" lon="14.2687133"><ele>444.0</ele><time>2026-04-30T13:47:31.11Z</time></trkpt><trkpt lat="45.4045533" lon="14.2688733"><ele>440.6</ele><time>2026-04-30T13:47:32.051Z</time></trkpt><trkpt lat="45.40455" lon="14.26903"><ele>437.2</ele><time>2026-04-30T13:47:33.125Z</time></trkpt><trkpt lat="45.4045617" lon="14.2691767"><ele>433.80000000000007</ele><time>2026-04-30T13:47:34.063Z</time></trkpt><trkpt lat="45.4045783" lon="14.2693033"><ele>430.40000000000003</ele><time>2026-04-30T13:47:35.071Z</time></trkpt><trkpt lat="45.40459" lon="14.2694033"><ele>427.0</ele><time>2026-04-30T13:47:36.145Z</time></trkpt><trkpt lat="45.404605" lon="14.2695217"><ele>427.0</ele><time>2026-04-30T13:47:38.157Z</time></trkpt><trkpt lat="45.4046117" lon="14.2696467"><ele>427.00000000000006</ele><time>2026-04-30T13:54:22.086Z</time></trkpt><trkpt lat="45.4045783" lon="14.2697583"><ele>427.00000000000006</ele><time>2026-04-30T13:54:24.099Z</time></trkpt><trkpt lat="45.4045017" lon="14.2698867"><ele>427.0</ele><time>2026-04-30T13:54:26.112Z</time></trkpt><trkpt lat="45.404445" lon="14.26996"><ele>427.0</ele><time>2026-04-30T13:54:27.052Z</time></trkpt><trkpt lat="45.4043867" lon="14.2700417"><ele>426.33333333333337</ele><time>2026-04-30T13:54:28.126Z</time></trkpt><trkpt lat="45.4043217" lon="14.2701267"><ele>425.6666666666667</ele><time>2026-04-30T13:54:29.064Z</time></trkpt><trkpt lat="45.4042567" lon="14.2702067"><ele>425.0</ele><time>2026-04-30T13:54:30.072Z</time></trkpt><trkpt lat="45.4041917" lon="14.2702667"><ele>424.33333333333337</ele><time>2026-04-30T13:54:31.079Z</time></trkpt><trkpt lat="45.4041317" lon="14.2703083"><ele>423.6666666666667</ele><time>2026-04-30T13:54:32.085Z</time></trkpt><trkpt lat="45.4040183" lon="14.270335"><ele>423.0</ele><time>2026-04-30T13:54:34.099Z</time></trkpt><trkpt lat="45.4039017" lon="14.2703233"><ele>423.0</ele><time>2026-04-30T13:54:36.111Z</time></trkpt><trkpt lat="45.403835" lon="14.2703267"><ele>423.0</ele><time>2026-04-30T13:54:37.051Z</time></trkpt><trkpt lat="45.403715" lon="14.2703467"><ele>423.0</ele><time>2026-04-30T13:54:39.064Z</time></trkpt><trkpt lat="45.403615" lon="14.2703267"><ele>423.0</ele><time>2026-04-30T13:54:41.077Z</time></trkpt><trkpt lat="45.4035117" lon="14.2702567"><ele>423.0</ele><time>2026-04-30T13:54:43.158Z</time></trkpt><trkpt lat="45.4034033" lon="14.2701733"><ele>424.3333333333333</ele><time>2026-04-30T13:54:45.036Z</time></trkpt><trkpt lat="45.4033183" lon="14.2700333"><ele>425.66666666666663</ele><time>2026-04-30T13:54:47.05Z</time></trkpt><trkpt lat="45.4032867" lon="14.2699433"><ele>427.0</ele><time>2026-04-30T13:54:48.123Z</time></trkpt><trkpt lat="45.4032667" lon="14.2698433"><ele>428.3333333333333</ele><time>2026-04-30T13:54:49.063Z</time></trkpt><trkpt lat="45.40326" lon="14.2697317"><ele>429.66666666666663</ele><time>2026-04-30T13:54:50.069Z</time></trkpt><trkpt lat="45.40326" lon="14.2696133"><ele>431.0</ele><time>2026-04-30T13:54:51.144Z</time></trkpt><trkpt lat="45.40327" lon="14.269495"><ele>432.3333333333333</ele><time>2026-04-30T13:54:52.084Z</time></trkpt><trkpt lat="45.403295" lon="14.2693867"><ele>433.66666666666663</ele><time>2026-04-30T13:54:53.156Z</time></trkpt><trkpt lat="45.40332" lon="14.2692917"><ele>435.0</ele><time>2026-04-30T13:54:54.097Z</time></trkpt><trkpt lat="45.403315" lon="14.2691267"><ele>436.33333333333337</ele><time>2026-04-30T13:54:56.11Z</time></trkpt><trkpt lat="45.4032467" lon="14.269035"><ele>437.6666666666667</ele><time>2026-04-30T13:54:58.124Z</time></trkpt><trkpt lat="45.4031783" lon="14.2690517"><ele>439.0</ele><time>2026-04-30T13:54:59.13Z</time></trkpt><trkpt lat="45.403095" lon="14.269085"><ele>439.0</ele><time>2026-04-30T13:55:00.069Z</time></trkpt><trkpt lat="45.4030133" lon="14.2691117"><ele>439.0</ele><time>2026-04-30T13:55:01.142Z</time></trkpt><trkpt lat="45.402915" lon="14.2691317"><ele>439.0</ele><time>2026-04-30T13:55:02.083Z</time></trkpt><trkpt lat="45.4028117" lon="14.2691417"><ele>439.0</ele><time>2026-04-30T13:55:03.157Z</time></trkpt><trkpt lat="45.4027133" lon="14.269145"><ele>439.0</ele><time>2026-04-30T13:55:04.096Z</time></trkpt><trkpt lat="45.40261" lon="14.26915"><ele>441.2</ele><time>2026-04-30T13:55:05.035Z</time></trkpt><trkpt lat="45.4025183" lon="14.269155"><ele>443.4</ele><time>2026-04-30T13:55:06.108Z</time></trkpt><trkpt lat="45.4024517" lon="14.2691517"><ele>445.6</ele><time>2026-04-30T13:55:07.048Z</time></trkpt><trkpt lat="45.402355" lon="14.26911"><ele>447.8</ele><time>2026-04-30T13:55:09.129Z</time></trkpt><trkpt lat="45.40225" lon="14.2690067"><ele>450.0</ele><time>2026-04-30T13:55:11.143Z</time></trkpt><trkpt lat="45.4021817" lon="14.268955"><ele>453.5</ele><time>2026-04-30T13:55:12.081Z</time></trkpt><trkpt lat="45.40211" lon="14.26892"><ele>457.0</ele><time>2026-04-30T13:55:13.155Z</time></trkpt><trkpt lat="45.4020383" lon="14.2688833"><ele>460.5</ele><time>2026-04-30T13:55:14.095Z</time></trkpt><trkpt lat="45.4019767" lon="14.268825"><ele>464.0</ele><time>2026-04-30T13:55:15.035Z</time></trkpt><trkpt lat="45.401925" lon="14.2687483"><ele>467.5</ele><time>2026-04-30T13:55:16.109Z</time></trkpt><trkpt lat="45.401885" lon="14.2686617"><ele>471.0</ele><time>2026-04-30T13:55:17.114Z</time></trkpt><trkpt lat="45.40184" lon="14.2685717"><ele>471.0</ele><time>2026-04-30T13:55:18.122Z</time></trkpt><trkpt lat="45.4017867" lon="14.2684817"><ele>471.0</ele><time>2026-04-30T13:55:19.128Z</time></trkpt><trkpt lat="45.40172" lon="14.2683867"><ele>471.0</ele><time>2026-04-30T13:55:20.068Z</time></trkpt><trkpt lat="45.4016383" lon="14.2683133"><ele>471.0</ele><time>2026-04-30T13:55:21.141Z</time></trkpt><trkpt lat="45.4015717" lon="14.268235"><ele>471.0</ele><time>2026-04-30T13:55:22.08Z</time></trkpt><trkpt lat="45.401525" lon="14.2681517"><ele>471.0</ele><time>2026-04-30T13:55:23.154Z</time></trkpt><trkpt lat="45.4015" lon="14.268065"><ele>473.6</ele><time>2026-04-30T13:55:24.095Z</time></trkpt><trkpt lat="45.4014867" lon="14.267905"><ele>476.20000000000005</ele><time>2026-04-30T13:55:26.108Z</time></trkpt><trkpt lat="45.40151" lon="14.2678133"><ele>478.79999999999995</ele><time>2026-04-30T13:55:28.12Z</time></trkpt><trkpt lat="45.4016" lon="14.2677583"><ele>481.4</ele><time>2026-04-30T13:55:41.139Z</time></trkpt><trkpt lat="45.4017133" lon="14.2677483"><ele>484.0</ele><time>2026-04-30T13:55:43.086Z</time></trkpt><trkpt lat="45.4018167" lon="14.2676983"><ele>484.00000000000006</ele><time>2026-04-30T13:55:45.099Z</time></trkpt><trkpt lat="45.401835" lon="14.2676033"><ele>484.0</ele><time>2026-04-30T13:55:47.112Z</time></trkpt><trkpt lat="45.401755" lon="14.2675133"><ele>484.0</ele><time>2026-04-30T13:55:49.125Z</time></trkpt><trkpt lat="45.4016833" lon="14.267485"><ele>484.0</ele><time>2026-04-30T13:55:50.065Z</time></trkpt><trkpt lat="45.4016117" lon="14.2674633"><ele>484.00000000000006</ele><time>2026-04-30T13:55:51.139Z</time></trkpt><trkpt lat="45.40154" lon="14.2674567"><ele>484.0</ele><time>2026-04-30T13:55:52.078Z</time></trkpt><trkpt lat="45.4014733" lon="14.2674883"><ele>484.00000000000006</ele><time>2026-04-30T13:55:53.085Z</time></trkpt><trkpt lat="45.401405" lon="14.2675767"><ele>484.0</ele><time>2026-04-30T13:55:54.092Z</time></trkpt><trkpt lat="45.40134" lon="14.267675"><ele>484.0</ele><time>2026-04-30T13:55:55.099Z</time></trkpt><trkpt lat="45.4012717" lon="14.2677583"><ele>484.0</ele><time>2026-04-30T13:55:56.106Z</time></trkpt><trkpt lat="45.4012067" lon="14.2678133"><ele>484.00000000000006</ele><time>2026-04-30T13:55:57.111Z</time></trkpt><trkpt lat="45.401135" lon="14.2678467"><ele>484.0</ele><time>2026-04-30T13:55:58.051Z</time></trkpt><trkpt lat="45.401055" lon="14.2678533"><ele>484.6666666666667</ele><time>2026-04-30T13:55:59.125Z</time></trkpt><trkpt lat="45.400965" lon="14.2678483"><ele>485.33333333333337</ele><time>2026-04-30T13:56:00.064Z</time></trkpt><trkpt lat="45.4008767" lon="14.26786"><ele>486.0</ele><time>2026-04-30T13:56:01.138Z</time></trkpt><trkpt lat="45.4007967" lon="14.2678983"><ele>486.66666666666663</ele><time>2026-04-30T13:56:02.078Z</time></trkpt><trkpt lat="45.40072" lon="14.2679617"><ele>487.3333333333333</ele><time>2026-04-30T13:56:03.084Z</time></trkpt><trkpt lat="45.4006483" lon="14.268055"><ele>488.0</ele><time>2026-04-30T13:56:04.092Z</time></trkpt><trkpt lat="45.4005867" lon="14.268145"><ele>487.99999999999994</ele><time>2026-04-30T13:56:05.098Z</time></trkpt><trkpt lat="45.400525" lon="14.2682167"><ele>488.0</ele><time>2026-04-30T13:56:06.104Z</time></trkpt><trkpt lat="45.4004167" lon="14.2682533"><ele>488.0</ele><time>2026-04-30T13:56:08.051Z</time></trkpt><trkpt lat="45.4003467" lon="14.2682233"><ele>488.0</ele><time>2026-04-30T13:56:09.124Z</time></trkpt><trkpt lat="45.40028" lon="14.268195"><ele>487.99999999999994</ele><time>2026-04-30T13:56:10.063Z</time></trkpt><trkpt lat="45.4002" lon="14.2681733"><ele>488.0</ele><time>2026-04-30T13:56:11.138Z</time></trkpt><trkpt lat="45.4001183" lon="14.26819"><ele>491.79999999999995</ele><time>2026-04-30T13:56:12.077Z</time></trkpt><trkpt lat="45.4000433" lon="14.26824"><ele>495.59999999999997</ele><time>2026-04-30T13:56:13.083Z</time></trkpt><trkpt lat="45.399975" lon="14.2683"><ele>499.40000000000003</ele><time>2026-04-30T13:56:14.09Z</time></trkpt><trkpt lat="45.3999033" lon="14.268395"><ele>503.20000000000005</ele><time>2026-04-30T13:56:15.096Z</time></trkpt><trkpt lat="45.3998367" lon="14.2685233"><ele>507.0</ele><time>2026-04-30T13:56:16.103Z</time></trkpt><trkpt lat="45.3997883" lon="14.2686417"><ele>507.0</ele><time>2026-04-30T13:56:17.11Z</time></trkpt><trkpt lat="45.399735" lon="14.2687417"><ele>507.0</ele><time>2026-04-30T13:56:18.05Z</time></trkpt><trkpt lat="45.39967" lon="14.2688167"><ele>507.0</ele><time>2026-04-30T13:56:19.123Z</time></trkpt><trkpt lat="45.3996033" lon="14.268865"><ele>507.0</ele><time>2026-04-30T13:56:20.063Z</time></trkpt><trkpt lat="45.3995333" lon="14.2689167"><ele>507.0</ele><time>2026-04-30T13:56:21.137Z</time></trkpt><trkpt lat="45.399465" lon="14.2689833"><ele>507.0</ele><time>2026-04-30T13:56:22.076Z</time></trkpt><trkpt lat="45.3993967" lon="14.2690733"><ele>510.8</ele><time>2026-04-30T13:56:23.083Z</time></trkpt><trkpt lat="45.3993283" lon="14.269185"><ele>514.6</ele><time>2026-04-30T13:56:24.089Z</time></trkpt><trkpt lat="45.39926" lon="14.2693017"><ele>518.4000000000001</ele><time>2026-04-30T13:56:25.097Z</time></trkpt><trkpt lat="45.3991867" lon="14.26941"><ele>522.2</ele><time>2026-04-30T13:56:26.102Z</time></trkpt><trkpt lat="45.399115" lon="14.2695033"><ele>526.0</ele><time>2026-04-30T13:56:27.11Z</time></trkpt><trkpt lat="45.3990433" lon="14.26956"><ele>526.0</ele><time>2026-04-30T13:56:28.049Z</time></trkpt><trkpt lat="45.3989283" lon="14.269585"><ele>526.0</ele><time>2026-04-30T13:56:30.062Z</time></trkpt><trkpt lat="45.3988667" lon="14.2695317"><ele>526.0</ele><time>2026-04-30T13:56:31.135Z</time></trkpt><trkpt lat="45.398805" lon="14.2694517"><ele>526.0</ele><time>2026-04-30T13:56:32.076Z</time></trkpt><trkpt lat="45.39874" lon="14.2693617"><ele>526.0</ele><time>2026-04-30T13:56:33.083Z</time></trkpt><trkpt lat="45.3986783" lon="14.2692467"><ele>527.0</ele><time>2026-04-30T13:56:34.089Z</time></trkpt><trkpt lat="45.3986233" lon="14.2691033"><ele>528.0</ele><time>2026-04-30T13:56:35.096Z</time></trkpt><trkpt lat="45.3985683" lon="14.26897"><ele>529.0</ele><time>2026-04-30T13:56:36.102Z</time></trkpt><trkpt lat="45.3985133" lon="14.268855"><ele>530.0</ele><time>2026-04-30T13:56:37.109Z</time></trkpt><trkpt lat="45.398445" lon="14.268765"><ele>531.0</ele><time>2026-04-30T13:56:38.049Z</time></trkpt><trkpt lat="45.398365" lon="14.2687083"><ele>533.4</ele><time>2026-04-30T13:56:39.121Z</time></trkpt><trkpt lat="45.3982767" lon="14.2686567"><ele>535.8</ele><time>2026-04-30T13:56:40.061Z</time></trkpt><trkpt lat="45.398195" lon="14.26859"><ele>538.1999999999999</ele><time>2026-04-30T13:56:41.135Z</time></trkpt><trkpt lat="45.3981233" lon="14.2685067"><ele>540.6</ele><time>2026-04-30T13:56:42.075Z</time></trkpt><trkpt lat="45.3980667" lon="14.268405"><ele>543.0</ele><time>2026-04-30T13:56:43.082Z</time></trkpt><trkpt lat="45.3980183" lon="14.26829"><ele>543.0</ele><time>2026-04-30T13:56:44.087Z</time></trkpt><trkpt lat="45.3979567" lon="14.2681733"><ele>543.0</ele><time>2026-04-30T13:56:45.094Z</time></trkpt><trkpt lat="45.3978867" lon="14.2680467"><ele>543.0</ele><time>2026-04-30T13:56:46.102Z</time></trkpt><trkpt lat="45.3978083" lon="14.2679183"><ele>543.0</ele><time>2026-04-30T13:56:47.108Z</time></trkpt><trkpt lat="45.39772" lon="14.2677867"><ele>546.4</ele><time>2026-04-30T13:56:48.047Z</time></trkpt><trkpt lat="45.3976317" lon="14.2676517"><ele>549.8</ele><time>2026-04-30T13:56:49.122Z</time></trkpt><trkpt lat="45.3975533" lon="14.2675167"><ele>553.2</ele><time>2026-04-30T13:56:50.06Z</time></trkpt><trkpt lat="45.3974917" lon="14.2673983"><ele>556.6</ele><time>2026-04-30T13:56:51.134Z</time></trkpt><trkpt lat="45.3974483" lon="14.2672983"><ele>560.0</ele><time>2026-04-30T13:56:52.073Z</time></trkpt><trkpt lat="45.397425" lon="14.2672033"><ele>562.5</ele><time>2026-04-30T13:56:53.08Z</time></trkpt><trkpt lat="45.3974167" lon="14.2671083"><ele>565.0</ele><time>2026-04-30T13:56:54.088Z</time></trkpt><trkpt lat="45.3974283" lon="14.267"><ele>567.5</ele><time>2026-04-30T13:56:55.094Z</time></trkpt><trkpt lat="45.3974517" lon="14.266885"><ele>570.0</ele><time>2026-04-30T13:56:56.1Z</time></trkpt><trkpt lat="45.3974767" lon="14.26675"><ele>572.5</ele><time>2026-04-30T13:56:57.108Z</time></trkpt><trkpt lat="45.397505" lon="14.2666033"><ele>575.0</ele><time>2026-04-30T13:56:58.046Z</time></trkpt><trkpt lat="45.39754" lon="14.266445"><ele>577.0</ele><time>2026-04-30T13:56:59.12Z</time></trkpt><trkpt lat="45.3975783" lon="14.2662917"><ele>579.0</ele><time>2026-04-30T13:57:00.06Z</time></trkpt><trkpt lat="45.39762" lon="14.266155"><ele>581.0</ele><time>2026-04-30T13:57:01.134Z</time></trkpt><trkpt lat="45.39766" lon="14.2660317"><ele>583.0</ele><time>2026-04-30T13:57:02.073Z</time></trkpt><trkpt lat="45.3976817" lon="14.26591"><ele>585.0</ele><time>2026-04-30T13:57:03.08Z</time></trkpt><trkpt lat="45.397695" lon="14.2657817"><ele>585.0</ele><time>2026-04-30T13:57:04.087Z</time></trkpt><trkpt lat="45.3976967" lon="14.2656433"><ele>585.0</ele><time>2026-04-30T13:57:05.094Z</time></trkpt><trkpt lat="45.3976833" lon="14.2655"><ele>585.0</ele><time>2026-04-30T13:57:06.033Z</time></trkpt><trkpt lat="45.397665" lon="14.265345"><ele>585.0</ele><time>2026-04-30T13:57:07.107Z</time></trkpt><trkpt lat="45.3976583" lon="14.2651967"><ele>585.0</ele><time>2026-04-30T13:57:08.046Z</time></trkpt><trkpt lat="45.39766" lon="14.2650433"><ele>585.8</ele><time>2026-04-30T13:57:09.12Z</time></trkpt><trkpt lat="45.3976733" lon="14.2648933"><ele>586.6</ele><time>2026-04-30T13:57:10.06Z</time></trkpt><trkpt lat="45.3976933" lon="14.264755"><ele>587.4</ele><time>2026-04-30T13:57:11.066Z</time></trkpt><trkpt lat="45.3977083" lon="14.2646267"><ele>588.2</ele><time>2026-04-30T13:57:12.073Z</time></trkpt><trkpt lat="45.3977117" lon="14.2645017"><ele>589.0</ele><time>2026-04-30T13:57:13.079Z</time></trkpt><trkpt lat="45.3977117" lon="14.2643783"><ele>590.6666666666667</ele><time>2026-04-30T13:57:14.153Z</time></trkpt><trkpt lat="45.3977183" lon="14.2642633"><ele>592.3333333333334</ele><time>2026-04-30T13:57:15.093Z</time></trkpt><trkpt lat="45.3977317" lon="14.2641633"><ele>594.0</ele><time>2026-04-30T13:57:16.031Z</time></trkpt><trkpt lat="45.39778" lon="14.2640183"><ele>595.6666666666666</ele><time>2026-04-30T13:57:18.046Z</time></trkpt><trkpt lat="45.39786" lon="14.2639267"><ele>597.3333333333333</ele><time>2026-04-30T13:57:20.058Z</time></trkpt><trkpt lat="45.397925" lon="14.2639017"><ele>599.0</ele><time>2026-04-30T13:57:22.139Z</time></trkpt><trkpt lat="45.3979617" lon="14.2638283"><ele>599.0</ele><time>2026-04-30T13:57:53.075Z</time></trkpt><trkpt lat="45.397895" lon="14.263885"><ele>599.0</ele><time>2026-04-30T13:57:58.109Z</time></trkpt><trkpt lat="45.39781" lon="14.2639733"><ele>599.0</ele><time>2026-04-30T13:58:00.122Z</time></trkpt><trkpt lat="45.3977633" lon="14.264035"><ele>599.0</ele><time>2026-04-30T13:58:01.062Z</time></trkpt><trkpt lat="45.3977183" lon="14.26411"><ele>599.0</ele><time>2026-04-30T13:58:02.135Z</time></trkpt><trkpt lat="45.39768" lon="14.2642"><ele>599.0</ele><time>2026-04-30T13:58:03.076Z</time></trkpt><trkpt lat="45.3976467" lon="14.2642867"><ele>599.0</ele><time>2026-04-30T13:58:04.149Z</time></trkpt><trkpt lat="45.3976167" lon="14.26437"><ele>599.0</ele><time>2026-04-30T13:58:05.088Z</time></trkpt><trkpt lat="45.3975583" lon="14.26448"><ele>599.0</ele><time>2026-04-30T13:58:07.101Z</time></trkpt><trkpt lat="45.397405" lon="14.26452"><ele>599.0</ele><time>2026-04-30T13:58:10.122Z</time></trkpt><trkpt lat="45.3973383" lon="14.2645167"><ele>599.0</ele><time>2026-04-30T13:58:11.062Z</time></trkpt><trkpt lat="45.3972683" lon="14.2644983"><ele>599.0</ele><time>2026-04-30T13:58:12.135Z</time></trkpt><trkpt lat="45.3972033" lon="14.2644817"><ele>599.0</ele><time>2026-04-30T13:58:13.074Z</time></trkpt><trkpt lat="45.3971367" lon="14.264465"><ele>599.0</ele><time>2026-04-30T13:58:14.149Z</time></trkpt><trkpt lat="45.39707" lon="14.2644617"><ele>599.0</ele><time>2026-04-30T13:58:15.088Z</time></trkpt><trkpt lat="45.396995" lon="14.2644633"><ele>599.0</ele><time>2026-04-30T13:58:16.095Z</time></trkpt><trkpt lat="45.3969217" lon="14.2644533"><ele>599.0</ele><time>2026-04-30T13:58:17.1Z</time></trkpt><trkpt lat="45.396855" lon="14.2644267"><ele>599.0</ele><time>2026-04-30T13:58:18.107Z</time></trkpt><trkpt lat="45.39678" lon="14.2643267"><ele>600.8</ele><time>2026-04-30T13:58:20.121Z</time></trkpt><trkpt lat="45.39675" lon="14.264175"><ele>602.5999999999999</ele><time>2026-04-30T13:58:22.133Z</time></trkpt><trkpt lat="45.3966817" lon="14.2640167"><ele>604.4</ele><time>2026-04-30T13:58:24.148Z</time></trkpt><trkpt lat="45.396635" lon="14.2639517"><ele>606.1999999999999</ele><time>2026-04-30T13:58:25.086Z</time></trkpt><trkpt lat="45.3965483" lon="14.2638783"><ele>608.0</ele><time>2026-04-30T13:58:27.101Z</time></trkpt><trkpt lat="45.3964183" lon="14.2639317"><ele>608.0</ele><time>2026-04-30T13:58:29.113Z</time></trkpt><trkpt lat="45.39634" lon="14.2639683"><ele>608.0</ele><time>2026-04-30T13:58:30.12Z</time></trkpt><trkpt lat="45.39626" lon="14.263995"><ele>608.0</ele><time>2026-04-30T13:58:31.059Z</time></trkpt><trkpt lat="45.396185" lon="14.264"><ele>608.0</ele><time>2026-04-30T13:58:32.133Z</time></trkpt><trkpt lat="45.3961133" lon="14.26398"><ele>608.0</ele><time>2026-04-30T13:58:33.073Z</time></trkpt><trkpt lat="45.396045" lon="14.2639367"><ele>608.0</ele><time>2026-04-30T13:58:34.146Z</time></trkpt><trkpt lat="45.3959833" lon="14.2638833"><ele>610.1666666666666</ele><time>2026-04-30T13:58:35.085Z</time></trkpt><trkpt lat="45.3959167" lon="14.26384"><ele>612.3333333333333</ele><time>2026-04-30T13:58:36.093Z</time></trkpt><trkpt lat="45.3958433" lon="14.2638033"><ele>614.5</ele><time>2026-04-30T13:58:37.1Z</time></trkpt><trkpt lat="45.3957717" lon="14.2637733"><ele>616.6666666666666</ele><time>2026-04-30T13:58:38.105Z</time></trkpt><trkpt lat="45.3956967" lon="14.26375"><ele>618.8333333333334</ele><time>2026-04-30T13:58:39.045Z</time></trkpt><trkpt lat="45.39562" lon="14.26375"><ele>621.0</ele><time>2026-04-30T13:58:40.119Z</time></trkpt><trkpt lat="45.3955383" lon="14.263775"><ele>623.5</ele><time>2026-04-30T13:58:41.059Z</time></trkpt><trkpt lat="45.39546" lon="14.263825"><ele>626.0</ele><time>2026-04-30T13:58:42.133Z</time></trkpt><trkpt lat="45.3953883" lon="14.2638767"><ele>628.5</ele><time>2026-04-30T13:58:43.071Z</time></trkpt><trkpt lat="45.39532" lon="14.2639267"><ele>631.0</ele><time>2026-04-30T13:58:44.078Z</time></trkpt><trkpt lat="45.39526" lon="14.263955"><ele>633.5</ele><time>2026-04-30T13:58:45.086Z</time></trkpt><trkpt lat="45.3951667" lon="14.263945"><ele>636.0</ele><time>2026-04-30T13:58:47.098Z</time></trkpt><trkpt lat="45.395065" lon="14.2638517"><ele>637.0</ele><time>2026-04-30T13:58:49.045Z</time></trkpt><trkpt lat="45.3950117" lon="14.2637667"><ele>638.0</ele><time>2026-04-30T13:58:50.118Z</time></trkpt><trkpt lat="45.39496" lon="14.2636783"><ele>639.0</ele><time>2026-04-30T13:58:51.057Z</time></trkpt><trkpt lat="45.3948917" lon="14.2635933"><ele>640.0</ele><time>2026-04-30T13:58:52.131Z</time></trkpt><trkpt lat="45.3948183" lon="14.263535"><ele>641.0</ele><time>2026-04-30T13:58:53.071Z</time></trkpt><trkpt lat="45.39475" lon="14.2634983"><ele>642.0</ele><time>2026-04-30T13:58:54.077Z</time></trkpt><trkpt lat="45.39468" lon="14.2635283"><ele>644.0</ele><time>2026-04-30T13:58:55.084Z</time></trkpt><trkpt lat="45.3946183" lon="14.2635733"><ele>646.0</ele><time>2026-04-30T13:58:56.092Z</time></trkpt><trkpt lat="45.3945633" lon="14.2636433"><ele>648.0</ele><time>2026-04-30T13:58:57.097Z</time></trkpt><trkpt lat="45.3945133" lon="14.26371"><ele>650.0</ele><time>2026-04-30T13:58:58.105Z</time></trkpt><trkpt lat="45.3944083" lon="14.2637767"><ele>652.0</ele><time>2026-04-30T13:59:00.118Z</time></trkpt><trkpt lat="45.394345" lon="14.263765"><ele>654.0</ele><time>2026-04-30T13:59:01.058Z</time></trkpt><trkpt lat="45.3942783" lon="14.2637333"><ele>654.0</ele><time>2026-04-30T13:59:02.13Z</time></trkpt><trkpt lat="45.394205" lon="14.2636917"><ele>654.0</ele><time>2026-04-30T13:59:03.071Z</time></trkpt><trkpt lat="45.39412" lon="14.2636467"><ele>654.0</ele><time>2026-04-30T13:59:04.078Z</time></trkpt><trkpt lat="45.3940267" lon="14.2636067"><ele>654.0</ele><time>2026-04-30T13:59:05.084Z</time></trkpt><trkpt lat="45.3939317" lon="14.263555"><ele>654.0</ele><time>2026-04-30T13:59:06.09Z</time></trkpt><trkpt lat="45.393835" lon="14.263505"><ele>655.6</ele><time>2026-04-30T13:59:07.096Z</time></trkpt><trkpt lat="45.39373" lon="14.2634617"><ele>657.2</ele><time>2026-04-30T13:59:08.104Z</time></trkpt><trkpt lat="45.3936217" lon="14.2634283"><ele>658.8000000000001</ele><time>2026-04-30T13:59:09.044Z</time></trkpt><trkpt lat="45.3935133" lon="14.2634067"><ele>660.4000000000001</ele><time>2026-04-30T13:59:10.117Z</time></trkpt><trkpt lat="45.39341" lon="14.263385"><ele>662.0</ele><time>2026-04-30T13:59:11.056Z</time></trkpt><trkpt lat="45.3933083" lon="14.2633883"><ele>662.0</ele><time>2026-04-30T13:59:12.131Z</time></trkpt><trkpt lat="45.3932183" lon="14.2633783"><ele>662.0</ele><time>2026-04-30T13:59:13.07Z</time></trkpt><trkpt lat="45.393135" lon="14.26337"><ele>662.0</ele><time>2026-04-30T13:59:14.077Z</time></trkpt><trkpt lat="45.3930517" lon="14.2633417"><ele>662.0</ele><time>2026-04-30T13:59:15.083Z</time></trkpt><trkpt lat="45.3929667" lon="14.2633083"><ele>662.0</ele><time>2026-04-30T13:59:16.089Z</time></trkpt><trkpt lat="45.392875" lon="14.263285"><ele>662.0</ele><time>2026-04-30T13:59:17.096Z</time></trkpt><trkpt lat="45.3927833" lon="14.2632667"><ele>663.3333333333333</ele><time>2026-04-30T13:59:18.102Z</time></trkpt><trkpt lat="45.3926883" lon="14.2632483"><ele>664.6666666666666</ele><time>2026-04-30T13:59:19.042Z</time></trkpt><trkpt lat="45.3925933" lon="14.26324"><ele>666.0</ele><time>2026-04-30T13:59:20.116Z</time></trkpt><trkpt lat="45.3925067" lon="14.2632417"><ele>667.3333333333334</ele><time>2026-04-30T13:59:21.056Z</time></trkpt><trkpt lat="45.3924283" lon="14.2632433"><ele>668.6666666666667</ele><time>2026-04-30T13:59:22.13Z</time></trkpt><trkpt lat="45.3923617" lon="14.2632467"><ele>670.0</ele><time>2026-04-30T13:59:23.069Z</time></trkpt><trkpt lat="45.3922517" lon="14.2632633"><ele>669.0</ele><time>2026-04-30T13:59:25.083Z</time></trkpt><trkpt lat="45.3921333" lon="14.2632433"><ele>668.0</ele><time>2026-04-30T13:59:27.096Z</time></trkpt><trkpt lat="45.3920667" lon="14.263215"><ele>667.0</ele><time>2026-04-30T13:59:28.103Z</time></trkpt><trkpt lat="45.3919983" lon="14.2631867"><ele>666.0</ele><time>2026-04-30T13:59:29.041Z</time></trkpt><trkpt lat="45.391935" lon="14.26316"><ele>665.0</ele><time>2026-04-30T13:59:30.116Z</time></trkpt><trkpt lat="45.3918717" lon="14.2631433"><ele>664.0</ele><time>2026-04-30T13:59:31.055Z</time></trkpt><trkpt lat="45.3918067" lon="14.263145"><ele>664.0</ele><time>2026-04-30T13:59:32.129Z</time></trkpt><trkpt lat="45.39173" lon="14.263145"><ele>664.0</ele><time>2026-04-30T13:59:33.068Z</time></trkpt><trkpt lat="45.3916517" lon="14.2631367"><ele>664.0</ele><time>2026-04-30T13:59:34.075Z</time></trkpt><trkpt lat="45.3915667" lon="14.2631267"><ele>664.0</ele><time>2026-04-30T13:59:35.081Z</time></trkpt><trkpt lat="45.3914783" lon="14.2631183"><ele>664.0</ele><time>2026-04-30T13:59:36.087Z</time></trkpt><trkpt lat="45.3913817" lon="14.2631083"><ele>664.0</ele><time>2026-04-30T13:59:37.161Z</time></trkpt><trkpt lat="45.39128" lon="14.263105"><ele>666.5</ele><time>2026-04-30T13:59:38.102Z</time></trkpt><trkpt lat="45.3911817" lon="14.2630967"><ele>669.0</ele><time>2026-04-30T13:59:39.04Z</time></trkpt><trkpt lat="45.3910917" lon="14.2631"><ele>671.5</ele><time>2026-04-30T13:59:40.114Z</time></trkpt><trkpt lat="45.3910183" lon="14.263105"><ele>674.0</ele><time>2026-04-30T13:59:41.055Z</time></trkpt><trkpt lat="45.3909133" lon="14.2630783"><ele>676.5</ele><time>2026-04-30T13:59:43.067Z</time></trkpt><trkpt lat="45.3908617" lon="14.2629917"><ele>679.0</ele><time>2026-04-30T13:59:45.148Z</time></trkpt><trkpt lat="45.39084" lon="14.2628567"><ele>679.0</ele><time>2026-04-30T13:59:47.16Z</time></trkpt><trkpt lat="45.3908283" lon="14.2627567"><ele>679.0</ele><time>2026-04-30T13:59:48.1Z</time></trkpt><trkpt lat="45.3908083" lon="14.26265"><ele>679.0</ele><time>2026-04-30T13:59:49.039Z</time></trkpt><trkpt lat="45.3907817" lon="14.2625267"><ele>679.0</ele><time>2026-04-30T13:59:50.113Z</time></trkpt><trkpt lat="45.3907567" lon="14.2623967"><ele>679.0</ele><time>2026-04-30T13:59:51.054Z</time></trkpt><trkpt lat="45.390725" lon="14.26228"><ele>679.0</ele><time>2026-04-30T13:59:52.127Z</time></trkpt><trkpt lat="45.3906933" lon="14.2621783"><ele>680.7142857142857</ele><time>2026-04-30T13:59:53.133Z</time></trkpt><trkpt lat="45.39065" lon="14.2620933"><ele>682.4285714285714</ele><time>2026-04-30T13:59:54.073Z</time></trkpt><trkpt lat="45.390595" lon="14.2620217"><ele>684.1428571428571</ele><time>2026-04-30T13:59:55.147Z</time></trkpt><trkpt lat="45.390535" lon="14.26196"><ele>685.8571428571429</ele><time>2026-04-30T13:59:56.086Z</time></trkpt><trkpt lat="45.39048" lon="14.2618933"><ele>687.5714285714286</ele><time>2026-04-30T13:59:57.161Z</time></trkpt><trkpt lat="45.3904317" lon="14.2618267"><ele>689.2857142857142</ele><time>2026-04-30T13:59:58.099Z</time></trkpt><trkpt lat="45.3903833" lon="14.2617483"><ele>691.0</ele><time>2026-04-30T13:59:59.039Z</time></trkpt><trkpt lat="45.3903383" lon="14.2616533"><ele>688.0</ele><time>2026-04-30T14:00:00.112Z</time></trkpt><trkpt lat="45.3902983" lon="14.261545"><ele>685.0</ele><time>2026-04-30T14:00:01.119Z</time></trkpt><trkpt lat="45.3902567" lon="14.2614333"><ele>682.0</ele><time>2026-04-30T14:00:02.127Z</time></trkpt><trkpt lat="45.390215" lon="14.2613183"><ele>679.0</ele><time>2026-04-30T14:00:03.133Z</time></trkpt><trkpt lat="45.3901717" lon="14.2611983"><ele>676.0</ele><time>2026-04-30T14:00:04.073Z</time></trkpt><trkpt lat="45.3901167" lon="14.2610867"><ele>676.0</ele><time>2026-04-30T14:00:05.146Z</time></trkpt><trkpt lat="45.390055" lon="14.2609833"><ele>676.0</ele><time>2026-04-30T14:00:06.085Z</time></trkpt><trkpt lat="45.3899983" lon="14.26088"><ele>676.0</ele><time>2026-04-30T14:00:07.026Z</time></trkpt><trkpt lat="45.3899483" lon="14.2607767"><ele>676.0</ele><time>2026-04-30T14:00:08.098Z</time></trkpt><trkpt lat="45.389895" lon="14.26068"><ele>676.0</ele><time>2026-04-30T14:00:09.038Z</time></trkpt><trkpt lat="45.38986" lon="14.2605833"><ele>676.0</ele><time>2026-04-30T14:00:10.112Z</time></trkpt><trkpt lat="45.3898417" lon="14.260485"><ele>678.0</ele><time>2026-04-30T14:00:11.118Z</time></trkpt><trkpt lat="45.38983" lon="14.2603967"><ele>680.0</ele><time>2026-04-30T14:00:12.058Z</time></trkpt><trkpt lat="45.3898233" lon="14.2603033"><ele>682.0</ele><time>2026-04-30T14:00:13.132Z</time></trkpt><trkpt lat="45.389825" lon="14.26021"><ele>684.0</ele><time>2026-04-30T14:00:14.071Z</time></trkpt><trkpt lat="45.389825" lon="14.2601183"><ele>686.0</ele><time>2026-04-30T14:00:15.146Z</time></trkpt><trkpt lat="45.3898333" lon="14.259935"><ele>688.0</ele><time>2026-04-30T14:00:17.024Z</time></trkpt><trkpt lat="45.3898217" lon="14.25984"><ele>689.4285714285714</ele><time>2026-04-30T14:00:18.098Z</time></trkpt><trkpt lat="45.3897967" lon="14.2597467"><ele>690.8571428571429</ele><time>2026-04-30T14:00:19.105Z</time></trkpt><trkpt lat="45.3897667" lon="14.2596533"><ele>692.2857142857142</ele><time>2026-04-30T14:00:20.111Z</time></trkpt><trkpt lat="45.38973" lon="14.2595633"><ele>693.7142857142858</ele><time>2026-04-30T14:00:21.119Z</time></trkpt><trkpt lat="45.389685" lon="14.2594767"><ele>695.1428571428571</ele><time>2026-04-30T14:00:22.058Z</time></trkpt><trkpt lat="45.38964" lon="14.259385"><ele>696.5714285714286</ele><time>2026-04-30T14:00:23.131Z</time></trkpt><trkpt lat="45.3896" lon="14.2593017"><ele>698.0</ele><time>2026-04-30T14:00:24.071Z</time></trkpt><trkpt lat="45.3895583" lon="14.2592233"><ele>695.0</ele><time>2026-04-30T14:00:25.144Z</time></trkpt><trkpt lat="45.3895067" lon="14.25906"><ele>692.0</ele><time>2026-04-30T14:00:27.09Z</time></trkpt><trkpt lat="45.3894883" lon="14.258965"><ele>689.0</ele><time>2026-04-30T14:00:28.098Z</time></trkpt><trkpt lat="45.3894667" lon="14.258865"><ele>686.0</ele><time>2026-04-30T14:00:29.104Z</time></trkpt><trkpt lat="45.3894333" lon="14.2587633"><ele>683.0</ele><time>2026-04-30T14:00:30.11Z</time></trkpt><trkpt lat="45.3893967" lon="14.258655"><ele>680.0</ele><time>2026-04-30T14:00:31.117Z</time></trkpt><trkpt lat="45.3893617" lon="14.258545"><ele>680.0</ele><time>2026-04-30T14:00:32.057Z</time></trkpt><trkpt lat="45.389325" lon="14.2584383"><ele>680.0</ele><time>2026-04-30T14:00:33.131Z</time></trkpt><trkpt lat="45.3892867" lon="14.2583483"><ele>680.0</ele><time>2026-04-30T14:00:34.071Z</time></trkpt><trkpt lat="45.3892383" lon="14.2582683"><ele>680.0</ele><time>2026-04-30T14:00:35.144Z</time></trkpt><trkpt lat="45.38919" lon="14.2581983"><ele>680.0</ele><time>2026-04-30T14:00:36.084Z</time></trkpt><trkpt lat="45.389135" lon="14.2581483"><ele>680.0</ele><time>2026-04-30T14:00:37.09Z</time></trkpt><trkpt lat="45.3890667" lon="14.2581033"><ele>680.0</ele><time>2026-04-30T14:00:38.096Z</time></trkpt><trkpt lat="45.3889983" lon="14.2580667"><ele>679.7142857142858</ele><time>2026-04-30T14:00:39.103Z</time></trkpt><trkpt lat="45.38894" lon="14.2580183"><ele>679.4285714285713</ele><time>2026-04-30T14:00:40.11Z</time></trkpt><trkpt lat="45.388885" lon="14.2579617"><ele>679.1428571428571</ele><time>2026-04-30T14:00:41.117Z</time></trkpt><trkpt lat="45.3888367" lon="14.2578883"><ele>678.8571428571429</ele><time>2026-04-30T14:00:42.055Z</time></trkpt><trkpt lat="45.3887983" lon="14.2577933"><ele>678.5714285714287</ele><time>2026-04-30T14:00:43.129Z</time></trkpt><trkpt lat="45.38876" lon="14.25769"><ele>678.2857142857142</ele><time>2026-04-30T14:00:44.07Z</time></trkpt><trkpt lat="45.388715" lon="14.25759"><ele>678.0</ele><time>2026-04-30T14:00:45.143Z</time></trkpt><trkpt lat="45.388665" lon="14.2574833"><ele>678.0</ele><time>2026-04-30T14:00:46.082Z</time></trkpt><trkpt lat="45.388605" lon="14.2573933"><ele>678.0</ele><time>2026-04-30T14:00:47.089Z</time></trkpt><trkpt lat="45.3885483" lon="14.25731"><ele>678.0</ele><time>2026-04-30T14:00:48.096Z</time></trkpt><trkpt lat="45.3884867" lon="14.2571833"><ele>678.0</ele><time>2026-04-30T14:00:50.109Z</time></trkpt><trkpt lat="45.3884833" lon="14.257045"><ele>678.0</ele><time>2026-04-30T14:00:52.055Z</time></trkpt><trkpt lat="45.3885383" lon="14.256905"><ele>678.5</ele><time>2026-04-30T14:00:54.068Z</time></trkpt><trkpt lat="45.388575" lon="14.256825"><ele>679.0</ele><time>2026-04-30T14:00:55.142Z</time></trkpt><trkpt lat="45.3886133" lon="14.2567317"><ele>679.5</ele><time>2026-04-30T14:00:56.081Z</time></trkpt><trkpt lat="45.3886533" lon="14.2566267"><ele>680.0</ele><time>2026-04-30T14:00:57.089Z</time></trkpt><trkpt lat="45.3886983" lon="14.2565167"><ele>680.5</ele><time>2026-04-30T14:00:58.095Z</time></trkpt><trkpt lat="45.3887433" lon="14.2563967"><ele>681.0</ele><time>2026-04-30T14:00:59.101Z</time></trkpt><trkpt lat="45.388785" lon="14.2562633"><ele>681.0</ele><time>2026-04-30T14:01:00.108Z</time></trkpt><trkpt lat="45.38883" lon="14.2561333"><ele>681.0</ele><time>2026-04-30T14:01:01.114Z</time></trkpt><trkpt lat="45.38887" lon="14.2560133"><ele>681.0</ele><time>2026-04-30T14:01:02.054Z</time></trkpt><trkpt lat="45.3889017" lon="14.2559033"><ele>681.0</ele><time>2026-04-30T14:01:03.128Z</time></trkpt><trkpt lat="45.3889217" lon="14.2557883"><ele>681.0</ele><time>2026-04-30T14:01:04.067Z</time></trkpt><trkpt lat="45.38894" lon="14.2556767"><ele>681.0</ele><time>2026-04-30T14:01:05.141Z</time></trkpt><trkpt lat="45.38896" lon="14.2555583"><ele>681.5</ele><time>2026-04-30T14:01:06.08Z</time></trkpt><trkpt lat="45.3889817" lon="14.2554467"><ele>682.0</ele><time>2026-04-30T14:01:07.088Z</time></trkpt><trkpt lat="45.3889933" lon="14.2553433"><ele>682.5</ele><time>2026-04-30T14:01:08.094Z</time></trkpt><trkpt lat="45.3889967" lon="14.25524"><ele>683.0</ele><time>2026-04-30T14:01:09.1Z</time></trkpt><trkpt lat="45.3889883" lon="14.25514"><ele>683.5</ele><time>2026-04-30T14:01:10.108Z</time></trkpt><trkpt lat="45.3889783" lon="14.2550283"><ele>684.0</ele><time>2026-04-30T14:01:11.114Z</time></trkpt><trkpt lat="45.3889633" lon="14.2549033"><ele>684.0</ele><time>2026-04-30T14:01:12.053Z</time></trkpt><trkpt lat="45.3889517" lon="14.25477"><ele>684.0</ele><time>2026-04-30T14:01:13.128Z</time></trkpt><trkpt lat="45.38894" lon="14.2546467"><ele>684.0</ele><time>2026-04-30T14:01:14.066Z</time></trkpt><trkpt lat="45.3889217" lon="14.25454"><ele>684.0</ele><time>2026-04-30T14:01:15.141Z</time></trkpt><trkpt lat="45.3889033" lon="14.2544367"><ele>684.0</ele><time>2026-04-30T14:01:16.081Z</time></trkpt><trkpt lat="45.388875" lon="14.2543367"><ele>684.0</ele><time>2026-04-30T14:01:17.086Z</time></trkpt><trkpt lat="45.3888383" lon="14.2542383"><ele>684.0</ele><time>2026-04-30T14:01:18.093Z</time></trkpt><trkpt lat="45.3887883" lon="14.2541383"><ele>684.0</ele><time>2026-04-30T14:01:19.101Z</time></trkpt><trkpt lat="45.3887433" lon="14.2540317"><ele>684.0</ele><time>2026-04-30T14:01:20.106Z</time></trkpt><trkpt lat="45.3887117" lon="14.2539217"><ele>684.0</ele><time>2026-04-30T14:01:21.113Z</time></trkpt><trkpt lat="45.3886683" lon="14.25381"><ele>684.0</ele><time>2026-04-30T14:01:22.053Z</time></trkpt><trkpt lat="45.38863" lon="14.2536883"><ele>684.0</ele><time>2026-04-30T14:01:23.126Z</time></trkpt><trkpt lat="45.3885833" lon="14.253575"><ele>684.5714285714286</ele><time>2026-04-30T14:01:24.066Z</time></trkpt><trkpt lat="45.3885367" lon="14.25347"><ele>685.1428571428571</ele><time>2026-04-30T14:01:25.139Z</time></trkpt><trkpt lat="45.388505" lon="14.25337"><ele>685.7142857142858</ele><time>2026-04-30T14:01:26.08Z</time></trkpt><trkpt lat="45.3884833" lon="14.253275"><ele>686.2857142857142</ele><time>2026-04-30T14:01:27.086Z</time></trkpt><trkpt lat="45.38847" lon="14.253185"><ele>686.8571428571429</ele><time>2026-04-30T14:01:28.093Z</time></trkpt><trkpt lat="45.3884667" lon="14.2530883"><ele>687.4285714285714</ele><time>2026-04-30T14:01:29.099Z</time></trkpt><trkpt lat="45.3884717" lon="14.25299"><ele>688.0</ele><time>2026-04-30T14:01:30.106Z</time></trkpt><trkpt lat="45.3884767" lon="14.2528867"><ele>688.3333333333334</ele><time>2026-04-30T14:01:31.113Z</time></trkpt><trkpt lat="45.3884683" lon="14.252785"><ele>688.6666666666667</ele><time>2026-04-30T14:01:32.053Z</time></trkpt><trkpt lat="45.388445" lon="14.2526867"><ele>689.0</ele><time>2026-04-30T14:01:33.126Z</time></trkpt><trkpt lat="45.3884117" lon="14.25259"><ele>689.3333333333334</ele><time>2026-04-30T14:01:34.065Z</time></trkpt><trkpt lat="45.38838" lon="14.2524933"><ele>689.6666666666666</ele><time>2026-04-30T14:01:35.071Z</time></trkpt><trkpt lat="45.3883567" lon="14.2524017"><ele>690.0</ele><time>2026-04-30T14:01:36.078Z</time></trkpt><trkpt lat="45.3883433" lon="14.2522367"><ele>690.1666666666666</ele><time>2026-04-30T14:01:38.091Z</time></trkpt><trkpt lat="45.3883733" lon="14.2520667"><ele>690.3333333333334</ele><time>2026-04-30T14:01:40.038Z</time></trkpt><trkpt lat="45.3883783" lon="14.25197"><ele>690.5</ele><time>2026-04-30T14:01:41.111Z</time></trkpt><trkpt lat="45.3883667" lon="14.2518733"><ele>690.6666666666667</ele><time>2026-04-30T14:01:42.051Z</time></trkpt><trkpt lat="45.3883483" lon="14.2517733"><ele>690.8333333333334</ele><time>2026-04-30T14:01:43.125Z</time></trkpt><trkpt lat="45.3883133" lon="14.2516667"><ele>691.0</ele><time>2026-04-30T14:01:44.064Z</time></trkpt><trkpt lat="45.3882767" lon="14.2515617"><ele>691.0</ele><time>2026-04-30T14:01:45.071Z</time></trkpt><trkpt lat="45.388245" lon="14.2514667"><ele>691.0</ele><time>2026-04-30T14:01:46.078Z</time></trkpt><trkpt lat="45.388215" lon="14.25137"><ele>691.0</ele><time>2026-04-30T14:01:47.085Z</time></trkpt><trkpt lat="45.3881883" lon="14.251265"><ele>691.0</ele><time>2026-04-30T14:01:48.091Z</time></trkpt><trkpt lat="45.3881733" lon="14.2511483"><ele>691.0</ele><time>2026-04-30T14:01:49.098Z</time></trkpt><trkpt lat="45.388155" lon="14.2510217"><ele>691.0</ele><time>2026-04-30T14:01:50.037Z</time></trkpt><trkpt lat="45.388135" lon="14.2508933"><ele>691.4</ele><time>2026-04-30T14:01:51.11Z</time></trkpt><trkpt lat="45.3881117" lon="14.25076"><ele>691.8</ele><time>2026-04-30T14:01:52.05Z</time></trkpt><trkpt lat="45.3880917" lon="14.2506217"><ele>692.1999999999999</ele><time>2026-04-30T14:01:53.124Z</time></trkpt><trkpt lat="45.3880767" lon="14.2504817"><ele>692.5999999999999</ele><time>2026-04-30T14:01:54.063Z</time></trkpt><trkpt lat="45.3880633" lon="14.25035"><ele>693.0</ele><time>2026-04-30T14:01:55.07Z</time></trkpt><trkpt lat="45.3880467" lon="14.2502267"><ele>693.3333333333334</ele><time>2026-04-30T14:01:56.077Z</time></trkpt><trkpt lat="45.38803" lon="14.2501067"><ele>693.6666666666666</ele><time>2026-04-30T14:01:57.083Z</time></trkpt><trkpt lat="45.3880183" lon="14.2499933"><ele>694.0</ele><time>2026-04-30T14:01:58.09Z</time></trkpt><trkpt lat="45.388005" lon="14.2498833"><ele>694.3333333333333</ele><time>2026-04-30T14:01:59.096Z</time></trkpt><trkpt lat="45.3879917" lon="14.2497783"><ele>694.6666666666666</ele><time>2026-04-30T14:02:00.037Z</time></trkpt><trkpt lat="45.387975" lon="14.249675"><ele>695.0</ele><time>2026-04-30T14:02:01.11Z</time></trkpt><trkpt lat="45.387955" lon="14.2495733"><ele>695.6666666666666</ele><time>2026-04-30T14:02:02.049Z</time></trkpt><trkpt lat="45.387935" lon="14.2494667"><ele>696.3333333333333</ele><time>2026-04-30T14:02:03.124Z</time></trkpt><trkpt lat="45.3879183" lon="14.2493567"><ele>697.0</ele><time>2026-04-30T14:02:04.063Z</time></trkpt><trkpt lat="45.3879083" lon="14.2492483"><ele>697.6666666666666</ele><time>2026-04-30T14:02:05.069Z</time></trkpt><trkpt lat="45.3878967" lon="14.2491417"><ele>698.3333333333334</ele><time>2026-04-30T14:02:06.076Z</time></trkpt><trkpt lat="45.3878817" lon="14.249035"><ele>699.0</ele><time>2026-04-30T14:02:07.082Z</time></trkpt><trkpt lat="45.38787" lon="14.2489267"><ele>700.0</ele><time>2026-04-30T14:02:08.157Z</time></trkpt><trkpt lat="45.38785" lon="14.2488117"><ele>701.0</ele><time>2026-04-30T14:02:09.096Z</time></trkpt><trkpt lat="45.3878317" lon="14.2486967"><ele>702.0</ele><time>2026-04-30T14:02:10.035Z</time></trkpt><trkpt lat="45.38782" lon="14.24859"><ele>703.0</ele><time>2026-04-30T14:02:11.11Z</time></trkpt><trkpt lat="45.3878117" lon="14.2484817"><ele>704.0</ele><time>2026-04-30T14:02:12.048Z</time></trkpt><trkpt lat="45.3878067" lon="14.2483683"><ele>705.0</ele><time>2026-04-30T14:02:13.122Z</time></trkpt><trkpt lat="45.3878017" lon="14.2482583"><ele>705.0</ele><time>2026-04-30T14:02:14.062Z</time></trkpt><trkpt lat="45.3877983" lon="14.2481533"><ele>705.0</ele><time>2026-04-30T14:02:15.068Z</time></trkpt><trkpt lat="45.3878" lon="14.2480583"><ele>705.0</ele><time>2026-04-30T14:02:16.143Z</time></trkpt><trkpt lat="45.387815" lon="14.2478817"><ele>705.0</ele><time>2026-04-30T14:02:18.155Z</time></trkpt><trkpt lat="45.387825" lon="14.2477183"><ele>705.0</ele><time>2026-04-30T14:02:20.035Z</time></trkpt><trkpt lat="45.3878217" lon="14.247595"><ele>706.3333333333334</ele><time>2026-04-30T14:02:22.048Z</time></trkpt><trkpt lat="45.3877633" lon="14.24745"><ele>707.6666666666666</ele><time>2026-04-30T14:03:33.049Z</time></trkpt><trkpt lat="45.3876917" lon="14.2474667"><ele>709.0</ele><time>2026-04-30T14:03:36.137Z</time></trkpt><trkpt lat="45.387695" lon="14.2475667"><ele>710.3333333333333</ele><time>2026-04-30T14:03:39.09Z</time></trkpt><trkpt lat="45.3877333" lon="14.2476467"><ele>711.6666666666666</ele><time>2026-04-30T14:03:41.103Z</time></trkpt><trkpt lat="45.3877633" lon="14.2477617"><ele>713.0</ele><time>2026-04-30T14:03:43.049Z</time></trkpt><trkpt lat="45.3877617" lon="14.2478917"><ele>713.0</ele><time>2026-04-30T14:03:45.061Z</time></trkpt><trkpt lat="45.3877533" lon="14.24805"><ele>713.0</ele><time>2026-04-30T14:03:47.075Z</time></trkpt><trkpt lat="45.3877533" lon="14.24821"><ele>713.0</ele><time>2026-04-30T14:03:49.088Z</time></trkpt><trkpt lat="45.38776" lon="14.2483667"><ele>713.0</ele><time>2026-04-30T14:03:51.102Z</time></trkpt><trkpt lat="45.387785" lon="14.24854"><ele>711.6666666666666</ele><time>2026-04-30T14:03:53.048Z</time></trkpt><trkpt lat="45.3878033" lon="14.24863"><ele>710.3333333333333</ele><time>2026-04-30T14:03:54.121Z</time></trkpt><trkpt lat="45.38782" lon="14.2487167"><ele>709.0</ele><time>2026-04-30T14:03:55.061Z</time></trkpt><trkpt lat="45.38785" lon="14.2488817"><ele>707.6666666666666</ele><time>2026-04-30T14:03:57.075Z</time></trkpt><trkpt lat="45.3878667" lon="14.2489767"><ele>706.3333333333334</ele><time>2026-04-30T14:03:58.081Z</time></trkpt><trkpt lat="45.38788" lon="14.2490767"><ele>705.0</ele><time>2026-04-30T14:03:59.088Z</time></trkpt><trkpt lat="45.3878983" lon="14.24918"><ele>704.1428571428571</ele><time>2026-04-30T14:04:00.094Z</time></trkpt><trkpt lat="45.3879167" lon="14.24928"><ele>703.2857142857142</ele><time>2026-04-30T14:04:01.1Z</time></trkpt><trkpt lat="45.387935" lon="14.2493833"><ele>702.4285714285713</ele><time>2026-04-30T14:04:02.107Z</time></trkpt><trkpt lat="45.3879517" lon="14.24948"><ele>701.5714285714286</ele><time>2026-04-30T14:04:03.047Z</time></trkpt><trkpt lat="45.3879717" lon="14.2495733"><ele>700.7142857142858</ele><time>2026-04-30T14:04:04.121Z</time></trkpt><trkpt lat="45.3879917" lon="14.2496667"><ele>699.8571428571428</ele><time>2026-04-30T14:04:05.061Z</time></trkpt><trkpt lat="45.3880067" lon="14.2497567"><ele>699.0</ele><time>2026-04-30T14:04:06.134Z</time></trkpt><trkpt lat="45.38802" lon="14.2499283"><ele>698.0</ele><time>2026-04-30T14:04:08.081Z</time></trkpt><trkpt lat="45.3880183" lon="14.2500933"><ele>697.0</ele><time>2026-04-30T14:04:10.093Z</time></trkpt><trkpt lat="45.3880317" lon="14.250265"><ele>696.0</ele><time>2026-04-30T14:04:12.106Z</time></trkpt><trkpt lat="45.38806" lon="14.250425"><ele>695.0</ele><time>2026-04-30T14:04:14.119Z</time></trkpt><trkpt lat="45.3880867" lon="14.2505833"><ele>694.6</ele><time>2026-04-30T14:04:16.133Z</time></trkpt><trkpt lat="45.3881033" lon="14.250735"><ele>694.2</ele><time>2026-04-30T14:04:18.079Z</time></trkpt><trkpt lat="45.3881167" lon="14.2508517"><ele>693.8</ele><time>2026-04-30T14:04:20.092Z</time></trkpt><trkpt lat="45.388135" lon="14.2509817"><ele>693.4</ele><time>2026-04-30T14:04:23.046Z</time></trkpt><trkpt lat="45.38816" lon="14.2510933"><ele>693.0</ele><time>2026-04-30T14:04:25.058Z</time></trkpt><trkpt lat="45.3881817" lon="14.2512217"><ele>693.0</ele><time>2026-04-30T14:04:27.072Z</time></trkpt><trkpt lat="45.38822" lon="14.25135"><ele>693.0</ele><time>2026-04-30T14:04:29.086Z</time></trkpt><trkpt lat="45.3882733" lon="14.251485"><ele>693.0</ele><time>2026-04-30T14:04:31.166Z</time></trkpt><trkpt lat="45.3883183" lon="14.251595"><ele>693.0</ele><time>2026-04-30T14:04:33.045Z</time></trkpt><trkpt lat="45.3883483" lon="14.2517267"><ele>693.0</ele><time>2026-04-30T14:04:35.057Z</time></trkpt><trkpt lat="45.3883617" lon="14.2518833"><ele>692.5999999999999</ele><time>2026-04-30T14:04:37.072Z</time></trkpt><trkpt lat="45.3883417" lon="14.2520533"><ele>692.1999999999999</ele><time>2026-04-30T14:04:39.152Z</time></trkpt><trkpt lat="45.3883333" lon="14.252215"><ele>691.8</ele><time>2026-04-30T14:04:41.031Z</time></trkpt><trkpt lat="45.3883767" lon="14.2523633"><ele>691.4</ele><time>2026-04-30T14:04:43.044Z</time></trkpt><trkpt lat="45.3884033" lon="14.252445"><ele>691.0</ele><time>2026-04-30T14:04:44.118Z</time></trkpt><trkpt lat="45.3884317" lon="14.2525283"><ele>690.8</ele><time>2026-04-30T14:04:45.057Z</time></trkpt><trkpt lat="45.3884717" lon="14.2526917"><ele>690.5999999999999</ele><time>2026-04-30T14:04:47.137Z</time></trkpt><trkpt lat="45.38848" lon="14.252855"><ele>690.4</ele><time>2026-04-30T14:04:49.15Z</time></trkpt><trkpt lat="45.3884817" lon="14.25303"><ele>690.2</ele><time>2026-04-30T14:04:51.03Z</time></trkpt><trkpt lat="45.388485" lon="14.2531233"><ele>690.0</ele><time>2026-04-30T14:04:52.103Z</time></trkpt><trkpt lat="45.3885267" lon="14.2532883"><ele>689.7142857142858</ele><time>2026-04-30T14:04:54.117Z</time></trkpt><trkpt lat="45.3885533" lon="14.253375"><ele>689.4285714285714</ele><time>2026-04-30T14:04:55.124Z</time></trkpt><trkpt lat="45.3885817" lon="14.2534633"><ele>689.1428571428571</ele><time>2026-04-30T14:04:56.063Z</time></trkpt><trkpt lat="45.3886133" lon="14.25355"><ele>688.8571428571429</ele><time>2026-04-30T14:04:57.136Z</time></trkpt><trkpt lat="45.3886433" lon="14.2536417"><ele>688.5714285714286</ele><time>2026-04-30T14:04:58.077Z</time></trkpt><trkpt lat="45.3886767" lon="14.2537333"><ele>688.2857142857143</ele><time>2026-04-30T14:04:59.15Z</time></trkpt><trkpt lat="45.38871" lon="14.2538317"><ele>688.0</ele><time>2026-04-30T14:05:00.09Z</time></trkpt><trkpt lat="45.3887483" lon="14.2539183"><ele>687.5</ele><time>2026-04-30T14:05:01.029Z</time></trkpt><trkpt lat="45.388785" lon="14.2539933"><ele>687.0</ele><time>2026-04-30T14:05:02.103Z</time></trkpt><trkpt lat="45.3888217" lon="14.25407"><ele>686.5</ele><time>2026-04-30T14:05:03.11Z</time></trkpt><trkpt lat="45.3888583" lon="14.254145"><ele>686.0</ele><time>2026-04-30T14:05:04.116Z</time></trkpt><trkpt lat="45.3889083" lon="14.25431"><ele>685.5</ele><time>2026-04-30T14:05:06.062Z</time></trkpt><trkpt lat="45.3889233" lon="14.2544083"><ele>685.0</ele><time>2026-04-30T14:05:07.135Z</time></trkpt><trkpt lat="45.388935" lon="14.2544983"><ele>685.0</ele><time>2026-04-30T14:05:08.076Z</time></trkpt><trkpt lat="45.3889433" lon="14.2545933"><ele>685.0</ele><time>2026-04-30T14:05:09.15Z</time></trkpt><trkpt lat="45.3889533" lon="14.254685"><ele>685.0</ele><time>2026-04-30T14:05:10.088Z</time></trkpt><trkpt lat="45.38896" lon="14.2547833"><ele>685.0</ele><time>2026-04-30T14:05:11.028Z</time></trkpt><trkpt lat="45.38897" lon="14.2548767"><ele>685.0</ele><time>2026-04-30T14:05:12.102Z</time></trkpt><trkpt lat="45.38898" lon="14.2549683"><ele>685.0</ele><time>2026-04-30T14:05:13.108Z</time></trkpt><trkpt lat="45.3889867" lon="14.2550667"><ele>685.0</ele><time>2026-04-30T14:05:14.116Z</time></trkpt><trkpt lat="45.38899" lon="14.2551633"><ele>684.8571428571428</ele><time>2026-04-30T14:05:15.122Z</time></trkpt><trkpt lat="45.3889883" lon="14.2552617"><ele>684.7142857142858</ele><time>2026-04-30T14:05:16.061Z</time></trkpt><trkpt lat="45.38898" lon="14.2553633"><ele>684.5714285714286</ele><time>2026-04-30T14:05:17.136Z</time></trkpt><trkpt lat="45.3889633" lon="14.2554583"><ele>684.4285714285713</ele><time>2026-04-30T14:05:18.074Z</time></trkpt><trkpt lat="45.3889417" lon="14.2555533"><ele>684.2857142857142</ele><time>2026-04-30T14:05:19.148Z</time></trkpt><trkpt lat="45.388925" lon="14.255655"><ele>684.1428571428571</ele><time>2026-04-30T14:05:20.088Z</time></trkpt><trkpt lat="45.388905" lon="14.25576"><ele>684.0</ele><time>2026-04-30T14:05:21.094Z</time></trkpt><trkpt lat="45.38888" lon="14.2558633"><ele>683.5</ele><time>2026-04-30T14:05:22.102Z</time></trkpt><trkpt lat="45.3888483" lon="14.255965"><ele>683.0</ele><time>2026-04-30T14:05:23.108Z</time></trkpt><trkpt lat="45.3888117" lon="14.2560667"><ele>682.5</ele><time>2026-04-30T14:05:24.115Z</time></trkpt><trkpt lat="45.3887733" lon="14.256175"><ele>682.0</ele><time>2026-04-30T14:05:25.121Z</time></trkpt><trkpt lat="45.3887383" lon="14.2562917"><ele>681.5</ele><time>2026-04-30T14:05:26.061Z</time></trkpt><trkpt lat="45.3887067" lon="14.2564017"><ele>681.0</ele><time>2026-04-30T14:05:27.134Z</time></trkpt><trkpt lat="45.3886667" lon="14.2565067"><ele>681.0</ele><time>2026-04-30T14:05:28.073Z</time></trkpt><trkpt lat="45.388625" lon="14.2566017"><ele>681.0</ele><time>2026-04-30T14:05:29.148Z</time></trkpt><trkpt lat="45.38859" lon="14.2566817"><ele>681.0</ele><time>2026-04-30T14:05:30.087Z</time></trkpt><trkpt lat="45.38856" lon="14.2567617"><ele>681.0</ele><time>2026-04-30T14:05:31.094Z</time></trkpt><trkpt lat="45.388515" lon="14.2569083"><ele>681.0</ele><time>2026-04-30T14:05:33.107Z</time></trkpt><trkpt lat="45.38851" lon="14.257045"><ele>681.0</ele><time>2026-04-30T14:05:35.121Z</time></trkpt><trkpt lat="45.3885567" lon="14.2571467"><ele>680.4</ele><time>2026-04-30T14:05:37.133Z</time></trkpt><trkpt lat="45.3886433" lon="14.2572867"><ele>679.8</ele><time>2026-04-30T14:05:39.147Z</time></trkpt><trkpt lat="45.3886983" lon="14.2573767"><ele>679.1999999999999</ele><time>2026-04-30T14:05:40.087Z</time></trkpt><trkpt lat="45.3887483" lon="14.25747"><ele>678.5999999999999</ele><time>2026-04-30T14:05:41.093Z</time></trkpt><trkpt lat="45.3887917" lon="14.2575717"><ele>678.0</ele><time>2026-04-30T14:05:42.099Z</time></trkpt><trkpt lat="45.38883" lon="14.25766"><ele>681.2</ele><time>2026-04-30T14:05:43.107Z</time></trkpt><trkpt lat="45.388865" lon="14.25774"><ele>684.4</ele><time>2026-04-30T14:05:44.112Z</time></trkpt><trkpt lat="45.38894" lon="14.257855"><ele>687.6</ele><time>2026-04-30T14:05:46.06Z</time></trkpt><trkpt lat="45.389045" lon="14.2579467"><ele>690.8000000000001</ele><time>2026-04-30T14:05:48.073Z</time></trkpt><trkpt lat="45.3891083" lon="14.2579917"><ele>694.0</ele><time>2026-04-30T14:05:49.147Z</time></trkpt><trkpt lat="45.3892133" lon="14.2580983"><ele>691.6666666666667</ele><time>2026-04-30T14:05:51.092Z</time></trkpt><trkpt lat="45.389265" lon="14.2581733"><ele>689.3333333333334</ele><time>2026-04-30T14:05:52.099Z</time></trkpt><trkpt lat="45.389305" lon="14.2582733"><ele>687.0</ele><time>2026-04-30T14:05:53.106Z</time></trkpt><trkpt lat="45.3893417" lon="14.2583833"><ele>684.6666666666666</ele><time>2026-04-30T14:05:54.112Z</time></trkpt><trkpt lat="45.3893783" lon="14.2585017"><ele>682.3333333333333</ele><time>2026-04-30T14:05:55.119Z</time></trkpt><trkpt lat="45.389415" lon="14.2586133"><ele>680.0</ele><time>2026-04-30T14:05:56.058Z</time></trkpt><trkpt lat="45.389445" lon="14.258725"><ele>680.0</ele><time>2026-04-30T14:05:57.133Z</time></trkpt><trkpt lat="45.3894633" lon="14.2588267"><ele>680.0</ele><time>2026-04-30T14:05:58.071Z</time></trkpt><trkpt lat="45.3894817" lon="14.2589333"><ele>680.0</ele><time>2026-04-30T14:05:59.146Z</time></trkpt><trkpt lat="45.389505" lon="14.25903"><ele>680.0</ele><time>2026-04-30T14:06:00.085Z</time></trkpt><trkpt lat="45.3895333" lon="14.2591183"><ele>680.0</ele><time>2026-04-30T14:06:01.092Z</time></trkpt><trkpt lat="45.38957" lon="14.259205"><ele>680.0</ele><time>2026-04-30T14:06:02.099Z</time></trkpt><trkpt lat="45.3896117" lon="14.2592933"><ele>680.0</ele><time>2026-04-30T14:06:03.105Z</time></trkpt><trkpt lat="45.3896617" lon="14.259385"><ele>681.1428571428572</ele><time>2026-04-30T14:06:04.045Z</time></trkpt><trkpt lat="45.3897017" lon="14.25948"><ele>682.2857142857142</ele><time>2026-04-30T14:06:05.118Z</time></trkpt><trkpt lat="45.3897283" lon="14.2595733"><ele>683.4285714285714</ele><time>2026-04-30T14:06:06.057Z</time></trkpt><trkpt lat="45.3897517" lon="14.2596683"><ele>684.5714285714287</ele><time>2026-04-30T14:06:07.132Z</time></trkpt><trkpt lat="45.3897667" lon="14.2597683"><ele>685.7142857142858</ele><time>2026-04-30T14:06:08.07Z</time></trkpt><trkpt lat="45.3897733" lon="14.259875"><ele>686.8571428571429</ele><time>2026-04-30T14:06:09.077Z</time></trkpt><trkpt lat="45.3897717" lon="14.2599883"><ele>688.0</ele><time>2026-04-30T14:06:10.084Z</time></trkpt><trkpt lat="45.38977" lon="14.2601083"><ele>688.0</ele><time>2026-04-30T14:06:11.09Z</time></trkpt><trkpt lat="45.38977" lon="14.2602183"><ele>688.0</ele><time>2026-04-30T14:06:12.098Z</time></trkpt><trkpt lat="45.3897817" lon="14.2603267"><ele>688.0</ele><time>2026-04-30T14:06:13.104Z</time></trkpt><trkpt lat="45.3898017" lon="14.2604233"><ele>688.0</ele><time>2026-04-30T14:06:14.044Z</time></trkpt><trkpt lat="45.38983" lon="14.2605183"><ele>688.0</ele><time>2026-04-30T14:06:15.118Z</time></trkpt><trkpt lat="45.3898683" lon="14.2606183"><ele>688.0</ele><time>2026-04-30T14:06:16.057Z</time></trkpt><trkpt lat="45.3899167" lon="14.260725"><ele>686.0</ele><time>2026-04-30T14:06:17.13Z</time></trkpt><trkpt lat="45.38996" lon="14.2608317"><ele>684.0</ele><time>2026-04-30T14:06:18.07Z</time></trkpt><trkpt lat="45.3900133" lon="14.2609333"><ele>682.0</ele><time>2026-04-30T14:06:19.077Z</time></trkpt><trkpt lat="45.390065" lon="14.2610283"><ele>680.0</ele><time>2026-04-30T14:06:20.083Z</time></trkpt><trkpt lat="45.3901183" lon="14.26112"><ele>678.0</ele><time>2026-04-30T14:06:21.089Z</time></trkpt><trkpt lat="45.390165" lon="14.2612133"><ele>676.0</ele><time>2026-04-30T14:06:22.096Z</time></trkpt><trkpt lat="45.3902067" lon="14.261315"><ele>676.0</ele><time>2026-04-30T14:06:23.103Z</time></trkpt><trkpt lat="45.390245" lon="14.2614167"><ele>676.0</ele><time>2026-04-30T14:06:24.043Z</time></trkpt><trkpt lat="45.3902817" lon="14.261515"><ele>676.0</ele><time>2026-04-30T14:06:25.116Z</time></trkpt><trkpt lat="45.39032" lon="14.2616183"><ele>676.0</ele><time>2026-04-30T14:06:26.056Z</time></trkpt><trkpt lat="45.3903633" lon="14.2617133"><ele>676.0</ele><time>2026-04-30T14:06:27.129Z</time></trkpt><trkpt lat="45.390415" lon="14.2617917"><ele>676.0</ele><time>2026-04-30T14:06:28.069Z</time></trkpt><trkpt lat="45.3904683" lon="14.261865"><ele>676.5</ele><time>2026-04-30T14:06:29.076Z</time></trkpt><trkpt lat="45.39053" lon="14.2619367"><ele>677.0</ele><time>2026-04-30T14:06:30.082Z</time></trkpt><trkpt lat="45.39058" lon="14.2620133"><ele>677.5</ele><time>2026-04-30T14:06:31.089Z</time></trkpt><trkpt lat="45.3906283" lon="14.262095"><ele>678.0</ele><time>2026-04-30T14:06:32.095Z</time></trkpt><trkpt lat="45.3906683" lon="14.2621833"><ele>678.5</ele><time>2026-04-30T14:06:33.103Z</time></trkpt><trkpt lat="45.390695" lon="14.26228"><ele>679.0</ele><time>2026-04-30T14:06:34.041Z</time></trkpt><trkpt lat="45.3907217" lon="14.26238"><ele>679.0</ele><time>2026-04-30T14:06:35.115Z</time></trkpt><trkpt lat="45.390745" lon="14.2624867"><ele>679.0</ele><time>2026-04-30T14:06:36.056Z</time></trkpt><trkpt lat="45.390765" lon="14.2626"><ele>679.0</ele><time>2026-04-30T14:06:37.128Z</time></trkpt><trkpt lat="45.3907817" lon="14.2627117"><ele>679.0</ele><time>2026-04-30T14:06:38.069Z</time></trkpt><trkpt lat="45.3908" lon="14.2628033"><ele>679.0</ele><time>2026-04-30T14:06:39.075Z</time></trkpt><trkpt lat="45.39084" lon="14.2629333"><ele>679.0</ele><time>2026-04-30T14:06:41.088Z</time></trkpt><trkpt lat="45.3909183" lon="14.2629833"><ele>679.0</ele><time>2026-04-30T14:06:43.101Z</time></trkpt><trkpt lat="45.3910367" lon="14.262975"><ele>679.0</ele><time>2026-04-30T14:06:45.115Z</time></trkpt><trkpt lat="45.39111" lon="14.262975"><ele>679.0</ele><time>2026-04-30T14:06:46.055Z</time></trkpt><trkpt lat="45.391195" lon="14.2629783"><ele>679.0</ele><time>2026-04-30T14:06:47.128Z</time></trkpt><trkpt lat="45.3912883" lon="14.2629917"><ele>679.0</ele><time>2026-04-30T14:06:48.068Z</time></trkpt><trkpt lat="45.3913783" lon="14.2630083"><ele>680.3333333333334</ele><time>2026-04-30T14:06:49.075Z</time></trkpt><trkpt lat="45.3914617" lon="14.2630233"><ele>681.6666666666667</ele><time>2026-04-30T14:06:50.08Z</time></trkpt><trkpt lat="45.3915333" lon="14.263035"><ele>683.0</ele><time>2026-04-30T14:06:51.088Z</time></trkpt><trkpt lat="45.39161" lon="14.2630467"><ele>684.3333333333334</ele><time>2026-04-30T14:06:52.162Z</time></trkpt><trkpt lat="45.3916867" lon="14.2630467"><ele>685.6666666666666</ele><time>2026-04-30T14:06:53.1Z</time></trkpt><trkpt lat="45.391765" lon="14.2630467"><ele>687.0</ele><time>2026-04-30T14:06:54.04Z</time></trkpt><trkpt lat="45.3918333" lon="14.2630533"><ele>687.0</ele><time>2026-04-30T14:06:55.114Z</time></trkpt><trkpt lat="45.3918933" lon="14.2630883"><ele>687.0</ele><time>2026-04-30T14:06:56.054Z</time></trkpt><trkpt lat="45.3919583" lon="14.2631333"><ele>687.0</ele><time>2026-04-30T14:06:57.127Z</time></trkpt><trkpt lat="45.3920183" lon="14.2631683"><ele>687.0</ele><time>2026-04-30T14:06:58.066Z</time></trkpt><trkpt lat="45.3921383" lon="14.263195"><ele>687.0</ele><time>2026-04-30T14:07:00.08Z</time></trkpt><trkpt lat="45.3922467" lon="14.2631817"><ele>687.0</ele><time>2026-04-30T14:07:02.16Z</time></trkpt><trkpt lat="45.3923833" lon="14.2631733"><ele>684.1666666666666</ele><time>2026-04-30T14:07:04.039Z</time></trkpt><trkpt lat="45.3924683" lon="14.26318"><ele>681.3333333333334</ele><time>2026-04-30T14:07:05.114Z</time></trkpt><trkpt lat="45.39256" lon="14.26319"><ele>678.5</ele><time>2026-04-30T14:07:06.052Z</time></trkpt><trkpt lat="45.3926533" lon="14.263205"><ele>675.6666666666667</ele><time>2026-04-30T14:07:07.126Z</time></trkpt><trkpt lat="45.3927317" lon="14.26322"><ele>672.8333333333334</ele><time>2026-04-30T14:07:08.066Z</time></trkpt><trkpt lat="45.3928067" lon="14.2632383"><ele>670.0</ele><time>2026-04-30T14:07:09.072Z</time></trkpt><trkpt lat="45.3928817" lon="14.2632583"><ele>670.0</ele><time>2026-04-30T14:07:10.147Z</time></trkpt><trkpt lat="45.39295" lon="14.2632867"><ele>670.0</ele><time>2026-04-30T14:07:11.087Z</time></trkpt><trkpt lat="45.393025" lon="14.2633067"><ele>670.0</ele><time>2026-04-30T14:07:12.16Z</time></trkpt><trkpt lat="45.3931083" lon="14.2633117"><ele>670.0</ele><time>2026-04-30T14:07:13.1Z</time></trkpt><trkpt lat="45.3931933" lon="14.2633133"><ele>670.0</ele><time>2026-04-30T14:07:14.039Z</time></trkpt><trkpt lat="45.3932817" lon="14.2633183"><ele>670.0</ele><time>2026-04-30T14:07:15.112Z</time></trkpt><trkpt lat="45.39337" lon="14.2633317"><ele>668.4</ele><time>2026-04-30T14:07:16.052Z</time></trkpt><trkpt lat="45.3934583" lon="14.263355"><ele>666.8</ele><time>2026-04-30T14:07:17.125Z</time></trkpt><trkpt lat="45.39355" lon="14.2633783"><ele>665.2</ele><time>2026-04-30T14:07:18.132Z</time></trkpt><trkpt lat="45.393645" lon="14.263405"><ele>663.6</ele><time>2026-04-30T14:07:19.073Z</time></trkpt><trkpt lat="45.3937433" lon="14.2634517"><ele>662.0</ele><time>2026-04-30T14:07:20.145Z</time></trkpt><trkpt lat="45.3938483" lon="14.2635017"><ele>660.4000000000001</ele><time>2026-04-30T14:07:21.085Z</time></trkpt><trkpt lat="45.3939533" lon="14.26355"><ele>658.8000000000001</ele><time>2026-04-30T14:07:22.159Z</time></trkpt><trkpt lat="45.3940517" lon="14.2635933"><ele>657.2</ele><time>2026-04-30T14:07:23.099Z</time></trkpt><trkpt lat="45.39414" lon="14.2636367"><ele>655.6</ele><time>2026-04-30T14:07:24.038Z</time></trkpt><trkpt lat="45.3942133" lon="14.263675"><ele>654.0</ele><time>2026-04-30T14:07:25.111Z</time></trkpt><trkpt lat="45.3942767" lon="14.2637067"><ele>654.0</ele><time>2026-04-30T14:07:26.119Z</time></trkpt><trkpt lat="45.394385" lon="14.2637033"><ele>654.0</ele><time>2026-04-30T14:07:28.131Z</time></trkpt><trkpt lat="45.39448" lon="14.2636033"><ele>654.0</ele><time>2026-04-30T14:07:30.144Z</time></trkpt><trkpt lat="45.3945317" lon="14.263545"><ele>654.0</ele><time>2026-04-30T14:07:31.084Z</time></trkpt><trkpt lat="45.3945983" lon="14.2635083"><ele>654.0</ele><time>2026-04-30T14:07:32.024Z</time></trkpt><trkpt lat="45.3946667" lon="14.2634917"><ele>654.0</ele><time>2026-04-30T14:07:33.097Z</time></trkpt><trkpt lat="45.3947383" lon="14.2634983"><ele>652.0</ele><time>2026-04-30T14:07:34.105Z</time></trkpt><trkpt lat="45.3948017" lon="14.263535"><ele>650.0</ele><time>2026-04-30T14:07:35.111Z</time></trkpt><trkpt lat="45.3948567" lon="14.26359"><ele>648.0</ele><time>2026-04-30T14:07:36.117Z</time></trkpt><trkpt lat="45.394905" lon="14.26366"><ele>646.0</ele><time>2026-04-30T14:07:37.057Z</time></trkpt><trkpt lat="45.394995" lon="14.26378"><ele>644.0</ele><time>2026-04-30T14:07:39.071Z</time></trkpt><trkpt lat="45.3950967" lon="14.2638567"><ele>642.0</ele><time>2026-04-30T14:07:41.083Z</time></trkpt><trkpt lat="45.3952017" lon="14.2638733"><ele>642.0</ele><time>2026-04-30T14:07:43.096Z</time></trkpt><trkpt lat="45.395265" lon="14.26385"><ele>642.0</ele><time>2026-04-30T14:07:44.103Z</time></trkpt><trkpt lat="45.3953283" lon="14.2637967"><ele>642.0</ele><time>2026-04-30T14:07:45.11Z</time></trkpt><trkpt lat="45.395395" lon="14.26373"><ele>642.0</ele><time>2026-04-30T14:07:46.117Z</time></trkpt><trkpt lat="45.3954717" lon="14.2636933"><ele>642.0</ele><time>2026-04-30T14:07:47.056Z</time></trkpt><trkpt lat="45.3955483" lon="14.2636617"><ele>642.0</ele><time>2026-04-30T14:07:48.131Z</time></trkpt><trkpt lat="45.395635" lon="14.2636567"><ele>638.5</ele><time>2026-04-30T14:07:49.069Z</time></trkpt><trkpt lat="45.3957117" lon="14.2636517"><ele>635.0</ele><time>2026-04-30T14:07:50.144Z</time></trkpt><trkpt lat="45.395785" lon="14.2636517"><ele>631.5</ele><time>2026-04-30T14:07:51.083Z</time></trkpt><trkpt lat="45.395855" lon="14.263685"><ele>628.0</ele><time>2026-04-30T14:07:52.089Z</time></trkpt><trkpt lat="45.39592" lon="14.26373"><ele>624.5</ele><time>2026-04-30T14:07:53.096Z</time></trkpt><trkpt lat="45.3959967" lon="14.263795"><ele>621.0</ele><time>2026-04-30T14:07:54.103Z</time></trkpt><trkpt lat="45.3960783" lon="14.2638333"><ele>621.0</ele><time>2026-04-30T14:07:55.109Z</time></trkpt><trkpt lat="45.39616" lon="14.2638383"><ele>621.0</ele><time>2026-04-30T14:07:56.116Z</time></trkpt><trkpt lat="45.3962383" lon="14.26382"><ele>621.0</ele><time>2026-04-30T14:07:57.056Z</time></trkpt><trkpt lat="45.3963133" lon="14.2637917"><ele>621.0</ele><time>2026-04-30T14:07:58.129Z</time></trkpt><trkpt lat="45.3963817" lon="14.2637683"><ele>621.0</ele><time>2026-04-30T14:07:59.069Z</time></trkpt><trkpt lat="45.3964483" lon="14.2637667"><ele>621.0</ele><time>2026-04-30T14:08:00.142Z</time></trkpt><trkpt lat="45.3965417" lon="14.2637783"><ele>619.8333333333334</ele><time>2026-04-30T14:08:02.088Z</time></trkpt><trkpt lat="45.3966267" lon="14.2638633"><ele>618.6666666666666</ele><time>2026-04-30T14:08:04.103Z</time></trkpt><trkpt lat="45.3966717" lon="14.2639333"><ele>617.5</ele><time>2026-04-30T14:08:05.109Z</time></trkpt><trkpt lat="45.396705" lon="14.2640167"><ele>616.3333333333333</ele><time>2026-04-30T14:08:06.115Z</time></trkpt><trkpt lat="45.3967283" lon="14.2641217"><ele>615.1666666666666</ele><time>2026-04-30T14:08:07.054Z</time></trkpt><trkpt lat="45.3967467" lon="14.264215"><ele>614.0</ele><time>2026-04-30T14:08:08.129Z</time></trkpt><trkpt lat="45.3968183" lon="14.2643467"><ele>613.1428571428571</ele><time>2026-04-30T14:08:10.142Z</time></trkpt><trkpt lat="45.39688" lon="14.26437"><ele>612.2857142857142</ele><time>2026-04-30T14:08:11.081Z</time></trkpt><trkpt lat="45.3969467" lon="14.2643833"><ele>611.4285714285713</ele><time>2026-04-30T14:08:12.088Z</time></trkpt><trkpt lat="45.3970267" lon="14.264385"><ele>610.5714285714286</ele><time>2026-04-30T14:08:13.094Z</time></trkpt><trkpt lat="45.397105" lon="14.2643833"><ele>609.7142857142858</ele><time>2026-04-30T14:08:14.101Z</time></trkpt><trkpt lat="45.3971783" lon="14.2643883"><ele>608.8571428571428</ele><time>2026-04-30T14:08:15.108Z</time></trkpt><trkpt lat="45.3972467" lon="14.264405"><ele>608.0</ele><time>2026-04-30T14:08:16.114Z</time></trkpt><trkpt lat="45.3973167" lon="14.2644267"><ele>606.1999999999999</ele><time>2026-04-30T14:08:17.054Z</time></trkpt><trkpt lat="45.3973883" lon="14.2644483"><ele>604.4</ele><time>2026-04-30T14:08:18.127Z</time></trkpt><trkpt lat="45.397455" lon="14.2644617"><ele>602.5999999999999</ele><time>2026-04-30T14:08:19.067Z</time></trkpt><trkpt lat="45.397575" lon="14.2644483"><ele>600.8</ele><time>2026-04-30T14:08:21.081Z</time></trkpt><trkpt lat="45.3976867" lon="14.26432"><ele>599.0</ele><time>2026-04-30T14:08:33.093Z</time></trkpt><trkpt lat="45.3977483" lon="14.2644117"><ele>599.0</ele><time>2026-04-30T14:08:37.052Z</time></trkpt><trkpt lat="45.3977483" lon="14.26455"><ele>599.0</ele><time>2026-04-30T14:08:39.066Z</time></trkpt><trkpt lat="45.3977233" lon="14.2647283"><ele>599.0</ele><time>2026-04-30T14:08:41.08Z</time></trkpt><trkpt lat="45.3977117" lon="14.26482"><ele>599.0</ele><time>2026-04-30T14:08:42.086Z</time></trkpt><trkpt lat="45.3977" lon="14.2649133"><ele>599.0</ele><time>2026-04-30T14:08:43.092Z</time></trkpt><trkpt lat="45.3976933" lon="14.265005"><ele>599.0</ele><time>2026-04-30T14:08:44.098Z</time></trkpt><trkpt lat="45.3976967" lon="14.2651017"><ele>597.3333333333333</ele><time>2026-04-30T14:08:45.105Z</time></trkpt><trkpt lat="45.3977067" lon="14.2652017"><ele>595.6666666666666</ele><time>2026-04-30T14:08:46.112Z</time></trkpt><trkpt lat="45.3977233" lon="14.26531"><ele>594.0</ele><time>2026-04-30T14:08:47.052Z</time></trkpt><trkpt lat="45.3977433" lon="14.2654283"><ele>592.3333333333334</ele><time>2026-04-30T14:08:48.126Z</time></trkpt><trkpt lat="45.397755" lon="14.26555"><ele>590.6666666666667</ele><time>2026-04-30T14:08:49.064Z</time></trkpt><trkpt lat="45.3977567" lon="14.2656717"><ele>589.0</ele><time>2026-04-30T14:08:50.138Z</time></trkpt><trkpt lat="45.3977483" lon="14.265785"><ele>588.2</ele><time>2026-04-30T14:08:51.078Z</time></trkpt><trkpt lat="45.397725" lon="14.2658983"><ele>587.4</ele><time>2026-04-30T14:08:52.084Z</time></trkpt><trkpt lat="45.397695" lon="14.2660117"><ele>586.6</ele><time>2026-04-30T14:08:53.091Z</time></trkpt><trkpt lat="45.3976583" lon="14.2661283"><ele>585.8</ele><time>2026-04-30T14:08:54.098Z</time></trkpt><trkpt lat="45.39762" lon="14.26626"><ele>585.0</ele><time>2026-04-30T14:08:55.104Z</time></trkpt><trkpt lat="45.3975833" lon="14.2664"><ele>583.0</ele><time>2026-04-30T14:08:56.112Z</time></trkpt><trkpt lat="45.3975517" lon="14.2665533"><ele>581.0</ele><time>2026-04-30T14:08:57.05Z</time></trkpt><trkpt lat="45.397525" lon="14.2667017"><ele>579.0</ele><time>2026-04-30T14:08:58.125Z</time></trkpt><trkpt lat="45.397505" lon="14.2668417"><ele>577.0</ele><time>2026-04-30T14:08:59.064Z</time></trkpt><trkpt lat="45.39749" lon="14.2669667"><ele>575.0</ele><time>2026-04-30T14:09:00.138Z</time></trkpt><trkpt lat="45.3974833" lon="14.2670833"><ele>575.0</ele><time>2026-04-30T14:09:01.077Z</time></trkpt><trkpt lat="45.39749" lon="14.267205"><ele>575.0</ele><time>2026-04-30T14:09:02.084Z</time></trkpt><trkpt lat="45.3975117" lon="14.2673283"><ele>575.0</ele><time>2026-04-30T14:09:03.09Z</time></trkpt><trkpt lat="45.3975583" lon="14.2674483"><ele>575.0</ele><time>2026-04-30T14:09:04.097Z</time></trkpt><trkpt lat="45.3976267" lon="14.26757"><ele>575.0</ele><time>2026-04-30T14:09:05.036Z</time></trkpt><trkpt lat="45.3977083" lon="14.2677017"><ele>571.25</ele><time>2026-04-30T14:09:06.11Z</time></trkpt><trkpt lat="45.3977983" lon="14.2678367"><ele>567.5</ele><time>2026-04-30T14:09:07.051Z</time></trkpt><trkpt lat="45.3978917" lon="14.267975"><ele>563.75</ele><time>2026-04-30T14:09:08.123Z</time></trkpt><trkpt lat="45.3979767" lon="14.2681133"><ele>560.0</ele><time>2026-04-30T14:09:09.064Z</time></trkpt><trkpt lat="45.3980433" lon="14.2682483"><ele>556.6</ele><time>2026-04-30T14:09:10.07Z</time></trkpt><trkpt lat="45.398095" lon="14.2683767"><ele>553.2</ele><time>2026-04-30T14:09:11.077Z</time></trkpt><trkpt lat="45.39815" lon="14.2684933"><ele>549.8</ele><time>2026-04-30T14:09:12.083Z</time></trkpt><trkpt lat="45.3982133" lon="14.2685917"><ele>546.4</ele><time>2026-04-30T14:09:13.089Z</time></trkpt><trkpt lat="45.398285" lon="14.268665"><ele>543.0</ele><time>2026-04-30T14:09:14.096Z</time></trkpt><trkpt lat="45.398365" lon="14.2687183"><ele>543.0</ele><time>2026-04-30T14:09:15.036Z</time></trkpt><trkpt lat="45.3984467" lon="14.2687583"><ele>543.0</ele><time>2026-04-30T14:09:16.11Z</time></trkpt><trkpt lat="45.398525" lon="14.2688167"><ele>543.0</ele><time>2026-04-30T14:09:17.05Z</time></trkpt><trkpt lat="45.3985867" lon="14.2689033"><ele>543.0</ele><time>2026-04-30T14:09:18.124Z</time></trkpt><trkpt lat="45.3986367" lon="14.2690167"><ele>543.0</ele><time>2026-04-30T14:09:19.063Z</time></trkpt><trkpt lat="45.3986883" lon="14.2691383"><ele>540.6</ele><time>2026-04-30T14:09:20.069Z</time></trkpt><trkpt lat="45.3987417" lon="14.26926"><ele>538.1999999999999</ele><time>2026-04-30T14:09:21.075Z</time></trkpt><trkpt lat="45.398795" lon="14.2693717"><ele>535.8</ele><time>2026-04-30T14:09:22.082Z</time></trkpt><trkpt lat="45.3988467" lon="14.269465"><ele>533.4</ele><time>2026-04-30T14:09:23.157Z</time></trkpt><trkpt lat="45.398895" lon="14.2695333"><ele>531.0</ele><time>2026-04-30T14:09:24.096Z</time></trkpt><trkpt lat="45.3990083" lon="14.2696333"><ele>530.0</ele><time>2026-04-30T14:09:26.11Z</time></trkpt><trkpt lat="45.3990833" lon="14.2695883"><ele>529.0</ele><time>2026-04-30T14:09:27.048Z</time></trkpt><trkpt lat="45.3991583" lon="14.2695267"><ele>528.0</ele><time>2026-04-30T14:09:28.122Z</time></trkpt><trkpt lat="45.39923" lon="14.269435"><ele>527.0</ele><time>2026-04-30T14:09:29.061Z</time></trkpt><trkpt lat="45.3992983" lon="14.2693117"><ele>526.0</ele><time>2026-04-30T14:09:30.068Z</time></trkpt><trkpt lat="45.3993633" lon="14.269185"><ele>526.0</ele><time>2026-04-30T14:09:31.075Z</time></trkpt><trkpt lat="45.3994217" lon="14.2690617"><ele>526.0</ele><time>2026-04-30T14:09:32.081Z</time></trkpt><trkpt lat="45.39948" lon="14.2689567"><ele>526.0</ele><time>2026-04-30T14:09:33.156Z</time></trkpt><trkpt lat="45.3995483" lon="14.2688783"><ele>526.0</ele><time>2026-04-30T14:09:34.095Z</time></trkpt><trkpt lat="45.3996217" lon="14.26882"><ele>526.0</ele><time>2026-04-30T14:09:35.034Z</time></trkpt><trkpt lat="45.3996917" lon="14.2687633"><ele>522.2</ele><time>2026-04-30T14:09:36.109Z</time></trkpt><trkpt lat="45.3997633" lon="14.2686883"><ele>518.4000000000001</ele><time>2026-04-30T14:09:37.048Z</time></trkpt><trkpt lat="45.3998233" lon="14.2685833"><ele>514.6</ele><time>2026-04-30T14:09:38.122Z</time></trkpt><trkpt lat="45.3998783" lon="14.26847"><ele>510.8</ele><time>2026-04-30T14:09:39.061Z</time></trkpt><trkpt lat="45.399935" lon="14.268365"><ele>507.0</ele><time>2026-04-30T14:09:40.068Z</time></trkpt><trkpt lat="45.3999967" lon="14.2682733"><ele>507.0</ele><time>2026-04-30T14:09:41.141Z</time></trkpt><trkpt lat="45.4000717" lon="14.2681883"><ele>507.0</ele><time>2026-04-30T14:09:42.08Z</time></trkpt><trkpt lat="45.40015" lon="14.2681233"><ele>507.0</ele><time>2026-04-30T14:09:43.155Z</time></trkpt><trkpt lat="45.4002233" lon="14.2680783"><ele>507.0</ele><time>2026-04-30T14:09:44.095Z</time></trkpt><trkpt lat="45.4002967" lon="14.26807"><ele>507.0</ele><time>2026-04-30T14:09:45.033Z</time></trkpt><trkpt lat="45.4003617" lon="14.268075"><ele>507.0</ele><time>2026-04-30T14:09:46.108Z</time></trkpt><trkpt lat="45.4004267" lon="14.26811"><ele>507.0</ele><time>2026-04-30T14:09:47.047Z</time></trkpt><trkpt lat="45.4004933" lon="14.26813"><ele>507.0</ele><time>2026-04-30T14:09:48.12Z</time></trkpt><trkpt lat="45.4005617" lon="14.2681167"><ele>507.0</ele><time>2026-04-30T14:09:49.127Z</time></trkpt><trkpt lat="45.4006317" lon="14.2680733"><ele>507.0</ele><time>2026-04-30T14:09:50.067Z</time></trkpt><trkpt lat="45.4006967" lon="14.2679817"><ele>507.0</ele><time>2026-04-30T14:09:51.141Z</time></trkpt><trkpt lat="45.4007683" lon="14.2679083"><ele>507.0</ele><time>2026-04-30T14:09:52.081Z</time></trkpt><trkpt lat="45.4008483" lon="14.267845"><ele>506.1666666666667</ele><time>2026-04-30T14:09:53.154Z</time></trkpt><trkpt lat="45.4009317" lon="14.267805"><ele>505.33333333333337</ele><time>2026-04-30T14:09:54.093Z</time></trkpt><trkpt lat="45.4010217" lon="14.2677967"><ele>504.5</ele><time>2026-04-30T14:09:55.033Z</time></trkpt><trkpt lat="45.4011083" lon="14.2677983"><ele>503.6666666666667</ele><time>2026-04-30T14:09:56.106Z</time></trkpt><trkpt lat="45.4011933" lon="14.2677883"><ele>502.83333333333337</ele><time>2026-04-30T14:09:57.113Z</time></trkpt><trkpt lat="45.4012733" lon="14.26775"><ele>502.0</ele><time>2026-04-30T14:09:58.12Z</time></trkpt><trkpt lat="45.40134" lon="14.2676817"><ele>499.42857142857133</ele><time>2026-04-30T14:09:59.127Z</time></trkpt><trkpt lat="45.4013933" lon="14.26759"><ele>496.85714285714283</ele><time>2026-04-30T14:10:00.067Z</time></trkpt><trkpt lat="45.40145" lon="14.26751"><ele>494.2857142857142</ele><time>2026-04-30T14:10:01.139Z</time></trkpt><trkpt lat="45.401515" lon="14.26746"><ele>491.71428571428567</ele><time>2026-04-30T14:10:02.079Z</time></trkpt><trkpt lat="45.4015867" lon="14.2674417"><ele>489.1428571428571</ele><time>2026-04-30T14:10:03.153Z</time></trkpt><trkpt lat="45.4016567" lon="14.2674433"><ele>486.57142857142856</ele><time>2026-04-30T14:10:04.092Z</time></trkpt><trkpt lat="45.4017217" lon="14.26746"><ele>484.0</ele><time>2026-04-30T14:10:05.099Z</time></trkpt><trkpt lat="45.4018067" lon="14.2675183"><ele>484.0</ele><time>2026-04-30T14:10:07.113Z</time></trkpt><trkpt lat="45.401825" lon="14.2676183"><ele>484.0</ele><time>2026-04-30T14:10:09.125Z</time></trkpt><trkpt lat="45.4017583" lon="14.2676967"><ele>484.0</ele><time>2026-04-30T14:10:11.139Z</time></trkpt><trkpt lat="45.40164" lon="14.26773"><ele>484.0</ele><time>2026-04-30T14:10:13.152Z</time></trkpt><trkpt lat="45.401545" lon="14.267835"><ele>484.0</ele><time>2026-04-30T14:10:15.098Z</time></trkpt><trkpt lat="45.4015083" lon="14.2679983"><ele>481.4</ele><time>2026-04-30T14:10:17.111Z</time></trkpt><trkpt lat="45.40155" lon="14.26818"><ele>478.79999999999995</ele><time>2026-04-30T14:10:19.125Z</time></trkpt><trkpt lat="45.4016033" lon="14.268265"><ele>476.20000000000005</ele><time>2026-04-30T14:10:20.064Z</time></trkpt><trkpt lat="45.401665" lon="14.2683467"><ele>473.6</ele><time>2026-04-30T14:10:21.139Z</time></trkpt><trkpt lat="45.40173" lon="14.2684217"><ele>471.0</ele><time>2026-04-30T14:10:22.077Z</time></trkpt><trkpt lat="45.401795" lon="14.2684967"><ele>471.0</ele><time>2026-04-30T14:10:23.151Z</time></trkpt><trkpt lat="45.4018483" lon="14.2685733"><ele>471.0</ele><time>2026-04-30T14:10:24.091Z</time></trkpt><trkpt lat="45.40189" lon="14.268655"><ele>471.0</ele><time>2026-04-30T14:10:25.097Z</time></trkpt><trkpt lat="45.4019317" lon="14.26875"><ele>471.0</ele><time>2026-04-30T14:10:26.104Z</time></trkpt><trkpt lat="45.4019767" lon="14.268835"><ele>471.0</ele><time>2026-04-30T14:10:27.111Z</time></trkpt><trkpt lat="45.40204" lon="14.268905"><ele>471.0</ele><time>2026-04-30T14:10:28.117Z</time></trkpt><trkpt lat="45.4021117" lon="14.2689517"><ele>467.5</ele><time>2026-04-30T14:10:29.124Z</time></trkpt><trkpt lat="45.4021833" lon="14.26899"><ele>464.0</ele><time>2026-04-30T14:10:30.063Z</time></trkpt><trkpt lat="45.402245" lon="14.2690367"><ele>460.5</ele><time>2026-04-30T14:10:31.137Z</time></trkpt><trkpt lat="45.4022983" lon="14.2690917"><ele>457.0</ele><time>2026-04-30T14:10:32.077Z</time></trkpt><trkpt lat="45.4024033" lon="14.26917"><ele>453.5</ele><time>2026-04-30T14:10:34.09Z</time></trkpt><trkpt lat="45.4024667" lon="14.2691767"><ele>450.0</ele><time>2026-04-30T14:10:35.097Z</time></trkpt><trkpt lat="45.4025417" lon="14.2691633"><ele>450.0</ele><time>2026-04-30T14:10:36.103Z</time></trkpt><trkpt lat="45.40262" lon="14.269155"><ele>450.0</ele><time>2026-04-30T14:10:37.111Z</time></trkpt><trkpt lat="45.4027" lon="14.2691567"><ele>450.0</ele><time>2026-04-30T14:10:38.049Z</time></trkpt><trkpt lat="45.4027833" lon="14.26916"><ele>450.0</ele><time>2026-04-30T14:10:39.124Z</time></trkpt><trkpt lat="45.4028717" lon="14.2691567"><ele>450.0</ele><time>2026-04-30T14:10:40.063Z</time></trkpt><trkpt lat="45.4029633" lon="14.2691417"><ele>450.0</ele><time>2026-04-30T14:10:41.137Z</time></trkpt><trkpt lat="45.4030533" lon="14.2691183"><ele>447.8</ele><time>2026-04-30T14:10:42.077Z</time></trkpt><trkpt lat="45.403135" lon="14.2690967"><ele>445.6</ele><time>2026-04-30T14:10:43.083Z</time></trkpt><trkpt lat="45.4032033" lon="14.2690867"><ele>443.4</ele><time>2026-04-30T14:10:44.09Z</time></trkpt><trkpt lat="45.4033033" lon="14.26912"><ele>441.2</ele><time>2026-04-30T14:10:46.102Z</time></trkpt><trkpt lat="45.4033267" lon="14.2692467"><ele>439.0</ele><time>2026-04-30T14:10:48.049Z</time></trkpt><trkpt lat="45.40327" lon="14.2694217"><ele>439.00000000000006</ele><time>2026-04-30T14:10:50.062Z</time></trkpt><trkpt lat="45.4032483" lon="14.2695267"><ele>439.0</ele><time>2026-04-30T14:10:51.137Z</time></trkpt><trkpt lat="45.40324" lon="14.269635"><ele>439.0</ele><time>2026-04-30T14:10:52.075Z</time></trkpt><trkpt lat="45.4032417" lon="14.2697417"><ele>439.0</ele><time>2026-04-30T14:10:53.083Z</time></trkpt><trkpt lat="45.40325" lon="14.2698517"><ele>439.00000000000006</ele><time>2026-04-30T14:10:54.088Z</time></trkpt><trkpt lat="45.403265" lon="14.2699533"><ele>439.0</ele><time>2026-04-30T14:10:55.095Z</time></trkpt><trkpt lat="45.4032967" lon="14.2700483"><ele>437.6666666666667</ele><time>2026-04-30T14:10:56.102Z</time></trkpt><trkpt lat="45.4033367" lon="14.2701283"><ele>436.33333333333337</ele><time>2026-04-30T14:10:57.109Z</time></trkpt><trkpt lat="45.4033883" lon="14.2701933"><ele>435.0</ele><time>2026-04-30T14:10:58.048Z</time></trkpt><trkpt lat="45.4034867" lon="14.270265"><ele>433.66666666666663</ele><time>2026-04-30T14:11:00.061Z</time></trkpt><trkpt lat="45.4035633" lon="14.2703317"><ele>432.3333333333333</ele><time>2026-04-30T14:11:02.074Z</time></trkpt><trkpt lat="45.4036633" lon="14.270365"><ele>431.0</ele><time>2026-04-30T14:11:04.088Z</time></trkpt><trkpt lat="45.403785" lon="14.27035"><ele>429.66666666666663</ele><time>2026-04-30T14:11:06.102Z</time></trkpt><trkpt lat="45.4039117" lon="14.2703433"><ele>428.3333333333333</ele><time>2026-04-30T14:11:08.047Z</time></trkpt><trkpt lat="45.4039767" lon="14.27035"><ele>427.0</ele><time>2026-04-30T14:11:09.122Z</time></trkpt><trkpt lat="45.404045" lon="14.2703517"><ele>425.66666666666663</ele><time>2026-04-30T14:11:10.06Z</time></trkpt><trkpt lat="45.4041117" lon="14.2703383"><ele>424.3333333333333</ele><time>2026-04-30T14:11:11.135Z</time></trkpt><trkpt lat="45.4041733" lon="14.270305"><ele>423.0</ele><time>2026-04-30T14:11:12.073Z</time></trkpt><trkpt lat="45.4042333" lon="14.2702583"><ele>423.0</ele><time>2026-04-30T14:11:13.08Z</time></trkpt><trkpt lat="45.40429" lon="14.2701983"><ele>423.0</ele><time>2026-04-30T14:11:14.087Z</time></trkpt><trkpt lat="45.4043417" lon="14.27013"><ele>423.0</ele><time>2026-04-30T14:11:15.094Z</time></trkpt><trkpt lat="45.4043917" lon="14.27006"><ele>423.0</ele><time>2026-04-30T14:11:16.101Z</time></trkpt><trkpt lat="45.4044433" lon="14.26999"><ele>423.0</ele><time>2026-04-30T14:11:17.108Z</time></trkpt><trkpt lat="45.404495" lon="14.269925"><ele>423.0</ele><time>2026-04-30T14:11:18.046Z</time></trkpt><trkpt lat="45.4045433" lon="14.26986"><ele>423.0</ele><time>2026-04-30T14:11:19.121Z</time></trkpt><trkpt lat="45.4046217" lon="14.2697467"><ele>422.3333333333333</ele><time>2026-04-30T14:11:21.134Z</time></trkpt><trkpt lat="45.4047117" lon="14.269695"><ele>421.66666666666663</ele><time>2026-04-30T14:11:23.079Z</time></trkpt><trkpt lat="45.4048283" lon="14.269715"><ele>421.0</ele><time>2026-04-30T14:11:25.094Z</time></trkpt><trkpt lat="45.4048917" lon="14.269745"><ele>420.3333333333333</ele><time>2026-04-30T14:11:26.1Z</time></trkpt><trkpt lat="45.40496" lon="14.2697867"><ele>419.66666666666663</ele><time>2026-04-30T14:11:27.107Z</time></trkpt><trkpt lat="45.40504" lon="14.2698317"><ele>419.0</ele><time>2026-04-30T14:11:28.045Z</time></trkpt><trkpt lat="45.405125" lon="14.2698783"><ele>419.0</ele><time>2026-04-30T14:11:29.119Z</time></trkpt><trkpt lat="45.4052217" lon="14.2699333"><ele>419.0</ele><time>2026-04-30T14:11:30.06Z</time></trkpt><trkpt lat="45.4053267" lon="14.2699917"><ele>419.0</ele><time>2026-04-30T14:11:31.133Z</time></trkpt><trkpt lat="45.4055433" lon="14.2701367"><ele>417.79999999999995</ele><time>2026-04-30T14:11:33.08Z</time></trkpt><trkpt lat="45.4056417" lon="14.2702217"><ele>416.59999999999997</ele><time>2026-04-30T14:11:34.085Z</time></trkpt><trkpt lat="45.40573" lon="14.2703167"><ele>415.4</ele><time>2026-04-30T14:11:35.092Z</time></trkpt><trkpt lat="45.4058133" lon="14.27042"><ele>414.2</ele><time>2026-04-30T14:11:36.098Z</time></trkpt><trkpt lat="45.4058817" lon="14.2705367"><ele>413.0</ele><time>2026-04-30T14:11:37.105Z</time></trkpt><trkpt lat="45.405945" lon="14.270665"><ele>413.0</ele><time>2026-04-30T14:11:38.046Z</time></trkpt><trkpt lat="45.4060033" lon="14.2708117"><ele>413.0</ele><time>2026-04-30T14:11:39.118Z</time></trkpt><trkpt lat="45.40606" lon="14.2709717"><ele>413.0</ele><time>2026-04-30T14:11:40.058Z</time></trkpt><trkpt lat="45.4061167" lon="14.271135"><ele>413.0</ele><time>2026-04-30T14:11:41.133Z</time></trkpt><trkpt lat="45.40617" lon="14.271295"><ele>413.25</ele><time>2026-04-30T14:11:42.072Z</time></trkpt><trkpt lat="45.4062133" lon="14.271455"><ele>413.5</ele><time>2026-04-30T14:11:43.079Z</time></trkpt><trkpt lat="45.40624" lon="14.2716133"><ele>413.75</ele><time>2026-04-30T14:11:44.084Z</time></trkpt><trkpt lat="45.4062533" lon="14.2717733"><ele>414.0</ele><time>2026-04-30T14:11:45.092Z</time></trkpt><trkpt lat="45.406255" lon="14.2719317"><ele>414.0</ele><time>2026-04-30T14:11:46.165Z</time></trkpt><trkpt lat="45.406245" lon="14.2720867"><ele>414.0</ele><time>2026-04-30T14:11:47.104Z</time></trkpt><trkpt lat="45.40623" lon="14.2722433"><ele>414.0</ele><time>2026-04-30T14:11:48.045Z</time></trkpt><trkpt lat="45.4062117" lon="14.27241"><ele>414.0</ele><time>2026-04-30T14:11:49.119Z</time></trkpt><trkpt lat="45.40619" lon="14.2725867"><ele>413.75</ele><time>2026-04-30T14:11:50.057Z</time></trkpt><trkpt lat="45.4061617" lon="14.2727717"><ele>413.5</ele><time>2026-04-30T14:11:51.131Z</time></trkpt><trkpt lat="45.4061283" lon="14.2729617"><ele>413.25</ele><time>2026-04-30T14:11:52.071Z</time></trkpt><trkpt lat="45.4060983" lon="14.2731533"><ele>413.0</ele><time>2026-04-30T14:11:53.077Z</time></trkpt><trkpt lat="45.406065" lon="14.2733533"><ele>410.3333333333333</ele><time>2026-04-30T14:11:54.152Z</time></trkpt><trkpt lat="45.4060317" lon="14.2735617"><ele>407.66666666666663</ele><time>2026-04-30T14:11:55.09Z</time></trkpt><trkpt lat="45.4060017" lon="14.2737733"><ele>405.0</ele><time>2026-04-30T14:11:56.165Z</time></trkpt><trkpt lat="45.4059733" lon="14.2739817"><ele>402.75</ele><time>2026-04-30T14:11:57.104Z</time></trkpt><trkpt lat="45.4059467" lon="14.27419"><ele>400.5</ele><time>2026-04-30T14:11:58.044Z</time></trkpt><trkpt lat="45.405915" lon="14.2743867"><ele>398.25</ele><time>2026-04-30T14:11:59.117Z</time></trkpt><trkpt lat="45.4058917" lon="14.2745833"><ele>396.0</ele><time>2026-04-30T14:12:00.057Z</time></trkpt><trkpt lat="45.4058667" lon="14.2747733"><ele>394.5</ele><time>2026-04-30T14:12:01.063Z</time></trkpt><trkpt lat="45.4058417" lon="14.2749667"><ele>393.0</ele><time>2026-04-30T14:12:02.071Z</time></trkpt><trkpt lat="45.4058167" lon="14.2751617"><ele>391.5</ele><time>2026-04-30T14:12:03.076Z</time></trkpt><trkpt lat="45.4057933" lon="14.2753633"><ele>390.0</ele><time>2026-04-30T14:12:04.15Z</time></trkpt><trkpt lat="45.4057667" lon="14.2755667"><ele>388.0</ele><time>2026-04-30T14:12:05.089Z</time></trkpt><trkpt lat="45.40574" lon="14.2757667"><ele>386.0</ele><time>2026-04-30T14:12:06.03Z</time></trkpt><trkpt lat="45.405715" lon="14.2759717"><ele>384.0</ele><time>2026-04-30T14:12:07.103Z</time></trkpt><trkpt lat="45.40569" lon="14.2761783"><ele>382.0</ele><time>2026-04-30T14:12:08.043Z</time></trkpt><trkpt lat="45.4056617" lon="14.2763833"><ele>380.0</ele><time>2026-04-30T14:12:09.116Z</time></trkpt><trkpt lat="45.4056333" lon="14.2765883"><ele>378.0</ele><time>2026-04-30T14:12:10.056Z</time></trkpt><trkpt lat="45.4056" lon="14.2767917"><ele>376.0</ele><time>2026-04-30T14:12:11.062Z</time></trkpt><trkpt lat="45.4055617" lon="14.276995"><ele>374.0</ele><time>2026-04-30T14:12:12.136Z</time></trkpt><trkpt lat="45.405515" lon="14.2771983"><ele>380.6666666666667</ele><time>2026-04-30T14:12:13.076Z</time></trkpt><trkpt lat="45.4054633" lon="14.2774017"><ele>387.33333333333337</ele><time>2026-04-30T14:12:14.149Z</time></trkpt><trkpt lat="45.4054117" lon="14.277605"><ele>394.0</ele><time>2026-04-30T14:12:15.089Z</time></trkpt><trkpt lat="45.4053567" lon="14.2778117"><ele>394.0</ele><time>2026-04-30T14:12:16.028Z</time></trkpt><trkpt lat="45.4052983" lon="14.27803"><ele>394.0</ele><time>2026-04-30T14:12:17.103Z</time></trkpt><trkpt lat="45.4052383" lon="14.2782583"><ele>394.0</ele><time>2026-04-30T14:12:18.041Z</time></trkpt><trkpt lat="45.405185" lon="14.278495"><ele>389.0</ele><time>2026-04-30T14:12:19.115Z</time></trkpt><trkpt lat="45.4051333" lon="14.2787283"><ele>384.0</ele><time>2026-04-30T14:12:20.122Z</time></trkpt><trkpt lat="45.4050933" lon="14.2789517"><ele>379.0</ele><time>2026-04-30T14:12:21.061Z</time></trkpt><trkpt lat="45.4050533" lon="14.2791667"><ele>377.0</ele><time>2026-04-30T14:12:22.135Z</time></trkpt><trkpt lat="45.405015" lon="14.2793733"><ele>375.0</ele><time>2026-04-30T14:12:23.075Z</time></trkpt><trkpt lat="45.404975" lon="14.2795767"><ele>373.0</ele><time>2026-04-30T14:12:24.149Z</time></trkpt><trkpt lat="45.4049283" lon="14.2797767"><ele>371.0</ele><time>2026-04-30T14:12:25.089Z</time></trkpt><trkpt lat="45.4048867" lon="14.2799783"><ele>367.75</ele><time>2026-04-30T14:12:26.028Z</time></trkpt><trkpt lat="45.4048417" lon="14.2801783"><ele>364.5</ele><time>2026-04-30T14:12:27.102Z</time></trkpt><trkpt lat="45.4047933" lon="14.2803783"><ele>361.25</ele><time>2026-04-30T14:12:28.109Z</time></trkpt><trkpt lat="45.4047467" lon="14.28058"><ele>358.0</ele><time>2026-04-30T14:12:29.115Z</time></trkpt><trkpt lat="45.4047" lon="14.2807817"><ele>362.66666666666663</ele><time>2026-04-30T14:12:30.121Z</time></trkpt><trkpt lat="45.4046583" lon="14.2809933"><ele>367.3333333333333</ele><time>2026-04-30T14:12:31.062Z</time></trkpt><trkpt lat="45.4046133" lon="14.2812067"><ele>372.0</ele><time>2026-04-30T14:12:32.134Z</time></trkpt><trkpt lat="45.4045633" lon="14.28142"><ele>368.0</ele><time>2026-04-30T14:12:33.075Z</time></trkpt><trkpt lat="45.404515" lon="14.2816317"><ele>364.0</ele><time>2026-04-30T14:12:34.148Z</time></trkpt><trkpt lat="45.4044683" lon="14.2818367"><ele>360.0</ele><time>2026-04-30T14:12:35.088Z</time></trkpt><trkpt lat="45.4044233" lon="14.2820333"><ele>360.0</ele><time>2026-04-30T14:12:36.094Z</time></trkpt><trkpt lat="45.4043767" lon="14.2822217"><ele>360.0</ele><time>2026-04-30T14:12:37.1Z</time></trkpt><trkpt lat="45.4043317" lon="14.2824033"><ele>360.0</ele><time>2026-04-30T14:12:38.108Z</time></trkpt><trkpt lat="45.404295" lon="14.282575"><ele>360.0</ele><time>2026-04-30T14:12:39.114Z</time></trkpt><trkpt lat="45.4042717" lon="14.2827417"><ele>357.75</ele><time>2026-04-30T14:12:40.12Z</time></trkpt><trkpt lat="45.40427" lon="14.2829033"><ele>355.5</ele><time>2026-04-30T14:12:41.06Z</time></trkpt><trkpt lat="45.4042983" lon="14.2830583"><ele>353.25</ele><time>2026-04-30T14:12:42.134Z</time></trkpt><trkpt lat="45.404355" lon="14.28321"><ele>351.0</ele><time>2026-04-30T14:12:43.073Z</time></trkpt><trkpt lat="45.4044267" lon="14.28335"><ele>350.8</ele><time>2026-04-30T14:12:44.147Z</time></trkpt><trkpt lat="45.40451" lon="14.2834783"><ele>350.6</ele><time>2026-04-30T14:12:45.087Z</time></trkpt><trkpt lat="45.404595" lon="14.2835917"><ele>350.4</ele><time>2026-04-30T14:12:46.094Z</time></trkpt><trkpt lat="45.4046683" lon="14.2837033"><ele>350.2</ele><time>2026-04-30T14:12:47.101Z</time></trkpt><trkpt lat="45.4047267" lon="14.2838233"><ele>350.0</ele><time>2026-04-30T14:12:48.107Z</time></trkpt><trkpt lat="45.4047717" lon="14.2839517"><ele>348.5</ele><time>2026-04-30T14:12:49.114Z</time></trkpt><trkpt lat="45.4047933" lon="14.2841033"><ele>347.0</ele><time>2026-04-30T14:12:50.12Z</time></trkpt><trkpt lat="45.4047983" lon="14.28427"><ele>345.5</ele><time>2026-04-30T14:12:51.059Z</time></trkpt><trkpt lat="45.4047883" lon="14.284455"><ele>344.0</ele><time>2026-04-30T14:12:52.134Z</time></trkpt><trkpt lat="45.404765" lon="14.2846583"><ele>342.6666666666667</ele><time>2026-04-30T14:12:53.072Z</time></trkpt><trkpt lat="45.4047383" lon="14.2848783"><ele>341.3333333333333</ele><time>2026-04-30T14:12:54.146Z</time></trkpt><trkpt lat="45.40471" lon="14.285115"><ele>340.0</ele><time>2026-04-30T14:12:55.086Z</time></trkpt><trkpt lat="45.4046833" lon="14.285355"><ele>340.0</ele><time>2026-04-30T14:12:56.093Z</time></trkpt><trkpt lat="45.40465" lon="14.28559"><ele>340.0</ele><time>2026-04-30T14:12:57.099Z</time></trkpt><trkpt lat="45.4046183" lon="14.2858183"><ele>340.0</ele><time>2026-04-30T14:12:58.105Z</time></trkpt><trkpt lat="45.4046017" lon="14.28603"><ele>340.0</ele><time>2026-04-30T14:12:59.113Z</time></trkpt><trkpt lat="45.4046017" lon="14.2862217"><ele>340.0</ele><time>2026-04-30T14:13:00.119Z</time></trkpt><trkpt lat="45.4046333" lon="14.2863817"><ele>340.0</ele><time>2026-04-30T14:13:01.059Z</time></trkpt><trkpt lat="45.404695" lon="14.28652"><ele>340.0</ele><time>2026-04-30T14:13:02.133Z</time></trkpt><trkpt lat="45.4047783" lon="14.2866433"><ele>338.0</ele><time>2026-04-30T14:13:03.073Z</time></trkpt><trkpt lat="45.40488" lon="14.286765"><ele>336.0</ele><time>2026-04-30T14:13:04.146Z</time></trkpt><trkpt lat="45.40499" lon="14.2868883"><ele>334.0</ele><time>2026-04-30T14:13:05.085Z</time></trkpt><trkpt lat="45.40511" lon="14.2870083"><ele>332.0</ele><time>2026-04-30T14:13:06.092Z</time></trkpt><trkpt lat="45.405235" lon="14.2871083"><ele>332.0</ele><time>2026-04-30T14:13:07.098Z</time></trkpt><trkpt lat="45.4053683" lon="14.2871817"><ele>332.0</ele><time>2026-04-30T14:13:08.105Z</time></trkpt><trkpt lat="45.4055067" lon="14.287235"><ele>332.0</ele><time>2026-04-30T14:13:09.112Z</time></trkpt><trkpt lat="45.4056533" lon="14.287285"><ele>332.0</ele><time>2026-04-30T14:13:10.119Z</time></trkpt><trkpt lat="45.4057983" lon="14.287345"><ele>327.0</ele><time>2026-04-30T14:13:11.059Z</time></trkpt><trkpt lat="45.4059433" lon="14.2874233"><ele>322.0</ele><time>2026-04-30T14:13:12.132Z</time></trkpt><trkpt lat="45.40609" lon="14.2875233"><ele>317.0</ele><time>2026-04-30T14:13:13.071Z</time></trkpt><trkpt lat="45.4062333" lon="14.287635"><ele>314.6666666666667</ele><time>2026-04-30T14:13:14.146Z</time></trkpt><trkpt lat="45.4063767" lon="14.2877517"><ele>312.3333333333333</ele><time>2026-04-30T14:13:15.085Z</time></trkpt><trkpt lat="45.4065267" lon="14.2878717"><ele>310.0</ele><time>2026-04-30T14:13:16.092Z</time></trkpt><trkpt lat="45.40668" lon="14.2879967"><ele>308.0</ele><time>2026-04-30T14:13:17.097Z</time></trkpt><trkpt lat="45.4068333" lon="14.2881267"><ele>306.0</ele><time>2026-04-30T14:13:18.104Z</time></trkpt><trkpt lat="45.4069867" lon="14.288255"><ele>304.0</ele><time>2026-04-30T14:13:19.111Z</time></trkpt><trkpt lat="45.4071383" lon="14.2883917"><ele>307.0</ele><time>2026-04-30T14:13:20.118Z</time></trkpt><trkpt lat="45.4072883" lon="14.2885283"><ele>310.0</ele><time>2026-04-30T14:13:21.057Z</time></trkpt><trkpt lat="45.4074383" lon="14.2886633"><ele>313.0</ele><time>2026-04-30T14:13:22.131Z</time></trkpt><trkpt lat="45.4075883" lon="14.28879"><ele>313.0</ele><time>2026-04-30T14:13:23.071Z</time></trkpt><trkpt lat="45.4077383" lon="14.28891"><ele>313.0</ele><time>2026-04-30T14:13:24.145Z</time></trkpt><trkpt lat="45.4078867" lon="14.28902"><ele>313.0</ele><time>2026-04-30T14:13:25.083Z</time></trkpt><trkpt lat="45.4080333" lon="14.289125"><ele>313.66666666666663</ele><time>2026-04-30T14:13:26.09Z</time></trkpt><trkpt lat="45.4081767" lon="14.2892267"><ele>314.3333333333333</ele><time>2026-04-30T14:13:27.097Z</time></trkpt><trkpt lat="45.40831" lon="14.289325"><ele>315.0</ele><time>2026-04-30T14:13:28.104Z</time></trkpt><trkpt lat="45.408435" lon="14.2894183"><ele>315.0</ele><time>2026-04-30T14:13:29.111Z</time></trkpt><trkpt lat="45.4085583" lon="14.289505"><ele>315.0</ele><time>2026-04-30T14:13:30.116Z</time></trkpt><trkpt lat="45.4086867" lon="14.28958"><ele>315.0</ele><time>2026-04-30T14:13:31.056Z</time></trkpt><trkpt lat="45.4088217" lon="14.28964"><ele>315.0</ele><time>2026-04-30T14:13:32.13Z</time></trkpt><trkpt lat="45.408955" lon="14.28969"><ele>315.25</ele><time>2026-04-30T14:13:33.069Z</time></trkpt><trkpt lat="45.40909" lon="14.28974"><ele>315.5</ele><time>2026-04-30T14:13:34.076Z</time></trkpt><trkpt lat="45.4092283" lon="14.28979"><ele>315.75</ele><time>2026-04-30T14:13:35.082Z</time></trkpt><trkpt lat="45.4093633" lon="14.2898383"><ele>316.0</ele><time>2026-04-30T14:13:36.09Z</time></trkpt><trkpt lat="45.4094983" lon="14.28989"><ele>316.0</ele><time>2026-04-30T14:13:37.097Z</time></trkpt><trkpt lat="45.40963" lon="14.2899467"><ele>316.0</ele><time>2026-04-30T14:13:38.103Z</time></trkpt><trkpt lat="45.4097533" lon="14.2900183"><ele>316.0</ele><time>2026-04-30T14:13:39.042Z</time></trkpt><trkpt lat="45.4098683" lon="14.2901133"><ele>316.0</ele><time>2026-04-30T14:13:40.117Z</time></trkpt><trkpt lat="45.4099717" lon="14.2902383"><ele>319.0</ele><time>2026-04-30T14:13:41.055Z</time></trkpt><trkpt lat="45.4101533" lon="14.29053"><ele>322.0</ele><time>2026-04-30T14:13:43.068Z</time></trkpt><trkpt lat="45.410225" lon="14.2906883"><ele>325.0</ele><time>2026-04-30T14:13:44.075Z</time></trkpt><trkpt lat="45.4103" lon="14.2908483"><ele>325.0</ele><time>2026-04-30T14:13:45.083Z</time></trkpt><trkpt lat="45.410385" lon="14.2909983"><ele>325.0</ele><time>2026-04-30T14:13:46.088Z</time></trkpt><trkpt lat="45.4104817" lon="14.291125"><ele>325.0</ele><time>2026-04-30T14:13:47.096Z</time></trkpt><trkpt lat="45.4105933" lon="14.2912283"><ele>325.0</ele><time>2026-04-30T14:13:48.103Z</time></trkpt><trkpt lat="45.4107183" lon="14.2913067"><ele>325.5</ele><time>2026-04-30T14:13:49.041Z</time></trkpt><trkpt lat="45.4108583" lon="14.2913617"><ele>326.0</ele><time>2026-04-30T14:13:50.115Z</time></trkpt><trkpt lat="45.4110017" lon="14.29141"><ele>326.5</ele><time>2026-04-30T14:13:51.055Z</time></trkpt><trkpt lat="45.4111483" lon="14.2914533"><ele>327.0</ele><time>2026-04-30T14:13:52.129Z</time></trkpt><trkpt lat="45.4112917" lon="14.2914933"><ele>327.5</ele><time>2026-04-30T14:13:53.069Z</time></trkpt><trkpt lat="45.4114283" lon="14.2915333"><ele>328.0</ele><time>2026-04-30T14:13:54.075Z</time></trkpt><trkpt lat="45.41156" lon="14.291575"><ele>328.5</ele><time>2026-04-30T14:13:55.082Z</time></trkpt><trkpt lat="45.4116867" lon="14.2916217"><ele>329.0</ele><time>2026-04-30T14:13:56.089Z</time></trkpt><trkpt lat="45.411805" lon="14.2916933"><ele>329.0</ele><time>2026-04-30T14:13:57.095Z</time></trkpt><trkpt lat="45.4119167" lon="14.2917917"><ele>329.0</ele><time>2026-04-30T14:13:58.101Z</time></trkpt><trkpt lat="45.4120233" lon="14.29191"><ele>329.0</ele><time>2026-04-30T14:13:59.041Z</time></trkpt><trkpt lat="45.4121317" lon="14.2920367"><ele>329.0</ele><time>2026-04-30T14:14:00.114Z</time></trkpt><trkpt lat="45.4122333" lon="14.2921667"><ele>331.25</ele><time>2026-04-30T14:14:01.054Z</time></trkpt><trkpt lat="45.4123317" lon="14.292295"><ele>333.5</ele><time>2026-04-30T14:14:02.127Z</time></trkpt><trkpt lat="45.4124283" lon="14.2924133"><ele>335.75</ele><time>2026-04-30T14:14:03.067Z</time></trkpt><trkpt lat="45.4125233" lon="14.29253"><ele>338.0</ele><time>2026-04-30T14:14:04.075Z</time></trkpt><trkpt lat="45.41262" lon="14.2926483"><ele>338.0</ele><time>2026-04-30T14:14:05.081Z</time></trkpt><trkpt lat="45.4127183" lon="14.29277"><ele>338.0</ele><time>2026-04-30T14:14:06.088Z</time></trkpt><trkpt lat="45.4128167" lon="14.2928917"><ele>338.0</ele><time>2026-04-30T14:14:07.093Z</time></trkpt><trkpt lat="45.41291" lon="14.2930117"><ele>338.0</ele><time>2026-04-30T14:14:08.101Z</time></trkpt><trkpt lat="45.4130017" lon="14.2931333"><ele>337.0</ele><time>2026-04-30T14:14:09.04Z</time></trkpt><trkpt lat="45.4130883" lon="14.293255"><ele>336.0</ele><time>2026-04-30T14:14:10.114Z</time></trkpt><trkpt lat="45.4131717" lon="14.2933867"><ele>335.0</ele><time>2026-04-30T14:14:11.053Z</time></trkpt><trkpt lat="45.4132467" lon="14.2935283"><ele>334.0</ele><time>2026-04-30T14:14:12.127Z</time></trkpt><trkpt lat="45.4133117" lon="14.2936833"><ele>334.0</ele><time>2026-04-30T14:14:13.066Z</time></trkpt><trkpt lat="45.4133633" lon="14.2938517"><ele>334.0</ele><time>2026-04-30T14:14:14.074Z</time></trkpt><trkpt lat="45.4134083" lon="14.2940283"><ele>334.0</ele><time>2026-04-30T14:14:15.08Z</time></trkpt><trkpt lat="45.41345" lon="14.2942083"><ele>334.0</ele><time>2026-04-30T14:14:16.087Z</time></trkpt><trkpt lat="45.4134933" lon="14.2943867"><ele>334.25</ele><time>2026-04-30T14:14:17.161Z</time></trkpt><trkpt lat="45.4135333" lon="14.2945667"><ele>334.5</ele><time>2026-04-30T14:14:18.099Z</time></trkpt><trkpt lat="45.4135733" lon="14.294745"><ele>334.75</ele><time>2026-04-30T14:14:19.04Z</time></trkpt><trkpt lat="45.4136117" lon="14.2949167"><ele>335.0</ele><time>2026-04-30T14:14:20.114Z</time></trkpt><trkpt lat="45.41365" lon="14.295085"><ele>336.25</ele><time>2026-04-30T14:14:21.053Z</time></trkpt><trkpt lat="45.41369" lon="14.2952517"><ele>337.5</ele><time>2026-04-30T14:14:22.126Z</time></trkpt><trkpt lat="45.4137317" lon="14.2954167"><ele>338.75</ele><time>2026-04-30T14:14:23.065Z</time></trkpt><trkpt lat="45.4137733" lon="14.2955767"><ele>340.0</ele><time>2026-04-30T14:14:24.072Z</time></trkpt><trkpt lat="45.4138133" lon="14.2957383"><ele>340.25</ele><time>2026-04-30T14:14:25.146Z</time></trkpt><trkpt lat="45.4138517" lon="14.2959"><ele>340.5</ele><time>2026-04-30T14:14:26.086Z</time></trkpt><trkpt lat="45.4138917" lon="14.2960633"><ele>340.75</ele><time>2026-04-30T14:14:27.159Z</time></trkpt><trkpt lat="45.4139367" lon="14.296225"><ele>341.0</ele><time>2026-04-30T14:14:28.098Z</time></trkpt><trkpt lat="45.413995" lon="14.2963833"><ele>342.25</ele><time>2026-04-30T14:14:29.039Z</time></trkpt><trkpt lat="45.414065" lon="14.29654"><ele>343.5</ele><time>2026-04-30T14:14:30.113Z</time></trkpt><trkpt lat="45.4141533" lon="14.2966867"><ele>344.75</ele><time>2026-04-30T14:14:31.052Z</time></trkpt><trkpt lat="45.4142467" lon="14.296825"><ele>346.0</ele><time>2026-04-30T14:14:32.126Z</time></trkpt><trkpt lat="45.4143383" lon="14.296955"><ele>346.0</ele><time>2026-04-30T14:14:33.066Z</time></trkpt><trkpt lat="45.41442" lon="14.29709"><ele>346.0</ele><time>2026-04-30T14:14:34.072Z</time></trkpt><trkpt lat="45.4144883" lon="14.2972433"><ele>346.0</ele><time>2026-04-30T14:14:35.145Z</time></trkpt><trkpt lat="45.4145367" lon="14.2974067"><ele>346.0</ele><time>2026-04-30T14:14:36.085Z</time></trkpt><trkpt lat="45.4145567" lon="14.297575"><ele>346.75</ele><time>2026-04-30T14:14:37.159Z</time></trkpt><trkpt lat="45.4145533" lon="14.297755"><ele>347.5</ele><time>2026-04-30T14:14:38.099Z</time></trkpt><trkpt lat="45.4145317" lon="14.2979383"><ele>348.25</ele><time>2026-04-30T14:14:39.038Z</time></trkpt><trkpt lat="45.4144883" lon="14.298115"><ele>349.0</ele><time>2026-04-30T14:14:40.111Z</time></trkpt><trkpt lat="45.4144283" lon="14.2982767"><ele>349.0</ele><time>2026-04-30T14:14:41.05Z</time></trkpt><trkpt lat="45.4143667" lon="14.2984033"><ele>349.0</ele><time>2026-04-30T14:14:42.125Z</time></trkpt><trkpt lat="45.4143133" lon="14.2984833"><ele>349.0</ele><time>2026-04-30T14:14:43.132Z</time></trkpt><trkpt lat="45.4142467" lon="14.2985617"><ele>349.0</ele><time>2026-04-30T14:14:45.145Z</time></trkpt><trkpt lat="45.4142167" lon="14.2986633"><ele>349.0</ele><time>2026-04-30T14:19:35.055Z</time></trkpt><trkpt lat="45.41415" lon="14.2988"><ele>349.0</ele><time>2026-04-30T14:19:37.135Z</time></trkpt><trkpt lat="45.4141017" lon="14.298895"><ele>349.0</ele><time>2026-04-30T14:19:38.075Z</time></trkpt><trkpt lat="45.4140417" lon="14.29901"><ele>349.0</ele><time>2026-04-30T14:19:39.148Z</time></trkpt><trkpt lat="45.4139733" lon="14.29914"><ele>349.0</ele><time>2026-04-30T14:19:40.088Z</time></trkpt><trkpt lat="45.4138983" lon="14.2992867"><ele>349.0</ele><time>2026-04-30T14:19:41.028Z</time></trkpt><trkpt lat="45.41382" lon="14.2994517"><ele>349.3333333333333</ele><time>2026-04-30T14:19:42.102Z</time></trkpt><trkpt lat="45.4137417" lon="14.2996317"><ele>349.6666666666667</ele><time>2026-04-30T14:19:43.04Z</time></trkpt><trkpt lat="45.4136583" lon="14.2998283"><ele>350.0</ele><time>2026-04-30T14:19:44.115Z</time></trkpt><trkpt lat="45.4135767" lon="14.30003"><ele>350.6666666666667</ele><time>2026-04-30T14:19:45.122Z</time></trkpt><trkpt lat="45.4135033" lon="14.3002433"><ele>351.3333333333333</ele><time>2026-04-30T14:19:46.061Z</time></trkpt><trkpt lat="45.4134167" lon="14.3004583"><ele>352.0</ele><time>2026-04-30T14:19:47.135Z</time></trkpt><trkpt lat="45.4133333" lon="14.300665"><ele>352.66666666666663</ele><time>2026-04-30T14:19:48.074Z</time></trkpt><trkpt lat="45.4132467" lon="14.30087"><ele>353.3333333333333</ele><time>2026-04-30T14:19:49.147Z</time></trkpt><trkpt lat="45.4131667" lon="14.3010733"><ele>354.0</ele><time>2026-04-30T14:19:50.088Z</time></trkpt><trkpt lat="45.413105" lon="14.3012717"><ele>354.5</ele><time>2026-04-30T14:19:51.026Z</time></trkpt><trkpt lat="45.4130683" lon="14.3014567"><ele>355.0</ele><time>2026-04-30T14:19:52.101Z</time></trkpt><trkpt lat="45.413045" lon="14.3016383"><ele>355.5</ele><time>2026-04-30T14:19:53.107Z</time></trkpt><trkpt lat="45.41303" lon="14.3018183"><ele>356.0</ele><time>2026-04-30T14:19:54.114Z</time></trkpt><trkpt lat="45.4130233" lon="14.3019933"><ele>356.0</ele><time>2026-04-30T14:19:55.121Z</time></trkpt><trkpt lat="45.41302" lon="14.3021617"><ele>356.0</ele><time>2026-04-30T14:19:56.059Z</time></trkpt><trkpt lat="45.4130217" lon="14.3023167"><ele>356.0</ele><time>2026-04-30T14:19:57.133Z</time></trkpt><trkpt lat="45.4130217" lon="14.3024583"><ele>356.0</ele><time>2026-04-30T14:19:58.074Z</time></trkpt><trkpt lat="45.4130233" lon="14.3025917"><ele>356.0</ele><time>2026-04-30T14:19:59.148Z</time></trkpt><trkpt lat="45.4130233" lon="14.3027117"><ele>356.33333333333337</ele><time>2026-04-30T14:20:00.086Z</time></trkpt><trkpt lat="45.4130183" lon="14.3028083"><ele>356.6666666666667</ele><time>2026-04-30T14:20:01.093Z</time></trkpt><trkpt lat="45.41299" lon="14.3029233"><ele>357.0</ele><time>2026-04-30T14:20:03.106Z</time></trkpt><trkpt lat="45.4129417" lon="14.3029817"><ele>357.3333333333333</ele><time>2026-04-30T14:20:05.12Z</time></trkpt><trkpt lat="45.4128367" lon="14.303005"><ele>357.66666666666663</ele><time>2026-04-30T14:20:07.133Z</time></trkpt><trkpt lat="45.4127633" lon="14.3030033"><ele>358.0</ele><time>2026-04-30T14:20:08.072Z</time></trkpt><trkpt lat="45.412675" lon="14.302995"><ele>358.0</ele><time>2026-04-30T14:20:09.146Z</time></trkpt><trkpt lat="45.4125767" lon="14.302975"><ele>358.0</ele><time>2026-04-30T14:20:10.086Z</time></trkpt><trkpt lat="45.4124717" lon="14.3029583"><ele>358.0</ele><time>2026-04-30T14:20:11.092Z</time></trkpt><trkpt lat="45.41236" lon="14.3029367"><ele>358.0</ele><time>2026-04-30T14:20:12.1Z</time></trkpt><trkpt lat="45.41224" lon="14.3029133"><ele>358.0</ele><time>2026-04-30T14:20:13.105Z</time></trkpt><trkpt lat="45.412115" lon="14.30289"><ele>358.0</ele><time>2026-04-30T14:20:14.112Z</time></trkpt><trkpt lat="45.4119883" lon="14.3028667"><ele>358.0</ele><time>2026-04-30T14:20:15.119Z</time></trkpt><trkpt lat="45.411865" lon="14.302845"><ele>358.0</ele><time>2026-04-30T14:20:16.058Z</time></trkpt><trkpt lat="45.4117433" lon="14.3028283"><ele>358.0</ele><time>2026-04-30T14:20:17.133Z</time></trkpt><trkpt lat="45.411625" lon="14.3028233"><ele>358.0</ele><time>2026-04-30T14:20:18.071Z</time></trkpt><trkpt lat="45.411505" lon="14.302835"><ele>358.0</ele><time>2026-04-30T14:20:19.145Z</time></trkpt><trkpt lat="45.4113833" lon="14.3028583"><ele>358.0</ele><time>2026-04-30T14:20:20.084Z</time></trkpt><trkpt lat="45.4112567" lon="14.30289"><ele>358.0</ele><time>2026-04-30T14:20:21.092Z</time></trkpt><trkpt lat="45.4111317" lon="14.3029267"><ele>358.25</ele><time>2026-04-30T14:20:22.098Z</time></trkpt><trkpt lat="45.4110083" lon="14.3029667"><ele>358.5</ele><time>2026-04-30T14:20:23.105Z</time></trkpt><trkpt lat="45.4108783" lon="14.3030067"><ele>358.75</ele><time>2026-04-30T14:20:24.112Z</time></trkpt><trkpt lat="45.4107417" lon="14.3030483"><ele>359.0</ele><time>2026-04-30T14:20:25.119Z</time></trkpt><trkpt lat="45.4105967" lon="14.3030933"><ele>359.33333333333337</ele><time>2026-04-30T14:20:26.057Z</time></trkpt><trkpt lat="45.410445" lon="14.30314"><ele>359.6666666666667</ele><time>2026-04-30T14:20:27.131Z</time></trkpt><trkpt lat="45.4102883" lon="14.30319"><ele>360.0</ele><time>2026-04-30T14:20:28.071Z</time></trkpt><trkpt lat="45.4101267" lon="14.3032383"><ele>360.0</ele><time>2026-04-30T14:20:29.144Z</time></trkpt><trkpt lat="45.409965" lon="14.3032867"><ele>360.0</ele><time>2026-04-30T14:20:30.084Z</time></trkpt><trkpt lat="45.4098067" lon="14.303335"><ele>360.0</ele><time>2026-04-30T14:20:31.091Z</time></trkpt><trkpt lat="45.4096467" lon="14.3033817"><ele>360.0</ele><time>2026-04-30T14:20:32.097Z</time></trkpt><trkpt lat="45.409485" lon="14.3034317"><ele>360.0</ele><time>2026-04-30T14:20:33.104Z</time></trkpt><trkpt lat="45.4093233" lon="14.3034833"><ele>360.0</ele><time>2026-04-30T14:20:34.111Z</time></trkpt><trkpt lat="45.4091617" lon="14.303535"><ele>360.0</ele><time>2026-04-30T14:20:35.117Z</time></trkpt><trkpt lat="45.4089967" lon="14.3035867"><ele>360.0</ele><time>2026-04-30T14:20:36.057Z</time></trkpt><trkpt lat="45.4088317" lon="14.3036367"><ele>360.0</ele><time>2026-04-30T14:20:37.13Z</time></trkpt><trkpt lat="45.4086667" lon="14.303685"><ele>360.6666666666667</ele><time>2026-04-30T14:20:38.07Z</time></trkpt><trkpt lat="45.4085" lon="14.303735"><ele>361.33333333333337</ele><time>2026-04-30T14:20:39.143Z</time></trkpt><trkpt lat="45.4083333" lon="14.303785"><ele>362.0</ele><time>2026-04-30T14:20:40.083Z</time></trkpt><trkpt lat="45.40817" lon="14.3038383"><ele>362.0</ele><time>2026-04-30T14:20:41.09Z</time></trkpt><trkpt lat="45.4080067" lon="14.3038917"><ele>362.0</ele><time>2026-04-30T14:20:42.097Z</time></trkpt><trkpt lat="45.407845" lon="14.3039433"><ele>362.0</ele><time>2026-04-30T14:20:43.103Z</time></trkpt><trkpt lat="45.4076817" lon="14.3039933"><ele>360.6666666666667</ele><time>2026-04-30T14:20:44.109Z</time></trkpt><trkpt lat="45.407515" lon="14.3040417"><ele>359.3333333333333</ele><time>2026-04-30T14:20:45.117Z</time></trkpt><trkpt lat="45.4073467" lon="14.304085"><ele>358.0</ele><time>2026-04-30T14:20:46.057Z</time></trkpt><trkpt lat="45.4071733" lon="14.3041183"><ele>358.0</ele><time>2026-04-30T14:20:47.129Z</time></trkpt><trkpt lat="45.406995" lon="14.3041433"><ele>358.0</ele><time>2026-04-30T14:20:48.069Z</time></trkpt><trkpt lat="45.406815" lon="14.3041617"><ele>358.0</ele><time>2026-04-30T14:20:49.144Z</time></trkpt><trkpt lat="45.4066383" lon="14.3041833"><ele>358.0</ele><time>2026-04-30T14:20:50.082Z</time></trkpt><trkpt lat="45.4064733" lon="14.3042033"><ele>358.0</ele><time>2026-04-30T14:20:51.09Z</time></trkpt><trkpt lat="45.4063167" lon="14.3042233"><ele>358.0</ele><time>2026-04-30T14:20:52.095Z</time></trkpt><trkpt lat="45.40617" lon="14.3042467"><ele>358.0</ele><time>2026-04-30T14:20:53.102Z</time></trkpt><trkpt lat="45.4060367" lon="14.3042867"><ele>358.0</ele><time>2026-04-30T14:20:54.109Z</time></trkpt><trkpt lat="45.4059133" lon="14.3043517"><ele>358.0</ele><time>2026-04-30T14:20:55.115Z</time></trkpt><trkpt lat="45.4057983" lon="14.304445"><ele>358.0</ele><time>2026-04-30T14:20:56.056Z</time></trkpt><trkpt lat="45.4056967" lon="14.30457"><ele>358.0</ele><time>2026-04-30T14:20:57.13Z</time></trkpt><trkpt lat="45.4056067" lon="14.3047233"><ele>358.0</ele><time>2026-04-30T14:20:58.068Z</time></trkpt><trkpt lat="45.4055233" lon="14.3048967"><ele>358.0</ele><time>2026-04-30T14:20:59.075Z</time></trkpt><trkpt lat="45.405435" lon="14.3050783"><ele>358.0</ele><time>2026-04-30T14:21:00.081Z</time></trkpt><trkpt lat="45.40534" lon="14.3052683"><ele>359.0</ele><time>2026-04-30T14:21:01.089Z</time></trkpt><trkpt lat="45.40524" lon="14.3054667"><ele>360.0</ele><time>2026-04-30T14:21:02.095Z</time></trkpt><trkpt lat="45.4051383" lon="14.3056733"><ele>361.0</ele><time>2026-04-30T14:21:03.101Z</time></trkpt><trkpt lat="45.40504" lon="14.3058767"><ele>361.0</ele><time>2026-04-30T14:21:04.041Z</time></trkpt><trkpt lat="45.404945" lon="14.3060683"><ele>361.0</ele><time>2026-04-30T14:21:05.116Z</time></trkpt><trkpt lat="45.404855" lon="14.306245"><ele>361.0</ele><time>2026-04-30T14:21:06.055Z</time></trkpt><trkpt lat="45.4047633" lon="14.3064033"><ele>361.0</ele><time>2026-04-30T14:21:07.128Z</time></trkpt><trkpt lat="45.4046633" lon="14.3065417"><ele>361.0</ele><time>2026-04-30T14:21:08.067Z</time></trkpt><trkpt lat="45.404545" lon="14.3066533"><ele>361.0</ele><time>2026-04-30T14:21:09.074Z</time></trkpt><trkpt lat="45.4042767" lon="14.3067967"><ele>361.0</ele><time>2026-04-30T14:21:11.087Z</time></trkpt><trkpt lat="45.4041267" lon="14.30683"><ele>361.0</ele><time>2026-04-30T14:21:12.094Z</time></trkpt><trkpt lat="45.4039717" lon="14.30686"><ele>361.0</ele><time>2026-04-30T14:21:13.1Z</time></trkpt><trkpt lat="45.4038117" lon="14.30689"><ele>362.0</ele><time>2026-04-30T14:21:14.04Z</time></trkpt><trkpt lat="45.403645" lon="14.3069183"><ele>363.0</ele><time>2026-04-30T14:21:15.114Z</time></trkpt><trkpt lat="45.4034767" lon="14.30695"><ele>364.0</ele><time>2026-04-30T14:21:16.053Z</time></trkpt><trkpt lat="45.4033033" lon="14.3069817"><ele>364.0</ele><time>2026-04-30T14:21:17.127Z</time></trkpt><trkpt lat="45.403135" lon="14.30701"><ele>364.0</ele><time>2026-04-30T14:21:18.067Z</time></trkpt><trkpt lat="45.4029783" lon="14.30704"><ele>364.0</ele><time>2026-04-30T14:21:19.073Z</time></trkpt><trkpt lat="45.4028267" lon="14.3070767"><ele>364.0</ele><time>2026-04-30T14:21:20.08Z</time></trkpt><trkpt lat="45.4026733" lon="14.30712"><ele>364.0</ele><time>2026-04-30T14:21:21.086Z</time></trkpt><trkpt lat="45.40252" lon="14.3071783"><ele>364.0</ele><time>2026-04-30T14:21:22.093Z</time></trkpt><trkpt lat="45.4023683" lon="14.307255"><ele>364.0</ele><time>2026-04-30T14:21:23.1Z</time></trkpt><trkpt lat="45.4022233" lon="14.307335"><ele>364.0</ele><time>2026-04-30T14:21:24.039Z</time></trkpt><trkpt lat="45.4020833" lon="14.3074167"><ele>364.0</ele><time>2026-04-30T14:21:25.114Z</time></trkpt><trkpt lat="45.4019483" lon="14.307495"><ele>363.75</ele><time>2026-04-30T14:21:26.053Z</time></trkpt><trkpt lat="45.4018117" lon="14.3075683"><ele>363.5</ele><time>2026-04-30T14:21:27.126Z</time></trkpt><trkpt lat="45.401675" lon="14.307635"><ele>363.25</ele><time>2026-04-30T14:21:28.067Z</time></trkpt><trkpt lat="45.4015317" lon="14.3076933"><ele>363.0</ele><time>2026-04-30T14:21:29.073Z</time></trkpt><trkpt lat="45.4013783" lon="14.3077417"><ele>361.6666666666667</ele><time>2026-04-30T14:21:30.08Z</time></trkpt><trkpt lat="45.4012217" lon="14.30778"><ele>360.33333333333337</ele><time>2026-04-30T14:21:31.086Z</time></trkpt><trkpt lat="45.401065" lon="14.3078083"><ele>359.0</ele><time>2026-04-30T14:21:32.093Z</time></trkpt><trkpt lat="45.4009083" lon="14.3078317"><ele>359.0</ele><time>2026-04-30T14:21:33.1Z</time></trkpt><trkpt lat="45.4007483" lon="14.3078517"><ele>359.0</ele><time>2026-04-30T14:21:34.039Z</time></trkpt><trkpt lat="45.4005917" lon="14.3078733"><ele>359.0</ele><time>2026-04-30T14:21:35.112Z</time></trkpt><trkpt lat="45.4004433" lon="14.3078983"><ele>359.33333333333337</ele><time>2026-04-30T14:21:36.052Z</time></trkpt><trkpt lat="45.4002967" lon="14.3079333"><ele>359.6666666666667</ele><time>2026-04-30T14:21:37.125Z</time></trkpt><trkpt lat="45.4001483" lon="14.3079867"><ele>360.0</ele><time>2026-04-30T14:21:38.065Z</time></trkpt><trkpt lat="45.4000017" lon="14.3080633"><ele>360.0</ele><time>2026-04-30T14:21:39.072Z</time></trkpt><trkpt lat="45.3998567" lon="14.30815"><ele>360.0</ele><time>2026-04-30T14:21:40.078Z</time></trkpt><trkpt lat="45.399715" lon="14.308235"><ele>360.0</ele><time>2026-04-30T14:21:41.086Z</time></trkpt><trkpt lat="45.3995817" lon="14.3083017"><ele>359.75</ele><time>2026-04-30T14:21:42.159Z</time></trkpt><trkpt lat="45.3994467" lon="14.3083483"><ele>359.5</ele><time>2026-04-30T14:21:43.099Z</time></trkpt><trkpt lat="45.399305" lon="14.3083667"><ele>359.25</ele><time>2026-04-30T14:21:44.039Z</time></trkpt><trkpt lat="45.39916" lon="14.3083617"><ele>359.0</ele><time>2026-04-30T14:21:45.111Z</time></trkpt><trkpt lat="45.39901" lon="14.30835"><ele>359.0</ele><time>2026-04-30T14:21:46.051Z</time></trkpt><trkpt lat="45.3988583" lon="14.308345"><ele>359.0</ele><time>2026-04-30T14:21:47.126Z</time></trkpt><trkpt lat="45.3987067" lon="14.3083517"><ele>359.0</ele><time>2026-04-30T14:21:48.064Z</time></trkpt><trkpt lat="45.398555" lon="14.30838"><ele>358.33333333333337</ele><time>2026-04-30T14:21:49.071Z</time></trkpt><trkpt lat="45.3984033" lon="14.30844"><ele>357.6666666666667</ele><time>2026-04-30T14:21:50.145Z</time></trkpt><trkpt lat="45.3982517" lon="14.3085233"><ele>357.0</ele><time>2026-04-30T14:21:51.085Z</time></trkpt><trkpt lat="45.3980983" lon="14.3086267"><ele>356.0</ele><time>2026-04-30T14:21:52.158Z</time></trkpt><trkpt lat="45.3979433" lon="14.3087417"><ele>355.0</ele><time>2026-04-30T14:21:53.097Z</time></trkpt><trkpt lat="45.3977867" lon="14.3088617"><ele>354.0</ele><time>2026-04-30T14:21:54.037Z</time></trkpt><trkpt lat="45.39763" lon="14.308985"><ele>353.3333333333333</ele><time>2026-04-30T14:21:55.111Z</time></trkpt><trkpt lat="45.3974717" lon="14.3091083"><ele>352.66666666666663</ele><time>2026-04-30T14:21:56.05Z</time></trkpt><trkpt lat="45.3973167" lon="14.309225"><ele>352.0</ele><time>2026-04-30T14:21:57.125Z</time></trkpt><trkpt lat="45.39716" lon="14.30934"><ele>350.3333333333333</ele><time>2026-04-30T14:21:58.131Z</time></trkpt><trkpt lat="45.397005" lon="14.3094517"><ele>348.6666666666667</ele><time>2026-04-30T14:21:59.07Z</time></trkpt><trkpt lat="45.3968517" lon="14.3095617"><ele>347.0</ele><time>2026-04-30T14:22:00.145Z</time></trkpt><trkpt lat="45.3966983" lon="14.30967"><ele>347.0</ele><time>2026-04-30T14:22:01.084Z</time></trkpt><trkpt lat="45.3965517" lon="14.3097683"><ele>347.0</ele><time>2026-04-30T14:22:02.157Z</time></trkpt><trkpt lat="45.3964133" lon="14.3098517"><ele>347.0</ele><time>2026-04-30T14:22:03.097Z</time></trkpt><trkpt lat="45.396275" lon="14.3099117"><ele>347.0</ele><time>2026-04-30T14:22:04.037Z</time></trkpt><trkpt lat="45.396135" lon="14.3099317"><ele>347.0</ele><time>2026-04-30T14:22:05.111Z</time></trkpt><trkpt lat="45.3959933" lon="14.309915"><ele>347.0</ele><time>2026-04-30T14:22:06.05Z</time></trkpt><trkpt lat="45.3958467" lon="14.3098717"><ele>347.0</ele><time>2026-04-30T14:22:07.123Z</time></trkpt><trkpt lat="45.3957017" lon="14.3098133"><ele>347.0</ele><time>2026-04-30T14:22:08.131Z</time></trkpt><trkpt lat="45.3955517" lon="14.3097533"><ele>347.0</ele><time>2026-04-30T14:22:09.069Z</time></trkpt><trkpt lat="45.3953933" lon="14.3097"><ele>347.0</ele><time>2026-04-30T14:22:10.143Z</time></trkpt><trkpt lat="45.3952383" lon="14.309655"><ele>347.0</ele><time>2026-04-30T14:22:11.083Z</time></trkpt><trkpt lat="45.395085" lon="14.30963"><ele>347.0</ele><time>2026-04-30T14:22:12.157Z</time></trkpt><trkpt lat="45.3947783" lon="14.3096417"><ele>347.25</ele><time>2026-04-30T14:22:14.035Z</time></trkpt><trkpt lat="45.3946233" lon="14.3096567"><ele>347.5</ele><time>2026-04-30T14:22:15.109Z</time></trkpt><trkpt lat="45.3944767" lon="14.3096683"><ele>347.75</ele><time>2026-04-30T14:22:16.116Z</time></trkpt><trkpt lat="45.3943383" lon="14.309665"><ele>348.0</ele><time>2026-04-30T14:22:17.123Z</time></trkpt><trkpt lat="45.39421" lon="14.3096367"><ele>348.0</ele><time>2026-04-30T14:22:18.129Z</time></trkpt><trkpt lat="45.3940933" lon="14.3095783"><ele>348.0</ele><time>2026-04-30T14:22:19.069Z</time></trkpt><trkpt lat="45.3939883" lon="14.3094817"><ele>348.0</ele><time>2026-04-30T14:22:20.142Z</time></trkpt><trkpt lat="45.3938867" lon="14.30936"><ele>348.0</ele><time>2026-04-30T14:22:21.082Z</time></trkpt><trkpt lat="45.3937833" lon="14.30923"><ele>347.75</ele><time>2026-04-30T14:22:22.156Z</time></trkpt><trkpt lat="45.3936767" lon="14.3091267"><ele>347.5</ele><time>2026-04-30T14:22:23.095Z</time></trkpt><trkpt lat="45.393565" lon="14.3090583"><ele>347.25</ele><time>2026-04-30T14:22:24.103Z</time></trkpt><trkpt lat="45.3934483" lon="14.30903"><ele>347.0</ele><time>2026-04-30T14:22:25.108Z</time></trkpt><trkpt lat="45.393325" lon="14.3090483"><ele>347.0</ele><time>2026-04-30T14:22:26.115Z</time></trkpt><trkpt lat="45.3931983" lon="14.3091"><ele>347.0</ele><time>2026-04-30T14:22:27.054Z</time></trkpt><trkpt lat="45.3930633" lon="14.3091683"><ele>347.0</ele><time>2026-04-30T14:22:28.128Z</time></trkpt><trkpt lat="45.3929217" lon="14.3092467"><ele>347.0</ele><time>2026-04-30T14:22:29.069Z</time></trkpt><trkpt lat="45.3927733" lon="14.3093217"><ele>346.0</ele><time>2026-04-30T14:22:30.141Z</time></trkpt><trkpt lat="45.39262" lon="14.309395"><ele>345.0</ele><time>2026-04-30T14:22:31.082Z</time></trkpt><trkpt lat="45.3924667" lon="14.3094733"><ele>344.0</ele><time>2026-04-30T14:22:32.089Z</time></trkpt><trkpt lat="45.392305" lon="14.309555"><ele>344.33333333333337</ele><time>2026-04-30T14:22:33.095Z</time></trkpt><trkpt lat="45.39214" lon="14.3096383"><ele>344.6666666666667</ele><time>2026-04-30T14:22:34.101Z</time></trkpt><trkpt lat="45.391975" lon="14.3097233"><ele>345.0</ele><time>2026-04-30T14:22:35.108Z</time></trkpt><trkpt lat="45.3918067" lon="14.3098067"><ele>345.0</ele><time>2026-04-30T14:22:36.115Z</time></trkpt><trkpt lat="45.391635" lon="14.3098933"><ele>345.0</ele><time>2026-04-30T14:22:37.054Z</time></trkpt><trkpt lat="45.3914633" lon="14.3099817"><ele>345.0</ele><time>2026-04-30T14:22:38.127Z</time></trkpt><trkpt lat="45.3912983" lon="14.310065"><ele>345.0</ele><time>2026-04-30T14:22:39.068Z</time></trkpt><trkpt lat="45.39114" lon="14.3101417"><ele>345.0</ele><time>2026-04-30T14:22:40.141Z</time></trkpt><trkpt lat="45.3909833" lon="14.31021"><ele>345.0</ele><time>2026-04-30T14:22:41.081Z</time></trkpt><trkpt lat="45.390825" lon="14.3102667"><ele>345.0</ele><time>2026-04-30T14:22:42.088Z</time></trkpt><trkpt lat="45.3906633" lon="14.3103033"><ele>345.0</ele><time>2026-04-30T14:22:43.093Z</time></trkpt><trkpt lat="45.3904967" lon="14.3103167"><ele>345.0</ele><time>2026-04-30T14:22:44.1Z</time></trkpt><trkpt lat="45.3903267" lon="14.3103133"><ele>345.6666666666667</ele><time>2026-04-30T14:22:45.107Z</time></trkpt><trkpt lat="45.390155" lon="14.3103033"><ele>346.33333333333337</ele><time>2026-04-30T14:22:46.114Z</time></trkpt><trkpt lat="45.38998" lon="14.3102917"><ele>347.0</ele><time>2026-04-30T14:22:47.054Z</time></trkpt><trkpt lat="45.3898083" lon="14.31028"><ele>348.33333333333337</ele><time>2026-04-30T14:22:48.127Z</time></trkpt><trkpt lat="45.3896367" lon="14.3102767"><ele>349.6666666666667</ele><time>2026-04-30T14:22:49.067Z</time></trkpt><trkpt lat="45.3894633" lon="14.31029"><ele>351.0</ele><time>2026-04-30T14:22:50.141Z</time></trkpt><trkpt lat="45.389295" lon="14.310325"><ele>351.0</ele><time>2026-04-30T14:22:51.079Z</time></trkpt><trkpt lat="45.38913" lon="14.3103867"><ele>351.0</ele><time>2026-04-30T14:22:52.087Z</time></trkpt><trkpt lat="45.38897" lon="14.310475"><ele>351.0</ele><time>2026-04-30T14:22:53.093Z</time></trkpt><trkpt lat="45.3888167" lon="14.31059"><ele>349.6666666666667</ele><time>2026-04-30T14:22:54.1Z</time></trkpt><trkpt lat="45.38867" lon="14.31073"><ele>348.33333333333337</ele><time>2026-04-30T14:22:55.107Z</time></trkpt><trkpt lat="45.3885267" lon="14.31089"><ele>347.0</ele><time>2026-04-30T14:22:56.114Z</time></trkpt><trkpt lat="45.38838" lon="14.311055"><ele>347.0</ele><time>2026-04-30T14:22:57.052Z</time></trkpt><trkpt lat="45.38823" lon="14.3112217"><ele>347.0</ele><time>2026-04-30T14:22:58.126Z</time></trkpt><trkpt lat="45.3880783" lon="14.3113933"><ele>347.0</ele><time>2026-04-30T14:22:59.066Z</time></trkpt><trkpt lat="45.387925" lon="14.3115633"><ele>345.0</ele><time>2026-04-30T14:23:00.139Z</time></trkpt><trkpt lat="45.3877717" lon="14.3117333"><ele>343.0</ele><time>2026-04-30T14:23:01.08Z</time></trkpt><trkpt lat="45.3876233" lon="14.3119033"><ele>341.0</ele><time>2026-04-30T14:23:02.085Z</time></trkpt><trkpt lat="45.38748" lon="14.3120667"><ele>341.0</ele><time>2026-04-30T14:23:03.093Z</time></trkpt><trkpt lat="45.3873383" lon="14.31223"><ele>341.0</ele><time>2026-04-30T14:23:04.099Z</time></trkpt><trkpt lat="45.3871967" lon="14.3123933"><ele>341.0</ele><time>2026-04-30T14:23:05.105Z</time></trkpt><trkpt lat="45.3870533" lon="14.312555"><ele>341.33333333333337</ele><time>2026-04-30T14:23:06.112Z</time></trkpt><trkpt lat="45.3869117" lon="14.3127183"><ele>341.6666666666667</ele><time>2026-04-30T14:23:07.052Z</time></trkpt><trkpt lat="45.3867683" lon="14.31288"><ele>342.0</ele><time>2026-04-30T14:23:08.126Z</time></trkpt><trkpt lat="45.3866267" lon="14.3130433"><ele>342.3333333333333</ele><time>2026-04-30T14:23:09.065Z</time></trkpt><trkpt lat="45.386485" lon="14.3132067"><ele>342.66666666666663</ele><time>2026-04-30T14:23:10.139Z</time></trkpt><trkpt lat="45.3863383" lon="14.31337"><ele>343.0</ele><time>2026-04-30T14:23:11.079Z</time></trkpt><trkpt lat="45.38619" lon="14.3135367"><ele>343.0</ele><time>2026-04-30T14:23:12.085Z</time></trkpt><trkpt lat="45.38604" lon="14.3137033"><ele>343.0</ele><time>2026-04-30T14:23:13.091Z</time></trkpt><trkpt lat="45.3858883" lon="14.3138717"><ele>343.0</ele><time>2026-04-30T14:23:14.098Z</time></trkpt><trkpt lat="45.385735" lon="14.3140383"><ele>341.66666666666663</ele><time>2026-04-30T14:23:15.105Z</time></trkpt><trkpt lat="45.3855817" lon="14.3142083"><ele>340.3333333333333</ele><time>2026-04-30T14:23:16.112Z</time></trkpt><trkpt lat="45.3854267" lon="14.3143817"><ele>339.0</ele><time>2026-04-30T14:23:17.052Z</time></trkpt><trkpt lat="45.3852717" lon="14.3145567"><ele>339.0</ele><time>2026-04-30T14:23:18.125Z</time></trkpt><trkpt lat="45.3851217" lon="14.3147233"><ele>339.0</ele><time>2026-04-30T14:23:19.065Z</time></trkpt><trkpt lat="45.3849783" lon="14.314885"><ele>339.0</ele><time>2026-04-30T14:23:20.138Z</time></trkpt><trkpt lat="45.38484" lon="14.31504"><ele>338.3333333333333</ele><time>2026-04-30T14:23:21.078Z</time></trkpt><trkpt lat="45.3846983" lon="14.3151883"><ele>337.66666666666663</ele><time>2026-04-30T14:23:22.085Z</time></trkpt><trkpt lat="45.3845533" lon="14.3153283"><ele>337.0</ele><time>2026-04-30T14:23:23.091Z</time></trkpt><trkpt lat="45.3844033" lon="14.3154533"><ele>337.0</ele><time>2026-04-30T14:23:24.097Z</time></trkpt><trkpt lat="45.3842467" lon="14.3155617"><ele>337.0</ele><time>2026-04-30T14:23:25.104Z</time></trkpt><trkpt lat="45.3840833" lon="14.315655"><ele>337.0</ele><time>2026-04-30T14:23:26.111Z</time></trkpt><trkpt lat="45.383915" lon="14.3157383"><ele>335.0</ele><time>2026-04-30T14:23:27.05Z</time></trkpt><trkpt lat="45.3837433" lon="14.315815"><ele>333.0</ele><time>2026-04-30T14:23:28.124Z</time></trkpt><trkpt lat="45.3835683" lon="14.3158917"><ele>331.0</ele><time>2026-04-30T14:23:29.063Z</time></trkpt><trkpt lat="45.3833917" lon="14.31597"><ele>331.0</ele><time>2026-04-30T14:23:30.138Z</time></trkpt><trkpt lat="45.3832167" lon="14.31605"><ele>331.0</ele><time>2026-04-30T14:23:31.076Z</time></trkpt><trkpt lat="45.3830367" lon="14.3161233"><ele>331.0</ele><time>2026-04-30T14:23:32.083Z</time></trkpt><trkpt lat="45.3828567" lon="14.3161883"><ele>331.3333333333333</ele><time>2026-04-30T14:23:33.09Z</time></trkpt><trkpt lat="45.3826767" lon="14.316255"><ele>331.6666666666667</ele><time>2026-04-30T14:23:34.097Z</time></trkpt><trkpt lat="45.3824967" lon="14.3163217"><ele>332.0</ele><time>2026-04-30T14:23:35.104Z</time></trkpt><trkpt lat="45.3823217" lon="14.3163833"><ele>331.0</ele><time>2026-04-30T14:23:36.109Z</time></trkpt><trkpt lat="45.3821483" lon="14.3164417"><ele>330.0</ele><time>2026-04-30T14:23:37.05Z</time></trkpt><trkpt lat="45.381975" lon="14.3164967"><ele>329.0</ele><time>2026-04-30T14:23:38.123Z</time></trkpt><trkpt lat="45.3818" lon="14.3165517"><ele>329.0</ele><time>2026-04-30T14:23:39.062Z</time></trkpt><trkpt lat="45.3816267" lon="14.31661"><ele>329.0</ele><time>2026-04-30T14:23:40.136Z</time></trkpt><trkpt lat="45.3814583" lon="14.316665"><ele>329.0</ele><time>2026-04-30T14:23:41.077Z</time></trkpt><trkpt lat="45.3813017" lon="14.31672"><ele>326.6666666666667</ele><time>2026-04-30T14:23:42.083Z</time></trkpt><trkpt lat="45.3811483" lon="14.3167733"><ele>324.3333333333333</ele><time>2026-04-30T14:23:43.089Z</time></trkpt><trkpt lat="45.3809983" lon="14.3168267"><ele>322.0</ele><time>2026-04-30T14:23:44.095Z</time></trkpt><trkpt lat="45.38085" lon="14.3168783"><ele>322.0</ele><time>2026-04-30T14:23:45.102Z</time></trkpt><trkpt lat="45.3807" lon="14.31693"><ele>322.0</ele><time>2026-04-30T14:23:46.109Z</time></trkpt><trkpt lat="45.380545" lon="14.3169817"><ele>322.0</ele><time>2026-04-30T14:23:47.049Z</time></trkpt><trkpt lat="45.38039" lon="14.3170367"><ele>321.0</ele><time>2026-04-30T14:23:48.123Z</time></trkpt><trkpt lat="45.3802417" lon="14.3170883"><ele>320.0</ele><time>2026-04-30T14:23:49.061Z</time></trkpt><trkpt lat="45.3800967" lon="14.31714"><ele>319.0</ele><time>2026-04-30T14:23:50.136Z</time></trkpt><trkpt lat="45.379955" lon="14.317195"><ele>318.0</ele><time>2026-04-30T14:23:51.076Z</time></trkpt><trkpt lat="45.3798117" lon="14.3172517"><ele>317.0</ele><time>2026-04-30T14:23:52.081Z</time></trkpt><trkpt lat="45.3796683" lon="14.3173133"><ele>316.0</ele><time>2026-04-30T14:23:53.088Z</time></trkpt><trkpt lat="45.3795383" lon="14.3173717"><ele>315.0</ele><time>2026-04-30T14:23:54.095Z</time></trkpt><trkpt lat="45.3794217" lon="14.3174283"><ele>314.0</ele><time>2026-04-30T14:23:55.102Z</time></trkpt><trkpt lat="45.379335" lon="14.3174717"><ele>314.0</ele><time>2026-04-30T14:23:56.108Z</time></trkpt><trkpt lat="45.3793467" lon="14.317375"><ele>314.0</ele><time>2026-04-30T14:23:59.061Z</time></trkpt><trkpt lat="45.37927" lon="14.3174417"><ele>314.0</ele><time>2026-04-30T14:24:00.068Z</time></trkpt><trkpt lat="45.37921" lon="14.317535"><ele>314.0</ele><time>2026-04-30T14:24:01.074Z</time></trkpt><trkpt lat="45.37917" lon="14.3176467"><ele>314.0</ele><time>2026-04-30T14:24:02.082Z</time></trkpt><trkpt lat="45.3791317" lon="14.3177583"><ele>314.0</ele><time>2026-04-30T14:24:03.087Z</time></trkpt><trkpt lat="45.3790683" lon="14.31787"><ele>314.0</ele><time>2026-04-30T14:24:04.095Z</time></trkpt><trkpt lat="45.3789867" lon="14.317985"><ele>314.0</ele><time>2026-04-30T14:24:05.033Z</time></trkpt><trkpt lat="45.3789083" lon="14.3180983"><ele>314.0</ele><time>2026-04-30T14:24:06.108Z</time></trkpt><trkpt lat="45.3788133" lon="14.3182283"><ele>314.0</ele><time>2026-04-30T14:24:07.047Z</time></trkpt><trkpt lat="45.37872" lon="14.3183667"><ele>313.25</ele><time>2026-04-30T14:24:08.12Z</time></trkpt><trkpt lat="45.378635" lon="14.3184917"><ele>312.5</ele><time>2026-04-30T14:24:09.06Z</time></trkpt><trkpt lat="45.3785517" lon="14.3186167"><ele>311.75</ele><time>2026-04-30T14:24:10.067Z</time></trkpt><trkpt lat="45.3784767" lon="14.3187333"><ele>311.0</ele><time>2026-04-30T14:24:11.073Z</time></trkpt><trkpt lat="45.3784033" lon="14.3188433"><ele>311.40000000000003</ele><time>2026-04-30T14:24:12.08Z</time></trkpt><trkpt lat="45.3783283" lon="14.3189533"><ele>311.8</ele><time>2026-04-30T14:24:13.155Z</time></trkpt><trkpt lat="45.3782483" lon="14.3190583"><ele>312.20000000000005</ele><time>2026-04-30T14:24:14.094Z</time></trkpt><trkpt lat="45.3781617" lon="14.319155"><ele>312.6</ele><time>2026-04-30T14:24:15.034Z</time></trkpt><trkpt lat="45.37807" lon="14.31924"><ele>313.0</ele><time>2026-04-30T14:24:16.106Z</time></trkpt><trkpt lat="45.3779717" lon="14.3193183"><ele>311.25</ele><time>2026-04-30T14:24:17.046Z</time></trkpt><trkpt lat="45.37787" lon="14.3193967"><ele>309.5</ele><time>2026-04-30T14:24:18.12Z</time></trkpt><trkpt lat="45.3777667" lon="14.3194683"><ele>307.75</ele><time>2026-04-30T14:24:19.06Z</time></trkpt><trkpt lat="45.3776633" lon="14.3195467"><ele>306.0</ele><time>2026-04-30T14:24:20.067Z</time></trkpt><trkpt lat="45.3775633" lon="14.3196233"><ele>306.0</ele><time>2026-04-30T14:24:21.14Z</time></trkpt><trkpt lat="45.3774683" lon="14.3196983"><ele>306.0</ele><time>2026-04-30T14:24:22.079Z</time></trkpt><trkpt lat="45.377285" lon="14.3198333"><ele>306.0</ele><time>2026-04-30T14:24:24.092Z</time></trkpt><trkpt lat="45.3771933" lon="14.3199117"><ele>306.0</ele><time>2026-04-30T14:24:25.033Z</time></trkpt><trkpt lat="45.3771033" lon="14.3199983"><ele>305.25</ele><time>2026-04-30T14:24:26.107Z</time></trkpt><trkpt lat="45.3770183" lon="14.3200967"><ele>304.5</ele><time>2026-04-30T14:24:27.046Z</time></trkpt><trkpt lat="45.3769383" lon="14.32021"><ele>303.75</ele><time>2026-04-30T14:24:28.119Z</time></trkpt><trkpt lat="45.37687" lon="14.3203417"><ele>303.0</ele><time>2026-04-30T14:24:29.125Z</time></trkpt><trkpt lat="45.3768067" lon="14.320485"><ele>303.4</ele><time>2026-04-30T14:24:30.066Z</time></trkpt><trkpt lat="45.3767467" lon="14.3206283"><ele>303.8</ele><time>2026-04-30T14:24:31.14Z</time></trkpt><trkpt lat="45.376685" lon="14.32076"><ele>304.2</ele><time>2026-04-30T14:24:32.079Z</time></trkpt><trkpt lat="45.3766167" lon="14.320875"><ele>304.6</ele><time>2026-04-30T14:24:33.153Z</time></trkpt><trkpt lat="45.3765383" lon="14.3209733"><ele>305.0</ele><time>2026-04-30T14:24:34.092Z</time></trkpt><trkpt lat="45.3764517" lon="14.321065"><ele>305.0</ele><time>2026-04-30T14:24:35.031Z</time></trkpt><trkpt lat="45.3763633" lon="14.3211533"><ele>305.0</ele><time>2026-04-30T14:24:36.105Z</time></trkpt><trkpt lat="45.37628" lon="14.3212533"><ele>305.0</ele><time>2026-04-30T14:24:37.045Z</time></trkpt><trkpt lat="45.3762083" lon="14.3213717"><ele>305.0</ele><time>2026-04-30T14:24:38.118Z</time></trkpt><trkpt lat="45.3761517" lon="14.3215083"><ele>305.0</ele><time>2026-04-30T14:24:39.126Z</time></trkpt><trkpt lat="45.376105" lon="14.32166"><ele>303.0</ele><time>2026-04-30T14:24:40.065Z</time></trkpt><trkpt lat="45.376065" lon="14.3218217"><ele>301.0</ele><time>2026-04-30T14:24:41.138Z</time></trkpt><trkpt lat="45.376025" lon="14.3219867"><ele>299.0</ele><time>2026-04-30T14:24:42.077Z</time></trkpt><trkpt lat="45.3759883" lon="14.3221433"><ele>297.0</ele><time>2026-04-30T14:24:43.152Z</time></trkpt><trkpt lat="45.37597" lon="14.3222983"><ele>297.0</ele><time>2026-04-30T14:24:44.092Z</time></trkpt><trkpt lat="45.3759717" lon="14.3224617"><ele>297.0</ele><time>2026-04-30T14:24:45.03Z</time></trkpt><trkpt lat="45.375985" lon="14.32264"><ele>297.0</ele><time>2026-04-30T14:24:46.104Z</time></trkpt><trkpt lat="45.376" lon="14.3228267"><ele>297.0</ele><time>2026-04-30T14:24:47.112Z</time></trkpt><trkpt lat="45.3760083" lon="14.3230083"><ele>297.25</ele><time>2026-04-30T14:24:48.117Z</time></trkpt><trkpt lat="45.3760017" lon="14.323185"><ele>297.5</ele><time>2026-04-30T14:24:49.124Z</time></trkpt><trkpt lat="45.3759833" lon="14.3233467"><ele>297.75</ele><time>2026-04-30T14:24:50.064Z</time></trkpt><trkpt lat="45.3759533" lon="14.3235033"><ele>298.0</ele><time>2026-04-30T14:24:51.137Z</time></trkpt><trkpt lat="45.3759117" lon="14.323655"><ele>298.0</ele><time>2026-04-30T14:24:52.077Z</time></trkpt><trkpt lat="45.37587" lon="14.3238117"><ele>298.0</ele><time>2026-04-30T14:24:53.151Z</time></trkpt><trkpt lat="45.3758367" lon="14.3239783"><ele>298.0</ele><time>2026-04-30T14:24:54.091Z</time></trkpt><trkpt lat="45.3758167" lon="14.3241567"><ele>298.0</ele><time>2026-04-30T14:24:55.098Z</time></trkpt><trkpt lat="45.3758067" lon="14.3243317"><ele>297.6</ele><time>2026-04-30T14:24:56.104Z</time></trkpt><trkpt lat="45.3758" lon="14.3244983"><ele>297.20000000000005</ele><time>2026-04-30T14:24:57.11Z</time></trkpt><trkpt lat="45.37579" lon="14.324655"><ele>296.8</ele><time>2026-04-30T14:24:58.116Z</time></trkpt><trkpt lat="45.3757767" lon="14.3247983"><ele>296.40000000000003</ele><time>2026-04-30T14:24:59.123Z</time></trkpt><trkpt lat="45.3757533" lon="14.3249333"><ele>296.0</ele><time>2026-04-30T14:25:00.063Z</time></trkpt><trkpt lat="45.3757167" lon="14.3250617"><ele>296.0</ele><time>2026-04-30T14:25:01.137Z</time></trkpt><trkpt lat="45.3756683" lon="14.3251817"><ele>296.0</ele><time>2026-04-30T14:25:02.076Z</time></trkpt><trkpt lat="45.3756033" lon="14.325285"><ele>296.0</ele><time>2026-04-30T14:25:03.15Z</time></trkpt><trkpt lat="45.3755283" lon="14.3253833"><ele>296.0</ele><time>2026-04-30T14:25:04.089Z</time></trkpt><trkpt lat="45.37546" lon="14.325495"><ele>296.0</ele><time>2026-04-30T14:25:05.096Z</time></trkpt><trkpt lat="45.3754067" lon="14.3256233"><ele>295.2</ele><time>2026-04-30T14:25:06.102Z</time></trkpt><trkpt lat="45.375375" lon="14.325765"><ele>294.40000000000003</ele><time>2026-04-30T14:25:07.109Z</time></trkpt><trkpt lat="45.375365" lon="14.3259133"><ele>293.6</ele><time>2026-04-30T14:25:08.116Z</time></trkpt><trkpt lat="45.3753783" lon="14.326065"><ele>292.8</ele><time>2026-04-30T14:25:09.123Z</time></trkpt><trkpt lat="45.375405" lon="14.3262117"><ele>292.0</ele><time>2026-04-30T14:25:10.062Z</time></trkpt><trkpt lat="45.375435" lon="14.32636"><ele>292.2</ele><time>2026-04-30T14:25:11.136Z</time></trkpt><trkpt lat="45.3754617" lon="14.3265017"><ele>292.4</ele><time>2026-04-30T14:25:12.076Z</time></trkpt><trkpt lat="45.37547" lon="14.326635"><ele>292.6</ele><time>2026-04-30T14:25:13.149Z</time></trkpt><trkpt lat="45.3754717" lon="14.32676"><ele>292.8</ele><time>2026-04-30T14:25:14.089Z</time></trkpt><trkpt lat="45.37546" lon="14.3268917"><ele>293.0</ele><time>2026-04-30T14:25:15.095Z</time></trkpt><trkpt lat="45.3754383" lon="14.3270183"><ele>293.0</ele><time>2026-04-30T14:25:16.102Z</time></trkpt><trkpt lat="45.3754133" lon="14.3271317"><ele>293.0</ele><time>2026-04-30T14:25:17.108Z</time></trkpt><trkpt lat="45.3753767" lon="14.3272267"><ele>293.0</ele><time>2026-04-30T14:25:18.116Z</time></trkpt><trkpt lat="45.37533" lon="14.3273167"><ele>293.0</ele><time>2026-04-30T14:25:19.123Z</time></trkpt><trkpt lat="45.375275" lon="14.3274083"><ele>293.0</ele><time>2026-04-30T14:25:20.062Z</time></trkpt><trkpt lat="45.3752117" lon="14.3274967"><ele>293.0</ele><time>2026-04-30T14:25:21.136Z</time></trkpt><trkpt lat="45.37514" lon="14.3275817"><ele>293.4</ele><time>2026-04-30T14:25:22.074Z</time></trkpt><trkpt lat="45.3750717" lon="14.327675"><ele>293.8</ele><time>2026-04-30T14:25:23.148Z</time></trkpt><trkpt lat="45.375005" lon="14.32778"><ele>294.2</ele><time>2026-04-30T14:25:24.088Z</time></trkpt><trkpt lat="45.3749483" lon="14.327905"><ele>294.6</ele><time>2026-04-30T14:25:25.094Z</time></trkpt><trkpt lat="45.374905" lon="14.3280517"><ele>295.0</ele><time>2026-04-30T14:25:26.102Z</time></trkpt><trkpt lat="45.3748767" lon="14.3282117"><ele>296.5</ele><time>2026-04-30T14:25:27.109Z</time></trkpt><trkpt lat="45.3748633" lon="14.3283817"><ele>298.0</ele><time>2026-04-30T14:25:28.114Z</time></trkpt><trkpt lat="45.3748567" lon="14.3285567"><ele>299.5</ele><time>2026-04-30T14:25:29.122Z</time></trkpt><trkpt lat="45.37485" lon="14.32873"><ele>301.0</ele><time>2026-04-30T14:25:30.06Z</time></trkpt><trkpt lat="45.3748433" lon="14.3289"><ele>301.75</ele><time>2026-04-30T14:25:31.134Z</time></trkpt><trkpt lat="45.3748367" lon="14.3290667"><ele>302.5</ele><time>2026-04-30T14:25:32.074Z</time></trkpt><trkpt lat="45.37483" lon="14.32924"><ele>303.25</ele><time>2026-04-30T14:25:33.08Z</time></trkpt><trkpt lat="45.37482" lon="14.3294167"><ele>304.0</ele><time>2026-04-30T14:25:34.088Z</time></trkpt><trkpt lat="45.3748067" lon="14.329595"><ele>303.8</ele><time>2026-04-30T14:25:35.094Z</time></trkpt><trkpt lat="45.374785" lon="14.329765"><ele>303.59999999999997</ele><time>2026-04-30T14:25:36.1Z</time></trkpt><trkpt lat="45.3747567" lon="14.3299183"><ele>303.4</ele><time>2026-04-30T14:25:37.107Z</time></trkpt><trkpt lat="45.37473" lon="14.330065"><ele>303.2</ele><time>2026-04-30T14:25:38.047Z</time></trkpt><trkpt lat="45.3747167" lon="14.33022"><ele>303.0</ele><time>2026-04-30T14:25:39.121Z</time></trkpt><trkpt lat="45.374715" lon="14.3303783"><ele>303.0</ele><time>2026-04-30T14:25:40.06Z</time></trkpt><trkpt lat="45.3747317" lon="14.330545"><ele>303.0</ele><time>2026-04-30T14:25:41.134Z</time></trkpt><trkpt lat="45.3747583" lon="14.3307167"><ele>303.0</ele><time>2026-04-30T14:25:42.074Z</time></trkpt><trkpt lat="45.37479" lon="14.3308933"><ele>303.0</ele><time>2026-04-30T14:25:43.08Z</time></trkpt><trkpt lat="45.3748217" lon="14.331065"><ele>302.0</ele><time>2026-04-30T14:25:44.086Z</time></trkpt><trkpt lat="45.3748483" lon="14.331225"><ele>301.0</ele><time>2026-04-30T14:25:45.094Z</time></trkpt><trkpt lat="45.3748683" lon="14.3313783"><ele>300.0</ele><time>2026-04-30T14:25:46.1Z</time></trkpt><trkpt lat="45.3748783" lon="14.3315367"><ele>299.0</ele><time>2026-04-30T14:25:47.107Z</time></trkpt><trkpt lat="45.374875" lon="14.3317017"><ele>298.5</ele><time>2026-04-30T14:25:48.045Z</time></trkpt><trkpt lat="45.3748583" lon="14.3318667"><ele>298.0</ele><time>2026-04-30T14:25:49.12Z</time></trkpt><trkpt lat="45.3748233" lon="14.332025"><ele>297.5</ele><time>2026-04-30T14:25:50.06Z</time></trkpt><trkpt lat="45.37478" lon="14.332175"><ele>297.0</ele><time>2026-04-30T14:25:51.133Z</time></trkpt><trkpt lat="45.3747367" lon="14.332315"><ele>296.8</ele><time>2026-04-30T14:25:52.072Z</time></trkpt><trkpt lat="45.3747" lon="14.33246"><ele>296.6</ele><time>2026-04-30T14:25:53.08Z</time></trkpt><trkpt lat="45.3746733" lon="14.33261"><ele>296.40000000000003</ele><time>2026-04-30T14:25:54.085Z</time></trkpt><trkpt lat="45.3746533" lon="14.332765"><ele>296.2</ele><time>2026-04-30T14:25:55.092Z</time></trkpt><trkpt lat="45.374635" lon="14.3329183"><ele>296.0</ele><time>2026-04-30T14:25:56.099Z</time></trkpt><trkpt lat="45.3746167" lon="14.3330633"><ele>294.2</ele><time>2026-04-30T14:25:57.105Z</time></trkpt><trkpt lat="45.374595" lon="14.3332"><ele>292.40000000000003</ele><time>2026-04-30T14:25:58.046Z</time></trkpt><trkpt lat="45.3745683" lon="14.3333317"><ele>290.6</ele><time>2026-04-30T14:25:59.119Z</time></trkpt><trkpt lat="45.3745317" lon="14.3334567"><ele>288.8</ele><time>2026-04-30T14:26:00.058Z</time></trkpt><trkpt lat="45.3744833" lon="14.3335817"><ele>287.0</ele><time>2026-04-30T14:26:01.132Z</time></trkpt><trkpt lat="45.374425" lon="14.333705"><ele>287.0</ele><time>2026-04-30T14:26:02.072Z</time></trkpt><trkpt lat="45.3743617" lon="14.3338233"><ele>287.0</ele><time>2026-04-30T14:26:03.078Z</time></trkpt><trkpt lat="45.3742967" lon="14.333935"><ele>287.0</ele><time>2026-04-30T14:26:04.085Z</time></trkpt><trkpt lat="45.3742333" lon="14.3340417"><ele>287.0</ele><time>2026-04-30T14:26:05.091Z</time></trkpt><trkpt lat="45.3741717" lon="14.334145"><ele>287.0</ele><time>2026-04-30T14:26:06.098Z</time></trkpt><trkpt lat="45.3741067" lon="14.33425"><ele>287.0</ele><time>2026-04-30T14:26:07.105Z</time></trkpt><trkpt lat="45.37404" lon="14.3343617"><ele>287.0</ele><time>2026-04-30T14:26:08.045Z</time></trkpt><trkpt lat="45.3739733" lon="14.3344817"><ele>287.0</ele><time>2026-04-30T14:26:09.119Z</time></trkpt><trkpt lat="45.3739133" lon="14.33461"><ele>287.0</ele><time>2026-04-30T14:26:10.058Z</time></trkpt><trkpt lat="45.3738583" lon="14.334745"><ele>287.0</ele><time>2026-04-30T14:26:11.131Z</time></trkpt><trkpt lat="45.3738067" lon="14.33488"><ele>286.4</ele><time>2026-04-30T14:26:12.07Z</time></trkpt><trkpt lat="45.373755" lon="14.3350133"><ele>285.79999999999995</ele><time>2026-04-30T14:26:13.077Z</time></trkpt><trkpt lat="45.3737083" lon="14.3351417"><ele>285.2</ele><time>2026-04-30T14:26:14.085Z</time></trkpt><trkpt lat="45.3736633" lon="14.3352633"><ele>284.59999999999997</ele><time>2026-04-30T14:26:15.09Z</time></trkpt><trkpt lat="45.37362" lon="14.33538"><ele>284.0</ele><time>2026-04-30T14:26:16.097Z</time></trkpt><trkpt lat="45.37358" lon="14.3355"><ele>284.1666666666667</ele><time>2026-04-30T14:26:17.104Z</time></trkpt><trkpt lat="45.3735467" lon="14.3356133"><ele>284.33333333333337</ele><time>2026-04-30T14:26:18.043Z</time></trkpt><trkpt lat="45.373525" lon="14.3357083"><ele>284.5</ele><time>2026-04-30T14:26:19.117Z</time></trkpt><trkpt lat="45.3735067" lon="14.335845"><ele>284.6666666666667</ele><time>2026-04-30T14:26:21.13Z</time></trkpt><trkpt lat="45.3734983" lon="14.3359633"><ele>284.8333333333333</ele><time>2026-04-30T14:26:23.077Z</time></trkpt><trkpt lat="45.3735" lon="14.3360667"><ele>285.0</ele><time>2026-04-30T14:26:25.09Z</time></trkpt><trkpt lat="45.3734983" lon="14.3361633"><ele>285.0</ele><time>2026-04-30T14:26:27.104Z</time></trkpt><trkpt lat="45.3735017" lon="14.3362833"><ele>285.0</ele><time>2026-04-30T14:26:29.116Z</time></trkpt><trkpt lat="45.3735083" lon="14.3363983"><ele>285.0</ele><time>2026-04-30T14:26:31.129Z</time></trkpt><trkpt lat="45.3735083" lon="14.3364917"><ele>285.0</ele><time>2026-04-30T14:26:33.077Z</time></trkpt><trkpt lat="45.3735067" lon="14.336605"><ele>285.0</ele><time>2026-04-30T14:26:35.089Z</time></trkpt><trkpt lat="45.3735067" lon="14.3367383"><ele>285.0</ele><time>2026-04-30T14:26:37.102Z</time></trkpt><trkpt lat="45.3734967" lon="14.33687"><ele>284.8333333333333</ele><time>2026-04-30T14:26:39.115Z</time></trkpt><trkpt lat="45.3734783" lon="14.3369867"><ele>284.6666666666667</ele><time>2026-04-30T14:26:41.129Z</time></trkpt><trkpt lat="45.3734533" lon="14.3371033"><ele>284.5</ele><time>2026-04-30T14:26:43.076Z</time></trkpt><trkpt lat="45.3734267" lon="14.3372133"><ele>284.33333333333337</ele><time>2026-04-30T14:26:45.089Z</time></trkpt><trkpt lat="45.373395" lon="14.337315"><ele>284.1666666666667</ele><time>2026-04-30T14:26:47.101Z</time></trkpt><trkpt lat="45.373365" lon="14.3374167"><ele>284.0</ele><time>2026-04-30T14:26:49.116Z</time></trkpt><trkpt lat="45.3733283" lon="14.3375217"><ele>284.0</ele><time>2026-04-30T14:26:51.128Z</time></trkpt><trkpt lat="45.373285" lon="14.33763"><ele>284.0</ele><time>2026-04-30T14:26:54.148Z</time></trkpt><trkpt lat="45.3732433" lon="14.3377317"><ele>284.0</ele><time>2026-04-30T14:26:56.161Z</time></trkpt><trkpt lat="45.3731983" lon="14.3378517"><ele>284.0</ele><time>2026-04-30T14:26:58.04Z</time></trkpt><trkpt lat="45.3731583" lon="14.337955"><ele>284.0</ele><time>2026-04-30T14:27:00.12Z</time></trkpt><trkpt lat="45.3731133" lon="14.3380667"><ele>284.0</ele><time>2026-04-30T14:27:02.134Z</time></trkpt><trkpt lat="45.3730667" lon="14.3382"><ele>282.8</ele><time>2026-04-30T14:27:04.147Z</time></trkpt><trkpt lat="45.373015" lon="14.3383333"><ele>281.59999999999997</ele><time>2026-04-30T14:27:06.026Z</time></trkpt><trkpt lat="45.3729667" lon="14.3384767"><ele>280.4</ele><time>2026-04-30T14:27:08.039Z</time></trkpt><trkpt lat="45.372915" lon="14.3386267"><ele>279.2</ele><time>2026-04-30T14:27:10.12Z</time></trkpt><trkpt lat="45.372875" lon="14.33875"><ele>278.0</ele><time>2026-04-30T14:27:12.133Z</time></trkpt><trkpt lat="45.3728533" lon="14.338875"><ele>278.83333333333337</ele><time>2026-04-30T14:27:14.146Z</time></trkpt><trkpt lat="45.372835" lon="14.3390083"><ele>279.6666666666667</ele><time>2026-04-30T14:27:16.026Z</time></trkpt><trkpt lat="45.372815" lon="14.3391767"><ele>280.5</ele><time>2026-04-30T14:27:18.107Z</time></trkpt><trkpt lat="45.3728117" lon="14.3392683"><ele>281.3333333333333</ele><time>2026-04-30T14:27:19.113Z</time></trkpt><trkpt lat="45.3728133" lon="14.3393633"><ele>282.16666666666663</ele><time>2026-04-30T14:27:20.119Z</time></trkpt><trkpt lat="45.372825" lon="14.3394517"><ele>283.0</ele><time>2026-04-30T14:27:21.058Z</time></trkpt><trkpt lat="45.372865" lon="14.3395883"><ele>283.0</ele><time>2026-04-30T14:27:23.072Z</time></trkpt><trkpt lat="45.3729283" lon="14.339715"><ele>283.0</ele><time>2026-04-30T14:27:25.086Z</time></trkpt><trkpt lat="45.3730033" lon="14.33982"><ele>283.0</ele><time>2026-04-30T14:27:27.099Z</time></trkpt><trkpt lat="45.3731083" lon="14.3398983"><ele>283.0</ele><time>2026-04-30T14:27:29.111Z</time></trkpt><trkpt lat="45.3731717" lon="14.339935"><ele>283.0</ele><time>2026-04-30T14:27:30.118Z</time></trkpt><trkpt lat="45.3732383" lon="14.339975"><ele>285.16666666666663</ele><time>2026-04-30T14:27:31.058Z</time></trkpt><trkpt lat="45.3733083" lon="14.3400133"><ele>287.3333333333333</ele><time>2026-04-30T14:27:32.131Z</time></trkpt><trkpt lat="45.3733667" lon="14.3400517"><ele>289.5</ele><time>2026-04-30T14:27:33.072Z</time></trkpt><trkpt lat="45.3734667" lon="14.3401333"><ele>291.6666666666667</ele><time>2026-04-30T14:27:35.084Z</time></trkpt><trkpt lat="45.3735433" lon="14.3402283"><ele>293.83333333333337</ele><time>2026-04-30T14:27:37.098Z</time></trkpt><trkpt lat="45.3736033" lon="14.34031"><ele>296.0</ele><time>2026-04-30T14:27:39.111Z</time></trkpt><trkpt lat="45.3736467" lon="14.3404033"><ele>296.0</ele><time>2026-04-30T14:27:41.058Z</time></trkpt><trkpt lat="45.373675" lon="14.3405167"><ele>296.0</ele><time>2026-04-30T14:29:33.129Z</time></trkpt><trkpt lat="45.3736767" lon="14.3406333"><ele>296.0</ele><time>2026-04-30T14:29:35.143Z</time></trkpt><trkpt lat="45.3736783" lon="14.3408133"><ele>296.0</ele><time>2026-04-30T14:29:37.155Z</time></trkpt><trkpt lat="45.3736683" lon="14.3409267"><ele>296.0</ele><time>2026-04-30T14:29:38.095Z</time></trkpt><trkpt lat="45.3736583" lon="14.34105"><ele>295.2</ele><time>2026-04-30T14:29:39.035Z</time></trkpt><trkpt lat="45.3736483" lon="14.34118"><ele>294.40000000000003</ele><time>2026-04-30T14:29:40.109Z</time></trkpt><trkpt lat="45.3736433" lon="14.3413067"><ele>293.6</ele><time>2026-04-30T14:29:41.115Z</time></trkpt><trkpt lat="45.3736367" lon="14.3414367"><ele>292.8</ele><time>2026-04-30T14:29:42.122Z</time></trkpt><trkpt lat="45.37363" lon="14.3415817"><ele>292.0</ele><time>2026-04-30T14:29:43.129Z</time></trkpt><trkpt lat="45.3736233" lon="14.3417317"><ele>292.0</ele><time>2026-04-30T14:29:44.067Z</time></trkpt><trkpt lat="45.37362" lon="14.3418783"><ele>292.0</ele><time>2026-04-30T14:29:45.142Z</time></trkpt><trkpt lat="45.373615" lon="14.34202"><ele>292.0</ele><time>2026-04-30T14:29:46.082Z</time></trkpt><trkpt lat="45.37361" lon="14.34216"><ele>292.0</ele><time>2026-04-30T14:29:47.154Z</time></trkpt><trkpt lat="45.3736117" lon="14.342315"><ele>292.0</ele><time>2026-04-30T14:29:48.094Z</time></trkpt><trkpt lat="45.373605" lon="14.3424483"><ele>292.2</ele><time>2026-04-30T14:29:49.101Z</time></trkpt><trkpt lat="45.3736017" lon="14.3426017"><ele>292.4</ele><time>2026-04-30T14:29:50.107Z</time></trkpt><trkpt lat="45.373595" lon="14.342755"><ele>292.6</ele><time>2026-04-30T14:29:51.115Z</time></trkpt><trkpt lat="45.37358" lon="14.342905"><ele>292.8</ele><time>2026-04-30T14:29:52.12Z</time></trkpt><trkpt lat="45.3735517" lon="14.3430517"><ele>293.0</ele><time>2026-04-30T14:29:53.127Z</time></trkpt><trkpt lat="45.3735083" lon="14.3431917"><ele>293.4</ele><time>2026-04-30T14:29:54.068Z</time></trkpt><trkpt lat="45.373455" lon="14.3433283"><ele>293.8</ele><time>2026-04-30T14:29:55.14Z</time></trkpt><trkpt lat="45.37339" lon="14.3434433"><ele>294.2</ele><time>2026-04-30T14:29:56.081Z</time></trkpt><trkpt lat="45.3733133" lon="14.3435583"><ele>294.6</ele><time>2026-04-30T14:29:57.087Z</time></trkpt><trkpt lat="45.373225" lon="14.3436733"><ele>295.0</ele><time>2026-04-30T14:29:58.094Z</time></trkpt><trkpt lat="45.373125" lon="14.3438"><ele>294.75</ele><time>2026-04-30T14:29:59.1Z</time></trkpt><trkpt lat="45.3730217" lon="14.343935"><ele>294.5</ele><time>2026-04-30T14:30:00.106Z</time></trkpt><trkpt lat="45.372915" lon="14.34407"><ele>294.25</ele><time>2026-04-30T14:30:01.113Z</time></trkpt><trkpt lat="45.372815" lon="14.3441933"><ele>294.0</ele><time>2026-04-30T14:30:02.054Z</time></trkpt><trkpt lat="45.3727217" lon="14.3443117"><ele>294.0</ele><time>2026-04-30T14:30:03.126Z</time></trkpt><trkpt lat="45.3726267" lon="14.3444317"><ele>294.0</ele><time>2026-04-30T14:30:04.067Z</time></trkpt><trkpt lat="45.3725317" lon="14.3445583"><ele>294.0</ele><time>2026-04-30T14:30:05.14Z</time></trkpt><trkpt lat="45.3724383" lon="14.3446767"><ele>294.0</ele><time>2026-04-30T14:30:06.079Z</time></trkpt><trkpt lat="45.37235" lon="14.3447817"><ele>293.8</ele><time>2026-04-30T14:30:07.086Z</time></trkpt><trkpt lat="45.372265" lon="14.344865"><ele>293.59999999999997</ele><time>2026-04-30T14:30:08.093Z</time></trkpt><trkpt lat="45.3721767" lon="14.3449267"><ele>293.4</ele><time>2026-04-30T14:30:09.099Z</time></trkpt><trkpt lat="45.3720867" lon="14.344955"><ele>293.2</ele><time>2026-04-30T14:30:10.106Z</time></trkpt><trkpt lat="45.3719983" lon="14.344965"><ele>293.0</ele><time>2026-04-30T14:30:11.113Z</time></trkpt><trkpt lat="45.3719083" lon="14.3449617"><ele>293.0</ele><time>2026-04-30T14:30:12.052Z</time></trkpt><trkpt lat="45.3718133" lon="14.3449583"><ele>293.0</ele><time>2026-04-30T14:30:13.127Z</time></trkpt><trkpt lat="45.3717233" lon="14.344955"><ele>293.0</ele><time>2026-04-30T14:30:14.065Z</time></trkpt><trkpt lat="45.3716517" lon="14.3449533"><ele>293.0</ele><time>2026-04-30T14:30:15.14Z</time></trkpt><trkpt lat="45.3715883" lon="14.34496"><ele>293.0</ele><time>2026-04-30T14:30:16.078Z</time></trkpt><trkpt lat="45.3715067" lon="14.3449717"><ele>293.0</ele><time>2026-04-30T14:30:18.092Z</time></trkpt><trkpt lat="45.3713583" lon="14.3450117"><ele>292.0</ele><time>2026-04-30T14:30:39.097Z</time></trkpt><trkpt lat="45.37129" lon="14.345035"><ele>291.0</ele><time>2026-04-30T14:30:42.049Z</time></trkpt><trkpt lat="45.3712267" lon="14.3450633"><ele>290.0</ele><time>2026-04-30T14:30:45.136Z</time></trkpt><trkpt lat="45.3711333" lon="14.345065"><ele>289.0</ele><time>2026-04-30T14:30:49.096Z</time></trkpt><trkpt lat="45.37106" lon="14.34507"><ele>288.0</ele><time>2026-04-30T14:30:51.11Z</time></trkpt><trkpt lat="45.37099" lon="14.3451117"><ele>287.0</ele><time>2026-04-30T14:30:53.123Z</time></trkpt><trkpt lat="45.3709717" lon="14.345225"><ele>287.0</ele><time>2026-04-30T14:30:55.136Z</time></trkpt><trkpt lat="45.3710233" lon="14.3453667"><ele>287.0</ele><time>2026-04-30T14:30:57.082Z</time></trkpt><trkpt lat="45.371055" lon="14.3454467"><ele>287.0</ele><time>2026-04-30T14:30:58.088Z</time></trkpt><trkpt lat="45.3710683" lon="14.345545"><ele>287.0</ele><time>2026-04-30T14:30:59.096Z</time></trkpt><trkpt lat="45.37106" lon="14.3456533"><ele>287.0</ele><time>2026-04-30T14:31:00.102Z</time></trkpt><trkpt lat="45.3710367" lon="14.3457683"><ele>287.0</ele><time>2026-04-30T14:31:01.108Z</time></trkpt><trkpt lat="45.3710017" lon="14.3458633"><ele>289.2</ele><time>2026-04-30T14:31:02.048Z</time></trkpt><trkpt lat="45.3709483" lon="14.3459583"><ele>291.4</ele><time>2026-04-30T14:31:03.122Z</time></trkpt><trkpt lat="45.37088" lon="14.3460567"><ele>293.6</ele><time>2026-04-30T14:31:04.062Z</time></trkpt><trkpt lat="45.3708033" lon="14.3461617"><ele>295.8</ele><time>2026-04-30T14:31:05.135Z</time></trkpt><trkpt lat="45.3707267" lon="14.3462767"><ele>298.0</ele><time>2026-04-30T14:31:06.074Z</time></trkpt><trkpt lat="45.37065" lon="14.3463983"><ele>297.25</ele><time>2026-04-30T14:31:07.081Z</time></trkpt><trkpt lat="45.3705767" lon="14.3465267"><ele>296.5</ele><time>2026-04-30T14:31:08.088Z</time></trkpt><trkpt lat="45.3705033" lon="14.34666"><ele>295.75</ele><time>2026-04-30T14:31:09.095Z</time></trkpt><trkpt lat="45.3704317" lon="14.3467917"><ele>295.0</ele><time>2026-04-30T14:31:10.102Z</time></trkpt><trkpt lat="45.3703667" lon="14.3469267"><ele>295.0</ele><time>2026-04-30T14:31:11.108Z</time></trkpt><trkpt lat="45.3703083" lon="14.34706"><ele>295.0</ele><time>2026-04-30T14:31:12.047Z</time></trkpt><trkpt lat="45.370255" lon="14.34719"><ele>295.0</ele><time>2026-04-30T14:31:13.121Z</time></trkpt><trkpt lat="45.370205" lon="14.3473183"><ele>295.0</ele><time>2026-04-30T14:31:14.06Z</time></trkpt><trkpt lat="45.370155" lon="14.3474483"><ele>295.0</ele><time>2026-04-30T14:31:15.135Z</time></trkpt><trkpt lat="45.3701067" lon="14.3475783"><ele>297.2</ele><time>2026-04-30T14:31:16.075Z</time></trkpt><trkpt lat="45.3700617" lon="14.34771"><ele>299.4</ele><time>2026-04-30T14:31:17.08Z</time></trkpt><trkpt lat="45.3700233" lon="14.3478367"><ele>301.6</ele><time>2026-04-30T14:31:18.088Z</time></trkpt><trkpt lat="45.36999" lon="14.3479517"><ele>303.8</ele><time>2026-04-30T14:31:19.094Z</time></trkpt><trkpt lat="45.3699617" lon="14.3480617"><ele>306.0</ele><time>2026-04-30T14:31:20.167Z</time></trkpt><trkpt lat="45.3699367" lon="14.34817"><ele>306.6666666666667</ele><time>2026-04-30T14:31:21.107Z</time></trkpt><trkpt lat="45.369915" lon="14.3482817"><ele>307.3333333333333</ele><time>2026-04-30T14:31:22.047Z</time></trkpt><trkpt lat="45.369895" lon="14.3483833"><ele>308.0</ele><time>2026-04-30T14:31:23.121Z</time></trkpt><trkpt lat="45.3698717" lon="14.3484733"><ele>308.66666666666663</ele><time>2026-04-30T14:31:24.061Z</time></trkpt><trkpt lat="45.36983" lon="14.3486117"><ele>309.3333333333333</ele><time>2026-04-30T14:31:26.074Z</time></trkpt><trkpt lat="45.369805" lon="14.348695"><ele>310.0</ele><time>2026-04-30T14:31:28.086Z</time></trkpt><trkpt lat="45.3697683" lon="14.3488083"><ele>310.0</ele><time>2026-04-30T14:31:36.073Z</time></trkpt><trkpt lat="45.3697367" lon="14.3489033"><ele>310.0</ele><time>2026-04-30T14:31:37.08Z</time></trkpt><trkpt lat="45.3697" lon="14.349015"><ele>310.0</ele><time>2026-04-30T14:31:38.153Z</time></trkpt><trkpt lat="45.3696583" lon="14.3491367"><ele>310.0</ele><time>2026-04-30T14:31:39.092Z</time></trkpt><trkpt lat="45.369605" lon="14.3492767"><ele>310.0</ele><time>2026-04-30T14:31:40.031Z</time></trkpt><trkpt lat="45.3695417" lon="14.34943"><ele>310.0</ele><time>2026-04-30T14:31:41.106Z</time></trkpt><trkpt lat="45.3694767" lon="14.34957"><ele>310.0</ele><time>2026-04-30T14:31:42.045Z</time></trkpt><trkpt lat="45.3694067" lon="14.349705"><ele>310.0</ele><time>2026-04-30T14:31:43.119Z</time></trkpt><trkpt lat="45.3693433" lon="14.349825"><ele>310.0</ele><time>2026-04-30T14:31:44.058Z</time></trkpt><trkpt lat="45.3692817" lon="14.3499317"><ele>310.0</ele><time>2026-04-30T14:31:45.066Z</time></trkpt><trkpt lat="45.3692167" lon="14.3500183"><ele>309.66666666666663</ele><time>2026-04-30T14:31:46.139Z</time></trkpt><trkpt lat="45.3691517" lon="14.350085"><ele>309.3333333333333</ele><time>2026-04-30T14:31:47.079Z</time></trkpt><trkpt lat="45.3690983" lon="14.350155"><ele>309.0</ele><time>2026-04-30T14:31:48.152Z</time></trkpt><trkpt lat="45.3690517" lon="14.3503"><ele>308.6666666666667</ele><time>2026-04-30T14:31:50.031Z</time></trkpt><trkpt lat="45.3691383" lon="14.35038"><ele>308.33333333333337</ele><time>2026-04-30T14:31:52.045Z</time></trkpt><trkpt lat="45.3692083" lon="14.3504067"><ele>308.0</ele><time>2026-04-30T14:31:53.118Z</time></trkpt><trkpt lat="45.3692767" lon="14.350445"><ele>308.0</ele><time>2026-04-30T14:31:54.124Z</time></trkpt><trkpt lat="45.3693517" lon="14.3504983"><ele>308.0</ele><time>2026-04-30T14:31:55.064Z</time></trkpt><trkpt lat="45.369435" lon="14.3505667"><ele>308.0</ele><time>2026-04-30T14:31:56.138Z</time></trkpt><trkpt lat="45.3695317" lon="14.3506467"><ele>308.0</ele><time>2026-04-30T14:31:57.077Z</time></trkpt><trkpt lat="45.3696383" lon="14.35074"><ele>308.0</ele><time>2026-04-30T14:31:58.151Z</time></trkpt><trkpt lat="45.36976" lon="14.3508533"><ele>309.25</ele><time>2026-04-30T14:31:59.09Z</time></trkpt><trkpt lat="45.369885" lon="14.3509867"><ele>310.5</ele><time>2026-04-30T14:32:00.031Z</time></trkpt><trkpt lat="45.3699983" lon="14.3511217"><ele>311.75</ele><time>2026-04-30T14:32:01.105Z</time></trkpt><trkpt lat="45.370095" lon="14.3512467"><ele>313.0</ele><time>2026-04-30T14:32:02.11Z</time></trkpt><trkpt lat="45.3701767" lon="14.351355"><ele>313.8</ele><time>2026-04-30T14:32:03.117Z</time></trkpt><trkpt lat="45.3702467" lon="14.35146"><ele>314.6</ele><time>2026-04-30T14:32:04.125Z</time></trkpt><trkpt lat="45.3703133" lon="14.3515683"><ele>315.4</ele><time>2026-04-30T14:32:05.064Z</time></trkpt><trkpt lat="45.3703783" lon="14.351675"><ele>316.2</ele><time>2026-04-30T14:32:06.138Z</time></trkpt><trkpt lat="45.3704383" lon="14.3517833"><ele>317.0</ele><time>2026-04-30T14:32:07.077Z</time></trkpt><trkpt lat="45.3704983" lon="14.3518867"><ele>317.4</ele><time>2026-04-30T14:32:08.151Z</time></trkpt><trkpt lat="45.3705567" lon="14.3519883"><ele>317.79999999999995</ele><time>2026-04-30T14:32:09.09Z</time></trkpt><trkpt lat="45.370615" lon="14.35209"><ele>318.2</ele><time>2026-04-30T14:32:10.029Z</time></trkpt><trkpt lat="45.3706783" lon="14.352195"><ele>318.59999999999997</ele><time>2026-04-30T14:32:11.104Z</time></trkpt><trkpt lat="45.37074" lon="14.3523"><ele>319.0</ele><time>2026-04-30T14:32:12.11Z</time></trkpt><trkpt lat="45.3707983" lon="14.3523983"><ele>319.2</ele><time>2026-04-30T14:32:13.116Z</time></trkpt><trkpt lat="45.3708483" lon="14.3524817"><ele>319.4</ele><time>2026-04-30T14:32:14.123Z</time></trkpt><trkpt lat="45.3708933" lon="14.352555"><ele>319.6</ele><time>2026-04-30T14:32:15.062Z</time></trkpt><trkpt lat="45.3709617" lon="14.3526783"><ele>319.8</ele><time>2026-04-30T14:32:17.077Z</time></trkpt><trkpt lat="45.37102" lon="14.352795"><ele>320.0</ele><time>2026-04-30T14:32:19.089Z</time></trkpt><trkpt lat="45.3710733" lon="14.3529083"><ele>319.1666666666667</ele><time>2026-04-30T14:32:21.102Z</time></trkpt><trkpt lat="45.3711283" lon="14.35304"><ele>318.33333333333337</ele><time>2026-04-30T14:32:23.115Z</time></trkpt><trkpt lat="45.371155" lon="14.3531267"><ele>317.5</ele><time>2026-04-30T14:32:24.123Z</time></trkpt><trkpt lat="45.3711733" lon="14.3532283"><ele>316.6666666666667</ele><time>2026-04-30T14:32:25.062Z</time></trkpt><trkpt lat="45.3711783" lon="14.3533217"><ele>315.8333333333333</ele><time>2026-04-30T14:32:26.135Z</time></trkpt><trkpt lat="45.37118" lon="14.3534567"><ele>315.0</ele><time>2026-04-30T14:32:28.149Z</time></trkpt><trkpt lat="45.3711733" lon="14.3535733"><ele>315.0</ele><time>2026-04-30T14:32:30.096Z</time></trkpt><trkpt lat="45.371155" lon="14.35371"><ele>315.0</ele><time>2026-04-30T14:32:32.109Z</time></trkpt><trkpt lat="45.37113" lon="14.3538883"><ele>315.0</ele><time>2026-04-30T14:32:34.121Z</time></trkpt><trkpt lat="45.3711183" lon="14.353995"><ele>315.0</ele><time>2026-04-30T14:32:35.061Z</time></trkpt><trkpt lat="45.3711117" lon="14.354115"><ele>315.0</ele><time>2026-04-30T14:32:36.134Z</time></trkpt><trkpt lat="45.3711067" lon="14.3542467"><ele>315.0</ele><time>2026-04-30T14:32:37.074Z</time></trkpt><trkpt lat="45.3711033" lon="14.354385"><ele>315.0</ele><time>2026-04-30T14:32:38.148Z</time></trkpt><trkpt lat="45.371105" lon="14.3545383"><ele>315.0</ele><time>2026-04-30T14:32:39.088Z</time></trkpt><trkpt lat="45.3711167" lon="14.3547017"><ele>315.0</ele><time>2026-04-30T14:32:40.095Z</time></trkpt><trkpt lat="45.3711317" lon="14.35486"><ele>315.0</ele><time>2026-04-30T14:32:41.101Z</time></trkpt><trkpt lat="45.371145" lon="14.3550083"><ele>315.0</ele><time>2026-04-30T14:32:42.107Z</time></trkpt><trkpt lat="45.3711667" lon="14.3551483"><ele>315.0</ele><time>2026-04-30T14:32:43.115Z</time></trkpt><trkpt lat="45.3711967" lon="14.3552883"><ele>315.0</ele><time>2026-04-30T14:32:44.12Z</time></trkpt><trkpt lat="45.3712417" lon="14.3554267"><ele>315.0</ele><time>2026-04-30T14:32:45.061Z</time></trkpt><trkpt lat="45.3713017" lon="14.3555567"><ele>315.0</ele><time>2026-04-30T14:32:46.135Z</time></trkpt><trkpt lat="45.3713783" lon="14.3556633"><ele>314.4</ele><time>2026-04-30T14:32:47.073Z</time></trkpt><trkpt lat="45.3714633" lon="14.3557567"><ele>313.8</ele><time>2026-04-30T14:32:48.147Z</time></trkpt><trkpt lat="45.3715467" lon="14.3558483"><ele>313.2</ele><time>2026-04-30T14:32:49.088Z</time></trkpt><trkpt lat="45.3716283" lon="14.355945"><ele>312.6</ele><time>2026-04-30T14:32:50.094Z</time></trkpt><trkpt lat="45.3717083" lon="14.35605"><ele>312.0</ele><time>2026-04-30T14:32:51.1Z</time></trkpt><trkpt lat="45.37178" lon="14.3561617"><ele>312.0</ele><time>2026-04-30T14:32:52.107Z</time></trkpt><trkpt lat="45.371845" lon="14.3562717"><ele>312.0</ele><time>2026-04-30T14:32:53.114Z</time></trkpt><trkpt lat="45.371915" lon="14.3563767"><ele>312.0</ele><time>2026-04-30T14:32:54.12Z</time></trkpt><trkpt lat="45.372" lon="14.356475"><ele>312.0</ele><time>2026-04-30T14:32:55.059Z</time></trkpt><trkpt lat="45.3721017" lon="14.3565567"><ele>312.0</ele><time>2026-04-30T14:32:56.134Z</time></trkpt><trkpt lat="45.372215" lon="14.35661"><ele>312.3333333333333</ele><time>2026-04-30T14:32:57.072Z</time></trkpt><trkpt lat="45.37244" lon="14.35664"><ele>312.66666666666663</ele><time>2026-04-30T14:32:59.086Z</time></trkpt><trkpt lat="45.372555" lon="14.35664"><ele>313.0</ele><time>2026-04-30T14:33:00.092Z</time></trkpt><trkpt lat="45.3726717" lon="14.3566433"><ele>313.0</ele><time>2026-04-30T14:33:01.099Z</time></trkpt><trkpt lat="45.3727917" lon="14.3566383"><ele>313.0</ele><time>2026-04-30T14:33:02.106Z</time></trkpt><trkpt lat="45.372915" lon="14.356625"><ele>313.0</ele><time>2026-04-30T14:33:03.045Z</time></trkpt><trkpt lat="45.3730367" lon="14.3565883"><ele>313.0</ele><time>2026-04-30T14:33:04.119Z</time></trkpt><trkpt lat="45.373155" lon="14.356535"><ele>313.0</ele><time>2026-04-30T14:33:05.058Z</time></trkpt><trkpt lat="45.3732683" lon="14.356475"><ele>313.0</ele><time>2026-04-30T14:33:06.132Z</time></trkpt><trkpt lat="45.3733767" lon="14.3563983"><ele>313.0</ele><time>2026-04-30T14:33:07.072Z</time></trkpt><trkpt lat="45.3734767" lon="14.356305"><ele>313.0</ele><time>2026-04-30T14:33:08.078Z</time></trkpt><trkpt lat="45.3735683" lon="14.3562117"><ele>313.6</ele><time>2026-04-30T14:33:09.085Z</time></trkpt><trkpt lat="45.37365" lon="14.3561283"><ele>314.20000000000005</ele><time>2026-04-30T14:33:10.093Z</time></trkpt><trkpt lat="45.3737333" lon="14.3560583"><ele>314.8</ele><time>2026-04-30T14:33:11.098Z</time></trkpt><trkpt lat="45.3738217" lon="14.3559967"><ele>315.40000000000003</ele><time>2026-04-30T14:33:12.105Z</time></trkpt><trkpt lat="45.3739117" lon="14.355955"><ele>316.0</ele><time>2026-04-30T14:33:13.045Z</time></trkpt><trkpt lat="45.3739983" lon="14.3559333"><ele>316.0</ele><time>2026-04-30T14:33:14.119Z</time></trkpt><trkpt lat="45.374085" lon="14.3559283"><ele>316.0</ele><time>2026-04-30T14:33:15.058Z</time></trkpt><trkpt lat="45.3741717" lon="14.3559333"><ele>316.0</ele><time>2026-04-30T14:33:16.132Z</time></trkpt><trkpt lat="45.3742633" lon="14.355935"><ele>316.0</ele><time>2026-04-30T14:33:17.072Z</time></trkpt><trkpt lat="45.374355" lon="14.3559217"><ele>316.0</ele><time>2026-04-30T14:33:18.078Z</time></trkpt><trkpt lat="45.37445" lon="14.3558883"><ele>316.0</ele><time>2026-04-30T14:33:19.085Z</time></trkpt><trkpt lat="45.3745433" lon="14.3558367"><ele>316.0</ele><time>2026-04-30T14:33:20.091Z</time></trkpt><trkpt lat="45.3746383" lon="14.3557683"><ele>316.0</ele><time>2026-04-30T14:33:21.097Z</time></trkpt><trkpt lat="45.374725" lon="14.35569"><ele>316.0</ele><time>2026-04-30T14:33:22.104Z</time></trkpt><trkpt lat="45.3748117" lon="14.3556117"><ele>316.0</ele><time>2026-04-30T14:33:23.045Z</time></trkpt><trkpt lat="45.3749017" lon="14.3555433"><ele>315.6</ele><time>2026-04-30T14:33:24.117Z</time></trkpt><trkpt lat="45.374995" lon="14.3554917"><ele>315.20000000000005</ele><time>2026-04-30T14:33:25.057Z</time></trkpt><trkpt lat="45.375095" lon="14.3554583"><ele>314.79999999999995</ele><time>2026-04-30T14:33:26.131Z</time></trkpt><trkpt lat="45.3751967" lon="14.3554367"><ele>314.4</ele><time>2026-04-30T14:33:27.07Z</time></trkpt><trkpt lat="45.375305" lon="14.3554217"><ele>314.0</ele><time>2026-04-30T14:33:28.077Z</time></trkpt><trkpt lat="45.3754117" lon="14.3553967"><ele>314.0</ele><time>2026-04-30T14:33:29.084Z</time></trkpt><trkpt lat="45.37551" lon="14.3553583"><ele>314.0</ele><time>2026-04-30T14:33:30.091Z</time></trkpt><trkpt lat="45.3756067" lon="14.3553183"><ele>314.0</ele><time>2026-04-30T14:33:31.098Z</time></trkpt><trkpt lat="45.3757017" lon="14.3552933"><ele>314.0</ele><time>2026-04-30T14:33:32.103Z</time></trkpt><trkpt lat="45.3757933" lon="14.3552917"><ele>314.0</ele><time>2026-04-30T14:33:33.043Z</time></trkpt><trkpt lat="45.3758833" lon="14.3553183"><ele>313.4</ele><time>2026-04-30T14:33:34.117Z</time></trkpt><trkpt lat="45.3759667" lon="14.3553617"><ele>312.79999999999995</ele><time>2026-04-30T14:33:35.056Z</time></trkpt><trkpt lat="45.376045" lon="14.35542"><ele>312.20000000000005</ele><time>2026-04-30T14:33:36.131Z</time></trkpt><trkpt lat="45.3761283" lon="14.3554883"><ele>311.6</ele><time>2026-04-30T14:33:37.07Z</time></trkpt><trkpt lat="45.3762183" lon="14.3555617"><ele>311.0</ele><time>2026-04-30T14:33:38.077Z</time></trkpt><trkpt lat="45.3763133" lon="14.3556267"><ele>310.2</ele><time>2026-04-30T14:33:39.083Z</time></trkpt><trkpt lat="45.3764133" lon="14.355685"><ele>309.40000000000003</ele><time>2026-04-30T14:33:40.089Z</time></trkpt><trkpt lat="45.376515" lon="14.3557267"><ele>308.6</ele><time>2026-04-30T14:33:41.096Z</time></trkpt><trkpt lat="45.376615" lon="14.3557517"><ele>307.8</ele><time>2026-04-30T14:33:42.103Z</time></trkpt><trkpt lat="45.3767133" lon="14.355775"><ele>307.0</ele><time>2026-04-30T14:33:43.043Z</time></trkpt><trkpt lat="45.37681" lon="14.355815"><ele>307.0</ele><time>2026-04-30T14:33:44.116Z</time></trkpt><trkpt lat="45.376905" lon="14.3558783"><ele>307.0</ele><time>2026-04-30T14:33:45.055Z</time></trkpt><trkpt lat="45.376995" lon="14.3559683"><ele>307.0</ele><time>2026-04-30T14:33:46.129Z</time></trkpt><trkpt lat="45.377075" lon="14.3560733"><ele>307.0</ele><time>2026-04-30T14:33:47.07Z</time></trkpt><trkpt lat="45.377145" lon="14.35618"><ele>307.0</ele><time>2026-04-30T14:33:48.075Z</time></trkpt><trkpt lat="45.3772183" lon="14.3562817"><ele>306.6</ele><time>2026-04-30T14:33:49.082Z</time></trkpt><trkpt lat="45.3772967" lon="14.3563683"><ele>306.2</ele><time>2026-04-30T14:33:50.089Z</time></trkpt><trkpt lat="45.37738" lon="14.356435"><ele>305.8</ele><time>2026-04-30T14:33:51.162Z</time></trkpt><trkpt lat="45.377465" lon="14.3564933"><ele>305.4</ele><time>2026-04-30T14:33:52.102Z</time></trkpt><trkpt lat="45.377555" lon="14.356555"><ele>305.0</ele><time>2026-04-30T14:33:53.041Z</time></trkpt><trkpt lat="45.37764" lon="14.356625"><ele>305.0</ele><time>2026-04-30T14:33:54.116Z</time></trkpt><trkpt lat="45.3777217" lon="14.3566917"><ele>305.0</ele><time>2026-04-30T14:33:55.056Z</time></trkpt><trkpt lat="45.377805" lon="14.3567533"><ele>305.0</ele><time>2026-04-30T14:33:56.129Z</time></trkpt><trkpt lat="45.3778917" lon="14.356795"><ele>305.0</ele><time>2026-04-30T14:33:57.068Z</time></trkpt><trkpt lat="45.3779833" lon="14.3568167"><ele>305.0</ele><time>2026-04-30T14:33:58.074Z</time></trkpt><trkpt lat="45.3780733" lon="14.356815"><ele>304.0</ele><time>2026-04-30T14:33:59.082Z</time></trkpt><trkpt lat="45.37816" lon="14.3567983"><ele>303.0</ele><time>2026-04-30T14:34:00.089Z</time></trkpt><trkpt lat="45.37825" lon="14.3567733"><ele>302.0</ele><time>2026-04-30T14:34:01.161Z</time></trkpt><trkpt lat="45.3783433" lon="14.356755"><ele>301.0</ele><time>2026-04-30T14:34:02.101Z</time></trkpt><trkpt lat="45.3784367" lon="14.3567517"><ele>300.0</ele><time>2026-04-30T14:34:03.04Z</time></trkpt><trkpt lat="45.3785317" lon="14.356765"><ele>300.0</ele><time>2026-04-30T14:34:04.115Z</time></trkpt><trkpt lat="45.378625" lon="14.3568017"><ele>300.0</ele><time>2026-04-30T14:34:05.055Z</time></trkpt><trkpt lat="45.378715" lon="14.3568583"><ele>300.0</ele><time>2026-04-30T14:34:06.127Z</time></trkpt><trkpt lat="45.3788017" lon="14.3569283"><ele>300.0</ele><time>2026-04-30T14:34:07.068Z</time></trkpt><trkpt lat="45.3788783" lon="14.357005"><ele>300.0</ele><time>2026-04-30T14:34:08.074Z</time></trkpt><trkpt lat="45.3789483" lon="14.35708"><ele>299.5</ele><time>2026-04-30T14:34:09.147Z</time></trkpt><trkpt lat="45.3790167" lon="14.357155"><ele>299.0</ele><time>2026-04-30T14:34:10.087Z</time></trkpt><trkpt lat="45.3790833" lon="14.35723"><ele>298.5</ele><time>2026-04-30T14:34:11.161Z</time></trkpt><trkpt lat="45.3791417" lon="14.3573167"><ele>298.0</ele><time>2026-04-30T14:34:12.1Z</time></trkpt><trkpt lat="45.3792" lon="14.3574183"><ele>297.5</ele><time>2026-04-30T14:34:13.04Z</time></trkpt><trkpt lat="45.3792433" lon="14.3575333"><ele>297.0</ele><time>2026-04-30T14:34:14.113Z</time></trkpt><trkpt lat="45.37929" lon="14.357655"><ele>297.0</ele><time>2026-04-30T14:34:15.053Z</time></trkpt><trkpt lat="45.37935" lon="14.3577883"><ele>297.0</ele><time>2026-04-30T14:34:16.127Z</time></trkpt><trkpt lat="45.3794133" lon="14.3579183"><ele>297.0</ele><time>2026-04-30T14:34:17.133Z</time></trkpt><trkpt lat="45.3794667" lon="14.358035"><ele>297.0</ele><time>2026-04-30T14:34:18.074Z</time></trkpt><trkpt lat="45.3795233" lon="14.358145"><ele>297.0</ele><time>2026-04-30T14:34:19.147Z</time></trkpt><trkpt lat="45.3795783" lon="14.35825"><ele>297.0</ele><time>2026-04-30T14:34:20.086Z</time></trkpt><trkpt lat="45.37963" lon="14.35835"><ele>297.0</ele><time>2026-04-30T14:34:21.16Z</time></trkpt><trkpt lat="45.3796883" lon="14.3584483"><ele>297.0</ele><time>2026-04-30T14:34:22.1Z</time></trkpt><trkpt lat="45.3797517" lon="14.3585583"><ele>297.0</ele><time>2026-04-30T14:34:23.039Z</time></trkpt><trkpt lat="45.379805" lon="14.3586683"><ele>297.0</ele><time>2026-04-30T14:34:24.113Z</time></trkpt><trkpt lat="45.3798583" lon="14.3587967"><ele>294.75</ele><time>2026-04-30T14:34:25.119Z</time></trkpt><trkpt lat="45.3799117" lon="14.3589383"><ele>292.5</ele><time>2026-04-30T14:34:26.059Z</time></trkpt><trkpt lat="45.3799667" lon="14.35909"><ele>290.25</ele><time>2026-04-30T14:34:27.134Z</time></trkpt><trkpt lat="45.3800217" lon="14.35925"><ele>288.0</ele><time>2026-04-30T14:34:28.072Z</time></trkpt><trkpt lat="45.3800767" lon="14.3594183"><ele>288.0</ele><time>2026-04-30T14:34:29.147Z</time></trkpt><trkpt lat="45.3801267" lon="14.3595833"><ele>288.0</ele><time>2026-04-30T14:34:30.085Z</time></trkpt><trkpt lat="45.3801767" lon="14.3597433"><ele>288.0</ele><time>2026-04-30T14:34:31.025Z</time></trkpt><trkpt lat="45.3802283" lon="14.3598967"><ele>288.0</ele><time>2026-04-30T14:34:32.1Z</time></trkpt><trkpt lat="45.3802767" lon="14.3600467"><ele>288.25</ele><time>2026-04-30T14:34:33.105Z</time></trkpt><trkpt lat="45.380325" lon="14.3601933"><ele>288.5</ele><time>2026-04-30T14:34:34.112Z</time></trkpt><trkpt lat="45.38037" lon="14.3603383"><ele>288.75</ele><time>2026-04-30T14:34:35.12Z</time></trkpt><trkpt lat="45.38042" lon="14.3604883"><ele>289.0</ele><time>2026-04-30T14:34:36.059Z</time></trkpt><trkpt lat="45.3804717" lon="14.360645"><ele>285.5</ele><time>2026-04-30T14:34:37.132Z</time></trkpt><trkpt lat="45.3805333" lon="14.3608"><ele>282.0</ele><time>2026-04-30T14:34:38.072Z</time></trkpt><trkpt lat="45.3806067" lon="14.3609433"><ele>278.5</ele><time>2026-04-30T14:34:39.146Z</time></trkpt><trkpt lat="45.3806917" lon="14.3610667"><ele>275.0</ele><time>2026-04-30T14:34:40.086Z</time></trkpt><trkpt lat="45.3807817" lon="14.3611683"><ele>275.0</ele><time>2026-04-30T14:34:41.024Z</time></trkpt><trkpt lat="45.3808817" lon="14.3612467"><ele>275.0</ele><time>2026-04-30T14:34:42.099Z</time></trkpt><trkpt lat="45.380985" lon="14.36131"><ele>275.0</ele><time>2026-04-30T14:34:43.105Z</time></trkpt><trkpt lat="45.3810783" lon="14.361375"><ele>275.0</ele><time>2026-04-30T14:34:44.111Z</time></trkpt><trkpt lat="45.3811633" lon="14.36145"><ele>275.0</ele><time>2026-04-30T14:34:45.118Z</time></trkpt><trkpt lat="45.38124" lon="14.3615417"><ele>275.2</ele><time>2026-04-30T14:34:46.058Z</time></trkpt><trkpt lat="45.381305" lon="14.36165"><ele>275.4</ele><time>2026-04-30T14:34:47.131Z</time></trkpt><trkpt lat="45.3813633" lon="14.3617783"><ele>275.6</ele><time>2026-04-30T14:34:48.072Z</time></trkpt><trkpt lat="45.381415" lon="14.3619283"><ele>275.8</ele><time>2026-04-30T14:34:49.144Z</time></trkpt><trkpt lat="45.38146" lon="14.3620933"><ele>276.0</ele><time>2026-04-30T14:34:50.085Z</time></trkpt><trkpt lat="45.3814983" lon="14.3622667"><ele>274.75</ele><time>2026-04-30T14:34:51.09Z</time></trkpt><trkpt lat="45.3815283" lon="14.3624417"><ele>273.5</ele><time>2026-04-30T14:34:52.097Z</time></trkpt><trkpt lat="45.3815417" lon="14.3626183"><ele>272.25</ele><time>2026-04-30T14:34:53.105Z</time></trkpt><trkpt lat="45.3815467" lon="14.362795"><ele>271.0</ele><time>2026-04-30T14:34:54.111Z</time></trkpt><trkpt lat="45.3815367" lon="14.36297"><ele>271.5</ele><time>2026-04-30T14:34:55.118Z</time></trkpt><trkpt lat="45.3815133" lon="14.3631417"><ele>272.0</ele><time>2026-04-30T14:34:56.057Z</time></trkpt><trkpt lat="45.3814917" lon="14.36331"><ele>272.5</ele><time>2026-04-30T14:34:57.13Z</time></trkpt><trkpt lat="45.3814717" lon="14.3634667"><ele>273.0</ele><time>2026-04-30T14:34:58.071Z</time></trkpt><trkpt lat="45.3814533" lon="14.3636217"><ele>273.0</ele><time>2026-04-30T14:34:59.144Z</time></trkpt><trkpt lat="45.3814333" lon="14.3637733"><ele>273.0</ele><time>2026-04-30T14:35:00.083Z</time></trkpt><trkpt lat="45.3814117" lon="14.3639267"><ele>273.0</ele><time>2026-04-30T14:35:01.09Z</time></trkpt><trkpt lat="45.3813883" lon="14.3640817"><ele>273.0</ele><time>2026-04-30T14:35:02.097Z</time></trkpt><trkpt lat="45.3813683" lon="14.36424"><ele>273.0</ele><time>2026-04-30T14:35:03.104Z</time></trkpt><trkpt lat="45.3813483" lon="14.3644017"><ele>273.0</ele><time>2026-04-30T14:35:04.111Z</time></trkpt><trkpt lat="45.3813333" lon="14.3645683"><ele>273.0</ele><time>2026-04-30T14:35:05.116Z</time></trkpt><trkpt lat="45.3813183" lon="14.36474"><ele>273.0</ele><time>2026-04-30T14:35:06.056Z</time></trkpt><trkpt lat="45.3813067" lon="14.3649117"><ele>273.0</ele><time>2026-04-30T14:35:07.13Z</time></trkpt><trkpt lat="45.3813017" lon="14.365085"><ele>274.3333333333333</ele><time>2026-04-30T14:35:08.07Z</time></trkpt><trkpt lat="45.381335" lon="14.36543"><ele>275.66666666666663</ele><time>2026-04-30T14:35:10.082Z</time></trkpt><trkpt lat="45.381375" lon="14.3655917"><ele>277.0</ele><time>2026-04-30T14:35:11.089Z</time></trkpt><trkpt lat="45.3814317" lon="14.3657417"><ele>278.25</ele><time>2026-04-30T14:35:12.095Z</time></trkpt><trkpt lat="45.3815033" lon="14.3658733"><ele>279.5</ele><time>2026-04-30T14:35:13.102Z</time></trkpt><trkpt lat="45.3815883" lon="14.365985"><ele>280.75</ele><time>2026-04-30T14:35:14.11Z</time></trkpt><trkpt lat="45.3816833" lon="14.3660767"><ele>282.0</ele><time>2026-04-30T14:35:15.115Z</time></trkpt><trkpt lat="45.3817783" lon="14.3661567"><ele>282.0</ele><time>2026-04-30T14:35:16.056Z</time></trkpt><trkpt lat="45.3818767" lon="14.3662367"><ele>282.0</ele><time>2026-04-30T14:35:17.129Z</time></trkpt><trkpt lat="45.38197" lon="14.3663133"><ele>282.0</ele><time>2026-04-30T14:35:18.068Z</time></trkpt><trkpt lat="45.3820567" lon="14.36639"><ele>282.0</ele><time>2026-04-30T14:35:19.142Z</time></trkpt><trkpt lat="45.3821383" lon="14.36647"><ele>282.0</ele><time>2026-04-30T14:35:20.081Z</time></trkpt><trkpt lat="45.382205" lon="14.3665533"><ele>282.4</ele><time>2026-04-30T14:35:21.089Z</time></trkpt><trkpt lat="45.3822533" lon="14.3666483"><ele>282.79999999999995</ele><time>2026-04-30T14:35:22.096Z</time></trkpt><trkpt lat="45.3822783" lon="14.3667583"><ele>283.2</ele><time>2026-04-30T14:35:23.102Z</time></trkpt><trkpt lat="45.3822817" lon="14.366885"><ele>283.59999999999997</ele><time>2026-04-30T14:35:24.109Z</time></trkpt><trkpt lat="45.3822733" lon="14.36703"><ele>284.0</ele><time>2026-04-30T14:35:25.115Z</time></trkpt><trkpt lat="45.3822633" lon="14.367195"><ele>284.0</ele><time>2026-04-30T14:35:26.055Z</time></trkpt><trkpt lat="45.3822483" lon="14.3673767"><ele>284.0</ele><time>2026-04-30T14:35:27.128Z</time></trkpt><trkpt lat="45.38223" lon="14.3675633"><ele>284.0</ele><time>2026-04-30T14:35:28.068Z</time></trkpt><trkpt lat="45.38221" lon="14.3677483"><ele>284.0</ele><time>2026-04-30T14:35:29.141Z</time></trkpt><trkpt lat="45.3821917" lon="14.3679283"><ele>287.0</ele><time>2026-04-30T14:35:30.082Z</time></trkpt><trkpt lat="45.38217" lon="14.368105"><ele>290.0</ele><time>2026-04-30T14:35:31.088Z</time></trkpt><trkpt lat="45.3821483" lon="14.36828"><ele>293.0</ele><time>2026-04-30T14:35:32.094Z</time></trkpt><trkpt lat="45.3821283" lon="14.3684533"><ele>296.0</ele><time>2026-04-30T14:35:33.101Z</time></trkpt><trkpt lat="45.3821083" lon="14.368625"><ele>296.0</ele><time>2026-04-30T14:35:34.107Z</time></trkpt><trkpt lat="45.382085" lon="14.3688017"><ele>296.0</ele><time>2026-04-30T14:35:35.115Z</time></trkpt><trkpt lat="45.3820617" lon="14.3689783"><ele>296.0</ele><time>2026-04-30T14:35:36.053Z</time></trkpt><trkpt lat="45.3820383" lon="14.369155"><ele>296.0</ele><time>2026-04-30T14:35:37.127Z</time></trkpt><trkpt lat="45.3820017" lon="14.369325"><ele>295.75</ele><time>2026-04-30T14:35:38.068Z</time></trkpt><trkpt lat="45.3819567" lon="14.3694883"><ele>295.5</ele><time>2026-04-30T14:35:39.14Z</time></trkpt><trkpt lat="45.3819" lon="14.369645"><ele>295.25</ele><time>2026-04-30T14:35:40.081Z</time></trkpt><trkpt lat="45.3818333" lon="14.3697917"><ele>295.0</ele><time>2026-04-30T14:35:41.087Z</time></trkpt><trkpt lat="45.38176" lon="14.3699317"><ele>295.75</ele><time>2026-04-30T14:35:42.093Z</time></trkpt><trkpt lat="45.38168" lon="14.3700683"><ele>296.5</ele><time>2026-04-30T14:35:43.101Z</time></trkpt><trkpt lat="45.3815867" lon="14.3701967"><ele>297.25</ele><time>2026-04-30T14:35:44.107Z</time></trkpt><trkpt lat="45.38148" lon="14.3703133"><ele>298.0</ele><time>2026-04-30T14:35:45.114Z</time></trkpt><trkpt lat="45.3813617" lon="14.370405"><ele>298.75</ele><time>2026-04-30T14:35:46.054Z</time></trkpt><trkpt lat="45.3812383" lon="14.3704717"><ele>299.5</ele><time>2026-04-30T14:35:47.126Z</time></trkpt><trkpt lat="45.381115" lon="14.3705233"><ele>300.25</ele><time>2026-04-30T14:35:48.066Z</time></trkpt><trkpt lat="45.3809967" lon="14.37058"><ele>301.0</ele><time>2026-04-30T14:35:49.141Z</time></trkpt><trkpt lat="45.3808817" lon="14.3706517"><ele>301.0</ele><time>2026-04-30T14:35:50.079Z</time></trkpt><trkpt lat="45.3807717" lon="14.3707367"><ele>301.0</ele><time>2026-04-30T14:35:51.087Z</time></trkpt><trkpt lat="45.380665" lon="14.3708333"><ele>301.0</ele><time>2026-04-30T14:35:52.092Z</time></trkpt><trkpt lat="45.38056" lon="14.3709367"><ele>301.0</ele><time>2026-04-30T14:35:53.099Z</time></trkpt><trkpt lat="45.3804583" lon="14.3710467"><ele>301.75</ele><time>2026-04-30T14:35:54.04Z</time></trkpt><trkpt lat="45.380355" lon="14.3711617"><ele>302.5</ele><time>2026-04-30T14:35:55.112Z</time></trkpt><trkpt lat="45.3802567" lon="14.37129"><ele>303.25</ele><time>2026-04-30T14:35:56.053Z</time></trkpt><trkpt lat="45.380165" lon="14.3714333"><ele>304.0</ele><time>2026-04-30T14:35:57.126Z</time></trkpt><trkpt lat="45.380085" lon="14.3715967"><ele>304.0</ele><time>2026-04-30T14:35:58.065Z</time></trkpt><trkpt lat="45.3800183" lon="14.3717733"><ele>304.0</ele><time>2026-04-30T14:35:59.073Z</time></trkpt><trkpt lat="45.3799633" lon="14.3719683"><ele>304.0</ele><time>2026-04-30T14:36:00.079Z</time></trkpt><trkpt lat="45.379915" lon="14.3721583"><ele>304.0</ele><time>2026-04-30T14:36:01.085Z</time></trkpt><trkpt lat="45.3798683" lon="14.3723367"><ele>303.75</ele><time>2026-04-30T14:36:02.092Z</time></trkpt><trkpt lat="45.37982" lon="14.372505"><ele>303.5</ele><time>2026-04-30T14:36:03.099Z</time></trkpt><trkpt lat="45.3797733" lon="14.372665"><ele>303.25</ele><time>2026-04-30T14:36:04.039Z</time></trkpt><trkpt lat="45.3797333" lon="14.3728183"><ele>303.0</ele><time>2026-04-30T14:36:05.111Z</time></trkpt><trkpt lat="45.3796983" lon="14.372965"><ele>302.6</ele><time>2026-04-30T14:36:06.051Z</time></trkpt><trkpt lat="45.37967" lon="14.3731133"><ele>302.20000000000005</ele><time>2026-04-30T14:36:07.125Z</time></trkpt><trkpt lat="45.3796483" lon="14.37326"><ele>301.8</ele><time>2026-04-30T14:36:08.065Z</time></trkpt><trkpt lat="45.3796367" lon="14.373405"><ele>301.40000000000003</ele><time>2026-04-30T14:36:09.071Z</time></trkpt><trkpt lat="45.3796433" lon="14.3735583"><ele>301.0</ele><time>2026-04-30T14:36:10.078Z</time></trkpt><trkpt lat="45.3796717" lon="14.3737133"><ele>301.40000000000003</ele><time>2026-04-30T14:36:11.084Z</time></trkpt><trkpt lat="45.37972" lon="14.373855"><ele>301.8</ele><time>2026-04-30T14:36:12.091Z</time></trkpt><trkpt lat="45.37978" lon="14.3739883"><ele>302.20000000000005</ele><time>2026-04-30T14:36:13.098Z</time></trkpt><trkpt lat="45.3798417" lon="14.37411"><ele>302.6</ele><time>2026-04-30T14:36:14.037Z</time></trkpt><trkpt lat="45.3799067" lon="14.3742167"><ele>303.0</ele><time>2026-04-30T14:36:15.112Z</time></trkpt><trkpt lat="45.379975" lon="14.374305"><ele>303.1666666666667</ele><time>2026-04-30T14:36:16.05Z</time></trkpt><trkpt lat="45.3800517" lon="14.374375"><ele>303.3333333333333</ele><time>2026-04-30T14:36:17.125Z</time></trkpt><trkpt lat="45.3801383" lon="14.3744233"><ele>303.5</ele><time>2026-04-30T14:36:18.064Z</time></trkpt><trkpt lat="45.3802283" lon="14.3744483"><ele>303.66666666666663</ele><time>2026-04-30T14:36:19.07Z</time></trkpt><trkpt lat="45.38031" lon="14.3744583"><ele>303.8333333333333</ele><time>2026-04-30T14:36:20.077Z</time></trkpt><trkpt lat="45.3803817" lon="14.3744633"><ele>304.0</ele><time>2026-04-30T14:36:21.083Z</time></trkpt><trkpt lat="45.3804467" lon="14.374465"><ele>304.0</ele><time>2026-04-30T14:36:22.157Z</time></trkpt><trkpt lat="45.3805617" lon="14.3744767"><ele>304.0</ele><time>2026-04-30T14:36:24.036Z</time></trkpt><trkpt lat="45.3806717" lon="14.3745367"><ele>304.0</ele><time>2026-04-30T14:36:26.05Z</time></trkpt><trkpt lat="45.3807433" lon="14.3746483"><ele>304.0</ele><time>2026-04-30T14:36:28.063Z</time></trkpt><trkpt lat="45.380775" lon="14.3748217"><ele>304.1428571428571</ele><time>2026-04-30T14:36:30.076Z</time></trkpt><trkpt lat="45.3807833" lon="14.374925"><ele>304.28571428571433</ele><time>2026-04-30T14:36:31.083Z</time></trkpt><trkpt lat="45.380785" lon="14.3750267"><ele>304.42857142857144</ele><time>2026-04-30T14:36:32.156Z</time></trkpt><trkpt lat="45.38078" lon="14.375125"><ele>304.57142857142856</ele><time>2026-04-30T14:36:33.096Z</time></trkpt><trkpt lat="45.3807683" lon="14.3752217"><ele>304.71428571428567</ele><time>2026-04-30T14:36:34.036Z</time></trkpt><trkpt lat="45.3807533" lon="14.3753217"><ele>304.8571428571429</ele><time>2026-04-30T14:36:35.109Z</time></trkpt><trkpt lat="45.3807383" lon="14.375425"><ele>305.0</ele><time>2026-04-30T14:36:36.05Z</time></trkpt><trkpt lat="45.3807183" lon="14.3755383"><ele>305.0</ele><time>2026-04-30T14:36:37.123Z</time></trkpt><trkpt lat="45.3807" lon="14.375665"><ele>305.0</ele><time>2026-04-30T14:36:38.062Z</time></trkpt><trkpt lat="45.38068" lon="14.37581"><ele>305.0</ele><time>2026-04-30T14:36:39.069Z</time></trkpt><trkpt lat="45.3806583" lon="14.3759617"><ele>305.0</ele><time>2026-04-30T14:36:40.142Z</time></trkpt><trkpt lat="45.38064" lon="14.3761217"><ele>305.0</ele><time>2026-04-30T14:36:41.083Z</time></trkpt><trkpt lat="45.38063" lon="14.37629"><ele>305.0</ele><time>2026-04-30T14:36:42.156Z</time></trkpt><trkpt lat="45.3806283" lon="14.3764583"><ele>305.0</ele><time>2026-04-30T14:36:43.096Z</time></trkpt><trkpt lat="45.3806367" lon="14.3766133"><ele>305.0</ele><time>2026-04-30T14:36:44.036Z</time></trkpt><trkpt lat="45.380655" lon="14.3767617"><ele>305.0</ele><time>2026-04-30T14:36:45.109Z</time></trkpt><trkpt lat="45.38068" lon="14.3769083"><ele>305.0</ele><time>2026-04-30T14:36:46.048Z</time></trkpt><trkpt lat="45.3807133" lon="14.3770533"><ele>305.6</ele><time>2026-04-30T14:36:47.122Z</time></trkpt><trkpt lat="45.3807517" lon="14.377195"><ele>306.2</ele><time>2026-04-30T14:36:48.128Z</time></trkpt><trkpt lat="45.380795" lon="14.37733"><ele>306.8</ele><time>2026-04-30T14:36:49.068Z</time></trkpt><trkpt lat="45.3808383" lon="14.3774617"><ele>307.4</ele><time>2026-04-30T14:36:50.142Z</time></trkpt><trkpt lat="45.38088" lon="14.37759"><ele>308.0</ele><time>2026-04-30T14:36:51.082Z</time></trkpt><trkpt lat="45.38092" lon="14.3777133"><ele>308.0</ele><time>2026-04-30T14:36:52.155Z</time></trkpt><trkpt lat="45.3809617" lon="14.3778367"><ele>308.0</ele><time>2026-04-30T14:36:53.094Z</time></trkpt><trkpt lat="45.381005" lon="14.3779617"><ele>308.0</ele><time>2026-04-30T14:36:54.035Z</time></trkpt><trkpt lat="45.381045" lon="14.378085"><ele>308.0</ele><time>2026-04-30T14:36:55.109Z</time></trkpt><trkpt lat="45.381085" lon="14.3782083"><ele>308.0</ele><time>2026-04-30T14:36:56.115Z</time></trkpt><trkpt lat="45.3811267" lon="14.37833"><ele>308.2</ele><time>2026-04-30T14:36:57.121Z</time></trkpt><trkpt lat="45.381165" lon="14.3784467"><ele>308.4</ele><time>2026-04-30T14:36:58.128Z</time></trkpt><trkpt lat="45.3811967" lon="14.37855"><ele>308.59999999999997</ele><time>2026-04-30T14:36:59.067Z</time></trkpt><trkpt lat="45.381225" lon="14.37864"><ele>308.8</ele><time>2026-04-30T14:37:00.142Z</time></trkpt><trkpt lat="45.3812667" lon="14.3787917"><ele>309.0</ele><time>2026-04-30T14:37:02.154Z</time></trkpt><trkpt lat="45.38129" lon="14.3789267"><ele>309.0</ele><time>2026-04-30T14:37:04.101Z</time></trkpt><trkpt lat="45.381305" lon="14.37906"><ele>309.0</ele><time>2026-04-30T14:37:06.114Z</time></trkpt><trkpt lat="45.3812633" lon="14.3792117"><ele>309.0</ele><time>2026-04-30T14:37:08.127Z</time></trkpt><trkpt lat="45.3812133" lon="14.379285"><ele>309.0</ele><time>2026-04-30T14:37:09.067Z</time></trkpt><trkpt lat="45.3811433" lon="14.3793467"><ele>309.0</ele><time>2026-04-30T14:37:10.14Z</time></trkpt><trkpt lat="45.3810517" lon="14.3793883"><ele>309.0</ele><time>2026-04-30T14:37:11.08Z</time></trkpt><trkpt lat="45.3809383" lon="14.3794133"><ele>309.0</ele><time>2026-04-30T14:37:12.153Z</time></trkpt><trkpt lat="45.3807983" lon="14.37944"><ele>309.0</ele><time>2026-04-30T14:37:13.093Z</time></trkpt><trkpt lat="45.38065" lon="14.3794667"><ele>309.0</ele><time>2026-04-30T14:37:14.1Z</time></trkpt><trkpt lat="45.3804967" lon="14.3794917"><ele>310.5</ele><time>2026-04-30T14:37:15.106Z</time></trkpt><trkpt lat="45.3801917" lon="14.3795417"><ele>312.0</ele><time>2026-04-30T14:37:17.12Z</time></trkpt><trkpt lat="45.3800367" lon="14.3795617"><ele>312.0</ele><time>2026-04-30T14:37:18.127Z</time></trkpt><trkpt lat="45.3798767" lon="14.3795767"><ele>312.0</ele><time>2026-04-30T14:37:19.065Z</time></trkpt><trkpt lat="45.3797133" lon="14.379585"><ele>312.0</ele><time>2026-04-30T14:37:20.139Z</time></trkpt><trkpt lat="45.3795467" lon="14.3795883"><ele>311.3333333333333</ele><time>2026-04-30T14:37:21.08Z</time></trkpt><trkpt lat="45.3793767" lon="14.3795833"><ele>310.66666666666663</ele><time>2026-04-30T14:37:22.152Z</time></trkpt><trkpt lat="45.379205" lon="14.3795733"><ele>310.0</ele><time>2026-04-30T14:37:23.093Z</time></trkpt><trkpt lat="45.379035" lon="14.3795533"><ele>310.0</ele><time>2026-04-30T14:37:24.1Z</time></trkpt><trkpt lat="45.37886" lon="14.3795267"><ele>310.0</ele><time>2026-04-30T14:37:25.106Z</time></trkpt><trkpt lat="45.3786833" lon="14.3794967"><ele>310.0</ele><time>2026-04-30T14:37:26.113Z</time></trkpt><trkpt lat="45.3785033" lon="14.3794667"><ele>310.0</ele><time>2026-04-30T14:37:27.052Z</time></trkpt><trkpt lat="45.3783217" lon="14.379435"><ele>310.0</ele><time>2026-04-30T14:37:28.126Z</time></trkpt><trkpt lat="45.3781383" lon="14.379405"><ele>310.0</ele><time>2026-04-30T14:37:29.065Z</time></trkpt><trkpt lat="45.3779517" lon="14.379375"><ele>310.3333333333333</ele><time>2026-04-30T14:37:30.139Z</time></trkpt><trkpt lat="45.3777617" lon="14.3793433"><ele>310.6666666666667</ele><time>2026-04-30T14:37:31.078Z</time></trkpt><trkpt lat="45.3775733" lon="14.37931"><ele>311.0</ele><time>2026-04-30T14:37:32.085Z</time></trkpt><trkpt lat="45.37738" lon="14.3792767"><ele>310.6666666666667</ele><time>2026-04-30T14:37:33.091Z</time></trkpt><trkpt lat="45.3771817" lon="14.379245"><ele>310.3333333333333</ele><time>2026-04-30T14:37:34.098Z</time></trkpt><trkpt lat="45.376985" lon="14.3792117"><ele>310.0</ele><time>2026-04-30T14:37:35.105Z</time></trkpt><trkpt lat="45.3767867" lon="14.3791767"><ele>310.0</ele><time>2026-04-30T14:37:36.111Z</time></trkpt><trkpt lat="45.3765883" lon="14.379145"><ele>310.0</ele><time>2026-04-30T14:37:37.051Z</time></trkpt><trkpt lat="45.3763867" lon="14.37911"><ele>310.0</ele><time>2026-04-30T14:37:38.124Z</time></trkpt><trkpt lat="45.3761783" lon="14.3790833"><ele>311.3333333333333</ele><time>2026-04-30T14:37:39.065Z</time></trkpt><trkpt lat="45.3759733" lon="14.3790617"><ele>312.6666666666667</ele><time>2026-04-30T14:37:40.139Z</time></trkpt><trkpt lat="45.3757717" lon="14.3790483"><ele>314.0</ele><time>2026-04-30T14:37:41.078Z</time></trkpt><trkpt lat="45.3755683" lon="14.3790467"><ele>314.33333333333337</ele><time>2026-04-30T14:37:42.084Z</time></trkpt><trkpt lat="45.3753667" lon="14.379055"><ele>314.6666666666667</ele><time>2026-04-30T14:37:43.091Z</time></trkpt><trkpt lat="45.37517" lon="14.3790717"><ele>315.0</ele><time>2026-04-30T14:37:44.097Z</time></trkpt><trkpt lat="45.3749717" lon="14.3790983"><ele>315.0</ele><time>2026-04-30T14:37:45.104Z</time></trkpt><trkpt lat="45.374775" lon="14.3791383"><ele>315.0</ele><time>2026-04-30T14:37:46.11Z</time></trkpt><trkpt lat="45.3745783" lon="14.37919"><ele>315.0</ele><time>2026-04-30T14:37:47.05Z</time></trkpt><trkpt lat="45.3743833" lon="14.3792567"><ele>315.3333333333333</ele><time>2026-04-30T14:37:48.124Z</time></trkpt><trkpt lat="45.37419" lon="14.3793367"><ele>315.66666666666663</ele><time>2026-04-30T14:37:49.064Z</time></trkpt><trkpt lat="45.374" lon="14.3794267"><ele>316.0</ele><time>2026-04-30T14:37:50.137Z</time></trkpt><trkpt lat="45.373815" lon="14.37952"><ele>316.0</ele><time>2026-04-30T14:37:51.076Z</time></trkpt><trkpt lat="45.3736417" lon="14.3796067"><ele>316.0</ele><time>2026-04-30T14:37:52.083Z</time></trkpt><trkpt lat="45.3734567" lon="14.3797333"><ele>316.0</ele><time>2026-04-30T14:37:53.09Z</time></trkpt><trkpt lat="45.3732767" lon="14.379865"><ele>316.0</ele><time>2026-04-30T14:37:54.097Z</time></trkpt><trkpt lat="45.3730933" lon="14.379995"><ele>316.0</ele><time>2026-04-30T14:37:55.104Z</time></trkpt><trkpt lat="45.3729117" lon="14.3801283"><ele>316.0</ele><time>2026-04-30T14:37:56.11Z</time></trkpt><trkpt lat="45.3727317" lon="14.3802633"><ele>316.3333333333333</ele><time>2026-04-30T14:37:57.049Z</time></trkpt><trkpt lat="45.3725517" lon="14.3804"><ele>316.6666666666667</ele><time>2026-04-30T14:37:58.123Z</time></trkpt><trkpt lat="45.3723733" lon="14.3805367"><ele>317.0</ele><time>2026-04-30T14:37:59.063Z</time></trkpt><trkpt lat="45.3721933" lon="14.38067"><ele>316.33333333333337</ele><time>2026-04-30T14:38:00.137Z</time></trkpt><trkpt lat="45.3720133" lon="14.380805"><ele>315.6666666666667</ele><time>2026-04-30T14:38:01.077Z</time></trkpt><trkpt lat="45.3718333" lon="14.380935"><ele>315.0</ele><time>2026-04-30T14:38:02.082Z</time></trkpt><trkpt lat="45.3716533" lon="14.3810567"><ele>315.0</ele><time>2026-04-30T14:38:03.089Z</time></trkpt><trkpt lat="45.37147" lon="14.3811617"><ele>315.0</ele><time>2026-04-30T14:38:04.096Z</time></trkpt><trkpt lat="45.3712817" lon="14.381245"><ele>315.0</ele><time>2026-04-30T14:38:05.103Z</time></trkpt><trkpt lat="45.37109" lon="14.3813083"><ele>315.0</ele><time>2026-04-30T14:38:06.11Z</time></trkpt><trkpt lat="45.3708933" lon="14.38136"><ele>315.0</ele><time>2026-04-30T14:38:07.048Z</time></trkpt><trkpt lat="45.370695" lon="14.3813967"><ele>315.0</ele><time>2026-04-30T14:38:08.122Z</time></trkpt><trkpt lat="45.3704983" lon="14.3814183"><ele>315.6666666666667</ele><time>2026-04-30T14:38:09.063Z</time></trkpt><trkpt lat="45.3703083" lon="14.38142"><ele>316.33333333333337</ele><time>2026-04-30T14:38:10.135Z</time></trkpt><trkpt lat="45.37013" lon="14.3814083"><ele>317.0</ele><time>2026-04-30T14:38:11.075Z</time></trkpt><trkpt lat="45.36996" lon="14.3813833"><ele>315.33333333333337</ele><time>2026-04-30T14:38:12.082Z</time></trkpt><trkpt lat="45.3697983" lon="14.3813483"><ele>313.6666666666667</ele><time>2026-04-30T14:38:13.089Z</time></trkpt><trkpt lat="45.3696383" lon="14.3813083"><ele>312.0</ele><time>2026-04-30T14:38:14.095Z</time></trkpt><trkpt lat="45.3694783" lon="14.3812533"><ele>312.0</ele><time>2026-04-30T14:38:15.101Z</time></trkpt><trkpt lat="45.3693217" lon="14.3811833"><ele>312.0</ele><time>2026-04-30T14:38:16.108Z</time></trkpt><trkpt lat="45.3691633" lon="14.3811"><ele>312.0</ele><time>2026-04-30T14:38:17.048Z</time></trkpt><trkpt lat="45.369005" lon="14.3810017"><ele>312.6666666666667</ele><time>2026-04-30T14:38:18.121Z</time></trkpt><trkpt lat="45.368845" lon="14.3808867"><ele>313.33333333333337</ele><time>2026-04-30T14:38:19.061Z</time></trkpt><trkpt lat="45.368685" lon="14.3807567"><ele>314.0</ele><time>2026-04-30T14:38:20.135Z</time></trkpt><trkpt lat="45.36852" lon="14.38062"><ele>312.33333333333337</ele><time>2026-04-30T14:38:21.075Z</time></trkpt><trkpt lat="45.3683533" lon="14.3804867"><ele>310.6666666666667</ele><time>2026-04-30T14:38:22.082Z</time></trkpt><trkpt lat="45.3681883" lon="14.3803683"><ele>309.0</ele><time>2026-04-30T14:38:23.087Z</time></trkpt><trkpt lat="45.368015" lon="14.38027"><ele>309.0</ele><time>2026-04-30T14:38:24.094Z</time></trkpt><trkpt lat="45.367835" lon="14.3801933"><ele>309.0</ele><time>2026-04-30T14:38:25.102Z</time></trkpt><trkpt lat="45.36765" lon="14.3801433"><ele>309.0</ele><time>2026-04-30T14:38:26.108Z</time></trkpt><trkpt lat="45.3674617" lon="14.3801217"><ele>309.0</ele><time>2026-04-30T14:38:27.047Z</time></trkpt><trkpt lat="45.3672733" lon="14.3801333"><ele>309.0</ele><time>2026-04-30T14:38:28.121Z</time></trkpt><trkpt lat="45.3670867" lon="14.3801767"><ele>309.0</ele><time>2026-04-30T14:38:29.06Z</time></trkpt><trkpt lat="45.3669017" lon="14.38024"><ele>308.6666666666667</ele><time>2026-04-30T14:38:30.135Z</time></trkpt><trkpt lat="45.3667233" lon="14.3803283"><ele>308.33333333333337</ele><time>2026-04-30T14:38:31.074Z</time></trkpt><trkpt lat="45.3665617" lon="14.380435"><ele>308.0</ele><time>2026-04-30T14:38:32.081Z</time></trkpt><trkpt lat="45.366415" lon="14.3805583"><ele>307.33333333333337</ele><time>2026-04-30T14:38:33.087Z</time></trkpt><trkpt lat="45.36628" lon="14.3806983"><ele>306.6666666666667</ele><time>2026-04-30T14:38:34.093Z</time></trkpt><trkpt lat="45.36616" lon="14.3808533"><ele>306.0</ele><time>2026-04-30T14:38:35.101Z</time></trkpt><trkpt lat="45.3660533" lon="14.3810183"><ele>306.0</ele><time>2026-04-30T14:38:36.106Z</time></trkpt><trkpt lat="45.3659533" lon="14.381185"><ele>306.0</ele><time>2026-04-30T14:38:37.046Z</time></trkpt><trkpt lat="45.36586" lon="14.3813533"><ele>306.0</ele><time>2026-04-30T14:38:38.12Z</time></trkpt><trkpt lat="45.3657733" lon="14.3815217"><ele>308.0</ele><time>2026-04-30T14:38:39.06Z</time></trkpt><trkpt lat="45.3656883" lon="14.3816867"><ele>310.0</ele><time>2026-04-30T14:38:40.133Z</time></trkpt><trkpt lat="45.3656033" lon="14.38185"><ele>312.0</ele><time>2026-04-30T14:38:41.072Z</time></trkpt><trkpt lat="45.3655233" lon="14.3820083"><ele>314.0</ele><time>2026-04-30T14:38:42.08Z</time></trkpt><trkpt lat="45.365445" lon="14.3821567"><ele>311.25</ele><time>2026-04-30T14:38:43.086Z</time></trkpt><trkpt lat="45.3653717" lon="14.3823033"><ele>308.5</ele><time>2026-04-30T14:38:44.093Z</time></trkpt><trkpt lat="45.3652983" lon="14.3824517"><ele>305.75</ele><time>2026-04-30T14:38:45.166Z</time></trkpt><trkpt lat="45.3652233" lon="14.382605"><ele>303.0</ele><time>2026-04-30T14:38:46.106Z</time></trkpt><trkpt lat="45.3651467" lon="14.38276"><ele>303.0</ele><time>2026-04-30T14:38:47.045Z</time></trkpt><trkpt lat="45.3650667" lon="14.3829167"><ele>303.0</ele><time>2026-04-30T14:38:48.12Z</time></trkpt><trkpt lat="45.3649883" lon="14.3830717"><ele>303.0</ele><time>2026-04-30T14:38:49.059Z</time></trkpt><trkpt lat="45.3649083" lon="14.3832283"><ele>303.0</ele><time>2026-04-30T14:38:50.132Z</time></trkpt><trkpt lat="45.36483" lon="14.3833867"><ele>303.25</ele><time>2026-04-30T14:38:51.073Z</time></trkpt><trkpt lat="45.3647517" lon="14.383545"><ele>303.5</ele><time>2026-04-30T14:38:52.078Z</time></trkpt><trkpt lat="45.3646717" lon="14.3837033"><ele>303.75</ele><time>2026-04-30T14:38:53.152Z</time></trkpt><trkpt lat="45.3645917" lon="14.3838567"><ele>304.0</ele><time>2026-04-30T14:38:54.092Z</time></trkpt><trkpt lat="45.364515" lon="14.384005"><ele>304.0</ele><time>2026-04-30T14:38:55.031Z</time></trkpt><trkpt lat="45.36444" lon="14.3841483"><ele>304.0</ele><time>2026-04-30T14:38:56.105Z</time></trkpt><trkpt lat="45.3643633" lon="14.3842967"><ele>304.0</ele><time>2026-04-30T14:38:57.044Z</time></trkpt><trkpt lat="45.364285" lon="14.3844583"><ele>304.0</ele><time>2026-04-30T14:38:58.119Z</time></trkpt><trkpt lat="45.364205" lon="14.3846317"><ele>304.75</ele><time>2026-04-30T14:38:59.058Z</time></trkpt><trkpt lat="45.3641267" lon="14.38481"><ele>305.5</ele><time>2026-04-30T14:39:00.064Z</time></trkpt><trkpt lat="45.3640517" lon="14.3849867"><ele>306.25</ele><time>2026-04-30T14:39:01.071Z</time></trkpt><trkpt lat="45.3639767" lon="14.3851633"><ele>307.0</ele><time>2026-04-30T14:39:02.078Z</time></trkpt><trkpt lat="45.363905" lon="14.3853433"><ele>306.5</ele><time>2026-04-30T14:39:03.152Z</time></trkpt><trkpt lat="45.363835" lon="14.3855317"><ele>306.0</ele><time>2026-04-30T14:39:04.091Z</time></trkpt><trkpt lat="45.3637667" lon="14.3857233"><ele>305.5</ele><time>2026-04-30T14:39:05.031Z</time></trkpt><trkpt lat="45.3637017" lon="14.38591"><ele>305.0</ele><time>2026-04-30T14:39:06.104Z</time></trkpt><trkpt lat="45.36363" lon="14.3860967"><ele>305.0</ele><time>2026-04-30T14:39:07.045Z</time></trkpt><trkpt lat="45.3635567" lon="14.38629"><ele>305.0</ele><time>2026-04-30T14:39:08.118Z</time></trkpt><trkpt lat="45.3634833" lon="14.3864967"><ele>305.0</ele><time>2026-04-30T14:39:09.057Z</time></trkpt><trkpt lat="45.3634033" lon="14.3867167"><ele>303.33333333333337</ele><time>2026-04-30T14:39:10.065Z</time></trkpt><trkpt lat="45.3633183" lon="14.3869467"><ele>301.6666666666667</ele><time>2026-04-30T14:39:11.138Z</time></trkpt><trkpt lat="45.3632317" lon="14.387185"><ele>300.0</ele><time>2026-04-30T14:39:12.077Z</time></trkpt><trkpt lat="45.3631433" lon="14.3874167"><ele>298.0</ele><time>2026-04-30T14:39:13.152Z</time></trkpt><trkpt lat="45.3630567" lon="14.387635"><ele>296.0</ele><time>2026-04-30T14:39:14.091Z</time></trkpt><trkpt lat="45.36297" lon="14.3878367"><ele>294.0</ele><time>2026-04-30T14:39:15.03Z</time></trkpt><trkpt lat="45.3628783" lon="14.3880233"><ele>293.5</ele><time>2026-04-30T14:39:16.103Z</time></trkpt><trkpt lat="45.3627783" lon="14.3881933"><ele>293.0</ele><time>2026-04-30T14:39:17.044Z</time></trkpt><trkpt lat="45.362675" lon="14.3883417"><ele>292.5</ele><time>2026-04-30T14:39:18.118Z</time></trkpt><trkpt lat="45.3625667" lon="14.3884683"><ele>292.0</ele><time>2026-04-30T14:39:19.124Z</time></trkpt><trkpt lat="45.3624567" lon="14.3885783"><ele>292.0</ele><time>2026-04-30T14:39:20.064Z</time></trkpt><trkpt lat="45.3623417" lon="14.3886817"><ele>292.0</ele><time>2026-04-30T14:39:21.136Z</time></trkpt><trkpt lat="45.36222" lon="14.3887783"><ele>292.0</ele><time>2026-04-30T14:39:22.077Z</time></trkpt><trkpt lat="45.3620917" lon="14.388865"><ele>292.0</ele><time>2026-04-30T14:39:23.15Z</time></trkpt><trkpt lat="45.3619567" lon="14.3889383"><ele>294.66666666666663</ele><time>2026-04-30T14:39:24.09Z</time></trkpt><trkpt lat="45.3618217" lon="14.3889983"><ele>297.3333333333333</ele><time>2026-04-30T14:39:25.03Z</time></trkpt><trkpt lat="45.3615683" lon="14.3890733"><ele>300.0</ele><time>2026-04-30T14:39:27.11Z</time></trkpt><trkpt lat="45.3614533" lon="14.3890933"><ele>299.2</ele><time>2026-04-30T14:39:28.116Z</time></trkpt><trkpt lat="45.3613433" lon="14.389105"><ele>298.4</ele><time>2026-04-30T14:39:29.122Z</time></trkpt><trkpt lat="45.3612367" lon="14.3891167"><ele>297.6</ele><time>2026-04-30T14:39:30.062Z</time></trkpt><trkpt lat="45.3611417" lon="14.38913"><ele>296.8</ele><time>2026-04-30T14:39:31.136Z</time></trkpt><trkpt lat="45.361055" lon="14.3891417"><ele>296.0</ele><time>2026-04-30T14:39:32.076Z</time></trkpt><trkpt lat="45.360985" lon="14.3891583"><ele>296.0</ele><time>2026-04-30T14:39:33.15Z</time></trkpt><trkpt lat="45.36087" lon="14.3891833"><ele>296.0</ele><time>2026-04-30T14:39:35.095Z</time></trkpt><trkpt lat="45.3607817" lon="14.389195"><ele>296.0</ele><time>2026-04-30T14:39:37.108Z</time></trkpt><trkpt lat="45.3606883" lon="14.3891867"><ele>296.0</ele><time>2026-04-30T14:40:11.134Z</time></trkpt><trkpt lat="45.3605533" lon="14.389225"><ele>296.0</ele><time>2026-04-30T14:40:13.147Z</time></trkpt><trkpt lat="45.36043" lon="14.3892567"><ele>294.0</ele><time>2026-04-30T14:40:14.086Z</time></trkpt><trkpt lat="45.360305" lon="14.3892883"><ele>292.0</ele><time>2026-04-30T14:40:15.093Z</time></trkpt><trkpt lat="45.36017" lon="14.38933"><ele>290.0</ele><time>2026-04-30T14:40:16.099Z</time></trkpt><trkpt lat="45.3600183" lon="14.3893783"><ele>288.0</ele><time>2026-04-30T14:40:17.105Z</time></trkpt><trkpt lat="45.35985" lon="14.3894367"><ele>286.3333333333333</ele><time>2026-04-30T14:40:18.113Z</time></trkpt><trkpt lat="45.35969" lon="14.3894933"><ele>284.66666666666663</ele><time>2026-04-30T14:40:19.119Z</time></trkpt><trkpt lat="45.3595367" lon="14.3895467"><ele>283.0</ele><time>2026-04-30T14:40:20.058Z</time></trkpt><trkpt lat="45.3593933" lon="14.3895983"><ele>283.0</ele><time>2026-04-30T14:40:21.132Z</time></trkpt><trkpt lat="45.3592533" lon="14.38965"><ele>283.0</ele><time>2026-04-30T14:40:22.071Z</time></trkpt><trkpt lat="45.3591167" lon="14.3897"><ele>283.0</ele><time>2026-04-30T14:40:23.078Z</time></trkpt><trkpt lat="45.3589767" lon="14.3897533"><ele>283.0</ele><time>2026-04-30T14:40:24.085Z</time></trkpt><trkpt lat="45.35883" lon="14.38981"><ele>282.0</ele><time>2026-04-30T14:40:25.091Z</time></trkpt><trkpt lat="45.3586667" lon="14.3898733"><ele>281.0</ele><time>2026-04-30T14:40:26.098Z</time></trkpt><trkpt lat="45.3585183" lon="14.38992"><ele>280.0</ele><time>2026-04-30T14:40:27.104Z</time></trkpt><trkpt lat="45.3583567" lon="14.3899733"><ele>280.0</ele><time>2026-04-30T14:40:28.045Z</time></trkpt><trkpt lat="45.3581967" lon="14.39003"><ele>280.0</ele><time>2026-04-30T14:40:29.118Z</time></trkpt><trkpt lat="45.35804" lon="14.3900867"><ele>280.0</ele><time>2026-04-30T14:40:30.057Z</time></trkpt><trkpt lat="45.3578833" lon="14.3901483"><ele>277.0</ele><time>2026-04-30T14:40:31.131Z</time></trkpt><trkpt lat="45.3575717" lon="14.3902683"><ele>274.0</ele><time>2026-04-30T14:40:33.078Z</time></trkpt><trkpt lat="45.3574233" lon="14.3903217"><ele>274.0</ele><time>2026-04-30T14:40:34.084Z</time></trkpt><trkpt lat="45.3572783" lon="14.3903733"><ele>274.0</ele><time>2026-04-30T14:40:35.09Z</time></trkpt><trkpt lat="45.3571333" lon="14.3904267"><ele>274.0</ele><time>2026-04-30T14:40:36.097Z</time></trkpt><trkpt lat="45.3569883" lon="14.3904817"><ele>274.0</ele><time>2026-04-30T14:40:37.104Z</time></trkpt><trkpt lat="45.356845" lon="14.39054"><ele>273.25</ele><time>2026-04-30T14:40:38.043Z</time></trkpt><trkpt lat="45.356705" lon="14.3906017"><ele>272.5</ele><time>2026-04-30T14:40:39.117Z</time></trkpt><trkpt lat="45.3565633" lon="14.390675"><ele>271.75</ele><time>2026-04-30T14:40:40.057Z</time></trkpt><trkpt lat="45.35643" lon="14.39076"><ele>271.0</ele><time>2026-04-30T14:40:41.131Z</time></trkpt><trkpt lat="45.3563017" lon="14.390855"><ele>269.5</ele><time>2026-04-30T14:40:42.07Z</time></trkpt><trkpt lat="45.356175" lon="14.3909533"><ele>268.0</ele><time>2026-04-30T14:40:43.077Z</time></trkpt><trkpt lat="45.3560483" lon="14.3910633"><ele>266.5</ele><time>2026-04-30T14:40:44.083Z</time></trkpt><trkpt lat="45.3559283" lon="14.3911817"><ele>265.0</ele><time>2026-04-30T14:40:45.091Z</time></trkpt><trkpt lat="45.35581" lon="14.3913117"><ele>264.5</ele><time>2026-04-30T14:40:46.096Z</time></trkpt><trkpt lat="45.3557" lon="14.3914467"><ele>264.0</ele><time>2026-04-30T14:40:47.104Z</time></trkpt><trkpt lat="45.3555967" lon="14.391585"><ele>263.5</ele><time>2026-04-30T14:40:48.043Z</time></trkpt><trkpt lat="45.3555017" lon="14.3917283"><ele>263.0</ele><time>2026-04-30T14:40:49.116Z</time></trkpt><trkpt lat="45.3554133" lon="14.3918733"><ele>260.0</ele><time>2026-04-30T14:40:50.056Z</time></trkpt><trkpt lat="45.35533" lon="14.3920217"><ele>257.0</ele><time>2026-04-30T14:40:51.129Z</time></trkpt><trkpt lat="45.3552467" lon="14.392175"><ele>254.0</ele><time>2026-04-30T14:40:52.07Z</time></trkpt><trkpt lat="45.3551617" lon="14.39233"><ele>251.0</ele><time>2026-04-30T14:40:53.076Z</time></trkpt><trkpt lat="45.355075" lon="14.39249"><ele>251.0</ele><time>2026-04-30T14:40:54.083Z</time></trkpt><trkpt lat="45.3549883" lon="14.39265"><ele>251.0</ele><time>2026-04-30T14:40:55.09Z</time></trkpt><trkpt lat="45.3549067" lon="14.392805"><ele>251.0</ele><time>2026-04-30T14:40:56.096Z</time></trkpt><trkpt lat="45.354825" lon="14.3929617"><ele>251.0</ele><time>2026-04-30T14:40:57.103Z</time></trkpt><trkpt lat="45.3547433" lon="14.3931217"><ele>248.75</ele><time>2026-04-30T14:40:58.042Z</time></trkpt><trkpt lat="45.3546583" lon="14.3932833"><ele>246.5</ele><time>2026-04-30T14:40:59.116Z</time></trkpt><trkpt lat="45.3545733" lon="14.3934533"><ele>244.25</ele><time>2026-04-30T14:41:00.056Z</time></trkpt><trkpt lat="45.3544833" lon="14.3936233"><ele>242.0</ele><time>2026-04-30T14:41:01.129Z</time></trkpt><trkpt lat="45.354395" lon="14.393795"><ele>242.25</ele><time>2026-04-30T14:41:02.069Z</time></trkpt><trkpt lat="45.35431" lon="14.3939583"><ele>242.5</ele><time>2026-04-30T14:41:03.075Z</time></trkpt><trkpt lat="45.3542267" lon="14.3941183"><ele>242.75</ele><time>2026-04-30T14:41:04.081Z</time></trkpt><trkpt lat="45.3541467" lon="14.39427"><ele>243.0</ele><time>2026-04-30T14:41:05.088Z</time></trkpt><trkpt lat="45.35407" lon="14.3944183"><ele>243.0</ele><time>2026-04-30T14:41:06.096Z</time></trkpt><trkpt lat="45.353995" lon="14.3945633"><ele>243.0</ele><time>2026-04-30T14:41:07.101Z</time></trkpt><trkpt lat="45.35392" lon="14.3947083"><ele>243.0</ele><time>2026-04-30T14:41:08.041Z</time></trkpt><trkpt lat="45.353845" lon="14.3948567"><ele>243.0</ele><time>2026-04-30T14:41:09.116Z</time></trkpt><trkpt lat="45.3537683" lon="14.39501"><ele>241.25</ele><time>2026-04-30T14:41:10.054Z</time></trkpt><trkpt lat="45.3536833" lon="14.39517"><ele>239.5</ele><time>2026-04-30T14:41:11.128Z</time></trkpt><trkpt lat="45.3535967" lon="14.3953333"><ele>237.75</ele><time>2026-04-30T14:41:12.068Z</time></trkpt><trkpt lat="45.3535067" lon="14.3954983"><ele>236.0</ele><time>2026-04-30T14:41:13.074Z</time></trkpt><trkpt lat="45.3534133" lon="14.3956617"><ele>236.0</ele><time>2026-04-30T14:41:14.081Z</time></trkpt><trkpt lat="45.35332" lon="14.3958183"><ele>236.0</ele><time>2026-04-30T14:41:15.087Z</time></trkpt><trkpt lat="45.3532233" lon="14.3959733"><ele>236.0</ele><time>2026-04-30T14:41:16.162Z</time></trkpt><trkpt lat="45.3531333" lon="14.3961383"><ele>236.0</ele><time>2026-04-30T14:41:17.101Z</time></trkpt><trkpt lat="45.3530283" lon="14.3963183"><ele>233.66666666666669</ele><time>2026-04-30T14:41:18.041Z</time></trkpt><trkpt lat="45.352935" lon="14.3965017"><ele>231.33333333333331</ele><time>2026-04-30T14:41:19.114Z</time></trkpt><trkpt lat="45.3528417" lon="14.3966917"><ele>229.0</ele><time>2026-04-30T14:41:20.053Z</time></trkpt><trkpt lat="45.352745" lon="14.396885"><ele>229.0</ele><time>2026-04-30T14:41:21.127Z</time></trkpt><trkpt lat="45.35265" lon="14.39708"><ele>229.0</ele><time>2026-04-30T14:41:22.067Z</time></trkpt><trkpt lat="45.3525567" lon="14.397275"><ele>229.0</ele><time>2026-04-30T14:41:23.074Z</time></trkpt><trkpt lat="45.352455" lon="14.3974667"><ele>229.0</ele><time>2026-04-30T14:41:24.147Z</time></trkpt><trkpt lat="45.3523517" lon="14.39765"><ele>229.0</ele><time>2026-04-30T14:41:25.087Z</time></trkpt><trkpt lat="45.3522383" lon="14.3978267"><ele>229.0</ele><time>2026-04-30T14:41:26.161Z</time></trkpt><trkpt lat="45.3521117" lon="14.3979933"><ele>226.0</ele><time>2026-04-30T14:41:27.1Z</time></trkpt><trkpt lat="45.351975" lon="14.3981467"><ele>223.0</ele><time>2026-04-30T14:41:28.039Z</time></trkpt><trkpt lat="45.351835" lon="14.3982767"><ele>220.0</ele><time>2026-04-30T14:41:29.113Z</time></trkpt><trkpt lat="45.3516967" lon="14.39838"><ele>220.0</ele><time>2026-04-30T14:41:30.054Z</time></trkpt><trkpt lat="45.35155" lon="14.3984717"><ele>220.0</ele><time>2026-04-30T14:41:31.127Z</time></trkpt><trkpt lat="45.3513983" lon="14.3985483"><ele>220.0</ele><time>2026-04-30T14:41:32.066Z</time></trkpt><trkpt lat="45.35124" lon="14.3986067"><ele>217.5</ele><time>2026-04-30T14:41:33.074Z</time></trkpt><trkpt lat="45.3509067" lon="14.3986767"><ele>215.0</ele><time>2026-04-30T14:41:35.086Z</time></trkpt><trkpt lat="45.3507267" lon="14.3986867"><ele>215.0</ele><time>2026-04-30T14:41:36.16Z</time></trkpt><trkpt lat="45.3505433" lon="14.3986783"><ele>215.0</ele><time>2026-04-30T14:41:37.099Z</time></trkpt><trkpt lat="45.3503667" lon="14.3986533"><ele>215.0</ele><time>2026-04-30T14:41:38.039Z</time></trkpt><trkpt lat="45.3501933" lon="14.3986183"><ele>211.33333333333334</ele><time>2026-04-30T14:41:39.112Z</time></trkpt><trkpt lat="45.3500267" lon="14.3985733"><ele>207.66666666666669</ele><time>2026-04-30T14:41:40.052Z</time></trkpt><trkpt lat="45.3498633" lon="14.3985233"><ele>204.0</ele><time>2026-04-30T14:41:41.126Z</time></trkpt><trkpt lat="45.3496983" lon="14.3984717"><ele>201.66666666666669</ele><time>2026-04-30T14:41:42.132Z</time></trkpt><trkpt lat="45.34953" lon="14.398425"><ele>199.33333333333334</ele><time>2026-04-30T14:41:43.072Z</time></trkpt><trkpt lat="45.3493567" lon="14.3983867"><ele>197.0</ele><time>2026-04-30T14:41:44.145Z</time></trkpt><trkpt lat="45.3491833" lon="14.3983583"><ele>197.0</ele><time>2026-04-30T14:41:45.086Z</time></trkpt><trkpt lat="45.34901" lon="14.39834"><ele>197.0</ele><time>2026-04-30T14:41:46.16Z</time></trkpt><trkpt lat="45.348845" lon="14.3983417"><ele>197.0</ele><time>2026-04-30T14:41:47.098Z</time></trkpt><trkpt lat="45.3486983" lon="14.3983583"><ele>194.0</ele><time>2026-04-30T14:41:48.038Z</time></trkpt><trkpt lat="45.3485683" lon="14.3983933"><ele>191.0</ele><time>2026-04-30T14:41:49.112Z</time></trkpt><trkpt lat="45.348455" lon="14.3984433"><ele>188.0</ele><time>2026-04-30T14:41:50.118Z</time></trkpt><trkpt lat="45.3483583" lon="14.398495"><ele>185.0</ele><time>2026-04-30T14:41:51.058Z</time></trkpt><trkpt lat="45.3482683" lon="14.3985417"><ele>185.0</ele><time>2026-04-30T14:41:52.131Z</time></trkpt><trkpt lat="45.3481783" lon="14.3985717"><ele>185.0</ele><time>2026-04-30T14:41:53.071Z</time></trkpt><trkpt lat="45.34809" lon="14.3985933"><ele>185.0</ele><time>2026-04-30T14:41:54.145Z</time></trkpt><trkpt lat="45.348005" lon="14.3986283"><ele>185.0</ele><time>2026-04-30T14:41:55.084Z</time></trkpt><trkpt lat="45.3479183" lon="14.3986867"><ele>185.0</ele><time>2026-04-30T14:41:56.024Z</time></trkpt><trkpt lat="45.3478233" lon="14.3987567"><ele>183.75</ele><time>2026-04-30T14:41:57.097Z</time></trkpt><trkpt lat="45.3477183" lon="14.39883"><ele>182.5</ele><time>2026-04-30T14:41:58.104Z</time></trkpt><trkpt lat="45.347605" lon="14.3989167"><ele>181.25</ele><time>2026-04-30T14:41:59.111Z</time></trkpt><trkpt lat="45.3474883" lon="14.3990233"><ele>180.0</ele><time>2026-04-30T14:42:00.118Z</time></trkpt><trkpt lat="45.3473683" lon="14.399145"><ele>180.0</ele><time>2026-04-30T14:42:01.058Z</time></trkpt><trkpt lat="45.3472433" lon="14.3992783"><ele>180.0</ele><time>2026-04-30T14:42:02.131Z</time></trkpt><trkpt lat="45.3471217" lon="14.399425"><ele>180.0</ele><time>2026-04-30T14:42:03.07Z</time></trkpt><trkpt lat="45.3470133" lon="14.3995833"><ele>178.5</ele><time>2026-04-30T14:42:04.145Z</time></trkpt><trkpt lat="45.3469117" lon="14.399745"><ele>177.0</ele><time>2026-04-30T14:42:05.083Z</time></trkpt><trkpt lat="45.3468217" lon="14.39991"><ele>175.5</ele><time>2026-04-30T14:42:06.09Z</time></trkpt><trkpt lat="45.3467367" lon="14.400085"><ele>174.0</ele><time>2026-04-30T14:42:07.097Z</time></trkpt><trkpt lat="45.34666" lon="14.4002683"><ele>174.0</ele><time>2026-04-30T14:42:08.104Z</time></trkpt><trkpt lat="45.3465883" lon="14.400465"><ele>174.0</ele><time>2026-04-30T14:42:09.111Z</time></trkpt><trkpt lat="45.3465283" lon="14.4006667"><ele>174.0</ele><time>2026-04-30T14:42:10.118Z</time></trkpt><trkpt lat="45.3464783" lon="14.4008717"><ele>173.33333333333334</ele><time>2026-04-30T14:42:11.056Z</time></trkpt><trkpt lat="45.346435" lon="14.4010817"><ele>172.66666666666669</ele><time>2026-04-30T14:42:12.131Z</time></trkpt><trkpt lat="45.3464" lon="14.4012967"><ele>172.0</ele><time>2026-04-30T14:42:13.07Z</time></trkpt><trkpt lat="45.3463683" lon="14.4015167"><ele>167.0</ele><time>2026-04-30T14:42:14.143Z</time></trkpt><trkpt lat="45.34634" lon="14.4017433"><ele>162.0</ele><time>2026-04-30T14:42:15.083Z</time></trkpt><trkpt lat="45.3463133" lon="14.4019733"><ele>157.0</ele><time>2026-04-30T14:42:16.09Z</time></trkpt><trkpt lat="45.3462917" lon="14.4022083"><ele>155.33333333333334</ele><time>2026-04-30T14:42:17.096Z</time></trkpt><trkpt lat="45.34627" lon="14.4024483"><ele>153.66666666666666</ele><time>2026-04-30T14:42:18.103Z</time></trkpt><trkpt lat="45.3462467" lon="14.4026883"><ele>152.0</ele><time>2026-04-30T14:42:19.11Z</time></trkpt><trkpt lat="45.3462183" lon="14.402925"><ele>149.66666666666666</ele><time>2026-04-30T14:42:20.116Z</time></trkpt><trkpt lat="45.3461867" lon="14.403155"><ele>147.33333333333334</ele><time>2026-04-30T14:42:21.056Z</time></trkpt><trkpt lat="45.3461467" lon="14.40338"><ele>145.0</ele><time>2026-04-30T14:42:22.129Z</time></trkpt><trkpt lat="45.3461017" lon="14.4036017"><ele>145.0</ele><time>2026-04-30T14:42:23.07Z</time></trkpt><trkpt lat="45.34605" lon="14.40382"><ele>145.0</ele><time>2026-04-30T14:42:24.142Z</time></trkpt><trkpt lat="45.3459917" lon="14.4040367"><ele>145.0</ele><time>2026-04-30T14:42:25.082Z</time></trkpt><trkpt lat="45.3459267" lon="14.4042467"><ele>146.0</ele><time>2026-04-30T14:42:26.09Z</time></trkpt><trkpt lat="45.3458533" lon="14.404455"><ele>147.0</ele><time>2026-04-30T14:42:27.096Z</time></trkpt><trkpt lat="45.3457733" lon="14.4046583"><ele>148.0</ele><time>2026-04-30T14:42:28.102Z</time></trkpt><trkpt lat="45.345685" lon="14.4048567"><ele>148.0</ele><time>2026-04-30T14:42:29.108Z</time></trkpt><trkpt lat="45.3455883" lon="14.405045"><ele>148.0</ele><time>2026-04-30T14:42:30.116Z</time></trkpt><trkpt lat="45.3454933" lon="14.405225"><ele>148.0</ele><time>2026-04-30T14:42:31.055Z</time></trkpt><trkpt lat="45.3453967" lon="14.4053917"><ele>147.5</ele><time>2026-04-30T14:42:32.128Z</time></trkpt><trkpt lat="45.3453" lon="14.4055383"><ele>147.0</ele><time>2026-04-30T14:42:33.069Z</time></trkpt><trkpt lat="45.3452067" lon="14.4056683"><ele>146.5</ele><time>2026-04-30T14:42:34.142Z</time></trkpt><trkpt lat="45.3451217" lon="14.4057817"><ele>146.0</ele><time>2026-04-30T14:42:35.082Z</time></trkpt><trkpt lat="45.3450483" lon="14.405875"><ele>146.0</ele><time>2026-04-30T14:42:36.089Z</time></trkpt><trkpt lat="45.3449917" lon="14.4059367"><ele>146.0</ele><time>2026-04-30T14:42:37.094Z</time></trkpt><trkpt lat="45.34491" lon="14.406015"><ele>146.0</ele><time>2026-04-30T14:42:39.109Z</time></trkpt><trkpt lat="45.3448233" lon="14.406055"><ele>146.0</ele><time>2026-04-30T14:42:41.054Z</time></trkpt><trkpt lat="45.34469" lon="14.406095"><ele>146.0</ele><time>2026-04-30T14:42:43.067Z</time></trkpt><trkpt lat="45.3446167" lon="14.4061517"><ele>145.33333333333331</ele><time>2026-04-30T14:42:44.142Z</time></trkpt><trkpt lat="45.3445567" lon="14.4062267"><ele>144.66666666666666</ele><time>2026-04-30T14:42:45.081Z</time></trkpt><trkpt lat="45.3445167" lon="14.40633"><ele>144.0</ele><time>2026-04-30T14:42:46.087Z</time></trkpt><trkpt lat="45.344495" lon="14.406445"><ele>143.33333333333334</ele><time>2026-04-30T14:42:47.094Z</time></trkpt><trkpt lat="45.3444733" lon="14.406565"><ele>142.66666666666669</ele><time>2026-04-30T14:42:48.1Z</time></trkpt><trkpt lat="45.344425" lon="14.4066767"><ele>142.0</ele><time>2026-04-30T14:42:49.107Z</time></trkpt><trkpt lat="45.34436" lon="14.40678"><ele>141.33333333333334</ele><time>2026-04-30T14:42:50.114Z</time></trkpt><trkpt lat="45.3442883" lon="14.4068917"><ele>140.66666666666666</ele><time>2026-04-30T14:42:51.054Z</time></trkpt><trkpt lat="45.3442167" lon="14.407025"><ele>140.0</ele><time>2026-04-30T14:42:52.128Z</time></trkpt><trkpt lat="45.3435067" lon="14.408755"><ele>136.25</ele><time>2026-04-30T14:43:02.126Z</time></trkpt><trkpt lat="45.3434283" lon="14.4089267"><ele>132.5</ele><time>2026-04-30T14:43:03.066Z</time></trkpt><trkpt lat="45.3433533" lon="14.4090967"><ele>128.75</ele><time>2026-04-30T14:43:04.14Z</time></trkpt><trkpt lat="45.3432817" lon="14.4092583"><ele>125.0</ele><time>2026-04-30T14:43:05.079Z</time></trkpt><trkpt lat="45.3432133" lon="14.4094117"><ele>125.0</ele><time>2026-04-30T14:43:06.086Z</time></trkpt><trkpt lat="45.343145" lon="14.40956"><ele>125.0</ele><time>2026-04-30T14:43:07.092Z</time></trkpt><trkpt lat="45.34307" lon="14.409705"><ele>125.0</ele><time>2026-04-30T14:43:08.099Z</time></trkpt><trkpt lat="45.3430017" lon="14.4098483"><ele>125.0</ele><time>2026-04-30T14:43:09.105Z</time></trkpt><trkpt lat="45.3429233" lon="14.4099867"><ele>124.0</ele><time>2026-04-30T14:43:10.112Z</time></trkpt><trkpt lat="45.3428367" lon="14.41011"><ele>123.0</ele><time>2026-04-30T14:43:11.051Z</time></trkpt><trkpt lat="45.3427617" lon="14.4102433"><ele>122.0</ele><time>2026-04-30T14:43:12.126Z</time></trkpt><trkpt lat="45.342685" lon="14.410385"><ele>121.0</ele><time>2026-04-30T14:43:13.066Z</time></trkpt><trkpt lat="45.3426117" lon="14.41053"><ele>119.19999999999999</ele><time>2026-04-30T14:43:14.139Z</time></trkpt><trkpt lat="45.3425483" lon="14.41067"><ele>117.39999999999999</ele><time>2026-04-30T14:43:15.078Z</time></trkpt><trkpt lat="45.34249" lon="14.4107967"><ele>115.6</ele><time>2026-04-30T14:43:16.086Z</time></trkpt><trkpt lat="45.34244" lon="14.4109133"><ele>113.8</ele><time>2026-04-30T14:43:17.092Z</time></trkpt><trkpt lat="45.3423933" lon="14.4110217"><ele>112.0</ele><time>2026-04-30T14:43:18.099Z</time></trkpt><trkpt lat="45.3423483" lon="14.4111217"><ele>112.00000000000001</ele><time>2026-04-30T14:43:19.038Z</time></trkpt><trkpt lat="45.342305" lon="14.4112233"><ele>112.0</ele><time>2026-04-30T14:43:20.111Z</time></trkpt><trkpt lat="45.3422667" lon="14.4113233"><ele>112.0</ele><time>2026-04-30T14:43:21.052Z</time></trkpt><trkpt lat="45.34223" lon="14.411425"><ele>112.0</ele><time>2026-04-30T14:43:22.124Z</time></trkpt><trkpt lat="45.3421933" lon="14.4115367"><ele>112.00000000000001</ele><time>2026-04-30T14:43:23.064Z</time></trkpt><trkpt lat="45.3421567" lon="14.4116417"><ele>112.0</ele><time>2026-04-30T14:43:24.071Z</time></trkpt><trkpt lat="45.3421217" lon="14.4117433"><ele>111.66666666666667</ele><time>2026-04-30T14:43:25.077Z</time></trkpt><trkpt lat="45.3420967" lon="14.4118433"><ele>111.33333333333334</ele><time>2026-04-30T14:43:26.084Z</time></trkpt><trkpt lat="45.3420733" lon="14.4119417"><ele>111.0</ele><time>2026-04-30T14:43:27.09Z</time></trkpt><trkpt lat="45.342055" lon="14.4120467"><ele>110.66666666666666</ele><time>2026-04-30T14:43:28.097Z</time></trkpt><trkpt lat="45.3420367" lon="14.4121417"><ele>110.33333333333333</ele><time>2026-04-30T14:43:29.037Z</time></trkpt><trkpt lat="45.34202" lon="14.4122283"><ele>110.0</ele><time>2026-04-30T14:43:30.11Z</time></trkpt><trkpt lat="45.3419833" lon="14.4123983"><ele>109.99999999999999</ele><time>2026-04-30T14:43:32.125Z</time></trkpt><trkpt lat="45.3419617" lon="14.4124983"><ele>110.0</ele><time>2026-04-30T14:43:33.063Z</time></trkpt><trkpt lat="45.3419383" lon="14.4126083"><ele>110.0</ele><time>2026-04-30T14:43:34.071Z</time></trkpt><trkpt lat="45.341915" lon="14.4127267"><ele>110.0</ele><time>2026-04-30T14:43:35.076Z</time></trkpt><trkpt lat="45.3418917" lon="14.4128333"><ele>109.99999999999999</ele><time>2026-04-30T14:43:36.084Z</time></trkpt><trkpt lat="45.341875" lon="14.4129367"><ele>110.0</ele><time>2026-04-30T14:43:37.091Z</time></trkpt><trkpt lat="45.3418583" lon="14.4130233"><ele>109.49999999999999</ele><time>2026-04-30T14:43:38.096Z</time></trkpt><trkpt lat="45.34183" lon="14.4131467"><ele>109.0</ele><time>2026-04-30T14:43:40.11Z</time></trkpt><trkpt lat="45.341805" lon="14.4132483"><ele>108.5</ele><time>2026-04-30T14:43:43.062Z</time></trkpt><trkpt lat="45.3417883" lon="14.41335"><ele>108.0</ele><time>2026-04-30T14:43:46.083Z</time></trkpt><trkpt lat="45.341765" lon="14.4134517"><ele>107.49999999999999</ele><time>2026-04-30T14:43:48.097Z</time></trkpt><trkpt lat="45.3417367" lon="14.4135767"><ele>107.0</ele><time>2026-04-30T14:43:50.11Z</time></trkpt><trkpt lat="45.341705" lon="14.413735"><ele>108.42857142857144</ele><time>2026-04-30T14:43:52.122Z</time></trkpt><trkpt lat="45.341685" lon="14.4138333"><ele>109.85714285714286</ele><time>2026-04-30T14:43:53.062Z</time></trkpt><trkpt lat="45.341665" lon="14.4139217"><ele>111.28571428571429</ele><time>2026-04-30T14:43:54.068Z</time></trkpt><trkpt lat="45.3416433" lon="14.4140067"><ele>112.71428571428572</ele><time>2026-04-30T14:43:55.142Z</time></trkpt><trkpt lat="45.3416083" lon="14.4141317"><ele>114.14285714285715</ele><time>2026-04-30T14:43:57.155Z</time></trkpt><trkpt lat="45.3415833" lon="14.4142383"><ele>115.57142857142858</ele><time>2026-04-30T14:43:59.034Z</time></trkpt><trkpt lat="45.3415667" lon="14.4143283"><ele>117.0</ele><time>2026-04-30T14:44:01.048Z</time></trkpt><trkpt lat="45.3415333" lon="14.4144383"><ele>117.0</ele><time>2026-04-30T14:44:04.067Z</time></trkpt><trkpt lat="45.3415167" lon="14.4145533"><ele>116.99999999999999</ele><time>2026-04-30T14:44:52.051Z</time></trkpt><trkpt lat="45.3414833" lon="14.4147133"><ele>116.99999999999999</ele><time>2026-04-30T14:44:54.065Z</time></trkpt><trkpt lat="45.3414583" lon="14.414815"><ele>117.0</ele><time>2026-04-30T14:44:55.138Z</time></trkpt><trkpt lat="45.3414283" lon="14.41493"><ele>117.0</ele><time>2026-04-30T14:44:56.077Z</time></trkpt><trkpt lat="45.3413983" lon="14.41505"><ele>114.0</ele><time>2026-04-30T14:44:57.084Z</time></trkpt><trkpt lat="45.341365" lon="14.4151917"><ele>110.99999999999999</ele><time>2026-04-30T14:44:58.091Z</time></trkpt><trkpt lat="45.3413267" lon="14.415335"><ele>108.0</ele><time>2026-04-30T14:44:59.097Z</time></trkpt><trkpt lat="45.3412867" lon="14.415475"><ele>105.0</ele><time>2026-04-30T14:45:00.104Z</time></trkpt><trkpt lat="45.3412433" lon="14.4156083"><ele>102.0</ele><time>2026-04-30T14:45:01.111Z</time></trkpt><trkpt lat="45.3412017" lon="14.4157433"><ele>102.0</ele><time>2026-04-30T14:45:02.051Z</time></trkpt><trkpt lat="45.341155" lon="14.41588"><ele>102.0</ele><time>2026-04-30T14:45:03.123Z</time></trkpt><trkpt lat="45.3411033" lon="14.41602"><ele>102.0</ele><time>2026-04-30T14:45:04.064Z</time></trkpt><trkpt lat="45.3410433" lon="14.41616"><ele>102.0</ele><time>2026-04-30T14:45:05.137Z</time></trkpt><trkpt lat="45.340985" lon="14.416295"><ele>102.0</ele><time>2026-04-30T14:45:06.077Z</time></trkpt><trkpt lat="45.3409233" lon="14.4164217"><ele>102.0</ele><time>2026-04-30T14:45:07.084Z</time></trkpt><trkpt lat="45.34086" lon="14.4165417"><ele>102.0</ele><time>2026-04-30T14:45:08.09Z</time></trkpt><trkpt lat="45.3407983" lon="14.4166533"><ele>102.0</ele><time>2026-04-30T14:45:09.097Z</time></trkpt><trkpt lat="45.3407333" lon="14.4167583"><ele>102.0</ele><time>2026-04-30T14:45:10.103Z</time></trkpt><trkpt lat="45.340665" lon="14.416865"><ele>102.0</ele><time>2026-04-30T14:45:11.11Z</time></trkpt><trkpt lat="45.3405967" lon="14.4169783"><ele>99.39999999999999</ele><time>2026-04-30T14:45:12.05Z</time></trkpt><trkpt lat="45.3405283" lon="14.4170933"><ele>96.8</ele><time>2026-04-30T14:45:13.123Z</time></trkpt><trkpt lat="45.34046" lon="14.4172033"><ele>94.2</ele><time>2026-04-30T14:45:14.062Z</time></trkpt><trkpt lat="45.3403917" lon="14.4173117"><ele>91.6</ele><time>2026-04-30T14:45:15.136Z</time></trkpt><trkpt lat="45.340325" lon="14.417435"><ele>89.0</ele><time>2026-04-30T14:45:16.076Z</time></trkpt><trkpt lat="45.340255" lon="14.4175783"><ele>89.0</ele><time>2026-04-30T14:45:17.082Z</time></trkpt><trkpt lat="45.3401867" lon="14.4177383"><ele>89.0</ele><time>2026-04-30T14:45:18.089Z</time></trkpt><trkpt lat="45.340125" lon="14.417895"><ele>89.0</ele><time>2026-04-30T14:45:19.096Z</time></trkpt><trkpt lat="45.3400683" lon="14.4180333"><ele>89.0</ele><time>2026-04-30T14:45:20.102Z</time></trkpt><trkpt lat="45.340015" lon="14.4181667"><ele>89.0</ele><time>2026-04-30T14:45:21.108Z</time></trkpt><trkpt lat="45.3399517" lon="14.41831"><ele>89.0</ele><time>2026-04-30T14:45:22.048Z</time></trkpt><trkpt lat="45.3398833" lon="14.4184783"><ele>89.0</ele><time>2026-04-30T14:45:23.122Z</time></trkpt><trkpt lat="45.3398083" lon="14.4186717"><ele>89.0</ele><time>2026-04-30T14:45:24.062Z</time></trkpt><trkpt lat="45.33973" lon="14.4188733"><ele>84.66666666666667</ele><time>2026-04-30T14:45:25.136Z</time></trkpt><trkpt lat="45.33965" lon="14.41908"><ele>80.33333333333333</ele><time>2026-04-30T14:45:26.075Z</time></trkpt><trkpt lat="45.339575" lon="14.419275"><ele>76.0</ele><time>2026-04-30T14:45:27.081Z</time></trkpt><trkpt lat="45.3395" lon="14.4194567"><ele>76.0</ele><time>2026-04-30T14:45:28.088Z</time></trkpt><trkpt lat="45.3394283" lon="14.4196333"><ele>76.0</ele><time>2026-04-30T14:45:29.094Z</time></trkpt><trkpt lat="45.3393617" lon="14.4198217"><ele>76.0</ele><time>2026-04-30T14:45:30.101Z</time></trkpt><trkpt lat="45.3392917" lon="14.4200117"><ele>76.0</ele><time>2026-04-30T14:45:31.108Z</time></trkpt><trkpt lat="45.339215" lon="14.4202017"><ele>76.33333333333333</ele><time>2026-04-30T14:45:32.047Z</time></trkpt><trkpt lat="45.33914" lon="14.4203867"><ele>76.66666666666667</ele><time>2026-04-30T14:45:33.122Z</time></trkpt><trkpt lat="45.3390633" lon="14.420575"><ele>77.0</ele><time>2026-04-30T14:45:34.06Z</time></trkpt><trkpt lat="45.3389883" lon="14.4207583"><ele>77.5</ele><time>2026-04-30T14:45:35.134Z</time></trkpt><trkpt lat="45.338915" lon="14.420935"><ele>78.0</ele><time>2026-04-30T14:45:36.075Z</time></trkpt><trkpt lat="45.3388483" lon="14.4211017"><ele>78.5</ele><time>2026-04-30T14:45:37.081Z</time></trkpt><trkpt lat="45.3387783" lon="14.4212633"><ele>79.0</ele><time>2026-04-30T14:45:38.088Z</time></trkpt><trkpt lat="45.3386983" lon="14.4214217"><ele>73.0</ele><time>2026-04-30T14:45:39.094Z</time></trkpt><trkpt lat="45.3386117" lon="14.421585"><ele>67.0</ele><time>2026-04-30T14:45:40.1Z</time></trkpt><trkpt lat="45.33852" lon="14.4217567"><ele>61.0</ele><time>2026-04-30T14:45:41.108Z</time></trkpt><trkpt lat="45.3384267" lon="14.4219333"><ele>61.0</ele><time>2026-04-30T14:45:42.046Z</time></trkpt><trkpt lat="45.3383317" lon="14.422105"><ele>61.0</ele><time>2026-04-30T14:45:43.12Z</time></trkpt><trkpt lat="45.3382417" lon="14.4222667"><ele>61.0</ele><time>2026-04-30T14:45:44.06Z</time></trkpt><trkpt lat="45.3381567" lon="14.4224217"><ele>61.0</ele><time>2026-04-30T14:45:45.133Z</time></trkpt><trkpt lat="45.33807" lon="14.4225667"><ele>60.25</ele><time>2026-04-30T14:45:46.074Z</time></trkpt><trkpt lat="45.3379883" lon="14.422705"><ele>59.5</ele><time>2026-04-30T14:45:47.081Z</time></trkpt><trkpt lat="45.3379117" lon="14.422835"><ele>58.75</ele><time>2026-04-30T14:45:48.087Z</time></trkpt><trkpt lat="45.3378367" lon="14.4229583"><ele>58.0</ele><time>2026-04-30T14:45:49.093Z</time></trkpt><trkpt lat="45.3377667" lon="14.4230767"><ele>58.0</ele><time>2026-04-30T14:45:50.1Z</time></trkpt><trkpt lat="45.3376933" lon="14.423195"><ele>58.0</ele><time>2026-04-30T14:45:51.106Z</time></trkpt><trkpt lat="45.337545" lon="14.42343"><ele>58.0</ele><time>2026-04-30T14:45:53.119Z</time></trkpt><trkpt lat="45.3374717" lon="14.4235517"><ele>58.0</ele><time>2026-04-30T14:45:54.059Z</time></trkpt><trkpt lat="45.3374017" lon="14.4236667"><ele>58.0</ele><time>2026-04-30T14:45:55.133Z</time></trkpt><trkpt lat="45.33733" lon="14.4237717"><ele>58.0</ele><time>2026-04-30T14:45:56.073Z</time></trkpt><trkpt lat="45.337255" lon="14.4238783"><ele>58.0</ele><time>2026-04-30T14:45:57.08Z</time></trkpt><trkpt lat="45.3371717" lon="14.42398"><ele>58.0</ele><time>2026-04-30T14:45:58.085Z</time></trkpt><trkpt lat="45.3370833" lon="14.4240783"><ele>58.0</ele><time>2026-04-30T14:45:59.092Z</time></trkpt><trkpt lat="45.3370017" lon="14.42417"><ele>56.4</ele><time>2026-04-30T14:46:00.099Z</time></trkpt><trkpt lat="45.3369217" lon="14.42426"><ele>54.8</ele><time>2026-04-30T14:46:01.105Z</time></trkpt><trkpt lat="45.3368467" lon="14.4243517"><ele>53.2</ele><time>2026-04-30T14:46:02.045Z</time></trkpt><trkpt lat="45.336775" lon="14.4244433"><ele>51.6</ele><time>2026-04-30T14:46:03.119Z</time></trkpt><trkpt lat="45.3367017" lon="14.424535"><ele>50.0</ele><time>2026-04-30T14:46:04.058Z</time></trkpt><trkpt lat="45.336625" lon="14.4246233"><ele>48.8</ele><time>2026-04-30T14:46:05.132Z</time></trkpt><trkpt lat="45.3365467" lon="14.42471"><ele>47.6</ele><time>2026-04-30T14:46:06.071Z</time></trkpt><trkpt lat="45.33647" lon="14.4247933"><ele>46.400000000000006</ele><time>2026-04-30T14:46:07.078Z</time></trkpt><trkpt lat="45.336405" lon="14.4248617"><ele>45.2</ele><time>2026-04-30T14:46:08.085Z</time></trkpt><trkpt lat="45.3363517" lon="14.4249183"><ele>44.0</ele><time>2026-04-30T14:46:09.091Z</time></trkpt><trkpt lat="45.3362683" lon="14.425015"><ele>44.0</ele><time>2026-04-30T14:46:11.105Z</time></trkpt><trkpt lat="45.3361833" lon="14.42512"><ele>44.0</ele><time>2026-04-30T14:46:13.118Z</time></trkpt><trkpt lat="45.3361367" lon="14.4251833"><ele>44.0</ele><time>2026-04-30T14:46:14.057Z</time></trkpt><trkpt lat="45.336085" lon="14.425265"><ele>44.0</ele><time>2026-04-30T14:46:15.132Z</time></trkpt><trkpt lat="45.3360267" lon="14.4253483"><ele>44.0</ele><time>2026-04-30T14:46:16.072Z</time></trkpt><trkpt lat="45.3359567" lon="14.4254367"><ele>44.0</ele><time>2026-04-30T14:46:17.078Z</time></trkpt><trkpt lat="45.335885" lon="14.4255167"><ele>44.33333333333333</ele><time>2026-04-30T14:46:18.151Z</time></trkpt><trkpt lat="45.3358083" lon="14.4255983"><ele>44.666666666666664</ele><time>2026-04-30T14:46:19.091Z</time></trkpt><trkpt lat="45.3357383" lon="14.425675"><ele>45.0</ele><time>2026-04-30T14:46:20.031Z</time></trkpt><trkpt lat="45.3356717" lon="14.4257533"><ele>45.333333333333336</ele><time>2026-04-30T14:46:21.105Z</time></trkpt><trkpt lat="45.335605" lon="14.4258283"><ele>45.66666666666667</ele><time>2026-04-30T14:46:22.044Z</time></trkpt><trkpt lat="45.33554" lon="14.4259"><ele>46.0</ele><time>2026-04-30T14:46:23.117Z</time></trkpt><trkpt lat="45.335475" lon="14.4259667"><ele>45.16666666666667</ele><time>2026-04-30T14:46:24.058Z</time></trkpt><trkpt lat="45.3354117" lon="14.42603"><ele>44.333333333333336</ele><time>2026-04-30T14:46:25.064Z</time></trkpt><trkpt lat="45.33535" lon="14.4260917"><ele>43.5</ele><time>2026-04-30T14:46:26.137Z</time></trkpt><trkpt lat="45.3352917" lon="14.4261533"><ele>42.666666666666664</ele><time>2026-04-30T14:46:27.076Z</time></trkpt><trkpt lat="45.33523" lon="14.4262117"><ele>41.83333333333333</ele><time>2026-04-30T14:46:28.15Z</time></trkpt><trkpt lat="45.3351633" lon="14.426265"><ele>41.0</ele><time>2026-04-30T14:46:29.091Z</time></trkpt><trkpt lat="45.3350883" lon="14.4263167"><ele>41.0</ele><time>2026-04-30T14:46:30.029Z</time></trkpt><trkpt lat="45.3350033" lon="14.4263683"><ele>41.0</ele><time>2026-04-30T14:46:31.103Z</time></trkpt><trkpt lat="45.3349133" lon="14.4264217"><ele>41.0</ele><time>2026-04-30T14:46:32.043Z</time></trkpt><trkpt lat="45.3348217" lon="14.4264817"><ele>41.0</ele><time>2026-04-30T14:46:33.117Z</time></trkpt><trkpt lat="45.33473" lon="14.4265567"><ele>41.0</ele><time>2026-04-30T14:46:34.057Z</time></trkpt><trkpt lat="45.3346417" lon="14.426635"><ele>39.0</ele><time>2026-04-30T14:46:35.062Z</time></trkpt><trkpt lat="45.33456" lon="14.426715"><ele>37.0</ele><time>2026-04-30T14:46:36.136Z</time></trkpt><trkpt lat="45.3344833" lon="14.4267917"><ele>35.0</ele><time>2026-04-30T14:46:37.076Z</time></trkpt><trkpt lat="45.3344067" lon="14.4268667"><ele>33.0</ele><time>2026-04-30T14:46:38.149Z</time></trkpt><trkpt lat="45.33433" lon="14.42695"><ele>31.0</ele><time>2026-04-30T14:46:39.089Z</time></trkpt><trkpt lat="45.3342467" lon="14.42702"><ele>31.0</ele><time>2026-04-30T14:46:40.029Z</time></trkpt><trkpt lat="45.3341633" lon="14.4271033"><ele>31.0</ele><time>2026-04-30T14:46:41.102Z</time></trkpt><trkpt lat="45.334085" lon="14.4271867"><ele>31.0</ele><time>2026-04-30T14:46:42.042Z</time></trkpt><trkpt lat="45.3340117" lon="14.4272717"><ele>31.0</ele><time>2026-04-30T14:46:43.115Z</time></trkpt><trkpt lat="45.33395" lon="14.4273667"><ele>31.0</ele><time>2026-04-30T14:46:44.122Z</time></trkpt><trkpt lat="45.3338933" lon="14.4274783"><ele>30.75</ele><time>2026-04-30T14:46:45.062Z</time></trkpt><trkpt lat="45.33384" lon="14.4276067"><ele>30.5</ele><time>2026-04-30T14:46:46.136Z</time></trkpt><trkpt lat="45.3337983" lon="14.4277533"><ele>30.25</ele><time>2026-04-30T14:46:47.075Z</time></trkpt><trkpt lat="45.3337667" lon="14.427915"><ele>30.0</ele><time>2026-04-30T14:46:48.15Z</time></trkpt><trkpt lat="45.3337433" lon="14.428085"><ele>29.25</ele><time>2026-04-30T14:46:49.088Z</time></trkpt><trkpt lat="45.33372" lon="14.4282483"><ele>28.5</ele><time>2026-04-30T14:46:50.028Z</time></trkpt><trkpt lat="45.3337" lon="14.4284117"><ele>27.75</ele><time>2026-04-30T14:46:51.102Z</time></trkpt><trkpt lat="45.33368" lon="14.4285767"><ele>27.0</ele><time>2026-04-30T14:46:52.109Z</time></trkpt><trkpt lat="45.33366" lon="14.428745"><ele>25.25</ele><time>2026-04-30T14:46:53.115Z</time></trkpt><trkpt lat="45.33364" lon="14.4289183"><ele>23.5</ele><time>2026-04-30T14:46:54.122Z</time></trkpt><trkpt lat="45.3336167" lon="14.429095"><ele>21.75</ele><time>2026-04-30T14:46:55.062Z</time></trkpt><trkpt lat="45.3335917" lon="14.4292683"><ele>20.0</ele><time>2026-04-30T14:46:56.136Z</time></trkpt><trkpt lat="45.333565" lon="14.429435"><ele>18.5</ele><time>2026-04-30T14:46:57.074Z</time></trkpt><trkpt lat="45.333525" lon="14.429755"><ele>17.0</ele><time>2026-04-30T14:46:59.088Z</time></trkpt><trkpt lat="45.3335017" lon="14.429905"><ele>15.5</ele><time>2026-04-30T14:47:00.094Z</time></trkpt><trkpt lat="45.3334667" lon="14.4300417"><ele>14.0</ele><time>2026-04-30T14:47:01.101Z</time></trkpt><trkpt lat="45.3334167" lon="14.4301683"><ele>14.0</ele><time>2026-04-30T14:47:02.107Z</time></trkpt><trkpt lat="45.3333533" lon="14.4302883"><ele>14.0</ele><time>2026-04-30T14:47:03.115Z</time></trkpt><trkpt lat="45.333285" lon="14.4304067"><ele>14.0</ele><time>2026-04-30T14:47:04.121Z</time></trkpt><trkpt lat="45.3332083" lon="14.4305333"><ele>14.0</ele><time>2026-04-30T14:47:05.061Z</time></trkpt><trkpt lat="45.3331283" lon="14.4306633"><ele>13.5</ele><time>2026-04-30T14:47:06.135Z</time></trkpt><trkpt lat="45.33304" lon="14.4307983"><ele>13.0</ele><time>2026-04-30T14:47:07.073Z</time></trkpt><trkpt lat="45.3329533" lon="14.4309333"><ele>12.5</ele><time>2026-04-30T14:47:08.147Z</time></trkpt><trkpt lat="45.3328783" lon="14.4310633"><ele>12.0</ele><time>2026-04-30T14:47:09.087Z</time></trkpt><trkpt lat="45.3328033" lon="14.4311783"><ele>12.5</ele><time>2026-04-30T14:47:10.094Z</time></trkpt><trkpt lat="45.3326533" lon="14.431405"><ele>13.0</ele><time>2026-04-30T14:47:12.107Z</time></trkpt><trkpt lat="45.3324817" lon="14.43163"><ele>13.0</ele><time>2026-04-30T14:47:14.12Z</time></trkpt><trkpt lat="45.3323917" lon="14.431745"><ele>13.0</ele><time>2026-04-30T14:47:15.06Z</time></trkpt><trkpt lat="45.3323017" lon="14.43187"><ele>13.0</ele><time>2026-04-30T14:47:16.134Z</time></trkpt><trkpt lat="45.3322167" lon="14.4320117"><ele>13.0</ele><time>2026-04-30T14:47:17.073Z</time></trkpt><trkpt lat="45.3321283" lon="14.4321533"><ele>12.600000000000001</ele><time>2026-04-30T14:47:18.146Z</time></trkpt><trkpt lat="45.332045" lon="14.43228"><ele>12.200000000000001</ele><time>2026-04-30T14:47:19.086Z</time></trkpt><trkpt lat="45.3319717" lon="14.4324033"><ele>11.8</ele><time>2026-04-30T14:47:20.093Z</time></trkpt><trkpt lat="45.3319033" lon="14.4325183"><ele>11.4</ele><time>2026-04-30T14:47:21.099Z</time></trkpt><trkpt lat="45.3318383" lon="14.4326217"><ele>11.0</ele><time>2026-04-30T14:47:22.106Z</time></trkpt><trkpt lat="45.3317867" lon="14.4327"><ele>11.0</ele><time>2026-04-30T14:47:23.112Z</time></trkpt><trkpt lat="45.33172" lon="14.432805"><ele>11.0</ele><time>2026-04-30T14:47:25.059Z</time></trkpt><trkpt lat="45.3316083" lon="14.4329433"><ele>11.0</ele><time>2026-04-30T14:48:11.096Z</time></trkpt><trkpt lat="45.3315267" lon="14.4330167"><ele>11.0</ele><time>2026-04-30T14:48:13.042Z</time></trkpt><trkpt lat="45.3314417" lon="14.43306"><ele>11.0</ele><time>2026-04-30T14:48:15.055Z</time></trkpt><trkpt lat="45.3313467" lon="14.4330867"><ele>11.666666666666666</ele><time>2026-04-30T14:48:17.069Z</time></trkpt><trkpt lat="45.3312267" lon="14.4331167"><ele>12.333333333333332</ele><time>2026-04-30T14:48:19.082Z</time></trkpt><trkpt lat="45.3311567" lon="14.43313"><ele>13.0</ele><time>2026-04-30T14:48:20.088Z</time></trkpt><trkpt lat="45.3310867" lon="14.43316"><ele>13.666666666666666</ele><time>2026-04-30T14:48:21.094Z</time></trkpt><trkpt lat="45.3310217" lon="14.43321"><ele>14.333333333333334</ele><time>2026-04-30T14:48:22.101Z</time></trkpt><trkpt lat="45.3309667" lon="14.43328"><ele>15.0</ele><time>2026-04-30T14:48:23.041Z</time></trkpt><trkpt lat="45.3309183" lon="14.4333633"><ele>15.0</ele><time>2026-04-30T14:48:24.114Z</time></trkpt><trkpt lat="45.3308833" lon="14.433465"><ele>15.0</ele><time>2026-04-30T14:48:25.055Z</time></trkpt><trkpt lat="45.3308483" lon="14.4335733"><ele>15.0</ele><time>2026-04-30T14:48:26.128Z</time></trkpt><trkpt lat="45.3308167" lon="14.4336883"><ele>15.0</ele><time>2026-04-30T14:48:27.067Z</time></trkpt><trkpt lat="45.3307867" lon="14.433805"><ele>15.0</ele><time>2026-04-30T14:48:28.075Z</time></trkpt><trkpt lat="45.3307583" lon="14.4339083"><ele>15.0</ele><time>2026-04-30T14:48:29.08Z</time></trkpt><trkpt lat="45.3307233" lon="14.4340217"><ele>15.2</ele><time>2026-04-30T14:48:30.087Z</time></trkpt><trkpt lat="45.3306883" lon="14.43414"><ele>15.4</ele><time>2026-04-30T14:48:31.094Z</time></trkpt><trkpt lat="45.3306567" lon="14.4342617"><ele>15.600000000000001</ele><time>2026-04-30T14:48:32.1Z</time></trkpt><trkpt lat="45.3306217" lon="14.4343867"><ele>15.8</ele><time>2026-04-30T14:48:33.04Z</time></trkpt><trkpt lat="45.3305867" lon="14.434515"><ele>16.0</ele><time>2026-04-30T14:48:34.114Z</time></trkpt><trkpt lat="45.33055" lon="14.43464"><ele>16.0</ele><time>2026-04-30T14:48:35.054Z</time></trkpt><trkpt lat="45.3305117" lon="14.43477"><ele>16.0</ele><time>2026-04-30T14:48:36.128Z</time></trkpt><trkpt lat="45.33047" lon="14.4349033"><ele>16.0</ele><time>2026-04-30T14:48:37.067Z</time></trkpt><trkpt lat="45.33043" lon="14.4350433"><ele>16.0</ele><time>2026-04-30T14:48:38.073Z</time></trkpt><trkpt lat="45.3303967" lon="14.4351833"><ele>16.0</ele><time>2026-04-30T14:48:39.081Z</time></trkpt><trkpt lat="45.3303567" lon="14.4353117"><ele>15.999999999999998</ele><time>2026-04-30T14:48:40.087Z</time></trkpt><trkpt lat="45.330315" lon="14.4354417"><ele>16.0</ele><time>2026-04-30T14:48:41.161Z</time></trkpt><trkpt lat="45.3302733" lon="14.43556"><ele>16.0</ele><time>2026-04-30T14:48:42.099Z</time></trkpt><trkpt lat="45.33023" lon="14.435655"><ele>16.0</ele><time>2026-04-30T14:48:43.039Z</time></trkpt><trkpt lat="45.3301917" lon="14.4357317"><ele>15.999999999999998</ele><time>2026-04-30T14:48:44.113Z</time></trkpt><trkpt lat="45.3301433" lon="14.4358133"><ele>16.0</ele><time>2026-04-30T14:48:45.052Z</time></trkpt><trkpt lat="45.3300867" lon="14.4359017"><ele>15.200000000000001</ele><time>2026-04-30T14:48:46.127Z</time></trkpt><trkpt lat="45.3300217" lon="14.43598"><ele>14.400000000000002</ele><time>2026-04-30T14:48:47.067Z</time></trkpt><trkpt lat="45.3299433" lon="14.43605"><ele>13.6</ele><time>2026-04-30T14:48:48.073Z</time></trkpt><trkpt lat="45.3298683" lon="14.436115"><ele>12.8</ele><time>2026-04-30T14:48:49.147Z</time></trkpt><trkpt lat="45.329795" lon="14.436195"><ele>12.0</ele><time>2026-04-30T14:48:50.085Z</time></trkpt><trkpt lat="45.3297233" lon="14.4362867"><ele>13.5</ele><time>2026-04-30T14:48:51.16Z</time></trkpt><trkpt lat="45.3296633" lon="14.4363867"><ele>15.0</ele><time>2026-04-30T14:48:52.099Z</time></trkpt><trkpt lat="45.3295467" lon="14.4366083"><ele>16.5</ele><time>2026-04-30T14:48:54.112Z</time></trkpt><trkpt lat="45.329495" lon="14.4367117"><ele>18.0</ele><time>2026-04-30T14:48:55.051Z</time></trkpt><trkpt lat="45.329445" lon="14.4368083"><ele>18.0</ele><time>2026-04-30T14:48:56.125Z</time></trkpt><trkpt lat="45.329395" lon="14.4369"><ele>18.0</ele><time>2026-04-30T14:48:57.133Z</time></trkpt><trkpt lat="45.3293367" lon="14.4369867"><ele>18.0</ele><time>2026-04-30T14:48:58.071Z</time></trkpt><trkpt lat="45.3292767" lon="14.437065"><ele>18.0</ele><time>2026-04-30T14:48:59.146Z</time></trkpt><trkpt lat="45.3292017" lon="14.437115"><ele>18.0</ele><time>2026-04-30T14:49:00.085Z</time></trkpt><trkpt lat="45.329135" lon="14.4371667"><ele>18.0</ele><time>2026-04-30T14:49:01.158Z</time></trkpt><trkpt lat="45.329065" lon="14.4372083"><ele>17.5</ele><time>2026-04-30T14:49:02.098Z</time></trkpt><trkpt lat="45.3290083" lon="14.4372533"><ele>17.0</ele><time>2026-04-30T14:49:03.037Z</time></trkpt><trkpt lat="45.3289567" lon="14.43731"><ele>16.5</ele><time>2026-04-30T14:49:04.111Z</time></trkpt><trkpt lat="45.32885" lon="14.437435"><ele>16.0</ele><time>2026-04-30T14:49:06.124Z</time></trkpt><trkpt lat="45.328795" lon="14.4375017"><ele>15.5</ele><time>2026-04-30T14:49:07.132Z</time></trkpt><trkpt lat="45.3287333" lon="14.4375717"><ele>15.0</ele><time>2026-04-30T14:49:08.072Z</time></trkpt><trkpt lat="45.3286633" lon="14.4376567"><ele>15.0</ele><time>2026-04-30T14:49:09.145Z</time></trkpt><trkpt lat="45.328595" lon="14.4377483"><ele>15.0</ele><time>2026-04-30T14:49:10.084Z</time></trkpt><trkpt lat="45.32853" lon="14.4378367"><ele>15.0</ele><time>2026-04-30T14:49:11.159Z</time></trkpt><trkpt lat="45.3284683" lon="14.4379217"><ele>15.0</ele><time>2026-04-30T14:49:12.097Z</time></trkpt><trkpt lat="45.3284133" lon="14.4379917"><ele>15.0</ele><time>2026-04-30T14:49:13.037Z</time></trkpt><trkpt lat="45.3283417" lon="14.4380917"><ele>15.0</ele><time>2026-04-30T14:49:15.117Z</time></trkpt><trkpt lat="45.328285" lon="14.43818"><ele>14.833333333333334</ele><time>2026-04-30T14:49:17.131Z</time></trkpt><trkpt lat="45.328225" lon="14.4382483"><ele>14.666666666666668</ele><time>2026-04-30T14:49:19.145Z</time></trkpt><trkpt lat="45.328165" lon="14.4383317"><ele>14.5</ele><time>2026-04-30T14:49:21.024Z</time></trkpt><trkpt lat="45.328105" lon="14.43843"><ele>14.333333333333334</ele><time>2026-04-30T14:49:23.104Z</time></trkpt><trkpt lat="45.3280467" lon="14.4385283"><ele>14.166666666666668</ele><time>2026-04-30T14:49:25.116Z</time></trkpt><trkpt lat="45.32803" lon="14.43863"><ele>14.0</ele><time>2026-04-30T14:49:27.131Z</time></trkpt><trkpt lat="45.3280783" lon="14.438715"><ele>14.166666666666668</ele><time>2026-04-30T14:49:29.144Z</time></trkpt><trkpt lat="45.3281633" lon="14.438805"><ele>14.333333333333334</ele><time>2026-04-30T14:49:31.09Z</time></trkpt><trkpt lat="45.328225" lon="14.4388617"><ele>14.5</ele><time>2026-04-30T14:49:32.096Z</time></trkpt><trkpt lat="45.3282833" lon="14.4389267"><ele>14.666666666666668</ele><time>2026-04-30T14:49:33.103Z</time></trkpt><trkpt lat="45.3283483" lon="14.4389967"><ele>14.833333333333334</ele><time>2026-04-30T14:49:34.109Z</time></trkpt><trkpt lat="45.3284183" lon="14.4390667"><ele>15.0</ele><time>2026-04-30T14:49:35.115Z</time></trkpt><trkpt lat="45.3284933" lon="14.43912"><ele>15.0</ele><time>2026-04-30T14:49:36.056Z</time></trkpt><trkpt lat="45.3285633" lon="14.4391633"><ele>15.0</ele><time>2026-04-30T14:49:37.129Z</time></trkpt><trkpt lat="45.3286267" lon="14.439195"><ele>15.0</ele><time>2026-04-30T14:49:38.069Z</time></trkpt><trkpt lat="45.3286867" lon="14.4392283"><ele>15.0</ele><time>2026-04-30T14:49:39.143Z</time></trkpt><trkpt lat="45.3287433" lon="14.4392783"><ele>15.0</ele><time>2026-04-30T14:49:40.082Z</time></trkpt><trkpt lat="45.3287967" lon="14.4393417"><ele>15.0</ele><time>2026-04-30T14:49:41.089Z</time></trkpt><trkpt lat="45.3288467" lon="14.4394217"><ele>15.0</ele><time>2026-04-30T14:49:42.095Z</time></trkpt><trkpt lat="45.32888" lon="14.4395167"><ele>15.166666666666666</ele><time>2026-04-30T14:49:43.102Z</time></trkpt><trkpt lat="45.328915" lon="14.43961"><ele>15.333333333333332</ele><time>2026-04-30T14:49:44.108Z</time></trkpt><trkpt lat="45.3289483" lon="14.4397083"><ele>15.5</ele><time>2026-04-30T14:49:45.115Z</time></trkpt><trkpt lat="45.3289767" lon="14.4398217"><ele>15.666666666666666</ele><time>2026-04-30T14:49:46.054Z</time></trkpt><trkpt lat="45.3290083" lon="14.4399233"><ele>15.833333333333332</ele><time>2026-04-30T14:49:47.129Z</time></trkpt><trkpt lat="45.3290417" lon="14.4400067"><ele>16.0</ele><time>2026-04-30T14:49:48.068Z</time></trkpt><trkpt lat="45.329065" lon="14.4401433"><ele>16.8</ele><time>2026-04-30T14:49:50.081Z</time></trkpt><trkpt lat="45.3290233" lon="14.440295"><ele>17.6</ele><time>2026-04-30T14:49:52.095Z</time></trkpt><trkpt lat="45.3289717" lon="14.4404183"><ele>18.4</ele><time>2026-04-30T14:49:54.108Z</time></trkpt><trkpt lat="45.3289133" lon="14.44055"><ele>19.2</ele><time>2026-04-30T14:49:56.053Z</time></trkpt><trkpt lat="45.3288583" lon="14.44065"><ele>20.0</ele><time>2026-04-30T14:49:58.068Z</time></trkpt><trkpt lat="45.328815" lon="14.4407467"><ele>20.0</ele><time>2026-04-30T14:50:00.081Z</time></trkpt><trkpt lat="45.3287633" lon="14.4408717"><ele>20.0</ele><time>2026-04-30T14:50:02.094Z</time></trkpt><trkpt lat="45.3287033" lon="14.4409983"><ele>20.0</ele><time>2026-04-30T14:50:04.107Z</time></trkpt><trkpt lat="45.3286483" lon="14.44113"><ele>20.0</ele><time>2026-04-30T14:50:06.053Z</time></trkpt><trkpt lat="45.3285933" lon="14.4412583"><ele>20.0</ele><time>2026-04-30T14:50:08.067Z</time></trkpt><trkpt lat="45.3285367" lon="14.4413833"><ele>20.5</ele><time>2026-04-30T14:50:10.079Z</time></trkpt><trkpt lat="45.3284917" lon="14.4414783"><ele>21.0</ele><time>2026-04-30T14:50:12.092Z</time></trkpt><trkpt lat="45.3284433" lon="14.4415817"><ele>21.5</ele><time>2026-04-30T14:50:14.107Z</time></trkpt><trkpt lat="45.3283867" lon="14.4416667"><ele>22.0</ele><time>2026-04-30T14:50:16.053Z</time></trkpt><trkpt lat="45.3283233" lon="14.4417033"><ele>22.5</ele><time>2026-04-30T14:50:18.065Z</time></trkpt><trkpt lat="45.3282533" lon="14.441675"><ele>23.0</ele><time>2026-04-30T14:50:20.079Z</time></trkpt><trkpt lat="45.3281817" lon="14.4416333"><ele>23.0</ele><time>2026-04-30T14:50:22.092Z</time></trkpt><trkpt lat="45.3281083" lon="14.4416017"><ele>23.0</ele><time>2026-04-30T14:50:24.106Z</time></trkpt><trkpt lat="45.3280417" lon="14.4416"><ele>23.0</ele><time>2026-04-30T14:50:26.051Z</time></trkpt><trkpt lat="45.3280067" lon="14.4416933"><ele>23.0</ele><time>2026-04-30T14:50:30.079Z</time></trkpt><trkpt lat="45.3280383" lon="14.4417933"><ele>23.0</ele><time>2026-04-30T14:50:33.099Z</time></trkpt><trkpt lat="45.3281067" lon="14.441845"><ele>23.0</ele><time>2026-04-30T14:50:35.112Z</time></trkpt><trkpt lat="45.3281733" lon="14.4418883"><ele>23.0</ele><time>2026-04-30T14:50:37.125Z</time></trkpt><trkpt lat="45.3282267" lon="14.4419517"><ele>23.0</ele><time>2026-04-30T14:50:39.138Z</time></trkpt><trkpt lat="45.3282367" lon="14.4420567"><ele>23.0</ele><time>2026-04-30T14:50:41.083Z</time></trkpt><trkpt lat="45.3282033" lon="14.4421633"><ele>23.0</ele><time>2026-04-30T14:50:43.097Z</time></trkpt><trkpt lat="45.328165" lon="14.4422633"><ele>23.0</ele><time>2026-04-30T14:50:45.111Z</time></trkpt><trkpt lat="45.3281217" lon="14.442355"><ele>23.0</ele><time>2026-04-30T14:50:47.123Z</time></trkpt><trkpt lat="45.32808" lon="14.442425"><ele>23.0</ele><time>2026-04-30T14:50:49.069Z</time></trkpt><trkpt lat="45.32805" lon="14.442505"><ele>23.0</ele><time>2026-04-30T14:50:51.083Z</time></trkpt><trkpt lat="45.32802" lon="14.4425933"><ele>21.714285714285715</ele><time>2026-04-30T14:50:53.097Z</time></trkpt><trkpt lat="45.3279933" lon="14.4426867"><ele>20.428571428571427</ele><time>2026-04-30T14:50:55.11Z</time></trkpt><trkpt lat="45.32796" lon="14.44279"><ele>19.142857142857142</ele><time>2026-04-30T14:50:58.062Z</time></trkpt><trkpt lat="45.32792" lon="14.4428717"><ele>17.857142857142858</ele><time>2026-04-30T14:51:01.082Z</time></trkpt><trkpt lat="45.327855" lon="14.44289"><ele>16.57142857142857</ele><time>2026-04-30T14:51:04.035Z</time></trkpt><trkpt lat="45.3277817" lon="14.442905"><ele>15.285714285714285</ele><time>2026-04-30T14:51:15.109Z</time></trkpt><trkpt lat="45.3277217" lon="14.44296"><ele>14.0</ele><time>2026-04-30T14:51:18.061Z</time></trkpt><trkpt lat="45.327665" lon="14.443035"><ele>14.0</ele><time>2026-04-30T14:53:39.057Z</time></trkpt><trkpt lat="45.3277183" lon="14.4430967"><ele>14.0</ele><time>2026-04-30T14:53:42.077Z</time></trkpt><trkpt lat="45.32775" lon="14.4430017"><ele>14.0</ele><time>2026-04-30T14:53:45.03Z</time></trkpt><trkpt lat="45.3276383" lon="14.443015"><ele>14.0</ele><time>2026-04-30T15:03:34.111Z</time></trkpt><trkpt lat="45.3276033" lon="14.443095"><ele>14.0</ele><time>2026-04-30T15:03:55.116Z</time></trkpt><trkpt lat="45.32763" lon="14.4431767"><ele>14.0</ele><time>2026-04-30T15:04:55.111Z</time></trkpt><trkpt lat="45.3276067" lon="14.44326"><ele>14.0</ele><time>2026-04-30T15:05:03.097Z</time></trkpt><trkpt lat="45.3275383" lon="14.4432783"><ele>14.0</ele><time>2026-04-30T15:05:08.063Z</time></trkpt><trkpt lat="45.3275915" lon="14.4433274"><ele>14.0</ele><time>2026-04-30T15:05:09.529Z</time></trkpt><trkpt lat="45.3275271" lon="14.4433714"><ele>14.0</ele><time>2026-04-30T15:05:16.539Z</time></trkpt><trkpt lat="45.3275493" lon="14.4432755"><ele>14.0</ele><time>2026-04-30T15:07:34.466Z</time></trkpt><trkpt lat="45.3276099" lon="14.4432508"><ele>14.0</ele><time>2026-04-30T15:07:38.402Z</time></trkpt><trkpt lat="45.3276772" lon="14.4432259"><ele>14.0</ele><time>2026-04-30T15:07:44.432Z</time></trkpt><trkpt lat="45.32772" lon="14.4432963"><ele>14.0</ele><time>2026-04-30T15:08:08.414Z</time></trkpt><trkpt lat="45.3277097" lon="14.4434035"><ele>14.0</ele><time>2026-04-30T15:09:09.741Z</time></trkpt><trkpt lat="45.3276994" lon="14.4434924"><ele>14.0</ele><time>2026-04-30T15:09:15.537Z</time></trkpt><trkpt lat="45.327646" lon="14.4435456"><ele>14.0</ele><time>2026-04-30T15:09:22.442Z</time></trkpt><trkpt lat="45.3275838" lon="14.4435292"><ele>14.0</ele><time>2026-04-30T15:10:36.374Z</time></trkpt><trkpt lat="45.3275199" lon="14.4435146"><ele>14.0</ele><time>2026-04-30T15:11:05.426Z</time></trkpt><trkpt lat="45.3274729" lon="14.4435844"><ele>14.0</ele><time>2026-04-30T15:12:51.51Z</time></trkpt><trkpt lat="45.3274519" lon="14.4436727"><ele>14.0</ele><time>2026-04-30T15:12:56.336Z</time></trkpt><trkpt lat="45.3274429" lon="14.4437686"><ele>14.142857142857142</ele><time>2026-04-30T15:13:01.403Z</time></trkpt><trkpt lat="45.3274555" lon="14.4438607"><ele>14.285714285714285</ele><time>2026-04-30T15:13:05.473Z</time></trkpt><trkpt lat="45.327488" lon="14.4439617"><ele>14.428571428571429</ele><time>2026-04-30T15:13:09.531Z</time></trkpt><trkpt lat="45.3275027" lon="14.444055"><ele>14.571428571428571</ele><time>2026-04-30T15:13:13.499Z</time></trkpt><trkpt lat="45.3275134" lon="14.4441584"><ele>14.714285714285714</ele><time>2026-04-30T15:13:18.463Z</time></trkpt><trkpt lat="45.3274624" lon="14.4442221"><ele>14.857142857142858</ele><time>2026-04-30T15:13:25.47Z</time></trkpt><trkpt lat="45.3274047" lon="14.4442788"><ele>15.0</ele><time>2026-04-30T15:13:31.461Z</time></trkpt><trkpt lat="45.3273321" lon="14.4443142"><ele>15.0</ele><time>2026-04-30T15:13:37.376Z</time></trkpt><trkpt lat="45.3272962" lon="14.4443917"><ele>15.0</ele><time>2026-04-30T15:13:43.443Z</time></trkpt><trkpt lat="45.327289" lon="14.4444815"><ele>15.0</ele><time>2026-04-30T15:13:50.516Z</time></trkpt><trkpt lat="45.3272793" lon="14.4445825"><ele>15.0</ele><time>2026-04-30T15:13:57.43Z</time></trkpt><trkpt lat="45.3272445" lon="14.4446591"><ele>15.0</ele><time>2026-04-30T15:14:03.552Z</time></trkpt><trkpt lat="45.3271985" lon="14.4447419"><ele>15.0</ele><time>2026-04-30T15:14:12.493Z</time></trkpt><trkpt lat="45.3271646" lon="14.4448267"><ele>15.0</ele><time>2026-04-30T15:14:18.483Z</time></trkpt><trkpt lat="45.3271261" lon="14.4449055"><ele>14.0</ele><time>2026-04-30T15:14:23.353Z</time></trkpt><trkpt lat="45.327078" lon="14.4449869"><ele>13.0</ele><time>2026-04-30T15:14:29.493Z</time></trkpt><trkpt lat="45.3270471" lon="14.4450711"><ele>12.0</ele><time>2026-04-30T15:14:37.396Z</time></trkpt><trkpt lat="45.326997" lon="14.4451501"><ele>11.0</ele><time>2026-04-30T15:14:44.913Z</time></trkpt><trkpt lat="45.3269519" lon="14.4452179"><ele>10.0</ele><time>2026-04-30T15:14:51.939Z</time></trkpt><trkpt lat="45.3269031" lon="14.4452779"><ele>9.0</ele><time>2026-04-30T15:14:57.514Z</time></trkpt><trkpt lat="45.3268623" lon="14.4453474"><ele>8.0</ele><time>2026-04-30T15:15:08.441Z</time></trkpt><trkpt lat="45.3268129" lon="14.4454145"><ele>8.0</ele><time>2026-04-30T15:15:12.51Z</time></trkpt><trkpt lat="45.3267501" lon="14.4454511"><ele>7.999999999999999</ele><time>2026-04-30T15:15:16.408Z</time></trkpt><trkpt lat="45.3266904" lon="14.4454091"><ele>8.0</ele><time>2026-04-30T15:15:22.457Z</time></trkpt><trkpt lat="45.3266533" lon="14.4453312"><ele>8.0</ele><time>2026-04-30T15:15:29.369Z</time></trkpt><trkpt lat="45.3266139" lon="14.4452455"><ele>7.999999999999999</ele><time>2026-04-30T15:15:36.473Z</time></trkpt><trkpt lat="45.3265497" lon="14.4451814"><ele>8.0</ele><time>2026-04-30T15:15:42.462Z</time></trkpt><trkpt lat="45.3264872" lon="14.4451424"><ele>8.0</ele><time>2026-04-30T15:15:48.255Z</time></trkpt><trkpt lat="45.3264256" lon="14.4451055"><ele>7.7142857142857135</ele><time>2026-04-30T15:15:57.495Z</time></trkpt><trkpt lat="45.3263807" lon="14.4450241"><ele>7.428571428571428</ele><time>2026-04-30T15:16:04.503Z</time></trkpt><trkpt lat="45.3263289" lon="14.4449536"><ele>7.142857142857142</ele><time>2026-04-30T15:16:10.493Z</time></trkpt><trkpt lat="45.3262683" lon="14.4448966"><ele>6.857142857142857</ele><time>2026-04-30T15:16:17.553Z</time></trkpt><trkpt lat="45.3262098" lon="14.4448627"><ele>6.571428571428571</ele><time>2026-04-30T15:16:47.45Z</time></trkpt><trkpt lat="45.326184" lon="14.4447798"><ele>6.285714285714285</ele><time>2026-04-30T15:17:47.464Z</time></trkpt><trkpt lat="45.3262135" lon="14.444861"><ele>6.0</ele><time>2026-04-30T15:20:11.449Z</time></trkpt><trkpt lat="45.326158" lon="14.4449071"><ele>6.0</ele><time>2026-04-30T15:22:26.394Z</time></trkpt><trkpt lat="45.326103" lon="14.4448528"><ele>6.0</ele><time>2026-04-30T15:22:51.37Z</time></trkpt><trkpt lat="45.3262218" lon="14.4448415"><ele>6.0</ele><time>2026-04-30T15:23:15.444Z</time></trkpt><trkpt lat="45.3262044" lon="14.4449315"><ele>6.0</ele><time>2026-04-30T15:24:37.496Z</time></trkpt><trkpt lat="45.3262388" lon="14.4450301"><ele>6.0</ele><time>2026-04-30T15:24:48.09Z</time></trkpt><trkpt lat="45.3262562" lon="14.4451179"><ele>6.0</ele><time>2026-04-30T15:24:52.415Z</time></trkpt><trkpt lat="45.3263034" lon="14.4452098"><ele>5.999999999999999</ele><time>2026-04-30T15:24:57.501Z</time></trkpt><trkpt lat="45.3263581" lon="14.4452882"><ele>6.0</ele><time>2026-04-30T15:25:04.396Z</time></trkpt><trkpt lat="45.3264245" lon="14.4453231"><ele>6.0</ele><time>2026-04-30T15:25:09.481Z</time></trkpt><trkpt lat="45.3264886" lon="14.4453419"><ele>6.0</ele><time>2026-04-30T15:25:14.434Z</time></trkpt><trkpt lat="45.3265528" lon="14.4453807"><ele>6.0</ele><time>2026-04-30T15:25:22.479Z</time></trkpt><trkpt lat="45.3266077" lon="14.4454417"><ele>5.999999999999999</ele><time>2026-04-30T15:25:29.486Z</time></trkpt><trkpt lat="45.3266765" lon="14.4454224"><ele>6.0</ele><time>2026-04-30T15:25:36.493Z</time></trkpt><trkpt lat="45.3267529" lon="14.4454106"><ele>6.285714285714285</ele><time>2026-04-30T15:25:46.449Z</time></trkpt><trkpt lat="45.326816" lon="14.4453919"><ele>6.571428571428571</ele><time>2026-04-30T15:25:51.413Z</time></trkpt><trkpt lat="45.3268825" lon="14.4453859"><ele>6.857142857142857</ele><time>2026-04-30T15:25:56.499Z</time></trkpt><trkpt lat="45.3269551" lon="14.4453823"><ele>7.142857142857142</ele><time>2026-04-30T15:26:02.517Z</time></trkpt><trkpt lat="45.3269952" lon="14.4452692"><ele>7.428571428571428</ele><time>2026-04-30T15:26:26.451Z</time></trkpt><trkpt lat="45.3270092" lon="14.4451637"><ele>7.7142857142857135</ele><time>2026-04-30T15:26:31.535Z</time></trkpt><trkpt lat="45.3270363" lon="14.4450789"><ele>8.0</ele><time>2026-04-30T15:26:35.387Z</time></trkpt><trkpt lat="45.3270736" lon="14.4449842"><ele>8.0</ele><time>2026-04-30T15:26:40.511Z</time></trkpt><trkpt lat="45.3271252" lon="14.4449117"><ele>7.999999999999999</ele><time>2026-04-30T15:26:44.45Z</time></trkpt><trkpt lat="45.3271728" lon="14.4448197"><ele>8.0</ele><time>2026-04-30T15:26:48.394Z</time></trkpt><trkpt lat="45.3271869" lon="14.4447296"><ele>8.0</ele><time>2026-04-30T15:26:51.428Z</time></trkpt><trkpt lat="45.3272083" lon="14.4446368"><ele>7.999999999999999</ele><time>2026-04-30T15:26:56.401Z</time></trkpt><trkpt lat="45.3272123" lon="14.444541"><ele>8.0</ele><time>2026-04-30T15:27:06.462Z</time></trkpt><trkpt lat="45.3272716" lon="14.4444922"><ele>8.0</ele><time>2026-04-30T15:27:14.373Z</time></trkpt><trkpt lat="45.3273201" lon="14.444432"><ele>9.166666666666666</ele><time>2026-04-30T15:27:20.363Z</time></trkpt><trkpt lat="45.3273696" lon="14.4443627"><ele>10.333333333333332</ele><time>2026-04-30T15:27:25.336Z</time></trkpt><trkpt lat="45.3274362" lon="14.4443294"><ele>11.5</ele><time>2026-04-30T15:27:30.966Z</time></trkpt><trkpt lat="45.3274917" lon="14.4442723"><ele>12.666666666666666</ele><time>2026-04-30T15:27:37.429Z</time></trkpt><trkpt lat="45.3275442" lon="14.4442083"><ele>13.833333333333334</ele><time>2026-04-30T15:27:49.411Z</time></trkpt><trkpt lat="45.3275752" lon="14.4441301"><ele>15.0</ele><time>2026-04-30T15:27:57.47Z</time></trkpt><trkpt lat="45.32757" lon="14.4439642"><ele>15.0</ele><time>2026-04-30T15:28:01.764Z</time></trkpt><trkpt lat="45.3275633" lon="14.4438673"><ele>15.0</ele><time>2026-04-30T15:28:04.272Z</time></trkpt><trkpt lat="45.3275657" lon="14.4437751"><ele>15.0</ele><time>2026-04-30T15:28:09.417Z</time></trkpt><trkpt lat="45.3275808" lon="14.4436822"><ele>15.0</ele><time>2026-04-30T15:28:16.507Z</time></trkpt><trkpt lat="45.3275485" lon="14.4436013"><ele>15.0</ele><time>2026-04-30T15:28:24.449Z</time></trkpt><trkpt lat="45.3275584" lon="14.4434991"><ele>15.0</ele><time>2026-04-30T15:28:36.43Z</time></trkpt><trkpt lat="45.3275658" lon="14.4433999"><ele>15.0</ele><time>2026-04-30T15:28:40.43Z</time></trkpt><trkpt lat="45.3275548" lon="14.4433074"><ele>14.833333333333334</ele><time>2026-04-30T15:28:46.489Z</time></trkpt><trkpt lat="45.3275461" lon="14.4432148"><ele>14.666666666666668</ele><time>2026-04-30T15:28:53.495Z</time></trkpt><trkpt lat="45.3275621" lon="14.443124"><ele>14.5</ele><time>2026-04-30T15:29:00.503Z</time></trkpt><trkpt lat="45.3276336" lon="14.4431022"><ele>14.333333333333334</ele><time>2026-04-30T15:29:01.408Z</time></trkpt><trkpt lat="45.3276962" lon="14.4430561"><ele>14.166666666666668</ele><time>2026-04-30T15:29:05.476Z</time></trkpt><trkpt lat="45.3277283" lon="14.4431683"><ele>14.0</ele><time>2026-04-30T15:31:07.069Z</time></trkpt><trkpt lat="45.3278083" lon="14.4432467"><ele>14.0</ele><time>2026-04-30T15:31:09.082Z</time></trkpt><trkpt lat="45.3278817" lon="14.4432967"><ele>13.999999999999998</ele><time>2026-04-30T15:31:11.096Z</time></trkpt><trkpt lat="45.3279633" lon="14.443345"><ele>13.999999999999998</ele><time>2026-04-30T15:31:13.109Z</time></trkpt><trkpt lat="45.3280583" lon="14.4433333"><ele>14.0</ele><time>2026-04-30T15:31:15.055Z</time></trkpt><trkpt lat="45.3281417" lon="14.443315"><ele>14.0</ele><time>2026-04-30T15:31:17.068Z</time></trkpt><trkpt lat="45.3282433" lon="14.44334"><ele>14.000000000000002</ele><time>2026-04-30T15:31:20.089Z</time></trkpt><trkpt lat="45.3283333" lon="14.4433383"><ele>14.0</ele><time>2026-04-30T15:31:23.109Z</time></trkpt><trkpt lat="45.328385" lon="14.4432733"><ele>14.0</ele><time>2026-04-30T15:31:26.128Z</time></trkpt><trkpt lat="45.32833" lon="14.4433317"><ele>14.0</ele><time>2026-04-30T15:31:34.114Z</time></trkpt><trkpt lat="45.32823" lon="14.443285"><ele>14.000000000000002</ele><time>2026-04-30T15:31:38.14Z</time></trkpt><trkpt lat="45.3281183" lon="14.4433017"><ele>14.0</ele><time>2026-04-30T15:31:40.087Z</time></trkpt><trkpt lat="45.3280183" lon="14.4433717"><ele>14.000000000000002</ele><time>2026-04-30T15:31:42.1Z</time></trkpt><trkpt lat="45.3279417" lon="14.4434717"><ele>14.0</ele><time>2026-04-30T15:31:44.113Z</time></trkpt><trkpt lat="45.327885" lon="14.443565"><ele>14.0</ele><time>2026-04-30T15:31:46.127Z</time></trkpt><trkpt lat="45.3278283" lon="14.44366"><ele>14.0</ele><time>2026-04-30T15:31:49.079Z</time></trkpt><trkpt lat="45.3277867" lon="14.4437333"><ele>14.000000000000002</ele><time>2026-04-30T15:31:53.106Z</time></trkpt><trkpt lat="45.3277483" lon="14.4438067"><ele>14.0</ele><time>2026-04-30T15:32:05.052Z</time></trkpt><trkpt lat="45.3278217" lon="14.4437217"><ele>14.000000000000002</ele><time>2026-04-30T15:32:31.09Z</time></trkpt><trkpt lat="45.327875" lon="14.4435883"><ele>14.0</ele><time>2026-04-30T15:32:33.102Z</time></trkpt><trkpt lat="45.3279033" lon="14.44345"><ele>14.0</ele><time>2026-04-30T15:32:35.05Z</time></trkpt><trkpt lat="45.3279233" lon="14.4433617"><ele>14.0</ele><time>2026-04-30T15:32:37.063Z</time></trkpt><trkpt lat="45.3278767" lon="14.443265"><ele>14.000000000000002</ele><time>2026-04-30T15:32:41.088Z</time></trkpt><trkpt lat="45.3278033" lon="14.4432017"><ele>14.0</ele><time>2026-04-30T15:32:43.036Z</time></trkpt><trkpt lat="45.32775" lon="14.4431283"><ele>14.000000000000002</ele><time>2026-04-30T15:32:46.123Z</time></trkpt><trkpt lat="45.327765" lon="14.4430183"><ele>14.0</ele><time>2026-04-30T15:32:49.074Z</time></trkpt><trkpt lat="45.3278133" lon="14.4429433"><ele>14.0</ele><time>2026-04-30T15:32:51.155Z</time></trkpt><trkpt lat="45.3278917" lon="14.4429583"><ele>14.0</ele><time>2026-04-30T15:32:53.035Z</time></trkpt><trkpt lat="45.3280033" lon="14.4430233"><ele>14.000000000000002</ele><time>2026-04-30T15:32:55.048Z</time></trkpt><trkpt lat="45.3280717" lon="14.44304"><ele>14.0</ele><time>2026-04-30T15:32:56.122Z</time></trkpt><trkpt lat="45.32814" lon="14.4430533"><ele>15.333333333333334</ele><time>2026-04-30T15:32:57.061Z</time></trkpt><trkpt lat="45.3282383" lon="14.44307"><ele>16.666666666666668</ele><time>2026-04-30T15:32:59.141Z</time></trkpt><trkpt lat="45.328305" lon="14.4430333"><ele>18.0</ele><time>2026-04-30T15:33:01.154Z</time></trkpt><trkpt lat="45.3283583" lon="14.4429183"><ele>19.333333333333332</ele><time>2026-04-30T15:33:03.034Z</time></trkpt><trkpt lat="45.3284117" lon="14.4427967"><ele>20.666666666666664</ele><time>2026-04-30T15:33:05.047Z</time></trkpt><trkpt lat="45.32846" lon="14.4427317"><ele>22.0</ele><time>2026-04-30T15:33:07.061Z</time></trkpt><trkpt lat="45.3285083" lon="14.4426633"><ele>22.25</ele><time>2026-04-30T15:33:09.141Z</time></trkpt><trkpt lat="45.328605" lon="14.4424767"><ele>22.5</ele><time>2026-04-30T15:33:12.093Z</time></trkpt><trkpt lat="45.3286683" lon="14.442335"><ele>22.75</ele><time>2026-04-30T15:33:14.107Z</time></trkpt><trkpt lat="45.328715" lon="14.442225"><ele>23.0</ele><time>2026-04-30T15:33:16.119Z</time></trkpt><trkpt lat="45.3287867" lon="14.4421733"><ele>23.0</ele><time>2026-04-30T15:33:19.139Z</time></trkpt><trkpt lat="45.3288567" lon="14.442195"><ele>23.0</ele><time>2026-04-30T15:33:22.093Z</time></trkpt><trkpt lat="45.3289333" lon="14.4422133"><ele>23.0</ele><time>2026-04-30T15:33:47.124Z</time></trkpt><trkpt lat="45.32898" lon="14.4422833"><ele>23.0</ele><time>2026-04-30T15:33:49.137Z</time></trkpt><trkpt lat="45.3290083" lon="14.4423683"><ele>23.0</ele><time>2026-04-30T15:33:51.151Z</time></trkpt><trkpt lat="45.329" lon="14.442495"><ele>23.0</ele><time>2026-04-30T15:33:53.097Z</time></trkpt><trkpt lat="45.328965" lon="14.44259"><ele>23.0</ele><time>2026-04-30T15:33:54.103Z</time></trkpt><trkpt lat="45.3289233" lon="14.442695"><ele>23.0</ele><time>2026-04-30T15:33:55.111Z</time></trkpt><trkpt lat="45.3288817" lon="14.44281"><ele>23.0</ele><time>2026-04-30T15:33:56.116Z</time></trkpt><trkpt lat="45.3288483" lon="14.4429283"><ele>23.0</ele><time>2026-04-30T15:33:57.124Z</time></trkpt><trkpt lat="45.3288167" lon="14.4430517"><ele>23.0</ele><time>2026-04-30T15:33:58.063Z</time></trkpt><trkpt lat="45.328785" lon="14.4431617"><ele>23.0</ele><time>2026-04-30T15:33:59.137Z</time></trkpt><trkpt lat="45.3287617" lon="14.44328"><ele>23.0</ele><time>2026-04-30T15:34:00.077Z</time></trkpt><trkpt lat="45.32873" lon="14.4433983"><ele>23.0</ele><time>2026-04-30T15:34:01.15Z</time></trkpt><trkpt lat="45.328705" lon="14.443525"><ele>23.0</ele><time>2026-04-30T15:34:02.089Z</time></trkpt><trkpt lat="45.3286767" lon="14.443635"><ele>23.0</ele><time>2026-04-30T15:34:03.095Z</time></trkpt><trkpt lat="45.3286417" lon="14.4437567"><ele>23.0</ele><time>2026-04-30T15:34:04.103Z</time></trkpt><trkpt lat="45.3285933" lon="14.443865"><ele>23.0</ele><time>2026-04-30T15:34:05.11Z</time></trkpt><trkpt lat="45.32854" lon="14.443985"><ele>23.0</ele><time>2026-04-30T15:34:06.048Z</time></trkpt><trkpt lat="45.3284867" lon="14.4441033"><ele>23.0</ele><time>2026-04-30T15:34:07.123Z</time></trkpt><trkpt lat="45.32843" lon="14.4442133"><ele>23.0</ele><time>2026-04-30T15:34:08.062Z</time></trkpt><trkpt lat="45.32837" lon="14.4443083"><ele>23.0</ele><time>2026-04-30T15:34:09.136Z</time></trkpt><trkpt lat="45.3283217" lon="14.4443983"><ele>23.0</ele><time>2026-04-30T15:34:10.076Z</time></trkpt><trkpt lat="45.3282817" lon="14.4444783"><ele>23.0</ele><time>2026-04-30T15:34:11.082Z</time></trkpt><trkpt lat="45.32823" lon="14.4445783"><ele>21.599999999999998</ele><time>2026-04-30T15:34:13.096Z</time></trkpt><trkpt lat="45.3281017" lon="14.4448017"><ele>20.2</ele><time>2026-04-30T15:34:39.133Z</time></trkpt><trkpt lat="45.3280383" lon="14.44486"><ele>18.8</ele><time>2026-04-30T15:34:41.079Z</time></trkpt><trkpt lat="45.327975" lon="14.4448467"><ele>17.4</ele><time>2026-04-30T15:34:43.093Z</time></trkpt><trkpt lat="45.3279233" lon="14.44479"><ele>16.0</ele><time>2026-04-30T15:34:45.107Z</time></trkpt><trkpt lat="45.327855" lon="14.444725"><ele>15.333333333333332</ele><time>2026-04-30T15:34:48.059Z</time></trkpt><trkpt lat="45.3277867" lon="14.4446833"><ele>14.666666666666666</ele><time>2026-04-30T15:34:51.078Z</time></trkpt><trkpt lat="45.3277217" lon="14.444685"><ele>14.0</ele><time>2026-04-30T15:34:54.098Z</time></trkpt><trkpt lat="45.3276683" lon="14.44474"><ele>13.333333333333332</ele><time>2026-04-30T15:35:35.103Z</time></trkpt><trkpt lat="45.327725" lon="14.44481"><ele>12.666666666666666</ele><time>2026-04-30T15:35:37.115Z</time></trkpt><trkpt lat="45.3278117" lon="14.444905"><ele>12.0</ele><time>2026-04-30T15:35:39.061Z</time></trkpt><trkpt lat="45.3278767" lon="14.44493"><ele>12.0</ele><time>2026-04-30T15:35:40.135Z</time></trkpt><trkpt lat="45.3279783" lon="14.4449817"><ele>12.0</ele><time>2026-04-30T15:35:42.148Z</time></trkpt><trkpt lat="45.328025" lon="14.4450683"><ele>12.0</ele><time>2026-04-30T15:35:44.027Z</time></trkpt><trkpt lat="45.3280083" lon="14.4452067"><ele>12.0</ele><time>2026-04-30T15:35:46.041Z</time></trkpt><trkpt lat="45.327955" lon="14.4452867"><ele>12.0</ele><time>2026-04-30T15:35:47.114Z</time></trkpt><trkpt lat="45.32792" lon="14.44537"><ele>12.0</ele><time>2026-04-30T15:35:48.121Z</time></trkpt><trkpt lat="45.327855" lon="14.44545"><ele>11.8</ele><time>2026-04-30T15:35:49.061Z</time></trkpt><trkpt lat="45.32781" lon="14.4455483"><ele>11.6</ele><time>2026-04-30T15:35:50.134Z</time></trkpt><trkpt lat="45.3277633" lon="14.44564"><ele>11.4</ele><time>2026-04-30T15:35:51.074Z</time></trkpt><trkpt lat="45.3276917" lon="14.4458567"><ele>11.200000000000001</ele><time>2026-04-30T15:35:53.088Z</time></trkpt><trkpt lat="45.327665" lon="14.44595"><ele>11.0</ele><time>2026-04-30T15:35:54.026Z</time></trkpt><trkpt lat="45.3276117" lon="14.4460283"><ele>11.0</ele><time>2026-04-30T15:35:55.1Z</time></trkpt><trkpt lat="45.3275717" lon="14.4461083"><ele>11.0</ele><time>2026-04-30T15:35:56.108Z</time></trkpt><trkpt lat="45.3275333" lon="14.4461867"><ele>11.0</ele><time>2026-04-30T15:35:57.113Z</time></trkpt><trkpt lat="45.3274933" lon="14.446275"><ele>11.0</ele><time>2026-04-30T15:35:58.121Z</time></trkpt><trkpt lat="45.3274483" lon="14.44635"><ele>11.0</ele><time>2026-04-30T15:35:59.06Z</time></trkpt><trkpt lat="45.3274067" lon="14.4464417"><ele>11.0</ele><time>2026-04-30T15:36:00.133Z</time></trkpt><trkpt lat="45.3273417" lon="14.4465433"><ele>10.333333333333332</ele><time>2026-04-30T15:36:02.147Z</time></trkpt><trkpt lat="45.3272617" lon="14.4465433"><ele>9.666666666666666</ele><time>2026-04-30T15:36:14.093Z</time></trkpt><trkpt lat="45.3271867" lon="14.44655"><ele>9.0</ele><time>2026-04-30T15:36:16.106Z</time></trkpt><trkpt lat="45.327115" lon="14.4465367"><ele>8.333333333333334</ele><time>2026-04-30T15:36:18.119Z</time></trkpt><trkpt lat="45.3270433" lon="14.4464833"><ele>7.666666666666667</ele><time>2026-04-30T15:36:20.132Z</time></trkpt><trkpt lat="45.326955" lon="14.446395"><ele>7.0</ele><time>2026-04-30T15:36:22.146Z</time></trkpt><trkpt lat="45.3269033" lon="14.44634"><ele>6.6</ele><time>2026-04-30T15:36:23.086Z</time></trkpt><trkpt lat="45.326825" lon="14.44624"><ele>6.199999999999999</ele><time>2026-04-30T15:36:25.098Z</time></trkpt><trkpt lat="45.32677" lon="14.44616"><ele>5.8</ele><time>2026-04-30T15:36:27.111Z</time></trkpt><trkpt lat="45.3267467" lon="14.4460667"><ele>5.4</ele><time>2026-04-30T15:36:29.057Z</time></trkpt><trkpt lat="45.3267433" lon="14.445925"><ele>5.0</ele><time>2026-04-30T15:36:31.072Z</time></trkpt><trkpt lat="45.32675" lon="14.4457583"><ele>5.0</ele><time>2026-04-30T15:36:33.084Z</time></trkpt><trkpt lat="45.3267617" lon="14.4456483"><ele>5.0</ele><time>2026-04-30T15:36:35.098Z</time></trkpt><trkpt lat="45.326785" lon="14.4455383"><ele>5.0</ele><time>2026-04-30T15:36:37.111Z</time></trkpt><trkpt lat="45.326775" lon="14.4454333"><ele>5.0</ele><time>2026-04-30T15:36:39.057Z</time></trkpt><trkpt lat="45.326795" lon="14.4453333"><ele>5.0</ele><time>2026-04-30T15:36:42.143Z</time></trkpt><trkpt lat="45.3268367" lon="14.44526"><ele>5.0</ele><time>2026-04-30T15:36:45.096Z</time></trkpt><trkpt lat="45.3269217" lon="14.445345"><ele>5.428571428571429</ele><time>2026-04-30T15:37:29.054Z</time></trkpt><trkpt lat="45.3269967" lon="14.4453683"><ele>5.857142857142858</ele><time>2026-04-30T15:38:31.128Z</time></trkpt><trkpt lat="45.3269283" lon="14.4453867"><ele>6.285714285714286</ele><time>2026-04-30T15:38:39.115Z</time></trkpt><trkpt lat="45.3268683" lon="14.4454333"><ele>6.7142857142857135</ele><time>2026-04-30T15:38:46.095Z</time></trkpt><trkpt lat="45.3267933" lon="14.4454183"><ele>7.142857142857142</ele><time>2026-04-30T15:38:52.067Z</time></trkpt><trkpt lat="45.3267267" lon="14.4454308"><ele>7.571428571428571</ele><time>2026-04-30T15:38:58.347Z</time></trkpt><trkpt lat="45.3266736" lon="14.4453827"><ele>8.0</ele><time>2026-04-30T15:39:02.444Z</time></trkpt><trkpt lat="45.3266056" lon="14.4453481"><ele>8.0</ele><time>2026-04-30T15:39:05.497Z</time></trkpt><trkpt lat="45.3265578" lon="14.445278"><ele>7.999999999999999</ele><time>2026-04-30T15:39:09.752Z</time></trkpt><trkpt lat="45.3265552" lon="14.4451872"><ele>8.0</ele><time>2026-04-30T15:39:17.476Z</time></trkpt><trkpt lat="45.3265466" lon="14.4450887"><ele>8.0</ele><time>2026-04-30T15:39:37.508Z</time></trkpt><trkpt lat="45.326505" lon="14.445015"><ele>7.999999999999999</ele><time>2026-04-30T15:39:41.51Z</time></trkpt><trkpt lat="45.3264588" lon="14.444945"><ele>8.0</ele><time>2026-04-30T15:39:46.409Z</time></trkpt><trkpt lat="45.3263946" lon="14.4449441"><ele>8.0</ele><time>2026-04-30T15:40:30.768Z</time></trkpt><trkpt lat="45.3263295" lon="14.4449399"><ele>7.7142857142857135</ele><time>2026-04-30T15:40:39.416Z</time></trkpt><trkpt lat="45.3262692" lon="14.4449004"><ele>7.428571428571428</ele><time>2026-04-30T15:40:47.439Z</time></trkpt><trkpt lat="45.326206" lon="14.4448931"><ele>7.142857142857142</ele><time>2026-04-30T15:41:28.468Z</time></trkpt><trkpt lat="45.3262111" lon="14.4449825"><ele>6.857142857142857</ele><time>2026-04-30T15:43:15.398Z</time></trkpt><trkpt lat="45.3261724" lon="14.4449052"><ele>6.571428571428571</ele><time>2026-04-30T15:45:55.484Z</time></trkpt><trkpt lat="45.3262292" lon="14.4449592"><ele>6.285714285714285</ele><time>2026-04-30T15:46:51.45Z</time></trkpt><trkpt lat="45.3261683" lon="14.4449877"><ele>6.0</ele><time>2026-04-30T15:48:53.446Z</time></trkpt><trkpt lat="45.3262304" lon="14.4449718"><ele>6.0</ele><time>2026-04-30T15:53:36.463Z</time></trkpt><trkpt lat="45.3261676" lon="14.4449868"><ele>6.0</ele><time>2026-04-30T15:56:53.329Z</time></trkpt><trkpt lat="45.3262167" lon="14.4448809"><ele>6.0</ele><time>2026-04-30T16:11:51.512Z</time></trkpt></trkseg><trkseg><trkpt lat="45.3241909" lon="14.4423425"><ele>7.999999999999999</ele><time>2026-04-30T17:53:23.566Z</time></trkpt><trkpt lat="45.3241587" lon="14.4424393"><ele>8.0</ele><time>2026-04-30T17:54:20.648Z</time></trkpt><trkpt lat="45.3242022" lon="14.4423014"><ele>8.0</ele><time>2026-04-30T17:59:44.483Z</time></trkpt><trkpt lat="45.3242336" lon="14.4422224"><ele>8.0</ele><time>2026-04-30T18:00:11.496Z</time></trkpt><trkpt lat="45.3242754" lon="14.442155"><ele>7.999999999999999</ele><time>2026-04-30T18:00:29.469Z</time></trkpt><trkpt lat="45.3243372" lon="14.4420567"><ele>8.0</ele><time>2026-04-30T18:01:51.408Z</time></trkpt><trkpt lat="45.3244879" lon="14.4417193"><ele>8.0</ele><time>2026-04-30T18:02:03.391Z</time></trkpt><trkpt lat="45.324475" lon="14.4418089"><ele>8.0</ele><time>2026-04-30T18:02:54.376Z</time></trkpt><trkpt lat="45.3242579" lon="14.442221"><ele>8.0</ele><time>2026-04-30T18:03:00.48Z</time></trkpt><trkpt lat="45.3241891" lon="14.4423495"><ele>8.0</ele><time>2026-04-30T18:03:01.496Z</time></trkpt><trkpt lat="45.3241491" lon="14.4424237"><ele>8.0</ele><time>2026-04-30T18:03:05.453Z</time></trkpt><trkpt lat="45.3241962" lon="14.4423574"><ele>8.0</ele><time>2026-04-30T18:14:14.37Z</time></trkpt><trkpt lat="45.3241565" lon="14.4424369"><ele>8.0</ele><time>2026-04-30T18:16:41.341Z</time></trkpt><trkpt lat="45.3241008" lon="14.4424797"><ele>8.0</ele><time>2026-04-30T18:17:52.446Z</time></trkpt><trkpt lat="45.3241352" lon="14.4423917"><ele>8.0</ele><time>2026-04-30T18:18:30.423Z</time></trkpt></trkseg></trk></gpx>